<?xml version="1.0" encoding="UTF-8" standalone="no" ?>
<gpx xmlns="http://www.topografix.com/GPX/1/1" xmlns:xsi="http://www.w3.org/2001/XMLSchema-instance" xsi:schemaLocation="http://www.topografix.com/GPX/1/1 http://www.topografix.com/GPX/1/1/gpx.xsd" version="1.1" creator="VisuGPX - https://www.visugpx.com">
  <metadata>
    <name>2017-12-15 Bike ride-Georges de Reneins O</name>
    <desc><![CDATA[2017-12-15 Bike ride-Georges de Reneins O]]></desc>
  </metadata>
  <wpt lat="45.92454" lon="4.73717">
    <ele>174</ele>
    <name><![CDATA[2017-12-15 10:50 (Start)]]></name>
  </wpt>
  <wpt lat="45.92463" lon="4.7371">
    <ele>174</ele>
    <name><![CDATA[2017-12-15 10:50 (End)]]></name>
    <desc><![CDATA[Created by Google My Tracks on Android  Name: 2017-12-15 10:50 Activity type: biking Description: - Total distance: 46.41 km (28.8 mi) Total time: 2:25:47 Moving time: 2:24:16 Average speed: 19.10 km/h (11.9 mi/h) Average moving speed: 19.30 km/h (12.0 mi/h) Max speed: 41.80 km/h (26.0 mi/h) Average pace: 3:08 min/km (5:03 min/mi) Average moving pace: 3:07 min/km (5:00 min/mi) Fastest pace: 1:26 min/km (2:19 min/mi) Max elevation: 284 m (931 ft) Min elevation: 212 m (694 ft) Elevation gain: 605 m (1985 ft) Max grade: 41 % Min grade: -49 % Recorded: 15/12/2017 10:50]]></desc>
  </wpt>
  <trk>
    <name><![CDATA[2017-12-15 10:50]]></name>
    <trkseg>
      <trkpt lat="45.92454" lon="4.73717">
        <ele>174</ele>
        <time>2017-12-15T09:50:41.475Z</time>
      </trkpt>
      <trkpt lat="45.92455" lon="4.73717">
        <ele>174</ele>
        <time>2017-12-15T09:50:42.975Z</time>
      </trkpt>
      <trkpt lat="45.92455" lon="4.73702">
        <ele>174</ele>
        <time>2017-12-15T09:50:43.961Z</time>
      </trkpt>
      <trkpt lat="45.92463" lon="4.73702">
        <ele>174</ele>
        <time>2017-12-15T09:51:18Z</time>
      </trkpt>
      <trkpt lat="45.92464" lon="4.737">
        <ele>174</ele>
        <time>2017-12-15T09:51:19Z</time>
      </trkpt>
      <trkpt lat="45.92467" lon="4.73691">
        <ele>174</ele>
        <time>2017-12-15T09:51:23Z</time>
      </trkpt>
      <trkpt lat="45.92468" lon="4.73687">
        <ele>174</ele>
        <time>2017-12-15T09:51:24Z</time>
      </trkpt>
      <trkpt lat="45.92471" lon="4.73675">
        <ele>174</ele>
        <time>2017-12-15T09:51:27Z</time>
      </trkpt>
      <trkpt lat="45.92471" lon="4.73671">
        <ele>174</ele>
        <time>2017-12-15T09:51:28Z</time>
      </trkpt>
      <trkpt lat="45.9247" lon="4.73659">
        <ele>174</ele>
        <time>2017-12-15T09:51:31Z</time>
      </trkpt>
      <trkpt lat="45.92471" lon="4.73654">
        <ele>174</ele>
        <time>2017-12-15T09:51:32Z</time>
      </trkpt>
      <trkpt lat="45.92472" lon="4.73645">
        <ele>174</ele>
        <time>2017-12-15T09:51:34Z</time>
      </trkpt>
      <trkpt lat="45.92474" lon="4.73641">
        <ele>174</ele>
        <time>2017-12-15T09:51:35Z</time>
      </trkpt>
      <trkpt lat="45.92479" lon="4.73635">
        <ele>174</ele>
        <time>2017-12-15T09:51:37Z</time>
      </trkpt>
      <trkpt lat="45.92482" lon="4.73634">
        <ele>174</ele>
        <time>2017-12-15T09:51:38Z</time>
      </trkpt>
      <trkpt lat="45.9249" lon="4.73633">
        <ele>174</ele>
        <time>2017-12-15T09:51:40Z</time>
      </trkpt>
      <trkpt lat="45.92494" lon="4.73634">
        <ele>174</ele>
        <time>2017-12-15T09:51:41Z</time>
      </trkpt>
      <trkpt lat="45.92503" lon="4.73636">
        <ele>174</ele>
        <time>2017-12-15T09:51:43Z</time>
      </trkpt>
      <trkpt lat="45.92508" lon="4.73636">
        <ele>174</ele>
        <time>2017-12-15T09:51:44Z</time>
      </trkpt>
      <trkpt lat="45.92516" lon="4.73635">
        <ele>173</ele>
        <time>2017-12-15T09:51:46Z</time>
      </trkpt>
      <trkpt lat="45.92521" lon="4.73634">
        <ele>173</ele>
        <time>2017-12-15T09:51:47Z</time>
      </trkpt>
      <trkpt lat="45.92526" lon="4.73633">
        <ele>173</ele>
        <time>2017-12-15T09:51:48Z</time>
      </trkpt>
      <trkpt lat="45.92531" lon="4.73633">
        <ele>173</ele>
        <time>2017-12-15T09:51:49Z</time>
      </trkpt>
      <trkpt lat="45.92536" lon="4.73633">
        <ele>173</ele>
        <time>2017-12-15T09:51:50Z</time>
      </trkpt>
      <trkpt lat="45.9254" lon="4.73632">
        <ele>173</ele>
        <time>2017-12-15T09:51:51Z</time>
      </trkpt>
      <trkpt lat="45.92546" lon="4.73632">
        <ele>173</ele>
        <time>2017-12-15T09:51:52Z</time>
      </trkpt>
      <trkpt lat="45.9255" lon="4.7363">
        <ele>173</ele>
        <time>2017-12-15T09:51:53Z</time>
      </trkpt>
      <trkpt lat="45.92556" lon="4.73629">
        <ele>173</ele>
        <time>2017-12-15T09:51:54Z</time>
      </trkpt>
      <trkpt lat="45.92561" lon="4.73627">
        <ele>173</ele>
        <time>2017-12-15T09:51:55Z</time>
      </trkpt>
      <trkpt lat="45.92566" lon="4.73625">
        <ele>173</ele>
        <time>2017-12-15T09:51:56Z</time>
      </trkpt>
      <trkpt lat="45.92571" lon="4.73623">
        <ele>173</ele>
        <time>2017-12-15T09:51:57Z</time>
      </trkpt>
      <trkpt lat="45.9258" lon="4.7362">
        <ele>173</ele>
        <time>2017-12-15T09:51:59Z</time>
      </trkpt>
      <trkpt lat="45.92585" lon="4.73619">
        <ele>173</ele>
        <time>2017-12-15T09:52:00Z</time>
      </trkpt>
      <trkpt lat="45.92589" lon="4.73618">
        <ele>173</ele>
        <time>2017-12-15T09:52:01Z</time>
      </trkpt>
      <trkpt lat="45.92594" lon="4.73617">
        <ele>173</ele>
        <time>2017-12-15T09:52:02Z</time>
      </trkpt>
      <trkpt lat="45.92598" lon="4.73617">
        <ele>173</ele>
        <time>2017-12-15T09:52:03Z</time>
      </trkpt>
      <trkpt lat="45.92603" lon="4.73617">
        <ele>173</ele>
        <time>2017-12-15T09:52:04Z</time>
      </trkpt>
      <trkpt lat="45.92608" lon="4.7362">
        <ele>173</ele>
        <time>2017-12-15T09:52:05Z</time>
      </trkpt>
      <trkpt lat="45.92612" lon="4.73622">
        <ele>173</ele>
        <time>2017-12-15T09:52:06Z</time>
      </trkpt>
      <trkpt lat="45.92616" lon="4.73627">
        <ele>173</ele>
        <time>2017-12-15T09:52:07Z</time>
      </trkpt>
      <trkpt lat="45.9262" lon="4.73633">
        <ele>173</ele>
        <time>2017-12-15T09:52:08Z</time>
      </trkpt>
      <trkpt lat="45.92624" lon="4.73638">
        <ele>173</ele>
        <time>2017-12-15T09:52:09Z</time>
      </trkpt>
      <trkpt lat="45.92626" lon="4.73644">
        <ele>173</ele>
        <time>2017-12-15T09:52:10Z</time>
      </trkpt>
      <trkpt lat="45.92629" lon="4.73649">
        <ele>173</ele>
        <time>2017-12-15T09:52:11Z</time>
      </trkpt>
      <trkpt lat="45.92632" lon="4.73656">
        <ele>173</ele>
        <time>2017-12-15T09:52:12Z</time>
      </trkpt>
      <trkpt lat="45.92636" lon="4.73663">
        <ele>173</ele>
        <time>2017-12-15T09:52:13Z</time>
      </trkpt>
      <trkpt lat="45.9264" lon="4.73669">
        <ele>173</ele>
        <time>2017-12-15T09:52:14Z</time>
      </trkpt>
      <trkpt lat="45.92644" lon="4.73675">
        <ele>173</ele>
        <time>2017-12-15T09:52:15Z</time>
      </trkpt>
      <trkpt lat="45.92648" lon="4.73681">
        <ele>173</ele>
        <time>2017-12-15T09:52:16Z</time>
      </trkpt>
      <trkpt lat="45.92653" lon="4.73686">
        <ele>173</ele>
        <time>2017-12-15T09:52:17Z</time>
      </trkpt>
      <trkpt lat="45.92659" lon="4.73692">
        <ele>173</ele>
        <time>2017-12-15T09:52:18Z</time>
      </trkpt>
      <trkpt lat="45.92666" lon="4.73695">
        <ele>173</ele>
        <time>2017-12-15T09:52:19Z</time>
      </trkpt>
      <trkpt lat="45.92672" lon="4.73698">
        <ele>174</ele>
        <time>2017-12-15T09:52:20Z</time>
      </trkpt>
      <trkpt lat="45.92679" lon="4.73701">
        <ele>173</ele>
        <time>2017-12-15T09:52:21Z</time>
      </trkpt>
      <trkpt lat="45.92684" lon="4.73703">
        <ele>173</ele>
        <time>2017-12-15T09:52:22Z</time>
      </trkpt>
      <trkpt lat="45.92689" lon="4.73705">
        <ele>173</ele>
        <time>2017-12-15T09:52:23Z</time>
      </trkpt>
      <trkpt lat="45.92693" lon="4.73706">
        <ele>173</ele>
        <time>2017-12-15T09:52:24Z</time>
      </trkpt>
      <trkpt lat="45.92697" lon="4.73707">
        <ele>173</ele>
        <time>2017-12-15T09:52:25Z</time>
      </trkpt>
      <trkpt lat="45.92703" lon="4.73708">
        <ele>173</ele>
        <time>2017-12-15T09:52:26Z</time>
      </trkpt>
      <trkpt lat="45.92708" lon="4.7371">
        <ele>173</ele>
        <time>2017-12-15T09:52:27Z</time>
      </trkpt>
      <trkpt lat="45.92713" lon="4.7371">
        <ele>173</ele>
        <time>2017-12-15T09:52:28Z</time>
      </trkpt>
      <trkpt lat="45.92717" lon="4.73712">
        <ele>173</ele>
        <time>2017-12-15T09:52:29Z</time>
      </trkpt>
      <trkpt lat="45.92722" lon="4.73713">
        <ele>173</ele>
        <time>2017-12-15T09:52:30Z</time>
      </trkpt>
      <trkpt lat="45.92727" lon="4.73715">
        <ele>173</ele>
        <time>2017-12-15T09:52:31Z</time>
      </trkpt>
      <trkpt lat="45.92732" lon="4.73715">
        <ele>173</ele>
        <time>2017-12-15T09:52:32Z</time>
      </trkpt>
      <trkpt lat="45.92737" lon="4.73717">
        <ele>173</ele>
        <time>2017-12-15T09:52:33Z</time>
      </trkpt>
      <trkpt lat="45.92742" lon="4.73719">
        <ele>173</ele>
        <time>2017-12-15T09:52:34Z</time>
      </trkpt>
      <trkpt lat="45.92748" lon="4.7372">
        <ele>173</ele>
        <time>2017-12-15T09:52:35Z</time>
      </trkpt>
      <trkpt lat="45.92753" lon="4.73721">
        <ele>172</ele>
        <time>2017-12-15T09:52:36Z</time>
      </trkpt>
      <trkpt lat="45.92758" lon="4.73722">
        <ele>172</ele>
        <time>2017-12-15T09:52:37Z</time>
      </trkpt>
      <trkpt lat="45.92762" lon="4.73724">
        <ele>172</ele>
        <time>2017-12-15T09:52:38Z</time>
      </trkpt>
      <trkpt lat="45.92771" lon="4.73728">
        <ele>172</ele>
        <time>2017-12-15T09:52:40Z</time>
      </trkpt>
      <trkpt lat="45.92775" lon="4.73727">
        <ele>172</ele>
        <time>2017-12-15T09:52:41Z</time>
      </trkpt>
      <trkpt lat="45.92783" lon="4.73725">
        <ele>172</ele>
        <time>2017-12-15T09:52:43Z</time>
      </trkpt>
      <trkpt lat="45.92786" lon="4.73718">
        <ele>172</ele>
        <time>2017-12-15T09:52:44Z</time>
      </trkpt>
      <trkpt lat="45.92789" lon="4.73712">
        <ele>172</ele>
        <time>2017-12-15T09:52:45Z</time>
      </trkpt>
      <trkpt lat="45.9279" lon="4.73705">
        <ele>172</ele>
        <time>2017-12-15T09:52:46Z</time>
      </trkpt>
      <trkpt lat="45.92792" lon="4.73697">
        <ele>172</ele>
        <time>2017-12-15T09:52:47Z</time>
      </trkpt>
      <trkpt lat="45.92793" lon="4.73689">
        <ele>172</ele>
        <time>2017-12-15T09:52:48Z</time>
      </trkpt>
      <trkpt lat="45.92794" lon="4.73683">
        <ele>172</ele>
        <time>2017-12-15T09:52:49Z</time>
      </trkpt>
      <trkpt lat="45.92796" lon="4.73675">
        <ele>172</ele>
        <time>2017-12-15T09:52:50Z</time>
      </trkpt>
      <trkpt lat="45.92797" lon="4.73668">
        <ele>172</ele>
        <time>2017-12-15T09:52:51Z</time>
      </trkpt>
      <trkpt lat="45.92799" lon="4.73662">
        <ele>172</ele>
        <time>2017-12-15T09:52:52Z</time>
      </trkpt>
      <trkpt lat="45.92801" lon="4.73654">
        <ele>172</ele>
        <time>2017-12-15T09:52:53Z</time>
      </trkpt>
      <trkpt lat="45.92803" lon="4.73647">
        <ele>172</ele>
        <time>2017-12-15T09:52:54Z</time>
      </trkpt>
      <trkpt lat="45.92806" lon="4.73636">
        <ele>172</ele>
        <time>2017-12-15T09:52:56Z</time>
      </trkpt>
      <trkpt lat="45.92808" lon="4.73631">
        <ele>172</ele>
        <time>2017-12-15T09:52:57Z</time>
      </trkpt>
      <trkpt lat="45.92815" lon="4.73625">
        <ele>172</ele>
        <time>2017-12-15T09:53:01Z</time>
      </trkpt>
      <trkpt lat="45.92819" lon="4.73623">
        <ele>172</ele>
        <time>2017-12-15T09:53:02Z</time>
      </trkpt>
      <trkpt lat="45.92822" lon="4.73615">
        <ele>172</ele>
        <time>2017-12-15T09:53:04Z</time>
      </trkpt>
      <trkpt lat="45.92823" lon="4.73609">
        <ele>171</ele>
        <time>2017-12-15T09:53:05Z</time>
      </trkpt>
      <trkpt lat="45.92823" lon="4.73597">
        <ele>171</ele>
        <time>2017-12-15T09:53:07Z</time>
      </trkpt>
      <trkpt lat="45.92823" lon="4.73591">
        <ele>171</ele>
        <time>2017-12-15T09:53:08Z</time>
      </trkpt>
      <trkpt lat="45.92823" lon="4.73583">
        <ele>171</ele>
        <time>2017-12-15T09:53:09Z</time>
      </trkpt>
      <trkpt lat="45.92823" lon="4.73576">
        <ele>171</ele>
        <time>2017-12-15T09:53:10Z</time>
      </trkpt>
      <trkpt lat="45.92823" lon="4.73569">
        <ele>171</ele>
        <time>2017-12-15T09:53:11Z</time>
      </trkpt>
      <trkpt lat="45.92823" lon="4.73561">
        <ele>171</ele>
        <time>2017-12-15T09:53:12Z</time>
      </trkpt>
      <trkpt lat="45.92823" lon="4.73554">
        <ele>171</ele>
        <time>2017-12-15T09:53:13Z</time>
      </trkpt>
      <trkpt lat="45.92824" lon="4.73547">
        <ele>171</ele>
        <time>2017-12-15T09:53:14Z</time>
      </trkpt>
      <trkpt lat="45.92825" lon="4.7354">
        <ele>172</ele>
        <time>2017-12-15T09:53:15Z</time>
      </trkpt>
      <trkpt lat="45.92825" lon="4.73532">
        <ele>172</ele>
        <time>2017-12-15T09:53:16Z</time>
      </trkpt>
      <trkpt lat="45.92827" lon="4.73525">
        <ele>172</ele>
        <time>2017-12-15T09:53:17Z</time>
      </trkpt>
      <trkpt lat="45.92828" lon="4.73517">
        <ele>172</ele>
        <time>2017-12-15T09:53:18Z</time>
      </trkpt>
      <trkpt lat="45.92829" lon="4.73509">
        <ele>172</ele>
        <time>2017-12-15T09:53:19Z</time>
      </trkpt>
      <trkpt lat="45.92829" lon="4.73501">
        <ele>172</ele>
        <time>2017-12-15T09:53:20Z</time>
      </trkpt>
      <trkpt lat="45.92829" lon="4.73493">
        <ele>172</ele>
        <time>2017-12-15T09:53:21Z</time>
      </trkpt>
      <trkpt lat="45.9283" lon="4.73485">
        <ele>172</ele>
        <time>2017-12-15T09:53:22Z</time>
      </trkpt>
      <trkpt lat="45.92831" lon="4.73477">
        <ele>172</ele>
        <time>2017-12-15T09:53:23Z</time>
      </trkpt>
      <trkpt lat="45.92832" lon="4.73468">
        <ele>172</ele>
        <time>2017-12-15T09:53:24Z</time>
      </trkpt>
      <trkpt lat="45.92833" lon="4.7346">
        <ele>172</ele>
        <time>2017-12-15T09:53:25Z</time>
      </trkpt>
      <trkpt lat="45.92834" lon="4.73452">
        <ele>172</ele>
        <time>2017-12-15T09:53:26Z</time>
      </trkpt>
      <trkpt lat="45.92834" lon="4.73444">
        <ele>172</ele>
        <time>2017-12-15T09:53:27Z</time>
      </trkpt>
      <trkpt lat="45.92836" lon="4.73434">
        <ele>172</ele>
        <time>2017-12-15T09:53:28Z</time>
      </trkpt>
      <trkpt lat="45.92837" lon="4.73425">
        <ele>172</ele>
        <time>2017-12-15T09:53:29Z</time>
      </trkpt>
      <trkpt lat="45.92838" lon="4.73417">
        <ele>172</ele>
        <time>2017-12-15T09:53:30Z</time>
      </trkpt>
      <trkpt lat="45.92839" lon="4.73409">
        <ele>172</ele>
        <time>2017-12-15T09:53:31Z</time>
      </trkpt>
      <trkpt lat="45.9284" lon="4.73401">
        <ele>172</ele>
        <time>2017-12-15T09:53:32Z</time>
      </trkpt>
      <trkpt lat="45.92841" lon="4.73393">
        <ele>172</ele>
        <time>2017-12-15T09:53:33Z</time>
      </trkpt>
      <trkpt lat="45.92842" lon="4.73384">
        <ele>172</ele>
        <time>2017-12-15T09:53:34Z</time>
      </trkpt>
      <trkpt lat="45.92842" lon="4.73377">
        <ele>172</ele>
        <time>2017-12-15T09:53:35Z</time>
      </trkpt>
      <trkpt lat="45.92844" lon="4.73369">
        <ele>171</ele>
        <time>2017-12-15T09:53:36Z</time>
      </trkpt>
      <trkpt lat="45.92845" lon="4.7336">
        <ele>171</ele>
        <time>2017-12-15T09:53:37Z</time>
      </trkpt>
      <trkpt lat="45.92845" lon="4.73351">
        <ele>171</ele>
        <time>2017-12-15T09:53:38Z</time>
      </trkpt>
      <trkpt lat="45.92846" lon="4.73343">
        <ele>171</ele>
        <time>2017-12-15T09:53:39Z</time>
      </trkpt>
      <trkpt lat="45.92847" lon="4.73335">
        <ele>171</ele>
        <time>2017-12-15T09:53:40Z</time>
      </trkpt>
      <trkpt lat="45.92848" lon="4.73326">
        <ele>171</ele>
        <time>2017-12-15T09:53:41Z</time>
      </trkpt>
      <trkpt lat="45.92849" lon="4.73316">
        <ele>171</ele>
        <time>2017-12-15T09:53:42Z</time>
      </trkpt>
      <trkpt lat="45.9285" lon="4.73308">
        <ele>171</ele>
        <time>2017-12-15T09:53:43Z</time>
      </trkpt>
      <trkpt lat="45.92851" lon="4.73299">
        <ele>171</ele>
        <time>2017-12-15T09:53:44Z</time>
      </trkpt>
      <trkpt lat="45.92853" lon="4.73291">
        <ele>171</ele>
        <time>2017-12-15T09:53:45Z</time>
      </trkpt>
      <trkpt lat="45.92854" lon="4.73282">
        <ele>171</ele>
        <time>2017-12-15T09:53:46Z</time>
      </trkpt>
      <trkpt lat="45.92854" lon="4.73273">
        <ele>171</ele>
        <time>2017-12-15T09:53:47Z</time>
      </trkpt>
      <trkpt lat="45.92856" lon="4.73265">
        <ele>171</ele>
        <time>2017-12-15T09:53:48Z</time>
      </trkpt>
      <trkpt lat="45.92857" lon="4.73256">
        <ele>171</ele>
        <time>2017-12-15T09:53:49Z</time>
      </trkpt>
      <trkpt lat="45.92859" lon="4.73248">
        <ele>171</ele>
        <time>2017-12-15T09:53:50Z</time>
      </trkpt>
      <trkpt lat="45.92859" lon="4.73239">
        <ele>171</ele>
        <time>2017-12-15T09:53:51Z</time>
      </trkpt>
      <trkpt lat="45.9286" lon="4.73231">
        <ele>171</ele>
        <time>2017-12-15T09:53:52Z</time>
      </trkpt>
      <trkpt lat="45.92861" lon="4.73223">
        <ele>171</ele>
        <time>2017-12-15T09:53:53Z</time>
      </trkpt>
      <trkpt lat="45.92862" lon="4.73214">
        <ele>171</ele>
        <time>2017-12-15T09:53:54Z</time>
      </trkpt>
      <trkpt lat="45.92863" lon="4.73206">
        <ele>171</ele>
        <time>2017-12-15T09:53:55Z</time>
      </trkpt>
      <trkpt lat="45.92864" lon="4.73198">
        <ele>171</ele>
        <time>2017-12-15T09:53:56Z</time>
      </trkpt>
      <trkpt lat="45.92865" lon="4.73189">
        <ele>171</ele>
        <time>2017-12-15T09:53:57Z</time>
      </trkpt>
      <trkpt lat="45.92866" lon="4.7318">
        <ele>171</ele>
        <time>2017-12-15T09:53:58Z</time>
      </trkpt>
      <trkpt lat="45.92868" lon="4.73172">
        <ele>171</ele>
        <time>2017-12-15T09:53:59Z</time>
      </trkpt>
      <trkpt lat="45.92869" lon="4.73163">
        <ele>171</ele>
        <time>2017-12-15T09:54:00Z</time>
      </trkpt>
      <trkpt lat="45.9287" lon="4.73155">
        <ele>171</ele>
        <time>2017-12-15T09:54:01Z</time>
      </trkpt>
      <trkpt lat="45.92871" lon="4.73146">
        <ele>171</ele>
        <time>2017-12-15T09:54:02Z</time>
      </trkpt>
      <trkpt lat="45.92873" lon="4.73137">
        <ele>171</ele>
        <time>2017-12-15T09:54:03Z</time>
      </trkpt>
      <trkpt lat="45.92874" lon="4.73129">
        <ele>171</ele>
        <time>2017-12-15T09:54:04Z</time>
      </trkpt>
      <trkpt lat="45.92876" lon="4.73122">
        <ele>172</ele>
        <time>2017-12-15T09:54:05Z</time>
      </trkpt>
      <trkpt lat="45.92878" lon="4.73114">
        <ele>172</ele>
        <time>2017-12-15T09:54:06Z</time>
      </trkpt>
      <trkpt lat="45.9288" lon="4.73106">
        <ele>172</ele>
        <time>2017-12-15T09:54:07Z</time>
      </trkpt>
      <trkpt lat="45.92882" lon="4.73099">
        <ele>172</ele>
        <time>2017-12-15T09:54:08Z</time>
      </trkpt>
      <trkpt lat="45.92884" lon="4.7309">
        <ele>172</ele>
        <time>2017-12-15T09:54:09Z</time>
      </trkpt>
      <trkpt lat="45.92887" lon="4.73082">
        <ele>172</ele>
        <time>2017-12-15T09:54:10Z</time>
      </trkpt>
      <trkpt lat="45.9289" lon="4.73076">
        <ele>172</ele>
        <time>2017-12-15T09:54:11Z</time>
      </trkpt>
      <trkpt lat="45.92894" lon="4.73069">
        <ele>172</ele>
        <time>2017-12-15T09:54:12Z</time>
      </trkpt>
      <trkpt lat="45.92897" lon="4.73062">
        <ele>172</ele>
        <time>2017-12-15T09:54:13Z</time>
      </trkpt>
      <trkpt lat="45.929" lon="4.73055">
        <ele>172</ele>
        <time>2017-12-15T09:54:14Z</time>
      </trkpt>
      <trkpt lat="45.92904" lon="4.73049">
        <ele>172</ele>
        <time>2017-12-15T09:54:15Z</time>
      </trkpt>
      <trkpt lat="45.92907" lon="4.73043">
        <ele>172</ele>
        <time>2017-12-15T09:54:16Z</time>
      </trkpt>
      <trkpt lat="45.92911" lon="4.73037">
        <ele>172</ele>
        <time>2017-12-15T09:54:17Z</time>
      </trkpt>
      <trkpt lat="45.92915" lon="4.7303">
        <ele>172</ele>
        <time>2017-12-15T09:54:18Z</time>
      </trkpt>
      <trkpt lat="45.92919" lon="4.73024">
        <ele>172</ele>
        <time>2017-12-15T09:54:19Z</time>
      </trkpt>
      <trkpt lat="45.92923" lon="4.73019">
        <ele>172</ele>
        <time>2017-12-15T09:54:20Z</time>
      </trkpt>
      <trkpt lat="45.92927" lon="4.73015">
        <ele>172</ele>
        <time>2017-12-15T09:54:21Z</time>
      </trkpt>
      <trkpt lat="45.92931" lon="4.73009">
        <ele>171</ele>
        <time>2017-12-15T09:54:22Z</time>
      </trkpt>
      <trkpt lat="45.92935" lon="4.73004">
        <ele>171</ele>
        <time>2017-12-15T09:54:23Z</time>
      </trkpt>
      <trkpt lat="45.9294" lon="4.72998">
        <ele>171</ele>
        <time>2017-12-15T09:54:24Z</time>
      </trkpt>
      <trkpt lat="45.92944" lon="4.72993">
        <ele>171</ele>
        <time>2017-12-15T09:54:25Z</time>
      </trkpt>
      <trkpt lat="45.92948" lon="4.72987">
        <ele>171</ele>
        <time>2017-12-15T09:54:26Z</time>
      </trkpt>
      <trkpt lat="45.92953" lon="4.72982">
        <ele>171</ele>
        <time>2017-12-15T09:54:27Z</time>
      </trkpt>
      <trkpt lat="45.92957" lon="4.72977">
        <ele>171</ele>
        <time>2017-12-15T09:54:28Z</time>
      </trkpt>
      <trkpt lat="45.92961" lon="4.72973">
        <ele>171</ele>
        <time>2017-12-15T09:54:29Z</time>
      </trkpt>
      <trkpt lat="45.92966" lon="4.72967">
        <ele>171</ele>
        <time>2017-12-15T09:54:30Z</time>
      </trkpt>
      <trkpt lat="45.9297" lon="4.72962">
        <ele>171</ele>
        <time>2017-12-15T09:54:31Z</time>
      </trkpt>
      <trkpt lat="45.92974" lon="4.72956">
        <ele>171</ele>
        <time>2017-12-15T09:54:32Z</time>
      </trkpt>
      <trkpt lat="45.92978" lon="4.7295">
        <ele>171</ele>
        <time>2017-12-15T09:54:33Z</time>
      </trkpt>
      <trkpt lat="45.92983" lon="4.72944">
        <ele>171</ele>
        <time>2017-12-15T09:54:34Z</time>
      </trkpt>
      <trkpt lat="45.92987" lon="4.72939">
        <ele>171</ele>
        <time>2017-12-15T09:54:35Z</time>
      </trkpt>
      <trkpt lat="45.92992" lon="4.72931">
        <ele>171</ele>
        <time>2017-12-15T09:54:36Z</time>
      </trkpt>
      <trkpt lat="45.92997" lon="4.72927">
        <ele>171</ele>
        <time>2017-12-15T09:54:37Z</time>
      </trkpt>
      <trkpt lat="45.93" lon="4.72922">
        <ele>171</ele>
        <time>2017-12-15T09:54:38Z</time>
      </trkpt>
      <trkpt lat="45.93006" lon="4.72917">
        <ele>171</ele>
        <time>2017-12-15T09:54:39Z</time>
      </trkpt>
      <trkpt lat="45.93011" lon="4.72911">
        <ele>171</ele>
        <time>2017-12-15T09:54:40Z</time>
      </trkpt>
      <trkpt lat="45.93017" lon="4.72904">
        <ele>172</ele>
        <time>2017-12-15T09:54:41Z</time>
      </trkpt>
      <trkpt lat="45.93021" lon="4.72899">
        <ele>172</ele>
        <time>2017-12-15T09:54:42Z</time>
      </trkpt>
      <trkpt lat="45.93026" lon="4.72893">
        <ele>172</ele>
        <time>2017-12-15T09:54:43Z</time>
      </trkpt>
      <trkpt lat="45.93031" lon="4.72888">
        <ele>172</ele>
        <time>2017-12-15T09:54:44Z</time>
      </trkpt>
      <trkpt lat="45.93035" lon="4.72883">
        <ele>172</ele>
        <time>2017-12-15T09:54:45Z</time>
      </trkpt>
      <trkpt lat="45.9304" lon="4.72877">
        <ele>172</ele>
        <time>2017-12-15T09:54:46Z</time>
      </trkpt>
      <trkpt lat="45.93044" lon="4.72872">
        <ele>172</ele>
        <time>2017-12-15T09:54:47Z</time>
      </trkpt>
      <trkpt lat="45.93048" lon="4.72866">
        <ele>172</ele>
        <time>2017-12-15T09:54:48Z</time>
      </trkpt>
      <trkpt lat="45.93052" lon="4.72861">
        <ele>172</ele>
        <time>2017-12-15T09:54:49Z</time>
      </trkpt>
      <trkpt lat="45.93057" lon="4.72856">
        <ele>172</ele>
        <time>2017-12-15T09:54:50Z</time>
      </trkpt>
      <trkpt lat="45.93062" lon="4.72851">
        <ele>172</ele>
        <time>2017-12-15T09:54:51Z</time>
      </trkpt>
      <trkpt lat="45.93066" lon="4.72846">
        <ele>172</ele>
        <time>2017-12-15T09:54:52Z</time>
      </trkpt>
      <trkpt lat="45.93071" lon="4.7284">
        <ele>173</ele>
        <time>2017-12-15T09:54:53Z</time>
      </trkpt>
      <trkpt lat="45.93075" lon="4.72834">
        <ele>173</ele>
        <time>2017-12-15T09:54:54Z</time>
      </trkpt>
      <trkpt lat="45.9308" lon="4.72827">
        <ele>173</ele>
        <time>2017-12-15T09:54:55Z</time>
      </trkpt>
      <trkpt lat="45.93085" lon="4.72823">
        <ele>172</ele>
        <time>2017-12-15T09:54:56Z</time>
      </trkpt>
      <trkpt lat="45.93089" lon="4.72819">
        <ele>172</ele>
        <time>2017-12-15T09:54:57Z</time>
      </trkpt>
      <trkpt lat="45.93093" lon="4.72808">
        <ele>172</ele>
        <time>2017-12-15T09:54:58Z</time>
      </trkpt>
      <trkpt lat="45.93099" lon="4.72808">
        <ele>172</ele>
        <time>2017-12-15T09:54:59Z</time>
      </trkpt>
      <trkpt lat="45.93103" lon="4.72803">
        <ele>171</ele>
        <time>2017-12-15T09:55:00Z</time>
      </trkpt>
      <trkpt lat="45.93107" lon="4.72799">
        <ele>171</ele>
        <time>2017-12-15T09:55:01Z</time>
      </trkpt>
      <trkpt lat="45.93113" lon="4.72796">
        <ele>171</ele>
        <time>2017-12-15T09:55:02Z</time>
      </trkpt>
      <trkpt lat="45.93118" lon="4.72791">
        <ele>171</ele>
        <time>2017-12-15T09:55:03Z</time>
      </trkpt>
      <trkpt lat="45.93122" lon="4.72786">
        <ele>171</ele>
        <time>2017-12-15T09:55:04Z</time>
      </trkpt>
      <trkpt lat="45.93126" lon="4.7278">
        <ele>171</ele>
        <time>2017-12-15T09:55:05Z</time>
      </trkpt>
      <trkpt lat="45.93131" lon="4.72775">
        <ele>171</ele>
        <time>2017-12-15T09:55:06Z</time>
      </trkpt>
      <trkpt lat="45.93135" lon="4.7277">
        <ele>171</ele>
        <time>2017-12-15T09:55:07Z</time>
      </trkpt>
      <trkpt lat="45.9314" lon="4.72765">
        <ele>171</ele>
        <time>2017-12-15T09:55:08Z</time>
      </trkpt>
      <trkpt lat="45.93145" lon="4.72759">
        <ele>171</ele>
        <time>2017-12-15T09:55:09Z</time>
      </trkpt>
      <trkpt lat="45.9315" lon="4.72754">
        <ele>170</ele>
        <time>2017-12-15T09:55:10Z</time>
      </trkpt>
      <trkpt lat="45.93154" lon="4.72749">
        <ele>170</ele>
        <time>2017-12-15T09:55:11Z</time>
      </trkpt>
      <trkpt lat="45.93159" lon="4.72744">
        <ele>170</ele>
        <time>2017-12-15T09:55:12Z</time>
      </trkpt>
      <trkpt lat="45.93164" lon="4.72739">
        <ele>170</ele>
        <time>2017-12-15T09:55:13Z</time>
      </trkpt>
      <trkpt lat="45.93169" lon="4.72731">
        <ele>170</ele>
        <time>2017-12-15T09:55:14Z</time>
      </trkpt>
      <trkpt lat="45.93174" lon="4.72724">
        <ele>170</ele>
        <time>2017-12-15T09:55:15Z</time>
      </trkpt>
      <trkpt lat="45.93178" lon="4.72719">
        <ele>169</ele>
        <time>2017-12-15T09:55:16Z</time>
      </trkpt>
      <trkpt lat="45.93183" lon="4.72714">
        <ele>169</ele>
        <time>2017-12-15T09:55:17Z</time>
      </trkpt>
      <trkpt lat="45.93187" lon="4.72708">
        <ele>169</ele>
        <time>2017-12-15T09:55:18Z</time>
      </trkpt>
      <trkpt lat="45.93192" lon="4.72702">
        <ele>169</ele>
        <time>2017-12-15T09:55:19Z</time>
      </trkpt>
      <trkpt lat="45.93196" lon="4.72697">
        <ele>169</ele>
        <time>2017-12-15T09:55:20Z</time>
      </trkpt>
      <trkpt lat="45.93201" lon="4.72691">
        <ele>169</ele>
        <time>2017-12-15T09:55:21Z</time>
      </trkpt>
      <trkpt lat="45.93205" lon="4.72686">
        <ele>169</ele>
        <time>2017-12-15T09:55:22Z</time>
      </trkpt>
      <trkpt lat="45.93209" lon="4.72681">
        <ele>169</ele>
        <time>2017-12-15T09:55:23Z</time>
      </trkpt>
      <trkpt lat="45.93214" lon="4.72675">
        <ele>169</ele>
        <time>2017-12-15T09:55:24Z</time>
      </trkpt>
      <trkpt lat="45.93219" lon="4.7267">
        <ele>169</ele>
        <time>2017-12-15T09:55:25Z</time>
      </trkpt>
      <trkpt lat="45.93223" lon="4.72666">
        <ele>170</ele>
        <time>2017-12-15T09:55:26Z</time>
      </trkpt>
      <trkpt lat="45.93227" lon="4.7266">
        <ele>170</ele>
        <time>2017-12-15T09:55:27Z</time>
      </trkpt>
      <trkpt lat="45.93232" lon="4.72656">
        <ele>169</ele>
        <time>2017-12-15T09:55:28Z</time>
      </trkpt>
      <trkpt lat="45.93236" lon="4.72648">
        <ele>170</ele>
        <time>2017-12-15T09:55:29Z</time>
      </trkpt>
      <trkpt lat="45.93241" lon="4.72641">
        <ele>170</ele>
        <time>2017-12-15T09:55:30Z</time>
      </trkpt>
      <trkpt lat="45.93245" lon="4.72635">
        <ele>170</ele>
        <time>2017-12-15T09:55:31Z</time>
      </trkpt>
      <trkpt lat="45.9325" lon="4.7263">
        <ele>170</ele>
        <time>2017-12-15T09:55:32Z</time>
      </trkpt>
      <trkpt lat="45.93255" lon="4.72625">
        <ele>170</ele>
        <time>2017-12-15T09:55:33Z</time>
      </trkpt>
      <trkpt lat="45.9326" lon="4.72619">
        <ele>170</ele>
        <time>2017-12-15T09:55:34Z</time>
      </trkpt>
      <trkpt lat="45.93264" lon="4.72614">
        <ele>170</ele>
        <time>2017-12-15T09:55:35Z</time>
      </trkpt>
      <trkpt lat="45.93268" lon="4.72609">
        <ele>170</ele>
        <time>2017-12-15T09:55:36Z</time>
      </trkpt>
      <trkpt lat="45.93273" lon="4.72603">
        <ele>170</ele>
        <time>2017-12-15T09:55:37Z</time>
      </trkpt>
      <trkpt lat="45.93277" lon="4.72597">
        <ele>170</ele>
        <time>2017-12-15T09:55:38Z</time>
      </trkpt>
      <trkpt lat="45.93282" lon="4.72592">
        <ele>170</ele>
        <time>2017-12-15T09:55:39Z</time>
      </trkpt>
      <trkpt lat="45.93287" lon="4.72586">
        <ele>170</ele>
        <time>2017-12-15T09:55:40Z</time>
      </trkpt>
      <trkpt lat="45.93291" lon="4.72581">
        <ele>171</ele>
        <time>2017-12-15T09:55:41Z</time>
      </trkpt>
      <trkpt lat="45.93295" lon="4.72576">
        <ele>171</ele>
        <time>2017-12-15T09:55:42Z</time>
      </trkpt>
      <trkpt lat="45.933" lon="4.7257">
        <ele>171</ele>
        <time>2017-12-15T09:55:43Z</time>
      </trkpt>
      <trkpt lat="45.93304" lon="4.72565">
        <ele>171</ele>
        <time>2017-12-15T09:55:44Z</time>
      </trkpt>
      <trkpt lat="45.93309" lon="4.72558">
        <ele>172</ele>
        <time>2017-12-15T09:55:45Z</time>
      </trkpt>
      <trkpt lat="45.93315" lon="4.72553">
        <ele>172</ele>
        <time>2017-12-15T09:55:46Z</time>
      </trkpt>
      <trkpt lat="45.93319" lon="4.72548">
        <ele>172</ele>
        <time>2017-12-15T09:55:47Z</time>
      </trkpt>
      <trkpt lat="45.93323" lon="4.72542">
        <ele>172</ele>
        <time>2017-12-15T09:55:48Z</time>
      </trkpt>
      <trkpt lat="45.93328" lon="4.72537">
        <ele>172</ele>
        <time>2017-12-15T09:55:49Z</time>
      </trkpt>
      <trkpt lat="45.93332" lon="4.72532">
        <ele>172</ele>
        <time>2017-12-15T09:55:50Z</time>
      </trkpt>
      <trkpt lat="45.93336" lon="4.72528">
        <ele>172</ele>
        <time>2017-12-15T09:55:51Z</time>
      </trkpt>
      <trkpt lat="45.9334" lon="4.72524">
        <ele>172</ele>
        <time>2017-12-15T09:55:52Z</time>
      </trkpt>
      <trkpt lat="45.93343" lon="4.72519">
        <ele>172</ele>
        <time>2017-12-15T09:55:53Z</time>
      </trkpt>
      <trkpt lat="45.93348" lon="4.72515">
        <ele>172</ele>
        <time>2017-12-15T09:55:54Z</time>
      </trkpt>
      <trkpt lat="45.93352" lon="4.7251">
        <ele>172</ele>
        <time>2017-12-15T09:55:55Z</time>
      </trkpt>
      <trkpt lat="45.93357" lon="4.72505">
        <ele>172</ele>
        <time>2017-12-15T09:55:56Z</time>
      </trkpt>
      <trkpt lat="45.93362" lon="4.725">
        <ele>173</ele>
        <time>2017-12-15T09:55:57Z</time>
      </trkpt>
      <trkpt lat="45.93367" lon="4.72495">
        <ele>173</ele>
        <time>2017-12-15T09:55:58Z</time>
      </trkpt>
      <trkpt lat="45.93371" lon="4.7249">
        <ele>173</ele>
        <time>2017-12-15T09:55:59Z</time>
      </trkpt>
      <trkpt lat="45.93376" lon="4.72484">
        <ele>173</ele>
        <time>2017-12-15T09:56:00Z</time>
      </trkpt>
      <trkpt lat="45.93381" lon="4.7248">
        <ele>173</ele>
        <time>2017-12-15T09:56:01Z</time>
      </trkpt>
      <trkpt lat="45.93385" lon="4.72475">
        <ele>173</ele>
        <time>2017-12-15T09:56:02Z</time>
      </trkpt>
      <trkpt lat="45.93388" lon="4.7247">
        <ele>173</ele>
        <time>2017-12-15T09:56:03Z</time>
      </trkpt>
      <trkpt lat="45.93392" lon="4.72465">
        <ele>173</ele>
        <time>2017-12-15T09:56:04Z</time>
      </trkpt>
      <trkpt lat="45.93394" lon="4.7246">
        <ele>173</ele>
        <time>2017-12-15T09:56:05Z</time>
      </trkpt>
      <trkpt lat="45.93397" lon="4.72454">
        <ele>173</ele>
        <time>2017-12-15T09:56:06Z</time>
      </trkpt>
      <trkpt lat="45.934" lon="4.72443">
        <ele>173</ele>
        <time>2017-12-15T09:56:09Z</time>
      </trkpt>
      <trkpt lat="45.93401" lon="4.7244">
        <ele>173</ele>
        <time>2017-12-15T09:56:10Z</time>
      </trkpt>
      <trkpt lat="45.93405" lon="4.72429">
        <ele>173</ele>
        <time>2017-12-15T09:56:14Z</time>
      </trkpt>
      <trkpt lat="45.93407" lon="4.72426">
        <ele>174</ele>
        <time>2017-12-15T09:56:15Z</time>
      </trkpt>
      <trkpt lat="45.93412" lon="4.72418">
        <ele>174</ele>
        <time>2017-12-15T09:56:17Z</time>
      </trkpt>
      <trkpt lat="45.93415" lon="4.72415">
        <ele>174</ele>
        <time>2017-12-15T09:56:18Z</time>
      </trkpt>
      <trkpt lat="45.93422" lon="4.7241">
        <ele>174</ele>
        <time>2017-12-15T09:56:20Z</time>
      </trkpt>
      <trkpt lat="45.93427" lon="4.72409">
        <ele>174</ele>
        <time>2017-12-15T09:56:21Z</time>
      </trkpt>
      <trkpt lat="45.93432" lon="4.72406">
        <ele>174</ele>
        <time>2017-12-15T09:56:22Z</time>
      </trkpt>
      <trkpt lat="45.93437" lon="4.72402">
        <ele>173</ele>
        <time>2017-12-15T09:56:23Z</time>
      </trkpt>
      <trkpt lat="45.93442" lon="4.724">
        <ele>173</ele>
        <time>2017-12-15T09:56:24Z</time>
      </trkpt>
      <trkpt lat="45.93447" lon="4.72396">
        <ele>173</ele>
        <time>2017-12-15T09:56:25Z</time>
      </trkpt>
      <trkpt lat="45.93451" lon="4.72393">
        <ele>173</ele>
        <time>2017-12-15T09:56:26Z</time>
      </trkpt>
      <trkpt lat="45.93456" lon="4.72389">
        <ele>173</ele>
        <time>2017-12-15T09:56:27Z</time>
      </trkpt>
      <trkpt lat="45.93461" lon="4.72385">
        <ele>173</ele>
        <time>2017-12-15T09:56:28Z</time>
      </trkpt>
      <trkpt lat="45.93465" lon="4.7238">
        <ele>173</ele>
        <time>2017-12-15T09:56:29Z</time>
      </trkpt>
      <trkpt lat="45.9347" lon="4.72374">
        <ele>173</ele>
        <time>2017-12-15T09:56:30Z</time>
      </trkpt>
      <trkpt lat="45.93474" lon="4.72368">
        <ele>173</ele>
        <time>2017-12-15T09:56:31Z</time>
      </trkpt>
      <trkpt lat="45.93478" lon="4.72362">
        <ele>173</ele>
        <time>2017-12-15T09:56:32Z</time>
      </trkpt>
      <trkpt lat="45.93482" lon="4.72356">
        <ele>173</ele>
        <time>2017-12-15T09:56:33Z</time>
      </trkpt>
      <trkpt lat="45.93486" lon="4.7235">
        <ele>173</ele>
        <time>2017-12-15T09:56:34Z</time>
      </trkpt>
      <trkpt lat="45.9349" lon="4.72344">
        <ele>173</ele>
        <time>2017-12-15T09:56:35Z</time>
      </trkpt>
      <trkpt lat="45.93494" lon="4.7234">
        <ele>173</ele>
        <time>2017-12-15T09:56:36Z</time>
      </trkpt>
      <trkpt lat="45.93497" lon="4.72333">
        <ele>173</ele>
        <time>2017-12-15T09:56:37Z</time>
      </trkpt>
      <trkpt lat="45.935" lon="4.72329">
        <ele>173</ele>
        <time>2017-12-15T09:56:38Z</time>
      </trkpt>
      <trkpt lat="45.93505" lon="4.72323">
        <ele>173</ele>
        <time>2017-12-15T09:56:39Z</time>
      </trkpt>
      <trkpt lat="45.93508" lon="4.72318">
        <ele>173</ele>
        <time>2017-12-15T09:56:40Z</time>
      </trkpt>
      <trkpt lat="45.93512" lon="4.72313">
        <ele>173</ele>
        <time>2017-12-15T09:56:41Z</time>
      </trkpt>
      <trkpt lat="45.93515" lon="4.72308">
        <ele>173</ele>
        <time>2017-12-15T09:56:42Z</time>
      </trkpt>
      <trkpt lat="45.93518" lon="4.72303">
        <ele>173</ele>
        <time>2017-12-15T09:56:43Z</time>
      </trkpt>
      <trkpt lat="45.93521" lon="4.72298">
        <ele>172</ele>
        <time>2017-12-15T09:56:44Z</time>
      </trkpt>
      <trkpt lat="45.93525" lon="4.72293">
        <ele>172</ele>
        <time>2017-12-15T09:56:45Z</time>
      </trkpt>
      <trkpt lat="45.93528" lon="4.72287">
        <ele>172</ele>
        <time>2017-12-15T09:56:46Z</time>
      </trkpt>
      <trkpt lat="45.93531" lon="4.7228">
        <ele>172</ele>
        <time>2017-12-15T09:56:47Z</time>
      </trkpt>
      <trkpt lat="45.93534" lon="4.72274">
        <ele>172</ele>
        <time>2017-12-15T09:56:48Z</time>
      </trkpt>
      <trkpt lat="45.93536" lon="4.72267">
        <ele>172</ele>
        <time>2017-12-15T09:56:49Z</time>
      </trkpt>
      <trkpt lat="45.93538" lon="4.72261">
        <ele>172</ele>
        <time>2017-12-15T09:56:50Z</time>
      </trkpt>
      <trkpt lat="45.93541" lon="4.72254">
        <ele>172</ele>
        <time>2017-12-15T09:56:51Z</time>
      </trkpt>
      <trkpt lat="45.93543" lon="4.72248">
        <ele>172</ele>
        <time>2017-12-15T09:56:52Z</time>
      </trkpt>
      <trkpt lat="45.93545" lon="4.72242">
        <ele>172</ele>
        <time>2017-12-15T09:56:53Z</time>
      </trkpt>
      <trkpt lat="45.93547" lon="4.72235">
        <ele>172</ele>
        <time>2017-12-15T09:56:54Z</time>
      </trkpt>
      <trkpt lat="45.9355" lon="4.72228">
        <ele>172</ele>
        <time>2017-12-15T09:56:55Z</time>
      </trkpt>
      <trkpt lat="45.93553" lon="4.72223">
        <ele>173</ele>
        <time>2017-12-15T09:56:56Z</time>
      </trkpt>
      <trkpt lat="45.93558" lon="4.72216">
        <ele>173</ele>
        <time>2017-12-15T09:56:57Z</time>
      </trkpt>
      <trkpt lat="45.93562" lon="4.72211">
        <ele>173</ele>
        <time>2017-12-15T09:56:58Z</time>
      </trkpt>
      <trkpt lat="45.93567" lon="4.72206">
        <ele>173</ele>
        <time>2017-12-15T09:56:59Z</time>
      </trkpt>
      <trkpt lat="45.93571" lon="4.72201">
        <ele>173</ele>
        <time>2017-12-15T09:57:00Z</time>
      </trkpt>
      <trkpt lat="45.93576" lon="4.72196">
        <ele>173</ele>
        <time>2017-12-15T09:57:01Z</time>
      </trkpt>
      <trkpt lat="45.93581" lon="4.72193">
        <ele>173</ele>
        <time>2017-12-15T09:57:02Z</time>
      </trkpt>
      <trkpt lat="45.93585" lon="4.72189">
        <ele>173</ele>
        <time>2017-12-15T09:57:03Z</time>
      </trkpt>
      <trkpt lat="45.9359" lon="4.72185">
        <ele>173</ele>
        <time>2017-12-15T09:57:04Z</time>
      </trkpt>
      <trkpt lat="45.93595" lon="4.72181">
        <ele>173</ele>
        <time>2017-12-15T09:57:05Z</time>
      </trkpt>
      <trkpt lat="45.93599" lon="4.72177">
        <ele>173</ele>
        <time>2017-12-15T09:57:06Z</time>
      </trkpt>
      <trkpt lat="45.93603" lon="4.72173">
        <ele>173</ele>
        <time>2017-12-15T09:57:07Z</time>
      </trkpt>
      <trkpt lat="45.93609" lon="4.72168">
        <ele>173</ele>
        <time>2017-12-15T09:57:08Z</time>
      </trkpt>
      <trkpt lat="45.93614" lon="4.72164">
        <ele>173</ele>
        <time>2017-12-15T09:57:09Z</time>
      </trkpt>
      <trkpt lat="45.93619" lon="4.72159">
        <ele>173</ele>
        <time>2017-12-15T09:57:10Z</time>
      </trkpt>
      <trkpt lat="45.93623" lon="4.72153">
        <ele>173</ele>
        <time>2017-12-15T09:57:11Z</time>
      </trkpt>
      <trkpt lat="45.93628" lon="4.72146">
        <ele>173</ele>
        <time>2017-12-15T09:57:12Z</time>
      </trkpt>
      <trkpt lat="45.93632" lon="4.7214">
        <ele>173</ele>
        <time>2017-12-15T09:57:13Z</time>
      </trkpt>
      <trkpt lat="45.93637" lon="4.72134">
        <ele>173</ele>
        <time>2017-12-15T09:57:14Z</time>
      </trkpt>
      <trkpt lat="45.93642" lon="4.72126">
        <ele>173</ele>
        <time>2017-12-15T09:57:15Z</time>
      </trkpt>
      <trkpt lat="45.93645" lon="4.7212">
        <ele>173</ele>
        <time>2017-12-15T09:57:16Z</time>
      </trkpt>
      <trkpt lat="45.93649" lon="4.72114">
        <ele>173</ele>
        <time>2017-12-15T09:57:17Z</time>
      </trkpt>
      <trkpt lat="45.93653" lon="4.72107">
        <ele>173</ele>
        <time>2017-12-15T09:57:18Z</time>
      </trkpt>
      <trkpt lat="45.93657" lon="4.72101">
        <ele>173</ele>
        <time>2017-12-15T09:57:19Z</time>
      </trkpt>
      <trkpt lat="45.9366" lon="4.72096">
        <ele>173</ele>
        <time>2017-12-15T09:57:20Z</time>
      </trkpt>
      <trkpt lat="45.93663" lon="4.7209">
        <ele>172</ele>
        <time>2017-12-15T09:57:21Z</time>
      </trkpt>
      <trkpt lat="45.93666" lon="4.72085">
        <ele>172</ele>
        <time>2017-12-15T09:57:22Z</time>
      </trkpt>
      <trkpt lat="45.93669" lon="4.72078">
        <ele>172</ele>
        <time>2017-12-15T09:57:23Z</time>
      </trkpt>
      <trkpt lat="45.93672" lon="4.72073">
        <ele>172</ele>
        <time>2017-12-15T09:57:24Z</time>
      </trkpt>
      <trkpt lat="45.93675" lon="4.72067">
        <ele>172</ele>
        <time>2017-12-15T09:57:25Z</time>
      </trkpt>
      <trkpt lat="45.93679" lon="4.72059">
        <ele>172</ele>
        <time>2017-12-15T09:57:26Z</time>
      </trkpt>
      <trkpt lat="45.93683" lon="4.72053">
        <ele>172</ele>
        <time>2017-12-15T09:57:27Z</time>
      </trkpt>
      <trkpt lat="45.93687" lon="4.72046">
        <ele>172</ele>
        <time>2017-12-15T09:57:28Z</time>
      </trkpt>
      <trkpt lat="45.9369" lon="4.72039">
        <ele>173</ele>
        <time>2017-12-15T09:57:29Z</time>
      </trkpt>
      <trkpt lat="45.93693" lon="4.72032">
        <ele>172</ele>
        <time>2017-12-15T09:57:30Z</time>
      </trkpt>
      <trkpt lat="45.93697" lon="4.72026">
        <ele>172</ele>
        <time>2017-12-15T09:57:31Z</time>
      </trkpt>
      <trkpt lat="45.93701" lon="4.72019">
        <ele>172</ele>
        <time>2017-12-15T09:57:32Z</time>
      </trkpt>
      <trkpt lat="45.93703" lon="4.72013">
        <ele>172</ele>
        <time>2017-12-15T09:57:33Z</time>
      </trkpt>
      <trkpt lat="45.93707" lon="4.72008">
        <ele>172</ele>
        <time>2017-12-15T09:57:34Z</time>
      </trkpt>
      <trkpt lat="45.93711" lon="4.72002">
        <ele>172</ele>
        <time>2017-12-15T09:57:35Z</time>
      </trkpt>
      <trkpt lat="45.93714" lon="4.71996">
        <ele>172</ele>
        <time>2017-12-15T09:57:36Z</time>
      </trkpt>
      <trkpt lat="45.93717" lon="4.7199">
        <ele>172</ele>
        <time>2017-12-15T09:57:37Z</time>
      </trkpt>
      <trkpt lat="45.93721" lon="4.71984">
        <ele>172</ele>
        <time>2017-12-15T09:57:38Z</time>
      </trkpt>
      <trkpt lat="45.93724" lon="4.71977">
        <ele>172</ele>
        <time>2017-12-15T09:57:39Z</time>
      </trkpt>
      <trkpt lat="45.9373" lon="4.71971">
        <ele>172</ele>
        <time>2017-12-15T09:57:40Z</time>
      </trkpt>
      <trkpt lat="45.93735" lon="4.71965">
        <ele>172</ele>
        <time>2017-12-15T09:57:41Z</time>
      </trkpt>
      <trkpt lat="45.9374" lon="4.71961">
        <ele>172</ele>
        <time>2017-12-15T09:57:42Z</time>
      </trkpt>
      <trkpt lat="45.93747" lon="4.71956">
        <ele>172</ele>
        <time>2017-12-15T09:57:43Z</time>
      </trkpt>
      <trkpt lat="45.93751" lon="4.71952">
        <ele>171</ele>
        <time>2017-12-15T09:57:44Z</time>
      </trkpt>
      <trkpt lat="45.93756" lon="4.71947">
        <ele>171</ele>
        <time>2017-12-15T09:57:45Z</time>
      </trkpt>
      <trkpt lat="45.9376" lon="4.7194">
        <ele>171</ele>
        <time>2017-12-15T09:57:46Z</time>
      </trkpt>
      <trkpt lat="45.93764" lon="4.71932">
        <ele>171</ele>
        <time>2017-12-15T09:57:47Z</time>
      </trkpt>
      <trkpt lat="45.93768" lon="4.71925">
        <ele>171</ele>
        <time>2017-12-15T09:57:48Z</time>
      </trkpt>
      <trkpt lat="45.93772" lon="4.71917">
        <ele>171</ele>
        <time>2017-12-15T09:57:49Z</time>
      </trkpt>
      <trkpt lat="45.93776" lon="4.71909">
        <ele>172</ele>
        <time>2017-12-15T09:57:50Z</time>
      </trkpt>
      <trkpt lat="45.9378" lon="4.71901">
        <ele>172</ele>
        <time>2017-12-15T09:57:51Z</time>
      </trkpt>
      <trkpt lat="45.93782" lon="4.71893">
        <ele>172</ele>
        <time>2017-12-15T09:57:52Z</time>
      </trkpt>
      <trkpt lat="45.93783" lon="4.71885">
        <ele>172</ele>
        <time>2017-12-15T09:57:53Z</time>
      </trkpt>
      <trkpt lat="45.93784" lon="4.71877">
        <ele>172</ele>
        <time>2017-12-15T09:57:54Z</time>
      </trkpt>
      <trkpt lat="45.93787" lon="4.71869">
        <ele>172</ele>
        <time>2017-12-15T09:57:55Z</time>
      </trkpt>
      <trkpt lat="45.93791" lon="4.7186">
        <ele>172</ele>
        <time>2017-12-15T09:57:56Z</time>
      </trkpt>
      <trkpt lat="45.93794" lon="4.71853">
        <ele>172</ele>
        <time>2017-12-15T09:57:57Z</time>
      </trkpt>
      <trkpt lat="45.93798" lon="4.71848">
        <ele>172</ele>
        <time>2017-12-15T09:57:58Z</time>
      </trkpt>
      <trkpt lat="45.93802" lon="4.71841">
        <ele>172</ele>
        <time>2017-12-15T09:57:59Z</time>
      </trkpt>
      <trkpt lat="45.93806" lon="4.71834">
        <ele>172</ele>
        <time>2017-12-15T09:58:00Z</time>
      </trkpt>
      <trkpt lat="45.93809" lon="4.71829">
        <ele>173</ele>
        <time>2017-12-15T09:58:01Z</time>
      </trkpt>
      <trkpt lat="45.93813" lon="4.71823">
        <ele>173</ele>
        <time>2017-12-15T09:58:02Z</time>
      </trkpt>
      <trkpt lat="45.93818" lon="4.71816">
        <ele>173</ele>
        <time>2017-12-15T09:58:03Z</time>
      </trkpt>
      <trkpt lat="45.93823" lon="4.7181">
        <ele>173</ele>
        <time>2017-12-15T09:58:04Z</time>
      </trkpt>
      <trkpt lat="45.93826" lon="4.71804">
        <ele>174</ele>
        <time>2017-12-15T09:58:05Z</time>
      </trkpt>
      <trkpt lat="45.9383" lon="4.71796">
        <ele>174</ele>
        <time>2017-12-15T09:58:06Z</time>
      </trkpt>
      <trkpt lat="45.93834" lon="4.7179">
        <ele>173</ele>
        <time>2017-12-15T09:58:07Z</time>
      </trkpt>
      <trkpt lat="45.93837" lon="4.71783">
        <ele>173</ele>
        <time>2017-12-15T09:58:08Z</time>
      </trkpt>
      <trkpt lat="45.93841" lon="4.71776">
        <ele>173</ele>
        <time>2017-12-15T09:58:09Z</time>
      </trkpt>
      <trkpt lat="45.93846" lon="4.71769">
        <ele>173</ele>
        <time>2017-12-15T09:58:10Z</time>
      </trkpt>
      <trkpt lat="45.93852" lon="4.71762">
        <ele>173</ele>
        <time>2017-12-15T09:58:11Z</time>
      </trkpt>
      <trkpt lat="45.93856" lon="4.71756">
        <ele>173</ele>
        <time>2017-12-15T09:58:12Z</time>
      </trkpt>
      <trkpt lat="45.93861" lon="4.71751">
        <ele>173</ele>
        <time>2017-12-15T09:58:13Z</time>
      </trkpt>
      <trkpt lat="45.93865" lon="4.71745">
        <ele>174</ele>
        <time>2017-12-15T09:58:14Z</time>
      </trkpt>
      <trkpt lat="45.93869" lon="4.7174">
        <ele>174</ele>
        <time>2017-12-15T09:58:15Z</time>
      </trkpt>
      <trkpt lat="45.93873" lon="4.71735">
        <ele>174</ele>
        <time>2017-12-15T09:58:16Z</time>
      </trkpt>
      <trkpt lat="45.93876" lon="4.7173">
        <ele>174</ele>
        <time>2017-12-15T09:58:17Z</time>
      </trkpt>
      <trkpt lat="45.93879" lon="4.71726">
        <ele>174</ele>
        <time>2017-12-15T09:58:18Z</time>
      </trkpt>
      <trkpt lat="45.93883" lon="4.71721">
        <ele>174</ele>
        <time>2017-12-15T09:58:19Z</time>
      </trkpt>
      <trkpt lat="45.93887" lon="4.71717">
        <ele>174</ele>
        <time>2017-12-15T09:58:20Z</time>
      </trkpt>
      <trkpt lat="45.93891" lon="4.71713">
        <ele>174</ele>
        <time>2017-12-15T09:58:21Z</time>
      </trkpt>
      <trkpt lat="45.93895" lon="4.7171">
        <ele>174</ele>
        <time>2017-12-15T09:58:22Z</time>
      </trkpt>
      <trkpt lat="45.93899" lon="4.71706">
        <ele>174</ele>
        <time>2017-12-15T09:58:23Z</time>
      </trkpt>
      <trkpt lat="45.93904" lon="4.71703">
        <ele>174</ele>
        <time>2017-12-15T09:58:24Z</time>
      </trkpt>
      <trkpt lat="45.93909" lon="4.71698">
        <ele>174</ele>
        <time>2017-12-15T09:58:25Z</time>
      </trkpt>
      <trkpt lat="45.93914" lon="4.71694">
        <ele>174</ele>
        <time>2017-12-15T09:58:26Z</time>
      </trkpt>
      <trkpt lat="45.93921" lon="4.71691">
        <ele>175</ele>
        <time>2017-12-15T09:58:27Z</time>
      </trkpt>
      <trkpt lat="45.93927" lon="4.71689">
        <ele>175</ele>
        <time>2017-12-15T09:58:28Z</time>
      </trkpt>
      <trkpt lat="45.93932" lon="4.71688">
        <ele>175</ele>
        <time>2017-12-15T09:58:29Z</time>
      </trkpt>
      <trkpt lat="45.93938" lon="4.71687">
        <ele>175</ele>
        <time>2017-12-15T09:58:30Z</time>
      </trkpt>
      <trkpt lat="45.93943" lon="4.71685">
        <ele>175</ele>
        <time>2017-12-15T09:58:31Z</time>
      </trkpt>
      <trkpt lat="45.93949" lon="4.71682">
        <ele>175</ele>
        <time>2017-12-15T09:58:32Z</time>
      </trkpt>
      <trkpt lat="45.93955" lon="4.71678">
        <ele>175</ele>
        <time>2017-12-15T09:58:33Z</time>
      </trkpt>
      <trkpt lat="45.9396" lon="4.71675">
        <ele>175</ele>
        <time>2017-12-15T09:58:34Z</time>
      </trkpt>
      <trkpt lat="45.93965" lon="4.71673">
        <ele>175</ele>
        <time>2017-12-15T09:58:35Z</time>
      </trkpt>
      <trkpt lat="45.93971" lon="4.7167">
        <ele>175</ele>
        <time>2017-12-15T09:58:36Z</time>
      </trkpt>
      <trkpt lat="45.93976" lon="4.71668">
        <ele>176</ele>
        <time>2017-12-15T09:58:37Z</time>
      </trkpt>
      <trkpt lat="45.93981" lon="4.71666">
        <ele>177</ele>
        <time>2017-12-15T09:58:38Z</time>
      </trkpt>
      <trkpt lat="45.93987" lon="4.71665">
        <ele>177</ele>
        <time>2017-12-15T09:58:39Z</time>
      </trkpt>
      <trkpt lat="45.93992" lon="4.71667">
        <ele>176</ele>
        <time>2017-12-15T09:58:40Z</time>
      </trkpt>
      <trkpt lat="45.93998" lon="4.71671">
        <ele>177</ele>
        <time>2017-12-15T09:58:41Z</time>
      </trkpt>
      <trkpt lat="45.94003" lon="4.71674">
        <ele>176</ele>
        <time>2017-12-15T09:58:42Z</time>
      </trkpt>
      <trkpt lat="45.94008" lon="4.71676">
        <ele>176</ele>
        <time>2017-12-15T09:58:43Z</time>
      </trkpt>
      <trkpt lat="45.94013" lon="4.71676">
        <ele>176</ele>
        <time>2017-12-15T09:58:44Z</time>
      </trkpt>
      <trkpt lat="45.94018" lon="4.71673">
        <ele>175</ele>
        <time>2017-12-15T09:58:45Z</time>
      </trkpt>
      <trkpt lat="45.94021" lon="4.71667">
        <ele>176</ele>
        <time>2017-12-15T09:58:46Z</time>
      </trkpt>
      <trkpt lat="45.94024" lon="4.71659">
        <ele>175</ele>
        <time>2017-12-15T09:58:47Z</time>
      </trkpt>
      <trkpt lat="45.94026" lon="4.71653">
        <ele>175</ele>
        <time>2017-12-15T09:58:48Z</time>
      </trkpt>
      <trkpt lat="45.9403" lon="4.71648">
        <ele>175</ele>
        <time>2017-12-15T09:58:49Z</time>
      </trkpt>
      <trkpt lat="45.94035" lon="4.71644">
        <ele>175</ele>
        <time>2017-12-15T09:58:50Z</time>
      </trkpt>
      <trkpt lat="45.94042" lon="4.71641">
        <ele>175</ele>
        <time>2017-12-15T09:58:51Z</time>
      </trkpt>
      <trkpt lat="45.94047" lon="4.71638">
        <ele>175</ele>
        <time>2017-12-15T09:58:52Z</time>
      </trkpt>
      <trkpt lat="45.94055" lon="4.71638">
        <ele>174</ele>
        <time>2017-12-15T09:58:53Z</time>
      </trkpt>
      <trkpt lat="45.94061" lon="4.71635">
        <ele>174</ele>
        <time>2017-12-15T09:58:54Z</time>
      </trkpt>
      <trkpt lat="45.94067" lon="4.71632">
        <ele>174</ele>
        <time>2017-12-15T09:58:55Z</time>
      </trkpt>
      <trkpt lat="45.94073" lon="4.7163">
        <ele>174</ele>
        <time>2017-12-15T09:58:56Z</time>
      </trkpt>
      <trkpt lat="45.94079" lon="4.71627">
        <ele>174</ele>
        <time>2017-12-15T09:58:57Z</time>
      </trkpt>
      <trkpt lat="45.94085" lon="4.71625">
        <ele>173</ele>
        <time>2017-12-15T09:58:58Z</time>
      </trkpt>
      <trkpt lat="45.9409" lon="4.71623">
        <ele>173</ele>
        <time>2017-12-15T09:58:59Z</time>
      </trkpt>
      <trkpt lat="45.94097" lon="4.71621">
        <ele>173</ele>
        <time>2017-12-15T09:59:00Z</time>
      </trkpt>
      <trkpt lat="45.94102" lon="4.71619">
        <ele>173</ele>
        <time>2017-12-15T09:59:01Z</time>
      </trkpt>
      <trkpt lat="45.94107" lon="4.71618">
        <ele>173</ele>
        <time>2017-12-15T09:59:02Z</time>
      </trkpt>
      <trkpt lat="45.94113" lon="4.71616">
        <ele>173</ele>
        <time>2017-12-15T09:59:03Z</time>
      </trkpt>
      <trkpt lat="45.9412" lon="4.71614">
        <ele>173</ele>
        <time>2017-12-15T09:59:04Z</time>
      </trkpt>
      <trkpt lat="45.94126" lon="4.71612">
        <ele>173</ele>
        <time>2017-12-15T09:59:05Z</time>
      </trkpt>
      <trkpt lat="45.94132" lon="4.71609">
        <ele>173</ele>
        <time>2017-12-15T09:59:06Z</time>
      </trkpt>
      <trkpt lat="45.94138" lon="4.71607">
        <ele>173</ele>
        <time>2017-12-15T09:59:07Z</time>
      </trkpt>
      <trkpt lat="45.94144" lon="4.71606">
        <ele>173</ele>
        <time>2017-12-15T09:59:08Z</time>
      </trkpt>
      <trkpt lat="45.94149" lon="4.71604">
        <ele>173</ele>
        <time>2017-12-15T09:59:09Z</time>
      </trkpt>
      <trkpt lat="45.94154" lon="4.71602">
        <ele>173</ele>
        <time>2017-12-15T09:59:10Z</time>
      </trkpt>
      <trkpt lat="45.94159" lon="4.716">
        <ele>173</ele>
        <time>2017-12-15T09:59:11Z</time>
      </trkpt>
      <trkpt lat="45.94164" lon="4.71598">
        <ele>173</ele>
        <time>2017-12-15T09:59:12Z</time>
      </trkpt>
      <trkpt lat="45.9417" lon="4.71594">
        <ele>174</ele>
        <time>2017-12-15T09:59:13Z</time>
      </trkpt>
      <trkpt lat="45.94175" lon="4.71591">
        <ele>174</ele>
        <time>2017-12-15T09:59:14Z</time>
      </trkpt>
      <trkpt lat="45.94181" lon="4.71589">
        <ele>173</ele>
        <time>2017-12-15T09:59:15Z</time>
      </trkpt>
      <trkpt lat="45.94186" lon="4.71587">
        <ele>173</ele>
        <time>2017-12-15T09:59:16Z</time>
      </trkpt>
      <trkpt lat="45.94193" lon="4.71584">
        <ele>173</ele>
        <time>2017-12-15T09:59:17Z</time>
      </trkpt>
      <trkpt lat="45.94198" lon="4.71582">
        <ele>174</ele>
        <time>2017-12-15T09:59:18Z</time>
      </trkpt>
      <trkpt lat="45.94205" lon="4.7158">
        <ele>174</ele>
        <time>2017-12-15T09:59:19Z</time>
      </trkpt>
      <trkpt lat="45.94211" lon="4.71578">
        <ele>174</ele>
        <time>2017-12-15T09:59:20Z</time>
      </trkpt>
      <trkpt lat="45.94217" lon="4.71574">
        <ele>174</ele>
        <time>2017-12-15T09:59:21Z</time>
      </trkpt>
      <trkpt lat="45.94223" lon="4.71572">
        <ele>174</ele>
        <time>2017-12-15T09:59:22Z</time>
      </trkpt>
      <trkpt lat="45.94229" lon="4.71569">
        <ele>174</ele>
        <time>2017-12-15T09:59:23Z</time>
      </trkpt>
      <trkpt lat="45.94235" lon="4.71567">
        <ele>174</ele>
        <time>2017-12-15T09:59:24Z</time>
      </trkpt>
      <trkpt lat="45.94241" lon="4.71564">
        <ele>174</ele>
        <time>2017-12-15T09:59:25Z</time>
      </trkpt>
      <trkpt lat="45.94246" lon="4.71562">
        <ele>174</ele>
        <time>2017-12-15T09:59:26Z</time>
      </trkpt>
      <trkpt lat="45.94251" lon="4.71561">
        <ele>175</ele>
        <time>2017-12-15T09:59:27Z</time>
      </trkpt>
      <trkpt lat="45.94256" lon="4.71559">
        <ele>175</ele>
        <time>2017-12-15T09:59:28Z</time>
      </trkpt>
      <trkpt lat="45.94261" lon="4.71558">
        <ele>175</ele>
        <time>2017-12-15T09:59:29Z</time>
      </trkpt>
      <trkpt lat="45.94266" lon="4.71555">
        <ele>175</ele>
        <time>2017-12-15T09:59:30Z</time>
      </trkpt>
      <trkpt lat="45.94271" lon="4.71553">
        <ele>175</ele>
        <time>2017-12-15T09:59:31Z</time>
      </trkpt>
      <trkpt lat="45.94276" lon="4.71551">
        <ele>175</ele>
        <time>2017-12-15T09:59:32Z</time>
      </trkpt>
      <trkpt lat="45.94281" lon="4.71547">
        <ele>175</ele>
        <time>2017-12-15T09:59:33Z</time>
      </trkpt>
      <trkpt lat="45.94287" lon="4.71546">
        <ele>175</ele>
        <time>2017-12-15T09:59:34Z</time>
      </trkpt>
      <trkpt lat="45.94292" lon="4.71544">
        <ele>175</ele>
        <time>2017-12-15T09:59:35Z</time>
      </trkpt>
      <trkpt lat="45.94298" lon="4.71542">
        <ele>175</ele>
        <time>2017-12-15T09:59:36Z</time>
      </trkpt>
      <trkpt lat="45.94304" lon="4.71542">
        <ele>175</ele>
        <time>2017-12-15T09:59:37Z</time>
      </trkpt>
      <trkpt lat="45.9431" lon="4.71541">
        <ele>175</ele>
        <time>2017-12-15T09:59:38Z</time>
      </trkpt>
      <trkpt lat="45.94314" lon="4.71537">
        <ele>175</ele>
        <time>2017-12-15T09:59:39Z</time>
      </trkpt>
      <trkpt lat="45.94319" lon="4.71535">
        <ele>175</ele>
        <time>2017-12-15T09:59:40Z</time>
      </trkpt>
      <trkpt lat="45.94324" lon="4.71532">
        <ele>176</ele>
        <time>2017-12-15T09:59:41Z</time>
      </trkpt>
      <trkpt lat="45.9433" lon="4.7153">
        <ele>176</ele>
        <time>2017-12-15T09:59:42Z</time>
      </trkpt>
      <trkpt lat="45.94335" lon="4.71528">
        <ele>176</ele>
        <time>2017-12-15T09:59:43Z</time>
      </trkpt>
      <trkpt lat="45.94339" lon="4.71527">
        <ele>176</ele>
        <time>2017-12-15T09:59:44Z</time>
      </trkpt>
      <trkpt lat="45.94344" lon="4.71525">
        <ele>176</ele>
        <time>2017-12-15T09:59:45Z</time>
      </trkpt>
      <trkpt lat="45.9435" lon="4.71523">
        <ele>176</ele>
        <time>2017-12-15T09:59:46Z</time>
      </trkpt>
      <trkpt lat="45.94355" lon="4.71522">
        <ele>176</ele>
        <time>2017-12-15T09:59:47Z</time>
      </trkpt>
      <trkpt lat="45.94362" lon="4.71519">
        <ele>176</ele>
        <time>2017-12-15T09:59:48Z</time>
      </trkpt>
      <trkpt lat="45.94367" lon="4.71517">
        <ele>176</ele>
        <time>2017-12-15T09:59:49Z</time>
      </trkpt>
      <trkpt lat="45.94372" lon="4.71514">
        <ele>176</ele>
        <time>2017-12-15T09:59:50Z</time>
      </trkpt>
      <trkpt lat="45.94378" lon="4.71512">
        <ele>177</ele>
        <time>2017-12-15T09:59:51Z</time>
      </trkpt>
      <trkpt lat="45.94383" lon="4.7151">
        <ele>177</ele>
        <time>2017-12-15T09:59:52Z</time>
      </trkpt>
      <trkpt lat="45.94389" lon="4.71508">
        <ele>177</ele>
        <time>2017-12-15T09:59:53Z</time>
      </trkpt>
      <trkpt lat="45.94394" lon="4.71506">
        <ele>177</ele>
        <time>2017-12-15T09:59:54Z</time>
      </trkpt>
      <trkpt lat="45.94399" lon="4.71503">
        <ele>177</ele>
        <time>2017-12-15T09:59:55Z</time>
      </trkpt>
      <trkpt lat="45.94404" lon="4.71501">
        <ele>177</ele>
        <time>2017-12-15T09:59:56Z</time>
      </trkpt>
      <trkpt lat="45.94409" lon="4.715">
        <ele>178</ele>
        <time>2017-12-15T09:59:57Z</time>
      </trkpt>
      <trkpt lat="45.94415" lon="4.71498">
        <ele>178</ele>
        <time>2017-12-15T09:59:58Z</time>
      </trkpt>
      <trkpt lat="45.94421" lon="4.71497">
        <ele>178</ele>
        <time>2017-12-15T09:59:59Z</time>
      </trkpt>
      <trkpt lat="45.94426" lon="4.71494">
        <ele>178</ele>
        <time>2017-12-15T10:00:00Z</time>
      </trkpt>
      <trkpt lat="45.94431" lon="4.71492">
        <ele>178</ele>
        <time>2017-12-15T10:00:01Z</time>
      </trkpt>
      <trkpt lat="45.94437" lon="4.71489">
        <ele>178</ele>
        <time>2017-12-15T10:00:02Z</time>
      </trkpt>
      <trkpt lat="45.94441" lon="4.71488">
        <ele>179</ele>
        <time>2017-12-15T10:00:03Z</time>
      </trkpt>
      <trkpt lat="45.94447" lon="4.71485">
        <ele>179</ele>
        <time>2017-12-15T10:00:04Z</time>
      </trkpt>
      <trkpt lat="45.94453" lon="4.71483">
        <ele>179</ele>
        <time>2017-12-15T10:00:05Z</time>
      </trkpt>
      <trkpt lat="45.94458" lon="4.71481">
        <ele>179</ele>
        <time>2017-12-15T10:00:06Z</time>
      </trkpt>
      <trkpt lat="45.94462" lon="4.71479">
        <ele>179</ele>
        <time>2017-12-15T10:00:07Z</time>
      </trkpt>
      <trkpt lat="45.94468" lon="4.71477">
        <ele>179</ele>
        <time>2017-12-15T10:00:08Z</time>
      </trkpt>
      <trkpt lat="45.94474" lon="4.71474">
        <ele>179</ele>
        <time>2017-12-15T10:00:09Z</time>
      </trkpt>
      <trkpt lat="45.94479" lon="4.71473">
        <ele>179</ele>
        <time>2017-12-15T10:00:10Z</time>
      </trkpt>
      <trkpt lat="45.94483" lon="4.7147">
        <ele>179</ele>
        <time>2017-12-15T10:00:11Z</time>
      </trkpt>
      <trkpt lat="45.94488" lon="4.71468">
        <ele>179</ele>
        <time>2017-12-15T10:00:12Z</time>
      </trkpt>
      <trkpt lat="45.94493" lon="4.71466">
        <ele>179</ele>
        <time>2017-12-15T10:00:13Z</time>
      </trkpt>
      <trkpt lat="45.94498" lon="4.71464">
        <ele>179</ele>
        <time>2017-12-15T10:00:14Z</time>
      </trkpt>
      <trkpt lat="45.94503" lon="4.71461">
        <ele>180</ele>
        <time>2017-12-15T10:00:15Z</time>
      </trkpt>
      <trkpt lat="45.94509" lon="4.7146">
        <ele>180</ele>
        <time>2017-12-15T10:00:16Z</time>
      </trkpt>
      <trkpt lat="45.94514" lon="4.71458">
        <ele>180</ele>
        <time>2017-12-15T10:00:17Z</time>
      </trkpt>
      <trkpt lat="45.94519" lon="4.71456">
        <ele>180</ele>
        <time>2017-12-15T10:00:18Z</time>
      </trkpt>
      <trkpt lat="45.94523" lon="4.71454">
        <ele>180</ele>
        <time>2017-12-15T10:00:19Z</time>
      </trkpt>
      <trkpt lat="45.94528" lon="4.71452">
        <ele>180</ele>
        <time>2017-12-15T10:00:20Z</time>
      </trkpt>
      <trkpt lat="45.94533" lon="4.7145">
        <ele>180</ele>
        <time>2017-12-15T10:00:21Z</time>
      </trkpt>
      <trkpt lat="45.94538" lon="4.71448">
        <ele>180</ele>
        <time>2017-12-15T10:00:22Z</time>
      </trkpt>
      <trkpt lat="45.94543" lon="4.71446">
        <ele>181</ele>
        <time>2017-12-15T10:00:23Z</time>
      </trkpt>
      <trkpt lat="45.94547" lon="4.71445">
        <ele>181</ele>
        <time>2017-12-15T10:00:24Z</time>
      </trkpt>
      <trkpt lat="45.94552" lon="4.71443">
        <ele>181</ele>
        <time>2017-12-15T10:00:25Z</time>
      </trkpt>
      <trkpt lat="45.94556" lon="4.71442">
        <ele>181</ele>
        <time>2017-12-15T10:00:26Z</time>
      </trkpt>
      <trkpt lat="45.94561" lon="4.71441">
        <ele>181</ele>
        <time>2017-12-15T10:00:27Z</time>
      </trkpt>
      <trkpt lat="45.94565" lon="4.7144">
        <ele>181</ele>
        <time>2017-12-15T10:00:28Z</time>
      </trkpt>
      <trkpt lat="45.9457" lon="4.71439">
        <ele>182</ele>
        <time>2017-12-15T10:00:29Z</time>
      </trkpt>
      <trkpt lat="45.94575" lon="4.71438">
        <ele>182</ele>
        <time>2017-12-15T10:00:30Z</time>
      </trkpt>
      <trkpt lat="45.9458" lon="4.71438">
        <ele>182</ele>
        <time>2017-12-15T10:00:31Z</time>
      </trkpt>
      <trkpt lat="45.94585" lon="4.71439">
        <ele>182</ele>
        <time>2017-12-15T10:00:32Z</time>
      </trkpt>
      <trkpt lat="45.9459" lon="4.71439">
        <ele>182</ele>
        <time>2017-12-15T10:00:33Z</time>
      </trkpt>
      <trkpt lat="45.94599" lon="4.7144">
        <ele>182</ele>
        <time>2017-12-15T10:00:35Z</time>
      </trkpt>
      <trkpt lat="45.94604" lon="4.71441">
        <ele>182</ele>
        <time>2017-12-15T10:00:36Z</time>
      </trkpt>
      <trkpt lat="45.94609" lon="4.71441">
        <ele>181</ele>
        <time>2017-12-15T10:00:37Z</time>
      </trkpt>
      <trkpt lat="45.94614" lon="4.71442">
        <ele>181</ele>
        <time>2017-12-15T10:00:38Z</time>
      </trkpt>
      <trkpt lat="45.94619" lon="4.71442">
        <ele>181</ele>
        <time>2017-12-15T10:00:39Z</time>
      </trkpt>
      <trkpt lat="45.94623" lon="4.71442">
        <ele>181</ele>
        <time>2017-12-15T10:00:40Z</time>
      </trkpt>
      <trkpt lat="45.94628" lon="4.71443">
        <ele>181</ele>
        <time>2017-12-15T10:00:41Z</time>
      </trkpt>
      <trkpt lat="45.94634" lon="4.71443">
        <ele>181</ele>
        <time>2017-12-15T10:00:42Z</time>
      </trkpt>
      <trkpt lat="45.94639" lon="4.71444">
        <ele>181</ele>
        <time>2017-12-15T10:00:43Z</time>
      </trkpt>
      <trkpt lat="45.94644" lon="4.71445">
        <ele>181</ele>
        <time>2017-12-15T10:00:44Z</time>
      </trkpt>
      <trkpt lat="45.94649" lon="4.71446">
        <ele>181</ele>
        <time>2017-12-15T10:00:45Z</time>
      </trkpt>
      <trkpt lat="45.94655" lon="4.71446">
        <ele>181</ele>
        <time>2017-12-15T10:00:46Z</time>
      </trkpt>
      <trkpt lat="45.94659" lon="4.71447">
        <ele>181</ele>
        <time>2017-12-15T10:00:47Z</time>
      </trkpt>
      <trkpt lat="45.94665" lon="4.71447">
        <ele>181</ele>
        <time>2017-12-15T10:00:48Z</time>
      </trkpt>
      <trkpt lat="45.94669" lon="4.71448">
        <ele>182</ele>
        <time>2017-12-15T10:00:49Z</time>
      </trkpt>
      <trkpt lat="45.94674" lon="4.71449">
        <ele>182</ele>
        <time>2017-12-15T10:00:50Z</time>
      </trkpt>
      <trkpt lat="45.94679" lon="4.71449">
        <ele>182</ele>
        <time>2017-12-15T10:00:51Z</time>
      </trkpt>
      <trkpt lat="45.94685" lon="4.7145">
        <ele>182</ele>
        <time>2017-12-15T10:00:52Z</time>
      </trkpt>
      <trkpt lat="45.9469" lon="4.7145">
        <ele>182</ele>
        <time>2017-12-15T10:00:53Z</time>
      </trkpt>
      <trkpt lat="45.94695" lon="4.71451">
        <ele>182</ele>
        <time>2017-12-15T10:00:54Z</time>
      </trkpt>
      <trkpt lat="45.947" lon="4.7145">
        <ele>182</ele>
        <time>2017-12-15T10:00:55Z</time>
      </trkpt>
      <trkpt lat="45.94706" lon="4.71451">
        <ele>182</ele>
        <time>2017-12-15T10:00:56Z</time>
      </trkpt>
      <trkpt lat="45.94712" lon="4.71451">
        <ele>182</ele>
        <time>2017-12-15T10:00:57Z</time>
      </trkpt>
      <trkpt lat="45.94718" lon="4.71452">
        <ele>182</ele>
        <time>2017-12-15T10:00:58Z</time>
      </trkpt>
      <trkpt lat="45.94723" lon="4.71452">
        <ele>182</ele>
        <time>2017-12-15T10:00:59Z</time>
      </trkpt>
      <trkpt lat="45.94729" lon="4.71453">
        <ele>182</ele>
        <time>2017-12-15T10:01:00Z</time>
      </trkpt>
      <trkpt lat="45.94735" lon="4.71453">
        <ele>182</ele>
        <time>2017-12-15T10:01:01Z</time>
      </trkpt>
      <trkpt lat="45.94741" lon="4.71453">
        <ele>182</ele>
        <time>2017-12-15T10:01:02Z</time>
      </trkpt>
      <trkpt lat="45.94747" lon="4.71453">
        <ele>182</ele>
        <time>2017-12-15T10:01:03Z</time>
      </trkpt>
      <trkpt lat="45.94753" lon="4.71453">
        <ele>183</ele>
        <time>2017-12-15T10:01:04Z</time>
      </trkpt>
      <trkpt lat="45.94759" lon="4.71454">
        <ele>183</ele>
        <time>2017-12-15T10:01:05Z</time>
      </trkpt>
      <trkpt lat="45.94765" lon="4.71453">
        <ele>183</ele>
        <time>2017-12-15T10:01:06Z</time>
      </trkpt>
      <trkpt lat="45.9477" lon="4.71454">
        <ele>183</ele>
        <time>2017-12-15T10:01:07Z</time>
      </trkpt>
      <trkpt lat="45.94775" lon="4.71454">
        <ele>183</ele>
        <time>2017-12-15T10:01:08Z</time>
      </trkpt>
      <trkpt lat="45.94781" lon="4.71454">
        <ele>183</ele>
        <time>2017-12-15T10:01:09Z</time>
      </trkpt>
      <trkpt lat="45.94786" lon="4.71455">
        <ele>183</ele>
        <time>2017-12-15T10:01:10Z</time>
      </trkpt>
      <trkpt lat="45.94791" lon="4.71455">
        <ele>183</ele>
        <time>2017-12-15T10:01:11Z</time>
      </trkpt>
      <trkpt lat="45.94797" lon="4.71456">
        <ele>183</ele>
        <time>2017-12-15T10:01:12Z</time>
      </trkpt>
      <trkpt lat="45.94802" lon="4.71455">
        <ele>183</ele>
        <time>2017-12-15T10:01:13Z</time>
      </trkpt>
      <trkpt lat="45.94808" lon="4.71456">
        <ele>183</ele>
        <time>2017-12-15T10:01:14Z</time>
      </trkpt>
      <trkpt lat="45.94813" lon="4.71457">
        <ele>183</ele>
        <time>2017-12-15T10:01:15Z</time>
      </trkpt>
      <trkpt lat="45.94819" lon="4.71457">
        <ele>183</ele>
        <time>2017-12-15T10:01:16Z</time>
      </trkpt>
      <trkpt lat="45.94825" lon="4.71457">
        <ele>183</ele>
        <time>2017-12-15T10:01:17Z</time>
      </trkpt>
      <trkpt lat="45.94831" lon="4.71458">
        <ele>183</ele>
        <time>2017-12-15T10:01:18Z</time>
      </trkpt>
      <trkpt lat="45.94837" lon="4.71459">
        <ele>183</ele>
        <time>2017-12-15T10:01:19Z</time>
      </trkpt>
      <trkpt lat="45.94843" lon="4.7146">
        <ele>183</ele>
        <time>2017-12-15T10:01:20Z</time>
      </trkpt>
      <trkpt lat="45.94849" lon="4.71459">
        <ele>183</ele>
        <time>2017-12-15T10:01:21Z</time>
      </trkpt>
      <trkpt lat="45.94856" lon="4.71461">
        <ele>183</ele>
        <time>2017-12-15T10:01:22Z</time>
      </trkpt>
      <trkpt lat="45.94863" lon="4.71462">
        <ele>183</ele>
        <time>2017-12-15T10:01:23Z</time>
      </trkpt>
      <trkpt lat="45.9487" lon="4.71463">
        <ele>183</ele>
        <time>2017-12-15T10:01:24Z</time>
      </trkpt>
      <trkpt lat="45.94877" lon="4.71465">
        <ele>183</ele>
        <time>2017-12-15T10:01:25Z</time>
      </trkpt>
      <trkpt lat="45.94883" lon="4.71465">
        <ele>183</ele>
        <time>2017-12-15T10:01:26Z</time>
      </trkpt>
      <trkpt lat="45.94889" lon="4.71466">
        <ele>183</ele>
        <time>2017-12-15T10:01:27Z</time>
      </trkpt>
      <trkpt lat="45.94896" lon="4.71466">
        <ele>183</ele>
        <time>2017-12-15T10:01:28Z</time>
      </trkpt>
      <trkpt lat="45.94902" lon="4.71467">
        <ele>183</ele>
        <time>2017-12-15T10:01:29Z</time>
      </trkpt>
      <trkpt lat="45.94908" lon="4.71468">
        <ele>183</ele>
        <time>2017-12-15T10:01:30Z</time>
      </trkpt>
      <trkpt lat="45.94914" lon="4.7147">
        <ele>183</ele>
        <time>2017-12-15T10:01:31Z</time>
      </trkpt>
      <trkpt lat="45.94919" lon="4.7147">
        <ele>183</ele>
        <time>2017-12-15T10:01:32Z</time>
      </trkpt>
      <trkpt lat="45.94925" lon="4.7147">
        <ele>183</ele>
        <time>2017-12-15T10:01:33Z</time>
      </trkpt>
      <trkpt lat="45.9493" lon="4.71469">
        <ele>183</ele>
        <time>2017-12-15T10:01:34Z</time>
      </trkpt>
      <trkpt lat="45.94936" lon="4.71469">
        <ele>183</ele>
        <time>2017-12-15T10:01:35Z</time>
      </trkpt>
      <trkpt lat="45.94941" lon="4.71471">
        <ele>183</ele>
        <time>2017-12-15T10:01:36Z</time>
      </trkpt>
      <trkpt lat="45.94946" lon="4.71472">
        <ele>183</ele>
        <time>2017-12-15T10:01:37Z</time>
      </trkpt>
      <trkpt lat="45.94951" lon="4.71477">
        <ele>183</ele>
        <time>2017-12-15T10:01:38Z</time>
      </trkpt>
      <trkpt lat="45.94955" lon="4.71481">
        <ele>183</ele>
        <time>2017-12-15T10:01:39Z</time>
      </trkpt>
      <trkpt lat="45.9496" lon="4.71484">
        <ele>183</ele>
        <time>2017-12-15T10:01:40Z</time>
      </trkpt>
      <trkpt lat="45.94966" lon="4.71486">
        <ele>182</ele>
        <time>2017-12-15T10:01:41Z</time>
      </trkpt>
      <trkpt lat="45.94971" lon="4.71487">
        <ele>182</ele>
        <time>2017-12-15T10:01:42Z</time>
      </trkpt>
      <trkpt lat="45.94977" lon="4.71486">
        <ele>182</ele>
        <time>2017-12-15T10:01:43Z</time>
      </trkpt>
      <trkpt lat="45.94983" lon="4.71482">
        <ele>182</ele>
        <time>2017-12-15T10:01:44Z</time>
      </trkpt>
      <trkpt lat="45.94988" lon="4.71478">
        <ele>182</ele>
        <time>2017-12-15T10:01:45Z</time>
      </trkpt>
      <trkpt lat="45.94994" lon="4.71475">
        <ele>182</ele>
        <time>2017-12-15T10:01:46Z</time>
      </trkpt>
      <trkpt lat="45.94999" lon="4.71475">
        <ele>182</ele>
        <time>2017-12-15T10:01:47Z</time>
      </trkpt>
      <trkpt lat="45.95005" lon="4.71476">
        <ele>181</ele>
        <time>2017-12-15T10:01:48Z</time>
      </trkpt>
      <trkpt lat="45.95011" lon="4.71476">
        <ele>181</ele>
        <time>2017-12-15T10:01:49Z</time>
      </trkpt>
      <trkpt lat="45.95018" lon="4.71478">
        <ele>181</ele>
        <time>2017-12-15T10:01:50Z</time>
      </trkpt>
      <trkpt lat="45.95026" lon="4.71478">
        <ele>181</ele>
        <time>2017-12-15T10:01:51Z</time>
      </trkpt>
      <trkpt lat="45.95033" lon="4.71477">
        <ele>181</ele>
        <time>2017-12-15T10:01:52Z</time>
      </trkpt>
      <trkpt lat="45.95041" lon="4.71478">
        <ele>181</ele>
        <time>2017-12-15T10:01:53Z</time>
      </trkpt>
      <trkpt lat="45.95048" lon="4.71478">
        <ele>181</ele>
        <time>2017-12-15T10:01:54Z</time>
      </trkpt>
      <trkpt lat="45.95057" lon="4.71477">
        <ele>181</ele>
        <time>2017-12-15T10:01:55Z</time>
      </trkpt>
      <trkpt lat="45.95065" lon="4.71477">
        <ele>181</ele>
        <time>2017-12-15T10:01:56Z</time>
      </trkpt>
      <trkpt lat="45.95073" lon="4.71476">
        <ele>181</ele>
        <time>2017-12-15T10:01:57Z</time>
      </trkpt>
      <trkpt lat="45.95083" lon="4.71476">
        <ele>181</ele>
        <time>2017-12-15T10:01:58Z</time>
      </trkpt>
      <trkpt lat="45.95092" lon="4.71477">
        <ele>179</ele>
        <time>2017-12-15T10:01:59Z</time>
      </trkpt>
      <trkpt lat="45.951" lon="4.71478">
        <ele>179</ele>
        <time>2017-12-15T10:02:00Z</time>
      </trkpt>
      <trkpt lat="45.95109" lon="4.71478">
        <ele>179</ele>
        <time>2017-12-15T10:02:01Z</time>
      </trkpt>
      <trkpt lat="45.95118" lon="4.71478">
        <ele>179</ele>
        <time>2017-12-15T10:02:02Z</time>
      </trkpt>
      <trkpt lat="45.95128" lon="4.71477">
        <ele>178</ele>
        <time>2017-12-15T10:02:03Z</time>
      </trkpt>
      <trkpt lat="45.95136" lon="4.71477">
        <ele>178</ele>
        <time>2017-12-15T10:02:04Z</time>
      </trkpt>
      <trkpt lat="45.95144" lon="4.71478">
        <ele>178</ele>
        <time>2017-12-15T10:02:05Z</time>
      </trkpt>
      <trkpt lat="45.95153" lon="4.71478">
        <ele>178</ele>
        <time>2017-12-15T10:02:06Z</time>
      </trkpt>
      <trkpt lat="45.95161" lon="4.71479">
        <ele>178</ele>
        <time>2017-12-15T10:02:07Z</time>
      </trkpt>
      <trkpt lat="45.95169" lon="4.71479">
        <ele>177</ele>
        <time>2017-12-15T10:02:08Z</time>
      </trkpt>
      <trkpt lat="45.95178" lon="4.7148">
        <ele>177</ele>
        <time>2017-12-15T10:02:09Z</time>
      </trkpt>
      <trkpt lat="45.95186" lon="4.7148">
        <ele>177</ele>
        <time>2017-12-15T10:02:10Z</time>
      </trkpt>
      <trkpt lat="45.95195" lon="4.7148">
        <ele>177</ele>
        <time>2017-12-15T10:02:11Z</time>
      </trkpt>
      <trkpt lat="45.95204" lon="4.7148">
        <ele>177</ele>
        <time>2017-12-15T10:02:12Z</time>
      </trkpt>
      <trkpt lat="45.95212" lon="4.71481">
        <ele>177</ele>
        <time>2017-12-15T10:02:13Z</time>
      </trkpt>
      <trkpt lat="45.9522" lon="4.71481">
        <ele>177</ele>
        <time>2017-12-15T10:02:14Z</time>
      </trkpt>
      <trkpt lat="45.95228" lon="4.71483">
        <ele>177</ele>
        <time>2017-12-15T10:02:15Z</time>
      </trkpt>
      <trkpt lat="45.95236" lon="4.71483">
        <ele>177</ele>
        <time>2017-12-15T10:02:16Z</time>
      </trkpt>
      <trkpt lat="45.95245" lon="4.71483">
        <ele>177</ele>
        <time>2017-12-15T10:02:17Z</time>
      </trkpt>
      <trkpt lat="45.95252" lon="4.71484">
        <ele>176</ele>
        <time>2017-12-15T10:02:18Z</time>
      </trkpt>
      <trkpt lat="45.9526" lon="4.71485">
        <ele>176</ele>
        <time>2017-12-15T10:02:19Z</time>
      </trkpt>
      <trkpt lat="45.95268" lon="4.71485">
        <ele>176</ele>
        <time>2017-12-15T10:02:20Z</time>
      </trkpt>
      <trkpt lat="45.95276" lon="4.71485">
        <ele>176</ele>
        <time>2017-12-15T10:02:21Z</time>
      </trkpt>
      <trkpt lat="45.95284" lon="4.71487">
        <ele>176</ele>
        <time>2017-12-15T10:02:22Z</time>
      </trkpt>
      <trkpt lat="45.95292" lon="4.71487">
        <ele>176</ele>
        <time>2017-12-15T10:02:23Z</time>
      </trkpt>
      <trkpt lat="45.95299" lon="4.71487">
        <ele>176</ele>
        <time>2017-12-15T10:02:24Z</time>
      </trkpt>
      <trkpt lat="45.95307" lon="4.71488">
        <ele>175</ele>
        <time>2017-12-15T10:02:25Z</time>
      </trkpt>
      <trkpt lat="45.95314" lon="4.71489">
        <ele>175</ele>
        <time>2017-12-15T10:02:26Z</time>
      </trkpt>
      <trkpt lat="45.95321" lon="4.7149">
        <ele>175</ele>
        <time>2017-12-15T10:02:27Z</time>
      </trkpt>
      <trkpt lat="45.95327" lon="4.7149">
        <ele>175</ele>
        <time>2017-12-15T10:02:28Z</time>
      </trkpt>
      <trkpt lat="45.95333" lon="4.71492">
        <ele>175</ele>
        <time>2017-12-15T10:02:29Z</time>
      </trkpt>
      <trkpt lat="45.95339" lon="4.71492">
        <ele>174</ele>
        <time>2017-12-15T10:02:30Z</time>
      </trkpt>
      <trkpt lat="45.95346" lon="4.71491">
        <ele>175</ele>
        <time>2017-12-15T10:02:31Z</time>
      </trkpt>
      <trkpt lat="45.95352" lon="4.71491">
        <ele>175</ele>
        <time>2017-12-15T10:02:32Z</time>
      </trkpt>
      <trkpt lat="45.95358" lon="4.71492">
        <ele>175</ele>
        <time>2017-12-15T10:02:33Z</time>
      </trkpt>
      <trkpt lat="45.95363" lon="4.71493">
        <ele>175</ele>
        <time>2017-12-15T10:02:34Z</time>
      </trkpt>
      <trkpt lat="45.95369" lon="4.71493">
        <ele>175</ele>
        <time>2017-12-15T10:02:35Z</time>
      </trkpt>
      <trkpt lat="45.95375" lon="4.71495">
        <ele>175</ele>
        <time>2017-12-15T10:02:36Z</time>
      </trkpt>
      <trkpt lat="45.95381" lon="4.71496">
        <ele>175</ele>
        <time>2017-12-15T10:02:37Z</time>
      </trkpt>
      <trkpt lat="45.95388" lon="4.71496">
        <ele>175</ele>
        <time>2017-12-15T10:02:38Z</time>
      </trkpt>
      <trkpt lat="45.95395" lon="4.71497">
        <ele>175</ele>
        <time>2017-12-15T10:02:39Z</time>
      </trkpt>
      <trkpt lat="45.95401" lon="4.71498">
        <ele>175</ele>
        <time>2017-12-15T10:02:40Z</time>
      </trkpt>
      <trkpt lat="45.95407" lon="4.71499">
        <ele>174</ele>
        <time>2017-12-15T10:02:41Z</time>
      </trkpt>
      <trkpt lat="45.95414" lon="4.71499">
        <ele>174</ele>
        <time>2017-12-15T10:02:42Z</time>
      </trkpt>
      <trkpt lat="45.95419" lon="4.71499">
        <ele>174</ele>
        <time>2017-12-15T10:02:43Z</time>
      </trkpt>
      <trkpt lat="45.95426" lon="4.71499">
        <ele>175</ele>
        <time>2017-12-15T10:02:44Z</time>
      </trkpt>
      <trkpt lat="45.95432" lon="4.715">
        <ele>175</ele>
        <time>2017-12-15T10:02:45Z</time>
      </trkpt>
      <trkpt lat="45.95437" lon="4.715">
        <ele>175</ele>
        <time>2017-12-15T10:02:46Z</time>
      </trkpt>
      <trkpt lat="45.95443" lon="4.71501">
        <ele>175</ele>
        <time>2017-12-15T10:02:47Z</time>
      </trkpt>
      <trkpt lat="45.95449" lon="4.71502">
        <ele>175</ele>
        <time>2017-12-15T10:02:48Z</time>
      </trkpt>
      <trkpt lat="45.95454" lon="4.71503">
        <ele>175</ele>
        <time>2017-12-15T10:02:49Z</time>
      </trkpt>
      <trkpt lat="45.95459" lon="4.71504">
        <ele>175</ele>
        <time>2017-12-15T10:02:50Z</time>
      </trkpt>
      <trkpt lat="45.95465" lon="4.71506">
        <ele>175</ele>
        <time>2017-12-15T10:02:51Z</time>
      </trkpt>
      <trkpt lat="45.95471" lon="4.71506">
        <ele>176</ele>
        <time>2017-12-15T10:02:52Z</time>
      </trkpt>
      <trkpt lat="45.95476" lon="4.71505">
        <ele>176</ele>
        <time>2017-12-15T10:02:53Z</time>
      </trkpt>
      <trkpt lat="45.95482" lon="4.71504">
        <ele>176</ele>
        <time>2017-12-15T10:02:54Z</time>
      </trkpt>
      <trkpt lat="45.95489" lon="4.71505">
        <ele>176</ele>
        <time>2017-12-15T10:02:55Z</time>
      </trkpt>
      <trkpt lat="45.95494" lon="4.71506">
        <ele>176</ele>
        <time>2017-12-15T10:02:56Z</time>
      </trkpt>
      <trkpt lat="45.955" lon="4.71506">
        <ele>177</ele>
        <time>2017-12-15T10:02:57Z</time>
      </trkpt>
      <trkpt lat="45.95506" lon="4.71507">
        <ele>177</ele>
        <time>2017-12-15T10:02:58Z</time>
      </trkpt>
      <trkpt lat="45.95512" lon="4.71508">
        <ele>177</ele>
        <time>2017-12-15T10:02:59Z</time>
      </trkpt>
      <trkpt lat="45.95518" lon="4.71508">
        <ele>177</ele>
        <time>2017-12-15T10:03:00Z</time>
      </trkpt>
      <trkpt lat="45.95524" lon="4.71507">
        <ele>177</ele>
        <time>2017-12-15T10:03:01Z</time>
      </trkpt>
      <trkpt lat="45.95529" lon="4.71508">
        <ele>177</ele>
        <time>2017-12-15T10:03:02Z</time>
      </trkpt>
      <trkpt lat="45.95535" lon="4.71508">
        <ele>177</ele>
        <time>2017-12-15T10:03:03Z</time>
      </trkpt>
      <trkpt lat="45.95541" lon="4.71509">
        <ele>177</ele>
        <time>2017-12-15T10:03:04Z</time>
      </trkpt>
      <trkpt lat="45.95547" lon="4.71509">
        <ele>178</ele>
        <time>2017-12-15T10:03:05Z</time>
      </trkpt>
      <trkpt lat="45.95553" lon="4.7151">
        <ele>178</ele>
        <time>2017-12-15T10:03:06Z</time>
      </trkpt>
      <trkpt lat="45.95559" lon="4.7151">
        <ele>178</ele>
        <time>2017-12-15T10:03:07Z</time>
      </trkpt>
      <trkpt lat="45.95565" lon="4.7151">
        <ele>178</ele>
        <time>2017-12-15T10:03:08Z</time>
      </trkpt>
      <trkpt lat="45.95571" lon="4.7151">
        <ele>179</ele>
        <time>2017-12-15T10:03:09Z</time>
      </trkpt>
      <trkpt lat="45.95576" lon="4.71511">
        <ele>179</ele>
        <time>2017-12-15T10:03:10Z</time>
      </trkpt>
      <trkpt lat="45.95581" lon="4.71512">
        <ele>179</ele>
        <time>2017-12-15T10:03:11Z</time>
      </trkpt>
      <trkpt lat="45.95586" lon="4.71512">
        <ele>180</ele>
        <time>2017-12-15T10:03:12Z</time>
      </trkpt>
      <trkpt lat="45.95593" lon="4.71511">
        <ele>179</ele>
        <time>2017-12-15T10:03:13Z</time>
      </trkpt>
      <trkpt lat="45.95599" lon="4.71512">
        <ele>179</ele>
        <time>2017-12-15T10:03:14Z</time>
      </trkpt>
      <trkpt lat="45.95604" lon="4.71512">
        <ele>179</ele>
        <time>2017-12-15T10:03:15Z</time>
      </trkpt>
      <trkpt lat="45.95611" lon="4.71512">
        <ele>179</ele>
        <time>2017-12-15T10:03:16Z</time>
      </trkpt>
      <trkpt lat="45.95617" lon="4.71512">
        <ele>179</ele>
        <time>2017-12-15T10:03:17Z</time>
      </trkpt>
      <trkpt lat="45.95622" lon="4.71512">
        <ele>179</ele>
        <time>2017-12-15T10:03:18Z</time>
      </trkpt>
      <trkpt lat="45.95629" lon="4.71512">
        <ele>180</ele>
        <time>2017-12-15T10:03:19Z</time>
      </trkpt>
      <trkpt lat="45.95636" lon="4.71514">
        <ele>180</ele>
        <time>2017-12-15T10:03:20Z</time>
      </trkpt>
      <trkpt lat="45.95642" lon="4.71515">
        <ele>180</ele>
        <time>2017-12-15T10:03:21Z</time>
      </trkpt>
      <trkpt lat="45.95648" lon="4.71516">
        <ele>180</ele>
        <time>2017-12-15T10:03:22Z</time>
      </trkpt>
      <trkpt lat="45.95654" lon="4.71516">
        <ele>180</ele>
        <time>2017-12-15T10:03:23Z</time>
      </trkpt>
      <trkpt lat="45.9566" lon="4.71516">
        <ele>180</ele>
        <time>2017-12-15T10:03:24Z</time>
      </trkpt>
      <trkpt lat="45.95666" lon="4.71518">
        <ele>180</ele>
        <time>2017-12-15T10:03:25Z</time>
      </trkpt>
      <trkpt lat="45.95672" lon="4.71519">
        <ele>181</ele>
        <time>2017-12-15T10:03:26Z</time>
      </trkpt>
      <trkpt lat="45.95678" lon="4.71518">
        <ele>181</ele>
        <time>2017-12-15T10:03:27Z</time>
      </trkpt>
      <trkpt lat="45.95684" lon="4.71518">
        <ele>180</ele>
        <time>2017-12-15T10:03:28Z</time>
      </trkpt>
      <trkpt lat="45.9569" lon="4.71518">
        <ele>180</ele>
        <time>2017-12-15T10:03:29Z</time>
      </trkpt>
      <trkpt lat="45.95697" lon="4.7152">
        <ele>180</ele>
        <time>2017-12-15T10:03:30Z</time>
      </trkpt>
      <trkpt lat="45.95702" lon="4.7152">
        <ele>180</ele>
        <time>2017-12-15T10:03:31Z</time>
      </trkpt>
      <trkpt lat="45.95709" lon="4.7152">
        <ele>180</ele>
        <time>2017-12-15T10:03:32Z</time>
      </trkpt>
      <trkpt lat="45.95715" lon="4.71521">
        <ele>180</ele>
        <time>2017-12-15T10:03:33Z</time>
      </trkpt>
      <trkpt lat="45.95722" lon="4.71521">
        <ele>180</ele>
        <time>2017-12-15T10:03:34Z</time>
      </trkpt>
      <trkpt lat="45.95729" lon="4.71522">
        <ele>180</ele>
        <time>2017-12-15T10:03:35Z</time>
      </trkpt>
      <trkpt lat="45.95736" lon="4.71522">
        <ele>180</ele>
        <time>2017-12-15T10:03:36Z</time>
      </trkpt>
      <trkpt lat="45.95742" lon="4.71522">
        <ele>180</ele>
        <time>2017-12-15T10:03:37Z</time>
      </trkpt>
      <trkpt lat="45.95748" lon="4.71522">
        <ele>180</ele>
        <time>2017-12-15T10:03:38Z</time>
      </trkpt>
      <trkpt lat="45.95754" lon="4.71523">
        <ele>181</ele>
        <time>2017-12-15T10:03:39Z</time>
      </trkpt>
      <trkpt lat="45.9576" lon="4.71523">
        <ele>181</ele>
        <time>2017-12-15T10:03:40Z</time>
      </trkpt>
      <trkpt lat="45.95766" lon="4.71524">
        <ele>181</ele>
        <time>2017-12-15T10:03:41Z</time>
      </trkpt>
      <trkpt lat="45.95772" lon="4.71525">
        <ele>181</ele>
        <time>2017-12-15T10:03:42Z</time>
      </trkpt>
      <trkpt lat="45.95777" lon="4.71525">
        <ele>181</ele>
        <time>2017-12-15T10:03:43Z</time>
      </trkpt>
      <trkpt lat="45.95782" lon="4.71525">
        <ele>181</ele>
        <time>2017-12-15T10:03:44Z</time>
      </trkpt>
      <trkpt lat="45.95788" lon="4.71526">
        <ele>181</ele>
        <time>2017-12-15T10:03:45Z</time>
      </trkpt>
      <trkpt lat="45.95794" lon="4.71527">
        <ele>181</ele>
        <time>2017-12-15T10:03:46Z</time>
      </trkpt>
      <trkpt lat="45.958" lon="4.71527">
        <ele>181</ele>
        <time>2017-12-15T10:03:47Z</time>
      </trkpt>
      <trkpt lat="45.95806" lon="4.71527">
        <ele>181</ele>
        <time>2017-12-15T10:03:48Z</time>
      </trkpt>
      <trkpt lat="45.95812" lon="4.71527">
        <ele>181</ele>
        <time>2017-12-15T10:03:49Z</time>
      </trkpt>
      <trkpt lat="45.95818" lon="4.71527">
        <ele>181</ele>
        <time>2017-12-15T10:03:50Z</time>
      </trkpt>
      <trkpt lat="45.95824" lon="4.71528">
        <ele>181</ele>
        <time>2017-12-15T10:03:51Z</time>
      </trkpt>
      <trkpt lat="45.95829" lon="4.71528">
        <ele>181</ele>
        <time>2017-12-15T10:03:52Z</time>
      </trkpt>
      <trkpt lat="45.95835" lon="4.71528">
        <ele>182</ele>
        <time>2017-12-15T10:03:53Z</time>
      </trkpt>
      <trkpt lat="45.95839" lon="4.71529">
        <ele>182</ele>
        <time>2017-12-15T10:03:54Z</time>
      </trkpt>
      <trkpt lat="45.95845" lon="4.7153">
        <ele>182</ele>
        <time>2017-12-15T10:03:55Z</time>
      </trkpt>
      <trkpt lat="45.95849" lon="4.71531">
        <ele>182</ele>
        <time>2017-12-15T10:03:56Z</time>
      </trkpt>
      <trkpt lat="45.95855" lon="4.71533">
        <ele>182</ele>
        <time>2017-12-15T10:03:57Z</time>
      </trkpt>
      <trkpt lat="45.95861" lon="4.71534">
        <ele>182</ele>
        <time>2017-12-15T10:03:58Z</time>
      </trkpt>
      <trkpt lat="45.95866" lon="4.71535">
        <ele>181</ele>
        <time>2017-12-15T10:03:59Z</time>
      </trkpt>
      <trkpt lat="45.9587" lon="4.71535">
        <ele>181</ele>
        <time>2017-12-15T10:04:00Z</time>
      </trkpt>
      <trkpt lat="45.95875" lon="4.71535">
        <ele>181</ele>
        <time>2017-12-15T10:04:01Z</time>
      </trkpt>
      <trkpt lat="45.9588" lon="4.71536">
        <ele>181</ele>
        <time>2017-12-15T10:04:02Z</time>
      </trkpt>
      <trkpt lat="45.95885" lon="4.71537">
        <ele>181</ele>
        <time>2017-12-15T10:04:03Z</time>
      </trkpt>
      <trkpt lat="45.9589" lon="4.71537">
        <ele>182</ele>
        <time>2017-12-15T10:04:04Z</time>
      </trkpt>
      <trkpt lat="45.95895" lon="4.71539">
        <ele>181</ele>
        <time>2017-12-15T10:04:05Z</time>
      </trkpt>
      <trkpt lat="45.959" lon="4.71538">
        <ele>181</ele>
        <time>2017-12-15T10:04:06Z</time>
      </trkpt>
      <trkpt lat="45.95905" lon="4.71539">
        <ele>181</ele>
        <time>2017-12-15T10:04:07Z</time>
      </trkpt>
      <trkpt lat="45.95911" lon="4.71539">
        <ele>181</ele>
        <time>2017-12-15T10:04:08Z</time>
      </trkpt>
      <trkpt lat="45.95916" lon="4.7154">
        <ele>181</ele>
        <time>2017-12-15T10:04:09Z</time>
      </trkpt>
      <trkpt lat="45.95922" lon="4.71539">
        <ele>183</ele>
        <time>2017-12-15T10:04:10Z</time>
      </trkpt>
      <trkpt lat="45.95927" lon="4.7154">
        <ele>183</ele>
        <time>2017-12-15T10:04:11Z</time>
      </trkpt>
      <trkpt lat="45.95933" lon="4.7154">
        <ele>183</ele>
        <time>2017-12-15T10:04:12Z</time>
      </trkpt>
      <trkpt lat="45.95938" lon="4.7154">
        <ele>183</ele>
        <time>2017-12-15T10:04:13Z</time>
      </trkpt>
      <trkpt lat="45.95943" lon="4.71539">
        <ele>183</ele>
        <time>2017-12-15T10:04:14Z</time>
      </trkpt>
      <trkpt lat="45.95948" lon="4.7154">
        <ele>183</ele>
        <time>2017-12-15T10:04:15Z</time>
      </trkpt>
      <trkpt lat="45.95954" lon="4.71539">
        <ele>183</ele>
        <time>2017-12-15T10:04:16Z</time>
      </trkpt>
      <trkpt lat="45.95959" lon="4.7154">
        <ele>183</ele>
        <time>2017-12-15T10:04:17Z</time>
      </trkpt>
      <trkpt lat="45.95964" lon="4.71542">
        <ele>183</ele>
        <time>2017-12-15T10:04:18Z</time>
      </trkpt>
      <trkpt lat="45.95969" lon="4.71543">
        <ele>183</ele>
        <time>2017-12-15T10:04:19Z</time>
      </trkpt>
      <trkpt lat="45.95978" lon="4.71545">
        <ele>183</ele>
        <time>2017-12-15T10:04:21Z</time>
      </trkpt>
      <trkpt lat="45.95982" lon="4.71547">
        <ele>183</ele>
        <time>2017-12-15T10:04:22Z</time>
      </trkpt>
      <trkpt lat="45.95988" lon="4.71547">
        <ele>184</ele>
        <time>2017-12-15T10:04:23Z</time>
      </trkpt>
      <trkpt lat="45.95992" lon="4.71546">
        <ele>184</ele>
        <time>2017-12-15T10:04:24Z</time>
      </trkpt>
      <trkpt lat="45.95998" lon="4.71543">
        <ele>184</ele>
        <time>2017-12-15T10:04:25Z</time>
      </trkpt>
      <trkpt lat="45.96002" lon="4.71541">
        <ele>185</ele>
        <time>2017-12-15T10:04:26Z</time>
      </trkpt>
      <trkpt lat="45.96007" lon="4.71538">
        <ele>185</ele>
        <time>2017-12-15T10:04:27Z</time>
      </trkpt>
      <trkpt lat="45.96012" lon="4.71539">
        <ele>185</ele>
        <time>2017-12-15T10:04:28Z</time>
      </trkpt>
      <trkpt lat="45.96017" lon="4.71539">
        <ele>185</ele>
        <time>2017-12-15T10:04:29Z</time>
      </trkpt>
      <trkpt lat="45.96023" lon="4.71539">
        <ele>185</ele>
        <time>2017-12-15T10:04:30Z</time>
      </trkpt>
      <trkpt lat="45.96029" lon="4.7154">
        <ele>185</ele>
        <time>2017-12-15T10:04:31Z</time>
      </trkpt>
      <trkpt lat="45.96035" lon="4.7154">
        <ele>185</ele>
        <time>2017-12-15T10:04:32Z</time>
      </trkpt>
      <trkpt lat="45.9604" lon="4.71542">
        <ele>185</ele>
        <time>2017-12-15T10:04:33Z</time>
      </trkpt>
      <trkpt lat="45.96044" lon="4.71543">
        <ele>185</ele>
        <time>2017-12-15T10:04:34Z</time>
      </trkpt>
      <trkpt lat="45.96049" lon="4.71544">
        <ele>185</ele>
        <time>2017-12-15T10:04:35Z</time>
      </trkpt>
      <trkpt lat="45.96055" lon="4.71544">
        <ele>185</ele>
        <time>2017-12-15T10:04:36Z</time>
      </trkpt>
      <trkpt lat="45.9606" lon="4.71545">
        <ele>185</ele>
        <time>2017-12-15T10:04:37Z</time>
      </trkpt>
      <trkpt lat="45.96066" lon="4.71547">
        <ele>185</ele>
        <time>2017-12-15T10:04:38Z</time>
      </trkpt>
      <trkpt lat="45.96071" lon="4.71546">
        <ele>185</ele>
        <time>2017-12-15T10:04:39Z</time>
      </trkpt>
      <trkpt lat="45.96076" lon="4.71548">
        <ele>185</ele>
        <time>2017-12-15T10:04:40Z</time>
      </trkpt>
      <trkpt lat="45.96082" lon="4.71548">
        <ele>185</ele>
        <time>2017-12-15T10:04:41Z</time>
      </trkpt>
      <trkpt lat="45.96088" lon="4.7155">
        <ele>185</ele>
        <time>2017-12-15T10:04:42Z</time>
      </trkpt>
      <trkpt lat="45.96093" lon="4.7155">
        <ele>185</ele>
        <time>2017-12-15T10:04:43Z</time>
      </trkpt>
      <trkpt lat="45.96098" lon="4.71551">
        <ele>185</ele>
        <time>2017-12-15T10:04:44Z</time>
      </trkpt>
      <trkpt lat="45.96104" lon="4.71551">
        <ele>185</ele>
        <time>2017-12-15T10:04:45Z</time>
      </trkpt>
      <trkpt lat="45.9611" lon="4.71553">
        <ele>184</ele>
        <time>2017-12-15T10:04:46Z</time>
      </trkpt>
      <trkpt lat="45.96116" lon="4.71554">
        <ele>184</ele>
        <time>2017-12-15T10:04:47Z</time>
      </trkpt>
      <trkpt lat="45.96122" lon="4.71555">
        <ele>184</ele>
        <time>2017-12-15T10:04:48Z</time>
      </trkpt>
      <trkpt lat="45.96128" lon="4.71557">
        <ele>184</ele>
        <time>2017-12-15T10:04:49Z</time>
      </trkpt>
      <trkpt lat="45.96135" lon="4.71557">
        <ele>184</ele>
        <time>2017-12-15T10:04:50Z</time>
      </trkpt>
      <trkpt lat="45.9614" lon="4.7156">
        <ele>184</ele>
        <time>2017-12-15T10:04:51Z</time>
      </trkpt>
      <trkpt lat="45.96146" lon="4.7156">
        <ele>184</ele>
        <time>2017-12-15T10:04:52Z</time>
      </trkpt>
      <trkpt lat="45.96152" lon="4.71561">
        <ele>183</ele>
        <time>2017-12-15T10:04:53Z</time>
      </trkpt>
      <trkpt lat="45.96159" lon="4.71561">
        <ele>183</ele>
        <time>2017-12-15T10:04:54Z</time>
      </trkpt>
      <trkpt lat="45.96167" lon="4.71562">
        <ele>183</ele>
        <time>2017-12-15T10:04:55Z</time>
      </trkpt>
      <trkpt lat="45.96174" lon="4.71564">
        <ele>183</ele>
        <time>2017-12-15T10:04:56Z</time>
      </trkpt>
      <trkpt lat="45.96181" lon="4.71564">
        <ele>183</ele>
        <time>2017-12-15T10:04:57Z</time>
      </trkpt>
      <trkpt lat="45.96188" lon="4.71564">
        <ele>183</ele>
        <time>2017-12-15T10:04:58Z</time>
      </trkpt>
      <trkpt lat="45.96195" lon="4.71563">
        <ele>183</ele>
        <time>2017-12-15T10:04:59Z</time>
      </trkpt>
      <trkpt lat="45.96203" lon="4.71563">
        <ele>183</ele>
        <time>2017-12-15T10:05:00Z</time>
      </trkpt>
      <trkpt lat="45.9621" lon="4.71566">
        <ele>183</ele>
        <time>2017-12-15T10:05:01Z</time>
      </trkpt>
      <trkpt lat="45.96216" lon="4.71566">
        <ele>183</ele>
        <time>2017-12-15T10:05:02Z</time>
      </trkpt>
      <trkpt lat="45.96223" lon="4.71567">
        <ele>183</ele>
        <time>2017-12-15T10:05:03Z</time>
      </trkpt>
      <trkpt lat="45.9623" lon="4.71567">
        <ele>183</ele>
        <time>2017-12-15T10:05:04Z</time>
      </trkpt>
      <trkpt lat="45.96238" lon="4.71567">
        <ele>183</ele>
        <time>2017-12-15T10:05:05Z</time>
      </trkpt>
      <trkpt lat="45.96245" lon="4.71568">
        <ele>183</ele>
        <time>2017-12-15T10:05:06Z</time>
      </trkpt>
      <trkpt lat="45.96251" lon="4.7157">
        <ele>183</ele>
        <time>2017-12-15T10:05:07Z</time>
      </trkpt>
      <trkpt lat="45.96258" lon="4.71571">
        <ele>183</ele>
        <time>2017-12-15T10:05:08Z</time>
      </trkpt>
      <trkpt lat="45.96264" lon="4.71572">
        <ele>183</ele>
        <time>2017-12-15T10:05:09Z</time>
      </trkpt>
      <trkpt lat="45.96271" lon="4.71573">
        <ele>183</ele>
        <time>2017-12-15T10:05:10Z</time>
      </trkpt>
      <trkpt lat="45.96277" lon="4.71574">
        <ele>184</ele>
        <time>2017-12-15T10:05:11Z</time>
      </trkpt>
      <trkpt lat="45.96282" lon="4.71575">
        <ele>184</ele>
        <time>2017-12-15T10:05:12Z</time>
      </trkpt>
      <trkpt lat="45.96288" lon="4.71576">
        <ele>184</ele>
        <time>2017-12-15T10:05:13Z</time>
      </trkpt>
      <trkpt lat="45.96294" lon="4.71577">
        <ele>184</ele>
        <time>2017-12-15T10:05:14Z</time>
      </trkpt>
      <trkpt lat="45.963" lon="4.71579">
        <ele>184</ele>
        <time>2017-12-15T10:05:15Z</time>
      </trkpt>
      <trkpt lat="45.96306" lon="4.7158">
        <ele>184</ele>
        <time>2017-12-15T10:05:16Z</time>
      </trkpt>
      <trkpt lat="45.96312" lon="4.71582">
        <ele>184</ele>
        <time>2017-12-15T10:05:17Z</time>
      </trkpt>
      <trkpt lat="45.96318" lon="4.71583">
        <ele>184</ele>
        <time>2017-12-15T10:05:18Z</time>
      </trkpt>
      <trkpt lat="45.96324" lon="4.71584">
        <ele>182</ele>
        <time>2017-12-15T10:05:19Z</time>
      </trkpt>
      <trkpt lat="45.96331" lon="4.71585">
        <ele>183</ele>
        <time>2017-12-15T10:05:20Z</time>
      </trkpt>
      <trkpt lat="45.96338" lon="4.71587">
        <ele>183</ele>
        <time>2017-12-15T10:05:21Z</time>
      </trkpt>
      <trkpt lat="45.96345" lon="4.71586">
        <ele>182</ele>
        <time>2017-12-15T10:05:22Z</time>
      </trkpt>
      <trkpt lat="45.96351" lon="4.71588">
        <ele>182</ele>
        <time>2017-12-15T10:05:23Z</time>
      </trkpt>
      <trkpt lat="45.96358" lon="4.71588">
        <ele>182</ele>
        <time>2017-12-15T10:05:24Z</time>
      </trkpt>
      <trkpt lat="45.96365" lon="4.71589">
        <ele>182</ele>
        <time>2017-12-15T10:05:25Z</time>
      </trkpt>
      <trkpt lat="45.9637" lon="4.7159">
        <ele>182</ele>
        <time>2017-12-15T10:05:26Z</time>
      </trkpt>
      <trkpt lat="45.96376" lon="4.71592">
        <ele>182</ele>
        <time>2017-12-15T10:05:27Z</time>
      </trkpt>
      <trkpt lat="45.96381" lon="4.71593">
        <ele>182</ele>
        <time>2017-12-15T10:05:28Z</time>
      </trkpt>
      <trkpt lat="45.96387" lon="4.71595">
        <ele>183</ele>
        <time>2017-12-15T10:05:29Z</time>
      </trkpt>
      <trkpt lat="45.96393" lon="4.71596">
        <ele>183</ele>
        <time>2017-12-15T10:05:30Z</time>
      </trkpt>
      <trkpt lat="45.96399" lon="4.71599">
        <ele>183</ele>
        <time>2017-12-15T10:05:31Z</time>
      </trkpt>
      <trkpt lat="45.96406" lon="4.71599">
        <ele>183</ele>
        <time>2017-12-15T10:05:32Z</time>
      </trkpt>
      <trkpt lat="45.96412" lon="4.716">
        <ele>183</ele>
        <time>2017-12-15T10:05:33Z</time>
      </trkpt>
      <trkpt lat="45.96418" lon="4.71602">
        <ele>184</ele>
        <time>2017-12-15T10:05:34Z</time>
      </trkpt>
      <trkpt lat="45.96426" lon="4.71603">
        <ele>183</ele>
        <time>2017-12-15T10:05:35Z</time>
      </trkpt>
      <trkpt lat="45.96432" lon="4.71604">
        <ele>183</ele>
        <time>2017-12-15T10:05:36Z</time>
      </trkpt>
      <trkpt lat="45.96439" lon="4.71604">
        <ele>183</ele>
        <time>2017-12-15T10:05:37Z</time>
      </trkpt>
      <trkpt lat="45.96446" lon="4.71606">
        <ele>183</ele>
        <time>2017-12-15T10:05:38Z</time>
      </trkpt>
      <trkpt lat="45.96452" lon="4.71607">
        <ele>183</ele>
        <time>2017-12-15T10:05:39Z</time>
      </trkpt>
      <trkpt lat="45.96458" lon="4.71608">
        <ele>183</ele>
        <time>2017-12-15T10:05:40Z</time>
      </trkpt>
      <trkpt lat="45.96463" lon="4.71609">
        <ele>183</ele>
        <time>2017-12-15T10:05:41Z</time>
      </trkpt>
      <trkpt lat="45.96469" lon="4.71612">
        <ele>183</ele>
        <time>2017-12-15T10:05:42Z</time>
      </trkpt>
      <trkpt lat="45.96474" lon="4.71613">
        <ele>183</ele>
        <time>2017-12-15T10:05:43Z</time>
      </trkpt>
      <trkpt lat="45.9648" lon="4.71613">
        <ele>183</ele>
        <time>2017-12-15T10:05:44Z</time>
      </trkpt>
      <trkpt lat="45.96487" lon="4.71614">
        <ele>183</ele>
        <time>2017-12-15T10:05:45Z</time>
      </trkpt>
      <trkpt lat="45.96492" lon="4.71614">
        <ele>183</ele>
        <time>2017-12-15T10:05:46Z</time>
      </trkpt>
      <trkpt lat="45.96498" lon="4.71616">
        <ele>183</ele>
        <time>2017-12-15T10:05:47Z</time>
      </trkpt>
      <trkpt lat="45.96504" lon="4.71617">
        <ele>184</ele>
        <time>2017-12-15T10:05:48Z</time>
      </trkpt>
      <trkpt lat="45.96509" lon="4.71621">
        <ele>184</ele>
        <time>2017-12-15T10:05:49Z</time>
      </trkpt>
      <trkpt lat="45.96513" lon="4.71625">
        <ele>184</ele>
        <time>2017-12-15T10:05:50Z</time>
      </trkpt>
      <trkpt lat="45.96518" lon="4.7163">
        <ele>184</ele>
        <time>2017-12-15T10:05:51Z</time>
      </trkpt>
      <trkpt lat="45.96522" lon="4.71637">
        <ele>183</ele>
        <time>2017-12-15T10:05:52Z</time>
      </trkpt>
      <trkpt lat="45.96527" lon="4.7164">
        <ele>183</ele>
        <time>2017-12-15T10:05:53Z</time>
      </trkpt>
      <trkpt lat="45.96532" lon="4.71641">
        <ele>183</ele>
        <time>2017-12-15T10:05:54Z</time>
      </trkpt>
      <trkpt lat="45.96537" lon="4.7164">
        <ele>184</ele>
        <time>2017-12-15T10:05:55Z</time>
      </trkpt>
      <trkpt lat="45.96543" lon="4.71636">
        <ele>184</ele>
        <time>2017-12-15T10:05:56Z</time>
      </trkpt>
      <trkpt lat="45.96548" lon="4.71632">
        <ele>184</ele>
        <time>2017-12-15T10:05:57Z</time>
      </trkpt>
      <trkpt lat="45.96554" lon="4.71628">
        <ele>184</ele>
        <time>2017-12-15T10:05:58Z</time>
      </trkpt>
      <trkpt lat="45.9656" lon="4.71625">
        <ele>185</ele>
        <time>2017-12-15T10:05:59Z</time>
      </trkpt>
      <trkpt lat="45.96565" lon="4.71626">
        <ele>185</ele>
        <time>2017-12-15T10:06:00Z</time>
      </trkpt>
      <trkpt lat="45.96569" lon="4.71628">
        <ele>185</ele>
        <time>2017-12-15T10:06:01Z</time>
      </trkpt>
      <trkpt lat="45.96576" lon="4.71628">
        <ele>185</ele>
        <time>2017-12-15T10:06:02Z</time>
      </trkpt>
      <trkpt lat="45.96581" lon="4.71629">
        <ele>185</ele>
        <time>2017-12-15T10:06:03Z</time>
      </trkpt>
      <trkpt lat="45.96587" lon="4.7163">
        <ele>187</ele>
        <time>2017-12-15T10:06:04Z</time>
      </trkpt>
      <trkpt lat="45.96592" lon="4.7163">
        <ele>187</ele>
        <time>2017-12-15T10:06:05Z</time>
      </trkpt>
      <trkpt lat="45.96598" lon="4.71631">
        <ele>187</ele>
        <time>2017-12-15T10:06:06Z</time>
      </trkpt>
      <trkpt lat="45.96604" lon="4.71631">
        <ele>187</ele>
        <time>2017-12-15T10:06:07Z</time>
      </trkpt>
      <trkpt lat="45.9661" lon="4.71633">
        <ele>187</ele>
        <time>2017-12-15T10:06:08Z</time>
      </trkpt>
      <trkpt lat="45.96615" lon="4.71634">
        <ele>187</ele>
        <time>2017-12-15T10:06:09Z</time>
      </trkpt>
      <trkpt lat="45.96622" lon="4.71634">
        <ele>187</ele>
        <time>2017-12-15T10:06:10Z</time>
      </trkpt>
      <trkpt lat="45.96628" lon="4.71636">
        <ele>187</ele>
        <time>2017-12-15T10:06:11Z</time>
      </trkpt>
      <trkpt lat="45.96634" lon="4.71636">
        <ele>188</ele>
        <time>2017-12-15T10:06:12Z</time>
      </trkpt>
      <trkpt lat="45.96639" lon="4.71637">
        <ele>188</ele>
        <time>2017-12-15T10:06:13Z</time>
      </trkpt>
      <trkpt lat="45.96645" lon="4.71639">
        <ele>188</ele>
        <time>2017-12-15T10:06:14Z</time>
      </trkpt>
      <trkpt lat="45.96651" lon="4.7164">
        <ele>188</ele>
        <time>2017-12-15T10:06:15Z</time>
      </trkpt>
      <trkpt lat="45.96657" lon="4.7164">
        <ele>188</ele>
        <time>2017-12-15T10:06:16Z</time>
      </trkpt>
      <trkpt lat="45.96663" lon="4.71643">
        <ele>188</ele>
        <time>2017-12-15T10:06:17Z</time>
      </trkpt>
      <trkpt lat="45.96668" lon="4.71644">
        <ele>189</ele>
        <time>2017-12-15T10:06:18Z</time>
      </trkpt>
      <trkpt lat="45.96674" lon="4.71646">
        <ele>189</ele>
        <time>2017-12-15T10:06:19Z</time>
      </trkpt>
      <trkpt lat="45.9668" lon="4.71647">
        <ele>189</ele>
        <time>2017-12-15T10:06:20Z</time>
      </trkpt>
      <trkpt lat="45.96685" lon="4.71648">
        <ele>189</ele>
        <time>2017-12-15T10:06:21Z</time>
      </trkpt>
      <trkpt lat="45.96691" lon="4.71649">
        <ele>189</ele>
        <time>2017-12-15T10:06:22Z</time>
      </trkpt>
      <trkpt lat="45.96698" lon="4.71649">
        <ele>190</ele>
        <time>2017-12-15T10:06:23Z</time>
      </trkpt>
      <trkpt lat="45.96704" lon="4.71649">
        <ele>190</ele>
        <time>2017-12-15T10:06:24Z</time>
      </trkpt>
      <trkpt lat="45.9671" lon="4.71651">
        <ele>190</ele>
        <time>2017-12-15T10:06:25Z</time>
      </trkpt>
      <trkpt lat="45.96715" lon="4.71652">
        <ele>190</ele>
        <time>2017-12-15T10:06:26Z</time>
      </trkpt>
      <trkpt lat="45.96721" lon="4.71653">
        <ele>190</ele>
        <time>2017-12-15T10:06:27Z</time>
      </trkpt>
      <trkpt lat="45.96727" lon="4.71655">
        <ele>190</ele>
        <time>2017-12-15T10:06:28Z</time>
      </trkpt>
      <trkpt lat="45.96733" lon="4.71656">
        <ele>190</ele>
        <time>2017-12-15T10:06:29Z</time>
      </trkpt>
      <trkpt lat="45.96739" lon="4.71656">
        <ele>190</ele>
        <time>2017-12-15T10:06:30Z</time>
      </trkpt>
      <trkpt lat="45.96746" lon="4.71657">
        <ele>190</ele>
        <time>2017-12-15T10:06:31Z</time>
      </trkpt>
      <trkpt lat="45.96752" lon="4.71657">
        <ele>190</ele>
        <time>2017-12-15T10:06:32Z</time>
      </trkpt>
      <trkpt lat="45.96758" lon="4.71658">
        <ele>191</ele>
        <time>2017-12-15T10:06:33Z</time>
      </trkpt>
      <trkpt lat="45.96764" lon="4.71658">
        <ele>191</ele>
        <time>2017-12-15T10:06:34Z</time>
      </trkpt>
      <trkpt lat="45.9677" lon="4.71658">
        <ele>191</ele>
        <time>2017-12-15T10:06:35Z</time>
      </trkpt>
      <trkpt lat="45.96776" lon="4.7166">
        <ele>192</ele>
        <time>2017-12-15T10:06:36Z</time>
      </trkpt>
      <trkpt lat="45.96782" lon="4.7166">
        <ele>192</ele>
        <time>2017-12-15T10:06:37Z</time>
      </trkpt>
      <trkpt lat="45.96788" lon="4.7166">
        <ele>192</ele>
        <time>2017-12-15T10:06:38Z</time>
      </trkpt>
      <trkpt lat="45.96794" lon="4.71662">
        <ele>192</ele>
        <time>2017-12-15T10:06:39Z</time>
      </trkpt>
      <trkpt lat="45.96799" lon="4.71663">
        <ele>192</ele>
        <time>2017-12-15T10:06:40Z</time>
      </trkpt>
      <trkpt lat="45.96805" lon="4.71665">
        <ele>192</ele>
        <time>2017-12-15T10:06:41Z</time>
      </trkpt>
      <trkpt lat="45.9681" lon="4.71666">
        <ele>192</ele>
        <time>2017-12-15T10:06:42Z</time>
      </trkpt>
      <trkpt lat="45.96816" lon="4.71667">
        <ele>190</ele>
        <time>2017-12-15T10:06:43Z</time>
      </trkpt>
      <trkpt lat="45.96822" lon="4.71668">
        <ele>190</ele>
        <time>2017-12-15T10:06:44Z</time>
      </trkpt>
      <trkpt lat="45.96828" lon="4.71668">
        <ele>191</ele>
        <time>2017-12-15T10:06:45Z</time>
      </trkpt>
      <trkpt lat="45.96834" lon="4.71669">
        <ele>192</ele>
        <time>2017-12-15T10:06:46Z</time>
      </trkpt>
      <trkpt lat="45.96839" lon="4.71668">
        <ele>191</ele>
        <time>2017-12-15T10:06:47Z</time>
      </trkpt>
      <trkpt lat="45.96845" lon="4.71669">
        <ele>191</ele>
        <time>2017-12-15T10:06:48Z</time>
      </trkpt>
      <trkpt lat="45.96852" lon="4.7167">
        <ele>191</ele>
        <time>2017-12-15T10:06:49Z</time>
      </trkpt>
      <trkpt lat="45.96858" lon="4.71671">
        <ele>190</ele>
        <time>2017-12-15T10:06:50Z</time>
      </trkpt>
      <trkpt lat="45.96864" lon="4.71672">
        <ele>190</ele>
        <time>2017-12-15T10:06:51Z</time>
      </trkpt>
      <trkpt lat="45.9687" lon="4.71672">
        <ele>190</ele>
        <time>2017-12-15T10:06:52Z</time>
      </trkpt>
      <trkpt lat="45.96876" lon="4.71672">
        <ele>190</ele>
        <time>2017-12-15T10:06:53Z</time>
      </trkpt>
      <trkpt lat="45.96882" lon="4.71673">
        <ele>191</ele>
        <time>2017-12-15T10:06:54Z</time>
      </trkpt>
      <trkpt lat="45.96887" lon="4.71674">
        <ele>191</ele>
        <time>2017-12-15T10:06:55Z</time>
      </trkpt>
      <trkpt lat="45.96892" lon="4.71675">
        <ele>191</ele>
        <time>2017-12-15T10:06:56Z</time>
      </trkpt>
      <trkpt lat="45.96898" lon="4.71676">
        <ele>191</ele>
        <time>2017-12-15T10:06:57Z</time>
      </trkpt>
      <trkpt lat="45.96903" lon="4.71677">
        <ele>192</ele>
        <time>2017-12-15T10:06:58Z</time>
      </trkpt>
      <trkpt lat="45.9691" lon="4.71677">
        <ele>193</ele>
        <time>2017-12-15T10:06:59Z</time>
      </trkpt>
      <trkpt lat="45.96915" lon="4.71677">
        <ele>193</ele>
        <time>2017-12-15T10:07:00Z</time>
      </trkpt>
      <trkpt lat="45.9692" lon="4.71677">
        <ele>193</ele>
        <time>2017-12-15T10:07:01Z</time>
      </trkpt>
      <trkpt lat="45.96925" lon="4.71678">
        <ele>193</ele>
        <time>2017-12-15T10:07:02Z</time>
      </trkpt>
      <trkpt lat="45.96931" lon="4.71678">
        <ele>193</ele>
        <time>2017-12-15T10:07:03Z</time>
      </trkpt>
      <trkpt lat="45.96936" lon="4.71678">
        <ele>192</ele>
        <time>2017-12-15T10:07:04Z</time>
      </trkpt>
      <trkpt lat="45.96942" lon="4.71678">
        <ele>192</ele>
        <time>2017-12-15T10:07:05Z</time>
      </trkpt>
      <trkpt lat="45.96947" lon="4.71678">
        <ele>192</ele>
        <time>2017-12-15T10:07:06Z</time>
      </trkpt>
      <trkpt lat="45.96951" lon="4.71679">
        <ele>192</ele>
        <time>2017-12-15T10:07:07Z</time>
      </trkpt>
      <trkpt lat="45.96956" lon="4.71679">
        <ele>192</ele>
        <time>2017-12-15T10:07:08Z</time>
      </trkpt>
      <trkpt lat="45.96962" lon="4.7168">
        <ele>192</ele>
        <time>2017-12-15T10:07:09Z</time>
      </trkpt>
      <trkpt lat="45.96967" lon="4.7168">
        <ele>192</ele>
        <time>2017-12-15T10:07:10Z</time>
      </trkpt>
      <trkpt lat="45.96972" lon="4.7168">
        <ele>192</ele>
        <time>2017-12-15T10:07:11Z</time>
      </trkpt>
      <trkpt lat="45.96976" lon="4.71681">
        <ele>192</ele>
        <time>2017-12-15T10:07:12Z</time>
      </trkpt>
      <trkpt lat="45.96982" lon="4.71681">
        <ele>192</ele>
        <time>2017-12-15T10:07:13Z</time>
      </trkpt>
      <trkpt lat="45.96987" lon="4.71682">
        <ele>192</ele>
        <time>2017-12-15T10:07:14Z</time>
      </trkpt>
      <trkpt lat="45.96992" lon="4.71683">
        <ele>192</ele>
        <time>2017-12-15T10:07:15Z</time>
      </trkpt>
      <trkpt lat="45.96998" lon="4.71683">
        <ele>192</ele>
        <time>2017-12-15T10:07:16Z</time>
      </trkpt>
      <trkpt lat="45.97004" lon="4.71685">
        <ele>193</ele>
        <time>2017-12-15T10:07:17Z</time>
      </trkpt>
      <trkpt lat="45.9701" lon="4.71683">
        <ele>193</ele>
        <time>2017-12-15T10:07:18Z</time>
      </trkpt>
      <trkpt lat="45.97015" lon="4.71684">
        <ele>193</ele>
        <time>2017-12-15T10:07:19Z</time>
      </trkpt>
      <trkpt lat="45.97021" lon="4.71685">
        <ele>193</ele>
        <time>2017-12-15T10:07:20Z</time>
      </trkpt>
      <trkpt lat="45.97027" lon="4.71686">
        <ele>193</ele>
        <time>2017-12-15T10:07:21Z</time>
      </trkpt>
      <trkpt lat="45.97032" lon="4.71687">
        <ele>193</ele>
        <time>2017-12-15T10:07:22Z</time>
      </trkpt>
      <trkpt lat="45.97038" lon="4.71688">
        <ele>193</ele>
        <time>2017-12-15T10:07:23Z</time>
      </trkpt>
      <trkpt lat="45.97044" lon="4.7169">
        <ele>193</ele>
        <time>2017-12-15T10:07:24Z</time>
      </trkpt>
      <trkpt lat="45.9705" lon="4.7169">
        <ele>193</ele>
        <time>2017-12-15T10:07:25Z</time>
      </trkpt>
      <trkpt lat="45.97056" lon="4.71691">
        <ele>193</ele>
        <time>2017-12-15T10:07:26Z</time>
      </trkpt>
      <trkpt lat="45.97061" lon="4.71691">
        <ele>193</ele>
        <time>2017-12-15T10:07:27Z</time>
      </trkpt>
      <trkpt lat="45.97067" lon="4.71692">
        <ele>193</ele>
        <time>2017-12-15T10:07:28Z</time>
      </trkpt>
      <trkpt lat="45.97074" lon="4.71691">
        <ele>193</ele>
        <time>2017-12-15T10:07:29Z</time>
      </trkpt>
      <trkpt lat="45.9708" lon="4.7169">
        <ele>193</ele>
        <time>2017-12-15T10:07:30Z</time>
      </trkpt>
      <trkpt lat="45.97086" lon="4.7169">
        <ele>194</ele>
        <time>2017-12-15T10:07:31Z</time>
      </trkpt>
      <trkpt lat="45.97092" lon="4.71691">
        <ele>194</ele>
        <time>2017-12-15T10:07:32Z</time>
      </trkpt>
      <trkpt lat="45.97098" lon="4.71691">
        <ele>194</ele>
        <time>2017-12-15T10:07:33Z</time>
      </trkpt>
      <trkpt lat="45.97104" lon="4.71692">
        <ele>194</ele>
        <time>2017-12-15T10:07:34Z</time>
      </trkpt>
      <trkpt lat="45.9711" lon="4.71693">
        <ele>194</ele>
        <time>2017-12-15T10:07:35Z</time>
      </trkpt>
      <trkpt lat="45.97116" lon="4.71693">
        <ele>194</ele>
        <time>2017-12-15T10:07:36Z</time>
      </trkpt>
      <trkpt lat="45.97123" lon="4.71694">
        <ele>194</ele>
        <time>2017-12-15T10:07:37Z</time>
      </trkpt>
      <trkpt lat="45.97128" lon="4.71694">
        <ele>194</ele>
        <time>2017-12-15T10:07:38Z</time>
      </trkpt>
      <trkpt lat="45.97134" lon="4.71696">
        <ele>195</ele>
        <time>2017-12-15T10:07:39Z</time>
      </trkpt>
      <trkpt lat="45.9714" lon="4.71696">
        <ele>195</ele>
        <time>2017-12-15T10:07:40Z</time>
      </trkpt>
      <trkpt lat="45.97145" lon="4.71697">
        <ele>195</ele>
        <time>2017-12-15T10:07:41Z</time>
      </trkpt>
      <trkpt lat="45.97151" lon="4.71697">
        <ele>195</ele>
        <time>2017-12-15T10:07:42Z</time>
      </trkpt>
      <trkpt lat="45.97156" lon="4.71698">
        <ele>195</ele>
        <time>2017-12-15T10:07:43Z</time>
      </trkpt>
      <trkpt lat="45.97161" lon="4.71698">
        <ele>195</ele>
        <time>2017-12-15T10:07:44Z</time>
      </trkpt>
      <trkpt lat="45.97167" lon="4.71699">
        <ele>195</ele>
        <time>2017-12-15T10:07:45Z</time>
      </trkpt>
      <trkpt lat="45.97172" lon="4.71698">
        <ele>196</ele>
        <time>2017-12-15T10:07:46Z</time>
      </trkpt>
      <trkpt lat="45.97178" lon="4.71699">
        <ele>196</ele>
        <time>2017-12-15T10:07:47Z</time>
      </trkpt>
      <trkpt lat="45.97184" lon="4.71698">
        <ele>196</ele>
        <time>2017-12-15T10:07:48Z</time>
      </trkpt>
      <trkpt lat="45.9719" lon="4.71699">
        <ele>196</ele>
        <time>2017-12-15T10:07:49Z</time>
      </trkpt>
      <trkpt lat="45.97195" lon="4.717">
        <ele>196</ele>
        <time>2017-12-15T10:07:50Z</time>
      </trkpt>
      <trkpt lat="45.97201" lon="4.71701">
        <ele>196</ele>
        <time>2017-12-15T10:07:51Z</time>
      </trkpt>
      <trkpt lat="45.97207" lon="4.717">
        <ele>196</ele>
        <time>2017-12-15T10:07:52Z</time>
      </trkpt>
      <trkpt lat="45.97214" lon="4.71699">
        <ele>197</ele>
        <time>2017-12-15T10:07:53Z</time>
      </trkpt>
      <trkpt lat="45.9722" lon="4.71701">
        <ele>197</ele>
        <time>2017-12-15T10:07:54Z</time>
      </trkpt>
      <trkpt lat="45.97226" lon="4.71702">
        <ele>197</ele>
        <time>2017-12-15T10:07:55Z</time>
      </trkpt>
      <trkpt lat="45.97232" lon="4.71702">
        <ele>197</ele>
        <time>2017-12-15T10:07:56Z</time>
      </trkpt>
      <trkpt lat="45.97239" lon="4.71703">
        <ele>197</ele>
        <time>2017-12-15T10:07:57Z</time>
      </trkpt>
      <trkpt lat="45.97244" lon="4.71704">
        <ele>197</ele>
        <time>2017-12-15T10:07:58Z</time>
      </trkpt>
      <trkpt lat="45.97249" lon="4.71703">
        <ele>197</ele>
        <time>2017-12-15T10:07:59Z</time>
      </trkpt>
      <trkpt lat="45.97255" lon="4.71705">
        <ele>197</ele>
        <time>2017-12-15T10:08:00Z</time>
      </trkpt>
      <trkpt lat="45.97259" lon="4.71706">
        <ele>197</ele>
        <time>2017-12-15T10:08:01Z</time>
      </trkpt>
      <trkpt lat="45.97263" lon="4.71708">
        <ele>196</ele>
        <time>2017-12-15T10:08:02Z</time>
      </trkpt>
      <trkpt lat="45.97268" lon="4.71709">
        <ele>196</ele>
        <time>2017-12-15T10:08:03Z</time>
      </trkpt>
      <trkpt lat="45.97272" lon="4.7171">
        <ele>196</ele>
        <time>2017-12-15T10:08:04Z</time>
      </trkpt>
      <trkpt lat="45.97277" lon="4.71713">
        <ele>196</ele>
        <time>2017-12-15T10:08:05Z</time>
      </trkpt>
      <trkpt lat="45.97282" lon="4.71716">
        <ele>196</ele>
        <time>2017-12-15T10:08:06Z</time>
      </trkpt>
      <trkpt lat="45.97287" lon="4.7172">
        <ele>196</ele>
        <time>2017-12-15T10:08:07Z</time>
      </trkpt>
      <trkpt lat="45.97291" lon="4.71725">
        <ele>196</ele>
        <time>2017-12-15T10:08:08Z</time>
      </trkpt>
      <trkpt lat="45.97294" lon="4.7173">
        <ele>196</ele>
        <time>2017-12-15T10:08:09Z</time>
      </trkpt>
      <trkpt lat="45.97298" lon="4.71734">
        <ele>196</ele>
        <time>2017-12-15T10:08:10Z</time>
      </trkpt>
      <trkpt lat="45.97304" lon="4.71737">
        <ele>196</ele>
        <time>2017-12-15T10:08:11Z</time>
      </trkpt>
      <trkpt lat="45.9731" lon="4.71736">
        <ele>195</ele>
        <time>2017-12-15T10:08:12Z</time>
      </trkpt>
      <trkpt lat="45.97316" lon="4.71733">
        <ele>195</ele>
        <time>2017-12-15T10:08:13Z</time>
      </trkpt>
      <trkpt lat="45.97322" lon="4.71729">
        <ele>195</ele>
        <time>2017-12-15T10:08:14Z</time>
      </trkpt>
      <trkpt lat="45.97327" lon="4.71723">
        <ele>196</ele>
        <time>2017-12-15T10:08:15Z</time>
      </trkpt>
      <trkpt lat="45.97331" lon="4.71719">
        <ele>196</ele>
        <time>2017-12-15T10:08:16Z</time>
      </trkpt>
      <trkpt lat="45.97336" lon="4.71716">
        <ele>195</ele>
        <time>2017-12-15T10:08:17Z</time>
      </trkpt>
      <trkpt lat="45.9734" lon="4.71716">
        <ele>195</ele>
        <time>2017-12-15T10:08:18Z</time>
      </trkpt>
      <trkpt lat="45.97345" lon="4.71716">
        <ele>195</ele>
        <time>2017-12-15T10:08:19Z</time>
      </trkpt>
      <trkpt lat="45.97349" lon="4.71715">
        <ele>195</ele>
        <time>2017-12-15T10:08:20Z</time>
      </trkpt>
      <trkpt lat="45.97355" lon="4.71716">
        <ele>195</ele>
        <time>2017-12-15T10:08:21Z</time>
      </trkpt>
      <trkpt lat="45.9736" lon="4.71717">
        <ele>195</ele>
        <time>2017-12-15T10:08:22Z</time>
      </trkpt>
      <trkpt lat="45.97365" lon="4.71717">
        <ele>195</ele>
        <time>2017-12-15T10:08:23Z</time>
      </trkpt>
      <trkpt lat="45.97371" lon="4.71718">
        <ele>195</ele>
        <time>2017-12-15T10:08:24Z</time>
      </trkpt>
      <trkpt lat="45.97377" lon="4.71718">
        <ele>195</ele>
        <time>2017-12-15T10:08:25Z</time>
      </trkpt>
      <trkpt lat="45.97383" lon="4.71718">
        <ele>195</ele>
        <time>2017-12-15T10:08:26Z</time>
      </trkpt>
      <trkpt lat="45.9739" lon="4.71719">
        <ele>195</ele>
        <time>2017-12-15T10:08:27Z</time>
      </trkpt>
      <trkpt lat="45.97397" lon="4.71719">
        <ele>195</ele>
        <time>2017-12-15T10:08:28Z</time>
      </trkpt>
      <trkpt lat="45.97403" lon="4.71719">
        <ele>195</ele>
        <time>2017-12-15T10:08:29Z</time>
      </trkpt>
      <trkpt lat="45.97409" lon="4.71719">
        <ele>195</ele>
        <time>2017-12-15T10:08:30Z</time>
      </trkpt>
      <trkpt lat="45.97415" lon="4.71719">
        <ele>195</ele>
        <time>2017-12-15T10:08:31Z</time>
      </trkpt>
      <trkpt lat="45.97421" lon="4.71719">
        <ele>196</ele>
        <time>2017-12-15T10:08:32Z</time>
      </trkpt>
      <trkpt lat="45.97427" lon="4.71719">
        <ele>196</ele>
        <time>2017-12-15T10:08:33Z</time>
      </trkpt>
      <trkpt lat="45.97432" lon="4.7172">
        <ele>196</ele>
        <time>2017-12-15T10:08:34Z</time>
      </trkpt>
      <trkpt lat="45.97437" lon="4.7172">
        <ele>196</ele>
        <time>2017-12-15T10:08:35Z</time>
      </trkpt>
      <trkpt lat="45.97443" lon="4.71721">
        <ele>196</ele>
        <time>2017-12-15T10:08:36Z</time>
      </trkpt>
      <trkpt lat="45.97448" lon="4.71721">
        <ele>197</ele>
        <time>2017-12-15T10:08:37Z</time>
      </trkpt>
      <trkpt lat="45.97453" lon="4.71721">
        <ele>197</ele>
        <time>2017-12-15T10:08:38Z</time>
      </trkpt>
      <trkpt lat="45.97459" lon="4.71722">
        <ele>197</ele>
        <time>2017-12-15T10:08:39Z</time>
      </trkpt>
      <trkpt lat="45.97464" lon="4.71723">
        <ele>197</ele>
        <time>2017-12-15T10:08:40Z</time>
      </trkpt>
      <trkpt lat="45.9747" lon="4.71723">
        <ele>197</ele>
        <time>2017-12-15T10:08:41Z</time>
      </trkpt>
      <trkpt lat="45.97476" lon="4.71723">
        <ele>197</ele>
        <time>2017-12-15T10:08:42Z</time>
      </trkpt>
      <trkpt lat="45.97482" lon="4.71725">
        <ele>197</ele>
        <time>2017-12-15T10:08:43Z</time>
      </trkpt>
      <trkpt lat="45.97489" lon="4.71725">
        <ele>197</ele>
        <time>2017-12-15T10:08:44Z</time>
      </trkpt>
      <trkpt lat="45.97494" lon="4.71726">
        <ele>197</ele>
        <time>2017-12-15T10:08:45Z</time>
      </trkpt>
      <trkpt lat="45.97498" lon="4.71727">
        <ele>197</ele>
        <time>2017-12-15T10:08:46Z</time>
      </trkpt>
      <trkpt lat="45.97504" lon="4.71726">
        <ele>198</ele>
        <time>2017-12-15T10:08:47Z</time>
      </trkpt>
      <trkpt lat="45.97509" lon="4.71727">
        <ele>198</ele>
        <time>2017-12-15T10:08:48Z</time>
      </trkpt>
      <trkpt lat="45.97514" lon="4.71728">
        <ele>198</ele>
        <time>2017-12-15T10:08:49Z</time>
      </trkpt>
      <trkpt lat="45.97521" lon="4.71727">
        <ele>198</ele>
        <time>2017-12-15T10:08:50Z</time>
      </trkpt>
      <trkpt lat="45.97526" lon="4.71729">
        <ele>198</ele>
        <time>2017-12-15T10:08:51Z</time>
      </trkpt>
      <trkpt lat="45.97532" lon="4.71729">
        <ele>198</ele>
        <time>2017-12-15T10:08:52Z</time>
      </trkpt>
      <trkpt lat="45.97538" lon="4.7173">
        <ele>198</ele>
        <time>2017-12-15T10:08:53Z</time>
      </trkpt>
      <trkpt lat="45.97544" lon="4.7173">
        <ele>198</ele>
        <time>2017-12-15T10:08:54Z</time>
      </trkpt>
      <trkpt lat="45.97551" lon="4.71731">
        <ele>198</ele>
        <time>2017-12-15T10:08:55Z</time>
      </trkpt>
      <trkpt lat="45.97558" lon="4.71729">
        <ele>198</ele>
        <time>2017-12-15T10:08:56Z</time>
      </trkpt>
      <trkpt lat="45.97565" lon="4.71729">
        <ele>197</ele>
        <time>2017-12-15T10:08:57Z</time>
      </trkpt>
      <trkpt lat="45.97571" lon="4.7173">
        <ele>197</ele>
        <time>2017-12-15T10:08:58Z</time>
      </trkpt>
      <trkpt lat="45.97577" lon="4.71729">
        <ele>197</ele>
        <time>2017-12-15T10:08:59Z</time>
      </trkpt>
      <trkpt lat="45.97583" lon="4.7173">
        <ele>197</ele>
        <time>2017-12-15T10:09:00Z</time>
      </trkpt>
      <trkpt lat="45.97589" lon="4.7173">
        <ele>196</ele>
        <time>2017-12-15T10:09:01Z</time>
      </trkpt>
      <trkpt lat="45.97595" lon="4.71732">
        <ele>196</ele>
        <time>2017-12-15T10:09:02Z</time>
      </trkpt>
      <trkpt lat="45.976" lon="4.71735">
        <ele>196</ele>
        <time>2017-12-15T10:09:03Z</time>
      </trkpt>
      <trkpt lat="45.97605" lon="4.71741">
        <ele>196</ele>
        <time>2017-12-15T10:09:04Z</time>
      </trkpt>
      <trkpt lat="45.9761" lon="4.71745">
        <ele>196</ele>
        <time>2017-12-15T10:09:05Z</time>
      </trkpt>
      <trkpt lat="45.97615" lon="4.7175">
        <ele>196</ele>
        <time>2017-12-15T10:09:06Z</time>
      </trkpt>
      <trkpt lat="45.97621" lon="4.71752">
        <ele>194</ele>
        <time>2017-12-15T10:09:07Z</time>
      </trkpt>
      <trkpt lat="45.97627" lon="4.71752">
        <ele>194</ele>
        <time>2017-12-15T10:09:08Z</time>
      </trkpt>
      <trkpt lat="45.97633" lon="4.71749">
        <ele>196</ele>
        <time>2017-12-15T10:09:09Z</time>
      </trkpt>
      <trkpt lat="45.97637" lon="4.71745">
        <ele>196</ele>
        <time>2017-12-15T10:09:10Z</time>
      </trkpt>
      <trkpt lat="45.97642" lon="4.71742">
        <ele>196</ele>
        <time>2017-12-15T10:09:11Z</time>
      </trkpt>
      <trkpt lat="45.97647" lon="4.7174">
        <ele>196</ele>
        <time>2017-12-15T10:09:12Z</time>
      </trkpt>
      <trkpt lat="45.97652" lon="4.71741">
        <ele>195</ele>
        <time>2017-12-15T10:09:13Z</time>
      </trkpt>
      <trkpt lat="45.97657" lon="4.71743">
        <ele>195</ele>
        <time>2017-12-15T10:09:14Z</time>
      </trkpt>
      <trkpt lat="45.97662" lon="4.71743">
        <ele>195</ele>
        <time>2017-12-15T10:09:15Z</time>
      </trkpt>
      <trkpt lat="45.97667" lon="4.71744">
        <ele>195</ele>
        <time>2017-12-15T10:09:16Z</time>
      </trkpt>
      <trkpt lat="45.97673" lon="4.71744">
        <ele>195</ele>
        <time>2017-12-15T10:09:17Z</time>
      </trkpt>
      <trkpt lat="45.97679" lon="4.71743">
        <ele>195</ele>
        <time>2017-12-15T10:09:18Z</time>
      </trkpt>
      <trkpt lat="45.97686" lon="4.71744">
        <ele>196</ele>
        <time>2017-12-15T10:09:19Z</time>
      </trkpt>
      <trkpt lat="45.97692" lon="4.71744">
        <ele>196</ele>
        <time>2017-12-15T10:09:20Z</time>
      </trkpt>
      <trkpt lat="45.97699" lon="4.71746">
        <ele>196</ele>
        <time>2017-12-15T10:09:21Z</time>
      </trkpt>
      <trkpt lat="45.97706" lon="4.71746">
        <ele>196</ele>
        <time>2017-12-15T10:09:22Z</time>
      </trkpt>
      <trkpt lat="45.97712" lon="4.71747">
        <ele>196</ele>
        <time>2017-12-15T10:09:23Z</time>
      </trkpt>
      <trkpt lat="45.97718" lon="4.71747">
        <ele>196</ele>
        <time>2017-12-15T10:09:24Z</time>
      </trkpt>
      <trkpt lat="45.97725" lon="4.71748">
        <ele>196</ele>
        <time>2017-12-15T10:09:25Z</time>
      </trkpt>
      <trkpt lat="45.9773" lon="4.71748">
        <ele>196</ele>
        <time>2017-12-15T10:09:26Z</time>
      </trkpt>
      <trkpt lat="45.97736" lon="4.71749">
        <ele>196</ele>
        <time>2017-12-15T10:09:27Z</time>
      </trkpt>
      <trkpt lat="45.97743" lon="4.7175">
        <ele>196</ele>
        <time>2017-12-15T10:09:28Z</time>
      </trkpt>
      <trkpt lat="45.97749" lon="4.7175">
        <ele>196</ele>
        <time>2017-12-15T10:09:29Z</time>
      </trkpt>
      <trkpt lat="45.97754" lon="4.7175">
        <ele>196</ele>
        <time>2017-12-15T10:09:30Z</time>
      </trkpt>
      <trkpt lat="45.9776" lon="4.7175">
        <ele>196</ele>
        <time>2017-12-15T10:09:31Z</time>
      </trkpt>
      <trkpt lat="45.97767" lon="4.7175">
        <ele>196</ele>
        <time>2017-12-15T10:09:32Z</time>
      </trkpt>
      <trkpt lat="45.97773" lon="4.7175">
        <ele>195</ele>
        <time>2017-12-15T10:09:33Z</time>
      </trkpt>
      <trkpt lat="45.97778" lon="4.71752">
        <ele>195</ele>
        <time>2017-12-15T10:09:34Z</time>
      </trkpt>
      <trkpt lat="45.97784" lon="4.71752">
        <ele>195</ele>
        <time>2017-12-15T10:09:35Z</time>
      </trkpt>
      <trkpt lat="45.9779" lon="4.71752">
        <ele>195</ele>
        <time>2017-12-15T10:09:36Z</time>
      </trkpt>
      <trkpt lat="45.97796" lon="4.71752">
        <ele>195</ele>
        <time>2017-12-15T10:09:37Z</time>
      </trkpt>
      <trkpt lat="45.97802" lon="4.71752">
        <ele>195</ele>
        <time>2017-12-15T10:09:38Z</time>
      </trkpt>
      <trkpt lat="45.97808" lon="4.71752">
        <ele>195</ele>
        <time>2017-12-15T10:09:39Z</time>
      </trkpt>
      <trkpt lat="45.97814" lon="4.71754">
        <ele>195</ele>
        <time>2017-12-15T10:09:40Z</time>
      </trkpt>
      <trkpt lat="45.9782" lon="4.71754">
        <ele>195</ele>
        <time>2017-12-15T10:09:41Z</time>
      </trkpt>
      <trkpt lat="45.97826" lon="4.71753">
        <ele>195</ele>
        <time>2017-12-15T10:09:42Z</time>
      </trkpt>
      <trkpt lat="45.97831" lon="4.71754">
        <ele>195</ele>
        <time>2017-12-15T10:09:43Z</time>
      </trkpt>
      <trkpt lat="45.97837" lon="4.71754">
        <ele>195</ele>
        <time>2017-12-15T10:09:44Z</time>
      </trkpt>
      <trkpt lat="45.97842" lon="4.71755">
        <ele>195</ele>
        <time>2017-12-15T10:09:45Z</time>
      </trkpt>
      <trkpt lat="45.97846" lon="4.71756">
        <ele>195</ele>
        <time>2017-12-15T10:09:46Z</time>
      </trkpt>
      <trkpt lat="45.97851" lon="4.7176">
        <ele>195</ele>
        <time>2017-12-15T10:09:47Z</time>
      </trkpt>
      <trkpt lat="45.97855" lon="4.71764">
        <ele>195</ele>
        <time>2017-12-15T10:09:48Z</time>
      </trkpt>
      <trkpt lat="45.97859" lon="4.71768">
        <ele>194</ele>
        <time>2017-12-15T10:09:49Z</time>
      </trkpt>
      <trkpt lat="45.97863" lon="4.71772">
        <ele>194</ele>
        <time>2017-12-15T10:09:50Z</time>
      </trkpt>
      <trkpt lat="45.97868" lon="4.71776">
        <ele>194</ele>
        <time>2017-12-15T10:09:51Z</time>
      </trkpt>
      <trkpt lat="45.97873" lon="4.71778">
        <ele>194</ele>
        <time>2017-12-15T10:09:52Z</time>
      </trkpt>
      <trkpt lat="45.97878" lon="4.71778">
        <ele>194</ele>
        <time>2017-12-15T10:09:53Z</time>
      </trkpt>
      <trkpt lat="45.97883" lon="4.71778">
        <ele>194</ele>
        <time>2017-12-15T10:09:54Z</time>
      </trkpt>
      <trkpt lat="45.97888" lon="4.71775">
        <ele>194</ele>
        <time>2017-12-15T10:09:55Z</time>
      </trkpt>
      <trkpt lat="45.97893" lon="4.7177">
        <ele>194</ele>
        <time>2017-12-15T10:09:56Z</time>
      </trkpt>
      <trkpt lat="45.97896" lon="4.71763">
        <ele>195</ele>
        <time>2017-12-15T10:09:57Z</time>
      </trkpt>
      <trkpt lat="45.97899" lon="4.71756">
        <ele>195</ele>
        <time>2017-12-15T10:09:58Z</time>
      </trkpt>
      <trkpt lat="45.97901" lon="4.71747">
        <ele>195</ele>
        <time>2017-12-15T10:09:59Z</time>
      </trkpt>
      <trkpt lat="45.97901" lon="4.71738">
        <ele>196</ele>
        <time>2017-12-15T10:10:00Z</time>
      </trkpt>
      <trkpt lat="45.97902" lon="4.71731">
        <ele>196</ele>
        <time>2017-12-15T10:10:01Z</time>
      </trkpt>
      <trkpt lat="45.97902" lon="4.71724">
        <ele>196</ele>
        <time>2017-12-15T10:10:02Z</time>
      </trkpt>
      <trkpt lat="45.97903" lon="4.71716">
        <ele>196</ele>
        <time>2017-12-15T10:10:03Z</time>
      </trkpt>
      <trkpt lat="45.97905" lon="4.71708">
        <ele>196</ele>
        <time>2017-12-15T10:10:04Z</time>
      </trkpt>
      <trkpt lat="45.97907" lon="4.71702">
        <ele>196</ele>
        <time>2017-12-15T10:10:05Z</time>
      </trkpt>
      <trkpt lat="45.9791" lon="4.71695">
        <ele>196</ele>
        <time>2017-12-15T10:10:06Z</time>
      </trkpt>
      <trkpt lat="45.97914" lon="4.71691">
        <ele>196</ele>
        <time>2017-12-15T10:10:07Z</time>
      </trkpt>
      <trkpt lat="45.97918" lon="4.71686">
        <ele>196</ele>
        <time>2017-12-15T10:10:08Z</time>
      </trkpt>
      <trkpt lat="45.97922" lon="4.71681">
        <ele>197</ele>
        <time>2017-12-15T10:10:09Z</time>
      </trkpt>
      <trkpt lat="45.97927" lon="4.71676">
        <ele>197</ele>
        <time>2017-12-15T10:10:10Z</time>
      </trkpt>
      <trkpt lat="45.9793" lon="4.71672">
        <ele>197</ele>
        <time>2017-12-15T10:10:11Z</time>
      </trkpt>
      <trkpt lat="45.97935" lon="4.71668">
        <ele>197</ele>
        <time>2017-12-15T10:10:12Z</time>
      </trkpt>
      <trkpt lat="45.9794" lon="4.71665">
        <ele>197</ele>
        <time>2017-12-15T10:10:13Z</time>
      </trkpt>
      <trkpt lat="45.97945" lon="4.71661">
        <ele>197</ele>
        <time>2017-12-15T10:10:14Z</time>
      </trkpt>
      <trkpt lat="45.9795" lon="4.71656">
        <ele>197</ele>
        <time>2017-12-15T10:10:15Z</time>
      </trkpt>
      <trkpt lat="45.97955" lon="4.71652">
        <ele>197</ele>
        <time>2017-12-15T10:10:16Z</time>
      </trkpt>
      <trkpt lat="45.97962" lon="4.71648">
        <ele>197</ele>
        <time>2017-12-15T10:10:17Z</time>
      </trkpt>
      <trkpt lat="45.97967" lon="4.71644">
        <ele>197</ele>
        <time>2017-12-15T10:10:18Z</time>
      </trkpt>
      <trkpt lat="45.97973" lon="4.7164">
        <ele>197</ele>
        <time>2017-12-15T10:10:19Z</time>
      </trkpt>
      <trkpt lat="45.97978" lon="4.71636">
        <ele>197</ele>
        <time>2017-12-15T10:10:20Z</time>
      </trkpt>
      <trkpt lat="45.97984" lon="4.71631">
        <ele>197</ele>
        <time>2017-12-15T10:10:21Z</time>
      </trkpt>
      <trkpt lat="45.97989" lon="4.71626">
        <ele>197</ele>
        <time>2017-12-15T10:10:22Z</time>
      </trkpt>
      <trkpt lat="45.97994" lon="4.71621">
        <ele>198</ele>
        <time>2017-12-15T10:10:23Z</time>
      </trkpt>
      <trkpt lat="45.97998" lon="4.71617">
        <ele>198</ele>
        <time>2017-12-15T10:10:24Z</time>
      </trkpt>
      <trkpt lat="45.98003" lon="4.71612">
        <ele>198</ele>
        <time>2017-12-15T10:10:25Z</time>
      </trkpt>
      <trkpt lat="45.98007" lon="4.71609">
        <ele>198</ele>
        <time>2017-12-15T10:10:26Z</time>
      </trkpt>
      <trkpt lat="45.98012" lon="4.71606">
        <ele>198</ele>
        <time>2017-12-15T10:10:27Z</time>
      </trkpt>
      <trkpt lat="45.98017" lon="4.71604">
        <ele>198</ele>
        <time>2017-12-15T10:10:28Z</time>
      </trkpt>
      <trkpt lat="45.98022" lon="4.716">
        <ele>198</ele>
        <time>2017-12-15T10:10:29Z</time>
      </trkpt>
      <trkpt lat="45.98026" lon="4.71597">
        <ele>198</ele>
        <time>2017-12-15T10:10:30Z</time>
      </trkpt>
      <trkpt lat="45.98031" lon="4.71594">
        <ele>198</ele>
        <time>2017-12-15T10:10:31Z</time>
      </trkpt>
      <trkpt lat="45.98037" lon="4.71588">
        <ele>198</ele>
        <time>2017-12-15T10:10:32Z</time>
      </trkpt>
      <trkpt lat="45.98042" lon="4.71584">
        <ele>198</ele>
        <time>2017-12-15T10:10:33Z</time>
      </trkpt>
      <trkpt lat="45.98048" lon="4.71577">
        <ele>198</ele>
        <time>2017-12-15T10:10:34Z</time>
      </trkpt>
      <trkpt lat="45.98053" lon="4.71572">
        <ele>198</ele>
        <time>2017-12-15T10:10:35Z</time>
      </trkpt>
      <trkpt lat="45.98059" lon="4.71567">
        <ele>198</ele>
        <time>2017-12-15T10:10:36Z</time>
      </trkpt>
      <trkpt lat="45.98064" lon="4.71561">
        <ele>198</ele>
        <time>2017-12-15T10:10:37Z</time>
      </trkpt>
      <trkpt lat="45.98069" lon="4.71558">
        <ele>198</ele>
        <time>2017-12-15T10:10:38Z</time>
      </trkpt>
      <trkpt lat="45.98074" lon="4.71554">
        <ele>198</ele>
        <time>2017-12-15T10:10:39Z</time>
      </trkpt>
      <trkpt lat="45.98079" lon="4.71551">
        <ele>198</ele>
        <time>2017-12-15T10:10:40Z</time>
      </trkpt>
      <trkpt lat="45.98085" lon="4.71547">
        <ele>198</ele>
        <time>2017-12-15T10:10:41Z</time>
      </trkpt>
      <trkpt lat="45.98089" lon="4.71545">
        <ele>198</ele>
        <time>2017-12-15T10:10:42Z</time>
      </trkpt>
      <trkpt lat="45.98097" lon="4.71541">
        <ele>197</ele>
        <time>2017-12-15T10:10:44Z</time>
      </trkpt>
      <trkpt lat="45.98101" lon="4.71539">
        <ele>197</ele>
        <time>2017-12-15T10:10:45Z</time>
      </trkpt>
      <trkpt lat="45.98107" lon="4.71538">
        <ele>197</ele>
        <time>2017-12-15T10:10:46Z</time>
      </trkpt>
      <trkpt lat="45.98111" lon="4.71536">
        <ele>197</ele>
        <time>2017-12-15T10:10:47Z</time>
      </trkpt>
      <trkpt lat="45.98116" lon="4.71533">
        <ele>197</ele>
        <time>2017-12-15T10:10:48Z</time>
      </trkpt>
      <trkpt lat="45.9812" lon="4.71531">
        <ele>197</ele>
        <time>2017-12-15T10:10:49Z</time>
      </trkpt>
      <trkpt lat="45.98125" lon="4.71528">
        <ele>197</ele>
        <time>2017-12-15T10:10:50Z</time>
      </trkpt>
      <trkpt lat="45.9813" lon="4.71525">
        <ele>197</ele>
        <time>2017-12-15T10:10:51Z</time>
      </trkpt>
      <trkpt lat="45.98134" lon="4.71522">
        <ele>197</ele>
        <time>2017-12-15T10:10:52Z</time>
      </trkpt>
      <trkpt lat="45.98138" lon="4.71519">
        <ele>197</ele>
        <time>2017-12-15T10:10:53Z</time>
      </trkpt>
      <trkpt lat="45.98143" lon="4.71516">
        <ele>197</ele>
        <time>2017-12-15T10:10:54Z</time>
      </trkpt>
      <trkpt lat="45.98147" lon="4.71513">
        <ele>197</ele>
        <time>2017-12-15T10:10:55Z</time>
      </trkpt>
      <trkpt lat="45.98151" lon="4.71511">
        <ele>197</ele>
        <time>2017-12-15T10:10:56Z</time>
      </trkpt>
      <trkpt lat="45.98156" lon="4.71508">
        <ele>197</ele>
        <time>2017-12-15T10:10:57Z</time>
      </trkpt>
      <trkpt lat="45.98162" lon="4.71505">
        <ele>197</ele>
        <time>2017-12-15T10:10:59Z</time>
      </trkpt>
      <trkpt lat="45.98168" lon="4.71504">
        <ele>197</ele>
        <time>2017-12-15T10:11:00Z</time>
      </trkpt>
      <trkpt lat="45.98175" lon="4.71499">
        <ele>197</ele>
        <time>2017-12-15T10:11:01Z</time>
      </trkpt>
      <trkpt lat="45.98183" lon="4.715">
        <ele>197</ele>
        <time>2017-12-15T10:11:02Z</time>
      </trkpt>
      <trkpt lat="45.98191" lon="4.71499">
        <ele>197</ele>
        <time>2017-12-15T10:11:03Z</time>
      </trkpt>
      <trkpt lat="45.98198" lon="4.715">
        <ele>197</ele>
        <time>2017-12-15T10:11:04Z</time>
      </trkpt>
      <trkpt lat="45.98204" lon="4.71501">
        <ele>197</ele>
        <time>2017-12-15T10:11:05Z</time>
      </trkpt>
      <trkpt lat="45.98211" lon="4.71503">
        <ele>196</ele>
        <time>2017-12-15T10:11:06Z</time>
      </trkpt>
      <trkpt lat="45.98217" lon="4.71505">
        <ele>196</ele>
        <time>2017-12-15T10:11:07Z</time>
      </trkpt>
      <trkpt lat="45.98222" lon="4.71508">
        <ele>196</ele>
        <time>2017-12-15T10:11:08Z</time>
      </trkpt>
      <trkpt lat="45.98228" lon="4.71512">
        <ele>196</ele>
        <time>2017-12-15T10:11:09Z</time>
      </trkpt>
      <trkpt lat="45.98233" lon="4.71515">
        <ele>196</ele>
        <time>2017-12-15T10:11:10Z</time>
      </trkpt>
      <trkpt lat="45.98238" lon="4.71518">
        <ele>196</ele>
        <time>2017-12-15T10:11:11Z</time>
      </trkpt>
      <trkpt lat="45.98244" lon="4.71522">
        <ele>196</ele>
        <time>2017-12-15T10:11:12Z</time>
      </trkpt>
      <trkpt lat="45.98249" lon="4.71525">
        <ele>196</ele>
        <time>2017-12-15T10:11:13Z</time>
      </trkpt>
      <trkpt lat="45.98254" lon="4.71527">
        <ele>197</ele>
        <time>2017-12-15T10:11:14Z</time>
      </trkpt>
      <trkpt lat="45.98259" lon="4.7153">
        <ele>197</ele>
        <time>2017-12-15T10:11:15Z</time>
      </trkpt>
      <trkpt lat="45.98265" lon="4.71534">
        <ele>197</ele>
        <time>2017-12-15T10:11:16Z</time>
      </trkpt>
      <trkpt lat="45.9827" lon="4.71537">
        <ele>197</ele>
        <time>2017-12-15T10:11:17Z</time>
      </trkpt>
      <trkpt lat="45.98277" lon="4.71542">
        <ele>198</ele>
        <time>2017-12-15T10:11:18Z</time>
      </trkpt>
      <trkpt lat="45.98283" lon="4.71544">
        <ele>198</ele>
        <time>2017-12-15T10:11:19Z</time>
      </trkpt>
      <trkpt lat="45.98288" lon="4.71548">
        <ele>198</ele>
        <time>2017-12-15T10:11:20Z</time>
      </trkpt>
      <trkpt lat="45.98294" lon="4.71551">
        <ele>198</ele>
        <time>2017-12-15T10:11:21Z</time>
      </trkpt>
      <trkpt lat="45.983" lon="4.71555">
        <ele>198</ele>
        <time>2017-12-15T10:11:22Z</time>
      </trkpt>
      <trkpt lat="45.98305" lon="4.71558">
        <ele>198</ele>
        <time>2017-12-15T10:11:23Z</time>
      </trkpt>
      <trkpt lat="45.9831" lon="4.71561">
        <ele>198</ele>
        <time>2017-12-15T10:11:24Z</time>
      </trkpt>
      <trkpt lat="45.98315" lon="4.71564">
        <ele>198</ele>
        <time>2017-12-15T10:11:25Z</time>
      </trkpt>
      <trkpt lat="45.9832" lon="4.71567">
        <ele>198</ele>
        <time>2017-12-15T10:11:26Z</time>
      </trkpt>
      <trkpt lat="45.98325" lon="4.7157">
        <ele>198</ele>
        <time>2017-12-15T10:11:27Z</time>
      </trkpt>
      <trkpt lat="45.98329" lon="4.71574">
        <ele>199</ele>
        <time>2017-12-15T10:11:28Z</time>
      </trkpt>
      <trkpt lat="45.98335" lon="4.71576">
        <ele>199</ele>
        <time>2017-12-15T10:11:29Z</time>
      </trkpt>
      <trkpt lat="45.9834" lon="4.71579">
        <ele>199</ele>
        <time>2017-12-15T10:11:30Z</time>
      </trkpt>
      <trkpt lat="45.98345" lon="4.71582">
        <ele>199</ele>
        <time>2017-12-15T10:11:31Z</time>
      </trkpt>
      <trkpt lat="45.98351" lon="4.71586">
        <ele>198</ele>
        <time>2017-12-15T10:11:32Z</time>
      </trkpt>
      <trkpt lat="45.98357" lon="4.71588">
        <ele>198</ele>
        <time>2017-12-15T10:11:33Z</time>
      </trkpt>
      <trkpt lat="45.98362" lon="4.71591">
        <ele>198</ele>
        <time>2017-12-15T10:11:34Z</time>
      </trkpt>
      <trkpt lat="45.98367" lon="4.71593">
        <ele>198</ele>
        <time>2017-12-15T10:11:35Z</time>
      </trkpt>
      <trkpt lat="45.98371" lon="4.71594">
        <ele>198</ele>
        <time>2017-12-15T10:11:36Z</time>
      </trkpt>
      <trkpt lat="45.98376" lon="4.71595">
        <ele>198</ele>
        <time>2017-12-15T10:11:37Z</time>
      </trkpt>
      <trkpt lat="45.98381" lon="4.71595">
        <ele>198</ele>
        <time>2017-12-15T10:11:38Z</time>
      </trkpt>
      <trkpt lat="45.98389" lon="4.71594">
        <ele>198</ele>
        <time>2017-12-15T10:11:55Z</time>
      </trkpt>
      <trkpt lat="45.98391" lon="4.71593">
        <ele>198</ele>
        <time>2017-12-15T10:11:56Z</time>
      </trkpt>
      <trkpt lat="45.98397" lon="4.71586">
        <ele>197</ele>
        <time>2017-12-15T10:12:00Z</time>
      </trkpt>
      <trkpt lat="45.984" lon="4.71584">
        <ele>197</ele>
        <time>2017-12-15T10:12:01Z</time>
      </trkpt>
      <trkpt lat="45.98405" lon="4.71576">
        <ele>198</ele>
        <time>2017-12-15T10:12:04Z</time>
      </trkpt>
      <trkpt lat="45.98408" lon="4.71572">
        <ele>198</ele>
        <time>2017-12-15T10:12:05Z</time>
      </trkpt>
      <trkpt lat="45.98414" lon="4.71565">
        <ele>198</ele>
        <time>2017-12-15T10:12:07Z</time>
      </trkpt>
      <trkpt lat="45.98417" lon="4.71561">
        <ele>197</ele>
        <time>2017-12-15T10:12:08Z</time>
      </trkpt>
      <trkpt lat="45.98421" lon="4.71556">
        <ele>197</ele>
        <time>2017-12-15T10:12:09Z</time>
      </trkpt>
      <trkpt lat="45.98426" lon="4.7155">
        <ele>197</ele>
        <time>2017-12-15T10:12:10Z</time>
      </trkpt>
      <trkpt lat="45.9843" lon="4.71545">
        <ele>197</ele>
        <time>2017-12-15T10:12:11Z</time>
      </trkpt>
      <trkpt lat="45.98435" lon="4.71541">
        <ele>197</ele>
        <time>2017-12-15T10:12:12Z</time>
      </trkpt>
      <trkpt lat="45.9844" lon="4.71537">
        <ele>197</ele>
        <time>2017-12-15T10:12:13Z</time>
      </trkpt>
      <trkpt lat="45.98446" lon="4.71535">
        <ele>197</ele>
        <time>2017-12-15T10:12:14Z</time>
      </trkpt>
      <trkpt lat="45.98454" lon="4.71532">
        <ele>197</ele>
        <time>2017-12-15T10:12:16Z</time>
      </trkpt>
      <trkpt lat="45.98459" lon="4.71531">
        <ele>197</ele>
        <time>2017-12-15T10:12:17Z</time>
      </trkpt>
      <trkpt lat="45.98467" lon="4.7153">
        <ele>197</ele>
        <time>2017-12-15T10:12:19Z</time>
      </trkpt>
      <trkpt lat="45.98469" lon="4.7153">
        <ele>197</ele>
        <time>2017-12-15T10:12:20Z</time>
      </trkpt>
      <trkpt lat="45.98476" lon="4.71529">
        <ele>196</ele>
        <time>2017-12-15T10:12:31Z</time>
      </trkpt>
      <trkpt lat="45.98479" lon="4.71528">
        <ele>196</ele>
        <time>2017-12-15T10:12:32Z</time>
      </trkpt>
      <trkpt lat="45.98486" lon="4.71526">
        <ele>196</ele>
        <time>2017-12-15T10:12:34Z</time>
      </trkpt>
      <trkpt lat="45.9849" lon="4.71525">
        <ele>196</ele>
        <time>2017-12-15T10:12:35Z</time>
      </trkpt>
      <trkpt lat="45.98497" lon="4.71522">
        <ele>196</ele>
        <time>2017-12-15T10:12:37Z</time>
      </trkpt>
      <trkpt lat="45.98502" lon="4.71521">
        <ele>195</ele>
        <time>2017-12-15T10:12:38Z</time>
      </trkpt>
      <trkpt lat="45.98506" lon="4.7152">
        <ele>195</ele>
        <time>2017-12-15T10:12:39Z</time>
      </trkpt>
      <trkpt lat="45.98513" lon="4.7152">
        <ele>195</ele>
        <time>2017-12-15T10:12:40Z</time>
      </trkpt>
      <trkpt lat="45.98518" lon="4.71517">
        <ele>194</ele>
        <time>2017-12-15T10:12:41Z</time>
      </trkpt>
      <trkpt lat="45.98524" lon="4.71517">
        <ele>194</ele>
        <time>2017-12-15T10:12:42Z</time>
      </trkpt>
      <trkpt lat="45.98529" lon="4.71516">
        <ele>194</ele>
        <time>2017-12-15T10:12:43Z</time>
      </trkpt>
      <trkpt lat="45.98534" lon="4.71516">
        <ele>194</ele>
        <time>2017-12-15T10:12:44Z</time>
      </trkpt>
      <trkpt lat="45.98541" lon="4.71515">
        <ele>194</ele>
        <time>2017-12-15T10:12:45Z</time>
      </trkpt>
      <trkpt lat="45.98548" lon="4.71513">
        <ele>194</ele>
        <time>2017-12-15T10:12:46Z</time>
      </trkpt>
      <trkpt lat="45.98555" lon="4.71511">
        <ele>194</ele>
        <time>2017-12-15T10:12:47Z</time>
      </trkpt>
      <trkpt lat="45.98562" lon="4.71508">
        <ele>193</ele>
        <time>2017-12-15T10:12:48Z</time>
      </trkpt>
      <trkpt lat="45.98569" lon="4.71505">
        <ele>193</ele>
        <time>2017-12-15T10:12:49Z</time>
      </trkpt>
      <trkpt lat="45.98575" lon="4.71503">
        <ele>193</ele>
        <time>2017-12-15T10:12:50Z</time>
      </trkpt>
      <trkpt lat="45.98582" lon="4.71502">
        <ele>192</ele>
        <time>2017-12-15T10:12:51Z</time>
      </trkpt>
      <trkpt lat="45.98589" lon="4.71501">
        <ele>192</ele>
        <time>2017-12-15T10:12:52Z</time>
      </trkpt>
      <trkpt lat="45.98597" lon="4.71499">
        <ele>191</ele>
        <time>2017-12-15T10:12:53Z</time>
      </trkpt>
      <trkpt lat="45.98605" lon="4.71497">
        <ele>191</ele>
        <time>2017-12-15T10:12:54Z</time>
      </trkpt>
      <trkpt lat="45.98612" lon="4.71496">
        <ele>191</ele>
        <time>2017-12-15T10:12:55Z</time>
      </trkpt>
      <trkpt lat="45.98619" lon="4.71496">
        <ele>190</ele>
        <time>2017-12-15T10:12:56Z</time>
      </trkpt>
      <trkpt lat="45.98627" lon="4.71494">
        <ele>190</ele>
        <time>2017-12-15T10:12:57Z</time>
      </trkpt>
      <trkpt lat="45.98634" lon="4.71492">
        <ele>190</ele>
        <time>2017-12-15T10:12:58Z</time>
      </trkpt>
      <trkpt lat="45.98641" lon="4.71491">
        <ele>190</ele>
        <time>2017-12-15T10:12:59Z</time>
      </trkpt>
      <trkpt lat="45.98647" lon="4.7149">
        <ele>190</ele>
        <time>2017-12-15T10:13:00Z</time>
      </trkpt>
      <trkpt lat="45.98652" lon="4.71488">
        <ele>190</ele>
        <time>2017-12-15T10:13:01Z</time>
      </trkpt>
      <trkpt lat="45.98656" lon="4.71487">
        <ele>190</ele>
        <time>2017-12-15T10:13:02Z</time>
      </trkpt>
      <trkpt lat="45.98664" lon="4.71486">
        <ele>190</ele>
        <time>2017-12-15T10:13:12Z</time>
      </trkpt>
      <trkpt lat="45.98665" lon="4.71485">
        <ele>190</ele>
        <time>2017-12-15T10:13:13Z</time>
      </trkpt>
      <trkpt lat="45.98671" lon="4.71487">
        <ele>188</ele>
        <time>2017-12-15T10:13:15Z</time>
      </trkpt>
      <trkpt lat="45.98674" lon="4.71488">
        <ele>188</ele>
        <time>2017-12-15T10:13:16Z</time>
      </trkpt>
      <trkpt lat="45.9868" lon="4.71489">
        <ele>188</ele>
        <time>2017-12-15T10:13:17Z</time>
      </trkpt>
      <trkpt lat="45.98687" lon="4.71492">
        <ele>187</ele>
        <time>2017-12-15T10:13:18Z</time>
      </trkpt>
      <trkpt lat="45.98694" lon="4.71494">
        <ele>187</ele>
        <time>2017-12-15T10:13:19Z</time>
      </trkpt>
      <trkpt lat="45.98698" lon="4.71497">
        <ele>187</ele>
        <time>2017-12-15T10:13:20Z</time>
      </trkpt>
      <trkpt lat="45.98703" lon="4.71495">
        <ele>187</ele>
        <time>2017-12-15T10:13:21Z</time>
      </trkpt>
      <trkpt lat="45.98708" lon="4.71495">
        <ele>187</ele>
        <time>2017-12-15T10:13:22Z</time>
      </trkpt>
      <trkpt lat="45.98715" lon="4.71497">
        <ele>186</ele>
        <time>2017-12-15T10:13:23Z</time>
      </trkpt>
      <trkpt lat="45.98721" lon="4.71497">
        <ele>186</ele>
        <time>2017-12-15T10:13:24Z</time>
      </trkpt>
      <trkpt lat="45.98727" lon="4.71497">
        <ele>186</ele>
        <time>2017-12-15T10:13:25Z</time>
      </trkpt>
      <trkpt lat="45.98734" lon="4.715">
        <ele>185</ele>
        <time>2017-12-15T10:13:26Z</time>
      </trkpt>
      <trkpt lat="45.98741" lon="4.71501">
        <ele>185</ele>
        <time>2017-12-15T10:13:27Z</time>
      </trkpt>
      <trkpt lat="45.98747" lon="4.71502">
        <ele>184</ele>
        <time>2017-12-15T10:13:28Z</time>
      </trkpt>
      <trkpt lat="45.98754" lon="4.71502">
        <ele>184</ele>
        <time>2017-12-15T10:13:29Z</time>
      </trkpt>
      <trkpt lat="45.98762" lon="4.715">
        <ele>184</ele>
        <time>2017-12-15T10:13:30Z</time>
      </trkpt>
      <trkpt lat="45.9877" lon="4.715">
        <ele>184</ele>
        <time>2017-12-15T10:13:31Z</time>
      </trkpt>
      <trkpt lat="45.98778" lon="4.715">
        <ele>184</ele>
        <time>2017-12-15T10:13:32Z</time>
      </trkpt>
      <trkpt lat="45.98785" lon="4.71501">
        <ele>184</ele>
        <time>2017-12-15T10:13:33Z</time>
      </trkpt>
      <trkpt lat="45.98793" lon="4.715">
        <ele>184</ele>
        <time>2017-12-15T10:13:34Z</time>
      </trkpt>
      <trkpt lat="45.988" lon="4.71499">
        <ele>184</ele>
        <time>2017-12-15T10:13:35Z</time>
      </trkpt>
      <trkpt lat="45.98806" lon="4.71499">
        <ele>184</ele>
        <time>2017-12-15T10:13:36Z</time>
      </trkpt>
      <trkpt lat="45.98814" lon="4.715">
        <ele>184</ele>
        <time>2017-12-15T10:13:37Z</time>
      </trkpt>
      <trkpt lat="45.98821" lon="4.715">
        <ele>184</ele>
        <time>2017-12-15T10:13:38Z</time>
      </trkpt>
      <trkpt lat="45.98827" lon="4.715">
        <ele>184</ele>
        <time>2017-12-15T10:13:39Z</time>
      </trkpt>
      <trkpt lat="45.98834" lon="4.715">
        <ele>184</ele>
        <time>2017-12-15T10:13:40Z</time>
      </trkpt>
      <trkpt lat="45.98841" lon="4.71501">
        <ele>184</ele>
        <time>2017-12-15T10:13:41Z</time>
      </trkpt>
      <trkpt lat="45.98847" lon="4.71502">
        <ele>184</ele>
        <time>2017-12-15T10:13:42Z</time>
      </trkpt>
      <trkpt lat="45.98853" lon="4.71502">
        <ele>185</ele>
        <time>2017-12-15T10:13:43Z</time>
      </trkpt>
      <trkpt lat="45.98859" lon="4.71501">
        <ele>185</ele>
        <time>2017-12-15T10:13:44Z</time>
      </trkpt>
      <trkpt lat="45.98865" lon="4.71501">
        <ele>185</ele>
        <time>2017-12-15T10:13:45Z</time>
      </trkpt>
      <trkpt lat="45.9887" lon="4.71502">
        <ele>185</ele>
        <time>2017-12-15T10:13:46Z</time>
      </trkpt>
      <trkpt lat="45.98875" lon="4.71503">
        <ele>185</ele>
        <time>2017-12-15T10:13:47Z</time>
      </trkpt>
      <trkpt lat="45.9888" lon="4.71503">
        <ele>185</ele>
        <time>2017-12-15T10:13:48Z</time>
      </trkpt>
      <trkpt lat="45.98885" lon="4.71503">
        <ele>185</ele>
        <time>2017-12-15T10:13:49Z</time>
      </trkpt>
      <trkpt lat="45.98891" lon="4.71506">
        <ele>185</ele>
        <time>2017-12-15T10:13:50Z</time>
      </trkpt>
      <trkpt lat="45.98896" lon="4.71507">
        <ele>185</ele>
        <time>2017-12-15T10:13:51Z</time>
      </trkpt>
      <trkpt lat="45.98902" lon="4.71507">
        <ele>185</ele>
        <time>2017-12-15T10:13:52Z</time>
      </trkpt>
      <trkpt lat="45.98907" lon="4.71506">
        <ele>185</ele>
        <time>2017-12-15T10:13:53Z</time>
      </trkpt>
      <trkpt lat="45.98912" lon="4.71504">
        <ele>185</ele>
        <time>2017-12-15T10:13:54Z</time>
      </trkpt>
      <trkpt lat="45.98919" lon="4.71505">
        <ele>185</ele>
        <time>2017-12-15T10:13:55Z</time>
      </trkpt>
      <trkpt lat="45.98925" lon="4.71506">
        <ele>185</ele>
        <time>2017-12-15T10:13:56Z</time>
      </trkpt>
      <trkpt lat="45.98933" lon="4.71505">
        <ele>186</ele>
        <time>2017-12-15T10:13:57Z</time>
      </trkpt>
      <trkpt lat="45.98942" lon="4.71506">
        <ele>186</ele>
        <time>2017-12-15T10:13:58Z</time>
      </trkpt>
      <trkpt lat="45.98948" lon="4.71508">
        <ele>186</ele>
        <time>2017-12-15T10:13:59Z</time>
      </trkpt>
      <trkpt lat="45.98956" lon="4.71508">
        <ele>186</ele>
        <time>2017-12-15T10:14:00Z</time>
      </trkpt>
      <trkpt lat="45.98962" lon="4.71509">
        <ele>186</ele>
        <time>2017-12-15T10:14:01Z</time>
      </trkpt>
      <trkpt lat="45.98968" lon="4.7151">
        <ele>186</ele>
        <time>2017-12-15T10:14:02Z</time>
      </trkpt>
      <trkpt lat="45.98977" lon="4.71509">
        <ele>186</ele>
        <time>2017-12-15T10:14:04Z</time>
      </trkpt>
      <trkpt lat="45.98981" lon="4.71509">
        <ele>186</ele>
        <time>2017-12-15T10:14:05Z</time>
      </trkpt>
      <trkpt lat="45.98989" lon="4.7151">
        <ele>187</ele>
        <time>2017-12-15T10:14:07Z</time>
      </trkpt>
      <trkpt lat="45.98992" lon="4.71511">
        <ele>187</ele>
        <time>2017-12-15T10:14:08Z</time>
      </trkpt>
      <trkpt lat="45.99001" lon="4.71511">
        <ele>187</ele>
        <time>2017-12-15T10:14:09Z</time>
      </trkpt>
      <trkpt lat="45.99006" lon="4.7151">
        <ele>188</ele>
        <time>2017-12-15T10:14:10Z</time>
      </trkpt>
      <trkpt lat="45.99011" lon="4.7151">
        <ele>188</ele>
        <time>2017-12-15T10:14:11Z</time>
      </trkpt>
      <trkpt lat="45.99016" lon="4.7151">
        <ele>188</ele>
        <time>2017-12-15T10:14:12Z</time>
      </trkpt>
      <trkpt lat="45.99021" lon="4.7151">
        <ele>188</ele>
        <time>2017-12-15T10:14:13Z</time>
      </trkpt>
      <trkpt lat="45.99025" lon="4.71509">
        <ele>188</ele>
        <time>2017-12-15T10:14:14Z</time>
      </trkpt>
      <trkpt lat="45.99032" lon="4.7151">
        <ele>188</ele>
        <time>2017-12-15T10:14:15Z</time>
      </trkpt>
      <trkpt lat="45.99039" lon="4.71511">
        <ele>188</ele>
        <time>2017-12-15T10:14:17Z</time>
      </trkpt>
      <trkpt lat="45.99043" lon="4.71512">
        <ele>189</ele>
        <time>2017-12-15T10:14:18Z</time>
      </trkpt>
      <trkpt lat="45.9905" lon="4.71511">
        <ele>189</ele>
        <time>2017-12-15T10:14:20Z</time>
      </trkpt>
      <trkpt lat="45.99052" lon="4.7151">
        <ele>189</ele>
        <time>2017-12-15T10:14:21Z</time>
      </trkpt>
      <trkpt lat="45.99061" lon="4.71508">
        <ele>189</ele>
        <time>2017-12-15T10:14:25Z</time>
      </trkpt>
      <trkpt lat="45.99062" lon="4.71509">
        <ele>189</ele>
        <time>2017-12-15T10:14:26Z</time>
      </trkpt>
      <trkpt lat="45.9907" lon="4.71506">
        <ele>189</ele>
        <time>2017-12-15T10:14:29Z</time>
      </trkpt>
      <trkpt lat="45.99073" lon="4.71505">
        <ele>189</ele>
        <time>2017-12-15T10:14:30Z</time>
      </trkpt>
      <trkpt lat="45.9908" lon="4.71504">
        <ele>190</ele>
        <time>2017-12-15T10:14:33Z</time>
      </trkpt>
      <trkpt lat="45.99083" lon="4.71504">
        <ele>190</ele>
        <time>2017-12-15T10:14:34Z</time>
      </trkpt>
      <trkpt lat="45.99091" lon="4.71504">
        <ele>191</ele>
        <time>2017-12-15T10:14:37Z</time>
      </trkpt>
      <trkpt lat="45.99095" lon="4.71504">
        <ele>191</ele>
        <time>2017-12-15T10:14:38Z</time>
      </trkpt>
      <trkpt lat="45.99101" lon="4.71504">
        <ele>191</ele>
        <time>2017-12-15T10:14:40Z</time>
      </trkpt>
      <trkpt lat="45.99104" lon="4.71503">
        <ele>191</ele>
        <time>2017-12-15T10:14:41Z</time>
      </trkpt>
      <trkpt lat="45.99111" lon="4.71503">
        <ele>191</ele>
        <time>2017-12-15T10:14:43Z</time>
      </trkpt>
      <trkpt lat="45.99113" lon="4.71502">
        <ele>191</ele>
        <time>2017-12-15T10:14:44Z</time>
      </trkpt>
      <trkpt lat="45.99122" lon="4.71501">
        <ele>192</ele>
        <time>2017-12-15T10:14:49Z</time>
      </trkpt>
      <trkpt lat="45.99123" lon="4.71502">
        <ele>192</ele>
        <time>2017-12-15T10:14:50Z</time>
      </trkpt>
      <trkpt lat="45.9913" lon="4.71502">
        <ele>192</ele>
        <time>2017-12-15T10:15:10Z</time>
      </trkpt>
      <trkpt lat="45.99133" lon="4.71502">
        <ele>192</ele>
        <time>2017-12-15T10:15:11Z</time>
      </trkpt>
      <trkpt lat="45.99141" lon="4.71502">
        <ele>192</ele>
        <time>2017-12-15T10:15:14Z</time>
      </trkpt>
      <trkpt lat="45.99143" lon="4.71502">
        <ele>192</ele>
        <time>2017-12-15T10:15:15Z</time>
      </trkpt>
      <trkpt lat="45.99149" lon="4.71502">
        <ele>192</ele>
        <time>2017-12-15T10:15:17Z</time>
      </trkpt>
      <trkpt lat="45.99153" lon="4.71503">
        <ele>192</ele>
        <time>2017-12-15T10:15:18Z</time>
      </trkpt>
      <trkpt lat="45.99161" lon="4.71504">
        <ele>193</ele>
        <time>2017-12-15T10:15:20Z</time>
      </trkpt>
      <trkpt lat="45.99166" lon="4.71504">
        <ele>193</ele>
        <time>2017-12-15T10:15:21Z</time>
      </trkpt>
      <trkpt lat="45.9917" lon="4.71505">
        <ele>193</ele>
        <time>2017-12-15T10:15:22Z</time>
      </trkpt>
      <trkpt lat="45.99175" lon="4.71505">
        <ele>194</ele>
        <time>2017-12-15T10:15:23Z</time>
      </trkpt>
      <trkpt lat="45.9918" lon="4.71506">
        <ele>194</ele>
        <time>2017-12-15T10:15:24Z</time>
      </trkpt>
      <trkpt lat="45.99184" lon="4.71505">
        <ele>194</ele>
        <time>2017-12-15T10:15:25Z</time>
      </trkpt>
      <trkpt lat="45.99189" lon="4.71505">
        <ele>194</ele>
        <time>2017-12-15T10:15:26Z</time>
      </trkpt>
      <trkpt lat="45.99195" lon="4.71505">
        <ele>195</ele>
        <time>2017-12-15T10:15:27Z</time>
      </trkpt>
      <trkpt lat="45.992" lon="4.71505">
        <ele>195</ele>
        <time>2017-12-15T10:15:28Z</time>
      </trkpt>
      <trkpt lat="45.99205" lon="4.71504">
        <ele>195</ele>
        <time>2017-12-15T10:15:29Z</time>
      </trkpt>
      <trkpt lat="45.99211" lon="4.71504">
        <ele>195</ele>
        <time>2017-12-15T10:15:30Z</time>
      </trkpt>
      <trkpt lat="45.99216" lon="4.71505">
        <ele>195</ele>
        <time>2017-12-15T10:15:31Z</time>
      </trkpt>
      <trkpt lat="45.99222" lon="4.71504">
        <ele>195</ele>
        <time>2017-12-15T10:15:32Z</time>
      </trkpt>
      <trkpt lat="45.99227" lon="4.71504">
        <ele>195</ele>
        <time>2017-12-15T10:15:33Z</time>
      </trkpt>
      <trkpt lat="45.99232" lon="4.71505">
        <ele>196</ele>
        <time>2017-12-15T10:15:34Z</time>
      </trkpt>
      <trkpt lat="45.99237" lon="4.71506">
        <ele>196</ele>
        <time>2017-12-15T10:15:35Z</time>
      </trkpt>
      <trkpt lat="45.99246" lon="4.71505">
        <ele>196</ele>
        <time>2017-12-15T10:15:37Z</time>
      </trkpt>
      <trkpt lat="45.99251" lon="4.71505">
        <ele>197</ele>
        <time>2017-12-15T10:15:38Z</time>
      </trkpt>
      <trkpt lat="45.99258" lon="4.71509">
        <ele>197</ele>
        <time>2017-12-15T10:15:39Z</time>
      </trkpt>
      <trkpt lat="45.99264" lon="4.71509">
        <ele>198</ele>
        <time>2017-12-15T10:15:40Z</time>
      </trkpt>
      <trkpt lat="45.99269" lon="4.7151">
        <ele>198</ele>
        <time>2017-12-15T10:15:41Z</time>
      </trkpt>
      <trkpt lat="45.99274" lon="4.71511">
        <ele>198</ele>
        <time>2017-12-15T10:15:42Z</time>
      </trkpt>
      <trkpt lat="45.99279" lon="4.71511">
        <ele>198</ele>
        <time>2017-12-15T10:15:43Z</time>
      </trkpt>
      <trkpt lat="45.99284" lon="4.7151">
        <ele>199</ele>
        <time>2017-12-15T10:15:44Z</time>
      </trkpt>
      <trkpt lat="45.99291" lon="4.71508">
        <ele>199</ele>
        <time>2017-12-15T10:15:46Z</time>
      </trkpt>
      <trkpt lat="45.99298" lon="4.71507">
        <ele>199</ele>
        <time>2017-12-15T10:15:47Z</time>
      </trkpt>
      <trkpt lat="45.99302" lon="4.71505">
        <ele>199</ele>
        <time>2017-12-15T10:15:48Z</time>
      </trkpt>
      <trkpt lat="45.99308" lon="4.71504">
        <ele>199</ele>
        <time>2017-12-15T10:15:49Z</time>
      </trkpt>
      <trkpt lat="45.99313" lon="4.71504">
        <ele>199</ele>
        <time>2017-12-15T10:15:50Z</time>
      </trkpt>
      <trkpt lat="45.99318" lon="4.71505">
        <ele>200</ele>
        <time>2017-12-15T10:15:51Z</time>
      </trkpt>
      <trkpt lat="45.99322" lon="4.71504">
        <ele>200</ele>
        <time>2017-12-15T10:15:52Z</time>
      </trkpt>
      <trkpt lat="45.99327" lon="4.71503">
        <ele>200</ele>
        <time>2017-12-15T10:15:53Z</time>
      </trkpt>
      <trkpt lat="45.99335" lon="4.71503">
        <ele>200</ele>
        <time>2017-12-15T10:15:55Z</time>
      </trkpt>
      <trkpt lat="45.99339" lon="4.71503">
        <ele>200</ele>
        <time>2017-12-15T10:15:56Z</time>
      </trkpt>
      <trkpt lat="45.99344" lon="4.71502">
        <ele>200</ele>
        <time>2017-12-15T10:15:57Z</time>
      </trkpt>
      <trkpt lat="45.99349" lon="4.71502">
        <ele>200</ele>
        <time>2017-12-15T10:15:58Z</time>
      </trkpt>
      <trkpt lat="45.99354" lon="4.71501">
        <ele>200</ele>
        <time>2017-12-15T10:15:59Z</time>
      </trkpt>
      <trkpt lat="45.99359" lon="4.71499">
        <ele>199</ele>
        <time>2017-12-15T10:16:00Z</time>
      </trkpt>
      <trkpt lat="45.99364" lon="4.71499">
        <ele>199</ele>
        <time>2017-12-15T10:16:01Z</time>
      </trkpt>
      <trkpt lat="45.99369" lon="4.71498">
        <ele>199</ele>
        <time>2017-12-15T10:16:02Z</time>
      </trkpt>
      <trkpt lat="45.99374" lon="4.71497">
        <ele>199</ele>
        <time>2017-12-15T10:16:03Z</time>
      </trkpt>
      <trkpt lat="45.99379" lon="4.71496">
        <ele>199</ele>
        <time>2017-12-15T10:16:04Z</time>
      </trkpt>
      <trkpt lat="45.99386" lon="4.71496">
        <ele>199</ele>
        <time>2017-12-15T10:16:06Z</time>
      </trkpt>
      <trkpt lat="45.9939" lon="4.71497">
        <ele>199</ele>
        <time>2017-12-15T10:16:07Z</time>
      </trkpt>
      <trkpt lat="45.99399" lon="4.71497">
        <ele>199</ele>
        <time>2017-12-15T10:16:09Z</time>
      </trkpt>
      <trkpt lat="45.99404" lon="4.71497">
        <ele>199</ele>
        <time>2017-12-15T10:16:10Z</time>
      </trkpt>
      <trkpt lat="45.99409" lon="4.71497">
        <ele>199</ele>
        <time>2017-12-15T10:16:11Z</time>
      </trkpt>
      <trkpt lat="45.99414" lon="4.71497">
        <ele>199</ele>
        <time>2017-12-15T10:16:12Z</time>
      </trkpt>
      <trkpt lat="45.99423" lon="4.71498">
        <ele>199</ele>
        <time>2017-12-15T10:16:14Z</time>
      </trkpt>
      <trkpt lat="45.99428" lon="4.71498">
        <ele>199</ele>
        <time>2017-12-15T10:16:15Z</time>
      </trkpt>
      <trkpt lat="45.99435" lon="4.715">
        <ele>199</ele>
        <time>2017-12-15T10:16:17Z</time>
      </trkpt>
      <trkpt lat="45.9944" lon="4.71501">
        <ele>199</ele>
        <time>2017-12-15T10:16:18Z</time>
      </trkpt>
      <trkpt lat="45.99446" lon="4.71502">
        <ele>199</ele>
        <time>2017-12-15T10:16:19Z</time>
      </trkpt>
      <trkpt lat="45.9945" lon="4.71503">
        <ele>199</ele>
        <time>2017-12-15T10:16:20Z</time>
      </trkpt>
      <trkpt lat="45.99456" lon="4.71503">
        <ele>199</ele>
        <time>2017-12-15T10:16:21Z</time>
      </trkpt>
      <trkpt lat="45.99461" lon="4.71504">
        <ele>199</ele>
        <time>2017-12-15T10:16:22Z</time>
      </trkpt>
      <trkpt lat="45.99466" lon="4.71504">
        <ele>199</ele>
        <time>2017-12-15T10:16:23Z</time>
      </trkpt>
      <trkpt lat="45.9947" lon="4.71505">
        <ele>199</ele>
        <time>2017-12-15T10:16:24Z</time>
      </trkpt>
      <trkpt lat="45.99475" lon="4.71505">
        <ele>199</ele>
        <time>2017-12-15T10:16:25Z</time>
      </trkpt>
      <trkpt lat="45.9948" lon="4.71506">
        <ele>199</ele>
        <time>2017-12-15T10:16:26Z</time>
      </trkpt>
      <trkpt lat="45.99485" lon="4.71506">
        <ele>199</ele>
        <time>2017-12-15T10:16:27Z</time>
      </trkpt>
      <trkpt lat="45.99491" lon="4.71504">
        <ele>199</ele>
        <time>2017-12-15T10:16:28Z</time>
      </trkpt>
      <trkpt lat="45.99498" lon="4.71504">
        <ele>199</ele>
        <time>2017-12-15T10:16:30Z</time>
      </trkpt>
      <trkpt lat="45.99503" lon="4.71505">
        <ele>199</ele>
        <time>2017-12-15T10:16:31Z</time>
      </trkpt>
      <trkpt lat="45.99511" lon="4.71504">
        <ele>199</ele>
        <time>2017-12-15T10:16:33Z</time>
      </trkpt>
      <trkpt lat="45.99515" lon="4.71504">
        <ele>199</ele>
        <time>2017-12-15T10:16:34Z</time>
      </trkpt>
      <trkpt lat="45.99524" lon="4.71505">
        <ele>198</ele>
        <time>2017-12-15T10:16:36Z</time>
      </trkpt>
      <trkpt lat="45.99529" lon="4.71504">
        <ele>198</ele>
        <time>2017-12-15T10:16:37Z</time>
      </trkpt>
      <trkpt lat="45.99537" lon="4.71504">
        <ele>198</ele>
        <time>2017-12-15T10:16:39Z</time>
      </trkpt>
      <trkpt lat="45.99542" lon="4.71506">
        <ele>198</ele>
        <time>2017-12-15T10:16:40Z</time>
      </trkpt>
      <trkpt lat="45.99548" lon="4.71506">
        <ele>198</ele>
        <time>2017-12-15T10:16:41Z</time>
      </trkpt>
      <trkpt lat="45.99553" lon="4.71506">
        <ele>198</ele>
        <time>2017-12-15T10:16:42Z</time>
      </trkpt>
      <trkpt lat="45.9956" lon="4.71505">
        <ele>197</ele>
        <time>2017-12-15T10:16:43Z</time>
      </trkpt>
      <trkpt lat="45.99566" lon="4.71505">
        <ele>197</ele>
        <time>2017-12-15T10:16:44Z</time>
      </trkpt>
      <trkpt lat="45.99571" lon="4.71505">
        <ele>197</ele>
        <time>2017-12-15T10:16:45Z</time>
      </trkpt>
      <trkpt lat="45.99576" lon="4.71505">
        <ele>197</ele>
        <time>2017-12-15T10:16:46Z</time>
      </trkpt>
      <trkpt lat="45.99583" lon="4.71511">
        <ele>197</ele>
        <time>2017-12-15T10:16:49Z</time>
      </trkpt>
      <trkpt lat="45.99583" lon="4.71514">
        <ele>197</ele>
        <time>2017-12-15T10:16:50Z</time>
      </trkpt>
      <trkpt lat="45.99587" lon="4.71526">
        <ele>197</ele>
        <time>2017-12-15T10:16:53Z</time>
      </trkpt>
      <trkpt lat="45.99589" lon="4.71529">
        <ele>197</ele>
        <time>2017-12-15T10:16:54Z</time>
      </trkpt>
      <trkpt lat="45.99597" lon="4.71532">
        <ele>197</ele>
        <time>2017-12-15T10:16:56Z</time>
      </trkpt>
      <trkpt lat="45.99601" lon="4.7153">
        <ele>197</ele>
        <time>2017-12-15T10:16:57Z</time>
      </trkpt>
      <trkpt lat="45.99606" lon="4.71527">
        <ele>197</ele>
        <time>2017-12-15T10:16:58Z</time>
      </trkpt>
      <trkpt lat="45.9961" lon="4.71524">
        <ele>197</ele>
        <time>2017-12-15T10:16:59Z</time>
      </trkpt>
      <trkpt lat="45.99612" lon="4.71519">
        <ele>197</ele>
        <time>2017-12-15T10:17:00Z</time>
      </trkpt>
      <trkpt lat="45.99613" lon="4.71511">
        <ele>197</ele>
        <time>2017-12-15T10:17:01Z</time>
      </trkpt>
      <trkpt lat="45.99613" lon="4.71503">
        <ele>197</ele>
        <time>2017-12-15T10:17:02Z</time>
      </trkpt>
      <trkpt lat="45.99612" lon="4.71496">
        <ele>197</ele>
        <time>2017-12-15T10:17:03Z</time>
      </trkpt>
      <trkpt lat="45.99611" lon="4.7149">
        <ele>197</ele>
        <time>2017-12-15T10:17:04Z</time>
      </trkpt>
      <trkpt lat="45.99611" lon="4.71483">
        <ele>197</ele>
        <time>2017-12-15T10:17:05Z</time>
      </trkpt>
      <trkpt lat="45.99612" lon="4.71476">
        <ele>197</ele>
        <time>2017-12-15T10:17:06Z</time>
      </trkpt>
      <trkpt lat="45.99614" lon="4.71468">
        <ele>197</ele>
        <time>2017-12-15T10:17:07Z</time>
      </trkpt>
      <trkpt lat="45.99619" lon="4.71458">
        <ele>197</ele>
        <time>2017-12-15T10:17:09Z</time>
      </trkpt>
      <trkpt lat="45.99622" lon="4.71452">
        <ele>197</ele>
        <time>2017-12-15T10:17:10Z</time>
      </trkpt>
      <trkpt lat="45.99625" lon="4.71446">
        <ele>197</ele>
        <time>2017-12-15T10:17:11Z</time>
      </trkpt>
      <trkpt lat="45.99628" lon="4.71443">
        <ele>197</ele>
        <time>2017-12-15T10:17:12Z</time>
      </trkpt>
      <trkpt lat="45.99631" lon="4.71438">
        <ele>197</ele>
        <time>2017-12-15T10:17:13Z</time>
      </trkpt>
      <trkpt lat="45.99633" lon="4.71431">
        <ele>197</ele>
        <time>2017-12-15T10:17:14Z</time>
      </trkpt>
      <trkpt lat="45.99638" lon="4.71422">
        <ele>197</ele>
        <time>2017-12-15T10:17:15Z</time>
      </trkpt>
      <trkpt lat="45.99641" lon="4.71415">
        <ele>198</ele>
        <time>2017-12-15T10:17:16Z</time>
      </trkpt>
      <trkpt lat="45.99645" lon="4.71409">
        <ele>198</ele>
        <time>2017-12-15T10:17:17Z</time>
      </trkpt>
      <trkpt lat="45.99648" lon="4.71403">
        <ele>198</ele>
        <time>2017-12-15T10:17:18Z</time>
      </trkpt>
      <trkpt lat="45.99651" lon="4.71398">
        <ele>198</ele>
        <time>2017-12-15T10:17:19Z</time>
      </trkpt>
      <trkpt lat="45.99654" lon="4.71392">
        <ele>198</ele>
        <time>2017-12-15T10:17:20Z</time>
      </trkpt>
      <trkpt lat="45.99657" lon="4.71385">
        <ele>198</ele>
        <time>2017-12-15T10:17:21Z</time>
      </trkpt>
      <trkpt lat="45.9966" lon="4.71379">
        <ele>198</ele>
        <time>2017-12-15T10:17:22Z</time>
      </trkpt>
      <trkpt lat="45.99663" lon="4.71373">
        <ele>197</ele>
        <time>2017-12-15T10:17:23Z</time>
      </trkpt>
      <trkpt lat="45.99667" lon="4.71366">
        <ele>197</ele>
        <time>2017-12-15T10:17:24Z</time>
      </trkpt>
      <trkpt lat="45.9967" lon="4.7136">
        <ele>197</ele>
        <time>2017-12-15T10:17:25Z</time>
      </trkpt>
      <trkpt lat="45.99674" lon="4.71353">
        <ele>197</ele>
        <time>2017-12-15T10:17:26Z</time>
      </trkpt>
      <trkpt lat="45.99677" lon="4.71347">
        <ele>197</ele>
        <time>2017-12-15T10:17:27Z</time>
      </trkpt>
      <trkpt lat="45.9968" lon="4.7134">
        <ele>197</ele>
        <time>2017-12-15T10:17:28Z</time>
      </trkpt>
      <trkpt lat="45.99684" lon="4.71334">
        <ele>197</ele>
        <time>2017-12-15T10:17:29Z</time>
      </trkpt>
      <trkpt lat="45.99689" lon="4.71329">
        <ele>197</ele>
        <time>2017-12-15T10:17:30Z</time>
      </trkpt>
      <trkpt lat="45.99692" lon="4.71323">
        <ele>198</ele>
        <time>2017-12-15T10:17:31Z</time>
      </trkpt>
      <trkpt lat="45.99696" lon="4.71317">
        <ele>198</ele>
        <time>2017-12-15T10:17:32Z</time>
      </trkpt>
      <trkpt lat="45.997" lon="4.71311">
        <ele>198</ele>
        <time>2017-12-15T10:17:33Z</time>
      </trkpt>
      <trkpt lat="45.99703" lon="4.71305">
        <ele>198</ele>
        <time>2017-12-15T10:17:34Z</time>
      </trkpt>
      <trkpt lat="45.99705" lon="4.71299">
        <ele>198</ele>
        <time>2017-12-15T10:17:35Z</time>
      </trkpt>
      <trkpt lat="45.99708" lon="4.71293">
        <ele>198</ele>
        <time>2017-12-15T10:17:36Z</time>
      </trkpt>
      <trkpt lat="45.99712" lon="4.71287">
        <ele>198</ele>
        <time>2017-12-15T10:17:37Z</time>
      </trkpt>
      <trkpt lat="45.99715" lon="4.71278">
        <ele>198</ele>
        <time>2017-12-15T10:17:38Z</time>
      </trkpt>
      <trkpt lat="45.99718" lon="4.71271">
        <ele>198</ele>
        <time>2017-12-15T10:17:39Z</time>
      </trkpt>
      <trkpt lat="45.99722" lon="4.71266">
        <ele>198</ele>
        <time>2017-12-15T10:17:40Z</time>
      </trkpt>
      <trkpt lat="45.99725" lon="4.7126">
        <ele>198</ele>
        <time>2017-12-15T10:17:41Z</time>
      </trkpt>
      <trkpt lat="45.99728" lon="4.71254">
        <ele>198</ele>
        <time>2017-12-15T10:17:42Z</time>
      </trkpt>
      <trkpt lat="45.99731" lon="4.71248">
        <ele>198</ele>
        <time>2017-12-15T10:17:43Z</time>
      </trkpt>
      <trkpt lat="45.99736" lon="4.71241">
        <ele>198</ele>
        <time>2017-12-15T10:17:44Z</time>
      </trkpt>
      <trkpt lat="45.9974" lon="4.71234">
        <ele>198</ele>
        <time>2017-12-15T10:17:45Z</time>
      </trkpt>
      <trkpt lat="45.99744" lon="4.71226">
        <ele>198</ele>
        <time>2017-12-15T10:17:46Z</time>
      </trkpt>
      <trkpt lat="45.99748" lon="4.71217">
        <ele>198</ele>
        <time>2017-12-15T10:17:47Z</time>
      </trkpt>
      <trkpt lat="45.99751" lon="4.7121">
        <ele>199</ele>
        <time>2017-12-15T10:17:48Z</time>
      </trkpt>
      <trkpt lat="45.99755" lon="4.71203">
        <ele>198</ele>
        <time>2017-12-15T10:17:49Z</time>
      </trkpt>
      <trkpt lat="45.99758" lon="4.71198">
        <ele>198</ele>
        <time>2017-12-15T10:17:50Z</time>
      </trkpt>
      <trkpt lat="45.99762" lon="4.7119">
        <ele>198</ele>
        <time>2017-12-15T10:17:51Z</time>
      </trkpt>
      <trkpt lat="45.99766" lon="4.71182">
        <ele>198</ele>
        <time>2017-12-15T10:17:52Z</time>
      </trkpt>
      <trkpt lat="45.99769" lon="4.71174">
        <ele>198</ele>
        <time>2017-12-15T10:17:53Z</time>
      </trkpt>
      <trkpt lat="45.99773" lon="4.71167">
        <ele>198</ele>
        <time>2017-12-15T10:17:54Z</time>
      </trkpt>
      <trkpt lat="45.99778" lon="4.71158">
        <ele>198</ele>
        <time>2017-12-15T10:17:55Z</time>
      </trkpt>
      <trkpt lat="45.99782" lon="4.71151">
        <ele>198</ele>
        <time>2017-12-15T10:17:56Z</time>
      </trkpt>
      <trkpt lat="45.99785" lon="4.71144">
        <ele>198</ele>
        <time>2017-12-15T10:17:57Z</time>
      </trkpt>
      <trkpt lat="45.99788" lon="4.71138">
        <ele>198</ele>
        <time>2017-12-15T10:17:58Z</time>
      </trkpt>
      <trkpt lat="45.99791" lon="4.71132">
        <ele>198</ele>
        <time>2017-12-15T10:17:59Z</time>
      </trkpt>
      <trkpt lat="45.99793" lon="4.71127">
        <ele>198</ele>
        <time>2017-12-15T10:18:00Z</time>
      </trkpt>
      <trkpt lat="45.99796" lon="4.71121">
        <ele>198</ele>
        <time>2017-12-15T10:18:01Z</time>
      </trkpt>
      <trkpt lat="45.99799" lon="4.71115">
        <ele>198</ele>
        <time>2017-12-15T10:18:02Z</time>
      </trkpt>
      <trkpt lat="45.99801" lon="4.71108">
        <ele>198</ele>
        <time>2017-12-15T10:18:03Z</time>
      </trkpt>
      <trkpt lat="45.99803" lon="4.71101">
        <ele>198</ele>
        <time>2017-12-15T10:18:04Z</time>
      </trkpt>
      <trkpt lat="45.99804" lon="4.71094">
        <ele>198</ele>
        <time>2017-12-15T10:18:05Z</time>
      </trkpt>
      <trkpt lat="45.99804" lon="4.71086">
        <ele>198</ele>
        <time>2017-12-15T10:18:06Z</time>
      </trkpt>
      <trkpt lat="45.99805" lon="4.71079">
        <ele>199</ele>
        <time>2017-12-15T10:18:07Z</time>
      </trkpt>
      <trkpt lat="45.99807" lon="4.71074">
        <ele>199</ele>
        <time>2017-12-15T10:18:08Z</time>
      </trkpt>
      <trkpt lat="45.99809" lon="4.71061">
        <ele>199</ele>
        <time>2017-12-15T10:18:10Z</time>
      </trkpt>
      <trkpt lat="45.9981" lon="4.71054">
        <ele>199</ele>
        <time>2017-12-15T10:18:11Z</time>
      </trkpt>
      <trkpt lat="45.9981" lon="4.71048">
        <ele>199</ele>
        <time>2017-12-15T10:18:12Z</time>
      </trkpt>
      <trkpt lat="45.99811" lon="4.7104">
        <ele>199</ele>
        <time>2017-12-15T10:18:13Z</time>
      </trkpt>
      <trkpt lat="45.99812" lon="4.71033">
        <ele>199</ele>
        <time>2017-12-15T10:18:14Z</time>
      </trkpt>
      <trkpt lat="45.99812" lon="4.71027">
        <ele>199</ele>
        <time>2017-12-15T10:18:15Z</time>
      </trkpt>
      <trkpt lat="45.99815" lon="4.71019">
        <ele>199</ele>
        <time>2017-12-15T10:18:16Z</time>
      </trkpt>
      <trkpt lat="45.99817" lon="4.71011">
        <ele>200</ele>
        <time>2017-12-15T10:18:17Z</time>
      </trkpt>
      <trkpt lat="45.99818" lon="4.71004">
        <ele>200</ele>
        <time>2017-12-15T10:18:18Z</time>
      </trkpt>
      <trkpt lat="45.9982" lon="4.70996">
        <ele>200</ele>
        <time>2017-12-15T10:18:19Z</time>
      </trkpt>
      <trkpt lat="45.99821" lon="4.70988">
        <ele>200</ele>
        <time>2017-12-15T10:18:20Z</time>
      </trkpt>
      <trkpt lat="45.99822" lon="4.7098">
        <ele>200</ele>
        <time>2017-12-15T10:18:21Z</time>
      </trkpt>
      <trkpt lat="45.99824" lon="4.7097">
        <ele>200</ele>
        <time>2017-12-15T10:18:22Z</time>
      </trkpt>
      <trkpt lat="45.99825" lon="4.70963">
        <ele>200</ele>
        <time>2017-12-15T10:18:23Z</time>
      </trkpt>
      <trkpt lat="45.99825" lon="4.70956">
        <ele>199</ele>
        <time>2017-12-15T10:18:24Z</time>
      </trkpt>
      <trkpt lat="45.99827" lon="4.70948">
        <ele>199</ele>
        <time>2017-12-15T10:18:25Z</time>
      </trkpt>
      <trkpt lat="45.99829" lon="4.70938">
        <ele>199</ele>
        <time>2017-12-15T10:18:27Z</time>
      </trkpt>
      <trkpt lat="45.9983" lon="4.70932">
        <ele>199</ele>
        <time>2017-12-15T10:18:28Z</time>
      </trkpt>
      <trkpt lat="45.99832" lon="4.70922">
        <ele>199</ele>
        <time>2017-12-15T10:18:30Z</time>
      </trkpt>
      <trkpt lat="45.99833" lon="4.70914">
        <ele>199</ele>
        <time>2017-12-15T10:18:31Z</time>
      </trkpt>
      <trkpt lat="45.99835" lon="4.70908">
        <ele>199</ele>
        <time>2017-12-15T10:18:32Z</time>
      </trkpt>
      <trkpt lat="45.99836" lon="4.70901">
        <ele>199</ele>
        <time>2017-12-15T10:18:33Z</time>
      </trkpt>
      <trkpt lat="45.99837" lon="4.70892">
        <ele>199</ele>
        <time>2017-12-15T10:18:34Z</time>
      </trkpt>
      <trkpt lat="45.99838" lon="4.70886">
        <ele>199</ele>
        <time>2017-12-15T10:18:35Z</time>
      </trkpt>
      <trkpt lat="45.9984" lon="4.70878">
        <ele>200</ele>
        <time>2017-12-15T10:18:36Z</time>
      </trkpt>
      <trkpt lat="45.99842" lon="4.70873">
        <ele>200</ele>
        <time>2017-12-15T10:18:37Z</time>
      </trkpt>
      <trkpt lat="45.99844" lon="4.70861">
        <ele>200</ele>
        <time>2017-12-15T10:18:39Z</time>
      </trkpt>
      <trkpt lat="45.99845" lon="4.70855">
        <ele>200</ele>
        <time>2017-12-15T10:18:40Z</time>
      </trkpt>
      <trkpt lat="45.99847" lon="4.70849">
        <ele>200</ele>
        <time>2017-12-15T10:18:41Z</time>
      </trkpt>
      <trkpt lat="45.99848" lon="4.70842">
        <ele>201</ele>
        <time>2017-12-15T10:18:42Z</time>
      </trkpt>
      <trkpt lat="45.99849" lon="4.70834">
        <ele>201</ele>
        <time>2017-12-15T10:18:43Z</time>
      </trkpt>
      <trkpt lat="45.99852" lon="4.70828">
        <ele>201</ele>
        <time>2017-12-15T10:18:44Z</time>
      </trkpt>
      <trkpt lat="45.99853" lon="4.70817">
        <ele>201</ele>
        <time>2017-12-15T10:18:45Z</time>
      </trkpt>
      <trkpt lat="45.99855" lon="4.70809">
        <ele>201</ele>
        <time>2017-12-15T10:18:46Z</time>
      </trkpt>
      <trkpt lat="45.99856" lon="4.708">
        <ele>201</ele>
        <time>2017-12-15T10:18:47Z</time>
      </trkpt>
      <trkpt lat="45.99857" lon="4.70791">
        <ele>201</ele>
        <time>2017-12-15T10:18:48Z</time>
      </trkpt>
      <trkpt lat="45.9986" lon="4.70781">
        <ele>200</ele>
        <time>2017-12-15T10:18:50Z</time>
      </trkpt>
      <trkpt lat="45.99861" lon="4.70771">
        <ele>200</ele>
        <time>2017-12-15T10:18:51Z</time>
      </trkpt>
      <trkpt lat="45.99863" lon="4.70762">
        <ele>200</ele>
        <time>2017-12-15T10:18:52Z</time>
      </trkpt>
      <trkpt lat="45.99863" lon="4.70755">
        <ele>200</ele>
        <time>2017-12-15T10:18:53Z</time>
      </trkpt>
      <trkpt lat="45.99864" lon="4.70746">
        <ele>200</ele>
        <time>2017-12-15T10:18:54Z</time>
      </trkpt>
      <trkpt lat="45.99866" lon="4.70737">
        <ele>200</ele>
        <time>2017-12-15T10:18:55Z</time>
      </trkpt>
      <trkpt lat="45.99868" lon="4.7073">
        <ele>200</ele>
        <time>2017-12-15T10:18:56Z</time>
      </trkpt>
      <trkpt lat="45.9987" lon="4.70721">
        <ele>200</ele>
        <time>2017-12-15T10:18:57Z</time>
      </trkpt>
      <trkpt lat="45.99871" lon="4.70712">
        <ele>200</ele>
        <time>2017-12-15T10:18:58Z</time>
      </trkpt>
      <trkpt lat="45.99872" lon="4.70704">
        <ele>200</ele>
        <time>2017-12-15T10:18:59Z</time>
      </trkpt>
      <trkpt lat="45.99874" lon="4.70695">
        <ele>200</ele>
        <time>2017-12-15T10:19:00Z</time>
      </trkpt>
      <trkpt lat="45.99876" lon="4.70686">
        <ele>200</ele>
        <time>2017-12-15T10:19:01Z</time>
      </trkpt>
      <trkpt lat="45.99877" lon="4.70678">
        <ele>200</ele>
        <time>2017-12-15T10:19:02Z</time>
      </trkpt>
      <trkpt lat="45.99879" lon="4.70671">
        <ele>200</ele>
        <time>2017-12-15T10:19:03Z</time>
      </trkpt>
      <trkpt lat="45.99882" lon="4.70665">
        <ele>200</ele>
        <time>2017-12-15T10:19:04Z</time>
      </trkpt>
      <trkpt lat="45.99884" lon="4.70657">
        <ele>200</ele>
        <time>2017-12-15T10:19:05Z</time>
      </trkpt>
      <trkpt lat="45.99888" lon="4.70652">
        <ele>200</ele>
        <time>2017-12-15T10:19:06Z</time>
      </trkpt>
      <trkpt lat="45.99892" lon="4.70647">
        <ele>200</ele>
        <time>2017-12-15T10:19:07Z</time>
      </trkpt>
      <trkpt lat="45.99897" lon="4.70645">
        <ele>200</ele>
        <time>2017-12-15T10:19:08Z</time>
      </trkpt>
      <trkpt lat="45.99902" lon="4.70643">
        <ele>200</ele>
        <time>2017-12-15T10:19:09Z</time>
      </trkpt>
      <trkpt lat="45.99907" lon="4.70642">
        <ele>200</ele>
        <time>2017-12-15T10:19:10Z</time>
      </trkpt>
      <trkpt lat="45.99912" lon="4.7064">
        <ele>200</ele>
        <time>2017-12-15T10:19:11Z</time>
      </trkpt>
      <trkpt lat="45.99918" lon="4.70638">
        <ele>199</ele>
        <time>2017-12-15T10:19:12Z</time>
      </trkpt>
      <trkpt lat="45.99924" lon="4.70636">
        <ele>199</ele>
        <time>2017-12-15T10:19:13Z</time>
      </trkpt>
      <trkpt lat="45.9993" lon="4.70634">
        <ele>199</ele>
        <time>2017-12-15T10:19:14Z</time>
      </trkpt>
      <trkpt lat="45.99936" lon="4.70632">
        <ele>199</ele>
        <time>2017-12-15T10:19:15Z</time>
      </trkpt>
      <trkpt lat="45.99942" lon="4.70631">
        <ele>199</ele>
        <time>2017-12-15T10:19:16Z</time>
      </trkpt>
      <trkpt lat="45.99948" lon="4.70629">
        <ele>199</ele>
        <time>2017-12-15T10:19:17Z</time>
      </trkpt>
      <trkpt lat="45.99954" lon="4.70628">
        <ele>199</ele>
        <time>2017-12-15T10:19:18Z</time>
      </trkpt>
      <trkpt lat="45.99958" lon="4.70629">
        <ele>199</ele>
        <time>2017-12-15T10:19:19Z</time>
      </trkpt>
      <trkpt lat="45.99963" lon="4.70627">
        <ele>199</ele>
        <time>2017-12-15T10:19:20Z</time>
      </trkpt>
      <trkpt lat="45.99968" lon="4.70627">
        <ele>199</ele>
        <time>2017-12-15T10:19:21Z</time>
      </trkpt>
      <trkpt lat="45.99976" lon="4.70625">
        <ele>199</ele>
        <time>2017-12-15T10:19:23Z</time>
      </trkpt>
      <trkpt lat="45.99981" lon="4.70624">
        <ele>199</ele>
        <time>2017-12-15T10:19:24Z</time>
      </trkpt>
      <trkpt lat="45.99985" lon="4.70622">
        <ele>199</ele>
        <time>2017-12-15T10:19:25Z</time>
      </trkpt>
      <trkpt lat="45.9999" lon="4.70621">
        <ele>199</ele>
        <time>2017-12-15T10:19:26Z</time>
      </trkpt>
      <trkpt lat="45.99996" lon="4.7062">
        <ele>199</ele>
        <time>2017-12-15T10:19:27Z</time>
      </trkpt>
      <trkpt lat="46.00003" lon="4.70619">
        <ele>199</ele>
        <time>2017-12-15T10:19:28Z</time>
      </trkpt>
      <trkpt lat="46.00009" lon="4.70617">
        <ele>199</ele>
        <time>2017-12-15T10:19:29Z</time>
      </trkpt>
      <trkpt lat="46.00014" lon="4.70615">
        <ele>199</ele>
        <time>2017-12-15T10:19:30Z</time>
      </trkpt>
      <trkpt lat="46.00021" lon="4.70612">
        <ele>199</ele>
        <time>2017-12-15T10:19:31Z</time>
      </trkpt>
      <trkpt lat="46.00025" lon="4.70611">
        <ele>199</ele>
        <time>2017-12-15T10:19:32Z</time>
      </trkpt>
      <trkpt lat="46.00031" lon="4.7061">
        <ele>199</ele>
        <time>2017-12-15T10:19:33Z</time>
      </trkpt>
      <trkpt lat="46.00036" lon="4.70609">
        <ele>199</ele>
        <time>2017-12-15T10:19:34Z</time>
      </trkpt>
      <trkpt lat="46.00041" lon="4.70608">
        <ele>199</ele>
        <time>2017-12-15T10:19:35Z</time>
      </trkpt>
      <trkpt lat="46.00045" lon="4.70605">
        <ele>198</ele>
        <time>2017-12-15T10:19:36Z</time>
      </trkpt>
      <trkpt lat="46.0005" lon="4.70605">
        <ele>198</ele>
        <time>2017-12-15T10:19:37Z</time>
      </trkpt>
      <trkpt lat="46.00055" lon="4.70604">
        <ele>198</ele>
        <time>2017-12-15T10:19:38Z</time>
      </trkpt>
      <trkpt lat="46.0006" lon="4.70603">
        <ele>198</ele>
        <time>2017-12-15T10:19:39Z</time>
      </trkpt>
      <trkpt lat="46.00064" lon="4.70602">
        <ele>198</ele>
        <time>2017-12-15T10:19:40Z</time>
      </trkpt>
      <trkpt lat="46.00068" lon="4.70601">
        <ele>198</ele>
        <time>2017-12-15T10:19:41Z</time>
      </trkpt>
      <trkpt lat="46.00073" lon="4.70599">
        <ele>198</ele>
        <time>2017-12-15T10:19:42Z</time>
      </trkpt>
      <trkpt lat="46.00079" lon="4.70596">
        <ele>198</ele>
        <time>2017-12-15T10:19:43Z</time>
      </trkpt>
      <trkpt lat="46.00085" lon="4.70594">
        <ele>198</ele>
        <time>2017-12-15T10:19:44Z</time>
      </trkpt>
      <trkpt lat="46.0009" lon="4.70592">
        <ele>198</ele>
        <time>2017-12-15T10:19:45Z</time>
      </trkpt>
      <trkpt lat="46.00096" lon="4.70589">
        <ele>198</ele>
        <time>2017-12-15T10:19:46Z</time>
      </trkpt>
      <trkpt lat="46.00103" lon="4.70585">
        <ele>198</ele>
        <time>2017-12-15T10:19:47Z</time>
      </trkpt>
      <trkpt lat="46.00108" lon="4.70582">
        <ele>198</ele>
        <time>2017-12-15T10:19:48Z</time>
      </trkpt>
      <trkpt lat="46.00113" lon="4.70578">
        <ele>198</ele>
        <time>2017-12-15T10:19:49Z</time>
      </trkpt>
      <trkpt lat="46.00118" lon="4.70574">
        <ele>198</ele>
        <time>2017-12-15T10:19:50Z</time>
      </trkpt>
      <trkpt lat="46.00124" lon="4.7057">
        <ele>198</ele>
        <time>2017-12-15T10:19:51Z</time>
      </trkpt>
      <trkpt lat="46.00128" lon="4.70566">
        <ele>198</ele>
        <time>2017-12-15T10:19:52Z</time>
      </trkpt>
      <trkpt lat="46.00132" lon="4.70562">
        <ele>198</ele>
        <time>2017-12-15T10:19:53Z</time>
      </trkpt>
      <trkpt lat="46.00137" lon="4.70557">
        <ele>198</ele>
        <time>2017-12-15T10:19:54Z</time>
      </trkpt>
      <trkpt lat="46.00142" lon="4.70554">
        <ele>198</ele>
        <time>2017-12-15T10:19:55Z</time>
      </trkpt>
      <trkpt lat="46.00146" lon="4.70553">
        <ele>198</ele>
        <time>2017-12-15T10:19:56Z</time>
      </trkpt>
      <trkpt lat="46.00154" lon="4.70551">
        <ele>198</ele>
        <time>2017-12-15T10:19:58Z</time>
      </trkpt>
      <trkpt lat="46.00159" lon="4.70548">
        <ele>198</ele>
        <time>2017-12-15T10:19:59Z</time>
      </trkpt>
      <trkpt lat="46.00164" lon="4.70545">
        <ele>198</ele>
        <time>2017-12-15T10:20:00Z</time>
      </trkpt>
      <trkpt lat="46.00169" lon="4.7054">
        <ele>198</ele>
        <time>2017-12-15T10:20:01Z</time>
      </trkpt>
      <trkpt lat="46.00173" lon="4.70535">
        <ele>198</ele>
        <time>2017-12-15T10:20:02Z</time>
      </trkpt>
      <trkpt lat="46.00179" lon="4.70532">
        <ele>198</ele>
        <time>2017-12-15T10:20:03Z</time>
      </trkpt>
      <trkpt lat="46.00184" lon="4.70532">
        <ele>198</ele>
        <time>2017-12-15T10:20:04Z</time>
      </trkpt>
      <trkpt lat="46.0019" lon="4.70532">
        <ele>198</ele>
        <time>2017-12-15T10:20:05Z</time>
      </trkpt>
      <trkpt lat="46.00196" lon="4.70532">
        <ele>198</ele>
        <time>2017-12-15T10:20:06Z</time>
      </trkpt>
      <trkpt lat="46.00202" lon="4.70531">
        <ele>198</ele>
        <time>2017-12-15T10:20:07Z</time>
      </trkpt>
      <trkpt lat="46.00207" lon="4.70529">
        <ele>198</ele>
        <time>2017-12-15T10:20:08Z</time>
      </trkpt>
      <trkpt lat="46.00213" lon="4.70529">
        <ele>198</ele>
        <time>2017-12-15T10:20:09Z</time>
      </trkpt>
      <trkpt lat="46.00218" lon="4.70528">
        <ele>198</ele>
        <time>2017-12-15T10:20:10Z</time>
      </trkpt>
      <trkpt lat="46.00224" lon="4.70526">
        <ele>198</ele>
        <time>2017-12-15T10:20:11Z</time>
      </trkpt>
      <trkpt lat="46.00229" lon="4.70525">
        <ele>198</ele>
        <time>2017-12-15T10:20:12Z</time>
      </trkpt>
      <trkpt lat="46.00235" lon="4.70523">
        <ele>198</ele>
        <time>2017-12-15T10:20:13Z</time>
      </trkpt>
      <trkpt lat="46.0024" lon="4.70521">
        <ele>198</ele>
        <time>2017-12-15T10:20:14Z</time>
      </trkpt>
      <trkpt lat="46.00246" lon="4.70519">
        <ele>198</ele>
        <time>2017-12-15T10:20:15Z</time>
      </trkpt>
      <trkpt lat="46.00251" lon="4.70518">
        <ele>197</ele>
        <time>2017-12-15T10:20:16Z</time>
      </trkpt>
      <trkpt lat="46.00257" lon="4.70517">
        <ele>197</ele>
        <time>2017-12-15T10:20:17Z</time>
      </trkpt>
      <trkpt lat="46.00263" lon="4.70515">
        <ele>197</ele>
        <time>2017-12-15T10:20:18Z</time>
      </trkpt>
      <trkpt lat="46.00269" lon="4.70513">
        <ele>197</ele>
        <time>2017-12-15T10:20:19Z</time>
      </trkpt>
      <trkpt lat="46.00275" lon="4.70511">
        <ele>197</ele>
        <time>2017-12-15T10:20:20Z</time>
      </trkpt>
      <trkpt lat="46.00281" lon="4.70509">
        <ele>197</ele>
        <time>2017-12-15T10:20:21Z</time>
      </trkpt>
      <trkpt lat="46.00286" lon="4.70508">
        <ele>197</ele>
        <time>2017-12-15T10:20:22Z</time>
      </trkpt>
      <trkpt lat="46.00291" lon="4.70508">
        <ele>197</ele>
        <time>2017-12-15T10:20:23Z</time>
      </trkpt>
      <trkpt lat="46.00296" lon="4.70507">
        <ele>197</ele>
        <time>2017-12-15T10:20:24Z</time>
      </trkpt>
      <trkpt lat="46.00301" lon="4.70507">
        <ele>197</ele>
        <time>2017-12-15T10:20:25Z</time>
      </trkpt>
      <trkpt lat="46.00309" lon="4.70505">
        <ele>197</ele>
        <time>2017-12-15T10:20:27Z</time>
      </trkpt>
      <trkpt lat="46.00314" lon="4.70504">
        <ele>197</ele>
        <time>2017-12-15T10:20:28Z</time>
      </trkpt>
      <trkpt lat="46.00323" lon="4.70503">
        <ele>198</ele>
        <time>2017-12-15T10:20:30Z</time>
      </trkpt>
      <trkpt lat="46.00328" lon="4.70502">
        <ele>198</ele>
        <time>2017-12-15T10:20:31Z</time>
      </trkpt>
      <trkpt lat="46.00332" lon="4.70501">
        <ele>198</ele>
        <time>2017-12-15T10:20:32Z</time>
      </trkpt>
      <trkpt lat="46.00337" lon="4.705">
        <ele>198</ele>
        <time>2017-12-15T10:20:33Z</time>
      </trkpt>
      <trkpt lat="46.00343" lon="4.70497">
        <ele>199</ele>
        <time>2017-12-15T10:20:34Z</time>
      </trkpt>
      <trkpt lat="46.00349" lon="4.70496">
        <ele>199</ele>
        <time>2017-12-15T10:20:35Z</time>
      </trkpt>
      <trkpt lat="46.00355" lon="4.70493">
        <ele>200</ele>
        <time>2017-12-15T10:20:36Z</time>
      </trkpt>
      <trkpt lat="46.0036" lon="4.70494">
        <ele>200</ele>
        <time>2017-12-15T10:20:37Z</time>
      </trkpt>
      <trkpt lat="46.00365" lon="4.70493">
        <ele>200</ele>
        <time>2017-12-15T10:20:38Z</time>
      </trkpt>
      <trkpt lat="46.00371" lon="4.70492">
        <ele>200</ele>
        <time>2017-12-15T10:20:39Z</time>
      </trkpt>
      <trkpt lat="46.00377" lon="4.70491">
        <ele>200</ele>
        <time>2017-12-15T10:20:40Z</time>
      </trkpt>
      <trkpt lat="46.00383" lon="4.7049">
        <ele>200</ele>
        <time>2017-12-15T10:20:41Z</time>
      </trkpt>
      <trkpt lat="46.00389" lon="4.7049">
        <ele>200</ele>
        <time>2017-12-15T10:20:42Z</time>
      </trkpt>
      <trkpt lat="46.00395" lon="4.70489">
        <ele>200</ele>
        <time>2017-12-15T10:20:43Z</time>
      </trkpt>
      <trkpt lat="46.00401" lon="4.70489">
        <ele>200</ele>
        <time>2017-12-15T10:20:44Z</time>
      </trkpt>
      <trkpt lat="46.00407" lon="4.70489">
        <ele>200</ele>
        <time>2017-12-15T10:20:45Z</time>
      </trkpt>
      <trkpt lat="46.00413" lon="4.70489">
        <ele>200</ele>
        <time>2017-12-15T10:20:46Z</time>
      </trkpt>
      <trkpt lat="46.00418" lon="4.70489">
        <ele>201</ele>
        <time>2017-12-15T10:20:47Z</time>
      </trkpt>
      <trkpt lat="46.00423" lon="4.7049">
        <ele>201</ele>
        <time>2017-12-15T10:20:48Z</time>
      </trkpt>
      <trkpt lat="46.00428" lon="4.70492">
        <ele>201</ele>
        <time>2017-12-15T10:20:49Z</time>
      </trkpt>
      <trkpt lat="46.00433" lon="4.70492">
        <ele>202</ele>
        <time>2017-12-15T10:20:50Z</time>
      </trkpt>
      <trkpt lat="46.00437" lon="4.70493">
        <ele>202</ele>
        <time>2017-12-15T10:20:51Z</time>
      </trkpt>
      <trkpt lat="46.00441" lon="4.70494">
        <ele>202</ele>
        <time>2017-12-15T10:20:52Z</time>
      </trkpt>
      <trkpt lat="46.00446" lon="4.70495">
        <ele>202</ele>
        <time>2017-12-15T10:20:53Z</time>
      </trkpt>
      <trkpt lat="46.00451" lon="4.70496">
        <ele>203</ele>
        <time>2017-12-15T10:20:54Z</time>
      </trkpt>
      <trkpt lat="46.00455" lon="4.70498">
        <ele>203</ele>
        <time>2017-12-15T10:20:55Z</time>
      </trkpt>
      <trkpt lat="46.00459" lon="4.70501">
        <ele>201</ele>
        <time>2017-12-15T10:20:56Z</time>
      </trkpt>
      <trkpt lat="46.00463" lon="4.70504">
        <ele>201</ele>
        <time>2017-12-15T10:20:57Z</time>
      </trkpt>
      <trkpt lat="46.00466" lon="4.70509">
        <ele>201</ele>
        <time>2017-12-15T10:20:58Z</time>
      </trkpt>
      <trkpt lat="46.00469" lon="4.70514">
        <ele>201</ele>
        <time>2017-12-15T10:20:59Z</time>
      </trkpt>
      <trkpt lat="46.0047" lon="4.70521">
        <ele>201</ele>
        <time>2017-12-15T10:21:00Z</time>
      </trkpt>
      <trkpt lat="46.00472" lon="4.70528">
        <ele>201</ele>
        <time>2017-12-15T10:21:01Z</time>
      </trkpt>
      <trkpt lat="46.00475" lon="4.70534">
        <ele>201</ele>
        <time>2017-12-15T10:21:02Z</time>
      </trkpt>
      <trkpt lat="46.00479" lon="4.70541">
        <ele>201</ele>
        <time>2017-12-15T10:21:03Z</time>
      </trkpt>
      <trkpt lat="46.00484" lon="4.70545">
        <ele>201</ele>
        <time>2017-12-15T10:21:04Z</time>
      </trkpt>
      <trkpt lat="46.00489" lon="4.70546">
        <ele>201</ele>
        <time>2017-12-15T10:21:05Z</time>
      </trkpt>
      <trkpt lat="46.00493" lon="4.70545">
        <ele>201</ele>
        <time>2017-12-15T10:21:06Z</time>
      </trkpt>
      <trkpt lat="46.00498" lon="4.70541">
        <ele>201</ele>
        <time>2017-12-15T10:21:07Z</time>
      </trkpt>
      <trkpt lat="46.00503" lon="4.70532">
        <ele>203</ele>
        <time>2017-12-15T10:21:09Z</time>
      </trkpt>
      <trkpt lat="46.00506" lon="4.70526">
        <ele>203</ele>
        <time>2017-12-15T10:21:10Z</time>
      </trkpt>
      <trkpt lat="46.00511" lon="4.70516">
        <ele>204</ele>
        <time>2017-12-15T10:21:12Z</time>
      </trkpt>
      <trkpt lat="46.00513" lon="4.70514">
        <ele>204</ele>
        <time>2017-12-15T10:21:13Z</time>
      </trkpt>
      <trkpt lat="46.00522" lon="4.70513">
        <ele>204</ele>
        <time>2017-12-15T10:21:15Z</time>
      </trkpt>
      <trkpt lat="46.00526" lon="4.70514">
        <ele>204</ele>
        <time>2017-12-15T10:21:16Z</time>
      </trkpt>
      <trkpt lat="46.00529" lon="4.70514">
        <ele>204</ele>
        <time>2017-12-15T10:21:17Z</time>
      </trkpt>
      <trkpt lat="46.00535" lon="4.70514">
        <ele>204</ele>
        <time>2017-12-15T10:21:18Z</time>
      </trkpt>
      <trkpt lat="46.0054" lon="4.70515">
        <ele>204</ele>
        <time>2017-12-15T10:21:19Z</time>
      </trkpt>
      <trkpt lat="46.00545" lon="4.70514">
        <ele>204</ele>
        <time>2017-12-15T10:21:20Z</time>
      </trkpt>
      <trkpt lat="46.00551" lon="4.70513">
        <ele>204</ele>
        <time>2017-12-15T10:21:21Z</time>
      </trkpt>
      <trkpt lat="46.00555" lon="4.70513">
        <ele>204</ele>
        <time>2017-12-15T10:21:22Z</time>
      </trkpt>
      <trkpt lat="46.0056" lon="4.70512">
        <ele>205</ele>
        <time>2017-12-15T10:21:23Z</time>
      </trkpt>
      <trkpt lat="46.00564" lon="4.70512">
        <ele>205</ele>
        <time>2017-12-15T10:21:24Z</time>
      </trkpt>
      <trkpt lat="46.0057" lon="4.70511">
        <ele>205</ele>
        <time>2017-12-15T10:21:25Z</time>
      </trkpt>
      <trkpt lat="46.00575" lon="4.7051">
        <ele>206</ele>
        <time>2017-12-15T10:21:26Z</time>
      </trkpt>
      <trkpt lat="46.00579" lon="4.70509">
        <ele>206</ele>
        <time>2017-12-15T10:21:27Z</time>
      </trkpt>
      <trkpt lat="46.00584" lon="4.70508">
        <ele>207</ele>
        <time>2017-12-15T10:21:28Z</time>
      </trkpt>
      <trkpt lat="46.00589" lon="4.70507">
        <ele>207</ele>
        <time>2017-12-15T10:21:29Z</time>
      </trkpt>
      <trkpt lat="46.00594" lon="4.70506">
        <ele>207</ele>
        <time>2017-12-15T10:21:30Z</time>
      </trkpt>
      <trkpt lat="46.00598" lon="4.70506">
        <ele>207</ele>
        <time>2017-12-15T10:21:31Z</time>
      </trkpt>
      <trkpt lat="46.00604" lon="4.70505">
        <ele>207</ele>
        <time>2017-12-15T10:21:32Z</time>
      </trkpt>
      <trkpt lat="46.0061" lon="4.70504">
        <ele>207</ele>
        <time>2017-12-15T10:21:33Z</time>
      </trkpt>
      <trkpt lat="46.00615" lon="4.70502">
        <ele>207</ele>
        <time>2017-12-15T10:21:34Z</time>
      </trkpt>
      <trkpt lat="46.00621" lon="4.705">
        <ele>210</ele>
        <time>2017-12-15T10:21:35Z</time>
      </trkpt>
      <trkpt lat="46.00627" lon="4.70499">
        <ele>211</ele>
        <time>2017-12-15T10:21:36Z</time>
      </trkpt>
      <trkpt lat="46.00632" lon="4.70499">
        <ele>211</ele>
        <time>2017-12-15T10:21:37Z</time>
      </trkpt>
      <trkpt lat="46.00637" lon="4.70498">
        <ele>211</ele>
        <time>2017-12-15T10:21:38Z</time>
      </trkpt>
      <trkpt lat="46.00642" lon="4.70497">
        <ele>211</ele>
        <time>2017-12-15T10:21:39Z</time>
      </trkpt>
      <trkpt lat="46.00647" lon="4.70497">
        <ele>211</ele>
        <time>2017-12-15T10:21:40Z</time>
      </trkpt>
      <trkpt lat="46.00653" lon="4.70496">
        <ele>212</ele>
        <time>2017-12-15T10:21:41Z</time>
      </trkpt>
      <trkpt lat="46.00657" lon="4.70495">
        <ele>212</ele>
        <time>2017-12-15T10:21:42Z</time>
      </trkpt>
      <trkpt lat="46.00661" lon="4.70495">
        <ele>212</ele>
        <time>2017-12-15T10:21:43Z</time>
      </trkpt>
      <trkpt lat="46.00667" lon="4.70496">
        <ele>212</ele>
        <time>2017-12-15T10:21:44Z</time>
      </trkpt>
      <trkpt lat="46.00672" lon="4.70496">
        <ele>212</ele>
        <time>2017-12-15T10:21:45Z</time>
      </trkpt>
      <trkpt lat="46.00676" lon="4.70497">
        <ele>212</ele>
        <time>2017-12-15T10:21:46Z</time>
      </trkpt>
      <trkpt lat="46.00681" lon="4.70497">
        <ele>211</ele>
        <time>2017-12-15T10:21:47Z</time>
      </trkpt>
      <trkpt lat="46.00686" lon="4.70495">
        <ele>211</ele>
        <time>2017-12-15T10:21:48Z</time>
      </trkpt>
      <trkpt lat="46.00691" lon="4.70497">
        <ele>211</ele>
        <time>2017-12-15T10:21:49Z</time>
      </trkpt>
      <trkpt lat="46.00696" lon="4.70497">
        <ele>211</ele>
        <time>2017-12-15T10:21:50Z</time>
      </trkpt>
      <trkpt lat="46.00701" lon="4.70498">
        <ele>211</ele>
        <time>2017-12-15T10:21:51Z</time>
      </trkpt>
      <trkpt lat="46.00707" lon="4.70498">
        <ele>211</ele>
        <time>2017-12-15T10:21:52Z</time>
      </trkpt>
      <trkpt lat="46.00714" lon="4.705">
        <ele>210</ele>
        <time>2017-12-15T10:21:53Z</time>
      </trkpt>
      <trkpt lat="46.0072" lon="4.705">
        <ele>207</ele>
        <time>2017-12-15T10:21:54Z</time>
      </trkpt>
      <trkpt lat="46.00726" lon="4.70501">
        <ele>207</ele>
        <time>2017-12-15T10:21:55Z</time>
      </trkpt>
      <trkpt lat="46.00732" lon="4.70503">
        <ele>207</ele>
        <time>2017-12-15T10:21:56Z</time>
      </trkpt>
      <trkpt lat="46.00739" lon="4.70505">
        <ele>207</ele>
        <time>2017-12-15T10:21:57Z</time>
      </trkpt>
      <trkpt lat="46.00745" lon="4.7051">
        <ele>207</ele>
        <time>2017-12-15T10:21:58Z</time>
      </trkpt>
      <trkpt lat="46.00751" lon="4.70512">
        <ele>206</ele>
        <time>2017-12-15T10:21:59Z</time>
      </trkpt>
      <trkpt lat="46.00758" lon="4.70514">
        <ele>206</ele>
        <time>2017-12-15T10:22:00Z</time>
      </trkpt>
      <trkpt lat="46.00764" lon="4.70518">
        <ele>205</ele>
        <time>2017-12-15T10:22:01Z</time>
      </trkpt>
      <trkpt lat="46.00771" lon="4.70519">
        <ele>205</ele>
        <time>2017-12-15T10:22:02Z</time>
      </trkpt>
      <trkpt lat="46.00778" lon="4.70521">
        <ele>205</ele>
        <time>2017-12-15T10:22:03Z</time>
      </trkpt>
      <trkpt lat="46.00784" lon="4.70524">
        <ele>204</ele>
        <time>2017-12-15T10:22:04Z</time>
      </trkpt>
      <trkpt lat="46.00791" lon="4.70527">
        <ele>204</ele>
        <time>2017-12-15T10:22:05Z</time>
      </trkpt>
      <trkpt lat="46.00798" lon="4.70532">
        <ele>204</ele>
        <time>2017-12-15T10:22:06Z</time>
      </trkpt>
      <trkpt lat="46.00806" lon="4.70533">
        <ele>204</ele>
        <time>2017-12-15T10:22:07Z</time>
      </trkpt>
      <trkpt lat="46.00813" lon="4.70535">
        <ele>204</ele>
        <time>2017-12-15T10:22:08Z</time>
      </trkpt>
      <trkpt lat="46.00822" lon="4.70537">
        <ele>203</ele>
        <time>2017-12-15T10:22:09Z</time>
      </trkpt>
      <trkpt lat="46.00828" lon="4.70541">
        <ele>203</ele>
        <time>2017-12-15T10:22:10Z</time>
      </trkpt>
      <trkpt lat="46.00835" lon="4.70544">
        <ele>201</ele>
        <time>2017-12-15T10:22:11Z</time>
      </trkpt>
      <trkpt lat="46.00842" lon="4.70547">
        <ele>201</ele>
        <time>2017-12-15T10:22:12Z</time>
      </trkpt>
      <trkpt lat="46.00848" lon="4.7055">
        <ele>201</ele>
        <time>2017-12-15T10:22:13Z</time>
      </trkpt>
      <trkpt lat="46.00855" lon="4.70553">
        <ele>201</ele>
        <time>2017-12-15T10:22:14Z</time>
      </trkpt>
      <trkpt lat="46.00862" lon="4.70556">
        <ele>201</ele>
        <time>2017-12-15T10:22:15Z</time>
      </trkpt>
      <trkpt lat="46.00869" lon="4.7056">
        <ele>201</ele>
        <time>2017-12-15T10:22:16Z</time>
      </trkpt>
      <trkpt lat="46.00876" lon="4.70563">
        <ele>201</ele>
        <time>2017-12-15T10:22:17Z</time>
      </trkpt>
      <trkpt lat="46.00883" lon="4.70567">
        <ele>200</ele>
        <time>2017-12-15T10:22:18Z</time>
      </trkpt>
      <trkpt lat="46.0089" lon="4.7057">
        <ele>200</ele>
        <time>2017-12-15T10:22:19Z</time>
      </trkpt>
      <trkpt lat="46.00898" lon="4.70573">
        <ele>200</ele>
        <time>2017-12-15T10:22:20Z</time>
      </trkpt>
      <trkpt lat="46.00905" lon="4.70576">
        <ele>199</ele>
        <time>2017-12-15T10:22:21Z</time>
      </trkpt>
      <trkpt lat="46.00912" lon="4.7058">
        <ele>199</ele>
        <time>2017-12-15T10:22:22Z</time>
      </trkpt>
      <trkpt lat="46.00919" lon="4.70583">
        <ele>198</ele>
        <time>2017-12-15T10:22:23Z</time>
      </trkpt>
      <trkpt lat="46.00927" lon="4.70586">
        <ele>198</ele>
        <time>2017-12-15T10:22:24Z</time>
      </trkpt>
      <trkpt lat="46.00934" lon="4.70591">
        <ele>198</ele>
        <time>2017-12-15T10:22:25Z</time>
      </trkpt>
      <trkpt lat="46.00941" lon="4.70594">
        <ele>198</ele>
        <time>2017-12-15T10:22:26Z</time>
      </trkpt>
      <trkpt lat="46.00949" lon="4.70597">
        <ele>197</ele>
        <time>2017-12-15T10:22:27Z</time>
      </trkpt>
      <trkpt lat="46.00957" lon="4.706">
        <ele>197</ele>
        <time>2017-12-15T10:22:28Z</time>
      </trkpt>
      <trkpt lat="46.00965" lon="4.70603">
        <ele>197</ele>
        <time>2017-12-15T10:22:29Z</time>
      </trkpt>
      <trkpt lat="46.00972" lon="4.70607">
        <ele>197</ele>
        <time>2017-12-15T10:22:30Z</time>
      </trkpt>
      <trkpt lat="46.0098" lon="4.7061">
        <ele>197</ele>
        <time>2017-12-15T10:22:31Z</time>
      </trkpt>
      <trkpt lat="46.00986" lon="4.70613">
        <ele>197</ele>
        <time>2017-12-15T10:22:32Z</time>
      </trkpt>
      <trkpt lat="46.00994" lon="4.70616">
        <ele>197</ele>
        <time>2017-12-15T10:22:33Z</time>
      </trkpt>
      <trkpt lat="46.01001" lon="4.7062">
        <ele>196</ele>
        <time>2017-12-15T10:22:34Z</time>
      </trkpt>
      <trkpt lat="46.01007" lon="4.70623">
        <ele>196</ele>
        <time>2017-12-15T10:22:35Z</time>
      </trkpt>
      <trkpt lat="46.01014" lon="4.70626">
        <ele>196</ele>
        <time>2017-12-15T10:22:36Z</time>
      </trkpt>
      <trkpt lat="46.01022" lon="4.70629">
        <ele>196</ele>
        <time>2017-12-15T10:22:37Z</time>
      </trkpt>
      <trkpt lat="46.01029" lon="4.70632">
        <ele>196</ele>
        <time>2017-12-15T10:22:38Z</time>
      </trkpt>
      <trkpt lat="46.01037" lon="4.70637">
        <ele>196</ele>
        <time>2017-12-15T10:22:39Z</time>
      </trkpt>
      <trkpt lat="46.01045" lon="4.7064">
        <ele>195</ele>
        <time>2017-12-15T10:22:40Z</time>
      </trkpt>
      <trkpt lat="46.01052" lon="4.70643">
        <ele>195</ele>
        <time>2017-12-15T10:22:41Z</time>
      </trkpt>
      <trkpt lat="46.01059" lon="4.70646">
        <ele>195</ele>
        <time>2017-12-15T10:22:42Z</time>
      </trkpt>
      <trkpt lat="46.01066" lon="4.7065">
        <ele>195</ele>
        <time>2017-12-15T10:22:43Z</time>
      </trkpt>
      <trkpt lat="46.01073" lon="4.70654">
        <ele>195</ele>
        <time>2017-12-15T10:22:44Z</time>
      </trkpt>
      <trkpt lat="46.01081" lon="4.70658">
        <ele>195</ele>
        <time>2017-12-15T10:22:45Z</time>
      </trkpt>
      <trkpt lat="46.01088" lon="4.70661">
        <ele>195</ele>
        <time>2017-12-15T10:22:46Z</time>
      </trkpt>
      <trkpt lat="46.01096" lon="4.70663">
        <ele>195</ele>
        <time>2017-12-15T10:22:47Z</time>
      </trkpt>
      <trkpt lat="46.01103" lon="4.70666">
        <ele>195</ele>
        <time>2017-12-15T10:22:48Z</time>
      </trkpt>
      <trkpt lat="46.0111" lon="4.7067">
        <ele>195</ele>
        <time>2017-12-15T10:22:49Z</time>
      </trkpt>
      <trkpt lat="46.01119" lon="4.70674">
        <ele>195</ele>
        <time>2017-12-15T10:22:50Z</time>
      </trkpt>
      <trkpt lat="46.01126" lon="4.70676">
        <ele>194</ele>
        <time>2017-12-15T10:22:51Z</time>
      </trkpt>
      <trkpt lat="46.01133" lon="4.7068">
        <ele>194</ele>
        <time>2017-12-15T10:22:52Z</time>
      </trkpt>
      <trkpt lat="46.01141" lon="4.70684">
        <ele>194</ele>
        <time>2017-12-15T10:22:53Z</time>
      </trkpt>
      <trkpt lat="46.01148" lon="4.70687">
        <ele>194</ele>
        <time>2017-12-15T10:22:54Z</time>
      </trkpt>
      <trkpt lat="46.01155" lon="4.70691">
        <ele>194</ele>
        <time>2017-12-15T10:22:55Z</time>
      </trkpt>
      <trkpt lat="46.01162" lon="4.70694">
        <ele>194</ele>
        <time>2017-12-15T10:22:56Z</time>
      </trkpt>
      <trkpt lat="46.01169" lon="4.70696">
        <ele>194</ele>
        <time>2017-12-15T10:22:57Z</time>
      </trkpt>
      <trkpt lat="46.01176" lon="4.70699">
        <ele>194</ele>
        <time>2017-12-15T10:22:58Z</time>
      </trkpt>
      <trkpt lat="46.01183" lon="4.70703">
        <ele>194</ele>
        <time>2017-12-15T10:22:59Z</time>
      </trkpt>
      <trkpt lat="46.0119" lon="4.70705">
        <ele>194</ele>
        <time>2017-12-15T10:23:00Z</time>
      </trkpt>
      <trkpt lat="46.01198" lon="4.70707">
        <ele>194</ele>
        <time>2017-12-15T10:23:01Z</time>
      </trkpt>
      <trkpt lat="46.01204" lon="4.7071">
        <ele>194</ele>
        <time>2017-12-15T10:23:02Z</time>
      </trkpt>
      <trkpt lat="46.01211" lon="4.70713">
        <ele>194</ele>
        <time>2017-12-15T10:23:03Z</time>
      </trkpt>
      <trkpt lat="46.01217" lon="4.70717">
        <ele>194</ele>
        <time>2017-12-15T10:23:04Z</time>
      </trkpt>
      <trkpt lat="46.01223" lon="4.7072">
        <ele>194</ele>
        <time>2017-12-15T10:23:05Z</time>
      </trkpt>
      <trkpt lat="46.0123" lon="4.70722">
        <ele>194</ele>
        <time>2017-12-15T10:23:06Z</time>
      </trkpt>
      <trkpt lat="46.01236" lon="4.70725">
        <ele>194</ele>
        <time>2017-12-15T10:23:07Z</time>
      </trkpt>
      <trkpt lat="46.01243" lon="4.70726">
        <ele>193</ele>
        <time>2017-12-15T10:23:08Z</time>
      </trkpt>
      <trkpt lat="46.01251" lon="4.70728">
        <ele>192</ele>
        <time>2017-12-15T10:23:09Z</time>
      </trkpt>
      <trkpt lat="46.01257" lon="4.7073">
        <ele>192</ele>
        <time>2017-12-15T10:23:10Z</time>
      </trkpt>
      <trkpt lat="46.01263" lon="4.70732">
        <ele>192</ele>
        <time>2017-12-15T10:23:11Z</time>
      </trkpt>
      <trkpt lat="46.0127" lon="4.70734">
        <ele>192</ele>
        <time>2017-12-15T10:23:12Z</time>
      </trkpt>
      <trkpt lat="46.01276" lon="4.70735">
        <ele>192</ele>
        <time>2017-12-15T10:23:13Z</time>
      </trkpt>
      <trkpt lat="46.01283" lon="4.70736">
        <ele>191</ele>
        <time>2017-12-15T10:23:14Z</time>
      </trkpt>
      <trkpt lat="46.0129" lon="4.70738">
        <ele>191</ele>
        <time>2017-12-15T10:23:15Z</time>
      </trkpt>
      <trkpt lat="46.01296" lon="4.70739">
        <ele>191</ele>
        <time>2017-12-15T10:23:16Z</time>
      </trkpt>
      <trkpt lat="46.01303" lon="4.7074">
        <ele>191</ele>
        <time>2017-12-15T10:23:17Z</time>
      </trkpt>
      <trkpt lat="46.0131" lon="4.70742">
        <ele>191</ele>
        <time>2017-12-15T10:23:18Z</time>
      </trkpt>
      <trkpt lat="46.01317" lon="4.70744">
        <ele>190</ele>
        <time>2017-12-15T10:23:19Z</time>
      </trkpt>
      <trkpt lat="46.01325" lon="4.70745">
        <ele>190</ele>
        <time>2017-12-15T10:23:20Z</time>
      </trkpt>
      <trkpt lat="46.01331" lon="4.70747">
        <ele>189</ele>
        <time>2017-12-15T10:23:21Z</time>
      </trkpt>
      <trkpt lat="46.01338" lon="4.70748">
        <ele>189</ele>
        <time>2017-12-15T10:23:22Z</time>
      </trkpt>
      <trkpt lat="46.01345" lon="4.7075">
        <ele>189</ele>
        <time>2017-12-15T10:23:23Z</time>
      </trkpt>
      <trkpt lat="46.01352" lon="4.70749">
        <ele>189</ele>
        <time>2017-12-15T10:23:24Z</time>
      </trkpt>
      <trkpt lat="46.01359" lon="4.70749">
        <ele>189</ele>
        <time>2017-12-15T10:23:25Z</time>
      </trkpt>
      <trkpt lat="46.01366" lon="4.70749">
        <ele>189</ele>
        <time>2017-12-15T10:23:26Z</time>
      </trkpt>
      <trkpt lat="46.01373" lon="4.70748">
        <ele>189</ele>
        <time>2017-12-15T10:23:27Z</time>
      </trkpt>
      <trkpt lat="46.0138" lon="4.70748">
        <ele>189</ele>
        <time>2017-12-15T10:23:28Z</time>
      </trkpt>
      <trkpt lat="46.01386" lon="4.70748">
        <ele>189</ele>
        <time>2017-12-15T10:23:29Z</time>
      </trkpt>
      <trkpt lat="46.01393" lon="4.70747">
        <ele>189</ele>
        <time>2017-12-15T10:23:30Z</time>
      </trkpt>
      <trkpt lat="46.014" lon="4.70747">
        <ele>189</ele>
        <time>2017-12-15T10:23:31Z</time>
      </trkpt>
      <trkpt lat="46.01407" lon="4.70746">
        <ele>189</ele>
        <time>2017-12-15T10:23:32Z</time>
      </trkpt>
      <trkpt lat="46.01414" lon="4.70745">
        <ele>189</ele>
        <time>2017-12-15T10:23:33Z</time>
      </trkpt>
      <trkpt lat="46.01422" lon="4.70743">
        <ele>189</ele>
        <time>2017-12-15T10:23:34Z</time>
      </trkpt>
      <trkpt lat="46.0143" lon="4.70741">
        <ele>189</ele>
        <time>2017-12-15T10:23:35Z</time>
      </trkpt>
      <trkpt lat="46.01437" lon="4.7074">
        <ele>189</ele>
        <time>2017-12-15T10:23:36Z</time>
      </trkpt>
      <trkpt lat="46.01445" lon="4.70741">
        <ele>189</ele>
        <time>2017-12-15T10:23:37Z</time>
      </trkpt>
      <trkpt lat="46.01452" lon="4.70739">
        <ele>189</ele>
        <time>2017-12-15T10:23:38Z</time>
      </trkpt>
      <trkpt lat="46.0146" lon="4.70738">
        <ele>190</ele>
        <time>2017-12-15T10:23:39Z</time>
      </trkpt>
      <trkpt lat="46.01467" lon="4.70737">
        <ele>190</ele>
        <time>2017-12-15T10:23:40Z</time>
      </trkpt>
      <trkpt lat="46.01474" lon="4.70736">
        <ele>190</ele>
        <time>2017-12-15T10:23:41Z</time>
      </trkpt>
      <trkpt lat="46.0148" lon="4.70736">
        <ele>190</ele>
        <time>2017-12-15T10:23:42Z</time>
      </trkpt>
      <trkpt lat="46.01487" lon="4.70736">
        <ele>190</ele>
        <time>2017-12-15T10:23:43Z</time>
      </trkpt>
      <trkpt lat="46.01494" lon="4.70734">
        <ele>190</ele>
        <time>2017-12-15T10:23:44Z</time>
      </trkpt>
      <trkpt lat="46.01502" lon="4.70732">
        <ele>190</ele>
        <time>2017-12-15T10:23:45Z</time>
      </trkpt>
      <trkpt lat="46.01509" lon="4.70731">
        <ele>190</ele>
        <time>2017-12-15T10:23:46Z</time>
      </trkpt>
      <trkpt lat="46.01516" lon="4.70731">
        <ele>190</ele>
        <time>2017-12-15T10:23:47Z</time>
      </trkpt>
      <trkpt lat="46.01522" lon="4.7073">
        <ele>190</ele>
        <time>2017-12-15T10:23:48Z</time>
      </trkpt>
      <trkpt lat="46.0153" lon="4.70729">
        <ele>190</ele>
        <time>2017-12-15T10:23:49Z</time>
      </trkpt>
      <trkpt lat="46.01536" lon="4.70728">
        <ele>190</ele>
        <time>2017-12-15T10:23:50Z</time>
      </trkpt>
      <trkpt lat="46.01542" lon="4.70727">
        <ele>190</ele>
        <time>2017-12-15T10:23:51Z</time>
      </trkpt>
      <trkpt lat="46.01549" lon="4.70726">
        <ele>190</ele>
        <time>2017-12-15T10:23:52Z</time>
      </trkpt>
      <trkpt lat="46.01556" lon="4.70726">
        <ele>190</ele>
        <time>2017-12-15T10:23:53Z</time>
      </trkpt>
      <trkpt lat="46.01562" lon="4.70725">
        <ele>190</ele>
        <time>2017-12-15T10:23:54Z</time>
      </trkpt>
      <trkpt lat="46.01568" lon="4.70724">
        <ele>190</ele>
        <time>2017-12-15T10:23:55Z</time>
      </trkpt>
      <trkpt lat="46.01575" lon="4.70723">
        <ele>190</ele>
        <time>2017-12-15T10:23:56Z</time>
      </trkpt>
      <trkpt lat="46.01581" lon="4.70722">
        <ele>190</ele>
        <time>2017-12-15T10:23:57Z</time>
      </trkpt>
      <trkpt lat="46.01588" lon="4.70721">
        <ele>190</ele>
        <time>2017-12-15T10:23:58Z</time>
      </trkpt>
      <trkpt lat="46.01595" lon="4.7072">
        <ele>190</ele>
        <time>2017-12-15T10:23:59Z</time>
      </trkpt>
      <trkpt lat="46.01602" lon="4.70719">
        <ele>190</ele>
        <time>2017-12-15T10:24:00Z</time>
      </trkpt>
      <trkpt lat="46.0161" lon="4.70718">
        <ele>190</ele>
        <time>2017-12-15T10:24:01Z</time>
      </trkpt>
      <trkpt lat="46.01619" lon="4.70717">
        <ele>190</ele>
        <time>2017-12-15T10:24:02Z</time>
      </trkpt>
      <trkpt lat="46.01627" lon="4.70716">
        <ele>190</ele>
        <time>2017-12-15T10:24:03Z</time>
      </trkpt>
      <trkpt lat="46.01635" lon="4.70715">
        <ele>190</ele>
        <time>2017-12-15T10:24:04Z</time>
      </trkpt>
      <trkpt lat="46.01642" lon="4.70714">
        <ele>190</ele>
        <time>2017-12-15T10:24:05Z</time>
      </trkpt>
      <trkpt lat="46.01649" lon="4.70713">
        <ele>190</ele>
        <time>2017-12-15T10:24:06Z</time>
      </trkpt>
      <trkpt lat="46.01656" lon="4.70712">
        <ele>190</ele>
        <time>2017-12-15T10:24:07Z</time>
      </trkpt>
      <trkpt lat="46.01663" lon="4.70711">
        <ele>190</ele>
        <time>2017-12-15T10:24:08Z</time>
      </trkpt>
      <trkpt lat="46.0167" lon="4.70711">
        <ele>189</ele>
        <time>2017-12-15T10:24:09Z</time>
      </trkpt>
      <trkpt lat="46.01676" lon="4.7071">
        <ele>189</ele>
        <time>2017-12-15T10:24:10Z</time>
      </trkpt>
      <trkpt lat="46.01683" lon="4.7071">
        <ele>189</ele>
        <time>2017-12-15T10:24:11Z</time>
      </trkpt>
      <trkpt lat="46.0169" lon="4.70709">
        <ele>189</ele>
        <time>2017-12-15T10:24:12Z</time>
      </trkpt>
      <trkpt lat="46.01698" lon="4.70708">
        <ele>189</ele>
        <time>2017-12-15T10:24:13Z</time>
      </trkpt>
      <trkpt lat="46.01705" lon="4.70707">
        <ele>189</ele>
        <time>2017-12-15T10:24:14Z</time>
      </trkpt>
      <trkpt lat="46.0171" lon="4.70707">
        <ele>188</ele>
        <time>2017-12-15T10:24:15Z</time>
      </trkpt>
      <trkpt lat="46.01716" lon="4.70708">
        <ele>188</ele>
        <time>2017-12-15T10:24:16Z</time>
      </trkpt>
      <trkpt lat="46.01724" lon="4.70706">
        <ele>188</ele>
        <time>2017-12-15T10:24:17Z</time>
      </trkpt>
      <trkpt lat="46.0173" lon="4.70707">
        <ele>188</ele>
        <time>2017-12-15T10:24:18Z</time>
      </trkpt>
      <trkpt lat="46.01737" lon="4.70706">
        <ele>188</ele>
        <time>2017-12-15T10:24:19Z</time>
      </trkpt>
      <trkpt lat="46.01743" lon="4.70705">
        <ele>188</ele>
        <time>2017-12-15T10:24:20Z</time>
      </trkpt>
      <trkpt lat="46.0175" lon="4.70704">
        <ele>187</ele>
        <time>2017-12-15T10:24:21Z</time>
      </trkpt>
      <trkpt lat="46.01757" lon="4.70702">
        <ele>187</ele>
        <time>2017-12-15T10:24:22Z</time>
      </trkpt>
      <trkpt lat="46.01763" lon="4.70702">
        <ele>187</ele>
        <time>2017-12-15T10:24:23Z</time>
      </trkpt>
      <trkpt lat="46.01769" lon="4.70701">
        <ele>187</ele>
        <time>2017-12-15T10:24:24Z</time>
      </trkpt>
      <trkpt lat="46.01776" lon="4.707">
        <ele>187</ele>
        <time>2017-12-15T10:24:25Z</time>
      </trkpt>
      <trkpt lat="46.01783" lon="4.70699">
        <ele>187</ele>
        <time>2017-12-15T10:24:26Z</time>
      </trkpt>
      <trkpt lat="46.01791" lon="4.70698">
        <ele>187</ele>
        <time>2017-12-15T10:24:27Z</time>
      </trkpt>
      <trkpt lat="46.01798" lon="4.70697">
        <ele>187</ele>
        <time>2017-12-15T10:24:28Z</time>
      </trkpt>
      <trkpt lat="46.01806" lon="4.70696">
        <ele>187</ele>
        <time>2017-12-15T10:24:29Z</time>
      </trkpt>
      <trkpt lat="46.01814" lon="4.70695">
        <ele>187</ele>
        <time>2017-12-15T10:24:30Z</time>
      </trkpt>
      <trkpt lat="46.01822" lon="4.70695">
        <ele>187</ele>
        <time>2017-12-15T10:24:31Z</time>
      </trkpt>
      <trkpt lat="46.0183" lon="4.70694">
        <ele>187</ele>
        <time>2017-12-15T10:24:32Z</time>
      </trkpt>
      <trkpt lat="46.01837" lon="4.70693">
        <ele>185</ele>
        <time>2017-12-15T10:24:33Z</time>
      </trkpt>
      <trkpt lat="46.01844" lon="4.70693">
        <ele>185</ele>
        <time>2017-12-15T10:24:34Z</time>
      </trkpt>
      <trkpt lat="46.01852" lon="4.70692">
        <ele>185</ele>
        <time>2017-12-15T10:24:35Z</time>
      </trkpt>
      <trkpt lat="46.01859" lon="4.70691">
        <ele>185</ele>
        <time>2017-12-15T10:24:36Z</time>
      </trkpt>
      <trkpt lat="46.01866" lon="4.70691">
        <ele>185</ele>
        <time>2017-12-15T10:24:37Z</time>
      </trkpt>
      <trkpt lat="46.01873" lon="4.70691">
        <ele>185</ele>
        <time>2017-12-15T10:24:38Z</time>
      </trkpt>
      <trkpt lat="46.01882" lon="4.70691">
        <ele>185</ele>
        <time>2017-12-15T10:24:39Z</time>
      </trkpt>
      <trkpt lat="46.0189" lon="4.70691">
        <ele>184</ele>
        <time>2017-12-15T10:24:40Z</time>
      </trkpt>
      <trkpt lat="46.01897" lon="4.70691">
        <ele>184</ele>
        <time>2017-12-15T10:24:41Z</time>
      </trkpt>
      <trkpt lat="46.01904" lon="4.70692">
        <ele>184</ele>
        <time>2017-12-15T10:24:42Z</time>
      </trkpt>
      <trkpt lat="46.0191" lon="4.70693">
        <ele>184</ele>
        <time>2017-12-15T10:24:43Z</time>
      </trkpt>
      <trkpt lat="46.01917" lon="4.70694">
        <ele>182</ele>
        <time>2017-12-15T10:24:44Z</time>
      </trkpt>
      <trkpt lat="46.01924" lon="4.70695">
        <ele>182</ele>
        <time>2017-12-15T10:24:45Z</time>
      </trkpt>
      <trkpt lat="46.01931" lon="4.70696">
        <ele>182</ele>
        <time>2017-12-15T10:24:46Z</time>
      </trkpt>
      <trkpt lat="46.01938" lon="4.70696">
        <ele>182</ele>
        <time>2017-12-15T10:24:47Z</time>
      </trkpt>
      <trkpt lat="46.01945" lon="4.70697">
        <ele>182</ele>
        <time>2017-12-15T10:24:48Z</time>
      </trkpt>
      <trkpt lat="46.01952" lon="4.70698">
        <ele>181</ele>
        <time>2017-12-15T10:24:49Z</time>
      </trkpt>
      <trkpt lat="46.01959" lon="4.70699">
        <ele>181</ele>
        <time>2017-12-15T10:24:50Z</time>
      </trkpt>
      <trkpt lat="46.01966" lon="4.707">
        <ele>181</ele>
        <time>2017-12-15T10:24:51Z</time>
      </trkpt>
      <trkpt lat="46.01974" lon="4.70701">
        <ele>181</ele>
        <time>2017-12-15T10:24:52Z</time>
      </trkpt>
      <trkpt lat="46.0198" lon="4.70704">
        <ele>181</ele>
        <time>2017-12-15T10:24:53Z</time>
      </trkpt>
      <trkpt lat="46.01986" lon="4.70706">
        <ele>181</ele>
        <time>2017-12-15T10:24:54Z</time>
      </trkpt>
      <trkpt lat="46.01993" lon="4.70707">
        <ele>181</ele>
        <time>2017-12-15T10:24:55Z</time>
      </trkpt>
      <trkpt lat="46.02" lon="4.70708">
        <ele>181</ele>
        <time>2017-12-15T10:24:56Z</time>
      </trkpt>
      <trkpt lat="46.02007" lon="4.70709">
        <ele>179</ele>
        <time>2017-12-15T10:24:57Z</time>
      </trkpt>
      <trkpt lat="46.02014" lon="4.70709">
        <ele>179</ele>
        <time>2017-12-15T10:24:58Z</time>
      </trkpt>
      <trkpt lat="46.02021" lon="4.70711">
        <ele>179</ele>
        <time>2017-12-15T10:24:59Z</time>
      </trkpt>
      <trkpt lat="46.02028" lon="4.70712">
        <ele>179</ele>
        <time>2017-12-15T10:25:00Z</time>
      </trkpt>
      <trkpt lat="46.02035" lon="4.70713">
        <ele>179</ele>
        <time>2017-12-15T10:25:01Z</time>
      </trkpt>
      <trkpt lat="46.02042" lon="4.70714">
        <ele>179</ele>
        <time>2017-12-15T10:25:02Z</time>
      </trkpt>
      <trkpt lat="46.02048" lon="4.70715">
        <ele>179</ele>
        <time>2017-12-15T10:25:03Z</time>
      </trkpt>
      <trkpt lat="46.02056" lon="4.70717">
        <ele>179</ele>
        <time>2017-12-15T10:25:04Z</time>
      </trkpt>
      <trkpt lat="46.02062" lon="4.70718">
        <ele>179</ele>
        <time>2017-12-15T10:25:05Z</time>
      </trkpt>
      <trkpt lat="46.02069" lon="4.70719">
        <ele>179</ele>
        <time>2017-12-15T10:25:06Z</time>
      </trkpt>
      <trkpt lat="46.02076" lon="4.7072">
        <ele>179</ele>
        <time>2017-12-15T10:25:07Z</time>
      </trkpt>
      <trkpt lat="46.02083" lon="4.70721">
        <ele>178</ele>
        <time>2017-12-15T10:25:08Z</time>
      </trkpt>
      <trkpt lat="46.02089" lon="4.70722">
        <ele>178</ele>
        <time>2017-12-15T10:25:09Z</time>
      </trkpt>
      <trkpt lat="46.02096" lon="4.70724">
        <ele>178</ele>
        <time>2017-12-15T10:25:10Z</time>
      </trkpt>
      <trkpt lat="46.02104" lon="4.70725">
        <ele>179</ele>
        <time>2017-12-15T10:25:11Z</time>
      </trkpt>
      <trkpt lat="46.02112" lon="4.70726">
        <ele>179</ele>
        <time>2017-12-15T10:25:12Z</time>
      </trkpt>
      <trkpt lat="46.02119" lon="4.70728">
        <ele>179</ele>
        <time>2017-12-15T10:25:13Z</time>
      </trkpt>
      <trkpt lat="46.02127" lon="4.70729">
        <ele>179</ele>
        <time>2017-12-15T10:25:14Z</time>
      </trkpt>
      <trkpt lat="46.02134" lon="4.7073">
        <ele>179</ele>
        <time>2017-12-15T10:25:15Z</time>
      </trkpt>
      <trkpt lat="46.02141" lon="4.70732">
        <ele>179</ele>
        <time>2017-12-15T10:25:16Z</time>
      </trkpt>
      <trkpt lat="46.02148" lon="4.70733">
        <ele>179</ele>
        <time>2017-12-15T10:25:17Z</time>
      </trkpt>
      <trkpt lat="46.02154" lon="4.70734">
        <ele>179</ele>
        <time>2017-12-15T10:25:18Z</time>
      </trkpt>
      <trkpt lat="46.02161" lon="4.70736">
        <ele>179</ele>
        <time>2017-12-15T10:25:19Z</time>
      </trkpt>
      <trkpt lat="46.02167" lon="4.70737">
        <ele>180</ele>
        <time>2017-12-15T10:25:20Z</time>
      </trkpt>
      <trkpt lat="46.02173" lon="4.70738">
        <ele>180</ele>
        <time>2017-12-15T10:25:21Z</time>
      </trkpt>
      <trkpt lat="46.02179" lon="4.7074">
        <ele>180</ele>
        <time>2017-12-15T10:25:22Z</time>
      </trkpt>
      <trkpt lat="46.02186" lon="4.70741">
        <ele>180</ele>
        <time>2017-12-15T10:25:23Z</time>
      </trkpt>
      <trkpt lat="46.02191" lon="4.70742">
        <ele>180</ele>
        <time>2017-12-15T10:25:24Z</time>
      </trkpt>
      <trkpt lat="46.02196" lon="4.70743">
        <ele>180</ele>
        <time>2017-12-15T10:25:25Z</time>
      </trkpt>
      <trkpt lat="46.02202" lon="4.70745">
        <ele>180</ele>
        <time>2017-12-15T10:25:26Z</time>
      </trkpt>
      <trkpt lat="46.02208" lon="4.70746">
        <ele>180</ele>
        <time>2017-12-15T10:25:27Z</time>
      </trkpt>
      <trkpt lat="46.02215" lon="4.70747">
        <ele>180</ele>
        <time>2017-12-15T10:25:28Z</time>
      </trkpt>
      <trkpt lat="46.02221" lon="4.70748">
        <ele>181</ele>
        <time>2017-12-15T10:25:29Z</time>
      </trkpt>
      <trkpt lat="46.02227" lon="4.7075">
        <ele>180</ele>
        <time>2017-12-15T10:25:30Z</time>
      </trkpt>
      <trkpt lat="46.02233" lon="4.70752">
        <ele>180</ele>
        <time>2017-12-15T10:25:31Z</time>
      </trkpt>
      <trkpt lat="46.0224" lon="4.70753">
        <ele>180</ele>
        <time>2017-12-15T10:25:32Z</time>
      </trkpt>
      <trkpt lat="46.02246" lon="4.70755">
        <ele>181</ele>
        <time>2017-12-15T10:25:33Z</time>
      </trkpt>
      <trkpt lat="46.02253" lon="4.70756">
        <ele>181</ele>
        <time>2017-12-15T10:25:34Z</time>
      </trkpt>
      <trkpt lat="46.02259" lon="4.70757">
        <ele>181</ele>
        <time>2017-12-15T10:25:35Z</time>
      </trkpt>
      <trkpt lat="46.02266" lon="4.7076">
        <ele>181</ele>
        <time>2017-12-15T10:25:36Z</time>
      </trkpt>
      <trkpt lat="46.02273" lon="4.70761">
        <ele>181</ele>
        <time>2017-12-15T10:25:37Z</time>
      </trkpt>
      <trkpt lat="46.0228" lon="4.70762">
        <ele>181</ele>
        <time>2017-12-15T10:25:38Z</time>
      </trkpt>
      <trkpt lat="46.02286" lon="4.70763">
        <ele>181</ele>
        <time>2017-12-15T10:25:39Z</time>
      </trkpt>
      <trkpt lat="46.02291" lon="4.70764">
        <ele>181</ele>
        <time>2017-12-15T10:25:40Z</time>
      </trkpt>
      <trkpt lat="46.02297" lon="4.70765">
        <ele>180</ele>
        <time>2017-12-15T10:25:41Z</time>
      </trkpt>
      <trkpt lat="46.02303" lon="4.70766">
        <ele>180</ele>
        <time>2017-12-15T10:25:42Z</time>
      </trkpt>
      <trkpt lat="46.02308" lon="4.70766">
        <ele>180</ele>
        <time>2017-12-15T10:25:43Z</time>
      </trkpt>
      <trkpt lat="46.02313" lon="4.70767">
        <ele>180</ele>
        <time>2017-12-15T10:25:44Z</time>
      </trkpt>
      <trkpt lat="46.02317" lon="4.70767">
        <ele>180</ele>
        <time>2017-12-15T10:25:45Z</time>
      </trkpt>
      <trkpt lat="46.02322" lon="4.70768">
        <ele>180</ele>
        <time>2017-12-15T10:25:46Z</time>
      </trkpt>
      <trkpt lat="46.02327" lon="4.7077">
        <ele>180</ele>
        <time>2017-12-15T10:25:47Z</time>
      </trkpt>
      <trkpt lat="46.02332" lon="4.70771">
        <ele>180</ele>
        <time>2017-12-15T10:25:48Z</time>
      </trkpt>
      <trkpt lat="46.02338" lon="4.70772">
        <ele>182</ele>
        <time>2017-12-15T10:25:49Z</time>
      </trkpt>
      <trkpt lat="46.02343" lon="4.70774">
        <ele>182</ele>
        <time>2017-12-15T10:25:50Z</time>
      </trkpt>
      <trkpt lat="46.02348" lon="4.70776">
        <ele>183</ele>
        <time>2017-12-15T10:25:51Z</time>
      </trkpt>
      <trkpt lat="46.02353" lon="4.70779">
        <ele>183</ele>
        <time>2017-12-15T10:25:52Z</time>
      </trkpt>
      <trkpt lat="46.02359" lon="4.7078">
        <ele>183</ele>
        <time>2017-12-15T10:25:53Z</time>
      </trkpt>
      <trkpt lat="46.02364" lon="4.70781">
        <ele>183</ele>
        <time>2017-12-15T10:25:54Z</time>
      </trkpt>
      <trkpt lat="46.02369" lon="4.70781">
        <ele>184</ele>
        <time>2017-12-15T10:25:55Z</time>
      </trkpt>
      <trkpt lat="46.02375" lon="4.70782">
        <ele>184</ele>
        <time>2017-12-15T10:25:56Z</time>
      </trkpt>
      <trkpt lat="46.02381" lon="4.70783">
        <ele>184</ele>
        <time>2017-12-15T10:25:57Z</time>
      </trkpt>
      <trkpt lat="46.02385" lon="4.70784">
        <ele>184</ele>
        <time>2017-12-15T10:25:58Z</time>
      </trkpt>
      <trkpt lat="46.0239" lon="4.70785">
        <ele>184</ele>
        <time>2017-12-15T10:25:59Z</time>
      </trkpt>
      <trkpt lat="46.02395" lon="4.70786">
        <ele>185</ele>
        <time>2017-12-15T10:26:00Z</time>
      </trkpt>
      <trkpt lat="46.024" lon="4.70786">
        <ele>185</ele>
        <time>2017-12-15T10:26:01Z</time>
      </trkpt>
      <trkpt lat="46.02406" lon="4.70785">
        <ele>185</ele>
        <time>2017-12-15T10:26:02Z</time>
      </trkpt>
      <trkpt lat="46.02412" lon="4.70783">
        <ele>185</ele>
        <time>2017-12-15T10:26:03Z</time>
      </trkpt>
      <trkpt lat="46.02417" lon="4.70781">
        <ele>185</ele>
        <time>2017-12-15T10:26:04Z</time>
      </trkpt>
      <trkpt lat="46.02421" lon="4.7078">
        <ele>189</ele>
        <time>2017-12-15T10:26:05Z</time>
      </trkpt>
      <trkpt lat="46.02427" lon="4.70778">
        <ele>189</ele>
        <time>2017-12-15T10:26:06Z</time>
      </trkpt>
      <trkpt lat="46.02432" lon="4.70776">
        <ele>189</ele>
        <time>2017-12-15T10:26:07Z</time>
      </trkpt>
      <trkpt lat="46.02436" lon="4.70773">
        <ele>189</ele>
        <time>2017-12-15T10:26:08Z</time>
      </trkpt>
      <trkpt lat="46.02439" lon="4.70768">
        <ele>189</ele>
        <time>2017-12-15T10:26:09Z</time>
      </trkpt>
      <trkpt lat="46.02443" lon="4.70762">
        <ele>189</ele>
        <time>2017-12-15T10:26:10Z</time>
      </trkpt>
      <trkpt lat="46.02446" lon="4.70756">
        <ele>190</ele>
        <time>2017-12-15T10:26:11Z</time>
      </trkpt>
      <trkpt lat="46.02449" lon="4.7075">
        <ele>190</ele>
        <time>2017-12-15T10:26:12Z</time>
      </trkpt>
      <trkpt lat="46.02451" lon="4.70743">
        <ele>190</ele>
        <time>2017-12-15T10:26:13Z</time>
      </trkpt>
      <trkpt lat="46.02454" lon="4.70737">
        <ele>190</ele>
        <time>2017-12-15T10:26:14Z</time>
      </trkpt>
      <trkpt lat="46.02458" lon="4.70729">
        <ele>190</ele>
        <time>2017-12-15T10:26:15Z</time>
      </trkpt>
      <trkpt lat="46.0246" lon="4.70722">
        <ele>190</ele>
        <time>2017-12-15T10:26:16Z</time>
      </trkpt>
      <trkpt lat="46.02462" lon="4.70715">
        <ele>190</ele>
        <time>2017-12-15T10:26:17Z</time>
      </trkpt>
      <trkpt lat="46.02464" lon="4.70707">
        <ele>190</ele>
        <time>2017-12-15T10:26:18Z</time>
      </trkpt>
      <trkpt lat="46.02467" lon="4.707">
        <ele>190</ele>
        <time>2017-12-15T10:26:19Z</time>
      </trkpt>
      <trkpt lat="46.02469" lon="4.70693">
        <ele>190</ele>
        <time>2017-12-15T10:26:20Z</time>
      </trkpt>
      <trkpt lat="46.02471" lon="4.70685">
        <ele>190</ele>
        <time>2017-12-15T10:26:21Z</time>
      </trkpt>
      <trkpt lat="46.02472" lon="4.70677">
        <ele>190</ele>
        <time>2017-12-15T10:26:22Z</time>
      </trkpt>
      <trkpt lat="46.02474" lon="4.7067">
        <ele>190</ele>
        <time>2017-12-15T10:26:23Z</time>
      </trkpt>
      <trkpt lat="46.02475" lon="4.70663">
        <ele>189</ele>
        <time>2017-12-15T10:26:24Z</time>
      </trkpt>
      <trkpt lat="46.02477" lon="4.70656">
        <ele>189</ele>
        <time>2017-12-15T10:26:25Z</time>
      </trkpt>
      <trkpt lat="46.02478" lon="4.70649">
        <ele>189</ele>
        <time>2017-12-15T10:26:26Z</time>
      </trkpt>
      <trkpt lat="46.0248" lon="4.70642">
        <ele>189</ele>
        <time>2017-12-15T10:26:27Z</time>
      </trkpt>
      <trkpt lat="46.0248" lon="4.70635">
        <ele>188</ele>
        <time>2017-12-15T10:26:28Z</time>
      </trkpt>
      <trkpt lat="46.02482" lon="4.70629">
        <ele>188</ele>
        <time>2017-12-15T10:26:29Z</time>
      </trkpt>
      <trkpt lat="46.02487" lon="4.70619">
        <ele>188</ele>
        <time>2017-12-15T10:26:31Z</time>
      </trkpt>
      <trkpt lat="46.02491" lon="4.70618">
        <ele>188</ele>
        <time>2017-12-15T10:26:32Z</time>
      </trkpt>
      <trkpt lat="46.02495" lon="4.70618">
        <ele>188</ele>
        <time>2017-12-15T10:26:33Z</time>
      </trkpt>
      <trkpt lat="46.025" lon="4.70618">
        <ele>188</ele>
        <time>2017-12-15T10:26:34Z</time>
      </trkpt>
      <trkpt lat="46.02505" lon="4.70619">
        <ele>189</ele>
        <time>2017-12-15T10:26:35Z</time>
      </trkpt>
      <trkpt lat="46.02509" lon="4.7062">
        <ele>189</ele>
        <time>2017-12-15T10:26:36Z</time>
      </trkpt>
      <trkpt lat="46.02516" lon="4.70624">
        <ele>189</ele>
        <time>2017-12-15T10:26:38Z</time>
      </trkpt>
      <trkpt lat="46.02519" lon="4.70628">
        <ele>189</ele>
        <time>2017-12-15T10:26:39Z</time>
      </trkpt>
      <trkpt lat="46.02524" lon="4.7063">
        <ele>189</ele>
        <time>2017-12-15T10:26:40Z</time>
      </trkpt>
      <trkpt lat="46.02529" lon="4.70632">
        <ele>189</ele>
        <time>2017-12-15T10:26:41Z</time>
      </trkpt>
      <trkpt lat="46.02535" lon="4.70633">
        <ele>189</ele>
        <time>2017-12-15T10:26:42Z</time>
      </trkpt>
      <trkpt lat="46.0254" lon="4.70634">
        <ele>189</ele>
        <time>2017-12-15T10:26:43Z</time>
      </trkpt>
      <trkpt lat="46.02546" lon="4.70635">
        <ele>189</ele>
        <time>2017-12-15T10:26:44Z</time>
      </trkpt>
      <trkpt lat="46.02551" lon="4.70636">
        <ele>189</ele>
        <time>2017-12-15T10:26:45Z</time>
      </trkpt>
      <trkpt lat="46.02557" lon="4.70637">
        <ele>189</ele>
        <time>2017-12-15T10:26:46Z</time>
      </trkpt>
      <trkpt lat="46.02563" lon="4.70636">
        <ele>189</ele>
        <time>2017-12-15T10:26:47Z</time>
      </trkpt>
      <trkpt lat="46.02568" lon="4.70638">
        <ele>189</ele>
        <time>2017-12-15T10:26:48Z</time>
      </trkpt>
      <trkpt lat="46.02574" lon="4.70639">
        <ele>189</ele>
        <time>2017-12-15T10:26:49Z</time>
      </trkpt>
      <trkpt lat="46.0258" lon="4.7064">
        <ele>190</ele>
        <time>2017-12-15T10:26:50Z</time>
      </trkpt>
      <trkpt lat="46.02585" lon="4.70642">
        <ele>190</ele>
        <time>2017-12-15T10:26:51Z</time>
      </trkpt>
      <trkpt lat="46.0259" lon="4.70644">
        <ele>190</ele>
        <time>2017-12-15T10:26:52Z</time>
      </trkpt>
      <trkpt lat="46.02596" lon="4.70645">
        <ele>190</ele>
        <time>2017-12-15T10:26:53Z</time>
      </trkpt>
      <trkpt lat="46.02601" lon="4.70646">
        <ele>190</ele>
        <time>2017-12-15T10:26:54Z</time>
      </trkpt>
      <trkpt lat="46.02607" lon="4.70647">
        <ele>190</ele>
        <time>2017-12-15T10:26:55Z</time>
      </trkpt>
      <trkpt lat="46.02614" lon="4.70648">
        <ele>190</ele>
        <time>2017-12-15T10:26:56Z</time>
      </trkpt>
      <trkpt lat="46.0262" lon="4.70648">
        <ele>190</ele>
        <time>2017-12-15T10:26:57Z</time>
      </trkpt>
      <trkpt lat="46.02626" lon="4.70649">
        <ele>190</ele>
        <time>2017-12-15T10:26:58Z</time>
      </trkpt>
      <trkpt lat="46.02632" lon="4.70649">
        <ele>190</ele>
        <time>2017-12-15T10:26:59Z</time>
      </trkpt>
      <trkpt lat="46.02638" lon="4.7065">
        <ele>190</ele>
        <time>2017-12-15T10:27:00Z</time>
      </trkpt>
      <trkpt lat="46.02644" lon="4.7065">
        <ele>190</ele>
        <time>2017-12-15T10:27:01Z</time>
      </trkpt>
      <trkpt lat="46.02649" lon="4.7065">
        <ele>190</ele>
        <time>2017-12-15T10:27:02Z</time>
      </trkpt>
      <trkpt lat="46.02654" lon="4.70651">
        <ele>190</ele>
        <time>2017-12-15T10:27:03Z</time>
      </trkpt>
      <trkpt lat="46.02659" lon="4.70653">
        <ele>190</ele>
        <time>2017-12-15T10:27:04Z</time>
      </trkpt>
      <trkpt lat="46.02665" lon="4.70653">
        <ele>190</ele>
        <time>2017-12-15T10:27:05Z</time>
      </trkpt>
      <trkpt lat="46.0267" lon="4.70654">
        <ele>190</ele>
        <time>2017-12-15T10:27:06Z</time>
      </trkpt>
      <trkpt lat="46.02676" lon="4.70655">
        <ele>190</ele>
        <time>2017-12-15T10:27:07Z</time>
      </trkpt>
      <trkpt lat="46.02681" lon="4.70657">
        <ele>190</ele>
        <time>2017-12-15T10:27:08Z</time>
      </trkpt>
      <trkpt lat="46.02687" lon="4.70658">
        <ele>190</ele>
        <time>2017-12-15T10:27:09Z</time>
      </trkpt>
      <trkpt lat="46.02693" lon="4.70658">
        <ele>189</ele>
        <time>2017-12-15T10:27:10Z</time>
      </trkpt>
      <trkpt lat="46.02698" lon="4.70658">
        <ele>189</ele>
        <time>2017-12-15T10:27:11Z</time>
      </trkpt>
      <trkpt lat="46.02703" lon="4.70658">
        <ele>189</ele>
        <time>2017-12-15T10:27:12Z</time>
      </trkpt>
      <trkpt lat="46.02708" lon="4.70659">
        <ele>189</ele>
        <time>2017-12-15T10:27:13Z</time>
      </trkpt>
      <trkpt lat="46.02716" lon="4.7066">
        <ele>189</ele>
        <time>2017-12-15T10:27:15Z</time>
      </trkpt>
      <trkpt lat="46.02722" lon="4.7066">
        <ele>189</ele>
        <time>2017-12-15T10:27:16Z</time>
      </trkpt>
      <trkpt lat="46.02728" lon="4.70661">
        <ele>189</ele>
        <time>2017-12-15T10:27:17Z</time>
      </trkpt>
      <trkpt lat="46.02733" lon="4.70662">
        <ele>189</ele>
        <time>2017-12-15T10:27:18Z</time>
      </trkpt>
      <trkpt lat="46.02738" lon="4.70663">
        <ele>189</ele>
        <time>2017-12-15T10:27:19Z</time>
      </trkpt>
      <trkpt lat="46.02743" lon="4.70664">
        <ele>189</ele>
        <time>2017-12-15T10:27:20Z</time>
      </trkpt>
      <trkpt lat="46.02749" lon="4.70665">
        <ele>189</ele>
        <time>2017-12-15T10:27:21Z</time>
      </trkpt>
      <trkpt lat="46.02755" lon="4.70666">
        <ele>189</ele>
        <time>2017-12-15T10:27:22Z</time>
      </trkpt>
      <trkpt lat="46.02761" lon="4.70667">
        <ele>189</ele>
        <time>2017-12-15T10:27:23Z</time>
      </trkpt>
      <trkpt lat="46.02767" lon="4.70667">
        <ele>189</ele>
        <time>2017-12-15T10:27:24Z</time>
      </trkpt>
      <trkpt lat="46.02773" lon="4.70667">
        <ele>189</ele>
        <time>2017-12-15T10:27:25Z</time>
      </trkpt>
      <trkpt lat="46.02778" lon="4.70668">
        <ele>189</ele>
        <time>2017-12-15T10:27:26Z</time>
      </trkpt>
      <trkpt lat="46.02784" lon="4.70669">
        <ele>189</ele>
        <time>2017-12-15T10:27:27Z</time>
      </trkpt>
      <trkpt lat="46.02791" lon="4.7067">
        <ele>189</ele>
        <time>2017-12-15T10:27:28Z</time>
      </trkpt>
      <trkpt lat="46.02797" lon="4.70671">
        <ele>189</ele>
        <time>2017-12-15T10:27:29Z</time>
      </trkpt>
      <trkpt lat="46.02803" lon="4.7067">
        <ele>189</ele>
        <time>2017-12-15T10:27:30Z</time>
      </trkpt>
      <trkpt lat="46.02809" lon="4.7067">
        <ele>189</ele>
        <time>2017-12-15T10:27:31Z</time>
      </trkpt>
      <trkpt lat="46.02815" lon="4.70669">
        <ele>189</ele>
        <time>2017-12-15T10:27:32Z</time>
      </trkpt>
      <trkpt lat="46.0282" lon="4.70668">
        <ele>189</ele>
        <time>2017-12-15T10:27:33Z</time>
      </trkpt>
      <trkpt lat="46.02825" lon="4.70666">
        <ele>189</ele>
        <time>2017-12-15T10:27:34Z</time>
      </trkpt>
      <trkpt lat="46.02831" lon="4.70667">
        <ele>189</ele>
        <time>2017-12-15T10:27:35Z</time>
      </trkpt>
      <trkpt lat="46.02835" lon="4.70666">
        <ele>189</ele>
        <time>2017-12-15T10:27:36Z</time>
      </trkpt>
      <trkpt lat="46.02841" lon="4.70664">
        <ele>189</ele>
        <time>2017-12-15T10:27:37Z</time>
      </trkpt>
      <trkpt lat="46.02847" lon="4.70663">
        <ele>190</ele>
        <time>2017-12-15T10:27:38Z</time>
      </trkpt>
      <trkpt lat="46.02852" lon="4.70662">
        <ele>190</ele>
        <time>2017-12-15T10:27:39Z</time>
      </trkpt>
      <trkpt lat="46.02858" lon="4.70661">
        <ele>190</ele>
        <time>2017-12-15T10:27:40Z</time>
      </trkpt>
      <trkpt lat="46.02863" lon="4.7066">
        <ele>190</ele>
        <time>2017-12-15T10:27:41Z</time>
      </trkpt>
      <trkpt lat="46.02869" lon="4.70658">
        <ele>190</ele>
        <time>2017-12-15T10:27:42Z</time>
      </trkpt>
      <trkpt lat="46.02874" lon="4.70658">
        <ele>190</ele>
        <time>2017-12-15T10:27:43Z</time>
      </trkpt>
      <trkpt lat="46.02879" lon="4.70659">
        <ele>190</ele>
        <time>2017-12-15T10:27:44Z</time>
      </trkpt>
      <trkpt lat="46.02885" lon="4.70659">
        <ele>190</ele>
        <time>2017-12-15T10:27:45Z</time>
      </trkpt>
      <trkpt lat="46.02891" lon="4.70659">
        <ele>190</ele>
        <time>2017-12-15T10:27:46Z</time>
      </trkpt>
      <trkpt lat="46.02896" lon="4.70659">
        <ele>191</ele>
        <time>2017-12-15T10:27:47Z</time>
      </trkpt>
      <trkpt lat="46.02902" lon="4.70659">
        <ele>191</ele>
        <time>2017-12-15T10:27:48Z</time>
      </trkpt>
      <trkpt lat="46.02908" lon="4.70659">
        <ele>191</ele>
        <time>2017-12-15T10:27:49Z</time>
      </trkpt>
      <trkpt lat="46.02913" lon="4.70658">
        <ele>191</ele>
        <time>2017-12-15T10:27:50Z</time>
      </trkpt>
      <trkpt lat="46.02919" lon="4.70655">
        <ele>191</ele>
        <time>2017-12-15T10:27:51Z</time>
      </trkpt>
      <trkpt lat="46.02924" lon="4.70651">
        <ele>191</ele>
        <time>2017-12-15T10:27:52Z</time>
      </trkpt>
      <trkpt lat="46.02929" lon="4.70645">
        <ele>192</ele>
        <time>2017-12-15T10:27:53Z</time>
      </trkpt>
      <trkpt lat="46.02932" lon="4.70638">
        <ele>192</ele>
        <time>2017-12-15T10:27:54Z</time>
      </trkpt>
      <trkpt lat="46.02934" lon="4.70632">
        <ele>192</ele>
        <time>2017-12-15T10:27:55Z</time>
      </trkpt>
      <trkpt lat="46.02936" lon="4.70625">
        <ele>192</ele>
        <time>2017-12-15T10:27:56Z</time>
      </trkpt>
      <trkpt lat="46.02938" lon="4.70618">
        <ele>192</ele>
        <time>2017-12-15T10:27:57Z</time>
      </trkpt>
      <trkpt lat="46.02939" lon="4.70611">
        <ele>192</ele>
        <time>2017-12-15T10:27:58Z</time>
      </trkpt>
      <trkpt lat="46.02941" lon="4.70603">
        <ele>192</ele>
        <time>2017-12-15T10:27:59Z</time>
      </trkpt>
      <trkpt lat="46.02943" lon="4.70597">
        <ele>192</ele>
        <time>2017-12-15T10:28:00Z</time>
      </trkpt>
      <trkpt lat="46.02945" lon="4.70591">
        <ele>192</ele>
        <time>2017-12-15T10:28:01Z</time>
      </trkpt>
      <trkpt lat="46.02948" lon="4.70585">
        <ele>192</ele>
        <time>2017-12-15T10:28:02Z</time>
      </trkpt>
      <trkpt lat="46.02951" lon="4.70578">
        <ele>191</ele>
        <time>2017-12-15T10:28:03Z</time>
      </trkpt>
      <trkpt lat="46.02953" lon="4.70572">
        <ele>191</ele>
        <time>2017-12-15T10:28:04Z</time>
      </trkpt>
      <trkpt lat="46.02956" lon="4.70566">
        <ele>191</ele>
        <time>2017-12-15T10:28:05Z</time>
      </trkpt>
      <trkpt lat="46.0296" lon="4.70559">
        <ele>191</ele>
        <time>2017-12-15T10:28:06Z</time>
      </trkpt>
      <trkpt lat="46.02964" lon="4.70554">
        <ele>191</ele>
        <time>2017-12-15T10:28:07Z</time>
      </trkpt>
      <trkpt lat="46.02968" lon="4.70549">
        <ele>191</ele>
        <time>2017-12-15T10:28:08Z</time>
      </trkpt>
      <trkpt lat="46.02972" lon="4.70544">
        <ele>191</ele>
        <time>2017-12-15T10:28:09Z</time>
      </trkpt>
      <trkpt lat="46.02977" lon="4.70539">
        <ele>191</ele>
        <time>2017-12-15T10:28:10Z</time>
      </trkpt>
      <trkpt lat="46.02982" lon="4.70534">
        <ele>191</ele>
        <time>2017-12-15T10:28:11Z</time>
      </trkpt>
      <trkpt lat="46.02986" lon="4.7053">
        <ele>191</ele>
        <time>2017-12-15T10:28:12Z</time>
      </trkpt>
      <trkpt lat="46.0299" lon="4.70525">
        <ele>191</ele>
        <time>2017-12-15T10:28:13Z</time>
      </trkpt>
      <trkpt lat="46.02994" lon="4.70522">
        <ele>191</ele>
        <time>2017-12-15T10:28:14Z</time>
      </trkpt>
      <trkpt lat="46.02998" lon="4.70518">
        <ele>191</ele>
        <time>2017-12-15T10:28:15Z</time>
      </trkpt>
      <trkpt lat="46.03002" lon="4.70515">
        <ele>191</ele>
        <time>2017-12-15T10:28:16Z</time>
      </trkpt>
      <trkpt lat="46.03006" lon="4.70511">
        <ele>191</ele>
        <time>2017-12-15T10:28:17Z</time>
      </trkpt>
      <trkpt lat="46.0301" lon="4.70507">
        <ele>191</ele>
        <time>2017-12-15T10:28:18Z</time>
      </trkpt>
      <trkpt lat="46.03015" lon="4.70502">
        <ele>191</ele>
        <time>2017-12-15T10:28:19Z</time>
      </trkpt>
      <trkpt lat="46.03019" lon="4.70498">
        <ele>191</ele>
        <time>2017-12-15T10:28:20Z</time>
      </trkpt>
      <trkpt lat="46.03023" lon="4.70493">
        <ele>191</ele>
        <time>2017-12-15T10:28:21Z</time>
      </trkpt>
      <trkpt lat="46.03027" lon="4.70489">
        <ele>191</ele>
        <time>2017-12-15T10:28:22Z</time>
      </trkpt>
      <trkpt lat="46.03032" lon="4.70486">
        <ele>191</ele>
        <time>2017-12-15T10:28:23Z</time>
      </trkpt>
      <trkpt lat="46.03037" lon="4.70481">
        <ele>191</ele>
        <time>2017-12-15T10:28:24Z</time>
      </trkpt>
      <trkpt lat="46.03041" lon="4.70478">
        <ele>191</ele>
        <time>2017-12-15T10:28:25Z</time>
      </trkpt>
      <trkpt lat="46.03046" lon="4.70473">
        <ele>191</ele>
        <time>2017-12-15T10:28:26Z</time>
      </trkpt>
      <trkpt lat="46.0305" lon="4.70469">
        <ele>191</ele>
        <time>2017-12-15T10:28:27Z</time>
      </trkpt>
      <trkpt lat="46.03054" lon="4.70464">
        <ele>191</ele>
        <time>2017-12-15T10:28:28Z</time>
      </trkpt>
      <trkpt lat="46.03059" lon="4.70459">
        <ele>191</ele>
        <time>2017-12-15T10:28:29Z</time>
      </trkpt>
      <trkpt lat="46.03062" lon="4.70455">
        <ele>191</ele>
        <time>2017-12-15T10:28:30Z</time>
      </trkpt>
      <trkpt lat="46.03066" lon="4.70452">
        <ele>191</ele>
        <time>2017-12-15T10:28:31Z</time>
      </trkpt>
      <trkpt lat="46.03071" lon="4.70448">
        <ele>191</ele>
        <time>2017-12-15T10:28:32Z</time>
      </trkpt>
      <trkpt lat="46.03075" lon="4.70446">
        <ele>191</ele>
        <time>2017-12-15T10:28:33Z</time>
      </trkpt>
      <trkpt lat="46.03079" lon="4.70444">
        <ele>191</ele>
        <time>2017-12-15T10:28:34Z</time>
      </trkpt>
      <trkpt lat="46.03083" lon="4.70442">
        <ele>191</ele>
        <time>2017-12-15T10:28:35Z</time>
      </trkpt>
      <trkpt lat="46.03088" lon="4.7044">
        <ele>192</ele>
        <time>2017-12-15T10:28:36Z</time>
      </trkpt>
      <trkpt lat="46.03096" lon="4.70436">
        <ele>192</ele>
        <time>2017-12-15T10:28:38Z</time>
      </trkpt>
      <trkpt lat="46.03102" lon="4.70434">
        <ele>192</ele>
        <time>2017-12-15T10:28:39Z</time>
      </trkpt>
      <trkpt lat="46.03107" lon="4.70433">
        <ele>192</ele>
        <time>2017-12-15T10:28:40Z</time>
      </trkpt>
      <trkpt lat="46.03112" lon="4.7043">
        <ele>192</ele>
        <time>2017-12-15T10:28:41Z</time>
      </trkpt>
      <trkpt lat="46.03118" lon="4.70427">
        <ele>192</ele>
        <time>2017-12-15T10:28:42Z</time>
      </trkpt>
      <trkpt lat="46.03124" lon="4.70424">
        <ele>192</ele>
        <time>2017-12-15T10:28:43Z</time>
      </trkpt>
      <trkpt lat="46.03129" lon="4.70422">
        <ele>192</ele>
        <time>2017-12-15T10:28:44Z</time>
      </trkpt>
      <trkpt lat="46.03135" lon="4.7042">
        <ele>192</ele>
        <time>2017-12-15T10:28:45Z</time>
      </trkpt>
      <trkpt lat="46.0314" lon="4.70418">
        <ele>192</ele>
        <time>2017-12-15T10:28:46Z</time>
      </trkpt>
      <trkpt lat="46.03145" lon="4.70415">
        <ele>192</ele>
        <time>2017-12-15T10:28:47Z</time>
      </trkpt>
      <trkpt lat="46.03151" lon="4.70412">
        <ele>192</ele>
        <time>2017-12-15T10:28:48Z</time>
      </trkpt>
      <trkpt lat="46.03156" lon="4.70408">
        <ele>192</ele>
        <time>2017-12-15T10:28:49Z</time>
      </trkpt>
      <trkpt lat="46.03161" lon="4.70405">
        <ele>192</ele>
        <time>2017-12-15T10:28:50Z</time>
      </trkpt>
      <trkpt lat="46.03167" lon="4.70401">
        <ele>192</ele>
        <time>2017-12-15T10:28:51Z</time>
      </trkpt>
      <trkpt lat="46.03172" lon="4.70398">
        <ele>192</ele>
        <time>2017-12-15T10:28:52Z</time>
      </trkpt>
      <trkpt lat="46.03177" lon="4.70395">
        <ele>192</ele>
        <time>2017-12-15T10:28:53Z</time>
      </trkpt>
      <trkpt lat="46.03182" lon="4.70393">
        <ele>192</ele>
        <time>2017-12-15T10:28:54Z</time>
      </trkpt>
      <trkpt lat="46.03186" lon="4.7039">
        <ele>192</ele>
        <time>2017-12-15T10:28:55Z</time>
      </trkpt>
      <trkpt lat="46.03191" lon="4.70388">
        <ele>192</ele>
        <time>2017-12-15T10:28:56Z</time>
      </trkpt>
      <trkpt lat="46.03196" lon="4.70386">
        <ele>192</ele>
        <time>2017-12-15T10:28:57Z</time>
      </trkpt>
      <trkpt lat="46.03201" lon="4.70383">
        <ele>192</ele>
        <time>2017-12-15T10:28:58Z</time>
      </trkpt>
      <trkpt lat="46.03206" lon="4.70381">
        <ele>192</ele>
        <time>2017-12-15T10:28:59Z</time>
      </trkpt>
      <trkpt lat="46.03211" lon="4.70378">
        <ele>192</ele>
        <time>2017-12-15T10:29:00Z</time>
      </trkpt>
      <trkpt lat="46.03217" lon="4.70374">
        <ele>192</ele>
        <time>2017-12-15T10:29:01Z</time>
      </trkpt>
      <trkpt lat="46.03222" lon="4.70372">
        <ele>192</ele>
        <time>2017-12-15T10:29:02Z</time>
      </trkpt>
      <trkpt lat="46.03229" lon="4.70368">
        <ele>192</ele>
        <time>2017-12-15T10:29:03Z</time>
      </trkpt>
      <trkpt lat="46.03234" lon="4.70366">
        <ele>192</ele>
        <time>2017-12-15T10:29:04Z</time>
      </trkpt>
      <trkpt lat="46.0324" lon="4.70364">
        <ele>192</ele>
        <time>2017-12-15T10:29:05Z</time>
      </trkpt>
      <trkpt lat="46.03245" lon="4.70362">
        <ele>192</ele>
        <time>2017-12-15T10:29:06Z</time>
      </trkpt>
      <trkpt lat="46.03251" lon="4.70359">
        <ele>191</ele>
        <time>2017-12-15T10:29:07Z</time>
      </trkpt>
      <trkpt lat="46.03257" lon="4.70357">
        <ele>191</ele>
        <time>2017-12-15T10:29:08Z</time>
      </trkpt>
      <trkpt lat="46.03262" lon="4.70355">
        <ele>191</ele>
        <time>2017-12-15T10:29:09Z</time>
      </trkpt>
      <trkpt lat="46.03268" lon="4.70353">
        <ele>191</ele>
        <time>2017-12-15T10:29:10Z</time>
      </trkpt>
      <trkpt lat="46.03273" lon="4.7035">
        <ele>191</ele>
        <time>2017-12-15T10:29:11Z</time>
      </trkpt>
      <trkpt lat="46.03278" lon="4.70348">
        <ele>191</ele>
        <time>2017-12-15T10:29:12Z</time>
      </trkpt>
      <trkpt lat="46.03284" lon="4.70346">
        <ele>191</ele>
        <time>2017-12-15T10:29:13Z</time>
      </trkpt>
      <trkpt lat="46.03291" lon="4.70343">
        <ele>191</ele>
        <time>2017-12-15T10:29:14Z</time>
      </trkpt>
      <trkpt lat="46.03297" lon="4.7034">
        <ele>191</ele>
        <time>2017-12-15T10:29:15Z</time>
      </trkpt>
      <trkpt lat="46.03303" lon="4.70337">
        <ele>191</ele>
        <time>2017-12-15T10:29:16Z</time>
      </trkpt>
      <trkpt lat="46.03308" lon="4.70335">
        <ele>191</ele>
        <time>2017-12-15T10:29:17Z</time>
      </trkpt>
      <trkpt lat="46.03315" lon="4.70333">
        <ele>192</ele>
        <time>2017-12-15T10:29:18Z</time>
      </trkpt>
      <trkpt lat="46.0332" lon="4.70331">
        <ele>192</ele>
        <time>2017-12-15T10:29:19Z</time>
      </trkpt>
      <trkpt lat="46.03326" lon="4.70328">
        <ele>192</ele>
        <time>2017-12-15T10:29:20Z</time>
      </trkpt>
      <trkpt lat="46.03332" lon="4.70327">
        <ele>191</ele>
        <time>2017-12-15T10:29:21Z</time>
      </trkpt>
      <trkpt lat="46.03338" lon="4.70326">
        <ele>191</ele>
        <time>2017-12-15T10:29:22Z</time>
      </trkpt>
      <trkpt lat="46.03344" lon="4.70324">
        <ele>191</ele>
        <time>2017-12-15T10:29:23Z</time>
      </trkpt>
      <trkpt lat="46.03351" lon="4.70321">
        <ele>191</ele>
        <time>2017-12-15T10:29:24Z</time>
      </trkpt>
      <trkpt lat="46.03357" lon="4.70319">
        <ele>191</ele>
        <time>2017-12-15T10:29:25Z</time>
      </trkpt>
      <trkpt lat="46.03363" lon="4.70317">
        <ele>191</ele>
        <time>2017-12-15T10:29:26Z</time>
      </trkpt>
      <trkpt lat="46.0337" lon="4.70314">
        <ele>191</ele>
        <time>2017-12-15T10:29:27Z</time>
      </trkpt>
      <trkpt lat="46.03376" lon="4.70312">
        <ele>191</ele>
        <time>2017-12-15T10:29:28Z</time>
      </trkpt>
      <trkpt lat="46.03382" lon="4.7031">
        <ele>191</ele>
        <time>2017-12-15T10:29:29Z</time>
      </trkpt>
      <trkpt lat="46.03389" lon="4.70306">
        <ele>191</ele>
        <time>2017-12-15T10:29:30Z</time>
      </trkpt>
      <trkpt lat="46.03395" lon="4.70304">
        <ele>191</ele>
        <time>2017-12-15T10:29:31Z</time>
      </trkpt>
      <trkpt lat="46.03402" lon="4.70301">
        <ele>190</ele>
        <time>2017-12-15T10:29:32Z</time>
      </trkpt>
      <trkpt lat="46.03409" lon="4.70298">
        <ele>190</ele>
        <time>2017-12-15T10:29:33Z</time>
      </trkpt>
      <trkpt lat="46.03415" lon="4.70295">
        <ele>191</ele>
        <time>2017-12-15T10:29:34Z</time>
      </trkpt>
      <trkpt lat="46.03421" lon="4.70292">
        <ele>189</ele>
        <time>2017-12-15T10:29:35Z</time>
      </trkpt>
      <trkpt lat="46.03427" lon="4.7029">
        <ele>189</ele>
        <time>2017-12-15T10:29:36Z</time>
      </trkpt>
      <trkpt lat="46.03433" lon="4.70287">
        <ele>189</ele>
        <time>2017-12-15T10:29:37Z</time>
      </trkpt>
      <trkpt lat="46.03439" lon="4.70286">
        <ele>188</ele>
        <time>2017-12-15T10:29:38Z</time>
      </trkpt>
      <trkpt lat="46.03446" lon="4.70284">
        <ele>188</ele>
        <time>2017-12-15T10:29:39Z</time>
      </trkpt>
      <trkpt lat="46.03452" lon="4.70282">
        <ele>188</ele>
        <time>2017-12-15T10:29:40Z</time>
      </trkpt>
      <trkpt lat="46.03458" lon="4.7028">
        <ele>188</ele>
        <time>2017-12-15T10:29:41Z</time>
      </trkpt>
      <trkpt lat="46.03464" lon="4.70278">
        <ele>188</ele>
        <time>2017-12-15T10:29:42Z</time>
      </trkpt>
      <trkpt lat="46.0347" lon="4.70276">
        <ele>188</ele>
        <time>2017-12-15T10:29:43Z</time>
      </trkpt>
      <trkpt lat="46.03475" lon="4.70275">
        <ele>188</ele>
        <time>2017-12-15T10:29:44Z</time>
      </trkpt>
      <trkpt lat="46.0348" lon="4.70273">
        <ele>188</ele>
        <time>2017-12-15T10:29:45Z</time>
      </trkpt>
      <trkpt lat="46.03486" lon="4.7027">
        <ele>188</ele>
        <time>2017-12-15T10:29:46Z</time>
      </trkpt>
      <trkpt lat="46.03494" lon="4.70267">
        <ele>187</ele>
        <time>2017-12-15T10:29:47Z</time>
      </trkpt>
      <trkpt lat="46.03499" lon="4.70265">
        <ele>187</ele>
        <time>2017-12-15T10:29:48Z</time>
      </trkpt>
      <trkpt lat="46.03507" lon="4.70262">
        <ele>187</ele>
        <time>2017-12-15T10:29:49Z</time>
      </trkpt>
      <trkpt lat="46.03513" lon="4.7026">
        <ele>187</ele>
        <time>2017-12-15T10:29:50Z</time>
      </trkpt>
      <trkpt lat="46.03517" lon="4.70258">
        <ele>187</ele>
        <time>2017-12-15T10:29:51Z</time>
      </trkpt>
      <trkpt lat="46.03524" lon="4.70255">
        <ele>187</ele>
        <time>2017-12-15T10:29:52Z</time>
      </trkpt>
      <trkpt lat="46.0353" lon="4.70253">
        <ele>187</ele>
        <time>2017-12-15T10:29:53Z</time>
      </trkpt>
      <trkpt lat="46.03535" lon="4.70251">
        <ele>188</ele>
        <time>2017-12-15T10:29:54Z</time>
      </trkpt>
      <trkpt lat="46.03541" lon="4.70249">
        <ele>189</ele>
        <time>2017-12-15T10:29:55Z</time>
      </trkpt>
      <trkpt lat="46.03546" lon="4.70247">
        <ele>189</ele>
        <time>2017-12-15T10:29:56Z</time>
      </trkpt>
      <trkpt lat="46.03551" lon="4.70244">
        <ele>190</ele>
        <time>2017-12-15T10:29:57Z</time>
      </trkpt>
      <trkpt lat="46.03555" lon="4.70241">
        <ele>190</ele>
        <time>2017-12-15T10:29:58Z</time>
      </trkpt>
      <trkpt lat="46.0356" lon="4.70239">
        <ele>190</ele>
        <time>2017-12-15T10:29:59Z</time>
      </trkpt>
      <trkpt lat="46.03567" lon="4.70236">
        <ele>190</ele>
        <time>2017-12-15T10:30:00Z</time>
      </trkpt>
      <trkpt lat="46.03572" lon="4.70235">
        <ele>190</ele>
        <time>2017-12-15T10:30:01Z</time>
      </trkpt>
      <trkpt lat="46.03578" lon="4.70233">
        <ele>190</ele>
        <time>2017-12-15T10:30:02Z</time>
      </trkpt>
      <trkpt lat="46.03584" lon="4.70232">
        <ele>190</ele>
        <time>2017-12-15T10:30:03Z</time>
      </trkpt>
      <trkpt lat="46.0359" lon="4.70229">
        <ele>190</ele>
        <time>2017-12-15T10:30:04Z</time>
      </trkpt>
      <trkpt lat="46.03596" lon="4.70228">
        <ele>190</ele>
        <time>2017-12-15T10:30:05Z</time>
      </trkpt>
      <trkpt lat="46.03601" lon="4.70226">
        <ele>190</ele>
        <time>2017-12-15T10:30:06Z</time>
      </trkpt>
      <trkpt lat="46.03606" lon="4.70225">
        <ele>190</ele>
        <time>2017-12-15T10:30:07Z</time>
      </trkpt>
      <trkpt lat="46.03612" lon="4.70223">
        <ele>190</ele>
        <time>2017-12-15T10:30:08Z</time>
      </trkpt>
      <trkpt lat="46.03616" lon="4.70221">
        <ele>190</ele>
        <time>2017-12-15T10:30:09Z</time>
      </trkpt>
      <trkpt lat="46.0362" lon="4.70219">
        <ele>190</ele>
        <time>2017-12-15T10:30:10Z</time>
      </trkpt>
      <trkpt lat="46.03626" lon="4.70217">
        <ele>190</ele>
        <time>2017-12-15T10:30:11Z</time>
      </trkpt>
      <trkpt lat="46.03631" lon="4.70215">
        <ele>190</ele>
        <time>2017-12-15T10:30:12Z</time>
      </trkpt>
      <trkpt lat="46.03637" lon="4.70213">
        <ele>190</ele>
        <time>2017-12-15T10:30:13Z</time>
      </trkpt>
      <trkpt lat="46.03645" lon="4.70212">
        <ele>190</ele>
        <time>2017-12-15T10:30:15Z</time>
      </trkpt>
      <trkpt lat="46.03654" lon="4.70208">
        <ele>190</ele>
        <time>2017-12-15T10:30:16Z</time>
      </trkpt>
      <trkpt lat="46.03662" lon="4.70206">
        <ele>190</ele>
        <time>2017-12-15T10:30:17Z</time>
      </trkpt>
      <trkpt lat="46.03666" lon="4.70204">
        <ele>190</ele>
        <time>2017-12-15T10:30:18Z</time>
      </trkpt>
      <trkpt lat="46.03672" lon="4.702">
        <ele>189</ele>
        <time>2017-12-15T10:30:19Z</time>
      </trkpt>
      <trkpt lat="46.03679" lon="4.70196">
        <ele>189</ele>
        <time>2017-12-15T10:30:20Z</time>
      </trkpt>
      <trkpt lat="46.03685" lon="4.70195">
        <ele>189</ele>
        <time>2017-12-15T10:30:21Z</time>
      </trkpt>
      <trkpt lat="46.03693" lon="4.70192">
        <ele>189</ele>
        <time>2017-12-15T10:30:22Z</time>
      </trkpt>
      <trkpt lat="46.03698" lon="4.70191">
        <ele>189</ele>
        <time>2017-12-15T10:30:23Z</time>
      </trkpt>
      <trkpt lat="46.03704" lon="4.70187">
        <ele>189</ele>
        <time>2017-12-15T10:30:24Z</time>
      </trkpt>
      <trkpt lat="46.03711" lon="4.70184">
        <ele>188</ele>
        <time>2017-12-15T10:30:25Z</time>
      </trkpt>
      <trkpt lat="46.03716" lon="4.70182">
        <ele>188</ele>
        <time>2017-12-15T10:30:26Z</time>
      </trkpt>
      <trkpt lat="46.03721" lon="4.70179">
        <ele>188</ele>
        <time>2017-12-15T10:30:27Z</time>
      </trkpt>
      <trkpt lat="46.03727" lon="4.70176">
        <ele>188</ele>
        <time>2017-12-15T10:30:28Z</time>
      </trkpt>
      <trkpt lat="46.03732" lon="4.70175">
        <ele>188</ele>
        <time>2017-12-15T10:30:29Z</time>
      </trkpt>
      <trkpt lat="46.03739" lon="4.70172">
        <ele>188</ele>
        <time>2017-12-15T10:30:30Z</time>
      </trkpt>
      <trkpt lat="46.03747" lon="4.70168">
        <ele>187</ele>
        <time>2017-12-15T10:30:32Z</time>
      </trkpt>
      <trkpt lat="46.03751" lon="4.70166">
        <ele>187</ele>
        <time>2017-12-15T10:30:33Z</time>
      </trkpt>
      <trkpt lat="46.03757" lon="4.70164">
        <ele>188</ele>
        <time>2017-12-15T10:30:34Z</time>
      </trkpt>
      <trkpt lat="46.03762" lon="4.70162">
        <ele>188</ele>
        <time>2017-12-15T10:30:35Z</time>
      </trkpt>
      <trkpt lat="46.03766" lon="4.70159">
        <ele>188</ele>
        <time>2017-12-15T10:30:36Z</time>
      </trkpt>
      <trkpt lat="46.03771" lon="4.70157">
        <ele>188</ele>
        <time>2017-12-15T10:30:37Z</time>
      </trkpt>
      <trkpt lat="46.03776" lon="4.70155">
        <ele>189</ele>
        <time>2017-12-15T10:30:38Z</time>
      </trkpt>
      <trkpt lat="46.0378" lon="4.70155">
        <ele>189</ele>
        <time>2017-12-15T10:30:39Z</time>
      </trkpt>
      <trkpt lat="46.03788" lon="4.70152">
        <ele>189</ele>
        <time>2017-12-15T10:30:41Z</time>
      </trkpt>
      <trkpt lat="46.03791" lon="4.70151">
        <ele>189</ele>
        <time>2017-12-15T10:30:42Z</time>
      </trkpt>
      <trkpt lat="46.03796" lon="4.70149">
        <ele>189</ele>
        <time>2017-12-15T10:30:43Z</time>
      </trkpt>
      <trkpt lat="46.03801" lon="4.70149">
        <ele>189</ele>
        <time>2017-12-15T10:30:44Z</time>
      </trkpt>
      <trkpt lat="46.03806" lon="4.70146">
        <ele>190</ele>
        <time>2017-12-15T10:30:45Z</time>
      </trkpt>
      <trkpt lat="46.0381" lon="4.70144">
        <ele>190</ele>
        <time>2017-12-15T10:30:46Z</time>
      </trkpt>
      <trkpt lat="46.03815" lon="4.70142">
        <ele>190</ele>
        <time>2017-12-15T10:30:47Z</time>
      </trkpt>
      <trkpt lat="46.03822" lon="4.7014">
        <ele>190</ele>
        <time>2017-12-15T10:30:48Z</time>
      </trkpt>
      <trkpt lat="46.0383" lon="4.70137">
        <ele>190</ele>
        <time>2017-12-15T10:30:50Z</time>
      </trkpt>
      <trkpt lat="46.03836" lon="4.70134">
        <ele>192</ele>
        <time>2017-12-15T10:30:51Z</time>
      </trkpt>
      <trkpt lat="46.03842" lon="4.70131">
        <ele>192</ele>
        <time>2017-12-15T10:30:52Z</time>
      </trkpt>
      <trkpt lat="46.03848" lon="4.7013">
        <ele>192</ele>
        <time>2017-12-15T10:30:53Z</time>
      </trkpt>
      <trkpt lat="46.03855" lon="4.70128">
        <ele>192</ele>
        <time>2017-12-15T10:30:54Z</time>
      </trkpt>
      <trkpt lat="46.0386" lon="4.70126">
        <ele>193</ele>
        <time>2017-12-15T10:30:55Z</time>
      </trkpt>
      <trkpt lat="46.03866" lon="4.70124">
        <ele>193</ele>
        <time>2017-12-15T10:30:56Z</time>
      </trkpt>
      <trkpt lat="46.03873" lon="4.70123">
        <ele>193</ele>
        <time>2017-12-15T10:30:57Z</time>
      </trkpt>
      <trkpt lat="46.03877" lon="4.70121">
        <ele>193</ele>
        <time>2017-12-15T10:30:58Z</time>
      </trkpt>
      <trkpt lat="46.03882" lon="4.70118">
        <ele>193</ele>
        <time>2017-12-15T10:30:59Z</time>
      </trkpt>
      <trkpt lat="46.03886" lon="4.70114">
        <ele>193</ele>
        <time>2017-12-15T10:31:00Z</time>
      </trkpt>
      <trkpt lat="46.03891" lon="4.70111">
        <ele>193</ele>
        <time>2017-12-15T10:31:01Z</time>
      </trkpt>
      <trkpt lat="46.03896" lon="4.7011">
        <ele>194</ele>
        <time>2017-12-15T10:31:02Z</time>
      </trkpt>
      <trkpt lat="46.03901" lon="4.70108">
        <ele>194</ele>
        <time>2017-12-15T10:31:03Z</time>
      </trkpt>
      <trkpt lat="46.03907" lon="4.70106">
        <ele>194</ele>
        <time>2017-12-15T10:31:04Z</time>
      </trkpt>
      <trkpt lat="46.03912" lon="4.70105">
        <ele>194</ele>
        <time>2017-12-15T10:31:05Z</time>
      </trkpt>
      <trkpt lat="46.03917" lon="4.70102">
        <ele>194</ele>
        <time>2017-12-15T10:31:06Z</time>
      </trkpt>
      <trkpt lat="46.03923" lon="4.70101">
        <ele>195</ele>
        <time>2017-12-15T10:31:07Z</time>
      </trkpt>
      <trkpt lat="46.03929" lon="4.70099">
        <ele>195</ele>
        <time>2017-12-15T10:31:08Z</time>
      </trkpt>
      <trkpt lat="46.03934" lon="4.70097">
        <ele>195</ele>
        <time>2017-12-15T10:31:09Z</time>
      </trkpt>
      <trkpt lat="46.03941" lon="4.70094">
        <ele>196</ele>
        <time>2017-12-15T10:31:11Z</time>
      </trkpt>
      <trkpt lat="46.03945" lon="4.70091">
        <ele>196</ele>
        <time>2017-12-15T10:31:12Z</time>
      </trkpt>
      <trkpt lat="46.03949" lon="4.70091">
        <ele>196</ele>
        <time>2017-12-15T10:31:13Z</time>
      </trkpt>
      <trkpt lat="46.03955" lon="4.70091">
        <ele>196</ele>
        <time>2017-12-15T10:31:14Z</time>
      </trkpt>
      <trkpt lat="46.0396" lon="4.70089">
        <ele>196</ele>
        <time>2017-12-15T10:31:15Z</time>
      </trkpt>
      <trkpt lat="46.03966" lon="4.70088">
        <ele>196</ele>
        <time>2017-12-15T10:31:16Z</time>
      </trkpt>
      <trkpt lat="46.03973" lon="4.7009">
        <ele>196</ele>
        <time>2017-12-15T10:31:18Z</time>
      </trkpt>
      <trkpt lat="46.03979" lon="4.70089">
        <ele>196</ele>
        <time>2017-12-15T10:31:19Z</time>
      </trkpt>
      <trkpt lat="46.03984" lon="4.70089">
        <ele>196</ele>
        <time>2017-12-15T10:31:20Z</time>
      </trkpt>
      <trkpt lat="46.0399" lon="4.70088">
        <ele>196</ele>
        <time>2017-12-15T10:31:21Z</time>
      </trkpt>
      <trkpt lat="46.03994" lon="4.70088">
        <ele>196</ele>
        <time>2017-12-15T10:31:22Z</time>
      </trkpt>
      <trkpt lat="46.04001" lon="4.70086">
        <ele>196</ele>
        <time>2017-12-15T10:31:23Z</time>
      </trkpt>
      <trkpt lat="46.04007" lon="4.70084">
        <ele>196</ele>
        <time>2017-12-15T10:31:24Z</time>
      </trkpt>
      <trkpt lat="46.04013" lon="4.70083">
        <ele>195</ele>
        <time>2017-12-15T10:31:25Z</time>
      </trkpt>
      <trkpt lat="46.04018" lon="4.70081">
        <ele>195</ele>
        <time>2017-12-15T10:31:26Z</time>
      </trkpt>
      <trkpt lat="46.04026" lon="4.70081">
        <ele>195</ele>
        <time>2017-12-15T10:31:27Z</time>
      </trkpt>
      <trkpt lat="46.04033" lon="4.7008">
        <ele>195</ele>
        <time>2017-12-15T10:31:28Z</time>
      </trkpt>
      <trkpt lat="46.04039" lon="4.70082">
        <ele>195</ele>
        <time>2017-12-15T10:31:29Z</time>
      </trkpt>
      <trkpt lat="46.04045" lon="4.70081">
        <ele>194</ele>
        <time>2017-12-15T10:31:30Z</time>
      </trkpt>
      <trkpt lat="46.04051" lon="4.70081">
        <ele>194</ele>
        <time>2017-12-15T10:31:31Z</time>
      </trkpt>
      <trkpt lat="46.04056" lon="4.70081">
        <ele>194</ele>
        <time>2017-12-15T10:31:32Z</time>
      </trkpt>
      <trkpt lat="46.04062" lon="4.70079">
        <ele>194</ele>
        <time>2017-12-15T10:31:33Z</time>
      </trkpt>
      <trkpt lat="46.04068" lon="4.70079">
        <ele>194</ele>
        <time>2017-12-15T10:31:34Z</time>
      </trkpt>
      <trkpt lat="46.04072" lon="4.70079">
        <ele>194</ele>
        <time>2017-12-15T10:31:35Z</time>
      </trkpt>
      <trkpt lat="46.04078" lon="4.70078">
        <ele>194</ele>
        <time>2017-12-15T10:31:36Z</time>
      </trkpt>
      <trkpt lat="46.04082" lon="4.70078">
        <ele>194</ele>
        <time>2017-12-15T10:31:37Z</time>
      </trkpt>
      <trkpt lat="46.04087" lon="4.70079">
        <ele>194</ele>
        <time>2017-12-15T10:31:38Z</time>
      </trkpt>
      <trkpt lat="46.04092" lon="4.70078">
        <ele>193</ele>
        <time>2017-12-15T10:31:39Z</time>
      </trkpt>
      <trkpt lat="46.04096" lon="4.70075">
        <ele>193</ele>
        <time>2017-12-15T10:31:40Z</time>
      </trkpt>
      <trkpt lat="46.04101" lon="4.70073">
        <ele>193</ele>
        <time>2017-12-15T10:31:41Z</time>
      </trkpt>
      <trkpt lat="46.04105" lon="4.7007">
        <ele>193</ele>
        <time>2017-12-15T10:31:42Z</time>
      </trkpt>
      <trkpt lat="46.0411" lon="4.70066">
        <ele>192</ele>
        <time>2017-12-15T10:31:43Z</time>
      </trkpt>
      <trkpt lat="46.04115" lon="4.70062">
        <ele>192</ele>
        <time>2017-12-15T10:31:44Z</time>
      </trkpt>
      <trkpt lat="46.0412" lon="4.7006">
        <ele>192</ele>
        <time>2017-12-15T10:31:45Z</time>
      </trkpt>
      <trkpt lat="46.04127" lon="4.70057">
        <ele>192</ele>
        <time>2017-12-15T10:31:46Z</time>
      </trkpt>
      <trkpt lat="46.04132" lon="4.70054">
        <ele>192</ele>
        <time>2017-12-15T10:31:47Z</time>
      </trkpt>
      <trkpt lat="46.04137" lon="4.70049">
        <ele>192</ele>
        <time>2017-12-15T10:31:49Z</time>
      </trkpt>
      <trkpt lat="46.0414" lon="4.70046">
        <ele>192</ele>
        <time>2017-12-15T10:31:50Z</time>
      </trkpt>
      <trkpt lat="46.04147" lon="4.70041">
        <ele>191</ele>
        <time>2017-12-15T10:31:51Z</time>
      </trkpt>
      <trkpt lat="46.04154" lon="4.70037">
        <ele>191</ele>
        <time>2017-12-15T10:31:52Z</time>
      </trkpt>
      <trkpt lat="46.04159" lon="4.70035">
        <ele>191</ele>
        <time>2017-12-15T10:31:53Z</time>
      </trkpt>
      <trkpt lat="46.04165" lon="4.7003">
        <ele>191</ele>
        <time>2017-12-15T10:31:54Z</time>
      </trkpt>
      <trkpt lat="46.04171" lon="4.70025">
        <ele>189</ele>
        <time>2017-12-15T10:31:55Z</time>
      </trkpt>
      <trkpt lat="46.04176" lon="4.70024">
        <ele>189</ele>
        <time>2017-12-15T10:31:56Z</time>
      </trkpt>
      <trkpt lat="46.04183" lon="4.70022">
        <ele>189</ele>
        <time>2017-12-15T10:31:57Z</time>
      </trkpt>
      <trkpt lat="46.04191" lon="4.70017">
        <ele>188</ele>
        <time>2017-12-15T10:31:58Z</time>
      </trkpt>
      <trkpt lat="46.04198" lon="4.70013">
        <ele>188</ele>
        <time>2017-12-15T10:31:59Z</time>
      </trkpt>
      <trkpt lat="46.04203" lon="4.70007">
        <ele>188</ele>
        <time>2017-12-15T10:32:00Z</time>
      </trkpt>
      <trkpt lat="46.0421" lon="4.7">
        <ele>188</ele>
        <time>2017-12-15T10:32:01Z</time>
      </trkpt>
      <trkpt lat="46.04214" lon="4.69997">
        <ele>188</ele>
        <time>2017-12-15T10:32:02Z</time>
      </trkpt>
      <trkpt lat="46.04218" lon="4.69992">
        <ele>188</ele>
        <time>2017-12-15T10:32:03Z</time>
      </trkpt>
      <trkpt lat="46.04223" lon="4.69988">
        <ele>188</ele>
        <time>2017-12-15T10:32:04Z</time>
      </trkpt>
      <trkpt lat="46.04227" lon="4.69983">
        <ele>188</ele>
        <time>2017-12-15T10:32:05Z</time>
      </trkpt>
      <trkpt lat="46.04231" lon="4.69981">
        <ele>188</ele>
        <time>2017-12-15T10:32:06Z</time>
      </trkpt>
      <trkpt lat="46.04236" lon="4.69976">
        <ele>188</ele>
        <time>2017-12-15T10:32:07Z</time>
      </trkpt>
      <trkpt lat="46.04239" lon="4.69971">
        <ele>188</ele>
        <time>2017-12-15T10:32:08Z</time>
      </trkpt>
      <trkpt lat="46.04243" lon="4.69966">
        <ele>188</ele>
        <time>2017-12-15T10:32:09Z</time>
      </trkpt>
      <trkpt lat="46.04248" lon="4.6996">
        <ele>188</ele>
        <time>2017-12-15T10:32:10Z</time>
      </trkpt>
      <trkpt lat="46.04252" lon="4.69956">
        <ele>188</ele>
        <time>2017-12-15T10:32:11Z</time>
      </trkpt>
      <trkpt lat="46.04255" lon="4.69952">
        <ele>188</ele>
        <time>2017-12-15T10:32:12Z</time>
      </trkpt>
      <trkpt lat="46.04259" lon="4.69947">
        <ele>188</ele>
        <time>2017-12-15T10:32:13Z</time>
      </trkpt>
      <trkpt lat="46.04264" lon="4.69943">
        <ele>188</ele>
        <time>2017-12-15T10:32:14Z</time>
      </trkpt>
      <trkpt lat="46.04268" lon="4.69938">
        <ele>189</ele>
        <time>2017-12-15T10:32:15Z</time>
      </trkpt>
      <trkpt lat="46.04273" lon="4.69935">
        <ele>189</ele>
        <time>2017-12-15T10:32:16Z</time>
      </trkpt>
      <trkpt lat="46.04277" lon="4.6993">
        <ele>189</ele>
        <time>2017-12-15T10:32:17Z</time>
      </trkpt>
      <trkpt lat="46.04281" lon="4.69926">
        <ele>189</ele>
        <time>2017-12-15T10:32:18Z</time>
      </trkpt>
      <trkpt lat="46.04285" lon="4.69922">
        <ele>189</ele>
        <time>2017-12-15T10:32:19Z</time>
      </trkpt>
      <trkpt lat="46.04289" lon="4.69918">
        <ele>189</ele>
        <time>2017-12-15T10:32:20Z</time>
      </trkpt>
      <trkpt lat="46.04293" lon="4.69914">
        <ele>190</ele>
        <time>2017-12-15T10:32:21Z</time>
      </trkpt>
      <trkpt lat="46.04298" lon="4.69911">
        <ele>190</ele>
        <time>2017-12-15T10:32:22Z</time>
      </trkpt>
      <trkpt lat="46.04303" lon="4.69907">
        <ele>190</ele>
        <time>2017-12-15T10:32:23Z</time>
      </trkpt>
      <trkpt lat="46.04307" lon="4.69903">
        <ele>190</ele>
        <time>2017-12-15T10:32:24Z</time>
      </trkpt>
      <trkpt lat="46.0431" lon="4.69898">
        <ele>190</ele>
        <time>2017-12-15T10:32:25Z</time>
      </trkpt>
      <trkpt lat="46.04314" lon="4.69893">
        <ele>190</ele>
        <time>2017-12-15T10:32:26Z</time>
      </trkpt>
      <trkpt lat="46.04321" lon="4.69885">
        <ele>190</ele>
        <time>2017-12-15T10:32:28Z</time>
      </trkpt>
      <trkpt lat="46.04324" lon="4.69879">
        <ele>190</ele>
        <time>2017-12-15T10:32:29Z</time>
      </trkpt>
      <trkpt lat="46.04326" lon="4.69873">
        <ele>191</ele>
        <time>2017-12-15T10:32:30Z</time>
      </trkpt>
      <trkpt lat="46.04329" lon="4.69868">
        <ele>191</ele>
        <time>2017-12-15T10:32:31Z</time>
      </trkpt>
      <trkpt lat="46.04335" lon="4.6986">
        <ele>192</ele>
        <time>2017-12-15T10:32:33Z</time>
      </trkpt>
      <trkpt lat="46.04338" lon="4.69856">
        <ele>192</ele>
        <time>2017-12-15T10:32:34Z</time>
      </trkpt>
      <trkpt lat="46.04344" lon="4.69846">
        <ele>192</ele>
        <time>2017-12-15T10:32:36Z</time>
      </trkpt>
      <trkpt lat="46.04347" lon="4.69843">
        <ele>193</ele>
        <time>2017-12-15T10:32:37Z</time>
      </trkpt>
      <trkpt lat="46.04354" lon="4.69837">
        <ele>193</ele>
        <time>2017-12-15T10:32:39Z</time>
      </trkpt>
      <trkpt lat="46.04358" lon="4.69834">
        <ele>193</ele>
        <time>2017-12-15T10:32:40Z</time>
      </trkpt>
      <trkpt lat="46.04366" lon="4.69831">
        <ele>193</ele>
        <time>2017-12-15T10:32:42Z</time>
      </trkpt>
      <trkpt lat="46.04369" lon="4.69829">
        <ele>194</ele>
        <time>2017-12-15T10:32:43Z</time>
      </trkpt>
      <trkpt lat="46.04377" lon="4.69825">
        <ele>194</ele>
        <time>2017-12-15T10:32:45Z</time>
      </trkpt>
      <trkpt lat="46.0438" lon="4.69822">
        <ele>194</ele>
        <time>2017-12-15T10:32:46Z</time>
      </trkpt>
      <trkpt lat="46.04388" lon="4.69817">
        <ele>194</ele>
        <time>2017-12-15T10:32:48Z</time>
      </trkpt>
      <trkpt lat="46.04392" lon="4.69814">
        <ele>194</ele>
        <time>2017-12-15T10:32:49Z</time>
      </trkpt>
      <trkpt lat="46.04398" lon="4.6981">
        <ele>194</ele>
        <time>2017-12-15T10:32:51Z</time>
      </trkpt>
      <trkpt lat="46.04401" lon="4.69809">
        <ele>194</ele>
        <time>2017-12-15T10:32:52Z</time>
      </trkpt>
      <trkpt lat="46.04409" lon="4.69807">
        <ele>194</ele>
        <time>2017-12-15T10:32:54Z</time>
      </trkpt>
      <trkpt lat="46.04413" lon="4.69807">
        <ele>194</ele>
        <time>2017-12-15T10:32:55Z</time>
      </trkpt>
      <trkpt lat="46.04421" lon="4.69806">
        <ele>196</ele>
        <time>2017-12-15T10:32:57Z</time>
      </trkpt>
      <trkpt lat="46.04425" lon="4.69805">
        <ele>196</ele>
        <time>2017-12-15T10:32:58Z</time>
      </trkpt>
      <trkpt lat="46.04433" lon="4.69802">
        <ele>196</ele>
        <time>2017-12-15T10:33:00Z</time>
      </trkpt>
      <trkpt lat="46.04437" lon="4.698">
        <ele>196</ele>
        <time>2017-12-15T10:33:01Z</time>
      </trkpt>
      <trkpt lat="46.04445" lon="4.69799">
        <ele>196</ele>
        <time>2017-12-15T10:33:03Z</time>
      </trkpt>
      <trkpt lat="46.04449" lon="4.69799">
        <ele>196</ele>
        <time>2017-12-15T10:33:04Z</time>
      </trkpt>
      <trkpt lat="46.04457" lon="4.69799">
        <ele>196</ele>
        <time>2017-12-15T10:33:06Z</time>
      </trkpt>
      <trkpt lat="46.04461" lon="4.69798">
        <ele>197</ele>
        <time>2017-12-15T10:33:07Z</time>
      </trkpt>
      <trkpt lat="46.04469" lon="4.69796">
        <ele>197</ele>
        <time>2017-12-15T10:33:09Z</time>
      </trkpt>
      <trkpt lat="46.04473" lon="4.69795">
        <ele>197</ele>
        <time>2017-12-15T10:33:10Z</time>
      </trkpt>
      <trkpt lat="46.04481" lon="4.69794">
        <ele>197</ele>
        <time>2017-12-15T10:33:12Z</time>
      </trkpt>
      <trkpt lat="46.04486" lon="4.69793">
        <ele>197</ele>
        <time>2017-12-15T10:33:13Z</time>
      </trkpt>
      <trkpt lat="46.04494" lon="4.6979">
        <ele>197</ele>
        <time>2017-12-15T10:33:15Z</time>
      </trkpt>
      <trkpt lat="46.04499" lon="4.69789">
        <ele>197</ele>
        <time>2017-12-15T10:33:16Z</time>
      </trkpt>
      <trkpt lat="46.04508" lon="4.69787">
        <ele>199</ele>
        <time>2017-12-15T10:33:18Z</time>
      </trkpt>
      <trkpt lat="46.04512" lon="4.69787">
        <ele>199</ele>
        <time>2017-12-15T10:33:19Z</time>
      </trkpt>
      <trkpt lat="46.04516" lon="4.69786">
        <ele>199</ele>
        <time>2017-12-15T10:33:20Z</time>
      </trkpt>
      <trkpt lat="46.04521" lon="4.69787">
        <ele>199</ele>
        <time>2017-12-15T10:33:21Z</time>
      </trkpt>
      <trkpt lat="46.04529" lon="4.69788">
        <ele>199</ele>
        <time>2017-12-15T10:33:23Z</time>
      </trkpt>
      <trkpt lat="46.04533" lon="4.69788">
        <ele>199</ele>
        <time>2017-12-15T10:33:24Z</time>
      </trkpt>
      <trkpt lat="46.04541" lon="4.69789">
        <ele>199</ele>
        <time>2017-12-15T10:33:26Z</time>
      </trkpt>
      <trkpt lat="46.04546" lon="4.6979">
        <ele>199</ele>
        <time>2017-12-15T10:33:27Z</time>
      </trkpt>
      <trkpt lat="46.04555" lon="4.69792">
        <ele>199</ele>
        <time>2017-12-15T10:33:29Z</time>
      </trkpt>
      <trkpt lat="46.04559" lon="4.69793">
        <ele>199</ele>
        <time>2017-12-15T10:33:30Z</time>
      </trkpt>
      <trkpt lat="46.04564" lon="4.69794">
        <ele>200</ele>
        <time>2017-12-15T10:33:31Z</time>
      </trkpt>
      <trkpt lat="46.04569" lon="4.69794">
        <ele>200</ele>
        <time>2017-12-15T10:33:32Z</time>
      </trkpt>
      <trkpt lat="46.04577" lon="4.69797">
        <ele>200</ele>
        <time>2017-12-15T10:33:34Z</time>
      </trkpt>
      <trkpt lat="46.04581" lon="4.69799">
        <ele>200</ele>
        <time>2017-12-15T10:33:35Z</time>
      </trkpt>
      <trkpt lat="46.0459" lon="4.69802">
        <ele>201</ele>
        <time>2017-12-15T10:33:37Z</time>
      </trkpt>
      <trkpt lat="46.04594" lon="4.69804">
        <ele>201</ele>
        <time>2017-12-15T10:33:38Z</time>
      </trkpt>
      <trkpt lat="46.04598" lon="4.69806">
        <ele>201</ele>
        <time>2017-12-15T10:33:39Z</time>
      </trkpt>
      <trkpt lat="46.04603" lon="4.69808">
        <ele>201</ele>
        <time>2017-12-15T10:33:40Z</time>
      </trkpt>
      <trkpt lat="46.04607" lon="4.6981">
        <ele>201</ele>
        <time>2017-12-15T10:33:41Z</time>
      </trkpt>
      <trkpt lat="46.04612" lon="4.69811">
        <ele>201</ele>
        <time>2017-12-15T10:33:42Z</time>
      </trkpt>
      <trkpt lat="46.0462" lon="4.69813">
        <ele>202</ele>
        <time>2017-12-15T10:33:44Z</time>
      </trkpt>
      <trkpt lat="46.04625" lon="4.69814">
        <ele>202</ele>
        <time>2017-12-15T10:33:45Z</time>
      </trkpt>
      <trkpt lat="46.04633" lon="4.69818">
        <ele>202</ele>
        <time>2017-12-15T10:33:47Z</time>
      </trkpt>
      <trkpt lat="46.04638" lon="4.69819">
        <ele>202</ele>
        <time>2017-12-15T10:33:48Z</time>
      </trkpt>
      <trkpt lat="46.04643" lon="4.69819">
        <ele>202</ele>
        <time>2017-12-15T10:33:49Z</time>
      </trkpt>
      <trkpt lat="46.04647" lon="4.69821">
        <ele>202</ele>
        <time>2017-12-15T10:33:50Z</time>
      </trkpt>
      <trkpt lat="46.04652" lon="4.69824">
        <ele>202</ele>
        <time>2017-12-15T10:33:51Z</time>
      </trkpt>
      <trkpt lat="46.04657" lon="4.69826">
        <ele>202</ele>
        <time>2017-12-15T10:33:52Z</time>
      </trkpt>
      <trkpt lat="46.04665" lon="4.6983">
        <ele>203</ele>
        <time>2017-12-15T10:33:54Z</time>
      </trkpt>
      <trkpt lat="46.04669" lon="4.69832">
        <ele>203</ele>
        <time>2017-12-15T10:33:55Z</time>
      </trkpt>
      <trkpt lat="46.04674" lon="4.69833">
        <ele>203</ele>
        <time>2017-12-15T10:33:56Z</time>
      </trkpt>
      <trkpt lat="46.04678" lon="4.69835">
        <ele>203</ele>
        <time>2017-12-15T10:33:57Z</time>
      </trkpt>
      <trkpt lat="46.04684" lon="4.69837">
        <ele>202</ele>
        <time>2017-12-15T10:33:58Z</time>
      </trkpt>
      <trkpt lat="46.04689" lon="4.69838">
        <ele>202</ele>
        <time>2017-12-15T10:33:59Z</time>
      </trkpt>
      <trkpt lat="46.04694" lon="4.69839">
        <ele>202</ele>
        <time>2017-12-15T10:34:00Z</time>
      </trkpt>
      <trkpt lat="46.04699" lon="4.6984">
        <ele>202</ele>
        <time>2017-12-15T10:34:01Z</time>
      </trkpt>
      <trkpt lat="46.04708" lon="4.69841">
        <ele>203</ele>
        <time>2017-12-15T10:34:03Z</time>
      </trkpt>
      <trkpt lat="46.04712" lon="4.69841">
        <ele>203</ele>
        <time>2017-12-15T10:34:04Z</time>
      </trkpt>
      <trkpt lat="46.04719" lon="4.69842">
        <ele>203</ele>
        <time>2017-12-15T10:34:06Z</time>
      </trkpt>
      <trkpt lat="46.04723" lon="4.69841">
        <ele>203</ele>
        <time>2017-12-15T10:34:07Z</time>
      </trkpt>
      <trkpt lat="46.04731" lon="4.6984">
        <ele>203</ele>
        <time>2017-12-15T10:34:09Z</time>
      </trkpt>
      <trkpt lat="46.04735" lon="4.6984">
        <ele>203</ele>
        <time>2017-12-15T10:34:10Z</time>
      </trkpt>
      <trkpt lat="46.04744" lon="4.6984">
        <ele>204</ele>
        <time>2017-12-15T10:34:12Z</time>
      </trkpt>
      <trkpt lat="46.04747" lon="4.69841">
        <ele>204</ele>
        <time>2017-12-15T10:34:13Z</time>
      </trkpt>
      <trkpt lat="46.04754" lon="4.69842">
        <ele>205</ele>
        <time>2017-12-15T10:34:15Z</time>
      </trkpt>
      <trkpt lat="46.04758" lon="4.69843">
        <ele>205</ele>
        <time>2017-12-15T10:34:16Z</time>
      </trkpt>
      <trkpt lat="46.04765" lon="4.69844">
        <ele>205</ele>
        <time>2017-12-15T10:34:18Z</time>
      </trkpt>
      <trkpt lat="46.04769" lon="4.69844">
        <ele>204</ele>
        <time>2017-12-15T10:34:19Z</time>
      </trkpt>
      <trkpt lat="46.04777" lon="4.69845">
        <ele>204</ele>
        <time>2017-12-15T10:34:21Z</time>
      </trkpt>
      <trkpt lat="46.04782" lon="4.69845">
        <ele>205</ele>
        <time>2017-12-15T10:34:22Z</time>
      </trkpt>
      <trkpt lat="46.04789" lon="4.69844">
        <ele>205</ele>
        <time>2017-12-15T10:34:24Z</time>
      </trkpt>
      <trkpt lat="46.04793" lon="4.69841">
        <ele>205</ele>
        <time>2017-12-15T10:34:25Z</time>
      </trkpt>
      <trkpt lat="46.04796" lon="4.69832">
        <ele>206</ele>
        <time>2017-12-15T10:34:27Z</time>
      </trkpt>
      <trkpt lat="46.04797" lon="4.69826">
        <ele>206</ele>
        <time>2017-12-15T10:34:28Z</time>
      </trkpt>
      <trkpt lat="46.04799" lon="4.69815">
        <ele>206</ele>
        <time>2017-12-15T10:34:30Z</time>
      </trkpt>
      <trkpt lat="46.04802" lon="4.69811">
        <ele>206</ele>
        <time>2017-12-15T10:34:31Z</time>
      </trkpt>
      <trkpt lat="46.04809" lon="4.69808">
        <ele>206</ele>
        <time>2017-12-15T10:34:33Z</time>
      </trkpt>
      <trkpt lat="46.04812" lon="4.69809">
        <ele>206</ele>
        <time>2017-12-15T10:34:34Z</time>
      </trkpt>
      <trkpt lat="46.04819" lon="4.69813">
        <ele>207</ele>
        <time>2017-12-15T10:34:36Z</time>
      </trkpt>
      <trkpt lat="46.04823" lon="4.69817">
        <ele>207</ele>
        <time>2017-12-15T10:34:37Z</time>
      </trkpt>
      <trkpt lat="46.04827" lon="4.6982">
        <ele>207</ele>
        <time>2017-12-15T10:34:38Z</time>
      </trkpt>
      <trkpt lat="46.04831" lon="4.69822">
        <ele>207</ele>
        <time>2017-12-15T10:34:39Z</time>
      </trkpt>
      <trkpt lat="46.04837" lon="4.69823">
        <ele>207</ele>
        <time>2017-12-15T10:34:40Z</time>
      </trkpt>
      <trkpt lat="46.04842" lon="4.69825">
        <ele>207</ele>
        <time>2017-12-15T10:34:41Z</time>
      </trkpt>
      <trkpt lat="46.04847" lon="4.69828">
        <ele>207</ele>
        <time>2017-12-15T10:34:42Z</time>
      </trkpt>
      <trkpt lat="46.04851" lon="4.69829">
        <ele>207</ele>
        <time>2017-12-15T10:34:43Z</time>
      </trkpt>
      <trkpt lat="46.04856" lon="4.69831">
        <ele>207</ele>
        <time>2017-12-15T10:34:44Z</time>
      </trkpt>
      <trkpt lat="46.04861" lon="4.69834">
        <ele>206</ele>
        <time>2017-12-15T10:34:45Z</time>
      </trkpt>
      <trkpt lat="46.04866" lon="4.69836">
        <ele>206</ele>
        <time>2017-12-15T10:34:46Z</time>
      </trkpt>
      <trkpt lat="46.04872" lon="4.69839">
        <ele>206</ele>
        <time>2017-12-15T10:34:47Z</time>
      </trkpt>
      <trkpt lat="46.04877" lon="4.6984">
        <ele>206</ele>
        <time>2017-12-15T10:34:48Z</time>
      </trkpt>
      <trkpt lat="46.04883" lon="4.69845">
        <ele>206</ele>
        <time>2017-12-15T10:34:49Z</time>
      </trkpt>
      <trkpt lat="46.04889" lon="4.69849">
        <ele>206</ele>
        <time>2017-12-15T10:34:50Z</time>
      </trkpt>
      <trkpt lat="46.04893" lon="4.69852">
        <ele>206</ele>
        <time>2017-12-15T10:34:51Z</time>
      </trkpt>
      <trkpt lat="46.04898" lon="4.69854">
        <ele>206</ele>
        <time>2017-12-15T10:34:52Z</time>
      </trkpt>
      <trkpt lat="46.04903" lon="4.69857">
        <ele>206</ele>
        <time>2017-12-15T10:34:53Z</time>
      </trkpt>
      <trkpt lat="46.04908" lon="4.69862">
        <ele>206</ele>
        <time>2017-12-15T10:34:54Z</time>
      </trkpt>
      <trkpt lat="46.04914" lon="4.69868">
        <ele>206</ele>
        <time>2017-12-15T10:34:55Z</time>
      </trkpt>
      <trkpt lat="46.04922" lon="4.69872">
        <ele>207</ele>
        <time>2017-12-15T10:34:57Z</time>
      </trkpt>
      <trkpt lat="46.04926" lon="4.69874">
        <ele>207</ele>
        <time>2017-12-15T10:34:58Z</time>
      </trkpt>
      <trkpt lat="46.04932" lon="4.69883">
        <ele>207</ele>
        <time>2017-12-15T10:35:00Z</time>
      </trkpt>
      <trkpt lat="46.04936" lon="4.69887">
        <ele>207</ele>
        <time>2017-12-15T10:35:01Z</time>
      </trkpt>
      <trkpt lat="46.04943" lon="4.69891">
        <ele>207</ele>
        <time>2017-12-15T10:35:03Z</time>
      </trkpt>
      <trkpt lat="46.04946" lon="4.69895">
        <ele>207</ele>
        <time>2017-12-15T10:35:04Z</time>
      </trkpt>
      <trkpt lat="46.04949" lon="4.69899">
        <ele>207</ele>
        <time>2017-12-15T10:35:05Z</time>
      </trkpt>
      <trkpt lat="46.04954" lon="4.69903">
        <ele>207</ele>
        <time>2017-12-15T10:35:06Z</time>
      </trkpt>
      <trkpt lat="46.04957" lon="4.69907">
        <ele>207</ele>
        <time>2017-12-15T10:35:07Z</time>
      </trkpt>
      <trkpt lat="46.0496" lon="4.69912">
        <ele>206</ele>
        <time>2017-12-15T10:35:08Z</time>
      </trkpt>
      <trkpt lat="46.04964" lon="4.69917">
        <ele>206</ele>
        <time>2017-12-15T10:35:09Z</time>
      </trkpt>
      <trkpt lat="46.04967" lon="4.69923">
        <ele>206</ele>
        <time>2017-12-15T10:35:10Z</time>
      </trkpt>
      <trkpt lat="46.0497" lon="4.69928">
        <ele>206</ele>
        <time>2017-12-15T10:35:11Z</time>
      </trkpt>
      <trkpt lat="46.04974" lon="4.69933">
        <ele>206</ele>
        <time>2017-12-15T10:35:12Z</time>
      </trkpt>
      <trkpt lat="46.04977" lon="4.69939">
        <ele>206</ele>
        <time>2017-12-15T10:35:13Z</time>
      </trkpt>
      <trkpt lat="46.04979" lon="4.69945">
        <ele>206</ele>
        <time>2017-12-15T10:35:14Z</time>
      </trkpt>
      <trkpt lat="46.04983" lon="4.69949">
        <ele>206</ele>
        <time>2017-12-15T10:35:15Z</time>
      </trkpt>
      <trkpt lat="46.04986" lon="4.69955">
        <ele>206</ele>
        <time>2017-12-15T10:35:16Z</time>
      </trkpt>
      <trkpt lat="46.04989" lon="4.69961">
        <ele>205</ele>
        <time>2017-12-15T10:35:17Z</time>
      </trkpt>
      <trkpt lat="46.04993" lon="4.69966">
        <ele>205</ele>
        <time>2017-12-15T10:35:18Z</time>
      </trkpt>
      <trkpt lat="46.04996" lon="4.6997">
        <ele>205</ele>
        <time>2017-12-15T10:35:19Z</time>
      </trkpt>
      <trkpt lat="46.04999" lon="4.69976">
        <ele>205</ele>
        <time>2017-12-15T10:35:20Z</time>
      </trkpt>
      <trkpt lat="46.05004" lon="4.69979">
        <ele>205</ele>
        <time>2017-12-15T10:35:21Z</time>
      </trkpt>
      <trkpt lat="46.05007" lon="4.69984">
        <ele>205</ele>
        <time>2017-12-15T10:35:22Z</time>
      </trkpt>
      <trkpt lat="46.05011" lon="4.69991">
        <ele>205</ele>
        <time>2017-12-15T10:35:23Z</time>
      </trkpt>
      <trkpt lat="46.05015" lon="4.69996">
        <ele>205</ele>
        <time>2017-12-15T10:35:24Z</time>
      </trkpt>
      <trkpt lat="46.05019" lon="4.70001">
        <ele>204</ele>
        <time>2017-12-15T10:35:25Z</time>
      </trkpt>
      <trkpt lat="46.05024" lon="4.70005">
        <ele>204</ele>
        <time>2017-12-15T10:35:26Z</time>
      </trkpt>
      <trkpt lat="46.05029" lon="4.70011">
        <ele>204</ele>
        <time>2017-12-15T10:35:27Z</time>
      </trkpt>
      <trkpt lat="46.05033" lon="4.70016">
        <ele>204</ele>
        <time>2017-12-15T10:35:28Z</time>
      </trkpt>
      <trkpt lat="46.05039" lon="4.7002">
        <ele>204</ele>
        <time>2017-12-15T10:35:29Z</time>
      </trkpt>
      <trkpt lat="46.05044" lon="4.70025">
        <ele>204</ele>
        <time>2017-12-15T10:35:30Z</time>
      </trkpt>
      <trkpt lat="46.05049" lon="4.70029">
        <ele>204</ele>
        <time>2017-12-15T10:35:31Z</time>
      </trkpt>
      <trkpt lat="46.05054" lon="4.70032">
        <ele>204</ele>
        <time>2017-12-15T10:35:32Z</time>
      </trkpt>
      <trkpt lat="46.0506" lon="4.70034">
        <ele>204</ele>
        <time>2017-12-15T10:35:33Z</time>
      </trkpt>
      <trkpt lat="46.05065" lon="4.70035">
        <ele>204</ele>
        <time>2017-12-15T10:35:34Z</time>
      </trkpt>
      <trkpt lat="46.05073" lon="4.70038">
        <ele>204</ele>
        <time>2017-12-15T10:35:35Z</time>
      </trkpt>
      <trkpt lat="46.05078" lon="4.70038">
        <ele>204</ele>
        <time>2017-12-15T10:35:36Z</time>
      </trkpt>
      <trkpt lat="46.05084" lon="4.70034">
        <ele>203</ele>
        <time>2017-12-15T10:35:37Z</time>
      </trkpt>
      <trkpt lat="46.05089" lon="4.70029">
        <ele>203</ele>
        <time>2017-12-15T10:35:38Z</time>
      </trkpt>
      <trkpt lat="46.05093" lon="4.70023">
        <ele>203</ele>
        <time>2017-12-15T10:35:39Z</time>
      </trkpt>
      <trkpt lat="46.05096" lon="4.70017">
        <ele>203</ele>
        <time>2017-12-15T10:35:40Z</time>
      </trkpt>
      <trkpt lat="46.05099" lon="4.70009">
        <ele>203</ele>
        <time>2017-12-15T10:35:41Z</time>
      </trkpt>
      <trkpt lat="46.05102" lon="4.70004">
        <ele>203</ele>
        <time>2017-12-15T10:35:42Z</time>
      </trkpt>
      <trkpt lat="46.05103" lon="4.69996">
        <ele>204</ele>
        <time>2017-12-15T10:35:43Z</time>
      </trkpt>
      <trkpt lat="46.05103" lon="4.69988">
        <ele>204</ele>
        <time>2017-12-15T10:35:44Z</time>
      </trkpt>
      <trkpt lat="46.05104" lon="4.6998">
        <ele>203</ele>
        <time>2017-12-15T10:35:45Z</time>
      </trkpt>
      <trkpt lat="46.05105" lon="4.69971">
        <ele>203</ele>
        <time>2017-12-15T10:35:46Z</time>
      </trkpt>
      <trkpt lat="46.05106" lon="4.69963">
        <ele>203</ele>
        <time>2017-12-15T10:35:47Z</time>
      </trkpt>
      <trkpt lat="46.05108" lon="4.69956">
        <ele>203</ele>
        <time>2017-12-15T10:35:48Z</time>
      </trkpt>
      <trkpt lat="46.0511" lon="4.69944">
        <ele>203</ele>
        <time>2017-12-15T10:35:50Z</time>
      </trkpt>
      <trkpt lat="46.0511" lon="4.69937">
        <ele>203</ele>
        <time>2017-12-15T10:35:51Z</time>
      </trkpt>
      <trkpt lat="46.0511" lon="4.6993">
        <ele>203</ele>
        <time>2017-12-15T10:35:52Z</time>
      </trkpt>
      <trkpt lat="46.05112" lon="4.69922">
        <ele>203</ele>
        <time>2017-12-15T10:35:53Z</time>
      </trkpt>
      <trkpt lat="46.05113" lon="4.69915">
        <ele>204</ele>
        <time>2017-12-15T10:35:54Z</time>
      </trkpt>
      <trkpt lat="46.05114" lon="4.69905">
        <ele>204</ele>
        <time>2017-12-15T10:35:55Z</time>
      </trkpt>
      <trkpt lat="46.05115" lon="4.69899">
        <ele>204</ele>
        <time>2017-12-15T10:35:56Z</time>
      </trkpt>
      <trkpt lat="46.05116" lon="4.69891">
        <ele>204</ele>
        <time>2017-12-15T10:35:57Z</time>
      </trkpt>
      <trkpt lat="46.05117" lon="4.69885">
        <ele>204</ele>
        <time>2017-12-15T10:35:58Z</time>
      </trkpt>
      <trkpt lat="46.0512" lon="4.69878">
        <ele>204</ele>
        <time>2017-12-15T10:35:59Z</time>
      </trkpt>
      <trkpt lat="46.05122" lon="4.69866">
        <ele>204</ele>
        <time>2017-12-15T10:36:01Z</time>
      </trkpt>
      <trkpt lat="46.05122" lon="4.69861">
        <ele>204</ele>
        <time>2017-12-15T10:36:02Z</time>
      </trkpt>
      <trkpt lat="46.05123" lon="4.69854">
        <ele>204</ele>
        <time>2017-12-15T10:36:03Z</time>
      </trkpt>
      <trkpt lat="46.05124" lon="4.69845">
        <ele>204</ele>
        <time>2017-12-15T10:36:04Z</time>
      </trkpt>
      <trkpt lat="46.05126" lon="4.69839">
        <ele>204</ele>
        <time>2017-12-15T10:36:05Z</time>
      </trkpt>
      <trkpt lat="46.05128" lon="4.69834">
        <ele>204</ele>
        <time>2017-12-15T10:36:06Z</time>
      </trkpt>
      <trkpt lat="46.05131" lon="4.69828">
        <ele>204</ele>
        <time>2017-12-15T10:36:07Z</time>
      </trkpt>
      <trkpt lat="46.05137" lon="4.69825">
        <ele>204</ele>
        <time>2017-12-15T10:36:08Z</time>
      </trkpt>
      <trkpt lat="46.05142" lon="4.69824">
        <ele>204</ele>
        <time>2017-12-15T10:36:09Z</time>
      </trkpt>
      <trkpt lat="46.05148" lon="4.69826">
        <ele>204</ele>
        <time>2017-12-15T10:36:10Z</time>
      </trkpt>
      <trkpt lat="46.05153" lon="4.69828">
        <ele>204</ele>
        <time>2017-12-15T10:36:11Z</time>
      </trkpt>
      <trkpt lat="46.05159" lon="4.6983">
        <ele>203</ele>
        <time>2017-12-15T10:36:12Z</time>
      </trkpt>
      <trkpt lat="46.05164" lon="4.69832">
        <ele>203</ele>
        <time>2017-12-15T10:36:13Z</time>
      </trkpt>
      <trkpt lat="46.0517" lon="4.69834">
        <ele>203</ele>
        <time>2017-12-15T10:36:14Z</time>
      </trkpt>
      <trkpt lat="46.05176" lon="4.69837">
        <ele>202</ele>
        <time>2017-12-15T10:36:15Z</time>
      </trkpt>
      <trkpt lat="46.05182" lon="4.69839">
        <ele>202</ele>
        <time>2017-12-15T10:36:16Z</time>
      </trkpt>
      <trkpt lat="46.05189" lon="4.69841">
        <ele>202</ele>
        <time>2017-12-15T10:36:17Z</time>
      </trkpt>
      <trkpt lat="46.05196" lon="4.69843">
        <ele>202</ele>
        <time>2017-12-15T10:36:18Z</time>
      </trkpt>
      <trkpt lat="46.05202" lon="4.69846">
        <ele>201</ele>
        <time>2017-12-15T10:36:19Z</time>
      </trkpt>
      <trkpt lat="46.05209" lon="4.69849">
        <ele>201</ele>
        <time>2017-12-15T10:36:20Z</time>
      </trkpt>
      <trkpt lat="46.05216" lon="4.69851">
        <ele>201</ele>
        <time>2017-12-15T10:36:21Z</time>
      </trkpt>
      <trkpt lat="46.05223" lon="4.69852">
        <ele>201</ele>
        <time>2017-12-15T10:36:22Z</time>
      </trkpt>
      <trkpt lat="46.05231" lon="4.69855">
        <ele>201</ele>
        <time>2017-12-15T10:36:23Z</time>
      </trkpt>
      <trkpt lat="46.05239" lon="4.69857">
        <ele>201</ele>
        <time>2017-12-15T10:36:24Z</time>
      </trkpt>
      <trkpt lat="46.05246" lon="4.69859">
        <ele>201</ele>
        <time>2017-12-15T10:36:25Z</time>
      </trkpt>
      <trkpt lat="46.05254" lon="4.69861">
        <ele>199</ele>
        <time>2017-12-15T10:36:26Z</time>
      </trkpt>
      <trkpt lat="46.05261" lon="4.69863">
        <ele>199</ele>
        <time>2017-12-15T10:36:27Z</time>
      </trkpt>
      <trkpt lat="46.05269" lon="4.69864">
        <ele>199</ele>
        <time>2017-12-15T10:36:28Z</time>
      </trkpt>
      <trkpt lat="46.05276" lon="4.69866">
        <ele>199</ele>
        <time>2017-12-15T10:36:29Z</time>
      </trkpt>
      <trkpt lat="46.05283" lon="4.69867">
        <ele>199</ele>
        <time>2017-12-15T10:36:30Z</time>
      </trkpt>
      <trkpt lat="46.05291" lon="4.69869">
        <ele>199</ele>
        <time>2017-12-15T10:36:31Z</time>
      </trkpt>
      <trkpt lat="46.05299" lon="4.69871">
        <ele>199</ele>
        <time>2017-12-15T10:36:32Z</time>
      </trkpt>
      <trkpt lat="46.05306" lon="4.69872">
        <ele>199</ele>
        <time>2017-12-15T10:36:33Z</time>
      </trkpt>
      <trkpt lat="46.05313" lon="4.69874">
        <ele>199</ele>
        <time>2017-12-15T10:36:34Z</time>
      </trkpt>
      <trkpt lat="46.0532" lon="4.69876">
        <ele>199</ele>
        <time>2017-12-15T10:36:35Z</time>
      </trkpt>
      <trkpt lat="46.05327" lon="4.69878">
        <ele>199</ele>
        <time>2017-12-15T10:36:36Z</time>
      </trkpt>
      <trkpt lat="46.05335" lon="4.6988">
        <ele>199</ele>
        <time>2017-12-15T10:36:37Z</time>
      </trkpt>
      <trkpt lat="46.05341" lon="4.69881">
        <ele>199</ele>
        <time>2017-12-15T10:36:38Z</time>
      </trkpt>
      <trkpt lat="46.05348" lon="4.69883">
        <ele>199</ele>
        <time>2017-12-15T10:36:39Z</time>
      </trkpt>
      <trkpt lat="46.05355" lon="4.69885">
        <ele>199</ele>
        <time>2017-12-15T10:36:40Z</time>
      </trkpt>
      <trkpt lat="46.05362" lon="4.69886">
        <ele>199</ele>
        <time>2017-12-15T10:36:41Z</time>
      </trkpt>
      <trkpt lat="46.05369" lon="4.69889">
        <ele>199</ele>
        <time>2017-12-15T10:36:42Z</time>
      </trkpt>
      <trkpt lat="46.05375" lon="4.69892">
        <ele>199</ele>
        <time>2017-12-15T10:36:43Z</time>
      </trkpt>
      <trkpt lat="46.05382" lon="4.69896">
        <ele>199</ele>
        <time>2017-12-15T10:36:44Z</time>
      </trkpt>
      <trkpt lat="46.05389" lon="4.69898">
        <ele>199</ele>
        <time>2017-12-15T10:36:45Z</time>
      </trkpt>
      <trkpt lat="46.05395" lon="4.69901">
        <ele>199</ele>
        <time>2017-12-15T10:36:46Z</time>
      </trkpt>
      <trkpt lat="46.05401" lon="4.69902">
        <ele>199</ele>
        <time>2017-12-15T10:36:47Z</time>
      </trkpt>
      <trkpt lat="46.05407" lon="4.69903">
        <ele>199</ele>
        <time>2017-12-15T10:36:48Z</time>
      </trkpt>
      <trkpt lat="46.05414" lon="4.69903">
        <ele>199</ele>
        <time>2017-12-15T10:36:49Z</time>
      </trkpt>
      <trkpt lat="46.05421" lon="4.69903">
        <ele>199</ele>
        <time>2017-12-15T10:36:50Z</time>
      </trkpt>
      <trkpt lat="46.05427" lon="4.69901">
        <ele>199</ele>
        <time>2017-12-15T10:36:51Z</time>
      </trkpt>
      <trkpt lat="46.05432" lon="4.69899">
        <ele>199</ele>
        <time>2017-12-15T10:36:52Z</time>
      </trkpt>
      <trkpt lat="46.05437" lon="4.69897">
        <ele>199</ele>
        <time>2017-12-15T10:36:53Z</time>
      </trkpt>
      <trkpt lat="46.05443" lon="4.69895">
        <ele>199</ele>
        <time>2017-12-15T10:36:54Z</time>
      </trkpt>
      <trkpt lat="46.05448" lon="4.69893">
        <ele>199</ele>
        <time>2017-12-15T10:36:55Z</time>
      </trkpt>
      <trkpt lat="46.05454" lon="4.69891">
        <ele>199</ele>
        <time>2017-12-15T10:36:56Z</time>
      </trkpt>
      <trkpt lat="46.05459" lon="4.69888">
        <ele>199</ele>
        <time>2017-12-15T10:36:57Z</time>
      </trkpt>
      <trkpt lat="46.05465" lon="4.69885">
        <ele>199</ele>
        <time>2017-12-15T10:36:58Z</time>
      </trkpt>
      <trkpt lat="46.05472" lon="4.69883">
        <ele>199</ele>
        <time>2017-12-15T10:36:59Z</time>
      </trkpt>
      <trkpt lat="46.05478" lon="4.69881">
        <ele>199</ele>
        <time>2017-12-15T10:37:00Z</time>
      </trkpt>
      <trkpt lat="46.05484" lon="4.69879">
        <ele>199</ele>
        <time>2017-12-15T10:37:01Z</time>
      </trkpt>
      <trkpt lat="46.05489" lon="4.69877">
        <ele>199</ele>
        <time>2017-12-15T10:37:02Z</time>
      </trkpt>
      <trkpt lat="46.05495" lon="4.69876">
        <ele>199</ele>
        <time>2017-12-15T10:37:03Z</time>
      </trkpt>
      <trkpt lat="46.05499" lon="4.69873">
        <ele>199</ele>
        <time>2017-12-15T10:37:04Z</time>
      </trkpt>
      <trkpt lat="46.05504" lon="4.69872">
        <ele>199</ele>
        <time>2017-12-15T10:37:05Z</time>
      </trkpt>
      <trkpt lat="46.05508" lon="4.6987">
        <ele>199</ele>
        <time>2017-12-15T10:37:06Z</time>
      </trkpt>
      <trkpt lat="46.05517" lon="4.69869">
        <ele>199</ele>
        <time>2017-12-15T10:37:08Z</time>
      </trkpt>
      <trkpt lat="46.05523" lon="4.69868">
        <ele>200</ele>
        <time>2017-12-15T10:37:09Z</time>
      </trkpt>
      <trkpt lat="46.05528" lon="4.69866">
        <ele>200</ele>
        <time>2017-12-15T10:37:10Z</time>
      </trkpt>
      <trkpt lat="46.05533" lon="4.69863">
        <ele>200</ele>
        <time>2017-12-15T10:37:11Z</time>
      </trkpt>
      <trkpt lat="46.05539" lon="4.69861">
        <ele>200</ele>
        <time>2017-12-15T10:37:12Z</time>
      </trkpt>
      <trkpt lat="46.05544" lon="4.6986">
        <ele>200</ele>
        <time>2017-12-15T10:37:13Z</time>
      </trkpt>
      <trkpt lat="46.05548" lon="4.69858">
        <ele>200</ele>
        <time>2017-12-15T10:37:14Z</time>
      </trkpt>
      <trkpt lat="46.05553" lon="4.69856">
        <ele>200</ele>
        <time>2017-12-15T10:37:15Z</time>
      </trkpt>
      <trkpt lat="46.05561" lon="4.69851">
        <ele>200</ele>
        <time>2017-12-15T10:37:17Z</time>
      </trkpt>
      <trkpt lat="46.05567" lon="4.6985">
        <ele>200</ele>
        <time>2017-12-15T10:37:18Z</time>
      </trkpt>
      <trkpt lat="46.05574" lon="4.69852">
        <ele>200</ele>
        <time>2017-12-15T10:37:20Z</time>
      </trkpt>
      <trkpt lat="46.05577" lon="4.69855">
        <ele>200</ele>
        <time>2017-12-15T10:37:21Z</time>
      </trkpt>
      <trkpt lat="46.0558" lon="4.6986">
        <ele>200</ele>
        <time>2017-12-15T10:37:22Z</time>
      </trkpt>
      <trkpt lat="46.05582" lon="4.69866">
        <ele>200</ele>
        <time>2017-12-15T10:37:23Z</time>
      </trkpt>
      <trkpt lat="46.05585" lon="4.69873">
        <ele>201</ele>
        <time>2017-12-15T10:37:24Z</time>
      </trkpt>
      <trkpt lat="46.05589" lon="4.69879">
        <ele>201</ele>
        <time>2017-12-15T10:37:25Z</time>
      </trkpt>
      <trkpt lat="46.05592" lon="4.69886">
        <ele>201</ele>
        <time>2017-12-15T10:37:26Z</time>
      </trkpt>
      <trkpt lat="46.05596" lon="4.69893">
        <ele>201</ele>
        <time>2017-12-15T10:37:27Z</time>
      </trkpt>
      <trkpt lat="46.056" lon="4.69901">
        <ele>201</ele>
        <time>2017-12-15T10:37:28Z</time>
      </trkpt>
      <trkpt lat="46.05605" lon="4.69908">
        <ele>200</ele>
        <time>2017-12-15T10:37:29Z</time>
      </trkpt>
      <trkpt lat="46.05608" lon="4.69915">
        <ele>200</ele>
        <time>2017-12-15T10:37:30Z</time>
      </trkpt>
      <trkpt lat="46.05611" lon="4.69922">
        <ele>201</ele>
        <time>2017-12-15T10:37:31Z</time>
      </trkpt>
      <trkpt lat="46.05615" lon="4.69928">
        <ele>201</ele>
        <time>2017-12-15T10:37:32Z</time>
      </trkpt>
      <trkpt lat="46.05618" lon="4.69935">
        <ele>200</ele>
        <time>2017-12-15T10:37:33Z</time>
      </trkpt>
      <trkpt lat="46.05621" lon="4.69941">
        <ele>200</ele>
        <time>2017-12-15T10:37:34Z</time>
      </trkpt>
      <trkpt lat="46.05624" lon="4.69949">
        <ele>200</ele>
        <time>2017-12-15T10:37:35Z</time>
      </trkpt>
      <trkpt lat="46.05627" lon="4.69955">
        <ele>200</ele>
        <time>2017-12-15T10:37:36Z</time>
      </trkpt>
      <trkpt lat="46.05631" lon="4.69962">
        <ele>200</ele>
        <time>2017-12-15T10:37:37Z</time>
      </trkpt>
      <trkpt lat="46.05635" lon="4.6997">
        <ele>200</ele>
        <time>2017-12-15T10:37:38Z</time>
      </trkpt>
      <trkpt lat="46.05638" lon="4.69978">
        <ele>200</ele>
        <time>2017-12-15T10:37:39Z</time>
      </trkpt>
      <trkpt lat="46.05642" lon="4.69985">
        <ele>200</ele>
        <time>2017-12-15T10:37:40Z</time>
      </trkpt>
      <trkpt lat="46.05645" lon="4.69993">
        <ele>200</ele>
        <time>2017-12-15T10:37:41Z</time>
      </trkpt>
      <trkpt lat="46.05649" lon="4.7">
        <ele>200</ele>
        <time>2017-12-15T10:37:42Z</time>
      </trkpt>
      <trkpt lat="46.05653" lon="4.70007">
        <ele>200</ele>
        <time>2017-12-15T10:37:43Z</time>
      </trkpt>
      <trkpt lat="46.05656" lon="4.70014">
        <ele>200</ele>
        <time>2017-12-15T10:37:44Z</time>
      </trkpt>
      <trkpt lat="46.05659" lon="4.70021">
        <ele>200</ele>
        <time>2017-12-15T10:37:45Z</time>
      </trkpt>
      <trkpt lat="46.05663" lon="4.70027">
        <ele>200</ele>
        <time>2017-12-15T10:37:46Z</time>
      </trkpt>
      <trkpt lat="46.05665" lon="4.70033">
        <ele>200</ele>
        <time>2017-12-15T10:37:47Z</time>
      </trkpt>
      <trkpt lat="46.05668" lon="4.70041">
        <ele>199</ele>
        <time>2017-12-15T10:37:48Z</time>
      </trkpt>
      <trkpt lat="46.05672" lon="4.70048">
        <ele>199</ele>
        <time>2017-12-15T10:37:49Z</time>
      </trkpt>
      <trkpt lat="46.05675" lon="4.70055">
        <ele>199</ele>
        <time>2017-12-15T10:37:50Z</time>
      </trkpt>
      <trkpt lat="46.05679" lon="4.70062">
        <ele>199</ele>
        <time>2017-12-15T10:37:51Z</time>
      </trkpt>
      <trkpt lat="46.05683" lon="4.7007">
        <ele>199</ele>
        <time>2017-12-15T10:37:52Z</time>
      </trkpt>
      <trkpt lat="46.05687" lon="4.70078">
        <ele>199</ele>
        <time>2017-12-15T10:37:53Z</time>
      </trkpt>
      <trkpt lat="46.05691" lon="4.70086">
        <ele>198</ele>
        <time>2017-12-15T10:37:54Z</time>
      </trkpt>
      <trkpt lat="46.05695" lon="4.70094">
        <ele>198</ele>
        <time>2017-12-15T10:37:55Z</time>
      </trkpt>
      <trkpt lat="46.057" lon="4.70103">
        <ele>198</ele>
        <time>2017-12-15T10:37:56Z</time>
      </trkpt>
      <trkpt lat="46.05703" lon="4.70111">
        <ele>198</ele>
        <time>2017-12-15T10:37:57Z</time>
      </trkpt>
      <trkpt lat="46.05707" lon="4.70118">
        <ele>198</ele>
        <time>2017-12-15T10:37:58Z</time>
      </trkpt>
      <trkpt lat="46.05711" lon="4.70126">
        <ele>198</ele>
        <time>2017-12-15T10:37:59Z</time>
      </trkpt>
      <trkpt lat="46.05715" lon="4.70133">
        <ele>198</ele>
        <time>2017-12-15T10:38:00Z</time>
      </trkpt>
      <trkpt lat="46.05719" lon="4.7014">
        <ele>198</ele>
        <time>2017-12-15T10:38:01Z</time>
      </trkpt>
      <trkpt lat="46.05722" lon="4.70147">
        <ele>198</ele>
        <time>2017-12-15T10:38:02Z</time>
      </trkpt>
      <trkpt lat="46.05725" lon="4.70155">
        <ele>198</ele>
        <time>2017-12-15T10:38:03Z</time>
      </trkpt>
      <trkpt lat="46.05729" lon="4.7016">
        <ele>198</ele>
        <time>2017-12-15T10:38:04Z</time>
      </trkpt>
      <trkpt lat="46.05733" lon="4.70167">
        <ele>198</ele>
        <time>2017-12-15T10:38:05Z</time>
      </trkpt>
      <trkpt lat="46.05737" lon="4.70173">
        <ele>198</ele>
        <time>2017-12-15T10:38:06Z</time>
      </trkpt>
      <trkpt lat="46.05741" lon="4.70179">
        <ele>198</ele>
        <time>2017-12-15T10:38:07Z</time>
      </trkpt>
      <trkpt lat="46.05745" lon="4.70186">
        <ele>198</ele>
        <time>2017-12-15T10:38:08Z</time>
      </trkpt>
      <trkpt lat="46.05748" lon="4.70193">
        <ele>198</ele>
        <time>2017-12-15T10:38:09Z</time>
      </trkpt>
      <trkpt lat="46.05752" lon="4.70201">
        <ele>198</ele>
        <time>2017-12-15T10:38:10Z</time>
      </trkpt>
      <trkpt lat="46.05757" lon="4.70208">
        <ele>198</ele>
        <time>2017-12-15T10:38:11Z</time>
      </trkpt>
      <trkpt lat="46.05761" lon="4.70216">
        <ele>198</ele>
        <time>2017-12-15T10:38:12Z</time>
      </trkpt>
      <trkpt lat="46.05765" lon="4.70224">
        <ele>198</ele>
        <time>2017-12-15T10:38:13Z</time>
      </trkpt>
      <trkpt lat="46.05769" lon="4.70232">
        <ele>198</ele>
        <time>2017-12-15T10:38:14Z</time>
      </trkpt>
      <trkpt lat="46.05773" lon="4.7024">
        <ele>198</ele>
        <time>2017-12-15T10:38:15Z</time>
      </trkpt>
      <trkpt lat="46.05779" lon="4.70247">
        <ele>198</ele>
        <time>2017-12-15T10:38:16Z</time>
      </trkpt>
      <trkpt lat="46.05783" lon="4.70254">
        <ele>198</ele>
        <time>2017-12-15T10:38:17Z</time>
      </trkpt>
      <trkpt lat="46.05787" lon="4.70261">
        <ele>198</ele>
        <time>2017-12-15T10:38:18Z</time>
      </trkpt>
      <trkpt lat="46.05792" lon="4.70268">
        <ele>197</ele>
        <time>2017-12-15T10:38:19Z</time>
      </trkpt>
      <trkpt lat="46.05797" lon="4.70275">
        <ele>197</ele>
        <time>2017-12-15T10:38:20Z</time>
      </trkpt>
      <trkpt lat="46.05802" lon="4.70282">
        <ele>197</ele>
        <time>2017-12-15T10:38:21Z</time>
      </trkpt>
      <trkpt lat="46.05807" lon="4.7029">
        <ele>197</ele>
        <time>2017-12-15T10:38:22Z</time>
      </trkpt>
      <trkpt lat="46.05811" lon="4.70297">
        <ele>197</ele>
        <time>2017-12-15T10:38:23Z</time>
      </trkpt>
      <trkpt lat="46.05816" lon="4.70304">
        <ele>197</ele>
        <time>2017-12-15T10:38:24Z</time>
      </trkpt>
      <trkpt lat="46.0582" lon="4.70311">
        <ele>197</ele>
        <time>2017-12-15T10:38:25Z</time>
      </trkpt>
      <trkpt lat="46.05824" lon="4.70319">
        <ele>197</ele>
        <time>2017-12-15T10:38:26Z</time>
      </trkpt>
      <trkpt lat="46.05829" lon="4.70325">
        <ele>197</ele>
        <time>2017-12-15T10:38:27Z</time>
      </trkpt>
      <trkpt lat="46.05833" lon="4.70331">
        <ele>197</ele>
        <time>2017-12-15T10:38:28Z</time>
      </trkpt>
      <trkpt lat="46.05838" lon="4.70336">
        <ele>197</ele>
        <time>2017-12-15T10:38:29Z</time>
      </trkpt>
      <trkpt lat="46.05842" lon="4.70343">
        <ele>197</ele>
        <time>2017-12-15T10:38:30Z</time>
      </trkpt>
      <trkpt lat="46.05847" lon="4.7035">
        <ele>196</ele>
        <time>2017-12-15T10:38:31Z</time>
      </trkpt>
      <trkpt lat="46.05852" lon="4.70357">
        <ele>196</ele>
        <time>2017-12-15T10:38:32Z</time>
      </trkpt>
      <trkpt lat="46.05857" lon="4.70364">
        <ele>196</ele>
        <time>2017-12-15T10:38:33Z</time>
      </trkpt>
      <trkpt lat="46.05862" lon="4.70372">
        <ele>196</ele>
        <time>2017-12-15T10:38:34Z</time>
      </trkpt>
      <trkpt lat="46.05866" lon="4.7038">
        <ele>196</ele>
        <time>2017-12-15T10:38:35Z</time>
      </trkpt>
      <trkpt lat="46.0587" lon="4.70387">
        <ele>196</ele>
        <time>2017-12-15T10:38:36Z</time>
      </trkpt>
      <trkpt lat="46.05875" lon="4.70396">
        <ele>196</ele>
        <time>2017-12-15T10:38:37Z</time>
      </trkpt>
      <trkpt lat="46.0588" lon="4.70405">
        <ele>196</ele>
        <time>2017-12-15T10:38:38Z</time>
      </trkpt>
      <trkpt lat="46.05884" lon="4.70412">
        <ele>196</ele>
        <time>2017-12-15T10:38:39Z</time>
      </trkpt>
      <trkpt lat="46.05889" lon="4.7042">
        <ele>195</ele>
        <time>2017-12-15T10:38:40Z</time>
      </trkpt>
      <trkpt lat="46.05894" lon="4.70428">
        <ele>195</ele>
        <time>2017-12-15T10:38:41Z</time>
      </trkpt>
      <trkpt lat="46.05898" lon="4.70434">
        <ele>195</ele>
        <time>2017-12-15T10:38:42Z</time>
      </trkpt>
      <trkpt lat="46.05902" lon="4.70441">
        <ele>195</ele>
        <time>2017-12-15T10:38:43Z</time>
      </trkpt>
      <trkpt lat="46.05906" lon="4.70448">
        <ele>195</ele>
        <time>2017-12-15T10:38:44Z</time>
      </trkpt>
      <trkpt lat="46.05909" lon="4.70455">
        <ele>195</ele>
        <time>2017-12-15T10:38:45Z</time>
      </trkpt>
      <trkpt lat="46.05913" lon="4.70462">
        <ele>195</ele>
        <time>2017-12-15T10:38:46Z</time>
      </trkpt>
      <trkpt lat="46.05916" lon="4.7047">
        <ele>195</ele>
        <time>2017-12-15T10:38:47Z</time>
      </trkpt>
      <trkpt lat="46.05917" lon="4.7048">
        <ele>195</ele>
        <time>2017-12-15T10:38:48Z</time>
      </trkpt>
      <trkpt lat="46.0592" lon="4.70487">
        <ele>196</ele>
        <time>2017-12-15T10:38:49Z</time>
      </trkpt>
      <trkpt lat="46.05922" lon="4.70494">
        <ele>196</ele>
        <time>2017-12-15T10:38:50Z</time>
      </trkpt>
      <trkpt lat="46.05925" lon="4.70501">
        <ele>196</ele>
        <time>2017-12-15T10:38:51Z</time>
      </trkpt>
      <trkpt lat="46.05925" lon="4.7051">
        <ele>195</ele>
        <time>2017-12-15T10:38:52Z</time>
      </trkpt>
      <trkpt lat="46.05924" lon="4.70518">
        <ele>195</ele>
        <time>2017-12-15T10:38:53Z</time>
      </trkpt>
      <trkpt lat="46.05923" lon="4.70527">
        <ele>195</ele>
        <time>2017-12-15T10:38:54Z</time>
      </trkpt>
      <trkpt lat="46.05922" lon="4.70534">
        <ele>195</ele>
        <time>2017-12-15T10:38:55Z</time>
      </trkpt>
      <trkpt lat="46.05919" lon="4.70541">
        <ele>195</ele>
        <time>2017-12-15T10:38:56Z</time>
      </trkpt>
      <trkpt lat="46.05917" lon="4.7055">
        <ele>195</ele>
        <time>2017-12-15T10:38:57Z</time>
      </trkpt>
      <trkpt lat="46.05915" lon="4.70559">
        <ele>195</ele>
        <time>2017-12-15T10:38:58Z</time>
      </trkpt>
      <trkpt lat="46.05914" lon="4.70567">
        <ele>195</ele>
        <time>2017-12-15T10:38:59Z</time>
      </trkpt>
      <trkpt lat="46.05911" lon="4.70575">
        <ele>195</ele>
        <time>2017-12-15T10:39:00Z</time>
      </trkpt>
      <trkpt lat="46.05909" lon="4.70583">
        <ele>195</ele>
        <time>2017-12-15T10:39:01Z</time>
      </trkpt>
      <trkpt lat="46.05907" lon="4.70591">
        <ele>194</ele>
        <time>2017-12-15T10:39:02Z</time>
      </trkpt>
      <trkpt lat="46.05905" lon="4.70601">
        <ele>194</ele>
        <time>2017-12-15T10:39:03Z</time>
      </trkpt>
      <trkpt lat="46.05904" lon="4.70609">
        <ele>194</ele>
        <time>2017-12-15T10:39:04Z</time>
      </trkpt>
      <trkpt lat="46.05903" lon="4.70619">
        <ele>194</ele>
        <time>2017-12-15T10:39:05Z</time>
      </trkpt>
      <trkpt lat="46.05902" lon="4.70628">
        <ele>194</ele>
        <time>2017-12-15T10:39:06Z</time>
      </trkpt>
      <trkpt lat="46.05901" lon="4.70637">
        <ele>194</ele>
        <time>2017-12-15T10:39:07Z</time>
      </trkpt>
      <trkpt lat="46.059" lon="4.70646">
        <ele>194</ele>
        <time>2017-12-15T10:39:08Z</time>
      </trkpt>
      <trkpt lat="46.059" lon="4.70655">
        <ele>194</ele>
        <time>2017-12-15T10:39:09Z</time>
      </trkpt>
      <trkpt lat="46.05899" lon="4.70664">
        <ele>194</ele>
        <time>2017-12-15T10:39:10Z</time>
      </trkpt>
      <trkpt lat="46.059" lon="4.70671">
        <ele>194</ele>
        <time>2017-12-15T10:39:11Z</time>
      </trkpt>
      <trkpt lat="46.05901" lon="4.7068">
        <ele>194</ele>
        <time>2017-12-15T10:39:12Z</time>
      </trkpt>
      <trkpt lat="46.05902" lon="4.70691">
        <ele>194</ele>
        <time>2017-12-15T10:39:13Z</time>
      </trkpt>
      <trkpt lat="46.05903" lon="4.70699">
        <ele>194</ele>
        <time>2017-12-15T10:39:14Z</time>
      </trkpt>
      <trkpt lat="46.05904" lon="4.70707">
        <ele>194</ele>
        <time>2017-12-15T10:39:15Z</time>
      </trkpt>
      <trkpt lat="46.05905" lon="4.70716">
        <ele>194</ele>
        <time>2017-12-15T10:39:16Z</time>
      </trkpt>
      <trkpt lat="46.05907" lon="4.70726">
        <ele>194</ele>
        <time>2017-12-15T10:39:17Z</time>
      </trkpt>
      <trkpt lat="46.05908" lon="4.70735">
        <ele>194</ele>
        <time>2017-12-15T10:39:18Z</time>
      </trkpt>
      <trkpt lat="46.05909" lon="4.70743">
        <ele>194</ele>
        <time>2017-12-15T10:39:19Z</time>
      </trkpt>
      <trkpt lat="46.05912" lon="4.70753">
        <ele>194</ele>
        <time>2017-12-15T10:39:20Z</time>
      </trkpt>
      <trkpt lat="46.05913" lon="4.70761">
        <ele>194</ele>
        <time>2017-12-15T10:39:21Z</time>
      </trkpt>
      <trkpt lat="46.05916" lon="4.7077">
        <ele>194</ele>
        <time>2017-12-15T10:39:22Z</time>
      </trkpt>
      <trkpt lat="46.05918" lon="4.70777">
        <ele>194</ele>
        <time>2017-12-15T10:39:23Z</time>
      </trkpt>
      <trkpt lat="46.05919" lon="4.70786">
        <ele>194</ele>
        <time>2017-12-15T10:39:24Z</time>
      </trkpt>
      <trkpt lat="46.05919" lon="4.70794">
        <ele>194</ele>
        <time>2017-12-15T10:39:25Z</time>
      </trkpt>
      <trkpt lat="46.0592" lon="4.70804">
        <ele>194</ele>
        <time>2017-12-15T10:39:26Z</time>
      </trkpt>
      <trkpt lat="46.05921" lon="4.70812">
        <ele>194</ele>
        <time>2017-12-15T10:39:27Z</time>
      </trkpt>
      <trkpt lat="46.05922" lon="4.70821">
        <ele>195</ele>
        <time>2017-12-15T10:39:28Z</time>
      </trkpt>
      <trkpt lat="46.05923" lon="4.70831">
        <ele>195</ele>
        <time>2017-12-15T10:39:29Z</time>
      </trkpt>
      <trkpt lat="46.05924" lon="4.70838">
        <ele>195</ele>
        <time>2017-12-15T10:39:30Z</time>
      </trkpt>
      <trkpt lat="46.05925" lon="4.70847">
        <ele>194</ele>
        <time>2017-12-15T10:39:31Z</time>
      </trkpt>
      <trkpt lat="46.05926" lon="4.70856">
        <ele>194</ele>
        <time>2017-12-15T10:39:32Z</time>
      </trkpt>
      <trkpt lat="46.05926" lon="4.70864">
        <ele>194</ele>
        <time>2017-12-15T10:39:33Z</time>
      </trkpt>
      <trkpt lat="46.05926" lon="4.70873">
        <ele>194</ele>
        <time>2017-12-15T10:39:34Z</time>
      </trkpt>
      <trkpt lat="46.05926" lon="4.70882">
        <ele>194</ele>
        <time>2017-12-15T10:39:35Z</time>
      </trkpt>
      <trkpt lat="46.05926" lon="4.7089">
        <ele>194</ele>
        <time>2017-12-15T10:39:36Z</time>
      </trkpt>
      <trkpt lat="46.05927" lon="4.709">
        <ele>194</ele>
        <time>2017-12-15T10:39:37Z</time>
      </trkpt>
      <trkpt lat="46.05928" lon="4.70909">
        <ele>194</ele>
        <time>2017-12-15T10:39:38Z</time>
      </trkpt>
      <trkpt lat="46.05929" lon="4.70919">
        <ele>194</ele>
        <time>2017-12-15T10:39:39Z</time>
      </trkpt>
      <trkpt lat="46.0593" lon="4.70929">
        <ele>194</ele>
        <time>2017-12-15T10:39:40Z</time>
      </trkpt>
      <trkpt lat="46.05932" lon="4.70939">
        <ele>194</ele>
        <time>2017-12-15T10:39:41Z</time>
      </trkpt>
      <trkpt lat="46.05934" lon="4.70949">
        <ele>193</ele>
        <time>2017-12-15T10:39:42Z</time>
      </trkpt>
      <trkpt lat="46.05936" lon="4.70958">
        <ele>193</ele>
        <time>2017-12-15T10:39:43Z</time>
      </trkpt>
      <trkpt lat="46.05939" lon="4.70967">
        <ele>193</ele>
        <time>2017-12-15T10:39:44Z</time>
      </trkpt>
      <trkpt lat="46.05942" lon="4.70976">
        <ele>193</ele>
        <time>2017-12-15T10:39:45Z</time>
      </trkpt>
      <trkpt lat="46.05943" lon="4.70984">
        <ele>193</ele>
        <time>2017-12-15T10:39:46Z</time>
      </trkpt>
      <trkpt lat="46.05946" lon="4.70992">
        <ele>193</ele>
        <time>2017-12-15T10:39:47Z</time>
      </trkpt>
      <trkpt lat="46.05949" lon="4.71">
        <ele>193</ele>
        <time>2017-12-15T10:39:48Z</time>
      </trkpt>
      <trkpt lat="46.05952" lon="4.71008">
        <ele>193</ele>
        <time>2017-12-15T10:39:49Z</time>
      </trkpt>
      <trkpt lat="46.05955" lon="4.71015">
        <ele>193</ele>
        <time>2017-12-15T10:39:50Z</time>
      </trkpt>
      <trkpt lat="46.05958" lon="4.71023">
        <ele>193</ele>
        <time>2017-12-15T10:39:51Z</time>
      </trkpt>
      <trkpt lat="46.05962" lon="4.71031">
        <ele>193</ele>
        <time>2017-12-15T10:39:52Z</time>
      </trkpt>
      <trkpt lat="46.05965" lon="4.71037">
        <ele>193</ele>
        <time>2017-12-15T10:39:53Z</time>
      </trkpt>
      <trkpt lat="46.05968" lon="4.71043">
        <ele>192</ele>
        <time>2017-12-15T10:39:54Z</time>
      </trkpt>
      <trkpt lat="46.05971" lon="4.7105">
        <ele>192</ele>
        <time>2017-12-15T10:39:55Z</time>
      </trkpt>
      <trkpt lat="46.05974" lon="4.71056">
        <ele>193</ele>
        <time>2017-12-15T10:39:56Z</time>
      </trkpt>
      <trkpt lat="46.05977" lon="4.71063">
        <ele>193</ele>
        <time>2017-12-15T10:39:57Z</time>
      </trkpt>
      <trkpt lat="46.0598" lon="4.7107">
        <ele>193</ele>
        <time>2017-12-15T10:39:58Z</time>
      </trkpt>
      <trkpt lat="46.05983" lon="4.71077">
        <ele>193</ele>
        <time>2017-12-15T10:39:59Z</time>
      </trkpt>
      <trkpt lat="46.05987" lon="4.71085">
        <ele>193</ele>
        <time>2017-12-15T10:40:00Z</time>
      </trkpt>
      <trkpt lat="46.0599" lon="4.71092">
        <ele>193</ele>
        <time>2017-12-15T10:40:01Z</time>
      </trkpt>
      <trkpt lat="46.05993" lon="4.71101">
        <ele>193</ele>
        <time>2017-12-15T10:40:02Z</time>
      </trkpt>
      <trkpt lat="46.05996" lon="4.71109">
        <ele>193</ele>
        <time>2017-12-15T10:40:03Z</time>
      </trkpt>
      <trkpt lat="46.05999" lon="4.71118">
        <ele>193</ele>
        <time>2017-12-15T10:40:04Z</time>
      </trkpt>
      <trkpt lat="46.06003" lon="4.71126">
        <ele>193</ele>
        <time>2017-12-15T10:40:05Z</time>
      </trkpt>
      <trkpt lat="46.06007" lon="4.71135">
        <ele>193</ele>
        <time>2017-12-15T10:40:06Z</time>
      </trkpt>
      <trkpt lat="46.0601" lon="4.71143">
        <ele>193</ele>
        <time>2017-12-15T10:40:07Z</time>
      </trkpt>
      <trkpt lat="46.06012" lon="4.71152">
        <ele>194</ele>
        <time>2017-12-15T10:40:08Z</time>
      </trkpt>
      <trkpt lat="46.06016" lon="4.71161">
        <ele>194</ele>
        <time>2017-12-15T10:40:09Z</time>
      </trkpt>
      <trkpt lat="46.0602" lon="4.71169">
        <ele>194</ele>
        <time>2017-12-15T10:40:10Z</time>
      </trkpt>
      <trkpt lat="46.06024" lon="4.7118">
        <ele>193</ele>
        <time>2017-12-15T10:40:11Z</time>
      </trkpt>
      <trkpt lat="46.06026" lon="4.71188">
        <ele>193</ele>
        <time>2017-12-15T10:40:12Z</time>
      </trkpt>
      <trkpt lat="46.0603" lon="4.71196">
        <ele>193</ele>
        <time>2017-12-15T10:40:13Z</time>
      </trkpt>
      <trkpt lat="46.06032" lon="4.71204">
        <ele>193</ele>
        <time>2017-12-15T10:40:14Z</time>
      </trkpt>
      <trkpt lat="46.06036" lon="4.71212">
        <ele>193</ele>
        <time>2017-12-15T10:40:15Z</time>
      </trkpt>
      <trkpt lat="46.06038" lon="4.71219">
        <ele>193</ele>
        <time>2017-12-15T10:40:16Z</time>
      </trkpt>
      <trkpt lat="46.06041" lon="4.71227">
        <ele>193</ele>
        <time>2017-12-15T10:40:17Z</time>
      </trkpt>
      <trkpt lat="46.06044" lon="4.71235">
        <ele>193</ele>
        <time>2017-12-15T10:40:18Z</time>
      </trkpt>
      <trkpt lat="46.06048" lon="4.71243">
        <ele>193</ele>
        <time>2017-12-15T10:40:19Z</time>
      </trkpt>
      <trkpt lat="46.0605" lon="4.71251">
        <ele>193</ele>
        <time>2017-12-15T10:40:20Z</time>
      </trkpt>
      <trkpt lat="46.06054" lon="4.71259">
        <ele>193</ele>
        <time>2017-12-15T10:40:21Z</time>
      </trkpt>
      <trkpt lat="46.06056" lon="4.71267">
        <ele>193</ele>
        <time>2017-12-15T10:40:22Z</time>
      </trkpt>
      <trkpt lat="46.06059" lon="4.71275">
        <ele>193</ele>
        <time>2017-12-15T10:40:23Z</time>
      </trkpt>
      <trkpt lat="46.06061" lon="4.71285">
        <ele>193</ele>
        <time>2017-12-15T10:40:24Z</time>
      </trkpt>
      <trkpt lat="46.06065" lon="4.71292">
        <ele>193</ele>
        <time>2017-12-15T10:40:25Z</time>
      </trkpt>
      <trkpt lat="46.06068" lon="4.713">
        <ele>193</ele>
        <time>2017-12-15T10:40:26Z</time>
      </trkpt>
      <trkpt lat="46.0607" lon="4.71307">
        <ele>193</ele>
        <time>2017-12-15T10:40:27Z</time>
      </trkpt>
      <trkpt lat="46.06074" lon="4.71314">
        <ele>193</ele>
        <time>2017-12-15T10:40:28Z</time>
      </trkpt>
      <trkpt lat="46.06076" lon="4.71321">
        <ele>193</ele>
        <time>2017-12-15T10:40:29Z</time>
      </trkpt>
      <trkpt lat="46.06079" lon="4.71329">
        <ele>193</ele>
        <time>2017-12-15T10:40:30Z</time>
      </trkpt>
      <trkpt lat="46.06081" lon="4.71336">
        <ele>193</ele>
        <time>2017-12-15T10:40:31Z</time>
      </trkpt>
      <trkpt lat="46.06084" lon="4.71344">
        <ele>193</ele>
        <time>2017-12-15T10:40:32Z</time>
      </trkpt>
      <trkpt lat="46.06086" lon="4.71352">
        <ele>193</ele>
        <time>2017-12-15T10:40:33Z</time>
      </trkpt>
      <trkpt lat="46.06088" lon="4.7136">
        <ele>193</ele>
        <time>2017-12-15T10:40:34Z</time>
      </trkpt>
      <trkpt lat="46.0609" lon="4.71369">
        <ele>193</ele>
        <time>2017-12-15T10:40:35Z</time>
      </trkpt>
      <trkpt lat="46.06093" lon="4.71378">
        <ele>193</ele>
        <time>2017-12-15T10:40:36Z</time>
      </trkpt>
      <trkpt lat="46.06096" lon="4.71386">
        <ele>193</ele>
        <time>2017-12-15T10:40:37Z</time>
      </trkpt>
      <trkpt lat="46.06099" lon="4.71396">
        <ele>193</ele>
        <time>2017-12-15T10:40:38Z</time>
      </trkpt>
      <trkpt lat="46.06102" lon="4.71404">
        <ele>193</ele>
        <time>2017-12-15T10:40:39Z</time>
      </trkpt>
      <trkpt lat="46.06105" lon="4.71412">
        <ele>193</ele>
        <time>2017-12-15T10:40:40Z</time>
      </trkpt>
      <trkpt lat="46.06107" lon="4.71421">
        <ele>193</ele>
        <time>2017-12-15T10:40:41Z</time>
      </trkpt>
      <trkpt lat="46.06109" lon="4.7143">
        <ele>193</ele>
        <time>2017-12-15T10:40:42Z</time>
      </trkpt>
      <trkpt lat="46.06112" lon="4.71437">
        <ele>193</ele>
        <time>2017-12-15T10:40:43Z</time>
      </trkpt>
      <trkpt lat="46.06114" lon="4.71445">
        <ele>193</ele>
        <time>2017-12-15T10:40:44Z</time>
      </trkpt>
      <trkpt lat="46.06116" lon="4.71452">
        <ele>193</ele>
        <time>2017-12-15T10:40:45Z</time>
      </trkpt>
      <trkpt lat="46.06118" lon="4.71461">
        <ele>193</ele>
        <time>2017-12-15T10:40:46Z</time>
      </trkpt>
      <trkpt lat="46.0612" lon="4.71471">
        <ele>193</ele>
        <time>2017-12-15T10:40:47Z</time>
      </trkpt>
      <trkpt lat="46.06123" lon="4.7148">
        <ele>193</ele>
        <time>2017-12-15T10:40:48Z</time>
      </trkpt>
      <trkpt lat="46.06125" lon="4.71489">
        <ele>192</ele>
        <time>2017-12-15T10:40:49Z</time>
      </trkpt>
      <trkpt lat="46.06128" lon="4.71497">
        <ele>192</ele>
        <time>2017-12-15T10:40:50Z</time>
      </trkpt>
      <trkpt lat="46.06131" lon="4.71504">
        <ele>192</ele>
        <time>2017-12-15T10:40:51Z</time>
      </trkpt>
      <trkpt lat="46.06135" lon="4.71513">
        <ele>192</ele>
        <time>2017-12-15T10:40:52Z</time>
      </trkpt>
      <trkpt lat="46.06138" lon="4.7152">
        <ele>192</ele>
        <time>2017-12-15T10:40:53Z</time>
      </trkpt>
      <trkpt lat="46.06141" lon="4.7153">
        <ele>192</ele>
        <time>2017-12-15T10:40:54Z</time>
      </trkpt>
      <trkpt lat="46.06145" lon="4.71537">
        <ele>192</ele>
        <time>2017-12-15T10:40:55Z</time>
      </trkpt>
      <trkpt lat="46.06149" lon="4.71543">
        <ele>192</ele>
        <time>2017-12-15T10:40:56Z</time>
      </trkpt>
      <trkpt lat="46.06154" lon="4.71549">
        <ele>192</ele>
        <time>2017-12-15T10:40:57Z</time>
      </trkpt>
      <trkpt lat="46.06158" lon="4.71555">
        <ele>192</ele>
        <time>2017-12-15T10:40:58Z</time>
      </trkpt>
      <trkpt lat="46.06164" lon="4.7156">
        <ele>192</ele>
        <time>2017-12-15T10:40:59Z</time>
      </trkpt>
      <trkpt lat="46.06169" lon="4.71566">
        <ele>191</ele>
        <time>2017-12-15T10:41:00Z</time>
      </trkpt>
      <trkpt lat="46.06174" lon="4.71572">
        <ele>191</ele>
        <time>2017-12-15T10:41:01Z</time>
      </trkpt>
      <trkpt lat="46.06179" lon="4.71579">
        <ele>191</ele>
        <time>2017-12-15T10:41:02Z</time>
      </trkpt>
      <trkpt lat="46.06184" lon="4.71587">
        <ele>191</ele>
        <time>2017-12-15T10:41:03Z</time>
      </trkpt>
      <trkpt lat="46.06187" lon="4.71594">
        <ele>191</ele>
        <time>2017-12-15T10:41:04Z</time>
      </trkpt>
      <trkpt lat="46.06193" lon="4.71601">
        <ele>191</ele>
        <time>2017-12-15T10:41:05Z</time>
      </trkpt>
      <trkpt lat="46.06197" lon="4.71607">
        <ele>191</ele>
        <time>2017-12-15T10:41:06Z</time>
      </trkpt>
      <trkpt lat="46.062" lon="4.71614">
        <ele>191</ele>
        <time>2017-12-15T10:41:07Z</time>
      </trkpt>
      <trkpt lat="46.06204" lon="4.71621">
        <ele>191</ele>
        <time>2017-12-15T10:41:08Z</time>
      </trkpt>
      <trkpt lat="46.06208" lon="4.71627">
        <ele>191</ele>
        <time>2017-12-15T10:41:09Z</time>
      </trkpt>
      <trkpt lat="46.06213" lon="4.71634">
        <ele>191</ele>
        <time>2017-12-15T10:41:10Z</time>
      </trkpt>
      <trkpt lat="46.06216" lon="4.7164">
        <ele>191</ele>
        <time>2017-12-15T10:41:11Z</time>
      </trkpt>
      <trkpt lat="46.0622" lon="4.71647">
        <ele>191</ele>
        <time>2017-12-15T10:41:12Z</time>
      </trkpt>
      <trkpt lat="46.06224" lon="4.71653">
        <ele>191</ele>
        <time>2017-12-15T10:41:13Z</time>
      </trkpt>
      <trkpt lat="46.06227" lon="4.71659">
        <ele>191</ele>
        <time>2017-12-15T10:41:14Z</time>
      </trkpt>
      <trkpt lat="46.06231" lon="4.71665">
        <ele>191</ele>
        <time>2017-12-15T10:41:15Z</time>
      </trkpt>
      <trkpt lat="46.06234" lon="4.71673">
        <ele>191</ele>
        <time>2017-12-15T10:41:16Z</time>
      </trkpt>
      <trkpt lat="46.06237" lon="4.7168">
        <ele>191</ele>
        <time>2017-12-15T10:41:17Z</time>
      </trkpt>
      <trkpt lat="46.0624" lon="4.71689">
        <ele>191</ele>
        <time>2017-12-15T10:41:18Z</time>
      </trkpt>
      <trkpt lat="46.06242" lon="4.71696">
        <ele>191</ele>
        <time>2017-12-15T10:41:19Z</time>
      </trkpt>
      <trkpt lat="46.06244" lon="4.71704">
        <ele>191</ele>
        <time>2017-12-15T10:41:20Z</time>
      </trkpt>
      <trkpt lat="46.06246" lon="4.7171">
        <ele>191</ele>
        <time>2017-12-15T10:41:21Z</time>
      </trkpt>
      <trkpt lat="46.06249" lon="4.71717">
        <ele>191</ele>
        <time>2017-12-15T10:41:22Z</time>
      </trkpt>
      <trkpt lat="46.06251" lon="4.71725">
        <ele>190</ele>
        <time>2017-12-15T10:41:23Z</time>
      </trkpt>
      <trkpt lat="46.06254" lon="4.71733">
        <ele>190</ele>
        <time>2017-12-15T10:41:24Z</time>
      </trkpt>
      <trkpt lat="46.06257" lon="4.7174">
        <ele>190</ele>
        <time>2017-12-15T10:41:25Z</time>
      </trkpt>
      <trkpt lat="46.0626" lon="4.71748">
        <ele>191</ele>
        <time>2017-12-15T10:41:26Z</time>
      </trkpt>
      <trkpt lat="46.06263" lon="4.71756">
        <ele>190</ele>
        <time>2017-12-15T10:41:27Z</time>
      </trkpt>
      <trkpt lat="46.06265" lon="4.71764">
        <ele>190</ele>
        <time>2017-12-15T10:41:28Z</time>
      </trkpt>
      <trkpt lat="46.06267" lon="4.71772">
        <ele>190</ele>
        <time>2017-12-15T10:41:29Z</time>
      </trkpt>
      <trkpt lat="46.0627" lon="4.71782">
        <ele>190</ele>
        <time>2017-12-15T10:41:30Z</time>
      </trkpt>
      <trkpt lat="46.06273" lon="4.7179">
        <ele>190</ele>
        <time>2017-12-15T10:41:31Z</time>
      </trkpt>
      <trkpt lat="46.06275" lon="4.71798">
        <ele>190</ele>
        <time>2017-12-15T10:41:32Z</time>
      </trkpt>
      <trkpt lat="46.06277" lon="4.71806">
        <ele>190</ele>
        <time>2017-12-15T10:41:33Z</time>
      </trkpt>
      <trkpt lat="46.06278" lon="4.71814">
        <ele>190</ele>
        <time>2017-12-15T10:41:34Z</time>
      </trkpt>
      <trkpt lat="46.0628" lon="4.71822">
        <ele>190</ele>
        <time>2017-12-15T10:41:35Z</time>
      </trkpt>
      <trkpt lat="46.06283" lon="4.7183">
        <ele>189</ele>
        <time>2017-12-15T10:41:36Z</time>
      </trkpt>
      <trkpt lat="46.06285" lon="4.71839">
        <ele>189</ele>
        <time>2017-12-15T10:41:37Z</time>
      </trkpt>
      <trkpt lat="46.06286" lon="4.71847">
        <ele>189</ele>
        <time>2017-12-15T10:41:38Z</time>
      </trkpt>
      <trkpt lat="46.06288" lon="4.71857">
        <ele>189</ele>
        <time>2017-12-15T10:41:39Z</time>
      </trkpt>
      <trkpt lat="46.0629" lon="4.71866">
        <ele>189</ele>
        <time>2017-12-15T10:41:40Z</time>
      </trkpt>
      <trkpt lat="46.06293" lon="4.71876">
        <ele>189</ele>
        <time>2017-12-15T10:41:41Z</time>
      </trkpt>
      <trkpt lat="46.06295" lon="4.71886">
        <ele>190</ele>
        <time>2017-12-15T10:41:42Z</time>
      </trkpt>
      <trkpt lat="46.06298" lon="4.71896">
        <ele>190</ele>
        <time>2017-12-15T10:41:43Z</time>
      </trkpt>
      <trkpt lat="46.063" lon="4.71902">
        <ele>190</ele>
        <time>2017-12-15T10:41:44Z</time>
      </trkpt>
      <trkpt lat="46.06302" lon="4.7191">
        <ele>190</ele>
        <time>2017-12-15T10:41:45Z</time>
      </trkpt>
      <trkpt lat="46.06303" lon="4.71917">
        <ele>190</ele>
        <time>2017-12-15T10:41:46Z</time>
      </trkpt>
      <trkpt lat="46.06304" lon="4.71925">
        <ele>190</ele>
        <time>2017-12-15T10:41:47Z</time>
      </trkpt>
      <trkpt lat="46.06306" lon="4.71932">
        <ele>190</ele>
        <time>2017-12-15T10:41:48Z</time>
      </trkpt>
      <trkpt lat="46.06307" lon="4.71939">
        <ele>190</ele>
        <time>2017-12-15T10:41:49Z</time>
      </trkpt>
      <trkpt lat="46.06309" lon="4.71949">
        <ele>190</ele>
        <time>2017-12-15T10:41:50Z</time>
      </trkpt>
      <trkpt lat="46.06312" lon="4.71956">
        <ele>190</ele>
        <time>2017-12-15T10:41:51Z</time>
      </trkpt>
      <trkpt lat="46.06313" lon="4.71963">
        <ele>190</ele>
        <time>2017-12-15T10:41:52Z</time>
      </trkpt>
      <trkpt lat="46.06315" lon="4.7197">
        <ele>190</ele>
        <time>2017-12-15T10:41:53Z</time>
      </trkpt>
      <trkpt lat="46.06317" lon="4.71976">
        <ele>190</ele>
        <time>2017-12-15T10:41:54Z</time>
      </trkpt>
      <trkpt lat="46.06319" lon="4.71983">
        <ele>190</ele>
        <time>2017-12-15T10:41:55Z</time>
      </trkpt>
      <trkpt lat="46.06321" lon="4.7199">
        <ele>190</ele>
        <time>2017-12-15T10:41:56Z</time>
      </trkpt>
      <trkpt lat="46.06323" lon="4.71999">
        <ele>189</ele>
        <time>2017-12-15T10:41:57Z</time>
      </trkpt>
      <trkpt lat="46.06327" lon="4.72005">
        <ele>189</ele>
        <time>2017-12-15T10:41:58Z</time>
      </trkpt>
      <trkpt lat="46.0633" lon="4.72013">
        <ele>190</ele>
        <time>2017-12-15T10:41:59Z</time>
      </trkpt>
      <trkpt lat="46.06334" lon="4.72023">
        <ele>189</ele>
        <time>2017-12-15T10:42:00Z</time>
      </trkpt>
      <trkpt lat="46.06336" lon="4.72032">
        <ele>189</ele>
        <time>2017-12-15T10:42:01Z</time>
      </trkpt>
      <trkpt lat="46.06339" lon="4.72041">
        <ele>189</ele>
        <time>2017-12-15T10:42:02Z</time>
      </trkpt>
      <trkpt lat="46.06343" lon="4.72049">
        <ele>189</ele>
        <time>2017-12-15T10:42:03Z</time>
      </trkpt>
      <trkpt lat="46.06346" lon="4.72059">
        <ele>189</ele>
        <time>2017-12-15T10:42:04Z</time>
      </trkpt>
      <trkpt lat="46.06348" lon="4.72067">
        <ele>189</ele>
        <time>2017-12-15T10:42:05Z</time>
      </trkpt>
      <trkpt lat="46.06352" lon="4.72075">
        <ele>189</ele>
        <time>2017-12-15T10:42:06Z</time>
      </trkpt>
      <trkpt lat="46.06354" lon="4.72083">
        <ele>189</ele>
        <time>2017-12-15T10:42:07Z</time>
      </trkpt>
      <trkpt lat="46.06357" lon="4.72091">
        <ele>189</ele>
        <time>2017-12-15T10:42:08Z</time>
      </trkpt>
      <trkpt lat="46.0636" lon="4.72099">
        <ele>189</ele>
        <time>2017-12-15T10:42:09Z</time>
      </trkpt>
      <trkpt lat="46.06362" lon="4.72106">
        <ele>189</ele>
        <time>2017-12-15T10:42:10Z</time>
      </trkpt>
      <trkpt lat="46.06364" lon="4.72114">
        <ele>189</ele>
        <time>2017-12-15T10:42:11Z</time>
      </trkpt>
      <trkpt lat="46.06365" lon="4.72121">
        <ele>189</ele>
        <time>2017-12-15T10:42:12Z</time>
      </trkpt>
      <trkpt lat="46.06367" lon="4.72128">
        <ele>189</ele>
        <time>2017-12-15T10:42:13Z</time>
      </trkpt>
      <trkpt lat="46.0637" lon="4.72135">
        <ele>189</ele>
        <time>2017-12-15T10:42:14Z</time>
      </trkpt>
      <trkpt lat="46.06372" lon="4.72143">
        <ele>189</ele>
        <time>2017-12-15T10:42:15Z</time>
      </trkpt>
      <trkpt lat="46.06374" lon="4.7215">
        <ele>189</ele>
        <time>2017-12-15T10:42:16Z</time>
      </trkpt>
      <trkpt lat="46.06375" lon="4.72157">
        <ele>189</ele>
        <time>2017-12-15T10:42:17Z</time>
      </trkpt>
      <trkpt lat="46.06378" lon="4.72164">
        <ele>189</ele>
        <time>2017-12-15T10:42:18Z</time>
      </trkpt>
      <trkpt lat="46.06381" lon="4.72171">
        <ele>190</ele>
        <time>2017-12-15T10:42:19Z</time>
      </trkpt>
      <trkpt lat="46.06383" lon="4.72177">
        <ele>190</ele>
        <time>2017-12-15T10:42:20Z</time>
      </trkpt>
      <trkpt lat="46.06386" lon="4.72184">
        <ele>190</ele>
        <time>2017-12-15T10:42:21Z</time>
      </trkpt>
      <trkpt lat="46.06388" lon="4.72191">
        <ele>190</ele>
        <time>2017-12-15T10:42:22Z</time>
      </trkpt>
      <trkpt lat="46.06389" lon="4.72199">
        <ele>190</ele>
        <time>2017-12-15T10:42:23Z</time>
      </trkpt>
      <trkpt lat="46.06392" lon="4.72205">
        <ele>190</ele>
        <time>2017-12-15T10:42:24Z</time>
      </trkpt>
      <trkpt lat="46.06394" lon="4.72212">
        <ele>190</ele>
        <time>2017-12-15T10:42:25Z</time>
      </trkpt>
      <trkpt lat="46.06398" lon="4.72222">
        <ele>190</ele>
        <time>2017-12-15T10:42:27Z</time>
      </trkpt>
      <trkpt lat="46.064" lon="4.72228">
        <ele>190</ele>
        <time>2017-12-15T10:42:28Z</time>
      </trkpt>
      <trkpt lat="46.06403" lon="4.72235">
        <ele>190</ele>
        <time>2017-12-15T10:42:29Z</time>
      </trkpt>
      <trkpt lat="46.06404" lon="4.72242">
        <ele>190</ele>
        <time>2017-12-15T10:42:30Z</time>
      </trkpt>
      <trkpt lat="46.06406" lon="4.72249">
        <ele>190</ele>
        <time>2017-12-15T10:42:31Z</time>
      </trkpt>
      <trkpt lat="46.06407" lon="4.72254">
        <ele>190</ele>
        <time>2017-12-15T10:42:32Z</time>
      </trkpt>
      <trkpt lat="46.06409" lon="4.72261">
        <ele>191</ele>
        <time>2017-12-15T10:42:33Z</time>
      </trkpt>
      <trkpt lat="46.06411" lon="4.72267">
        <ele>191</ele>
        <time>2017-12-15T10:42:34Z</time>
      </trkpt>
      <trkpt lat="46.06412" lon="4.72278">
        <ele>192</ele>
        <time>2017-12-15T10:42:36Z</time>
      </trkpt>
      <trkpt lat="46.06415" lon="4.72283">
        <ele>192</ele>
        <time>2017-12-15T10:42:37Z</time>
      </trkpt>
      <trkpt lat="46.06423" lon="4.72288">
        <ele>190</ele>
        <time>2017-12-15T10:42:39Z</time>
      </trkpt>
      <trkpt lat="46.06427" lon="4.72289">
        <ele>190</ele>
        <time>2017-12-15T10:42:40Z</time>
      </trkpt>
      <trkpt lat="46.06435" lon="4.72292">
        <ele>190</ele>
        <time>2017-12-15T10:42:42Z</time>
      </trkpt>
      <trkpt lat="46.06438" lon="4.72295">
        <ele>190</ele>
        <time>2017-12-15T10:42:43Z</time>
      </trkpt>
      <trkpt lat="46.06441" lon="4.72306">
        <ele>191</ele>
        <time>2017-12-15T10:42:45Z</time>
      </trkpt>
      <trkpt lat="46.0644" lon="4.72313">
        <ele>191</ele>
        <time>2017-12-15T10:42:46Z</time>
      </trkpt>
      <trkpt lat="46.0644" lon="4.72324">
        <ele>191</ele>
        <time>2017-12-15T10:42:47Z</time>
      </trkpt>
      <trkpt lat="46.06439" lon="4.72332">
        <ele>191</ele>
        <time>2017-12-15T10:42:48Z</time>
      </trkpt>
      <trkpt lat="46.06438" lon="4.72338">
        <ele>194</ele>
        <time>2017-12-15T10:42:49Z</time>
      </trkpt>
      <trkpt lat="46.06442" lon="4.72344">
        <ele>194</ele>
        <time>2017-12-15T10:42:50Z</time>
      </trkpt>
      <trkpt lat="46.06443" lon="4.7235">
        <ele>194</ele>
        <time>2017-12-15T10:42:51Z</time>
      </trkpt>
      <trkpt lat="46.06439" lon="4.72357">
        <ele>194</ele>
        <time>2017-12-15T10:42:52Z</time>
      </trkpt>
      <trkpt lat="46.06436" lon="4.72367">
        <ele>194</ele>
        <time>2017-12-15T10:42:54Z</time>
      </trkpt>
      <trkpt lat="46.06434" lon="4.72374">
        <ele>194</ele>
        <time>2017-12-15T10:42:55Z</time>
      </trkpt>
      <trkpt lat="46.0643" lon="4.72385">
        <ele>195</ele>
        <time>2017-12-15T10:42:58Z</time>
      </trkpt>
      <trkpt lat="46.06429" lon="4.7239">
        <ele>195</ele>
        <time>2017-12-15T10:42:59Z</time>
      </trkpt>
      <trkpt lat="46.06425" lon="4.72398">
        <ele>195</ele>
        <time>2017-12-15T10:43:01Z</time>
      </trkpt>
      <trkpt lat="46.06423" lon="4.72403">
        <ele>195</ele>
        <time>2017-12-15T10:43:02Z</time>
      </trkpt>
      <trkpt lat="46.06419" lon="4.7241">
        <ele>196</ele>
        <time>2017-12-15T10:43:04Z</time>
      </trkpt>
      <trkpt lat="46.06416" lon="4.72413">
        <ele>196</ele>
        <time>2017-12-15T10:43:05Z</time>
      </trkpt>
      <trkpt lat="46.06411" lon="4.72423">
        <ele>196</ele>
        <time>2017-12-15T10:43:07Z</time>
      </trkpt>
      <trkpt lat="46.0641" lon="4.72428">
        <ele>197</ele>
        <time>2017-12-15T10:43:08Z</time>
      </trkpt>
      <trkpt lat="46.0641" lon="4.72439">
        <ele>197</ele>
        <time>2017-12-15T10:43:10Z</time>
      </trkpt>
      <trkpt lat="46.06408" lon="4.72445">
        <ele>197</ele>
        <time>2017-12-15T10:43:11Z</time>
      </trkpt>
      <trkpt lat="46.06404" lon="4.72453">
        <ele>197</ele>
        <time>2017-12-15T10:43:13Z</time>
      </trkpt>
      <trkpt lat="46.06402" lon="4.72457">
        <ele>197</ele>
        <time>2017-12-15T10:43:14Z</time>
      </trkpt>
      <trkpt lat="46.06399" lon="4.72468">
        <ele>198</ele>
        <time>2017-12-15T10:43:16Z</time>
      </trkpt>
      <trkpt lat="46.06396" lon="4.72472">
        <ele>198</ele>
        <time>2017-12-15T10:43:17Z</time>
      </trkpt>
      <trkpt lat="46.06395" lon="4.72481">
        <ele>198</ele>
        <time>2017-12-15T10:43:19Z</time>
      </trkpt>
      <trkpt lat="46.06396" lon="4.72487">
        <ele>198</ele>
        <time>2017-12-15T10:43:20Z</time>
      </trkpt>
      <trkpt lat="46.06397" lon="4.72494">
        <ele>198</ele>
        <time>2017-12-15T10:43:21Z</time>
      </trkpt>
      <trkpt lat="46.06399" lon="4.725">
        <ele>198</ele>
        <time>2017-12-15T10:43:22Z</time>
      </trkpt>
      <trkpt lat="46.06401" lon="4.72505">
        <ele>198</ele>
        <time>2017-12-15T10:43:23Z</time>
      </trkpt>
      <trkpt lat="46.06404" lon="4.72512">
        <ele>198</ele>
        <time>2017-12-15T10:43:24Z</time>
      </trkpt>
      <trkpt lat="46.06405" lon="4.72518">
        <ele>198</ele>
        <time>2017-12-15T10:43:25Z</time>
      </trkpt>
      <trkpt lat="46.06407" lon="4.72525">
        <ele>197</ele>
        <time>2017-12-15T10:43:26Z</time>
      </trkpt>
      <trkpt lat="46.06408" lon="4.72533">
        <ele>197</ele>
        <time>2017-12-15T10:43:27Z</time>
      </trkpt>
      <trkpt lat="46.06409" lon="4.72541">
        <ele>197</ele>
        <time>2017-12-15T10:43:28Z</time>
      </trkpt>
      <trkpt lat="46.0641" lon="4.7255">
        <ele>196</ele>
        <time>2017-12-15T10:43:29Z</time>
      </trkpt>
      <trkpt lat="46.06411" lon="4.72559">
        <ele>196</ele>
        <time>2017-12-15T10:43:30Z</time>
      </trkpt>
      <trkpt lat="46.06413" lon="4.72569">
        <ele>196</ele>
        <time>2017-12-15T10:43:31Z</time>
      </trkpt>
      <trkpt lat="46.06416" lon="4.72577">
        <ele>195</ele>
        <time>2017-12-15T10:43:32Z</time>
      </trkpt>
      <trkpt lat="46.06417" lon="4.72588">
        <ele>195</ele>
        <time>2017-12-15T10:43:33Z</time>
      </trkpt>
      <trkpt lat="46.06419" lon="4.72598">
        <ele>194</ele>
        <time>2017-12-15T10:43:34Z</time>
      </trkpt>
      <trkpt lat="46.06421" lon="4.72607">
        <ele>193</ele>
        <time>2017-12-15T10:43:35Z</time>
      </trkpt>
      <trkpt lat="46.06422" lon="4.72617">
        <ele>193</ele>
        <time>2017-12-15T10:43:36Z</time>
      </trkpt>
      <trkpt lat="46.06423" lon="4.72627">
        <ele>193</ele>
        <time>2017-12-15T10:43:37Z</time>
      </trkpt>
      <trkpt lat="46.06424" lon="4.72638">
        <ele>192</ele>
        <time>2017-12-15T10:43:38Z</time>
      </trkpt>
      <trkpt lat="46.06426" lon="4.72648">
        <ele>192</ele>
        <time>2017-12-15T10:43:39Z</time>
      </trkpt>
      <trkpt lat="46.06427" lon="4.72659">
        <ele>192</ele>
        <time>2017-12-15T10:43:40Z</time>
      </trkpt>
      <trkpt lat="46.06429" lon="4.7267">
        <ele>191</ele>
        <time>2017-12-15T10:43:41Z</time>
      </trkpt>
      <trkpt lat="46.0643" lon="4.7268">
        <ele>191</ele>
        <time>2017-12-15T10:43:42Z</time>
      </trkpt>
      <trkpt lat="46.06432" lon="4.72691">
        <ele>190</ele>
        <time>2017-12-15T10:43:43Z</time>
      </trkpt>
      <trkpt lat="46.06434" lon="4.727">
        <ele>190</ele>
        <time>2017-12-15T10:43:44Z</time>
      </trkpt>
      <trkpt lat="46.06435" lon="4.72712">
        <ele>190</ele>
        <time>2017-12-15T10:43:45Z</time>
      </trkpt>
      <trkpt lat="46.06437" lon="4.72722">
        <ele>190</ele>
        <time>2017-12-15T10:43:46Z</time>
      </trkpt>
      <trkpt lat="46.0644" lon="4.72732">
        <ele>189</ele>
        <time>2017-12-15T10:43:47Z</time>
      </trkpt>
      <trkpt lat="46.0644" lon="4.72741">
        <ele>189</ele>
        <time>2017-12-15T10:43:48Z</time>
      </trkpt>
      <trkpt lat="46.06442" lon="4.72751">
        <ele>188</ele>
        <time>2017-12-15T10:43:49Z</time>
      </trkpt>
      <trkpt lat="46.06444" lon="4.72762">
        <ele>188</ele>
        <time>2017-12-15T10:43:50Z</time>
      </trkpt>
      <trkpt lat="46.06445" lon="4.72771">
        <ele>188</ele>
        <time>2017-12-15T10:43:51Z</time>
      </trkpt>
      <trkpt lat="46.06447" lon="4.72781">
        <ele>188</ele>
        <time>2017-12-15T10:43:52Z</time>
      </trkpt>
      <trkpt lat="46.06448" lon="4.72791">
        <ele>188</ele>
        <time>2017-12-15T10:43:53Z</time>
      </trkpt>
      <trkpt lat="46.0645" lon="4.72801">
        <ele>188</ele>
        <time>2017-12-15T10:43:54Z</time>
      </trkpt>
      <trkpt lat="46.06452" lon="4.7281">
        <ele>188</ele>
        <time>2017-12-15T10:43:55Z</time>
      </trkpt>
      <trkpt lat="46.06454" lon="4.72821">
        <ele>188</ele>
        <time>2017-12-15T10:43:56Z</time>
      </trkpt>
      <trkpt lat="46.06455" lon="4.72831">
        <ele>188</ele>
        <time>2017-12-15T10:43:57Z</time>
      </trkpt>
      <trkpt lat="46.06458" lon="4.72842">
        <ele>188</ele>
        <time>2017-12-15T10:43:58Z</time>
      </trkpt>
      <trkpt lat="46.06459" lon="4.72852">
        <ele>188</ele>
        <time>2017-12-15T10:43:59Z</time>
      </trkpt>
      <trkpt lat="46.06462" lon="4.72862">
        <ele>188</ele>
        <time>2017-12-15T10:44:00Z</time>
      </trkpt>
      <trkpt lat="46.06464" lon="4.72872">
        <ele>188</ele>
        <time>2017-12-15T10:44:01Z</time>
      </trkpt>
      <trkpt lat="46.06465" lon="4.72881">
        <ele>188</ele>
        <time>2017-12-15T10:44:02Z</time>
      </trkpt>
      <trkpt lat="46.06467" lon="4.7289">
        <ele>188</ele>
        <time>2017-12-15T10:44:03Z</time>
      </trkpt>
      <trkpt lat="46.06469" lon="4.72899">
        <ele>188</ele>
        <time>2017-12-15T10:44:04Z</time>
      </trkpt>
      <trkpt lat="46.0647" lon="4.72907">
        <ele>188</ele>
        <time>2017-12-15T10:44:05Z</time>
      </trkpt>
      <trkpt lat="46.06471" lon="4.72916">
        <ele>188</ele>
        <time>2017-12-15T10:44:06Z</time>
      </trkpt>
      <trkpt lat="46.06473" lon="4.72924">
        <ele>188</ele>
        <time>2017-12-15T10:44:07Z</time>
      </trkpt>
      <trkpt lat="46.06474" lon="4.72932">
        <ele>188</ele>
        <time>2017-12-15T10:44:08Z</time>
      </trkpt>
      <trkpt lat="46.06476" lon="4.7294">
        <ele>188</ele>
        <time>2017-12-15T10:44:09Z</time>
      </trkpt>
      <trkpt lat="46.06477" lon="4.72949">
        <ele>188</ele>
        <time>2017-12-15T10:44:10Z</time>
      </trkpt>
      <trkpt lat="46.06479" lon="4.72956">
        <ele>188</ele>
        <time>2017-12-15T10:44:11Z</time>
      </trkpt>
      <trkpt lat="46.06478" lon="4.72964">
        <ele>188</ele>
        <time>2017-12-15T10:44:12Z</time>
      </trkpt>
      <trkpt lat="46.06478" lon="4.72972">
        <ele>188</ele>
        <time>2017-12-15T10:44:13Z</time>
      </trkpt>
      <trkpt lat="46.06476" lon="4.72977">
        <ele>188</ele>
        <time>2017-12-15T10:44:14Z</time>
      </trkpt>
      <trkpt lat="46.06476" lon="4.72985">
        <ele>188</ele>
        <time>2017-12-15T10:44:15Z</time>
      </trkpt>
      <trkpt lat="46.06477" lon="4.72992">
        <ele>189</ele>
        <time>2017-12-15T10:44:16Z</time>
      </trkpt>
      <trkpt lat="46.0648" lon="4.72998">
        <ele>189</ele>
        <time>2017-12-15T10:44:17Z</time>
      </trkpt>
      <trkpt lat="46.06484" lon="4.73004">
        <ele>189</ele>
        <time>2017-12-15T10:44:18Z</time>
      </trkpt>
      <trkpt lat="46.06488" lon="4.73009">
        <ele>189</ele>
        <time>2017-12-15T10:44:19Z</time>
      </trkpt>
      <trkpt lat="46.06491" lon="4.73016">
        <ele>189</ele>
        <time>2017-12-15T10:44:20Z</time>
      </trkpt>
      <trkpt lat="46.06495" lon="4.73024">
        <ele>189</ele>
        <time>2017-12-15T10:44:21Z</time>
      </trkpt>
      <trkpt lat="46.06499" lon="4.73031">
        <ele>189</ele>
        <time>2017-12-15T10:44:22Z</time>
      </trkpt>
      <trkpt lat="46.06502" lon="4.73039">
        <ele>189</ele>
        <time>2017-12-15T10:44:23Z</time>
      </trkpt>
      <trkpt lat="46.06506" lon="4.73047">
        <ele>189</ele>
        <time>2017-12-15T10:44:24Z</time>
      </trkpt>
      <trkpt lat="46.0651" lon="4.73056">
        <ele>188</ele>
        <time>2017-12-15T10:44:25Z</time>
      </trkpt>
      <trkpt lat="46.06513" lon="4.73065">
        <ele>189</ele>
        <time>2017-12-15T10:44:26Z</time>
      </trkpt>
      <trkpt lat="46.06516" lon="4.73073">
        <ele>189</ele>
        <time>2017-12-15T10:44:27Z</time>
      </trkpt>
      <trkpt lat="46.0652" lon="4.73082">
        <ele>188</ele>
        <time>2017-12-15T10:44:28Z</time>
      </trkpt>
      <trkpt lat="46.06522" lon="4.73091">
        <ele>188</ele>
        <time>2017-12-15T10:44:29Z</time>
      </trkpt>
      <trkpt lat="46.06526" lon="4.73099">
        <ele>188</ele>
        <time>2017-12-15T10:44:30Z</time>
      </trkpt>
      <trkpt lat="46.0653" lon="4.73107">
        <ele>188</ele>
        <time>2017-12-15T10:44:31Z</time>
      </trkpt>
      <trkpt lat="46.06533" lon="4.73115">
        <ele>188</ele>
        <time>2017-12-15T10:44:32Z</time>
      </trkpt>
      <trkpt lat="46.06537" lon="4.73124">
        <ele>188</ele>
        <time>2017-12-15T10:44:33Z</time>
      </trkpt>
      <trkpt lat="46.06539" lon="4.73132">
        <ele>188</ele>
        <time>2017-12-15T10:44:34Z</time>
      </trkpt>
      <trkpt lat="46.0654" lon="4.73141">
        <ele>188</ele>
        <time>2017-12-15T10:44:35Z</time>
      </trkpt>
      <trkpt lat="46.06542" lon="4.7315">
        <ele>188</ele>
        <time>2017-12-15T10:44:36Z</time>
      </trkpt>
      <trkpt lat="46.06542" lon="4.73158">
        <ele>187</ele>
        <time>2017-12-15T10:44:37Z</time>
      </trkpt>
      <trkpt lat="46.06542" lon="4.73167">
        <ele>187</ele>
        <time>2017-12-15T10:44:38Z</time>
      </trkpt>
      <trkpt lat="46.06543" lon="4.73177">
        <ele>187</ele>
        <time>2017-12-15T10:44:39Z</time>
      </trkpt>
      <trkpt lat="46.06544" lon="4.73186">
        <ele>187</ele>
        <time>2017-12-15T10:44:40Z</time>
      </trkpt>
      <trkpt lat="46.06545" lon="4.73196">
        <ele>187</ele>
        <time>2017-12-15T10:44:41Z</time>
      </trkpt>
      <trkpt lat="46.06546" lon="4.73206">
        <ele>186</ele>
        <time>2017-12-15T10:44:42Z</time>
      </trkpt>
      <trkpt lat="46.06547" lon="4.73216">
        <ele>186</ele>
        <time>2017-12-15T10:44:43Z</time>
      </trkpt>
      <trkpt lat="46.06549" lon="4.73226">
        <ele>186</ele>
        <time>2017-12-15T10:44:44Z</time>
      </trkpt>
      <trkpt lat="46.06551" lon="4.73237">
        <ele>186</ele>
        <time>2017-12-15T10:44:45Z</time>
      </trkpt>
      <trkpt lat="46.06554" lon="4.73247">
        <ele>186</ele>
        <time>2017-12-15T10:44:46Z</time>
      </trkpt>
      <trkpt lat="46.06557" lon="4.73257">
        <ele>184</ele>
        <time>2017-12-15T10:44:47Z</time>
      </trkpt>
      <trkpt lat="46.0656" lon="4.73266">
        <ele>184</ele>
        <time>2017-12-15T10:44:48Z</time>
      </trkpt>
      <trkpt lat="46.06564" lon="4.73275">
        <ele>184</ele>
        <time>2017-12-15T10:44:49Z</time>
      </trkpt>
      <trkpt lat="46.06567" lon="4.73285">
        <ele>184</ele>
        <time>2017-12-15T10:44:50Z</time>
      </trkpt>
      <trkpt lat="46.0657" lon="4.73294">
        <ele>184</ele>
        <time>2017-12-15T10:44:51Z</time>
      </trkpt>
      <trkpt lat="46.06573" lon="4.73304">
        <ele>183</ele>
        <time>2017-12-15T10:44:52Z</time>
      </trkpt>
      <trkpt lat="46.06576" lon="4.73314">
        <ele>183</ele>
        <time>2017-12-15T10:44:53Z</time>
      </trkpt>
      <trkpt lat="46.06579" lon="4.73326">
        <ele>183</ele>
        <time>2017-12-15T10:44:54Z</time>
      </trkpt>
      <trkpt lat="46.06581" lon="4.73335">
        <ele>182</ele>
        <time>2017-12-15T10:44:55Z</time>
      </trkpt>
      <trkpt lat="46.06586" lon="4.73343">
        <ele>182</ele>
        <time>2017-12-15T10:44:56Z</time>
      </trkpt>
      <trkpt lat="46.06592" lon="4.73349">
        <ele>182</ele>
        <time>2017-12-15T10:44:57Z</time>
      </trkpt>
      <trkpt lat="46.06599" lon="4.73353">
        <ele>182</ele>
        <time>2017-12-15T10:44:58Z</time>
      </trkpt>
      <trkpt lat="46.06607" lon="4.73356">
        <ele>182</ele>
        <time>2017-12-15T10:44:59Z</time>
      </trkpt>
      <trkpt lat="46.06614" lon="4.7336">
        <ele>182</ele>
        <time>2017-12-15T10:45:00Z</time>
      </trkpt>
      <trkpt lat="46.06622" lon="4.73365">
        <ele>182</ele>
        <time>2017-12-15T10:45:01Z</time>
      </trkpt>
      <trkpt lat="46.06629" lon="4.7337">
        <ele>182</ele>
        <time>2017-12-15T10:45:02Z</time>
      </trkpt>
      <trkpt lat="46.06636" lon="4.73375">
        <ele>182</ele>
        <time>2017-12-15T10:45:03Z</time>
      </trkpt>
      <trkpt lat="46.06644" lon="4.73381">
        <ele>182</ele>
        <time>2017-12-15T10:45:04Z</time>
      </trkpt>
      <trkpt lat="46.0665" lon="4.7339">
        <ele>182</ele>
        <time>2017-12-15T10:45:05Z</time>
      </trkpt>
      <trkpt lat="46.06657" lon="4.73398">
        <ele>182</ele>
        <time>2017-12-15T10:45:06Z</time>
      </trkpt>
      <trkpt lat="46.06663" lon="4.73407">
        <ele>182</ele>
        <time>2017-12-15T10:45:07Z</time>
      </trkpt>
      <trkpt lat="46.06669" lon="4.73416">
        <ele>182</ele>
        <time>2017-12-15T10:45:08Z</time>
      </trkpt>
      <trkpt lat="46.06676" lon="4.73425">
        <ele>181</ele>
        <time>2017-12-15T10:45:09Z</time>
      </trkpt>
      <trkpt lat="46.06683" lon="4.73434">
        <ele>181</ele>
        <time>2017-12-15T10:45:10Z</time>
      </trkpt>
      <trkpt lat="46.06689" lon="4.73443">
        <ele>181</ele>
        <time>2017-12-15T10:45:11Z</time>
      </trkpt>
      <trkpt lat="46.06694" lon="4.73451">
        <ele>180</ele>
        <time>2017-12-15T10:45:12Z</time>
      </trkpt>
      <trkpt lat="46.06699" lon="4.73459">
        <ele>180</ele>
        <time>2017-12-15T10:45:13Z</time>
      </trkpt>
      <trkpt lat="46.06705" lon="4.73467">
        <ele>180</ele>
        <time>2017-12-15T10:45:14Z</time>
      </trkpt>
      <trkpt lat="46.06709" lon="4.73475">
        <ele>180</ele>
        <time>2017-12-15T10:45:15Z</time>
      </trkpt>
      <trkpt lat="46.06715" lon="4.73483">
        <ele>180</ele>
        <time>2017-12-15T10:45:16Z</time>
      </trkpt>
      <trkpt lat="46.0672" lon="4.73492">
        <ele>180</ele>
        <time>2017-12-15T10:45:17Z</time>
      </trkpt>
      <trkpt lat="46.06725" lon="4.735">
        <ele>180</ele>
        <time>2017-12-15T10:45:18Z</time>
      </trkpt>
      <trkpt lat="46.06731" lon="4.73507">
        <ele>180</ele>
        <time>2017-12-15T10:45:19Z</time>
      </trkpt>
      <trkpt lat="46.06736" lon="4.73517">
        <ele>180</ele>
        <time>2017-12-15T10:45:20Z</time>
      </trkpt>
      <trkpt lat="46.0674" lon="4.73526">
        <ele>180</ele>
        <time>2017-12-15T10:45:21Z</time>
      </trkpt>
      <trkpt lat="46.06745" lon="4.73534">
        <ele>180</ele>
        <time>2017-12-15T10:45:22Z</time>
      </trkpt>
      <trkpt lat="46.06751" lon="4.73543">
        <ele>179</ele>
        <time>2017-12-15T10:45:23Z</time>
      </trkpt>
      <trkpt lat="46.06757" lon="4.73551">
        <ele>180</ele>
        <time>2017-12-15T10:45:24Z</time>
      </trkpt>
      <trkpt lat="46.06762" lon="4.7356">
        <ele>180</ele>
        <time>2017-12-15T10:45:25Z</time>
      </trkpt>
      <trkpt lat="46.06767" lon="4.73569">
        <ele>180</ele>
        <time>2017-12-15T10:45:26Z</time>
      </trkpt>
      <trkpt lat="46.06772" lon="4.73578">
        <ele>180</ele>
        <time>2017-12-15T10:45:27Z</time>
      </trkpt>
      <trkpt lat="46.06777" lon="4.73587">
        <ele>179</ele>
        <time>2017-12-15T10:45:28Z</time>
      </trkpt>
      <trkpt lat="46.06783" lon="4.73596">
        <ele>179</ele>
        <time>2017-12-15T10:45:29Z</time>
      </trkpt>
      <trkpt lat="46.06789" lon="4.73603">
        <ele>179</ele>
        <time>2017-12-15T10:45:30Z</time>
      </trkpt>
      <trkpt lat="46.06795" lon="4.73611">
        <ele>178</ele>
        <time>2017-12-15T10:45:31Z</time>
      </trkpt>
      <trkpt lat="46.06801" lon="4.73619">
        <ele>178</ele>
        <time>2017-12-15T10:45:32Z</time>
      </trkpt>
      <trkpt lat="46.06806" lon="4.73628">
        <ele>178</ele>
        <time>2017-12-15T10:45:33Z</time>
      </trkpt>
      <trkpt lat="46.06813" lon="4.73635">
        <ele>178</ele>
        <time>2017-12-15T10:45:34Z</time>
      </trkpt>
      <trkpt lat="46.06819" lon="4.73642">
        <ele>178</ele>
        <time>2017-12-15T10:45:35Z</time>
      </trkpt>
      <trkpt lat="46.06825" lon="4.73648">
        <ele>177</ele>
        <time>2017-12-15T10:45:36Z</time>
      </trkpt>
      <trkpt lat="46.06831" lon="4.73654">
        <ele>177</ele>
        <time>2017-12-15T10:45:37Z</time>
      </trkpt>
      <trkpt lat="46.06837" lon="4.73661">
        <ele>176</ele>
        <time>2017-12-15T10:45:38Z</time>
      </trkpt>
      <trkpt lat="46.06843" lon="4.73668">
        <ele>176</ele>
        <time>2017-12-15T10:45:39Z</time>
      </trkpt>
      <trkpt lat="46.06849" lon="4.73673">
        <ele>176</ele>
        <time>2017-12-15T10:45:40Z</time>
      </trkpt>
      <trkpt lat="46.06855" lon="4.73679">
        <ele>176</ele>
        <time>2017-12-15T10:45:41Z</time>
      </trkpt>
      <trkpt lat="46.06861" lon="4.73685">
        <ele>176</ele>
        <time>2017-12-15T10:45:42Z</time>
      </trkpt>
      <trkpt lat="46.06866" lon="4.73692">
        <ele>176</ele>
        <time>2017-12-15T10:45:43Z</time>
      </trkpt>
      <trkpt lat="46.06872" lon="4.73697">
        <ele>176</ele>
        <time>2017-12-15T10:45:44Z</time>
      </trkpt>
      <trkpt lat="46.06877" lon="4.73704">
        <ele>176</ele>
        <time>2017-12-15T10:45:45Z</time>
      </trkpt>
      <trkpt lat="46.06881" lon="4.7371">
        <ele>176</ele>
        <time>2017-12-15T10:45:46Z</time>
      </trkpt>
      <trkpt lat="46.06886" lon="4.73715">
        <ele>176</ele>
        <time>2017-12-15T10:45:47Z</time>
      </trkpt>
      <trkpt lat="46.06891" lon="4.73722">
        <ele>176</ele>
        <time>2017-12-15T10:45:48Z</time>
      </trkpt>
      <trkpt lat="46.06897" lon="4.73728">
        <ele>176</ele>
        <time>2017-12-15T10:45:49Z</time>
      </trkpt>
      <trkpt lat="46.06901" lon="4.73734">
        <ele>177</ele>
        <time>2017-12-15T10:45:50Z</time>
      </trkpt>
      <trkpt lat="46.06906" lon="4.73741">
        <ele>177</ele>
        <time>2017-12-15T10:45:51Z</time>
      </trkpt>
      <trkpt lat="46.06911" lon="4.73748">
        <ele>177</ele>
        <time>2017-12-15T10:45:52Z</time>
      </trkpt>
      <trkpt lat="46.06916" lon="4.73757">
        <ele>177</ele>
        <time>2017-12-15T10:45:53Z</time>
      </trkpt>
      <trkpt lat="46.06921" lon="4.73763">
        <ele>177</ele>
        <time>2017-12-15T10:45:54Z</time>
      </trkpt>
      <trkpt lat="46.06926" lon="4.73769">
        <ele>176</ele>
        <time>2017-12-15T10:45:55Z</time>
      </trkpt>
      <trkpt lat="46.06932" lon="4.73774">
        <ele>176</ele>
        <time>2017-12-15T10:45:56Z</time>
      </trkpt>
      <trkpt lat="46.06939" lon="4.73779">
        <ele>176</ele>
        <time>2017-12-15T10:45:57Z</time>
      </trkpt>
      <trkpt lat="46.06945" lon="4.73782">
        <ele>176</ele>
        <time>2017-12-15T10:45:58Z</time>
      </trkpt>
      <trkpt lat="46.06952" lon="4.73785">
        <ele>176</ele>
        <time>2017-12-15T10:45:59Z</time>
      </trkpt>
      <trkpt lat="46.06959" lon="4.73785">
        <ele>176</ele>
        <time>2017-12-15T10:46:00Z</time>
      </trkpt>
      <trkpt lat="46.06966" lon="4.73787">
        <ele>176</ele>
        <time>2017-12-15T10:46:01Z</time>
      </trkpt>
      <trkpt lat="46.06971" lon="4.73788">
        <ele>176</ele>
        <time>2017-12-15T10:46:02Z</time>
      </trkpt>
      <trkpt lat="46.06977" lon="4.73788">
        <ele>176</ele>
        <time>2017-12-15T10:46:03Z</time>
      </trkpt>
      <trkpt lat="46.06983" lon="4.7379">
        <ele>176</ele>
        <time>2017-12-15T10:46:04Z</time>
      </trkpt>
      <trkpt lat="46.06989" lon="4.73792">
        <ele>176</ele>
        <time>2017-12-15T10:46:05Z</time>
      </trkpt>
      <trkpt lat="46.06995" lon="4.73794">
        <ele>176</ele>
        <time>2017-12-15T10:46:06Z</time>
      </trkpt>
      <trkpt lat="46.07001" lon="4.73795">
        <ele>176</ele>
        <time>2017-12-15T10:46:07Z</time>
      </trkpt>
      <trkpt lat="46.07007" lon="4.73796">
        <ele>177</ele>
        <time>2017-12-15T10:46:08Z</time>
      </trkpt>
      <trkpt lat="46.07013" lon="4.73796">
        <ele>177</ele>
        <time>2017-12-15T10:46:09Z</time>
      </trkpt>
      <trkpt lat="46.07019" lon="4.73795">
        <ele>177</ele>
        <time>2017-12-15T10:46:10Z</time>
      </trkpt>
      <trkpt lat="46.07026" lon="4.73795">
        <ele>177</ele>
        <time>2017-12-15T10:46:11Z</time>
      </trkpt>
      <trkpt lat="46.07032" lon="4.73796">
        <ele>177</ele>
        <time>2017-12-15T10:46:12Z</time>
      </trkpt>
      <trkpt lat="46.07039" lon="4.73797">
        <ele>177</ele>
        <time>2017-12-15T10:46:13Z</time>
      </trkpt>
      <trkpt lat="46.07045" lon="4.73799">
        <ele>177</ele>
        <time>2017-12-15T10:46:14Z</time>
      </trkpt>
      <trkpt lat="46.07052" lon="4.73801">
        <ele>177</ele>
        <time>2017-12-15T10:46:15Z</time>
      </trkpt>
      <trkpt lat="46.07059" lon="4.73804">
        <ele>177</ele>
        <time>2017-12-15T10:46:16Z</time>
      </trkpt>
      <trkpt lat="46.07065" lon="4.73806">
        <ele>178</ele>
        <time>2017-12-15T10:46:17Z</time>
      </trkpt>
      <trkpt lat="46.07071" lon="4.73809">
        <ele>178</ele>
        <time>2017-12-15T10:46:18Z</time>
      </trkpt>
      <trkpt lat="46.07078" lon="4.73811">
        <ele>178</ele>
        <time>2017-12-15T10:46:19Z</time>
      </trkpt>
      <trkpt lat="46.07083" lon="4.73814">
        <ele>178</ele>
        <time>2017-12-15T10:46:20Z</time>
      </trkpt>
      <trkpt lat="46.07089" lon="4.73818">
        <ele>178</ele>
        <time>2017-12-15T10:46:21Z</time>
      </trkpt>
      <trkpt lat="46.07094" lon="4.73821">
        <ele>178</ele>
        <time>2017-12-15T10:46:22Z</time>
      </trkpt>
      <trkpt lat="46.07099" lon="4.73825">
        <ele>178</ele>
        <time>2017-12-15T10:46:23Z</time>
      </trkpt>
      <trkpt lat="46.07105" lon="4.73829">
        <ele>178</ele>
        <time>2017-12-15T10:46:24Z</time>
      </trkpt>
      <trkpt lat="46.0711" lon="4.73834">
        <ele>177</ele>
        <time>2017-12-15T10:46:25Z</time>
      </trkpt>
      <trkpt lat="46.07117" lon="4.73838">
        <ele>177</ele>
        <time>2017-12-15T10:46:26Z</time>
      </trkpt>
      <trkpt lat="46.07123" lon="4.73844">
        <ele>177</ele>
        <time>2017-12-15T10:46:27Z</time>
      </trkpt>
      <trkpt lat="46.07128" lon="4.73849">
        <ele>176</ele>
        <time>2017-12-15T10:46:28Z</time>
      </trkpt>
      <trkpt lat="46.07132" lon="4.73856">
        <ele>176</ele>
        <time>2017-12-15T10:46:29Z</time>
      </trkpt>
      <trkpt lat="46.07136" lon="4.73862">
        <ele>176</ele>
        <time>2017-12-15T10:46:30Z</time>
      </trkpt>
      <trkpt lat="46.0714" lon="4.73869">
        <ele>176</ele>
        <time>2017-12-15T10:46:31Z</time>
      </trkpt>
      <trkpt lat="46.07143" lon="4.73877">
        <ele>176</ele>
        <time>2017-12-15T10:46:32Z</time>
      </trkpt>
      <trkpt lat="46.07147" lon="4.73884">
        <ele>176</ele>
        <time>2017-12-15T10:46:33Z</time>
      </trkpt>
      <trkpt lat="46.0715" lon="4.73891">
        <ele>177</ele>
        <time>2017-12-15T10:46:34Z</time>
      </trkpt>
      <trkpt lat="46.07153" lon="4.73898">
        <ele>177</ele>
        <time>2017-12-15T10:46:35Z</time>
      </trkpt>
      <trkpt lat="46.07155" lon="4.73906">
        <ele>177</ele>
        <time>2017-12-15T10:46:36Z</time>
      </trkpt>
      <trkpt lat="46.07158" lon="4.73913">
        <ele>177</ele>
        <time>2017-12-15T10:46:37Z</time>
      </trkpt>
      <trkpt lat="46.0716" lon="4.73919">
        <ele>177</ele>
        <time>2017-12-15T10:46:38Z</time>
      </trkpt>
      <trkpt lat="46.07162" lon="4.73926">
        <ele>177</ele>
        <time>2017-12-15T10:46:39Z</time>
      </trkpt>
      <trkpt lat="46.07165" lon="4.73933">
        <ele>177</ele>
        <time>2017-12-15T10:46:40Z</time>
      </trkpt>
      <trkpt lat="46.07168" lon="4.73941">
        <ele>177</ele>
        <time>2017-12-15T10:46:41Z</time>
      </trkpt>
      <trkpt lat="46.0717" lon="4.73949">
        <ele>177</ele>
        <time>2017-12-15T10:46:42Z</time>
      </trkpt>
      <trkpt lat="46.07172" lon="4.73956">
        <ele>177</ele>
        <time>2017-12-15T10:46:43Z</time>
      </trkpt>
      <trkpt lat="46.07174" lon="4.73964">
        <ele>178</ele>
        <time>2017-12-15T10:46:44Z</time>
      </trkpt>
      <trkpt lat="46.07177" lon="4.73973">
        <ele>178</ele>
        <time>2017-12-15T10:46:45Z</time>
      </trkpt>
      <trkpt lat="46.07179" lon="4.73981">
        <ele>178</ele>
        <time>2017-12-15T10:46:46Z</time>
      </trkpt>
      <trkpt lat="46.07182" lon="4.7399">
        <ele>178</ele>
        <time>2017-12-15T10:46:47Z</time>
      </trkpt>
      <trkpt lat="46.07184" lon="4.73996">
        <ele>178</ele>
        <time>2017-12-15T10:46:48Z</time>
      </trkpt>
      <trkpt lat="46.07187" lon="4.74004">
        <ele>178</ele>
        <time>2017-12-15T10:46:49Z</time>
      </trkpt>
      <trkpt lat="46.07189" lon="4.74011">
        <ele>178</ele>
        <time>2017-12-15T10:46:50Z</time>
      </trkpt>
      <trkpt lat="46.07191" lon="4.74018">
        <ele>178</ele>
        <time>2017-12-15T10:46:51Z</time>
      </trkpt>
      <trkpt lat="46.07193" lon="4.74024">
        <ele>178</ele>
        <time>2017-12-15T10:46:52Z</time>
      </trkpt>
      <trkpt lat="46.07195" lon="4.74031">
        <ele>178</ele>
        <time>2017-12-15T10:46:53Z</time>
      </trkpt>
      <trkpt lat="46.07197" lon="4.74039">
        <ele>178</ele>
        <time>2017-12-15T10:46:54Z</time>
      </trkpt>
      <trkpt lat="46.072" lon="4.74046">
        <ele>178</ele>
        <time>2017-12-15T10:46:55Z</time>
      </trkpt>
      <trkpt lat="46.07202" lon="4.74053">
        <ele>178</ele>
        <time>2017-12-15T10:46:56Z</time>
      </trkpt>
      <trkpt lat="46.07203" lon="4.74061">
        <ele>178</ele>
        <time>2017-12-15T10:46:57Z</time>
      </trkpt>
      <trkpt lat="46.07206" lon="4.74067">
        <ele>178</ele>
        <time>2017-12-15T10:46:58Z</time>
      </trkpt>
      <trkpt lat="46.07208" lon="4.74074">
        <ele>177</ele>
        <time>2017-12-15T10:46:59Z</time>
      </trkpt>
      <trkpt lat="46.07211" lon="4.7408">
        <ele>177</ele>
        <time>2017-12-15T10:47:00Z</time>
      </trkpt>
      <trkpt lat="46.07213" lon="4.74087">
        <ele>177</ele>
        <time>2017-12-15T10:47:01Z</time>
      </trkpt>
      <trkpt lat="46.07216" lon="4.74093">
        <ele>177</ele>
        <time>2017-12-15T10:47:02Z</time>
      </trkpt>
      <trkpt lat="46.0722" lon="4.74104">
        <ele>177</ele>
        <time>2017-12-15T10:47:04Z</time>
      </trkpt>
      <trkpt lat="46.07222" lon="4.74111">
        <ele>177</ele>
        <time>2017-12-15T10:47:05Z</time>
      </trkpt>
      <trkpt lat="46.07224" lon="4.74118">
        <ele>177</ele>
        <time>2017-12-15T10:47:06Z</time>
      </trkpt>
      <trkpt lat="46.07227" lon="4.74125">
        <ele>177</ele>
        <time>2017-12-15T10:47:07Z</time>
      </trkpt>
      <trkpt lat="46.0723" lon="4.74134">
        <ele>177</ele>
        <time>2017-12-15T10:47:08Z</time>
      </trkpt>
      <trkpt lat="46.07232" lon="4.74141">
        <ele>177</ele>
        <time>2017-12-15T10:47:09Z</time>
      </trkpt>
      <trkpt lat="46.07235" lon="4.74149">
        <ele>177</ele>
        <time>2017-12-15T10:47:10Z</time>
      </trkpt>
      <trkpt lat="46.07238" lon="4.74156">
        <ele>177</ele>
        <time>2017-12-15T10:47:11Z</time>
      </trkpt>
      <trkpt lat="46.0724" lon="4.74165">
        <ele>177</ele>
        <time>2017-12-15T10:47:12Z</time>
      </trkpt>
      <trkpt lat="46.07243" lon="4.74173">
        <ele>177</ele>
        <time>2017-12-15T10:47:13Z</time>
      </trkpt>
      <trkpt lat="46.07246" lon="4.74181">
        <ele>176</ele>
        <time>2017-12-15T10:47:14Z</time>
      </trkpt>
      <trkpt lat="46.07248" lon="4.7419">
        <ele>176</ele>
        <time>2017-12-15T10:47:15Z</time>
      </trkpt>
      <trkpt lat="46.07251" lon="4.74198">
        <ele>176</ele>
        <time>2017-12-15T10:47:16Z</time>
      </trkpt>
      <trkpt lat="46.07254" lon="4.74208">
        <ele>176</ele>
        <time>2017-12-15T10:47:17Z</time>
      </trkpt>
      <trkpt lat="46.07258" lon="4.74218">
        <ele>176</ele>
        <time>2017-12-15T10:47:18Z</time>
      </trkpt>
      <trkpt lat="46.07261" lon="4.74228">
        <ele>176</ele>
        <time>2017-12-15T10:47:19Z</time>
      </trkpt>
      <trkpt lat="46.07264" lon="4.74238">
        <ele>175</ele>
        <time>2017-12-15T10:47:20Z</time>
      </trkpt>
      <trkpt lat="46.07268" lon="4.74247">
        <ele>175</ele>
        <time>2017-12-15T10:47:21Z</time>
      </trkpt>
      <trkpt lat="46.07271" lon="4.74258">
        <ele>175</ele>
        <time>2017-12-15T10:47:22Z</time>
      </trkpt>
      <trkpt lat="46.07275" lon="4.74269">
        <ele>175</ele>
        <time>2017-12-15T10:47:23Z</time>
      </trkpt>
      <trkpt lat="46.07278" lon="4.7428">
        <ele>175</ele>
        <time>2017-12-15T10:47:24Z</time>
      </trkpt>
      <trkpt lat="46.07282" lon="4.74291">
        <ele>174</ele>
        <time>2017-12-15T10:47:25Z</time>
      </trkpt>
      <trkpt lat="46.07286" lon="4.74303">
        <ele>174</ele>
        <time>2017-12-15T10:47:26Z</time>
      </trkpt>
      <trkpt lat="46.07287" lon="4.74315">
        <ele>174</ele>
        <time>2017-12-15T10:47:27Z</time>
      </trkpt>
      <trkpt lat="46.07288" lon="4.74327">
        <ele>174</ele>
        <time>2017-12-15T10:47:28Z</time>
      </trkpt>
      <trkpt lat="46.0729" lon="4.74338">
        <ele>174</ele>
        <time>2017-12-15T10:47:29Z</time>
      </trkpt>
      <trkpt lat="46.07291" lon="4.7435">
        <ele>174</ele>
        <time>2017-12-15T10:47:30Z</time>
      </trkpt>
      <trkpt lat="46.07292" lon="4.7436">
        <ele>174</ele>
        <time>2017-12-15T10:47:31Z</time>
      </trkpt>
      <trkpt lat="46.07293" lon="4.74371">
        <ele>174</ele>
        <time>2017-12-15T10:47:32Z</time>
      </trkpt>
      <trkpt lat="46.07294" lon="4.74382">
        <ele>174</ele>
        <time>2017-12-15T10:47:33Z</time>
      </trkpt>
      <trkpt lat="46.07295" lon="4.74392">
        <ele>174</ele>
        <time>2017-12-15T10:47:34Z</time>
      </trkpt>
      <trkpt lat="46.07296" lon="4.74402">
        <ele>174</ele>
        <time>2017-12-15T10:47:35Z</time>
      </trkpt>
      <trkpt lat="46.07297" lon="4.74412">
        <ele>174</ele>
        <time>2017-12-15T10:47:36Z</time>
      </trkpt>
      <trkpt lat="46.07299" lon="4.74421">
        <ele>175</ele>
        <time>2017-12-15T10:47:37Z</time>
      </trkpt>
      <trkpt lat="46.073" lon="4.7443">
        <ele>175</ele>
        <time>2017-12-15T10:47:38Z</time>
      </trkpt>
      <trkpt lat="46.07302" lon="4.74439">
        <ele>175</ele>
        <time>2017-12-15T10:47:39Z</time>
      </trkpt>
      <trkpt lat="46.07304" lon="4.7445">
        <ele>175</ele>
        <time>2017-12-15T10:47:40Z</time>
      </trkpt>
      <trkpt lat="46.07306" lon="4.74459">
        <ele>175</ele>
        <time>2017-12-15T10:47:41Z</time>
      </trkpt>
      <trkpt lat="46.07309" lon="4.74467">
        <ele>175</ele>
        <time>2017-12-15T10:47:42Z</time>
      </trkpt>
      <trkpt lat="46.07312" lon="4.74475">
        <ele>175</ele>
        <time>2017-12-15T10:47:43Z</time>
      </trkpt>
      <trkpt lat="46.07315" lon="4.74483">
        <ele>175</ele>
        <time>2017-12-15T10:47:44Z</time>
      </trkpt>
      <trkpt lat="46.07319" lon="4.74492">
        <ele>175</ele>
        <time>2017-12-15T10:47:45Z</time>
      </trkpt>
      <trkpt lat="46.07323" lon="4.74499">
        <ele>176</ele>
        <time>2017-12-15T10:47:46Z</time>
      </trkpt>
      <trkpt lat="46.07327" lon="4.74507">
        <ele>176</ele>
        <time>2017-12-15T10:47:47Z</time>
      </trkpt>
      <trkpt lat="46.07332" lon="4.74515">
        <ele>176</ele>
        <time>2017-12-15T10:47:48Z</time>
      </trkpt>
      <trkpt lat="46.07336" lon="4.74523">
        <ele>175</ele>
        <time>2017-12-15T10:47:49Z</time>
      </trkpt>
      <trkpt lat="46.07341" lon="4.74531">
        <ele>175</ele>
        <time>2017-12-15T10:47:50Z</time>
      </trkpt>
      <trkpt lat="46.07346" lon="4.7454">
        <ele>175</ele>
        <time>2017-12-15T10:47:51Z</time>
      </trkpt>
      <trkpt lat="46.07351" lon="4.74549">
        <ele>175</ele>
        <time>2017-12-15T10:47:52Z</time>
      </trkpt>
      <trkpt lat="46.07357" lon="4.74557">
        <ele>175</ele>
        <time>2017-12-15T10:47:53Z</time>
      </trkpt>
      <trkpt lat="46.07361" lon="4.74565">
        <ele>175</ele>
        <time>2017-12-15T10:47:54Z</time>
      </trkpt>
      <trkpt lat="46.07365" lon="4.74574">
        <ele>175</ele>
        <time>2017-12-15T10:47:55Z</time>
      </trkpt>
      <trkpt lat="46.0737" lon="4.74582">
        <ele>175</ele>
        <time>2017-12-15T10:47:56Z</time>
      </trkpt>
      <trkpt lat="46.07373" lon="4.7459">
        <ele>175</ele>
        <time>2017-12-15T10:47:57Z</time>
      </trkpt>
      <trkpt lat="46.07376" lon="4.746">
        <ele>174</ele>
        <time>2017-12-15T10:47:58Z</time>
      </trkpt>
      <trkpt lat="46.07379" lon="4.74606">
        <ele>174</ele>
        <time>2017-12-15T10:47:59Z</time>
      </trkpt>
      <trkpt lat="46.07383" lon="4.74614">
        <ele>174</ele>
        <time>2017-12-15T10:48:00Z</time>
      </trkpt>
      <trkpt lat="46.07385" lon="4.74621">
        <ele>174</ele>
        <time>2017-12-15T10:48:01Z</time>
      </trkpt>
      <trkpt lat="46.07389" lon="4.74628">
        <ele>174</ele>
        <time>2017-12-15T10:48:02Z</time>
      </trkpt>
      <trkpt lat="46.07393" lon="4.74636">
        <ele>174</ele>
        <time>2017-12-15T10:48:03Z</time>
      </trkpt>
      <trkpt lat="46.07397" lon="4.74642">
        <ele>174</ele>
        <time>2017-12-15T10:48:04Z</time>
      </trkpt>
      <trkpt lat="46.074" lon="4.74649">
        <ele>173</ele>
        <time>2017-12-15T10:48:05Z</time>
      </trkpt>
      <trkpt lat="46.07404" lon="4.74657">
        <ele>173</ele>
        <time>2017-12-15T10:48:06Z</time>
      </trkpt>
      <trkpt lat="46.07408" lon="4.74665">
        <ele>173</ele>
        <time>2017-12-15T10:48:07Z</time>
      </trkpt>
      <trkpt lat="46.07412" lon="4.74673">
        <ele>172</ele>
        <time>2017-12-15T10:48:08Z</time>
      </trkpt>
      <trkpt lat="46.07416" lon="4.74681">
        <ele>173</ele>
        <time>2017-12-15T10:48:09Z</time>
      </trkpt>
      <trkpt lat="46.0742" lon="4.74689">
        <ele>173</ele>
        <time>2017-12-15T10:48:10Z</time>
      </trkpt>
      <trkpt lat="46.07425" lon="4.74697">
        <ele>173</ele>
        <time>2017-12-15T10:48:11Z</time>
      </trkpt>
      <trkpt lat="46.07428" lon="4.74704">
        <ele>173</ele>
        <time>2017-12-15T10:48:12Z</time>
      </trkpt>
      <trkpt lat="46.07432" lon="4.74711">
        <ele>173</ele>
        <time>2017-12-15T10:48:13Z</time>
      </trkpt>
      <trkpt lat="46.07435" lon="4.74719">
        <ele>173</ele>
        <time>2017-12-15T10:48:14Z</time>
      </trkpt>
      <trkpt lat="46.07439" lon="4.74725">
        <ele>173</ele>
        <time>2017-12-15T10:48:15Z</time>
      </trkpt>
      <trkpt lat="46.07442" lon="4.74734">
        <ele>173</ele>
        <time>2017-12-15T10:48:16Z</time>
      </trkpt>
      <trkpt lat="46.07446" lon="4.74741">
        <ele>173</ele>
        <time>2017-12-15T10:48:17Z</time>
      </trkpt>
      <trkpt lat="46.07449" lon="4.74748">
        <ele>173</ele>
        <time>2017-12-15T10:48:18Z</time>
      </trkpt>
      <trkpt lat="46.07454" lon="4.74753">
        <ele>174</ele>
        <time>2017-12-15T10:48:19Z</time>
      </trkpt>
      <trkpt lat="46.07459" lon="4.7476">
        <ele>173</ele>
        <time>2017-12-15T10:48:20Z</time>
      </trkpt>
      <trkpt lat="46.07463" lon="4.74766">
        <ele>173</ele>
        <time>2017-12-15T10:48:21Z</time>
      </trkpt>
      <trkpt lat="46.07468" lon="4.7477">
        <ele>173</ele>
        <time>2017-12-15T10:48:22Z</time>
      </trkpt>
      <trkpt lat="46.07473" lon="4.74775">
        <ele>173</ele>
        <time>2017-12-15T10:48:23Z</time>
      </trkpt>
      <trkpt lat="46.07478" lon="4.74779">
        <ele>173</ele>
        <time>2017-12-15T10:48:24Z</time>
      </trkpt>
      <trkpt lat="46.07483" lon="4.74785">
        <ele>173</ele>
        <time>2017-12-15T10:48:25Z</time>
      </trkpt>
      <trkpt lat="46.07488" lon="4.7479">
        <ele>173</ele>
        <time>2017-12-15T10:48:26Z</time>
      </trkpt>
      <trkpt lat="46.07493" lon="4.74794">
        <ele>173</ele>
        <time>2017-12-15T10:48:27Z</time>
      </trkpt>
      <trkpt lat="46.07498" lon="4.74798">
        <ele>173</ele>
        <time>2017-12-15T10:48:28Z</time>
      </trkpt>
      <trkpt lat="46.07503" lon="4.74803">
        <ele>172</ele>
        <time>2017-12-15T10:48:29Z</time>
      </trkpt>
      <trkpt lat="46.07509" lon="4.74806">
        <ele>172</ele>
        <time>2017-12-15T10:48:30Z</time>
      </trkpt>
      <trkpt lat="46.07514" lon="4.74809">
        <ele>172</ele>
        <time>2017-12-15T10:48:31Z</time>
      </trkpt>
      <trkpt lat="46.0752" lon="4.74813">
        <ele>172</ele>
        <time>2017-12-15T10:48:32Z</time>
      </trkpt>
      <trkpt lat="46.07525" lon="4.74819">
        <ele>172</ele>
        <time>2017-12-15T10:48:33Z</time>
      </trkpt>
      <trkpt lat="46.07531" lon="4.74823">
        <ele>172</ele>
        <time>2017-12-15T10:48:34Z</time>
      </trkpt>
      <trkpt lat="46.07536" lon="4.74827">
        <ele>172</ele>
        <time>2017-12-15T10:48:35Z</time>
      </trkpt>
      <trkpt lat="46.07541" lon="4.74831">
        <ele>172</ele>
        <time>2017-12-15T10:48:36Z</time>
      </trkpt>
      <trkpt lat="46.07546" lon="4.74836">
        <ele>171</ele>
        <time>2017-12-15T10:48:37Z</time>
      </trkpt>
      <trkpt lat="46.07552" lon="4.74842">
        <ele>171</ele>
        <time>2017-12-15T10:48:38Z</time>
      </trkpt>
      <trkpt lat="46.07558" lon="4.74846">
        <ele>171</ele>
        <time>2017-12-15T10:48:39Z</time>
      </trkpt>
      <trkpt lat="46.07564" lon="4.7485">
        <ele>171</ele>
        <time>2017-12-15T10:48:40Z</time>
      </trkpt>
      <trkpt lat="46.07571" lon="4.74857">
        <ele>171</ele>
        <time>2017-12-15T10:48:41Z</time>
      </trkpt>
      <trkpt lat="46.07578" lon="4.74861">
        <ele>171</ele>
        <time>2017-12-15T10:48:42Z</time>
      </trkpt>
      <trkpt lat="46.07585" lon="4.74865">
        <ele>171</ele>
        <time>2017-12-15T10:48:43Z</time>
      </trkpt>
      <trkpt lat="46.0759" lon="4.7487">
        <ele>171</ele>
        <time>2017-12-15T10:48:44Z</time>
      </trkpt>
      <trkpt lat="46.07596" lon="4.74875">
        <ele>171</ele>
        <time>2017-12-15T10:48:45Z</time>
      </trkpt>
      <trkpt lat="46.07602" lon="4.74879">
        <ele>171</ele>
        <time>2017-12-15T10:48:46Z</time>
      </trkpt>
      <trkpt lat="46.07609" lon="4.74884">
        <ele>171</ele>
        <time>2017-12-15T10:48:47Z</time>
      </trkpt>
      <trkpt lat="46.07615" lon="4.74888">
        <ele>171</ele>
        <time>2017-12-15T10:48:48Z</time>
      </trkpt>
      <trkpt lat="46.07621" lon="4.74892">
        <ele>171</ele>
        <time>2017-12-15T10:48:49Z</time>
      </trkpt>
      <trkpt lat="46.07627" lon="4.74896">
        <ele>171</ele>
        <time>2017-12-15T10:48:50Z</time>
      </trkpt>
      <trkpt lat="46.07631" lon="4.74902">
        <ele>171</ele>
        <time>2017-12-15T10:48:51Z</time>
      </trkpt>
      <trkpt lat="46.07636" lon="4.74906">
        <ele>171</ele>
        <time>2017-12-15T10:48:52Z</time>
      </trkpt>
      <trkpt lat="46.07641" lon="4.7491">
        <ele>171</ele>
        <time>2017-12-15T10:48:53Z</time>
      </trkpt>
      <trkpt lat="46.07646" lon="4.74915">
        <ele>171</ele>
        <time>2017-12-15T10:48:54Z</time>
      </trkpt>
      <trkpt lat="46.07651" lon="4.74919">
        <ele>172</ele>
        <time>2017-12-15T10:48:55Z</time>
      </trkpt>
      <trkpt lat="46.07656" lon="4.74922">
        <ele>172</ele>
        <time>2017-12-15T10:48:56Z</time>
      </trkpt>
      <trkpt lat="46.07662" lon="4.74926">
        <ele>172</ele>
        <time>2017-12-15T10:48:57Z</time>
      </trkpt>
      <trkpt lat="46.07667" lon="4.74929">
        <ele>172</ele>
        <time>2017-12-15T10:48:58Z</time>
      </trkpt>
      <trkpt lat="46.07672" lon="4.74933">
        <ele>172</ele>
        <time>2017-12-15T10:48:59Z</time>
      </trkpt>
      <trkpt lat="46.07677" lon="4.74937">
        <ele>172</ele>
        <time>2017-12-15T10:49:00Z</time>
      </trkpt>
      <trkpt lat="46.07682" lon="4.74943">
        <ele>172</ele>
        <time>2017-12-15T10:49:01Z</time>
      </trkpt>
      <trkpt lat="46.07688" lon="4.74947">
        <ele>172</ele>
        <time>2017-12-15T10:49:02Z</time>
      </trkpt>
      <trkpt lat="46.07693" lon="4.74952">
        <ele>172</ele>
        <time>2017-12-15T10:49:03Z</time>
      </trkpt>
      <trkpt lat="46.07698" lon="4.74957">
        <ele>172</ele>
        <time>2017-12-15T10:49:04Z</time>
      </trkpt>
      <trkpt lat="46.07704" lon="4.74961">
        <ele>172</ele>
        <time>2017-12-15T10:49:05Z</time>
      </trkpt>
      <trkpt lat="46.07709" lon="4.74965">
        <ele>172</ele>
        <time>2017-12-15T10:49:06Z</time>
      </trkpt>
      <trkpt lat="46.07713" lon="4.7497">
        <ele>172</ele>
        <time>2017-12-15T10:49:07Z</time>
      </trkpt>
      <trkpt lat="46.07719" lon="4.74976">
        <ele>172</ele>
        <time>2017-12-15T10:49:08Z</time>
      </trkpt>
      <trkpt lat="46.07724" lon="4.7498">
        <ele>172</ele>
        <time>2017-12-15T10:49:09Z</time>
      </trkpt>
      <trkpt lat="46.07728" lon="4.74984">
        <ele>173</ele>
        <time>2017-12-15T10:49:10Z</time>
      </trkpt>
      <trkpt lat="46.07732" lon="4.74987">
        <ele>173</ele>
        <time>2017-12-15T10:49:11Z</time>
      </trkpt>
      <trkpt lat="46.07737" lon="4.74989">
        <ele>173</ele>
        <time>2017-12-15T10:49:12Z</time>
      </trkpt>
      <trkpt lat="46.07741" lon="4.74992">
        <ele>173</ele>
        <time>2017-12-15T10:49:13Z</time>
      </trkpt>
      <trkpt lat="46.07746" lon="4.74996">
        <ele>173</ele>
        <time>2017-12-15T10:49:14Z</time>
      </trkpt>
      <trkpt lat="46.07752" lon="4.75">
        <ele>173</ele>
        <time>2017-12-15T10:49:15Z</time>
      </trkpt>
      <trkpt lat="46.07756" lon="4.75004">
        <ele>173</ele>
        <time>2017-12-15T10:49:16Z</time>
      </trkpt>
      <trkpt lat="46.07762" lon="4.75007">
        <ele>172</ele>
        <time>2017-12-15T10:49:17Z</time>
      </trkpt>
      <trkpt lat="46.07767" lon="4.75011">
        <ele>172</ele>
        <time>2017-12-15T10:49:18Z</time>
      </trkpt>
      <trkpt lat="46.07772" lon="4.75014">
        <ele>172</ele>
        <time>2017-12-15T10:49:19Z</time>
      </trkpt>
      <trkpt lat="46.07778" lon="4.75018">
        <ele>172</ele>
        <time>2017-12-15T10:49:20Z</time>
      </trkpt>
      <trkpt lat="46.07783" lon="4.75022">
        <ele>172</ele>
        <time>2017-12-15T10:49:21Z</time>
      </trkpt>
      <trkpt lat="46.07789" lon="4.75026">
        <ele>172</ele>
        <time>2017-12-15T10:49:22Z</time>
      </trkpt>
      <trkpt lat="46.07793" lon="4.7503">
        <ele>171</ele>
        <time>2017-12-15T10:49:23Z</time>
      </trkpt>
      <trkpt lat="46.07798" lon="4.75035">
        <ele>171</ele>
        <time>2017-12-15T10:49:24Z</time>
      </trkpt>
      <trkpt lat="46.07803" lon="4.75039">
        <ele>171</ele>
        <time>2017-12-15T10:49:25Z</time>
      </trkpt>
      <trkpt lat="46.07805" lon="4.75044">
        <ele>171</ele>
        <time>2017-12-15T10:49:26Z</time>
      </trkpt>
      <trkpt lat="46.0781" lon="4.75048">
        <ele>171</ele>
        <time>2017-12-15T10:49:27Z</time>
      </trkpt>
      <trkpt lat="46.07816" lon="4.75053">
        <ele>171</ele>
        <time>2017-12-15T10:49:28Z</time>
      </trkpt>
      <trkpt lat="46.07819" lon="4.75059">
        <ele>171</ele>
        <time>2017-12-15T10:49:29Z</time>
      </trkpt>
      <trkpt lat="46.07824" lon="4.75064">
        <ele>171</ele>
        <time>2017-12-15T10:49:30Z</time>
      </trkpt>
      <trkpt lat="46.07829" lon="4.75069">
        <ele>171</ele>
        <time>2017-12-15T10:49:31Z</time>
      </trkpt>
      <trkpt lat="46.07834" lon="4.75075">
        <ele>171</ele>
        <time>2017-12-15T10:49:32Z</time>
      </trkpt>
      <trkpt lat="46.07839" lon="4.75081">
        <ele>171</ele>
        <time>2017-12-15T10:49:33Z</time>
      </trkpt>
      <trkpt lat="46.07843" lon="4.75087">
        <ele>171</ele>
        <time>2017-12-15T10:49:34Z</time>
      </trkpt>
      <trkpt lat="46.07848" lon="4.75093">
        <ele>171</ele>
        <time>2017-12-15T10:49:35Z</time>
      </trkpt>
      <trkpt lat="46.07852" lon="4.75099">
        <ele>171</ele>
        <time>2017-12-15T10:49:36Z</time>
      </trkpt>
      <trkpt lat="46.07855" lon="4.75105">
        <ele>171</ele>
        <time>2017-12-15T10:49:37Z</time>
      </trkpt>
      <trkpt lat="46.07858" lon="4.75112">
        <ele>171</ele>
        <time>2017-12-15T10:49:38Z</time>
      </trkpt>
      <trkpt lat="46.07863" lon="4.75118">
        <ele>171</ele>
        <time>2017-12-15T10:49:39Z</time>
      </trkpt>
      <trkpt lat="46.07866" lon="4.75124">
        <ele>171</ele>
        <time>2017-12-15T10:49:40Z</time>
      </trkpt>
      <trkpt lat="46.07869" lon="4.7513">
        <ele>171</ele>
        <time>2017-12-15T10:49:41Z</time>
      </trkpt>
      <trkpt lat="46.07873" lon="4.75136">
        <ele>171</ele>
        <time>2017-12-15T10:49:42Z</time>
      </trkpt>
      <trkpt lat="46.07877" lon="4.75142">
        <ele>171</ele>
        <time>2017-12-15T10:49:43Z</time>
      </trkpt>
      <trkpt lat="46.0788" lon="4.75148">
        <ele>171</ele>
        <time>2017-12-15T10:49:44Z</time>
      </trkpt>
      <trkpt lat="46.07883" lon="4.75154">
        <ele>171</ele>
        <time>2017-12-15T10:49:45Z</time>
      </trkpt>
      <trkpt lat="46.07887" lon="4.75161">
        <ele>171</ele>
        <time>2017-12-15T10:49:46Z</time>
      </trkpt>
      <trkpt lat="46.0789" lon="4.75168">
        <ele>171</ele>
        <time>2017-12-15T10:49:47Z</time>
      </trkpt>
      <trkpt lat="46.07893" lon="4.75174">
        <ele>171</ele>
        <time>2017-12-15T10:49:48Z</time>
      </trkpt>
      <trkpt lat="46.07897" lon="4.7518">
        <ele>171</ele>
        <time>2017-12-15T10:49:49Z</time>
      </trkpt>
      <trkpt lat="46.079" lon="4.75187">
        <ele>171</ele>
        <time>2017-12-15T10:49:50Z</time>
      </trkpt>
      <trkpt lat="46.07903" lon="4.75194">
        <ele>171</ele>
        <time>2017-12-15T10:49:51Z</time>
      </trkpt>
      <trkpt lat="46.07907" lon="4.75202">
        <ele>171</ele>
        <time>2017-12-15T10:49:52Z</time>
      </trkpt>
      <trkpt lat="46.0791" lon="4.75207">
        <ele>171</ele>
        <time>2017-12-15T10:49:53Z</time>
      </trkpt>
      <trkpt lat="46.07914" lon="4.75214">
        <ele>171</ele>
        <time>2017-12-15T10:49:54Z</time>
      </trkpt>
      <trkpt lat="46.07917" lon="4.75221">
        <ele>171</ele>
        <time>2017-12-15T10:49:55Z</time>
      </trkpt>
      <trkpt lat="46.07921" lon="4.75227">
        <ele>171</ele>
        <time>2017-12-15T10:49:56Z</time>
      </trkpt>
      <trkpt lat="46.07924" lon="4.75234">
        <ele>170</ele>
        <time>2017-12-15T10:49:57Z</time>
      </trkpt>
      <trkpt lat="46.07927" lon="4.75241">
        <ele>170</ele>
        <time>2017-12-15T10:49:58Z</time>
      </trkpt>
      <trkpt lat="46.0793" lon="4.7525">
        <ele>170</ele>
        <time>2017-12-15T10:49:59Z</time>
      </trkpt>
      <trkpt lat="46.07932" lon="4.75257">
        <ele>170</ele>
        <time>2017-12-15T10:50:00Z</time>
      </trkpt>
      <trkpt lat="46.07936" lon="4.75264">
        <ele>170</ele>
        <time>2017-12-15T10:50:01Z</time>
      </trkpt>
      <trkpt lat="46.0794" lon="4.7527">
        <ele>169</ele>
        <time>2017-12-15T10:50:02Z</time>
      </trkpt>
      <trkpt lat="46.07944" lon="4.75276">
        <ele>169</ele>
        <time>2017-12-15T10:50:03Z</time>
      </trkpt>
      <trkpt lat="46.07947" lon="4.75284">
        <ele>169</ele>
        <time>2017-12-15T10:50:04Z</time>
      </trkpt>
      <trkpt lat="46.07951" lon="4.75292">
        <ele>169</ele>
        <time>2017-12-15T10:50:05Z</time>
      </trkpt>
      <trkpt lat="46.07954" lon="4.753">
        <ele>169</ele>
        <time>2017-12-15T10:50:06Z</time>
      </trkpt>
      <trkpt lat="46.07957" lon="4.75306">
        <ele>169</ele>
        <time>2017-12-15T10:50:07Z</time>
      </trkpt>
      <trkpt lat="46.0796" lon="4.75312">
        <ele>169</ele>
        <time>2017-12-15T10:50:08Z</time>
      </trkpt>
      <trkpt lat="46.07964" lon="4.75319">
        <ele>169</ele>
        <time>2017-12-15T10:50:09Z</time>
      </trkpt>
      <trkpt lat="46.07968" lon="4.75326">
        <ele>169</ele>
        <time>2017-12-15T10:50:10Z</time>
      </trkpt>
      <trkpt lat="46.07971" lon="4.75332">
        <ele>169</ele>
        <time>2017-12-15T10:50:11Z</time>
      </trkpt>
      <trkpt lat="46.07974" lon="4.7534">
        <ele>168</ele>
        <time>2017-12-15T10:50:12Z</time>
      </trkpt>
      <trkpt lat="46.07977" lon="4.75347">
        <ele>168</ele>
        <time>2017-12-15T10:50:13Z</time>
      </trkpt>
      <trkpt lat="46.07981" lon="4.75354">
        <ele>168</ele>
        <time>2017-12-15T10:50:14Z</time>
      </trkpt>
      <trkpt lat="46.07984" lon="4.75362">
        <ele>168</ele>
        <time>2017-12-15T10:50:15Z</time>
      </trkpt>
      <trkpt lat="46.07987" lon="4.75369">
        <ele>168</ele>
        <time>2017-12-15T10:50:16Z</time>
      </trkpt>
      <trkpt lat="46.0799" lon="4.75377">
        <ele>168</ele>
        <time>2017-12-15T10:50:17Z</time>
      </trkpt>
      <trkpt lat="46.07993" lon="4.75384">
        <ele>167</ele>
        <time>2017-12-15T10:50:18Z</time>
      </trkpt>
      <trkpt lat="46.07996" lon="4.75391">
        <ele>167</ele>
        <time>2017-12-15T10:50:19Z</time>
      </trkpt>
      <trkpt lat="46.08" lon="4.75397">
        <ele>167</ele>
        <time>2017-12-15T10:50:20Z</time>
      </trkpt>
      <trkpt lat="46.08004" lon="4.75407">
        <ele>166</ele>
        <time>2017-12-15T10:50:22Z</time>
      </trkpt>
      <trkpt lat="46.08005" lon="4.75411">
        <ele>166</ele>
        <time>2017-12-15T10:50:23Z</time>
      </trkpt>
      <trkpt lat="46.08008" lon="4.75414">
        <ele>166</ele>
        <time>2017-12-15T10:50:24Z</time>
      </trkpt>
      <trkpt lat="46.08013" lon="4.75419">
        <ele>166</ele>
        <time>2017-12-15T10:50:25Z</time>
      </trkpt>
      <trkpt lat="46.08016" lon="4.75425">
        <ele>166</ele>
        <time>2017-12-15T10:50:26Z</time>
      </trkpt>
      <trkpt lat="46.08019" lon="4.75429">
        <ele>166</ele>
        <time>2017-12-15T10:50:27Z</time>
      </trkpt>
      <trkpt lat="46.08022" lon="4.75435">
        <ele>166</ele>
        <time>2017-12-15T10:50:28Z</time>
      </trkpt>
      <trkpt lat="46.08024" lon="4.75441">
        <ele>166</ele>
        <time>2017-12-15T10:50:29Z</time>
      </trkpt>
      <trkpt lat="46.08029" lon="4.75452">
        <ele>166</ele>
        <time>2017-12-15T10:50:31Z</time>
      </trkpt>
      <trkpt lat="46.08031" lon="4.75458">
        <ele>166</ele>
        <time>2017-12-15T10:50:32Z</time>
      </trkpt>
      <trkpt lat="46.08034" lon="4.75464">
        <ele>166</ele>
        <time>2017-12-15T10:50:33Z</time>
      </trkpt>
      <trkpt lat="46.08037" lon="4.75471">
        <ele>166</ele>
        <time>2017-12-15T10:50:34Z</time>
      </trkpt>
      <trkpt lat="46.08039" lon="4.75477">
        <ele>166</ele>
        <time>2017-12-15T10:50:35Z</time>
      </trkpt>
      <trkpt lat="46.08043" lon="4.75481">
        <ele>166</ele>
        <time>2017-12-15T10:50:36Z</time>
      </trkpt>
      <trkpt lat="46.08047" lon="4.75487">
        <ele>166</ele>
        <time>2017-12-15T10:50:38Z</time>
      </trkpt>
      <trkpt lat="46.08049" lon="4.75492">
        <ele>166</ele>
        <time>2017-12-15T10:50:39Z</time>
      </trkpt>
      <trkpt lat="46.08052" lon="4.75497">
        <ele>166</ele>
        <time>2017-12-15T10:50:40Z</time>
      </trkpt>
      <trkpt lat="46.08055" lon="4.75504">
        <ele>167</ele>
        <time>2017-12-15T10:50:41Z</time>
      </trkpt>
      <trkpt lat="46.08058" lon="4.7551">
        <ele>167</ele>
        <time>2017-12-15T10:50:42Z</time>
      </trkpt>
      <trkpt lat="46.08061" lon="4.75517">
        <ele>167</ele>
        <time>2017-12-15T10:50:43Z</time>
      </trkpt>
      <trkpt lat="46.08063" lon="4.75525">
        <ele>168</ele>
        <time>2017-12-15T10:50:44Z</time>
      </trkpt>
      <trkpt lat="46.08067" lon="4.75532">
        <ele>168</ele>
        <time>2017-12-15T10:50:45Z</time>
      </trkpt>
      <trkpt lat="46.0807" lon="4.7554">
        <ele>169</ele>
        <time>2017-12-15T10:50:46Z</time>
      </trkpt>
      <trkpt lat="46.08072" lon="4.75547">
        <ele>169</ele>
        <time>2017-12-15T10:50:47Z</time>
      </trkpt>
      <trkpt lat="46.08076" lon="4.75552">
        <ele>169</ele>
        <time>2017-12-15T10:50:48Z</time>
      </trkpt>
      <trkpt lat="46.08079" lon="4.75557">
        <ele>170</ele>
        <time>2017-12-15T10:50:49Z</time>
      </trkpt>
      <trkpt lat="46.08082" lon="4.75563">
        <ele>170</ele>
        <time>2017-12-15T10:50:50Z</time>
      </trkpt>
      <trkpt lat="46.08084" lon="4.75568">
        <ele>173</ele>
        <time>2017-12-15T10:50:51Z</time>
      </trkpt>
      <trkpt lat="46.08088" lon="4.75576">
        <ele>173</ele>
        <time>2017-12-15T10:50:53Z</time>
      </trkpt>
      <trkpt lat="46.08089" lon="4.75579">
        <ele>174</ele>
        <time>2017-12-15T10:50:54Z</time>
      </trkpt>
      <trkpt lat="46.08083" lon="4.75589">
        <ele>174</ele>
        <time>2017-12-15T10:50:58Z</time>
      </trkpt>
      <trkpt lat="46.0808" lon="4.75593">
        <ele>174</ele>
        <time>2017-12-15T10:50:59Z</time>
      </trkpt>
      <trkpt lat="46.08075" lon="4.756">
        <ele>173</ele>
        <time>2017-12-15T10:51:01Z</time>
      </trkpt>
      <trkpt lat="46.08073" lon="4.75602">
        <ele>173</ele>
        <time>2017-12-15T10:51:02Z</time>
      </trkpt>
      <trkpt lat="46.08067" lon="4.75607">
        <ele>173</ele>
        <time>2017-12-15T10:51:05Z</time>
      </trkpt>
      <trkpt lat="46.08065" lon="4.75609">
        <ele>173</ele>
        <time>2017-12-15T10:51:06Z</time>
      </trkpt>
      <trkpt lat="46.08058" lon="4.75613">
        <ele>173</ele>
        <time>2017-12-15T10:51:10Z</time>
      </trkpt>
      <trkpt lat="46.08056" lon="4.75614">
        <ele>173</ele>
        <time>2017-12-15T10:51:11Z</time>
      </trkpt>
      <trkpt lat="46.08051" lon="4.75623">
        <ele>173</ele>
        <time>2017-12-15T10:51:48Z</time>
      </trkpt>
      <trkpt lat="46.08051" lon="4.75625">
        <ele>173</ele>
        <time>2017-12-15T10:51:49Z</time>
      </trkpt>
      <trkpt lat="46.08048" lon="4.75623">
        <ele>173</ele>
        <time>2017-12-15T10:51:56Z</time>
      </trkpt>
      <trkpt lat="46.08048" lon="4.75622">
        <ele>173</ele>
        <time>2017-12-15T10:51:57Z</time>
      </trkpt>
      <trkpt lat="46.08047" lon="4.75622">
        <ele>173</ele>
        <time>2017-12-15T10:51:58Z</time>
      </trkpt>
      <trkpt lat="46.08041" lon="4.75613">
        <ele>173</ele>
        <time>2017-12-15T11:01:41Z</time>
      </trkpt>
      <trkpt lat="46.08041" lon="4.75614">
        <ele>173</ele>
        <time>2017-12-15T11:01:42Z</time>
      </trkpt>
      <trkpt lat="46.08042" lon="4.75614">
        <ele>173</ele>
        <time>2017-12-15T11:01:43Z</time>
      </trkpt>
      <trkpt lat="46.08046" lon="4.75625">
        <ele>173</ele>
        <time>2017-12-15T11:02:11Z</time>
      </trkpt>
      <trkpt lat="46.08047" lon="4.75625">
        <ele>173</ele>
        <time>2017-12-15T11:02:12Z</time>
      </trkpt>
      <trkpt lat="46.0804" lon="4.75632">
        <ele>173</ele>
        <time>2017-12-15T11:02:22Z</time>
      </trkpt>
      <trkpt lat="46.08038" lon="4.75632">
        <ele>173</ele>
        <time>2017-12-15T11:02:23Z</time>
      </trkpt>
      <trkpt lat="46.08032" lon="4.75639">
        <ele>173</ele>
        <time>2017-12-15T11:02:28Z</time>
      </trkpt>
      <trkpt lat="46.08033" lon="4.75642">
        <ele>174</ele>
        <time>2017-12-15T11:02:29Z</time>
      </trkpt>
      <trkpt lat="46.08025" lon="4.75645">
        <ele>174</ele>
        <time>2017-12-15T11:02:33Z</time>
      </trkpt>
      <trkpt lat="46.08022" lon="4.75644">
        <ele>174</ele>
        <time>2017-12-15T11:02:34Z</time>
      </trkpt>
      <trkpt lat="46.08015" lon="4.75644">
        <ele>174</ele>
        <time>2017-12-15T11:02:36Z</time>
      </trkpt>
      <trkpt lat="46.08012" lon="4.75646">
        <ele>174</ele>
        <time>2017-12-15T11:02:37Z</time>
      </trkpt>
      <trkpt lat="46.08006" lon="4.75653">
        <ele>174</ele>
        <time>2017-12-15T11:02:39Z</time>
      </trkpt>
      <trkpt lat="46.08004" lon="4.75656">
        <ele>175</ele>
        <time>2017-12-15T11:02:40Z</time>
      </trkpt>
      <trkpt lat="46.07999" lon="4.75662">
        <ele>174</ele>
        <time>2017-12-15T11:02:42Z</time>
      </trkpt>
      <trkpt lat="46.07995" lon="4.75665">
        <ele>174</ele>
        <time>2017-12-15T11:02:43Z</time>
      </trkpt>
      <trkpt lat="46.07988" lon="4.75672">
        <ele>175</ele>
        <time>2017-12-15T11:02:45Z</time>
      </trkpt>
      <trkpt lat="46.07984" lon="4.75676">
        <ele>174</ele>
        <time>2017-12-15T11:02:46Z</time>
      </trkpt>
      <trkpt lat="46.07977" lon="4.75683">
        <ele>174</ele>
        <time>2017-12-15T11:02:48Z</time>
      </trkpt>
      <trkpt lat="46.07973" lon="4.75686">
        <ele>173</ele>
        <time>2017-12-15T11:02:49Z</time>
      </trkpt>
      <trkpt lat="46.07969" lon="4.75689">
        <ele>173</ele>
        <time>2017-12-15T11:02:50Z</time>
      </trkpt>
      <trkpt lat="46.07966" lon="4.75693">
        <ele>173</ele>
        <time>2017-12-15T11:02:51Z</time>
      </trkpt>
      <trkpt lat="46.07962" lon="4.75697">
        <ele>173</ele>
        <time>2017-12-15T11:02:52Z</time>
      </trkpt>
      <trkpt lat="46.07958" lon="4.75701">
        <ele>173</ele>
        <time>2017-12-15T11:02:53Z</time>
      </trkpt>
      <trkpt lat="46.07954" lon="4.75705">
        <ele>173</ele>
        <time>2017-12-15T11:02:54Z</time>
      </trkpt>
      <trkpt lat="46.0795" lon="4.75708">
        <ele>173</ele>
        <time>2017-12-15T11:02:55Z</time>
      </trkpt>
      <trkpt lat="46.07942" lon="4.75714">
        <ele>173</ele>
        <time>2017-12-15T11:02:57Z</time>
      </trkpt>
      <trkpt lat="46.07938" lon="4.75718">
        <ele>173</ele>
        <time>2017-12-15T11:02:58Z</time>
      </trkpt>
      <trkpt lat="46.07934" lon="4.75722">
        <ele>173</ele>
        <time>2017-12-15T11:02:59Z</time>
      </trkpt>
      <trkpt lat="46.0793" lon="4.75727">
        <ele>173</ele>
        <time>2017-12-15T11:03:00Z</time>
      </trkpt>
      <trkpt lat="46.07926" lon="4.75732">
        <ele>173</ele>
        <time>2017-12-15T11:03:01Z</time>
      </trkpt>
      <trkpt lat="46.07922" lon="4.75738">
        <ele>173</ele>
        <time>2017-12-15T11:03:02Z</time>
      </trkpt>
      <trkpt lat="46.07915" lon="4.75745">
        <ele>172</ele>
        <time>2017-12-15T11:03:04Z</time>
      </trkpt>
      <trkpt lat="46.07911" lon="4.75748">
        <ele>172</ele>
        <time>2017-12-15T11:03:05Z</time>
      </trkpt>
      <trkpt lat="46.07907" lon="4.75753">
        <ele>172</ele>
        <time>2017-12-15T11:03:06Z</time>
      </trkpt>
      <trkpt lat="46.07903" lon="4.75757">
        <ele>172</ele>
        <time>2017-12-15T11:03:07Z</time>
      </trkpt>
      <trkpt lat="46.07899" lon="4.75761">
        <ele>172</ele>
        <time>2017-12-15T11:03:08Z</time>
      </trkpt>
      <trkpt lat="46.07894" lon="4.75766">
        <ele>172</ele>
        <time>2017-12-15T11:03:09Z</time>
      </trkpt>
      <trkpt lat="46.0789" lon="4.7577">
        <ele>172</ele>
        <time>2017-12-15T11:03:10Z</time>
      </trkpt>
      <trkpt lat="46.07886" lon="4.75773">
        <ele>171</ele>
        <time>2017-12-15T11:03:11Z</time>
      </trkpt>
      <trkpt lat="46.07882" lon="4.75779">
        <ele>171</ele>
        <time>2017-12-15T11:03:12Z</time>
      </trkpt>
      <trkpt lat="46.07877" lon="4.75783">
        <ele>171</ele>
        <time>2017-12-15T11:03:13Z</time>
      </trkpt>
      <trkpt lat="46.07873" lon="4.75788">
        <ele>171</ele>
        <time>2017-12-15T11:03:14Z</time>
      </trkpt>
      <trkpt lat="46.07869" lon="4.75793">
        <ele>171</ele>
        <time>2017-12-15T11:03:15Z</time>
      </trkpt>
      <trkpt lat="46.07865" lon="4.75797">
        <ele>171</ele>
        <time>2017-12-15T11:03:16Z</time>
      </trkpt>
      <trkpt lat="46.07861" lon="4.758">
        <ele>171</ele>
        <time>2017-12-15T11:03:17Z</time>
      </trkpt>
      <trkpt lat="46.07858" lon="4.75803">
        <ele>172</ele>
        <time>2017-12-15T11:03:18Z</time>
      </trkpt>
      <trkpt lat="46.07853" lon="4.75806">
        <ele>172</ele>
        <time>2017-12-15T11:03:19Z</time>
      </trkpt>
      <trkpt lat="46.07849" lon="4.7581">
        <ele>172</ele>
        <time>2017-12-15T11:03:20Z</time>
      </trkpt>
      <trkpt lat="46.07846" lon="4.75814">
        <ele>172</ele>
        <time>2017-12-15T11:03:21Z</time>
      </trkpt>
      <trkpt lat="46.07842" lon="4.75818">
        <ele>172</ele>
        <time>2017-12-15T11:03:22Z</time>
      </trkpt>
      <trkpt lat="46.07838" lon="4.75822">
        <ele>172</ele>
        <time>2017-12-15T11:03:23Z</time>
      </trkpt>
      <trkpt lat="46.07834" lon="4.75826">
        <ele>173</ele>
        <time>2017-12-15T11:03:24Z</time>
      </trkpt>
      <trkpt lat="46.07831" lon="4.7583">
        <ele>172</ele>
        <time>2017-12-15T11:03:25Z</time>
      </trkpt>
      <trkpt lat="46.07827" lon="4.75835">
        <ele>173</ele>
        <time>2017-12-15T11:03:26Z</time>
      </trkpt>
      <trkpt lat="46.07823" lon="4.7584">
        <ele>173</ele>
        <time>2017-12-15T11:03:27Z</time>
      </trkpt>
      <trkpt lat="46.0782" lon="4.75845">
        <ele>172</ele>
        <time>2017-12-15T11:03:28Z</time>
      </trkpt>
      <trkpt lat="46.07816" lon="4.75849">
        <ele>172</ele>
        <time>2017-12-15T11:03:29Z</time>
      </trkpt>
      <trkpt lat="46.07812" lon="4.75853">
        <ele>172</ele>
        <time>2017-12-15T11:03:30Z</time>
      </trkpt>
      <trkpt lat="46.07809" lon="4.75858">
        <ele>172</ele>
        <time>2017-12-15T11:03:31Z</time>
      </trkpt>
      <trkpt lat="46.07805" lon="4.75862">
        <ele>172</ele>
        <time>2017-12-15T11:03:32Z</time>
      </trkpt>
      <trkpt lat="46.07802" lon="4.75865">
        <ele>172</ele>
        <time>2017-12-15T11:03:33Z</time>
      </trkpt>
      <trkpt lat="46.07797" lon="4.75869">
        <ele>172</ele>
        <time>2017-12-15T11:03:34Z</time>
      </trkpt>
      <trkpt lat="46.07794" lon="4.75872">
        <ele>172</ele>
        <time>2017-12-15T11:03:35Z</time>
      </trkpt>
      <trkpt lat="46.07789" lon="4.75876">
        <ele>172</ele>
        <time>2017-12-15T11:03:36Z</time>
      </trkpt>
      <trkpt lat="46.07785" lon="4.75879">
        <ele>172</ele>
        <time>2017-12-15T11:03:37Z</time>
      </trkpt>
      <trkpt lat="46.07781" lon="4.75883">
        <ele>172</ele>
        <time>2017-12-15T11:03:38Z</time>
      </trkpt>
      <trkpt lat="46.07776" lon="4.75885">
        <ele>172</ele>
        <time>2017-12-15T11:03:39Z</time>
      </trkpt>
      <trkpt lat="46.07771" lon="4.75889">
        <ele>172</ele>
        <time>2017-12-15T11:03:40Z</time>
      </trkpt>
      <trkpt lat="46.07767" lon="4.75892">
        <ele>172</ele>
        <time>2017-12-15T11:03:41Z</time>
      </trkpt>
      <trkpt lat="46.07763" lon="4.75895">
        <ele>173</ele>
        <time>2017-12-15T11:03:42Z</time>
      </trkpt>
      <trkpt lat="46.07758" lon="4.759">
        <ele>173</ele>
        <time>2017-12-15T11:03:43Z</time>
      </trkpt>
      <trkpt lat="46.07754" lon="4.75903">
        <ele>173</ele>
        <time>2017-12-15T11:03:44Z</time>
      </trkpt>
      <trkpt lat="46.0775" lon="4.75905">
        <ele>172</ele>
        <time>2017-12-15T11:03:45Z</time>
      </trkpt>
      <trkpt lat="46.07746" lon="4.75909">
        <ele>172</ele>
        <time>2017-12-15T11:03:46Z</time>
      </trkpt>
      <trkpt lat="46.07743" lon="4.75914">
        <ele>172</ele>
        <time>2017-12-15T11:03:47Z</time>
      </trkpt>
      <trkpt lat="46.07738" lon="4.75917">
        <ele>173</ele>
        <time>2017-12-15T11:03:48Z</time>
      </trkpt>
      <trkpt lat="46.07734" lon="4.7592">
        <ele>173</ele>
        <time>2017-12-15T11:03:49Z</time>
      </trkpt>
      <trkpt lat="46.07726" lon="4.75926">
        <ele>173</ele>
        <time>2017-12-15T11:03:51Z</time>
      </trkpt>
      <trkpt lat="46.07721" lon="4.75929">
        <ele>172</ele>
        <time>2017-12-15T11:03:52Z</time>
      </trkpt>
      <trkpt lat="46.07716" lon="4.75932">
        <ele>172</ele>
        <time>2017-12-15T11:03:53Z</time>
      </trkpt>
      <trkpt lat="46.07712" lon="4.75936">
        <ele>172</ele>
        <time>2017-12-15T11:03:54Z</time>
      </trkpt>
      <trkpt lat="46.07705" lon="4.75941">
        <ele>172</ele>
        <time>2017-12-15T11:03:56Z</time>
      </trkpt>
      <trkpt lat="46.07701" lon="4.75945">
        <ele>172</ele>
        <time>2017-12-15T11:03:57Z</time>
      </trkpt>
      <trkpt lat="46.07696" lon="4.7595">
        <ele>172</ele>
        <time>2017-12-15T11:03:58Z</time>
      </trkpt>
      <trkpt lat="46.07693" lon="4.75953">
        <ele>172</ele>
        <time>2017-12-15T11:03:59Z</time>
      </trkpt>
      <trkpt lat="46.07687" lon="4.75956">
        <ele>172</ele>
        <time>2017-12-15T11:04:00Z</time>
      </trkpt>
      <trkpt lat="46.07683" lon="4.7596">
        <ele>172</ele>
        <time>2017-12-15T11:04:01Z</time>
      </trkpt>
      <trkpt lat="46.07675" lon="4.75966">
        <ele>172</ele>
        <time>2017-12-15T11:04:03Z</time>
      </trkpt>
      <trkpt lat="46.0767" lon="4.75969">
        <ele>172</ele>
        <time>2017-12-15T11:04:04Z</time>
      </trkpt>
      <trkpt lat="46.07663" lon="4.75975">
        <ele>170</ele>
        <time>2017-12-15T11:04:06Z</time>
      </trkpt>
      <trkpt lat="46.07659" lon="4.75979">
        <ele>170</ele>
        <time>2017-12-15T11:04:07Z</time>
      </trkpt>
      <trkpt lat="46.07653" lon="4.75985">
        <ele>170</ele>
        <time>2017-12-15T11:04:09Z</time>
      </trkpt>
      <trkpt lat="46.0765" lon="4.7599">
        <ele>170</ele>
        <time>2017-12-15T11:04:10Z</time>
      </trkpt>
      <trkpt lat="46.07647" lon="4.75998">
        <ele>170</ele>
        <time>2017-12-15T11:04:12Z</time>
      </trkpt>
      <trkpt lat="46.07647" lon="4.76003">
        <ele>172</ele>
        <time>2017-12-15T11:04:13Z</time>
      </trkpt>
      <trkpt lat="46.0765" lon="4.76013">
        <ele>172</ele>
        <time>2017-12-15T11:04:15Z</time>
      </trkpt>
      <trkpt lat="46.07651" lon="4.76017">
        <ele>172</ele>
        <time>2017-12-15T11:04:16Z</time>
      </trkpt>
      <trkpt lat="46.07654" lon="4.76026">
        <ele>172</ele>
        <time>2017-12-15T11:04:18Z</time>
      </trkpt>
      <trkpt lat="46.07656" lon="4.76029">
        <ele>172</ele>
        <time>2017-12-15T11:04:19Z</time>
      </trkpt>
      <trkpt lat="46.07659" lon="4.76036">
        <ele>172</ele>
        <time>2017-12-15T11:04:21Z</time>
      </trkpt>
      <trkpt lat="46.07662" lon="4.76043">
        <ele>172</ele>
        <time>2017-12-15T11:04:22Z</time>
      </trkpt>
      <trkpt lat="46.07664" lon="4.76055">
        <ele>172</ele>
        <time>2017-12-15T11:04:24Z</time>
      </trkpt>
      <trkpt lat="46.07664" lon="4.76058">
        <ele>172</ele>
        <time>2017-12-15T11:04:25Z</time>
      </trkpt>
      <trkpt lat="46.07669" lon="4.76064">
        <ele>174</ele>
        <time>2017-12-15T11:04:27Z</time>
      </trkpt>
      <trkpt lat="46.07671" lon="4.7607">
        <ele>174</ele>
        <time>2017-12-15T11:04:28Z</time>
      </trkpt>
      <trkpt lat="46.07676" lon="4.7608">
        <ele>174</ele>
        <time>2017-12-15T11:04:30Z</time>
      </trkpt>
      <trkpt lat="46.07677" lon="4.76084">
        <ele>173</ele>
        <time>2017-12-15T11:04:31Z</time>
      </trkpt>
      <trkpt lat="46.0768" lon="4.76096">
        <ele>173</ele>
        <time>2017-12-15T11:04:33Z</time>
      </trkpt>
      <trkpt lat="46.07679" lon="4.76099">
        <ele>173</ele>
        <time>2017-12-15T11:04:34Z</time>
      </trkpt>
      <trkpt lat="46.07675" lon="4.76108">
        <ele>173</ele>
        <time>2017-12-15T11:04:36Z</time>
      </trkpt>
      <trkpt lat="46.07672" lon="4.76112">
        <ele>173</ele>
        <time>2017-12-15T11:04:37Z</time>
      </trkpt>
      <trkpt lat="46.07667" lon="4.7612">
        <ele>173</ele>
        <time>2017-12-15T11:04:39Z</time>
      </trkpt>
      <trkpt lat="46.07665" lon="4.76123">
        <ele>172</ele>
        <time>2017-12-15T11:04:40Z</time>
      </trkpt>
      <trkpt lat="46.07662" lon="4.76126">
        <ele>172</ele>
        <time>2017-12-15T11:04:41Z</time>
      </trkpt>
      <trkpt lat="46.07657" lon="4.7613">
        <ele>172</ele>
        <time>2017-12-15T11:04:42Z</time>
      </trkpt>
      <trkpt lat="46.07653" lon="4.76136">
        <ele>172</ele>
        <time>2017-12-15T11:04:43Z</time>
      </trkpt>
      <trkpt lat="46.07649" lon="4.7614">
        <ele>172</ele>
        <time>2017-12-15T11:04:44Z</time>
      </trkpt>
      <trkpt lat="46.07645" lon="4.76144">
        <ele>172</ele>
        <time>2017-12-15T11:04:45Z</time>
      </trkpt>
      <trkpt lat="46.0764" lon="4.76149">
        <ele>172</ele>
        <time>2017-12-15T11:04:46Z</time>
      </trkpt>
      <trkpt lat="46.07636" lon="4.76154">
        <ele>172</ele>
        <time>2017-12-15T11:04:47Z</time>
      </trkpt>
      <trkpt lat="46.07632" lon="4.76159">
        <ele>172</ele>
        <time>2017-12-15T11:04:48Z</time>
      </trkpt>
      <trkpt lat="46.07628" lon="4.76164">
        <ele>172</ele>
        <time>2017-12-15T11:04:49Z</time>
      </trkpt>
      <trkpt lat="46.07624" lon="4.76168">
        <ele>173</ele>
        <time>2017-12-15T11:04:50Z</time>
      </trkpt>
      <trkpt lat="46.07619" lon="4.76173">
        <ele>173</ele>
        <time>2017-12-15T11:04:51Z</time>
      </trkpt>
      <trkpt lat="46.07614" lon="4.76177">
        <ele>173</ele>
        <time>2017-12-15T11:04:52Z</time>
      </trkpt>
      <trkpt lat="46.07609" lon="4.76181">
        <ele>173</ele>
        <time>2017-12-15T11:04:53Z</time>
      </trkpt>
      <trkpt lat="46.07605" lon="4.76187">
        <ele>173</ele>
        <time>2017-12-15T11:04:54Z</time>
      </trkpt>
      <trkpt lat="46.07599" lon="4.76193">
        <ele>173</ele>
        <time>2017-12-15T11:04:55Z</time>
      </trkpt>
      <trkpt lat="46.07596" lon="4.762">
        <ele>173</ele>
        <time>2017-12-15T11:04:56Z</time>
      </trkpt>
      <trkpt lat="46.07591" lon="4.76205">
        <ele>173</ele>
        <time>2017-12-15T11:04:57Z</time>
      </trkpt>
      <trkpt lat="46.07587" lon="4.7621">
        <ele>173</ele>
        <time>2017-12-15T11:04:58Z</time>
      </trkpt>
      <trkpt lat="46.07583" lon="4.76216">
        <ele>173</ele>
        <time>2017-12-15T11:04:59Z</time>
      </trkpt>
      <trkpt lat="46.0758" lon="4.76221">
        <ele>173</ele>
        <time>2017-12-15T11:05:00Z</time>
      </trkpt>
      <trkpt lat="46.07575" lon="4.76226">
        <ele>173</ele>
        <time>2017-12-15T11:05:01Z</time>
      </trkpt>
      <trkpt lat="46.0757" lon="4.7623">
        <ele>173</ele>
        <time>2017-12-15T11:05:02Z</time>
      </trkpt>
      <trkpt lat="46.07566" lon="4.76234">
        <ele>173</ele>
        <time>2017-12-15T11:05:03Z</time>
      </trkpt>
      <trkpt lat="46.07561" lon="4.76238">
        <ele>173</ele>
        <time>2017-12-15T11:05:04Z</time>
      </trkpt>
      <trkpt lat="46.07557" lon="4.76241">
        <ele>173</ele>
        <time>2017-12-15T11:05:05Z</time>
      </trkpt>
      <trkpt lat="46.07553" lon="4.76245">
        <ele>173</ele>
        <time>2017-12-15T11:05:06Z</time>
      </trkpt>
      <trkpt lat="46.07549" lon="4.7625">
        <ele>174</ele>
        <time>2017-12-15T11:05:07Z</time>
      </trkpt>
      <trkpt lat="46.07545" lon="4.76254">
        <ele>174</ele>
        <time>2017-12-15T11:05:08Z</time>
      </trkpt>
      <trkpt lat="46.07541" lon="4.76259">
        <ele>174</ele>
        <time>2017-12-15T11:05:09Z</time>
      </trkpt>
      <trkpt lat="46.07537" lon="4.76263">
        <ele>174</ele>
        <time>2017-12-15T11:05:10Z</time>
      </trkpt>
      <trkpt lat="46.07533" lon="4.76268">
        <ele>174</ele>
        <time>2017-12-15T11:05:11Z</time>
      </trkpt>
      <trkpt lat="46.07529" lon="4.76273">
        <ele>174</ele>
        <time>2017-12-15T11:05:12Z</time>
      </trkpt>
      <trkpt lat="46.07525" lon="4.76277">
        <ele>174</ele>
        <time>2017-12-15T11:05:13Z</time>
      </trkpt>
      <trkpt lat="46.07521" lon="4.76284">
        <ele>174</ele>
        <time>2017-12-15T11:05:14Z</time>
      </trkpt>
      <trkpt lat="46.07517" lon="4.76287">
        <ele>174</ele>
        <time>2017-12-15T11:05:15Z</time>
      </trkpt>
      <trkpt lat="46.07513" lon="4.76292">
        <ele>174</ele>
        <time>2017-12-15T11:05:16Z</time>
      </trkpt>
      <trkpt lat="46.07509" lon="4.76298">
        <ele>174</ele>
        <time>2017-12-15T11:05:17Z</time>
      </trkpt>
      <trkpt lat="46.07502" lon="4.76301">
        <ele>174</ele>
        <time>2017-12-15T11:05:18Z</time>
      </trkpt>
      <trkpt lat="46.07498" lon="4.76306">
        <ele>173</ele>
        <time>2017-12-15T11:05:19Z</time>
      </trkpt>
      <trkpt lat="46.07494" lon="4.76311">
        <ele>173</ele>
        <time>2017-12-15T11:05:20Z</time>
      </trkpt>
      <trkpt lat="46.07489" lon="4.76313">
        <ele>173</ele>
        <time>2017-12-15T11:05:21Z</time>
      </trkpt>
      <trkpt lat="46.07483" lon="4.76314">
        <ele>173</ele>
        <time>2017-12-15T11:05:22Z</time>
      </trkpt>
      <trkpt lat="46.07478" lon="4.76314">
        <ele>173</ele>
        <time>2017-12-15T11:05:23Z</time>
      </trkpt>
      <trkpt lat="46.07474" lon="4.76315">
        <ele>172</ele>
        <time>2017-12-15T11:05:24Z</time>
      </trkpt>
      <trkpt lat="46.07467" lon="4.76323">
        <ele>172</ele>
        <time>2017-12-15T11:05:26Z</time>
      </trkpt>
      <trkpt lat="46.07465" lon="4.76327">
        <ele>172</ele>
        <time>2017-12-15T11:05:27Z</time>
      </trkpt>
      <trkpt lat="46.07461" lon="4.76338">
        <ele>172</ele>
        <time>2017-12-15T11:05:29Z</time>
      </trkpt>
      <trkpt lat="46.07459" lon="4.76343">
        <ele>172</ele>
        <time>2017-12-15T11:05:30Z</time>
      </trkpt>
      <trkpt lat="46.07456" lon="4.76347">
        <ele>172</ele>
        <time>2017-12-15T11:05:31Z</time>
      </trkpt>
      <trkpt lat="46.07452" lon="4.76351">
        <ele>172</ele>
        <time>2017-12-15T11:05:32Z</time>
      </trkpt>
      <trkpt lat="46.07448" lon="4.76356">
        <ele>172</ele>
        <time>2017-12-15T11:05:33Z</time>
      </trkpt>
      <trkpt lat="46.07444" lon="4.7636">
        <ele>171</ele>
        <time>2017-12-15T11:05:34Z</time>
      </trkpt>
      <trkpt lat="46.0744" lon="4.76365">
        <ele>171</ele>
        <time>2017-12-15T11:05:35Z</time>
      </trkpt>
      <trkpt lat="46.07436" lon="4.76369">
        <ele>171</ele>
        <time>2017-12-15T11:05:36Z</time>
      </trkpt>
      <trkpt lat="46.07431" lon="4.76374">
        <ele>171</ele>
        <time>2017-12-15T11:05:37Z</time>
      </trkpt>
      <trkpt lat="46.07428" lon="4.76379">
        <ele>171</ele>
        <time>2017-12-15T11:05:38Z</time>
      </trkpt>
      <trkpt lat="46.07423" lon="4.76383">
        <ele>171</ele>
        <time>2017-12-15T11:05:39Z</time>
      </trkpt>
      <trkpt lat="46.07418" lon="4.76386">
        <ele>171</ele>
        <time>2017-12-15T11:05:40Z</time>
      </trkpt>
      <trkpt lat="46.07415" lon="4.7639">
        <ele>170</ele>
        <time>2017-12-15T11:05:41Z</time>
      </trkpt>
      <trkpt lat="46.07411" lon="4.76395">
        <ele>170</ele>
        <time>2017-12-15T11:05:42Z</time>
      </trkpt>
      <trkpt lat="46.07406" lon="4.76399">
        <ele>170</ele>
        <time>2017-12-15T11:05:43Z</time>
      </trkpt>
      <trkpt lat="46.07402" lon="4.76405">
        <ele>171</ele>
        <time>2017-12-15T11:05:44Z</time>
      </trkpt>
      <trkpt lat="46.07398" lon="4.76409">
        <ele>171</ele>
        <time>2017-12-15T11:05:45Z</time>
      </trkpt>
      <trkpt lat="46.07394" lon="4.76413">
        <ele>170</ele>
        <time>2017-12-15T11:05:46Z</time>
      </trkpt>
      <trkpt lat="46.07389" lon="4.76418">
        <ele>171</ele>
        <time>2017-12-15T11:05:47Z</time>
      </trkpt>
      <trkpt lat="46.07385" lon="4.76422">
        <ele>171</ele>
        <time>2017-12-15T11:05:48Z</time>
      </trkpt>
      <trkpt lat="46.07381" lon="4.76428">
        <ele>171</ele>
        <time>2017-12-15T11:05:49Z</time>
      </trkpt>
      <trkpt lat="46.07376" lon="4.76432">
        <ele>171</ele>
        <time>2017-12-15T11:05:50Z</time>
      </trkpt>
      <trkpt lat="46.07371" lon="4.76437">
        <ele>171</ele>
        <time>2017-12-15T11:05:51Z</time>
      </trkpt>
      <trkpt lat="46.07366" lon="4.7644">
        <ele>171</ele>
        <time>2017-12-15T11:05:52Z</time>
      </trkpt>
      <trkpt lat="46.07363" lon="4.76444">
        <ele>171</ele>
        <time>2017-12-15T11:05:53Z</time>
      </trkpt>
      <trkpt lat="46.07359" lon="4.76449">
        <ele>171</ele>
        <time>2017-12-15T11:05:54Z</time>
      </trkpt>
      <trkpt lat="46.07352" lon="4.76455">
        <ele>171</ele>
        <time>2017-12-15T11:05:56Z</time>
      </trkpt>
      <trkpt lat="46.07348" lon="4.7646">
        <ele>171</ele>
        <time>2017-12-15T11:05:57Z</time>
      </trkpt>
      <trkpt lat="46.07344" lon="4.76464">
        <ele>171</ele>
        <time>2017-12-15T11:05:58Z</time>
      </trkpt>
      <trkpt lat="46.0734" lon="4.7647">
        <ele>171</ele>
        <time>2017-12-15T11:05:59Z</time>
      </trkpt>
      <trkpt lat="46.07336" lon="4.76474">
        <ele>171</ele>
        <time>2017-12-15T11:06:00Z</time>
      </trkpt>
      <trkpt lat="46.07332" lon="4.76479">
        <ele>170</ele>
        <time>2017-12-15T11:06:01Z</time>
      </trkpt>
      <trkpt lat="46.07328" lon="4.76484">
        <ele>170</ele>
        <time>2017-12-15T11:06:02Z</time>
      </trkpt>
      <trkpt lat="46.07324" lon="4.76489">
        <ele>170</ele>
        <time>2017-12-15T11:06:03Z</time>
      </trkpt>
      <trkpt lat="46.07319" lon="4.76494">
        <ele>170</ele>
        <time>2017-12-15T11:06:04Z</time>
      </trkpt>
      <trkpt lat="46.07314" lon="4.76497">
        <ele>170</ele>
        <time>2017-12-15T11:06:05Z</time>
      </trkpt>
      <trkpt lat="46.0731" lon="4.76502">
        <ele>170</ele>
        <time>2017-12-15T11:06:06Z</time>
      </trkpt>
      <trkpt lat="46.07306" lon="4.76507">
        <ele>170</ele>
        <time>2017-12-15T11:06:07Z</time>
      </trkpt>
      <trkpt lat="46.07302" lon="4.76512">
        <ele>170</ele>
        <time>2017-12-15T11:06:08Z</time>
      </trkpt>
      <trkpt lat="46.07299" lon="4.76517">
        <ele>170</ele>
        <time>2017-12-15T11:06:09Z</time>
      </trkpt>
      <trkpt lat="46.07295" lon="4.7652">
        <ele>170</ele>
        <time>2017-12-15T11:06:10Z</time>
      </trkpt>
      <trkpt lat="46.07291" lon="4.76523">
        <ele>170</ele>
        <time>2017-12-15T11:06:11Z</time>
      </trkpt>
      <trkpt lat="46.07287" lon="4.76527">
        <ele>170</ele>
        <time>2017-12-15T11:06:12Z</time>
      </trkpt>
      <trkpt lat="46.07282" lon="4.76534">
        <ele>170</ele>
        <time>2017-12-15T11:06:13Z</time>
      </trkpt>
      <trkpt lat="46.07279" lon="4.76537">
        <ele>170</ele>
        <time>2017-12-15T11:06:14Z</time>
      </trkpt>
      <trkpt lat="46.07275" lon="4.76543">
        <ele>170</ele>
        <time>2017-12-15T11:06:15Z</time>
      </trkpt>
      <trkpt lat="46.07271" lon="4.76546">
        <ele>170</ele>
        <time>2017-12-15T11:06:16Z</time>
      </trkpt>
      <trkpt lat="46.07267" lon="4.76551">
        <ele>170</ele>
        <time>2017-12-15T11:06:17Z</time>
      </trkpt>
      <trkpt lat="46.07263" lon="4.76555">
        <ele>170</ele>
        <time>2017-12-15T11:06:18Z</time>
      </trkpt>
      <trkpt lat="46.07258" lon="4.76561">
        <ele>170</ele>
        <time>2017-12-15T11:06:19Z</time>
      </trkpt>
      <trkpt lat="46.07254" lon="4.76566">
        <ele>170</ele>
        <time>2017-12-15T11:06:20Z</time>
      </trkpt>
      <trkpt lat="46.07251" lon="4.7657">
        <ele>170</ele>
        <time>2017-12-15T11:06:21Z</time>
      </trkpt>
      <trkpt lat="46.07247" lon="4.76575">
        <ele>170</ele>
        <time>2017-12-15T11:06:22Z</time>
      </trkpt>
      <trkpt lat="46.07243" lon="4.7658">
        <ele>170</ele>
        <time>2017-12-15T11:06:23Z</time>
      </trkpt>
      <trkpt lat="46.07239" lon="4.76585">
        <ele>170</ele>
        <time>2017-12-15T11:06:24Z</time>
      </trkpt>
      <trkpt lat="46.07236" lon="4.76589">
        <ele>170</ele>
        <time>2017-12-15T11:06:25Z</time>
      </trkpt>
      <trkpt lat="46.07231" lon="4.76594">
        <ele>170</ele>
        <time>2017-12-15T11:06:26Z</time>
      </trkpt>
      <trkpt lat="46.07227" lon="4.76598">
        <ele>170</ele>
        <time>2017-12-15T11:06:27Z</time>
      </trkpt>
      <trkpt lat="46.07222" lon="4.76602">
        <ele>170</ele>
        <time>2017-12-15T11:06:28Z</time>
      </trkpt>
      <trkpt lat="46.07218" lon="4.76608">
        <ele>170</ele>
        <time>2017-12-15T11:06:29Z</time>
      </trkpt>
      <trkpt lat="46.07214" lon="4.76613">
        <ele>170</ele>
        <time>2017-12-15T11:06:30Z</time>
      </trkpt>
      <trkpt lat="46.0721" lon="4.76618">
        <ele>170</ele>
        <time>2017-12-15T11:06:31Z</time>
      </trkpt>
      <trkpt lat="46.07205" lon="4.76623">
        <ele>171</ele>
        <time>2017-12-15T11:06:32Z</time>
      </trkpt>
      <trkpt lat="46.07201" lon="4.76627">
        <ele>170</ele>
        <time>2017-12-15T11:06:33Z</time>
      </trkpt>
      <trkpt lat="46.07198" lon="4.76631">
        <ele>170</ele>
        <time>2017-12-15T11:06:34Z</time>
      </trkpt>
      <trkpt lat="46.07195" lon="4.76637">
        <ele>170</ele>
        <time>2017-12-15T11:06:35Z</time>
      </trkpt>
      <trkpt lat="46.07192" lon="4.76642">
        <ele>170</ele>
        <time>2017-12-15T11:06:36Z</time>
      </trkpt>
      <trkpt lat="46.07188" lon="4.76648">
        <ele>170</ele>
        <time>2017-12-15T11:06:37Z</time>
      </trkpt>
      <trkpt lat="46.07184" lon="4.76654">
        <ele>170</ele>
        <time>2017-12-15T11:06:38Z</time>
      </trkpt>
      <trkpt lat="46.07181" lon="4.7666">
        <ele>170</ele>
        <time>2017-12-15T11:06:39Z</time>
      </trkpt>
      <trkpt lat="46.07177" lon="4.76666">
        <ele>170</ele>
        <time>2017-12-15T11:06:40Z</time>
      </trkpt>
      <trkpt lat="46.07174" lon="4.76672">
        <ele>170</ele>
        <time>2017-12-15T11:06:41Z</time>
      </trkpt>
      <trkpt lat="46.07169" lon="4.76679">
        <ele>170</ele>
        <time>2017-12-15T11:06:42Z</time>
      </trkpt>
      <trkpt lat="46.07166" lon="4.76685">
        <ele>170</ele>
        <time>2017-12-15T11:06:43Z</time>
      </trkpt>
      <trkpt lat="46.07163" lon="4.76692">
        <ele>170</ele>
        <time>2017-12-15T11:06:44Z</time>
      </trkpt>
      <trkpt lat="46.07161" lon="4.76699">
        <ele>170</ele>
        <time>2017-12-15T11:06:45Z</time>
      </trkpt>
      <trkpt lat="46.07158" lon="4.76705">
        <ele>170</ele>
        <time>2017-12-15T11:06:46Z</time>
      </trkpt>
      <trkpt lat="46.07155" lon="4.76712">
        <ele>170</ele>
        <time>2017-12-15T11:06:47Z</time>
      </trkpt>
      <trkpt lat="46.07151" lon="4.76718">
        <ele>170</ele>
        <time>2017-12-15T11:06:48Z</time>
      </trkpt>
      <trkpt lat="46.07146" lon="4.76725">
        <ele>170</ele>
        <time>2017-12-15T11:06:49Z</time>
      </trkpt>
      <trkpt lat="46.07143" lon="4.7673">
        <ele>170</ele>
        <time>2017-12-15T11:06:50Z</time>
      </trkpt>
      <trkpt lat="46.0714" lon="4.76737">
        <ele>171</ele>
        <time>2017-12-15T11:06:51Z</time>
      </trkpt>
      <trkpt lat="46.07136" lon="4.76743">
        <ele>171</ele>
        <time>2017-12-15T11:06:52Z</time>
      </trkpt>
      <trkpt lat="46.07134" lon="4.76749">
        <ele>171</ele>
        <time>2017-12-15T11:06:53Z</time>
      </trkpt>
      <trkpt lat="46.0713" lon="4.76755">
        <ele>171</ele>
        <time>2017-12-15T11:06:54Z</time>
      </trkpt>
      <trkpt lat="46.07127" lon="4.76762">
        <ele>171</ele>
        <time>2017-12-15T11:06:55Z</time>
      </trkpt>
      <trkpt lat="46.07124" lon="4.76768">
        <ele>171</ele>
        <time>2017-12-15T11:06:56Z</time>
      </trkpt>
      <trkpt lat="46.07121" lon="4.76774">
        <ele>171</ele>
        <time>2017-12-15T11:06:57Z</time>
      </trkpt>
      <trkpt lat="46.07118" lon="4.76781">
        <ele>171</ele>
        <time>2017-12-15T11:06:58Z</time>
      </trkpt>
      <trkpt lat="46.07114" lon="4.76787">
        <ele>171</ele>
        <time>2017-12-15T11:06:59Z</time>
      </trkpt>
      <trkpt lat="46.07111" lon="4.76792">
        <ele>172</ele>
        <time>2017-12-15T11:07:00Z</time>
      </trkpt>
      <trkpt lat="46.07108" lon="4.76799">
        <ele>172</ele>
        <time>2017-12-15T11:07:01Z</time>
      </trkpt>
      <trkpt lat="46.07105" lon="4.76806">
        <ele>172</ele>
        <time>2017-12-15T11:07:02Z</time>
      </trkpt>
      <trkpt lat="46.07102" lon="4.76812">
        <ele>172</ele>
        <time>2017-12-15T11:07:03Z</time>
      </trkpt>
      <trkpt lat="46.07099" lon="4.76818">
        <ele>172</ele>
        <time>2017-12-15T11:07:04Z</time>
      </trkpt>
      <trkpt lat="46.07096" lon="4.76824">
        <ele>172</ele>
        <time>2017-12-15T11:07:05Z</time>
      </trkpt>
      <trkpt lat="46.07093" lon="4.76831">
        <ele>172</ele>
        <time>2017-12-15T11:07:06Z</time>
      </trkpt>
      <trkpt lat="46.0709" lon="4.76838">
        <ele>172</ele>
        <time>2017-12-15T11:07:07Z</time>
      </trkpt>
      <trkpt lat="46.07087" lon="4.76844">
        <ele>172</ele>
        <time>2017-12-15T11:07:08Z</time>
      </trkpt>
      <trkpt lat="46.07084" lon="4.76851">
        <ele>172</ele>
        <time>2017-12-15T11:07:09Z</time>
      </trkpt>
      <trkpt lat="46.07081" lon="4.76856">
        <ele>172</ele>
        <time>2017-12-15T11:07:10Z</time>
      </trkpt>
      <trkpt lat="46.07078" lon="4.76862">
        <ele>172</ele>
        <time>2017-12-15T11:07:11Z</time>
      </trkpt>
      <trkpt lat="46.07075" lon="4.76868">
        <ele>172</ele>
        <time>2017-12-15T11:07:12Z</time>
      </trkpt>
      <trkpt lat="46.07072" lon="4.76874">
        <ele>172</ele>
        <time>2017-12-15T11:07:13Z</time>
      </trkpt>
      <trkpt lat="46.07069" lon="4.76881">
        <ele>172</ele>
        <time>2017-12-15T11:07:14Z</time>
      </trkpt>
      <trkpt lat="46.07066" lon="4.76887">
        <ele>172</ele>
        <time>2017-12-15T11:07:15Z</time>
      </trkpt>
      <trkpt lat="46.07061" lon="4.76893">
        <ele>172</ele>
        <time>2017-12-15T11:07:16Z</time>
      </trkpt>
      <trkpt lat="46.07058" lon="4.769">
        <ele>172</ele>
        <time>2017-12-15T11:07:17Z</time>
      </trkpt>
      <trkpt lat="46.07055" lon="4.76908">
        <ele>172</ele>
        <time>2017-12-15T11:07:18Z</time>
      </trkpt>
      <trkpt lat="46.07052" lon="4.76914">
        <ele>172</ele>
        <time>2017-12-15T11:07:19Z</time>
      </trkpt>
      <trkpt lat="46.07049" lon="4.7692">
        <ele>173</ele>
        <time>2017-12-15T11:07:20Z</time>
      </trkpt>
      <trkpt lat="46.07046" lon="4.76926">
        <ele>173</ele>
        <time>2017-12-15T11:07:21Z</time>
      </trkpt>
      <trkpt lat="46.07043" lon="4.76933">
        <ele>173</ele>
        <time>2017-12-15T11:07:22Z</time>
      </trkpt>
      <trkpt lat="46.0704" lon="4.7694">
        <ele>173</ele>
        <time>2017-12-15T11:07:23Z</time>
      </trkpt>
      <trkpt lat="46.07037" lon="4.76946">
        <ele>173</ele>
        <time>2017-12-15T11:07:24Z</time>
      </trkpt>
      <trkpt lat="46.07034" lon="4.76953">
        <ele>173</ele>
        <time>2017-12-15T11:07:25Z</time>
      </trkpt>
      <trkpt lat="46.07031" lon="4.76959">
        <ele>173</ele>
        <time>2017-12-15T11:07:26Z</time>
      </trkpt>
      <trkpt lat="46.07029" lon="4.76966">
        <ele>173</ele>
        <time>2017-12-15T11:07:27Z</time>
      </trkpt>
      <trkpt lat="46.07024" lon="4.76977">
        <ele>173</ele>
        <time>2017-12-15T11:07:29Z</time>
      </trkpt>
      <trkpt lat="46.07022" lon="4.76982">
        <ele>173</ele>
        <time>2017-12-15T11:07:30Z</time>
      </trkpt>
      <trkpt lat="46.07015" lon="4.76989">
        <ele>173</ele>
        <time>2017-12-15T11:07:32Z</time>
      </trkpt>
      <trkpt lat="46.07013" lon="4.76994">
        <ele>173</ele>
        <time>2017-12-15T11:07:33Z</time>
      </trkpt>
      <trkpt lat="46.07008" lon="4.77003">
        <ele>173</ele>
        <time>2017-12-15T11:07:35Z</time>
      </trkpt>
      <trkpt lat="46.07005" lon="4.77009">
        <ele>173</ele>
        <time>2017-12-15T11:07:36Z</time>
      </trkpt>
      <trkpt lat="46.07001" lon="4.7702">
        <ele>174</ele>
        <time>2017-12-15T11:07:38Z</time>
      </trkpt>
      <trkpt lat="46.06999" lon="4.77025">
        <ele>173</ele>
        <time>2017-12-15T11:07:39Z</time>
      </trkpt>
      <trkpt lat="46.06994" lon="4.77034">
        <ele>173</ele>
        <time>2017-12-15T11:07:41Z</time>
      </trkpt>
      <trkpt lat="46.06991" lon="4.77039">
        <ele>173</ele>
        <time>2017-12-15T11:07:42Z</time>
      </trkpt>
      <trkpt lat="46.06986" lon="4.77047">
        <ele>173</ele>
        <time>2017-12-15T11:07:44Z</time>
      </trkpt>
      <trkpt lat="46.06983" lon="4.77052">
        <ele>173</ele>
        <time>2017-12-15T11:07:45Z</time>
      </trkpt>
      <trkpt lat="46.06979" lon="4.7706">
        <ele>173</ele>
        <time>2017-12-15T11:07:47Z</time>
      </trkpt>
      <trkpt lat="46.06976" lon="4.77065">
        <ele>173</ele>
        <time>2017-12-15T11:07:48Z</time>
      </trkpt>
      <trkpt lat="46.06969" lon="4.7707">
        <ele>173</ele>
        <time>2017-12-15T11:07:50Z</time>
      </trkpt>
      <trkpt lat="46.06962" lon="4.77068">
        <ele>173</ele>
        <time>2017-12-15T11:07:51Z</time>
      </trkpt>
      <trkpt lat="46.06958" lon="4.77068">
        <ele>173</ele>
        <time>2017-12-15T11:07:52Z</time>
      </trkpt>
      <trkpt lat="46.06952" lon="4.77066">
        <ele>173</ele>
        <time>2017-12-15T11:07:53Z</time>
      </trkpt>
      <trkpt lat="46.06947" lon="4.77068">
        <ele>173</ele>
        <time>2017-12-15T11:07:54Z</time>
      </trkpt>
      <trkpt lat="46.06941" lon="4.77068">
        <ele>173</ele>
        <time>2017-12-15T11:07:55Z</time>
      </trkpt>
      <trkpt lat="46.06935" lon="4.77068">
        <ele>173</ele>
        <time>2017-12-15T11:07:56Z</time>
      </trkpt>
      <trkpt lat="46.0693" lon="4.77069">
        <ele>173</ele>
        <time>2017-12-15T11:07:57Z</time>
      </trkpt>
      <trkpt lat="46.06925" lon="4.77069">
        <ele>173</ele>
        <time>2017-12-15T11:07:58Z</time>
      </trkpt>
      <trkpt lat="46.0692" lon="4.77069">
        <ele>173</ele>
        <time>2017-12-15T11:07:59Z</time>
      </trkpt>
      <trkpt lat="46.06915" lon="4.77069">
        <ele>173</ele>
        <time>2017-12-15T11:08:00Z</time>
      </trkpt>
      <trkpt lat="46.0691" lon="4.77069">
        <ele>173</ele>
        <time>2017-12-15T11:08:01Z</time>
      </trkpt>
      <trkpt lat="46.06905" lon="4.77068">
        <ele>173</ele>
        <time>2017-12-15T11:08:02Z</time>
      </trkpt>
      <trkpt lat="46.069" lon="4.77068">
        <ele>173</ele>
        <time>2017-12-15T11:08:03Z</time>
      </trkpt>
      <trkpt lat="46.06895" lon="4.77068">
        <ele>173</ele>
        <time>2017-12-15T11:08:04Z</time>
      </trkpt>
      <trkpt lat="46.06889" lon="4.77067">
        <ele>173</ele>
        <time>2017-12-15T11:08:05Z</time>
      </trkpt>
      <trkpt lat="46.06885" lon="4.77068">
        <ele>173</ele>
        <time>2017-12-15T11:08:06Z</time>
      </trkpt>
      <trkpt lat="46.0688" lon="4.77069">
        <ele>173</ele>
        <time>2017-12-15T11:08:07Z</time>
      </trkpt>
      <trkpt lat="46.06875" lon="4.77071">
        <ele>173</ele>
        <time>2017-12-15T11:08:08Z</time>
      </trkpt>
      <trkpt lat="46.0687" lon="4.77071">
        <ele>173</ele>
        <time>2017-12-15T11:08:09Z</time>
      </trkpt>
      <trkpt lat="46.06864" lon="4.77071">
        <ele>173</ele>
        <time>2017-12-15T11:08:10Z</time>
      </trkpt>
      <trkpt lat="46.06859" lon="4.77072">
        <ele>173</ele>
        <time>2017-12-15T11:08:11Z</time>
      </trkpt>
      <trkpt lat="46.06855" lon="4.77074">
        <ele>173</ele>
        <time>2017-12-15T11:08:12Z</time>
      </trkpt>
      <trkpt lat="46.0685" lon="4.77077">
        <ele>173</ele>
        <time>2017-12-15T11:08:13Z</time>
      </trkpt>
      <trkpt lat="46.06845" lon="4.77079">
        <ele>173</ele>
        <time>2017-12-15T11:08:14Z</time>
      </trkpt>
      <trkpt lat="46.06841" lon="4.77083">
        <ele>173</ele>
        <time>2017-12-15T11:08:15Z</time>
      </trkpt>
      <trkpt lat="46.06836" lon="4.77086">
        <ele>173</ele>
        <time>2017-12-15T11:08:16Z</time>
      </trkpt>
      <trkpt lat="46.06832" lon="4.77089">
        <ele>173</ele>
        <time>2017-12-15T11:08:17Z</time>
      </trkpt>
      <trkpt lat="46.06827" lon="4.77092">
        <ele>173</ele>
        <time>2017-12-15T11:08:18Z</time>
      </trkpt>
      <trkpt lat="46.06823" lon="4.77095">
        <ele>173</ele>
        <time>2017-12-15T11:08:19Z</time>
      </trkpt>
      <trkpt lat="46.06818" lon="4.77098">
        <ele>173</ele>
        <time>2017-12-15T11:08:20Z</time>
      </trkpt>
      <trkpt lat="46.06815" lon="4.77101">
        <ele>172</ele>
        <time>2017-12-15T11:08:21Z</time>
      </trkpt>
      <trkpt lat="46.06811" lon="4.77104">
        <ele>172</ele>
        <time>2017-12-15T11:08:22Z</time>
      </trkpt>
      <trkpt lat="46.06807" lon="4.77108">
        <ele>172</ele>
        <time>2017-12-15T11:08:23Z</time>
      </trkpt>
      <trkpt lat="46.068" lon="4.77115">
        <ele>172</ele>
        <time>2017-12-15T11:08:25Z</time>
      </trkpt>
      <trkpt lat="46.06796" lon="4.77119">
        <ele>172</ele>
        <time>2017-12-15T11:08:26Z</time>
      </trkpt>
      <trkpt lat="46.06792" lon="4.77122">
        <ele>172</ele>
        <time>2017-12-15T11:08:27Z</time>
      </trkpt>
      <trkpt lat="46.06787" lon="4.77125">
        <ele>172</ele>
        <time>2017-12-15T11:08:28Z</time>
      </trkpt>
      <trkpt lat="46.06783" lon="4.77129">
        <ele>172</ele>
        <time>2017-12-15T11:08:29Z</time>
      </trkpt>
      <trkpt lat="46.06779" lon="4.77134">
        <ele>172</ele>
        <time>2017-12-15T11:08:30Z</time>
      </trkpt>
      <trkpt lat="46.06775" lon="4.77137">
        <ele>172</ele>
        <time>2017-12-15T11:08:31Z</time>
      </trkpt>
      <trkpt lat="46.06772" lon="4.77142">
        <ele>172</ele>
        <time>2017-12-15T11:08:32Z</time>
      </trkpt>
      <trkpt lat="46.06767" lon="4.77148">
        <ele>172</ele>
        <time>2017-12-15T11:08:33Z</time>
      </trkpt>
      <trkpt lat="46.06764" lon="4.77153">
        <ele>172</ele>
        <time>2017-12-15T11:08:34Z</time>
      </trkpt>
      <trkpt lat="46.0676" lon="4.77159">
        <ele>172</ele>
        <time>2017-12-15T11:08:35Z</time>
      </trkpt>
      <trkpt lat="46.06755" lon="4.77162">
        <ele>172</ele>
        <time>2017-12-15T11:08:36Z</time>
      </trkpt>
      <trkpt lat="46.0675" lon="4.77166">
        <ele>172</ele>
        <time>2017-12-15T11:08:37Z</time>
      </trkpt>
      <trkpt lat="46.06746" lon="4.77169">
        <ele>172</ele>
        <time>2017-12-15T11:08:38Z</time>
      </trkpt>
      <trkpt lat="46.06741" lon="4.77173">
        <ele>172</ele>
        <time>2017-12-15T11:08:39Z</time>
      </trkpt>
      <trkpt lat="46.06737" lon="4.77177">
        <ele>172</ele>
        <time>2017-12-15T11:08:40Z</time>
      </trkpt>
      <trkpt lat="46.06732" lon="4.77181">
        <ele>172</ele>
        <time>2017-12-15T11:08:41Z</time>
      </trkpt>
      <trkpt lat="46.06727" lon="4.77183">
        <ele>172</ele>
        <time>2017-12-15T11:08:42Z</time>
      </trkpt>
      <trkpt lat="46.06719" lon="4.77188">
        <ele>172</ele>
        <time>2017-12-15T11:08:44Z</time>
      </trkpt>
      <trkpt lat="46.06715" lon="4.77191">
        <ele>172</ele>
        <time>2017-12-15T11:08:45Z</time>
      </trkpt>
      <trkpt lat="46.0671" lon="4.77193">
        <ele>172</ele>
        <time>2017-12-15T11:08:46Z</time>
      </trkpt>
      <trkpt lat="46.06705" lon="4.77194">
        <ele>172</ele>
        <time>2017-12-15T11:08:47Z</time>
      </trkpt>
      <trkpt lat="46.067" lon="4.77195">
        <ele>172</ele>
        <time>2017-12-15T11:08:48Z</time>
      </trkpt>
      <trkpt lat="46.06695" lon="4.77196">
        <ele>172</ele>
        <time>2017-12-15T11:08:49Z</time>
      </trkpt>
      <trkpt lat="46.06691" lon="4.77197">
        <ele>172</ele>
        <time>2017-12-15T11:08:50Z</time>
      </trkpt>
      <trkpt lat="46.06686" lon="4.772">
        <ele>172</ele>
        <time>2017-12-15T11:08:51Z</time>
      </trkpt>
      <trkpt lat="46.06683" lon="4.77204">
        <ele>172</ele>
        <time>2017-12-15T11:08:52Z</time>
      </trkpt>
      <trkpt lat="46.06681" lon="4.77211">
        <ele>172</ele>
        <time>2017-12-15T11:08:53Z</time>
      </trkpt>
      <trkpt lat="46.0668" lon="4.77218">
        <ele>172</ele>
        <time>2017-12-15T11:08:54Z</time>
      </trkpt>
      <trkpt lat="46.06679" lon="4.77225">
        <ele>172</ele>
        <time>2017-12-15T11:08:55Z</time>
      </trkpt>
      <trkpt lat="46.06679" lon="4.77232">
        <ele>172</ele>
        <time>2017-12-15T11:08:56Z</time>
      </trkpt>
      <trkpt lat="46.06678" lon="4.77239">
        <ele>173</ele>
        <time>2017-12-15T11:08:57Z</time>
      </trkpt>
      <trkpt lat="46.06676" lon="4.77248">
        <ele>173</ele>
        <time>2017-12-15T11:08:58Z</time>
      </trkpt>
      <trkpt lat="46.06674" lon="4.77254">
        <ele>173</ele>
        <time>2017-12-15T11:08:59Z</time>
      </trkpt>
      <trkpt lat="46.0667" lon="4.77265">
        <ele>173</ele>
        <time>2017-12-15T11:09:01Z</time>
      </trkpt>
      <trkpt lat="46.06669" lon="4.7727">
        <ele>173</ele>
        <time>2017-12-15T11:09:02Z</time>
      </trkpt>
      <trkpt lat="46.06666" lon="4.77276">
        <ele>174</ele>
        <time>2017-12-15T11:09:03Z</time>
      </trkpt>
      <trkpt lat="46.06664" lon="4.7728">
        <ele>174</ele>
        <time>2017-12-15T11:09:04Z</time>
      </trkpt>
      <trkpt lat="46.06659" lon="4.77291">
        <ele>174</ele>
        <time>2017-12-15T11:09:06Z</time>
      </trkpt>
      <trkpt lat="46.06657" lon="4.77296">
        <ele>174</ele>
        <time>2017-12-15T11:09:07Z</time>
      </trkpt>
      <trkpt lat="46.06653" lon="4.77305">
        <ele>174</ele>
        <time>2017-12-15T11:09:09Z</time>
      </trkpt>
      <trkpt lat="46.0665" lon="4.77312">
        <ele>174</ele>
        <time>2017-12-15T11:09:10Z</time>
      </trkpt>
      <trkpt lat="46.06646" lon="4.77324">
        <ele>174</ele>
        <time>2017-12-15T11:09:12Z</time>
      </trkpt>
      <trkpt lat="46.06643" lon="4.7733">
        <ele>174</ele>
        <time>2017-12-15T11:09:13Z</time>
      </trkpt>
      <trkpt lat="46.06641" lon="4.77335">
        <ele>175</ele>
        <time>2017-12-15T11:09:14Z</time>
      </trkpt>
      <trkpt lat="46.06639" lon="4.77341">
        <ele>175</ele>
        <time>2017-12-15T11:09:15Z</time>
      </trkpt>
      <trkpt lat="46.06637" lon="4.77347">
        <ele>176</ele>
        <time>2017-12-15T11:09:16Z</time>
      </trkpt>
      <trkpt lat="46.06635" lon="4.77354">
        <ele>176</ele>
        <time>2017-12-15T11:09:17Z</time>
      </trkpt>
      <trkpt lat="46.0663" lon="4.77364">
        <ele>176</ele>
        <time>2017-12-15T11:09:19Z</time>
      </trkpt>
      <trkpt lat="46.06628" lon="4.77368">
        <ele>176</ele>
        <time>2017-12-15T11:09:20Z</time>
      </trkpt>
      <trkpt lat="46.06623" lon="4.77379">
        <ele>176</ele>
        <time>2017-12-15T11:09:22Z</time>
      </trkpt>
      <trkpt lat="46.06622" lon="4.77383">
        <ele>176</ele>
        <time>2017-12-15T11:09:23Z</time>
      </trkpt>
      <trkpt lat="46.06618" lon="4.77392">
        <ele>177</ele>
        <time>2017-12-15T11:09:25Z</time>
      </trkpt>
      <trkpt lat="46.06616" lon="4.77397">
        <ele>177</ele>
        <time>2017-12-15T11:09:26Z</time>
      </trkpt>
      <trkpt lat="46.06614" lon="4.77405">
        <ele>177</ele>
        <time>2017-12-15T11:09:28Z</time>
      </trkpt>
      <trkpt lat="46.06612" lon="4.77411">
        <ele>177</ele>
        <time>2017-12-15T11:09:29Z</time>
      </trkpt>
      <trkpt lat="46.06607" lon="4.77416">
        <ele>177</ele>
        <time>2017-12-15T11:09:30Z</time>
      </trkpt>
      <trkpt lat="46.06606" lon="4.77422">
        <ele>179</ele>
        <time>2017-12-15T11:09:31Z</time>
      </trkpt>
      <trkpt lat="46.06599" lon="4.7743">
        <ele>179</ele>
        <time>2017-12-15T11:09:33Z</time>
      </trkpt>
      <trkpt lat="46.06598" lon="4.77436">
        <ele>179</ele>
        <time>2017-12-15T11:09:34Z</time>
      </trkpt>
      <trkpt lat="46.06596" lon="4.77447">
        <ele>180</ele>
        <time>2017-12-15T11:09:36Z</time>
      </trkpt>
      <trkpt lat="46.06596" lon="4.77453">
        <ele>180</ele>
        <time>2017-12-15T11:09:37Z</time>
      </trkpt>
      <trkpt lat="46.06598" lon="4.77466">
        <ele>180</ele>
        <time>2017-12-15T11:09:39Z</time>
      </trkpt>
      <trkpt lat="46.06599" lon="4.77471">
        <ele>181</ele>
        <time>2017-12-15T11:09:40Z</time>
      </trkpt>
      <trkpt lat="46.06604" lon="4.77481">
        <ele>181</ele>
        <time>2017-12-15T11:09:42Z</time>
      </trkpt>
      <trkpt lat="46.06606" lon="4.77486">
        <ele>181</ele>
        <time>2017-12-15T11:09:43Z</time>
      </trkpt>
      <trkpt lat="46.06611" lon="4.77494">
        <ele>181</ele>
        <time>2017-12-15T11:09:45Z</time>
      </trkpt>
      <trkpt lat="46.06614" lon="4.77499">
        <ele>181</ele>
        <time>2017-12-15T11:09:46Z</time>
      </trkpt>
      <trkpt lat="46.06619" lon="4.77508">
        <ele>183</ele>
        <time>2017-12-15T11:09:48Z</time>
      </trkpt>
      <trkpt lat="46.06621" lon="4.77512">
        <ele>183</ele>
        <time>2017-12-15T11:09:49Z</time>
      </trkpt>
      <trkpt lat="46.06625" lon="4.77521">
        <ele>182</ele>
        <time>2017-12-15T11:09:51Z</time>
      </trkpt>
      <trkpt lat="46.06626" lon="4.77526">
        <ele>182</ele>
        <time>2017-12-15T11:09:52Z</time>
      </trkpt>
      <trkpt lat="46.06629" lon="4.77536">
        <ele>183</ele>
        <time>2017-12-15T11:09:54Z</time>
      </trkpt>
      <trkpt lat="46.0663" lon="4.7754">
        <ele>183</ele>
        <time>2017-12-15T11:09:55Z</time>
      </trkpt>
      <trkpt lat="46.06632" lon="4.77551">
        <ele>183</ele>
        <time>2017-12-15T11:09:57Z</time>
      </trkpt>
      <trkpt lat="46.06633" lon="4.77555">
        <ele>183</ele>
        <time>2017-12-15T11:09:58Z</time>
      </trkpt>
      <trkpt lat="46.06634" lon="4.77565">
        <ele>183</ele>
        <time>2017-12-15T11:10:00Z</time>
      </trkpt>
      <trkpt lat="46.06633" lon="4.7757">
        <ele>183</ele>
        <time>2017-12-15T11:10:01Z</time>
      </trkpt>
      <trkpt lat="46.06632" lon="4.7758">
        <ele>183</ele>
        <time>2017-12-15T11:10:03Z</time>
      </trkpt>
      <trkpt lat="46.06632" lon="4.77586">
        <ele>184</ele>
        <time>2017-12-15T11:10:04Z</time>
      </trkpt>
      <trkpt lat="46.06632" lon="4.77596">
        <ele>185</ele>
        <time>2017-12-15T11:10:06Z</time>
      </trkpt>
      <trkpt lat="46.06632" lon="4.77601">
        <ele>185</ele>
        <time>2017-12-15T11:10:07Z</time>
      </trkpt>
      <trkpt lat="46.06631" lon="4.77611">
        <ele>185</ele>
        <time>2017-12-15T11:10:09Z</time>
      </trkpt>
      <trkpt lat="46.0663" lon="4.77616">
        <ele>185</ele>
        <time>2017-12-15T11:10:10Z</time>
      </trkpt>
      <trkpt lat="46.06629" lon="4.77626">
        <ele>185</ele>
        <time>2017-12-15T11:10:12Z</time>
      </trkpt>
      <trkpt lat="46.06628" lon="4.77631">
        <ele>185</ele>
        <time>2017-12-15T11:10:13Z</time>
      </trkpt>
      <trkpt lat="46.06626" lon="4.77641">
        <ele>185</ele>
        <time>2017-12-15T11:10:15Z</time>
      </trkpt>
      <trkpt lat="46.06625" lon="4.77646">
        <ele>185</ele>
        <time>2017-12-15T11:10:16Z</time>
      </trkpt>
      <trkpt lat="46.06623" lon="4.77655">
        <ele>185</ele>
        <time>2017-12-15T11:10:18Z</time>
      </trkpt>
      <trkpt lat="46.06621" lon="4.7766">
        <ele>185</ele>
        <time>2017-12-15T11:10:19Z</time>
      </trkpt>
      <trkpt lat="46.06616" lon="4.77667">
        <ele>187</ele>
        <time>2017-12-15T11:10:21Z</time>
      </trkpt>
      <trkpt lat="46.06613" lon="4.77671">
        <ele>187</ele>
        <time>2017-12-15T11:10:22Z</time>
      </trkpt>
      <trkpt lat="46.06607" lon="4.77676">
        <ele>187</ele>
        <time>2017-12-15T11:10:24Z</time>
      </trkpt>
      <trkpt lat="46.06604" lon="4.77679">
        <ele>187</ele>
        <time>2017-12-15T11:10:25Z</time>
      </trkpt>
      <trkpt lat="46.06597" lon="4.77683">
        <ele>187</ele>
        <time>2017-12-15T11:10:27Z</time>
      </trkpt>
      <trkpt lat="46.06594" lon="4.77684">
        <ele>187</ele>
        <time>2017-12-15T11:10:28Z</time>
      </trkpt>
      <trkpt lat="46.06587" lon="4.77688">
        <ele>187</ele>
        <time>2017-12-15T11:10:30Z</time>
      </trkpt>
      <trkpt lat="46.06584" lon="4.77689">
        <ele>187</ele>
        <time>2017-12-15T11:10:31Z</time>
      </trkpt>
      <trkpt lat="46.06578" lon="4.77694">
        <ele>188</ele>
        <time>2017-12-15T11:10:33Z</time>
      </trkpt>
      <trkpt lat="46.06575" lon="4.77697">
        <ele>188</ele>
        <time>2017-12-15T11:10:34Z</time>
      </trkpt>
      <trkpt lat="46.0657" lon="4.77702">
        <ele>189</ele>
        <time>2017-12-15T11:10:36Z</time>
      </trkpt>
      <trkpt lat="46.06566" lon="4.77705">
        <ele>189</ele>
        <time>2017-12-15T11:10:37Z</time>
      </trkpt>
      <trkpt lat="46.0656" lon="4.77712">
        <ele>189</ele>
        <time>2017-12-15T11:10:39Z</time>
      </trkpt>
      <trkpt lat="46.06557" lon="4.77717">
        <ele>189</ele>
        <time>2017-12-15T11:10:40Z</time>
      </trkpt>
      <trkpt lat="46.06551" lon="4.77726">
        <ele>189</ele>
        <time>2017-12-15T11:10:42Z</time>
      </trkpt>
      <trkpt lat="46.06548" lon="4.7773">
        <ele>189</ele>
        <time>2017-12-15T11:10:43Z</time>
      </trkpt>
      <trkpt lat="46.06543" lon="4.7774">
        <ele>190</ele>
        <time>2017-12-15T11:10:45Z</time>
      </trkpt>
      <trkpt lat="46.0654" lon="4.77744">
        <ele>190</ele>
        <time>2017-12-15T11:10:46Z</time>
      </trkpt>
      <trkpt lat="46.06536" lon="4.77751">
        <ele>191</ele>
        <time>2017-12-15T11:10:48Z</time>
      </trkpt>
      <trkpt lat="46.06534" lon="4.77755">
        <ele>191</ele>
        <time>2017-12-15T11:10:49Z</time>
      </trkpt>
      <trkpt lat="46.06528" lon="4.77765">
        <ele>192</ele>
        <time>2017-12-15T11:10:51Z</time>
      </trkpt>
      <trkpt lat="46.06525" lon="4.77769">
        <ele>192</ele>
        <time>2017-12-15T11:10:52Z</time>
      </trkpt>
      <trkpt lat="46.0652" lon="4.77778">
        <ele>192</ele>
        <time>2017-12-15T11:10:54Z</time>
      </trkpt>
      <trkpt lat="46.06518" lon="4.77782">
        <ele>192</ele>
        <time>2017-12-15T11:10:55Z</time>
      </trkpt>
      <trkpt lat="46.06513" lon="4.77791">
        <ele>192</ele>
        <time>2017-12-15T11:10:57Z</time>
      </trkpt>
      <trkpt lat="46.06511" lon="4.77795">
        <ele>192</ele>
        <time>2017-12-15T11:10:58Z</time>
      </trkpt>
      <trkpt lat="46.06507" lon="4.77804">
        <ele>192</ele>
        <time>2017-12-15T11:11:00Z</time>
      </trkpt>
      <trkpt lat="46.06505" lon="4.77809">
        <ele>192</ele>
        <time>2017-12-15T11:11:01Z</time>
      </trkpt>
      <trkpt lat="46.06501" lon="4.77817">
        <ele>192</ele>
        <time>2017-12-15T11:11:03Z</time>
      </trkpt>
      <trkpt lat="46.06499" lon="4.77822">
        <ele>192</ele>
        <time>2017-12-15T11:11:04Z</time>
      </trkpt>
      <trkpt lat="46.06496" lon="4.77832">
        <ele>192</ele>
        <time>2017-12-15T11:11:06Z</time>
      </trkpt>
      <trkpt lat="46.06494" lon="4.77836">
        <ele>192</ele>
        <time>2017-12-15T11:11:07Z</time>
      </trkpt>
      <trkpt lat="46.0649" lon="4.77845">
        <ele>192</ele>
        <time>2017-12-15T11:11:09Z</time>
      </trkpt>
      <trkpt lat="46.06488" lon="4.77849">
        <ele>192</ele>
        <time>2017-12-15T11:11:10Z</time>
      </trkpt>
      <trkpt lat="46.06485" lon="4.77859">
        <ele>192</ele>
        <time>2017-12-15T11:11:12Z</time>
      </trkpt>
      <trkpt lat="46.06483" lon="4.77864">
        <ele>192</ele>
        <time>2017-12-15T11:11:13Z</time>
      </trkpt>
      <trkpt lat="46.06479" lon="4.77873">
        <ele>193</ele>
        <time>2017-12-15T11:11:15Z</time>
      </trkpt>
      <trkpt lat="46.06478" lon="4.77878">
        <ele>193</ele>
        <time>2017-12-15T11:11:16Z</time>
      </trkpt>
      <trkpt lat="46.06474" lon="4.77887">
        <ele>193</ele>
        <time>2017-12-15T11:11:18Z</time>
      </trkpt>
      <trkpt lat="46.06473" lon="4.77892">
        <ele>193</ele>
        <time>2017-12-15T11:11:19Z</time>
      </trkpt>
      <trkpt lat="46.0647" lon="4.77902">
        <ele>193</ele>
        <time>2017-12-15T11:11:21Z</time>
      </trkpt>
      <trkpt lat="46.06468" lon="4.77906">
        <ele>193</ele>
        <time>2017-12-15T11:11:22Z</time>
      </trkpt>
      <trkpt lat="46.06465" lon="4.77915">
        <ele>193</ele>
        <time>2017-12-15T11:11:24Z</time>
      </trkpt>
      <trkpt lat="46.06463" lon="4.77919">
        <ele>194</ele>
        <time>2017-12-15T11:11:25Z</time>
      </trkpt>
      <trkpt lat="46.06461" lon="4.77928">
        <ele>195</ele>
        <time>2017-12-15T11:11:27Z</time>
      </trkpt>
      <trkpt lat="46.0646" lon="4.77932">
        <ele>195</ele>
        <time>2017-12-15T11:11:28Z</time>
      </trkpt>
      <trkpt lat="46.06457" lon="4.77941">
        <ele>195</ele>
        <time>2017-12-15T11:11:30Z</time>
      </trkpt>
      <trkpt lat="46.06456" lon="4.77946">
        <ele>195</ele>
        <time>2017-12-15T11:11:31Z</time>
      </trkpt>
      <trkpt lat="46.06455" lon="4.77955">
        <ele>195</ele>
        <time>2017-12-15T11:11:33Z</time>
      </trkpt>
      <trkpt lat="46.06454" lon="4.77959">
        <ele>195</ele>
        <time>2017-12-15T11:11:34Z</time>
      </trkpt>
      <trkpt lat="46.06452" lon="4.77968">
        <ele>195</ele>
        <time>2017-12-15T11:11:36Z</time>
      </trkpt>
      <trkpt lat="46.06451" lon="4.77973">
        <ele>195</ele>
        <time>2017-12-15T11:11:37Z</time>
      </trkpt>
      <trkpt lat="46.06449" lon="4.77981">
        <ele>195</ele>
        <time>2017-12-15T11:11:39Z</time>
      </trkpt>
      <trkpt lat="46.06448" lon="4.77986">
        <ele>195</ele>
        <time>2017-12-15T11:11:40Z</time>
      </trkpt>
      <trkpt lat="46.06446" lon="4.77994">
        <ele>195</ele>
        <time>2017-12-15T11:11:42Z</time>
      </trkpt>
      <trkpt lat="46.06445" lon="4.77999">
        <ele>195</ele>
        <time>2017-12-15T11:11:43Z</time>
      </trkpt>
      <trkpt lat="46.06442" lon="4.78007">
        <ele>197</ele>
        <time>2017-12-15T11:11:45Z</time>
      </trkpt>
      <trkpt lat="46.06441" lon="4.78011">
        <ele>197</ele>
        <time>2017-12-15T11:11:46Z</time>
      </trkpt>
      <trkpt lat="46.06437" lon="4.7802">
        <ele>198</ele>
        <time>2017-12-15T11:11:48Z</time>
      </trkpt>
      <trkpt lat="46.06435" lon="4.78024">
        <ele>198</ele>
        <time>2017-12-15T11:11:49Z</time>
      </trkpt>
      <trkpt lat="46.06432" lon="4.78031">
        <ele>198</ele>
        <time>2017-12-15T11:11:51Z</time>
      </trkpt>
      <trkpt lat="46.0643" lon="4.78035">
        <ele>198</ele>
        <time>2017-12-15T11:11:52Z</time>
      </trkpt>
      <trkpt lat="46.06424" lon="4.7804">
        <ele>198</ele>
        <time>2017-12-15T11:11:54Z</time>
      </trkpt>
      <trkpt lat="46.06422" lon="4.78043">
        <ele>198</ele>
        <time>2017-12-15T11:11:55Z</time>
      </trkpt>
      <trkpt lat="46.06416" lon="4.7805">
        <ele>197</ele>
        <time>2017-12-15T11:11:57Z</time>
      </trkpt>
      <trkpt lat="46.06414" lon="4.78054">
        <ele>198</ele>
        <time>2017-12-15T11:11:58Z</time>
      </trkpt>
      <trkpt lat="46.06408" lon="4.78061">
        <ele>198</ele>
        <time>2017-12-15T11:12:00Z</time>
      </trkpt>
      <trkpt lat="46.06406" lon="4.78066">
        <ele>198</ele>
        <time>2017-12-15T11:12:01Z</time>
      </trkpt>
      <trkpt lat="46.064" lon="4.78076">
        <ele>198</ele>
        <time>2017-12-15T11:12:03Z</time>
      </trkpt>
      <trkpt lat="46.06398" lon="4.78081">
        <ele>198</ele>
        <time>2017-12-15T11:12:04Z</time>
      </trkpt>
      <trkpt lat="46.06395" lon="4.78092">
        <ele>200</ele>
        <time>2017-12-15T11:12:06Z</time>
      </trkpt>
      <trkpt lat="46.06394" lon="4.78098">
        <ele>200</ele>
        <time>2017-12-15T11:12:07Z</time>
      </trkpt>
      <trkpt lat="46.06392" lon="4.7811">
        <ele>200</ele>
        <time>2017-12-15T11:12:09Z</time>
      </trkpt>
      <trkpt lat="46.06392" lon="4.78116">
        <ele>200</ele>
        <time>2017-12-15T11:12:10Z</time>
      </trkpt>
      <trkpt lat="46.06392" lon="4.78128">
        <ele>201</ele>
        <time>2017-12-15T11:12:12Z</time>
      </trkpt>
      <trkpt lat="46.06391" lon="4.78134">
        <ele>201</ele>
        <time>2017-12-15T11:12:13Z</time>
      </trkpt>
      <trkpt lat="46.06391" lon="4.78145">
        <ele>201</ele>
        <time>2017-12-15T11:12:15Z</time>
      </trkpt>
      <trkpt lat="46.06391" lon="4.78151">
        <ele>201</ele>
        <time>2017-12-15T11:12:16Z</time>
      </trkpt>
      <trkpt lat="46.06391" lon="4.78163">
        <ele>202</ele>
        <time>2017-12-15T11:12:18Z</time>
      </trkpt>
      <trkpt lat="46.06391" lon="4.78168">
        <ele>204</ele>
        <time>2017-12-15T11:12:19Z</time>
      </trkpt>
      <trkpt lat="46.0639" lon="4.78179">
        <ele>204</ele>
        <time>2017-12-15T11:12:21Z</time>
      </trkpt>
      <trkpt lat="46.0639" lon="4.78184">
        <ele>204</ele>
        <time>2017-12-15T11:12:22Z</time>
      </trkpt>
      <trkpt lat="46.06388" lon="4.78193">
        <ele>204</ele>
        <time>2017-12-15T11:12:24Z</time>
      </trkpt>
      <trkpt lat="46.06386" lon="4.78198">
        <ele>204</ele>
        <time>2017-12-15T11:12:25Z</time>
      </trkpt>
      <trkpt lat="46.06383" lon="4.78206">
        <ele>204</ele>
        <time>2017-12-15T11:12:27Z</time>
      </trkpt>
      <trkpt lat="46.0638" lon="4.7821">
        <ele>204</ele>
        <time>2017-12-15T11:12:28Z</time>
      </trkpt>
      <trkpt lat="46.06375" lon="4.78217">
        <ele>204</ele>
        <time>2017-12-15T11:12:30Z</time>
      </trkpt>
      <trkpt lat="46.06372" lon="4.7822">
        <ele>204</ele>
        <time>2017-12-15T11:12:31Z</time>
      </trkpt>
      <trkpt lat="46.06365" lon="4.78226">
        <ele>205</ele>
        <time>2017-12-15T11:12:33Z</time>
      </trkpt>
      <trkpt lat="46.06362" lon="4.78229">
        <ele>205</ele>
        <time>2017-12-15T11:12:34Z</time>
      </trkpt>
      <trkpt lat="46.06356" lon="4.78235">
        <ele>205</ele>
        <time>2017-12-15T11:12:36Z</time>
      </trkpt>
      <trkpt lat="46.06353" lon="4.78238">
        <ele>205</ele>
        <time>2017-12-15T11:12:37Z</time>
      </trkpt>
      <trkpt lat="46.06346" lon="4.78242">
        <ele>205</ele>
        <time>2017-12-15T11:12:39Z</time>
      </trkpt>
      <trkpt lat="46.06343" lon="4.78243">
        <ele>205</ele>
        <time>2017-12-15T11:12:40Z</time>
      </trkpt>
      <trkpt lat="46.06334" lon="4.78242">
        <ele>205</ele>
        <time>2017-12-15T11:12:42Z</time>
      </trkpt>
      <trkpt lat="46.0633" lon="4.7824">
        <ele>206</ele>
        <time>2017-12-15T11:12:43Z</time>
      </trkpt>
      <trkpt lat="46.06322" lon="4.78237">
        <ele>206</ele>
        <time>2017-12-15T11:12:45Z</time>
      </trkpt>
      <trkpt lat="46.06319" lon="4.78235">
        <ele>206</ele>
        <time>2017-12-15T11:12:46Z</time>
      </trkpt>
      <trkpt lat="46.06313" lon="4.78229">
        <ele>205</ele>
        <time>2017-12-15T11:12:48Z</time>
      </trkpt>
      <trkpt lat="46.0631" lon="4.78226">
        <ele>205</ele>
        <time>2017-12-15T11:12:49Z</time>
      </trkpt>
      <trkpt lat="46.06303" lon="4.78221">
        <ele>205</ele>
        <time>2017-12-15T11:12:51Z</time>
      </trkpt>
      <trkpt lat="46.06299" lon="4.78218">
        <ele>205</ele>
        <time>2017-12-15T11:12:52Z</time>
      </trkpt>
      <trkpt lat="46.06291" lon="4.78213">
        <ele>205</ele>
        <time>2017-12-15T11:12:54Z</time>
      </trkpt>
      <trkpt lat="46.06288" lon="4.7821">
        <ele>205</ele>
        <time>2017-12-15T11:12:55Z</time>
      </trkpt>
      <trkpt lat="46.06281" lon="4.78205">
        <ele>205</ele>
        <time>2017-12-15T11:12:57Z</time>
      </trkpt>
      <trkpt lat="46.06277" lon="4.78201">
        <ele>205</ele>
        <time>2017-12-15T11:12:58Z</time>
      </trkpt>
      <trkpt lat="46.0627" lon="4.78194">
        <ele>205</ele>
        <time>2017-12-15T11:13:00Z</time>
      </trkpt>
      <trkpt lat="46.06267" lon="4.7819">
        <ele>205</ele>
        <time>2017-12-15T11:13:01Z</time>
      </trkpt>
      <trkpt lat="46.06259" lon="4.78185">
        <ele>205</ele>
        <time>2017-12-15T11:13:03Z</time>
      </trkpt>
      <trkpt lat="46.06254" lon="4.78183">
        <ele>205</ele>
        <time>2017-12-15T11:13:04Z</time>
      </trkpt>
      <trkpt lat="46.06247" lon="4.78178">
        <ele>206</ele>
        <time>2017-12-15T11:13:06Z</time>
      </trkpt>
      <trkpt lat="46.06245" lon="4.78177">
        <ele>206</ele>
        <time>2017-12-15T11:13:07Z</time>
      </trkpt>
      <trkpt lat="46.06239" lon="4.78174">
        <ele>206</ele>
        <time>2017-12-15T11:13:08Z</time>
      </trkpt>
      <trkpt lat="46.06236" lon="4.78172">
        <ele>206</ele>
        <time>2017-12-15T11:13:09Z</time>
      </trkpt>
      <trkpt lat="46.06231" lon="4.7817">
        <ele>206</ele>
        <time>2017-12-15T11:13:10Z</time>
      </trkpt>
      <trkpt lat="46.06227" lon="4.78168">
        <ele>206</ele>
        <time>2017-12-15T11:13:11Z</time>
      </trkpt>
      <trkpt lat="46.06222" lon="4.78166">
        <ele>205</ele>
        <time>2017-12-15T11:13:12Z</time>
      </trkpt>
      <trkpt lat="46.06217" lon="4.78164">
        <ele>205</ele>
        <time>2017-12-15T11:13:13Z</time>
      </trkpt>
      <trkpt lat="46.06213" lon="4.78162">
        <ele>205</ele>
        <time>2017-12-15T11:13:14Z</time>
      </trkpt>
      <trkpt lat="46.06207" lon="4.78159">
        <ele>205</ele>
        <time>2017-12-15T11:13:15Z</time>
      </trkpt>
      <trkpt lat="46.06199" lon="4.78155">
        <ele>205</ele>
        <time>2017-12-15T11:13:17Z</time>
      </trkpt>
      <trkpt lat="46.06196" lon="4.78152">
        <ele>205</ele>
        <time>2017-12-15T11:13:18Z</time>
      </trkpt>
      <trkpt lat="46.06191" lon="4.78149">
        <ele>206</ele>
        <time>2017-12-15T11:13:19Z</time>
      </trkpt>
      <trkpt lat="46.06186" lon="4.78147">
        <ele>206</ele>
        <time>2017-12-15T11:13:20Z</time>
      </trkpt>
      <trkpt lat="46.06183" lon="4.78144">
        <ele>206</ele>
        <time>2017-12-15T11:13:21Z</time>
      </trkpt>
      <trkpt lat="46.06178" lon="4.7814">
        <ele>206</ele>
        <time>2017-12-15T11:13:22Z</time>
      </trkpt>
      <trkpt lat="46.06172" lon="4.78136">
        <ele>206</ele>
        <time>2017-12-15T11:13:24Z</time>
      </trkpt>
      <trkpt lat="46.06169" lon="4.78134">
        <ele>206</ele>
        <time>2017-12-15T11:13:25Z</time>
      </trkpt>
      <trkpt lat="46.06161" lon="4.78128">
        <ele>208</ele>
        <time>2017-12-15T11:13:27Z</time>
      </trkpt>
      <trkpt lat="46.06158" lon="4.78124">
        <ele>208</ele>
        <time>2017-12-15T11:13:28Z</time>
      </trkpt>
      <trkpt lat="46.06151" lon="4.78122">
        <ele>208</ele>
        <time>2017-12-15T11:13:30Z</time>
      </trkpt>
      <trkpt lat="46.06148" lon="4.78119">
        <ele>208</ele>
        <time>2017-12-15T11:13:31Z</time>
      </trkpt>
      <trkpt lat="46.06141" lon="4.78114">
        <ele>208</ele>
        <time>2017-12-15T11:13:33Z</time>
      </trkpt>
      <trkpt lat="46.06137" lon="4.7811">
        <ele>208</ele>
        <time>2017-12-15T11:13:34Z</time>
      </trkpt>
      <trkpt lat="46.06131" lon="4.78103">
        <ele>209</ele>
        <time>2017-12-15T11:13:36Z</time>
      </trkpt>
      <trkpt lat="46.06128" lon="4.78099">
        <ele>209</ele>
        <time>2017-12-15T11:13:37Z</time>
      </trkpt>
      <trkpt lat="46.06122" lon="4.78091">
        <ele>209</ele>
        <time>2017-12-15T11:13:39Z</time>
      </trkpt>
      <trkpt lat="46.06119" lon="4.78087">
        <ele>209</ele>
        <time>2017-12-15T11:13:40Z</time>
      </trkpt>
      <trkpt lat="46.06113" lon="4.7808">
        <ele>210</ele>
        <time>2017-12-15T11:13:42Z</time>
      </trkpt>
      <trkpt lat="46.0611" lon="4.78077">
        <ele>210</ele>
        <time>2017-12-15T11:13:43Z</time>
      </trkpt>
      <trkpt lat="46.06104" lon="4.78069">
        <ele>210</ele>
        <time>2017-12-15T11:13:45Z</time>
      </trkpt>
      <trkpt lat="46.06101" lon="4.78065">
        <ele>210</ele>
        <time>2017-12-15T11:13:46Z</time>
      </trkpt>
      <trkpt lat="46.06096" lon="4.78056">
        <ele>210</ele>
        <time>2017-12-15T11:13:48Z</time>
      </trkpt>
      <trkpt lat="46.06091" lon="4.78054">
        <ele>210</ele>
        <time>2017-12-15T11:13:49Z</time>
      </trkpt>
      <trkpt lat="46.06088" lon="4.78051">
        <ele>210</ele>
        <time>2017-12-15T11:13:50Z</time>
      </trkpt>
      <trkpt lat="46.06083" lon="4.78048">
        <ele>211</ele>
        <time>2017-12-15T11:13:51Z</time>
      </trkpt>
      <trkpt lat="46.06079" lon="4.78044">
        <ele>211</ele>
        <time>2017-12-15T11:13:52Z</time>
      </trkpt>
      <trkpt lat="46.06075" lon="4.7804">
        <ele>211</ele>
        <time>2017-12-15T11:13:53Z</time>
      </trkpt>
      <trkpt lat="46.06069" lon="4.78033">
        <ele>211</ele>
        <time>2017-12-15T11:13:55Z</time>
      </trkpt>
      <trkpt lat="46.06066" lon="4.7803">
        <ele>211</ele>
        <time>2017-12-15T11:13:56Z</time>
      </trkpt>
      <trkpt lat="46.06058" lon="4.78024">
        <ele>211</ele>
        <time>2017-12-15T11:13:58Z</time>
      </trkpt>
      <trkpt lat="46.06055" lon="4.7802">
        <ele>211</ele>
        <time>2017-12-15T11:13:59Z</time>
      </trkpt>
      <trkpt lat="46.06051" lon="4.78015">
        <ele>211</ele>
        <time>2017-12-15T11:14:00Z</time>
      </trkpt>
      <trkpt lat="46.06048" lon="4.78011">
        <ele>211</ele>
        <time>2017-12-15T11:14:01Z</time>
      </trkpt>
      <trkpt lat="46.06045" lon="4.78006">
        <ele>211</ele>
        <time>2017-12-15T11:14:02Z</time>
      </trkpt>
      <trkpt lat="46.06042" lon="4.78001">
        <ele>211</ele>
        <time>2017-12-15T11:14:03Z</time>
      </trkpt>
      <trkpt lat="46.06038" lon="4.77996">
        <ele>211</ele>
        <time>2017-12-15T11:14:04Z</time>
      </trkpt>
      <trkpt lat="46.06034" lon="4.7799">
        <ele>211</ele>
        <time>2017-12-15T11:14:05Z</time>
      </trkpt>
      <trkpt lat="46.06031" lon="4.77986">
        <ele>211</ele>
        <time>2017-12-15T11:14:06Z</time>
      </trkpt>
      <trkpt lat="46.06028" lon="4.77981">
        <ele>211</ele>
        <time>2017-12-15T11:14:07Z</time>
      </trkpt>
      <trkpt lat="46.06025" lon="4.77978">
        <ele>211</ele>
        <time>2017-12-15T11:14:08Z</time>
      </trkpt>
      <trkpt lat="46.0602" lon="4.77975">
        <ele>211</ele>
        <time>2017-12-15T11:14:09Z</time>
      </trkpt>
      <trkpt lat="46.06016" lon="4.77971">
        <ele>211</ele>
        <time>2017-12-15T11:14:10Z</time>
      </trkpt>
      <trkpt lat="46.06012" lon="4.77968">
        <ele>211</ele>
        <time>2017-12-15T11:14:11Z</time>
      </trkpt>
      <trkpt lat="46.06004" lon="4.77962">
        <ele>211</ele>
        <time>2017-12-15T11:14:13Z</time>
      </trkpt>
      <trkpt lat="46.06001" lon="4.77958">
        <ele>211</ele>
        <time>2017-12-15T11:14:14Z</time>
      </trkpt>
      <trkpt lat="46.05996" lon="4.77948">
        <ele>212</ele>
        <time>2017-12-15T11:14:16Z</time>
      </trkpt>
      <trkpt lat="46.05994" lon="4.77944">
        <ele>212</ele>
        <time>2017-12-15T11:14:17Z</time>
      </trkpt>
      <trkpt lat="46.0599" lon="4.77933">
        <ele>212</ele>
        <time>2017-12-15T11:14:19Z</time>
      </trkpt>
      <trkpt lat="46.05989" lon="4.77928">
        <ele>212</ele>
        <time>2017-12-15T11:14:20Z</time>
      </trkpt>
      <trkpt lat="46.05987" lon="4.77922">
        <ele>212</ele>
        <time>2017-12-15T11:14:21Z</time>
      </trkpt>
      <trkpt lat="46.05987" lon="4.77915">
        <ele>211</ele>
        <time>2017-12-15T11:14:22Z</time>
      </trkpt>
      <trkpt lat="46.05984" lon="4.77904">
        <ele>211</ele>
        <time>2017-12-15T11:14:24Z</time>
      </trkpt>
      <trkpt lat="46.05981" lon="4.77899">
        <ele>211</ele>
        <time>2017-12-15T11:14:25Z</time>
      </trkpt>
      <trkpt lat="46.05975" lon="4.7789">
        <ele>211</ele>
        <time>2017-12-15T11:14:27Z</time>
      </trkpt>
      <trkpt lat="46.05972" lon="4.77885">
        <ele>211</ele>
        <time>2017-12-15T11:14:28Z</time>
      </trkpt>
      <trkpt lat="46.05968" lon="4.77874">
        <ele>211</ele>
        <time>2017-12-15T11:14:30Z</time>
      </trkpt>
      <trkpt lat="46.05965" lon="4.77869">
        <ele>211</ele>
        <time>2017-12-15T11:14:31Z</time>
      </trkpt>
      <trkpt lat="46.05963" lon="4.77864">
        <ele>211</ele>
        <time>2017-12-15T11:14:32Z</time>
      </trkpt>
      <trkpt lat="46.0596" lon="4.77857">
        <ele>211</ele>
        <time>2017-12-15T11:14:33Z</time>
      </trkpt>
      <trkpt lat="46.05956" lon="4.77852">
        <ele>211</ele>
        <time>2017-12-15T11:14:34Z</time>
      </trkpt>
      <trkpt lat="46.05953" lon="4.77846">
        <ele>211</ele>
        <time>2017-12-15T11:14:35Z</time>
      </trkpt>
      <trkpt lat="46.05947" lon="4.77837">
        <ele>211</ele>
        <time>2017-12-15T11:14:37Z</time>
      </trkpt>
      <trkpt lat="46.05942" lon="4.77832">
        <ele>210</ele>
        <time>2017-12-15T11:14:38Z</time>
      </trkpt>
      <trkpt lat="46.05938" lon="4.77829">
        <ele>210</ele>
        <time>2017-12-15T11:14:39Z</time>
      </trkpt>
      <trkpt lat="46.05934" lon="4.77826">
        <ele>210</ele>
        <time>2017-12-15T11:14:40Z</time>
      </trkpt>
      <trkpt lat="46.0593" lon="4.77822">
        <ele>210</ele>
        <time>2017-12-15T11:14:41Z</time>
      </trkpt>
      <trkpt lat="46.05927" lon="4.77816">
        <ele>210</ele>
        <time>2017-12-15T11:14:42Z</time>
      </trkpt>
      <trkpt lat="46.05923" lon="4.77806">
        <ele>210</ele>
        <time>2017-12-15T11:14:44Z</time>
      </trkpt>
      <trkpt lat="46.05921" lon="4.77799">
        <ele>210</ele>
        <time>2017-12-15T11:14:45Z</time>
      </trkpt>
      <trkpt lat="46.05915" lon="4.7779">
        <ele>210</ele>
        <time>2017-12-15T11:14:47Z</time>
      </trkpt>
      <trkpt lat="46.05911" lon="4.77785">
        <ele>210</ele>
        <time>2017-12-15T11:14:48Z</time>
      </trkpt>
      <trkpt lat="46.05909" lon="4.7778">
        <ele>210</ele>
        <time>2017-12-15T11:14:49Z</time>
      </trkpt>
      <trkpt lat="46.05906" lon="4.77774">
        <ele>210</ele>
        <time>2017-12-15T11:14:50Z</time>
      </trkpt>
      <trkpt lat="46.05903" lon="4.77763">
        <ele>209</ele>
        <time>2017-12-15T11:14:52Z</time>
      </trkpt>
      <trkpt lat="46.05901" lon="4.77755">
        <ele>209</ele>
        <time>2017-12-15T11:14:53Z</time>
      </trkpt>
      <trkpt lat="46.05899" lon="4.77747">
        <ele>209</ele>
        <time>2017-12-15T11:14:54Z</time>
      </trkpt>
      <trkpt lat="46.05897" lon="4.77739">
        <ele>209</ele>
        <time>2017-12-15T11:14:55Z</time>
      </trkpt>
      <trkpt lat="46.05896" lon="4.7773">
        <ele>209</ele>
        <time>2017-12-15T11:14:56Z</time>
      </trkpt>
      <trkpt lat="46.05895" lon="4.77723">
        <ele>209</ele>
        <time>2017-12-15T11:14:57Z</time>
      </trkpt>
      <trkpt lat="46.05894" lon="4.77715">
        <ele>208</ele>
        <time>2017-12-15T11:14:58Z</time>
      </trkpt>
      <trkpt lat="46.05892" lon="4.77708">
        <ele>208</ele>
        <time>2017-12-15T11:14:59Z</time>
      </trkpt>
      <trkpt lat="46.05891" lon="4.777">
        <ele>208</ele>
        <time>2017-12-15T11:15:00Z</time>
      </trkpt>
      <trkpt lat="46.0589" lon="4.77692">
        <ele>208</ele>
        <time>2017-12-15T11:15:01Z</time>
      </trkpt>
      <trkpt lat="46.05888" lon="4.77685">
        <ele>208</ele>
        <time>2017-12-15T11:15:02Z</time>
      </trkpt>
      <trkpt lat="46.05885" lon="4.77679">
        <ele>208</ele>
        <time>2017-12-15T11:15:03Z</time>
      </trkpt>
      <trkpt lat="46.05883" lon="4.77673">
        <ele>208</ele>
        <time>2017-12-15T11:15:04Z</time>
      </trkpt>
      <trkpt lat="46.05881" lon="4.77667">
        <ele>208</ele>
        <time>2017-12-15T11:15:05Z</time>
      </trkpt>
      <trkpt lat="46.05878" lon="4.77661">
        <ele>208</ele>
        <time>2017-12-15T11:15:06Z</time>
      </trkpt>
      <trkpt lat="46.05874" lon="4.77657">
        <ele>208</ele>
        <time>2017-12-15T11:15:07Z</time>
      </trkpt>
      <trkpt lat="46.05871" lon="4.77651">
        <ele>208</ele>
        <time>2017-12-15T11:15:08Z</time>
      </trkpt>
      <trkpt lat="46.05867" lon="4.77648">
        <ele>208</ele>
        <time>2017-12-15T11:15:09Z</time>
      </trkpt>
      <trkpt lat="46.05863" lon="4.77644">
        <ele>208</ele>
        <time>2017-12-15T11:15:10Z</time>
      </trkpt>
      <trkpt lat="46.05859" lon="4.77639">
        <ele>208</ele>
        <time>2017-12-15T11:15:11Z</time>
      </trkpt>
      <trkpt lat="46.05856" lon="4.77634">
        <ele>208</ele>
        <time>2017-12-15T11:15:12Z</time>
      </trkpt>
      <trkpt lat="46.05852" lon="4.77629">
        <ele>208</ele>
        <time>2017-12-15T11:15:13Z</time>
      </trkpt>
      <trkpt lat="46.05847" lon="4.77625">
        <ele>208</ele>
        <time>2017-12-15T11:15:14Z</time>
      </trkpt>
      <trkpt lat="46.05843" lon="4.77621">
        <ele>208</ele>
        <time>2017-12-15T11:15:15Z</time>
      </trkpt>
      <trkpt lat="46.05839" lon="4.77616">
        <ele>208</ele>
        <time>2017-12-15T11:15:16Z</time>
      </trkpt>
      <trkpt lat="46.05835" lon="4.7761">
        <ele>208</ele>
        <time>2017-12-15T11:15:17Z</time>
      </trkpt>
      <trkpt lat="46.0583" lon="4.77605">
        <ele>208</ele>
        <time>2017-12-15T11:15:18Z</time>
      </trkpt>
      <trkpt lat="46.05825" lon="4.776">
        <ele>208</ele>
        <time>2017-12-15T11:15:19Z</time>
      </trkpt>
      <trkpt lat="46.05821" lon="4.77594">
        <ele>208</ele>
        <time>2017-12-15T11:15:20Z</time>
      </trkpt>
      <trkpt lat="46.05817" lon="4.7759">
        <ele>208</ele>
        <time>2017-12-15T11:15:21Z</time>
      </trkpt>
      <trkpt lat="46.05812" lon="4.77585">
        <ele>208</ele>
        <time>2017-12-15T11:15:22Z</time>
      </trkpt>
      <trkpt lat="46.05809" lon="4.77582">
        <ele>208</ele>
        <time>2017-12-15T11:15:23Z</time>
      </trkpt>
      <trkpt lat="46.05805" lon="4.77578">
        <ele>208</ele>
        <time>2017-12-15T11:15:24Z</time>
      </trkpt>
      <trkpt lat="46.05801" lon="4.77574">
        <ele>208</ele>
        <time>2017-12-15T11:15:25Z</time>
      </trkpt>
      <trkpt lat="46.05794" lon="4.77565">
        <ele>208</ele>
        <time>2017-12-15T11:15:27Z</time>
      </trkpt>
      <trkpt lat="46.05791" lon="4.77562">
        <ele>208</ele>
        <time>2017-12-15T11:15:28Z</time>
      </trkpt>
      <trkpt lat="46.05784" lon="4.77553">
        <ele>208</ele>
        <time>2017-12-15T11:15:30Z</time>
      </trkpt>
      <trkpt lat="46.05781" lon="4.77549">
        <ele>208</ele>
        <time>2017-12-15T11:15:31Z</time>
      </trkpt>
      <trkpt lat="46.05778" lon="4.77545">
        <ele>208</ele>
        <time>2017-12-15T11:15:32Z</time>
      </trkpt>
      <trkpt lat="46.05775" lon="4.77539">
        <ele>208</ele>
        <time>2017-12-15T11:15:33Z</time>
      </trkpt>
      <trkpt lat="46.05771" lon="4.77534">
        <ele>208</ele>
        <time>2017-12-15T11:15:34Z</time>
      </trkpt>
      <trkpt lat="46.05769" lon="4.77529">
        <ele>208</ele>
        <time>2017-12-15T11:15:35Z</time>
      </trkpt>
      <trkpt lat="46.05766" lon="4.77524">
        <ele>208</ele>
        <time>2017-12-15T11:15:36Z</time>
      </trkpt>
      <trkpt lat="46.05763" lon="4.77517">
        <ele>208</ele>
        <time>2017-12-15T11:15:37Z</time>
      </trkpt>
      <trkpt lat="46.05759" lon="4.77512">
        <ele>208</ele>
        <time>2017-12-15T11:15:38Z</time>
      </trkpt>
      <trkpt lat="46.05756" lon="4.77506">
        <ele>208</ele>
        <time>2017-12-15T11:15:39Z</time>
      </trkpt>
      <trkpt lat="46.0575" lon="4.77497">
        <ele>208</ele>
        <time>2017-12-15T11:15:41Z</time>
      </trkpt>
      <trkpt lat="46.05746" lon="4.77494">
        <ele>208</ele>
        <time>2017-12-15T11:15:42Z</time>
      </trkpt>
      <trkpt lat="46.05741" lon="4.77486">
        <ele>207</ele>
        <time>2017-12-15T11:15:44Z</time>
      </trkpt>
      <trkpt lat="46.05738" lon="4.77483">
        <ele>207</ele>
        <time>2017-12-15T11:15:45Z</time>
      </trkpt>
      <trkpt lat="46.05734" lon="4.77478">
        <ele>207</ele>
        <time>2017-12-15T11:15:46Z</time>
      </trkpt>
      <trkpt lat="46.0573" lon="4.77474">
        <ele>207</ele>
        <time>2017-12-15T11:15:47Z</time>
      </trkpt>
      <trkpt lat="46.05723" lon="4.77467">
        <ele>207</ele>
        <time>2017-12-15T11:15:49Z</time>
      </trkpt>
      <trkpt lat="46.0572" lon="4.77462">
        <ele>207</ele>
        <time>2017-12-15T11:15:50Z</time>
      </trkpt>
      <trkpt lat="46.05714" lon="4.77458">
        <ele>207</ele>
        <time>2017-12-15T11:15:51Z</time>
      </trkpt>
      <trkpt lat="46.05709" lon="4.77455">
        <ele>207</ele>
        <time>2017-12-15T11:15:52Z</time>
      </trkpt>
      <trkpt lat="46.05705" lon="4.7745">
        <ele>207</ele>
        <time>2017-12-15T11:15:53Z</time>
      </trkpt>
      <trkpt lat="46.057" lon="4.77448">
        <ele>207</ele>
        <time>2017-12-15T11:15:54Z</time>
      </trkpt>
      <trkpt lat="46.05696" lon="4.77445">
        <ele>206</ele>
        <time>2017-12-15T11:15:55Z</time>
      </trkpt>
      <trkpt lat="46.05692" lon="4.77443">
        <ele>206</ele>
        <time>2017-12-15T11:15:56Z</time>
      </trkpt>
      <trkpt lat="46.05687" lon="4.77439">
        <ele>206</ele>
        <time>2017-12-15T11:15:57Z</time>
      </trkpt>
      <trkpt lat="46.05683" lon="4.77436">
        <ele>206</ele>
        <time>2017-12-15T11:15:58Z</time>
      </trkpt>
      <trkpt lat="46.05678" lon="4.77432">
        <ele>206</ele>
        <time>2017-12-15T11:15:59Z</time>
      </trkpt>
      <trkpt lat="46.05674" lon="4.77427">
        <ele>206</ele>
        <time>2017-12-15T11:16:00Z</time>
      </trkpt>
      <trkpt lat="46.05668" lon="4.77422">
        <ele>205</ele>
        <time>2017-12-15T11:16:01Z</time>
      </trkpt>
      <trkpt lat="46.05662" lon="4.77417">
        <ele>205</ele>
        <time>2017-12-15T11:16:02Z</time>
      </trkpt>
      <trkpt lat="46.05658" lon="4.77413">
        <ele>204</ele>
        <time>2017-12-15T11:16:03Z</time>
      </trkpt>
      <trkpt lat="46.05653" lon="4.77408">
        <ele>204</ele>
        <time>2017-12-15T11:16:04Z</time>
      </trkpt>
      <trkpt lat="46.05648" lon="4.77404">
        <ele>204</ele>
        <time>2017-12-15T11:16:05Z</time>
      </trkpt>
      <trkpt lat="46.05643" lon="4.77398">
        <ele>203</ele>
        <time>2017-12-15T11:16:06Z</time>
      </trkpt>
      <trkpt lat="46.05639" lon="4.77394">
        <ele>203</ele>
        <time>2017-12-15T11:16:07Z</time>
      </trkpt>
      <trkpt lat="46.05634" lon="4.77389">
        <ele>203</ele>
        <time>2017-12-15T11:16:08Z</time>
      </trkpt>
      <trkpt lat="46.05629" lon="4.77385">
        <ele>203</ele>
        <time>2017-12-15T11:16:09Z</time>
      </trkpt>
      <trkpt lat="46.05624" lon="4.7738">
        <ele>203</ele>
        <time>2017-12-15T11:16:10Z</time>
      </trkpt>
      <trkpt lat="46.0562" lon="4.77376">
        <ele>203</ele>
        <time>2017-12-15T11:16:11Z</time>
      </trkpt>
      <trkpt lat="46.05614" lon="4.77371">
        <ele>203</ele>
        <time>2017-12-15T11:16:12Z</time>
      </trkpt>
      <trkpt lat="46.0561" lon="4.77367">
        <ele>202</ele>
        <time>2017-12-15T11:16:13Z</time>
      </trkpt>
      <trkpt lat="46.05605" lon="4.77364">
        <ele>202</ele>
        <time>2017-12-15T11:16:14Z</time>
      </trkpt>
      <trkpt lat="46.056" lon="4.77361">
        <ele>202</ele>
        <time>2017-12-15T11:16:15Z</time>
      </trkpt>
      <trkpt lat="46.05594" lon="4.77357">
        <ele>202</ele>
        <time>2017-12-15T11:16:16Z</time>
      </trkpt>
      <trkpt lat="46.05588" lon="4.77353">
        <ele>202</ele>
        <time>2017-12-15T11:16:17Z</time>
      </trkpt>
      <trkpt lat="46.05583" lon="4.77349">
        <ele>201</ele>
        <time>2017-12-15T11:16:18Z</time>
      </trkpt>
      <trkpt lat="46.05577" lon="4.77346">
        <ele>201</ele>
        <time>2017-12-15T11:16:19Z</time>
      </trkpt>
      <trkpt lat="46.05573" lon="4.77341">
        <ele>201</ele>
        <time>2017-12-15T11:16:20Z</time>
      </trkpt>
      <trkpt lat="46.05568" lon="4.77338">
        <ele>201</ele>
        <time>2017-12-15T11:16:21Z</time>
      </trkpt>
      <trkpt lat="46.05562" lon="4.77335">
        <ele>201</ele>
        <time>2017-12-15T11:16:22Z</time>
      </trkpt>
      <trkpt lat="46.05557" lon="4.77331">
        <ele>200</ele>
        <time>2017-12-15T11:16:23Z</time>
      </trkpt>
      <trkpt lat="46.05551" lon="4.77328">
        <ele>200</ele>
        <time>2017-12-15T11:16:24Z</time>
      </trkpt>
      <trkpt lat="46.05547" lon="4.77325">
        <ele>200</ele>
        <time>2017-12-15T11:16:25Z</time>
      </trkpt>
      <trkpt lat="46.05542" lon="4.77321">
        <ele>200</ele>
        <time>2017-12-15T11:16:26Z</time>
      </trkpt>
      <trkpt lat="46.05538" lon="4.77317">
        <ele>200</ele>
        <time>2017-12-15T11:16:27Z</time>
      </trkpt>
      <trkpt lat="46.05533" lon="4.77315">
        <ele>200</ele>
        <time>2017-12-15T11:16:28Z</time>
      </trkpt>
      <trkpt lat="46.05527" lon="4.77312">
        <ele>200</ele>
        <time>2017-12-15T11:16:29Z</time>
      </trkpt>
      <trkpt lat="46.05522" lon="4.77308">
        <ele>200</ele>
        <time>2017-12-15T11:16:30Z</time>
      </trkpt>
      <trkpt lat="46.05517" lon="4.77305">
        <ele>200</ele>
        <time>2017-12-15T11:16:31Z</time>
      </trkpt>
      <trkpt lat="46.05513" lon="4.77304">
        <ele>200</ele>
        <time>2017-12-15T11:16:32Z</time>
      </trkpt>
      <trkpt lat="46.05509" lon="4.77299">
        <ele>200</ele>
        <time>2017-12-15T11:16:33Z</time>
      </trkpt>
      <trkpt lat="46.05505" lon="4.77297">
        <ele>200</ele>
        <time>2017-12-15T11:16:34Z</time>
      </trkpt>
      <trkpt lat="46.05501" lon="4.77294">
        <ele>200</ele>
        <time>2017-12-15T11:16:35Z</time>
      </trkpt>
      <trkpt lat="46.05496" lon="4.77291">
        <ele>201</ele>
        <time>2017-12-15T11:16:36Z</time>
      </trkpt>
      <trkpt lat="46.05491" lon="4.77288">
        <ele>201</ele>
        <time>2017-12-15T11:16:37Z</time>
      </trkpt>
      <trkpt lat="46.05486" lon="4.77284">
        <ele>201</ele>
        <time>2017-12-15T11:16:38Z</time>
      </trkpt>
      <trkpt lat="46.05481" lon="4.77282">
        <ele>201</ele>
        <time>2017-12-15T11:16:39Z</time>
      </trkpt>
      <trkpt lat="46.05476" lon="4.77279">
        <ele>201</ele>
        <time>2017-12-15T11:16:40Z</time>
      </trkpt>
      <trkpt lat="46.0547" lon="4.77276">
        <ele>201</ele>
        <time>2017-12-15T11:16:41Z</time>
      </trkpt>
      <trkpt lat="46.05465" lon="4.77274">
        <ele>201</ele>
        <time>2017-12-15T11:16:42Z</time>
      </trkpt>
      <trkpt lat="46.0546" lon="4.77271">
        <ele>201</ele>
        <time>2017-12-15T11:16:43Z</time>
      </trkpt>
      <trkpt lat="46.05455" lon="4.77269">
        <ele>201</ele>
        <time>2017-12-15T11:16:44Z</time>
      </trkpt>
      <trkpt lat="46.05449" lon="4.77267">
        <ele>201</ele>
        <time>2017-12-15T11:16:45Z</time>
      </trkpt>
      <trkpt lat="46.05445" lon="4.77264">
        <ele>201</ele>
        <time>2017-12-15T11:16:46Z</time>
      </trkpt>
      <trkpt lat="46.05439" lon="4.77263">
        <ele>201</ele>
        <time>2017-12-15T11:16:47Z</time>
      </trkpt>
      <trkpt lat="46.05434" lon="4.77261">
        <ele>201</ele>
        <time>2017-12-15T11:16:48Z</time>
      </trkpt>
      <trkpt lat="46.05428" lon="4.7726">
        <ele>201</ele>
        <time>2017-12-15T11:16:49Z</time>
      </trkpt>
      <trkpt lat="46.05423" lon="4.77258">
        <ele>201</ele>
        <time>2017-12-15T11:16:50Z</time>
      </trkpt>
      <trkpt lat="46.05417" lon="4.77257">
        <ele>201</ele>
        <time>2017-12-15T11:16:51Z</time>
      </trkpt>
      <trkpt lat="46.05411" lon="4.77254">
        <ele>202</ele>
        <time>2017-12-15T11:16:52Z</time>
      </trkpt>
      <trkpt lat="46.05405" lon="4.77252">
        <ele>202</ele>
        <time>2017-12-15T11:16:53Z</time>
      </trkpt>
      <trkpt lat="46.05401" lon="4.77249">
        <ele>202</ele>
        <time>2017-12-15T11:16:54Z</time>
      </trkpt>
      <trkpt lat="46.05396" lon="4.77245">
        <ele>202</ele>
        <time>2017-12-15T11:16:55Z</time>
      </trkpt>
      <trkpt lat="46.05392" lon="4.77243">
        <ele>202</ele>
        <time>2017-12-15T11:16:56Z</time>
      </trkpt>
      <trkpt lat="46.05384" lon="4.77239">
        <ele>202</ele>
        <time>2017-12-15T11:16:58Z</time>
      </trkpt>
      <trkpt lat="46.0538" lon="4.77235">
        <ele>203</ele>
        <time>2017-12-15T11:16:59Z</time>
      </trkpt>
      <trkpt lat="46.05375" lon="4.77233">
        <ele>203</ele>
        <time>2017-12-15T11:17:00Z</time>
      </trkpt>
      <trkpt lat="46.0537" lon="4.7723">
        <ele>203</ele>
        <time>2017-12-15T11:17:01Z</time>
      </trkpt>
      <trkpt lat="46.05365" lon="4.77227">
        <ele>203</ele>
        <time>2017-12-15T11:17:02Z</time>
      </trkpt>
      <trkpt lat="46.0536" lon="4.77225">
        <ele>203</ele>
        <time>2017-12-15T11:17:03Z</time>
      </trkpt>
      <trkpt lat="46.05355" lon="4.7722">
        <ele>203</ele>
        <time>2017-12-15T11:17:04Z</time>
      </trkpt>
      <trkpt lat="46.05351" lon="4.77218">
        <ele>203</ele>
        <time>2017-12-15T11:17:05Z</time>
      </trkpt>
      <trkpt lat="46.05346" lon="4.77215">
        <ele>203</ele>
        <time>2017-12-15T11:17:06Z</time>
      </trkpt>
      <trkpt lat="46.05341" lon="4.77214">
        <ele>203</ele>
        <time>2017-12-15T11:17:07Z</time>
      </trkpt>
      <trkpt lat="46.05334" lon="4.7721">
        <ele>203</ele>
        <time>2017-12-15T11:17:09Z</time>
      </trkpt>
      <trkpt lat="46.0533" lon="4.77207">
        <ele>205</ele>
        <time>2017-12-15T11:17:10Z</time>
      </trkpt>
      <trkpt lat="46.05324" lon="4.77205">
        <ele>205</ele>
        <time>2017-12-15T11:17:11Z</time>
      </trkpt>
      <trkpt lat="46.0532" lon="4.77202">
        <ele>205</ele>
        <time>2017-12-15T11:17:12Z</time>
      </trkpt>
      <trkpt lat="46.05313" lon="4.77195">
        <ele>205</ele>
        <time>2017-12-15T11:17:14Z</time>
      </trkpt>
      <trkpt lat="46.05308" lon="4.77192">
        <ele>205</ele>
        <time>2017-12-15T11:17:15Z</time>
      </trkpt>
      <trkpt lat="46.05304" lon="4.77185">
        <ele>205</ele>
        <time>2017-12-15T11:17:16Z</time>
      </trkpt>
      <trkpt lat="46.053" lon="4.7718">
        <ele>205</ele>
        <time>2017-12-15T11:17:17Z</time>
      </trkpt>
      <trkpt lat="46.05296" lon="4.77176">
        <ele>205</ele>
        <time>2017-12-15T11:17:18Z</time>
      </trkpt>
      <trkpt lat="46.05292" lon="4.77172">
        <ele>205</ele>
        <time>2017-12-15T11:17:19Z</time>
      </trkpt>
      <trkpt lat="46.05289" lon="4.77168">
        <ele>206</ele>
        <time>2017-12-15T11:17:20Z</time>
      </trkpt>
      <trkpt lat="46.05285" lon="4.77163">
        <ele>204</ele>
        <time>2017-12-15T11:17:21Z</time>
      </trkpt>
      <trkpt lat="46.05282" lon="4.77157">
        <ele>204</ele>
        <time>2017-12-15T11:17:22Z</time>
      </trkpt>
      <trkpt lat="46.05277" lon="4.77153">
        <ele>204</ele>
        <time>2017-12-15T11:17:23Z</time>
      </trkpt>
      <trkpt lat="46.05274" lon="4.77149">
        <ele>204</ele>
        <time>2017-12-15T11:17:24Z</time>
      </trkpt>
      <trkpt lat="46.05269" lon="4.77145">
        <ele>204</ele>
        <time>2017-12-15T11:17:25Z</time>
      </trkpt>
      <trkpt lat="46.05265" lon="4.77141">
        <ele>204</ele>
        <time>2017-12-15T11:17:26Z</time>
      </trkpt>
      <trkpt lat="46.05261" lon="4.77138">
        <ele>204</ele>
        <time>2017-12-15T11:17:27Z</time>
      </trkpt>
      <trkpt lat="46.05257" lon="4.77135">
        <ele>204</ele>
        <time>2017-12-15T11:17:28Z</time>
      </trkpt>
      <trkpt lat="46.05253" lon="4.7713">
        <ele>204</ele>
        <time>2017-12-15T11:17:29Z</time>
      </trkpt>
      <trkpt lat="46.05249" lon="4.77125">
        <ele>204</ele>
        <time>2017-12-15T11:17:30Z</time>
      </trkpt>
      <trkpt lat="46.05245" lon="4.77121">
        <ele>204</ele>
        <time>2017-12-15T11:17:31Z</time>
      </trkpt>
      <trkpt lat="46.05241" lon="4.77116">
        <ele>203</ele>
        <time>2017-12-15T11:17:32Z</time>
      </trkpt>
      <trkpt lat="46.05237" lon="4.77112">
        <ele>203</ele>
        <time>2017-12-15T11:17:33Z</time>
      </trkpt>
      <trkpt lat="46.05233" lon="4.77102">
        <ele>203</ele>
        <time>2017-12-15T11:17:34Z</time>
      </trkpt>
      <trkpt lat="46.0523" lon="4.77096">
        <ele>203</ele>
        <time>2017-12-15T11:17:35Z</time>
      </trkpt>
      <trkpt lat="46.05228" lon="4.77089">
        <ele>203</ele>
        <time>2017-12-15T11:17:36Z</time>
      </trkpt>
      <trkpt lat="46.05224" lon="4.77081">
        <ele>201</ele>
        <time>2017-12-15T11:17:37Z</time>
      </trkpt>
      <trkpt lat="46.05222" lon="4.77072">
        <ele>201</ele>
        <time>2017-12-15T11:17:38Z</time>
      </trkpt>
      <trkpt lat="46.0522" lon="4.77063">
        <ele>201</ele>
        <time>2017-12-15T11:17:39Z</time>
      </trkpt>
      <trkpt lat="46.05217" lon="4.77053">
        <ele>201</ele>
        <time>2017-12-15T11:17:40Z</time>
      </trkpt>
      <trkpt lat="46.05213" lon="4.77046">
        <ele>201</ele>
        <time>2017-12-15T11:17:41Z</time>
      </trkpt>
      <trkpt lat="46.0521" lon="4.77038">
        <ele>200</ele>
        <time>2017-12-15T11:17:42Z</time>
      </trkpt>
      <trkpt lat="46.05208" lon="4.7703">
        <ele>200</ele>
        <time>2017-12-15T11:17:43Z</time>
      </trkpt>
      <trkpt lat="46.05205" lon="4.77022">
        <ele>200</ele>
        <time>2017-12-15T11:17:44Z</time>
      </trkpt>
      <trkpt lat="46.05203" lon="4.77014">
        <ele>200</ele>
        <time>2017-12-15T11:17:45Z</time>
      </trkpt>
      <trkpt lat="46.052" lon="4.77005">
        <ele>200</ele>
        <time>2017-12-15T11:17:46Z</time>
      </trkpt>
      <trkpt lat="46.05199" lon="4.76996">
        <ele>198</ele>
        <time>2017-12-15T11:17:47Z</time>
      </trkpt>
      <trkpt lat="46.05196" lon="4.76988">
        <ele>198</ele>
        <time>2017-12-15T11:17:48Z</time>
      </trkpt>
      <trkpt lat="46.05193" lon="4.76978">
        <ele>198</ele>
        <time>2017-12-15T11:17:49Z</time>
      </trkpt>
      <trkpt lat="46.0519" lon="4.76969">
        <ele>198</ele>
        <time>2017-12-15T11:17:50Z</time>
      </trkpt>
      <trkpt lat="46.05187" lon="4.7696">
        <ele>198</ele>
        <time>2017-12-15T11:17:51Z</time>
      </trkpt>
      <trkpt lat="46.05184" lon="4.76952">
        <ele>197</ele>
        <time>2017-12-15T11:17:52Z</time>
      </trkpt>
      <trkpt lat="46.05178" lon="4.76943">
        <ele>197</ele>
        <time>2017-12-15T11:17:53Z</time>
      </trkpt>
      <trkpt lat="46.05173" lon="4.76934">
        <ele>197</ele>
        <time>2017-12-15T11:17:54Z</time>
      </trkpt>
      <trkpt lat="46.05169" lon="4.76926">
        <ele>197</ele>
        <time>2017-12-15T11:17:55Z</time>
      </trkpt>
      <trkpt lat="46.05163" lon="4.76916">
        <ele>196</ele>
        <time>2017-12-15T11:17:56Z</time>
      </trkpt>
      <trkpt lat="46.05157" lon="4.76906">
        <ele>195</ele>
        <time>2017-12-15T11:17:57Z</time>
      </trkpt>
      <trkpt lat="46.05153" lon="4.76897">
        <ele>195</ele>
        <time>2017-12-15T11:17:58Z</time>
      </trkpt>
      <trkpt lat="46.05149" lon="4.76888">
        <ele>195</ele>
        <time>2017-12-15T11:17:59Z</time>
      </trkpt>
      <trkpt lat="46.05144" lon="4.7688">
        <ele>195</ele>
        <time>2017-12-15T11:18:00Z</time>
      </trkpt>
      <trkpt lat="46.0514" lon="4.76873">
        <ele>195</ele>
        <time>2017-12-15T11:18:01Z</time>
      </trkpt>
      <trkpt lat="46.05136" lon="4.76867">
        <ele>195</ele>
        <time>2017-12-15T11:18:02Z</time>
      </trkpt>
      <trkpt lat="46.05132" lon="4.7686">
        <ele>195</ele>
        <time>2017-12-15T11:18:03Z</time>
      </trkpt>
      <trkpt lat="46.05128" lon="4.76853">
        <ele>195</ele>
        <time>2017-12-15T11:18:04Z</time>
      </trkpt>
      <trkpt lat="46.05125" lon="4.76846">
        <ele>195</ele>
        <time>2017-12-15T11:18:05Z</time>
      </trkpt>
      <trkpt lat="46.05122" lon="4.76837">
        <ele>195</ele>
        <time>2017-12-15T11:18:06Z</time>
      </trkpt>
      <trkpt lat="46.05119" lon="4.7683">
        <ele>194</ele>
        <time>2017-12-15T11:18:07Z</time>
      </trkpt>
      <trkpt lat="46.05116" lon="4.76823">
        <ele>194</ele>
        <time>2017-12-15T11:18:08Z</time>
      </trkpt>
      <trkpt lat="46.05113" lon="4.76816">
        <ele>194</ele>
        <time>2017-12-15T11:18:09Z</time>
      </trkpt>
      <trkpt lat="46.05112" lon="4.76808">
        <ele>194</ele>
        <time>2017-12-15T11:18:10Z</time>
      </trkpt>
      <trkpt lat="46.0511" lon="4.768">
        <ele>194</ele>
        <time>2017-12-15T11:18:11Z</time>
      </trkpt>
      <trkpt lat="46.05107" lon="4.76789">
        <ele>194</ele>
        <time>2017-12-15T11:18:13Z</time>
      </trkpt>
      <trkpt lat="46.05104" lon="4.76782">
        <ele>194</ele>
        <time>2017-12-15T11:18:14Z</time>
      </trkpt>
      <trkpt lat="46.05103" lon="4.76773">
        <ele>194</ele>
        <time>2017-12-15T11:18:15Z</time>
      </trkpt>
      <trkpt lat="46.05101" lon="4.76768">
        <ele>194</ele>
        <time>2017-12-15T11:18:16Z</time>
      </trkpt>
      <trkpt lat="46.051" lon="4.7676">
        <ele>194</ele>
        <time>2017-12-15T11:18:17Z</time>
      </trkpt>
      <trkpt lat="46.05098" lon="4.76752">
        <ele>194</ele>
        <time>2017-12-15T11:18:18Z</time>
      </trkpt>
      <trkpt lat="46.05096" lon="4.76745">
        <ele>193</ele>
        <time>2017-12-15T11:18:19Z</time>
      </trkpt>
      <trkpt lat="46.05095" lon="4.76738">
        <ele>193</ele>
        <time>2017-12-15T11:18:20Z</time>
      </trkpt>
      <trkpt lat="46.05093" lon="4.7673">
        <ele>193</ele>
        <time>2017-12-15T11:18:21Z</time>
      </trkpt>
      <trkpt lat="46.05093" lon="4.76721">
        <ele>193</ele>
        <time>2017-12-15T11:18:22Z</time>
      </trkpt>
      <trkpt lat="46.05092" lon="4.76714">
        <ele>193</ele>
        <time>2017-12-15T11:18:23Z</time>
      </trkpt>
      <trkpt lat="46.05092" lon="4.76706">
        <ele>193</ele>
        <time>2017-12-15T11:18:24Z</time>
      </trkpt>
      <trkpt lat="46.0509" lon="4.76698">
        <ele>193</ele>
        <time>2017-12-15T11:18:25Z</time>
      </trkpt>
      <trkpt lat="46.05089" lon="4.7669">
        <ele>193</ele>
        <time>2017-12-15T11:18:26Z</time>
      </trkpt>
      <trkpt lat="46.05087" lon="4.76683">
        <ele>193</ele>
        <time>2017-12-15T11:18:27Z</time>
      </trkpt>
      <trkpt lat="46.05086" lon="4.76675">
        <ele>193</ele>
        <time>2017-12-15T11:18:28Z</time>
      </trkpt>
      <trkpt lat="46.05085" lon="4.76667">
        <ele>193</ele>
        <time>2017-12-15T11:18:29Z</time>
      </trkpt>
      <trkpt lat="46.05084" lon="4.7666">
        <ele>192</ele>
        <time>2017-12-15T11:18:30Z</time>
      </trkpt>
      <trkpt lat="46.05084" lon="4.76653">
        <ele>192</ele>
        <time>2017-12-15T11:18:31Z</time>
      </trkpt>
      <trkpt lat="46.05084" lon="4.76643">
        <ele>191</ele>
        <time>2017-12-15T11:18:32Z</time>
      </trkpt>
      <trkpt lat="46.05081" lon="4.76632">
        <ele>192</ele>
        <time>2017-12-15T11:18:34Z</time>
      </trkpt>
      <trkpt lat="46.05081" lon="4.76625">
        <ele>192</ele>
        <time>2017-12-15T11:18:35Z</time>
      </trkpt>
      <trkpt lat="46.0508" lon="4.76614">
        <ele>191</ele>
        <time>2017-12-15T11:18:41Z</time>
      </trkpt>
      <trkpt lat="46.0508" lon="4.76612">
        <ele>191</ele>
        <time>2017-12-15T11:18:42Z</time>
      </trkpt>
      <trkpt lat="46.05074" lon="4.76605">
        <ele>191</ele>
        <time>2017-12-15T11:18:46Z</time>
      </trkpt>
      <trkpt lat="46.05072" lon="4.76604">
        <ele>191</ele>
        <time>2017-12-15T11:18:47Z</time>
      </trkpt>
      <trkpt lat="46.05066" lon="4.76598">
        <ele>191</ele>
        <time>2017-12-15T11:18:49Z</time>
      </trkpt>
      <trkpt lat="46.05062" lon="4.76595">
        <ele>191</ele>
        <time>2017-12-15T11:18:50Z</time>
      </trkpt>
      <trkpt lat="46.05055" lon="4.76589">
        <ele>191</ele>
        <time>2017-12-15T11:18:52Z</time>
      </trkpt>
      <trkpt lat="46.0505" lon="4.76587">
        <ele>191</ele>
        <time>2017-12-15T11:18:53Z</time>
      </trkpt>
      <trkpt lat="46.05043" lon="4.7658">
        <ele>190</ele>
        <time>2017-12-15T11:18:55Z</time>
      </trkpt>
      <trkpt lat="46.05039" lon="4.76577">
        <ele>190</ele>
        <time>2017-12-15T11:18:56Z</time>
      </trkpt>
      <trkpt lat="46.05035" lon="4.76574">
        <ele>190</ele>
        <time>2017-12-15T11:18:57Z</time>
      </trkpt>
      <trkpt lat="46.05031" lon="4.76572">
        <ele>190</ele>
        <time>2017-12-15T11:18:58Z</time>
      </trkpt>
      <trkpt lat="46.05024" lon="4.76565">
        <ele>190</ele>
        <time>2017-12-15T11:19:00Z</time>
      </trkpt>
      <trkpt lat="46.05021" lon="4.76561">
        <ele>190</ele>
        <time>2017-12-15T11:19:01Z</time>
      </trkpt>
      <trkpt lat="46.05013" lon="4.76555">
        <ele>190</ele>
        <time>2017-12-15T11:19:03Z</time>
      </trkpt>
      <trkpt lat="46.05009" lon="4.7655">
        <ele>190</ele>
        <time>2017-12-15T11:19:04Z</time>
      </trkpt>
      <trkpt lat="46.05005" lon="4.76543">
        <ele>190</ele>
        <time>2017-12-15T11:19:05Z</time>
      </trkpt>
      <trkpt lat="46.05003" lon="4.76538">
        <ele>190</ele>
        <time>2017-12-15T11:19:06Z</time>
      </trkpt>
      <trkpt lat="46.04998" lon="4.76528">
        <ele>191</ele>
        <time>2017-12-15T11:19:08Z</time>
      </trkpt>
      <trkpt lat="46.04995" lon="4.76523">
        <ele>191</ele>
        <time>2017-12-15T11:19:09Z</time>
      </trkpt>
      <trkpt lat="46.04993" lon="4.76517">
        <ele>191</ele>
        <time>2017-12-15T11:19:10Z</time>
      </trkpt>
      <trkpt lat="46.04991" lon="4.76511">
        <ele>191</ele>
        <time>2017-12-15T11:19:11Z</time>
      </trkpt>
      <trkpt lat="46.04988" lon="4.76505">
        <ele>191</ele>
        <time>2017-12-15T11:19:12Z</time>
      </trkpt>
      <trkpt lat="46.04985" lon="4.76499">
        <ele>190</ele>
        <time>2017-12-15T11:19:13Z</time>
      </trkpt>
      <trkpt lat="46.04983" lon="4.76493">
        <ele>190</ele>
        <time>2017-12-15T11:19:14Z</time>
      </trkpt>
      <trkpt lat="46.0498" lon="4.76485">
        <ele>190</ele>
        <time>2017-12-15T11:19:15Z</time>
      </trkpt>
      <trkpt lat="46.04976" lon="4.76474">
        <ele>191</ele>
        <time>2017-12-15T11:19:17Z</time>
      </trkpt>
      <trkpt lat="46.04974" lon="4.76468">
        <ele>191</ele>
        <time>2017-12-15T11:19:18Z</time>
      </trkpt>
      <trkpt lat="46.0497" lon="4.76457">
        <ele>190</ele>
        <time>2017-12-15T11:19:20Z</time>
      </trkpt>
      <trkpt lat="46.04968" lon="4.76452">
        <ele>190</ele>
        <time>2017-12-15T11:19:21Z</time>
      </trkpt>
      <trkpt lat="46.04964" lon="4.76446">
        <ele>191</ele>
        <time>2017-12-15T11:19:22Z</time>
      </trkpt>
      <trkpt lat="46.0496" lon="4.76443">
        <ele>191</ele>
        <time>2017-12-15T11:19:23Z</time>
      </trkpt>
      <trkpt lat="46.04956" lon="4.76439">
        <ele>191</ele>
        <time>2017-12-15T11:19:24Z</time>
      </trkpt>
      <trkpt lat="46.04952" lon="4.76435">
        <ele>191</ele>
        <time>2017-12-15T11:19:25Z</time>
      </trkpt>
      <trkpt lat="46.04947" lon="4.76433">
        <ele>191</ele>
        <time>2017-12-15T11:19:26Z</time>
      </trkpt>
      <trkpt lat="46.04942" lon="4.76431">
        <ele>191</ele>
        <time>2017-12-15T11:19:27Z</time>
      </trkpt>
      <trkpt lat="46.04937" lon="4.76431">
        <ele>191</ele>
        <time>2017-12-15T11:19:28Z</time>
      </trkpt>
      <trkpt lat="46.04931" lon="4.76433">
        <ele>191</ele>
        <time>2017-12-15T11:19:29Z</time>
      </trkpt>
      <trkpt lat="46.04926" lon="4.76435">
        <ele>191</ele>
        <time>2017-12-15T11:19:30Z</time>
      </trkpt>
      <trkpt lat="46.0492" lon="4.76439">
        <ele>191</ele>
        <time>2017-12-15T11:19:31Z</time>
      </trkpt>
      <trkpt lat="46.04913" lon="4.76441">
        <ele>193</ele>
        <time>2017-12-15T11:19:34Z</time>
      </trkpt>
      <trkpt lat="46.04909" lon="4.76441">
        <ele>193</ele>
        <time>2017-12-15T11:19:35Z</time>
      </trkpt>
      <trkpt lat="46.04903" lon="4.76444">
        <ele>193</ele>
        <time>2017-12-15T11:19:36Z</time>
      </trkpt>
      <trkpt lat="46.04898" lon="4.76445">
        <ele>193</ele>
        <time>2017-12-15T11:19:37Z</time>
      </trkpt>
      <trkpt lat="46.04892" lon="4.76445">
        <ele>193</ele>
        <time>2017-12-15T11:19:39Z</time>
      </trkpt>
      <trkpt lat="46.04888" lon="4.76445">
        <ele>193</ele>
        <time>2017-12-15T11:19:40Z</time>
      </trkpt>
      <trkpt lat="46.04882" lon="4.76446">
        <ele>193</ele>
        <time>2017-12-15T11:19:42Z</time>
      </trkpt>
      <trkpt lat="46.04878" lon="4.76447">
        <ele>193</ele>
        <time>2017-12-15T11:19:43Z</time>
      </trkpt>
      <trkpt lat="46.04874" lon="4.76448">
        <ele>193</ele>
        <time>2017-12-15T11:19:44Z</time>
      </trkpt>
      <trkpt lat="46.04867" lon="4.7645">
        <ele>193</ele>
        <time>2017-12-15T11:19:45Z</time>
      </trkpt>
      <trkpt lat="46.04862" lon="4.76451">
        <ele>193</ele>
        <time>2017-12-15T11:19:46Z</time>
      </trkpt>
      <trkpt lat="46.04858" lon="4.7645">
        <ele>193</ele>
        <time>2017-12-15T11:19:47Z</time>
      </trkpt>
      <trkpt lat="46.04849" lon="4.7645">
        <ele>193</ele>
        <time>2017-12-15T11:19:49Z</time>
      </trkpt>
      <trkpt lat="46.04845" lon="4.76448">
        <ele>193</ele>
        <time>2017-12-15T11:19:50Z</time>
      </trkpt>
      <trkpt lat="46.04838" lon="4.76445">
        <ele>194</ele>
        <time>2017-12-15T11:19:52Z</time>
      </trkpt>
      <trkpt lat="46.04834" lon="4.76443">
        <ele>194</ele>
        <time>2017-12-15T11:19:53Z</time>
      </trkpt>
      <trkpt lat="46.04827" lon="4.76443">
        <ele>193</ele>
        <time>2017-12-15T11:19:55Z</time>
      </trkpt>
      <trkpt lat="46.04823" lon="4.76442">
        <ele>193</ele>
        <time>2017-12-15T11:19:56Z</time>
      </trkpt>
      <trkpt lat="46.04816" lon="4.7644">
        <ele>193</ele>
        <time>2017-12-15T11:19:58Z</time>
      </trkpt>
      <trkpt lat="46.04813" lon="4.76438">
        <ele>193</ele>
        <time>2017-12-15T11:19:59Z</time>
      </trkpt>
      <trkpt lat="46.04806" lon="4.76436">
        <ele>193</ele>
        <time>2017-12-15T11:20:01Z</time>
      </trkpt>
      <trkpt lat="46.04802" lon="4.76435">
        <ele>193</ele>
        <time>2017-12-15T11:20:02Z</time>
      </trkpt>
      <trkpt lat="46.04793" lon="4.76438">
        <ele>193</ele>
        <time>2017-12-15T11:20:04Z</time>
      </trkpt>
      <trkpt lat="46.04788" lon="4.76448">
        <ele>192</ele>
        <time>2017-12-15T11:20:05Z</time>
      </trkpt>
      <trkpt lat="46.04785" lon="4.76451">
        <ele>192</ele>
        <time>2017-12-15T11:20:06Z</time>
      </trkpt>
      <trkpt lat="46.0478" lon="4.76456">
        <ele>192</ele>
        <time>2017-12-15T11:20:07Z</time>
      </trkpt>
      <trkpt lat="46.04776" lon="4.76459">
        <ele>192</ele>
        <time>2017-12-15T11:20:08Z</time>
      </trkpt>
      <trkpt lat="46.04771" lon="4.76461">
        <ele>192</ele>
        <time>2017-12-15T11:20:09Z</time>
      </trkpt>
      <trkpt lat="46.04766" lon="4.76464">
        <ele>192</ele>
        <time>2017-12-15T11:20:10Z</time>
      </trkpt>
      <trkpt lat="46.04761" lon="4.76466">
        <ele>192</ele>
        <time>2017-12-15T11:20:11Z</time>
      </trkpt>
      <trkpt lat="46.04755" lon="4.7647">
        <ele>192</ele>
        <time>2017-12-15T11:20:12Z</time>
      </trkpt>
      <trkpt lat="46.0475" lon="4.76472">
        <ele>192</ele>
        <time>2017-12-15T11:20:13Z</time>
      </trkpt>
      <trkpt lat="46.04746" lon="4.76475">
        <ele>190</ele>
        <time>2017-12-15T11:20:14Z</time>
      </trkpt>
      <trkpt lat="46.04741" lon="4.76478">
        <ele>190</ele>
        <time>2017-12-15T11:20:15Z</time>
      </trkpt>
      <trkpt lat="46.04736" lon="4.76481">
        <ele>190</ele>
        <time>2017-12-15T11:20:16Z</time>
      </trkpt>
      <trkpt lat="46.04731" lon="4.76482">
        <ele>189</ele>
        <time>2017-12-15T11:20:17Z</time>
      </trkpt>
      <trkpt lat="46.04725" lon="4.76483">
        <ele>189</ele>
        <time>2017-12-15T11:20:18Z</time>
      </trkpt>
      <trkpt lat="46.0472" lon="4.76486">
        <ele>189</ele>
        <time>2017-12-15T11:20:19Z</time>
      </trkpt>
      <trkpt lat="46.04714" lon="4.76486">
        <ele>189</ele>
        <time>2017-12-15T11:20:20Z</time>
      </trkpt>
      <trkpt lat="46.0471" lon="4.76488">
        <ele>189</ele>
        <time>2017-12-15T11:20:21Z</time>
      </trkpt>
      <trkpt lat="46.04705" lon="4.7649">
        <ele>189</ele>
        <time>2017-12-15T11:20:22Z</time>
      </trkpt>
      <trkpt lat="46.04701" lon="4.76489">
        <ele>188</ele>
        <time>2017-12-15T11:20:23Z</time>
      </trkpt>
      <trkpt lat="46.04694" lon="4.76489">
        <ele>188</ele>
        <time>2017-12-15T11:20:25Z</time>
      </trkpt>
      <trkpt lat="46.0469" lon="4.7649">
        <ele>188</ele>
        <time>2017-12-15T11:20:26Z</time>
      </trkpt>
      <trkpt lat="46.04682" lon="4.76489">
        <ele>188</ele>
        <time>2017-12-15T11:20:30Z</time>
      </trkpt>
      <trkpt lat="46.0468" lon="4.76487">
        <ele>187</ele>
        <time>2017-12-15T11:20:31Z</time>
      </trkpt>
      <trkpt lat="46.04672" lon="4.76485">
        <ele>187</ele>
        <time>2017-12-15T11:20:37Z</time>
      </trkpt>
      <trkpt lat="46.04671" lon="4.76488">
        <ele>187</ele>
        <time>2017-12-15T11:20:38Z</time>
      </trkpt>
      <trkpt lat="46.04668" lon="4.76499">
        <ele>186</ele>
        <time>2017-12-15T11:20:41Z</time>
      </trkpt>
      <trkpt lat="46.04668" lon="4.76503">
        <ele>186</ele>
        <time>2017-12-15T11:20:42Z</time>
      </trkpt>
      <trkpt lat="46.04665" lon="4.7651">
        <ele>186</ele>
        <time>2017-12-15T11:20:44Z</time>
      </trkpt>
      <trkpt lat="46.04658" lon="4.76508">
        <ele>186</ele>
        <time>2017-12-15T11:20:45Z</time>
      </trkpt>
      <trkpt lat="46.04649" lon="4.7651">
        <ele>186</ele>
        <time>2017-12-15T11:20:47Z</time>
      </trkpt>
      <trkpt lat="46.04645" lon="4.76512">
        <ele>186</ele>
        <time>2017-12-15T11:20:48Z</time>
      </trkpt>
      <trkpt lat="46.04639" lon="4.76513">
        <ele>186</ele>
        <time>2017-12-15T11:20:49Z</time>
      </trkpt>
      <trkpt lat="46.04634" lon="4.76515">
        <ele>186</ele>
        <time>2017-12-15T11:20:50Z</time>
      </trkpt>
      <trkpt lat="46.04629" lon="4.76517">
        <ele>186</ele>
        <time>2017-12-15T11:20:51Z</time>
      </trkpt>
      <trkpt lat="46.04622" lon="4.76519">
        <ele>186</ele>
        <time>2017-12-15T11:20:52Z</time>
      </trkpt>
      <trkpt lat="46.04618" lon="4.76522">
        <ele>186</ele>
        <time>2017-12-15T11:20:53Z</time>
      </trkpt>
      <trkpt lat="46.04613" lon="4.76525">
        <ele>186</ele>
        <time>2017-12-15T11:20:54Z</time>
      </trkpt>
      <trkpt lat="46.04609" lon="4.76526">
        <ele>186</ele>
        <time>2017-12-15T11:20:55Z</time>
      </trkpt>
      <trkpt lat="46.04603" lon="4.76527">
        <ele>186</ele>
        <time>2017-12-15T11:20:56Z</time>
      </trkpt>
      <trkpt lat="46.04598" lon="4.76529">
        <ele>186</ele>
        <time>2017-12-15T11:20:57Z</time>
      </trkpt>
      <trkpt lat="46.04593" lon="4.76531">
        <ele>186</ele>
        <time>2017-12-15T11:20:58Z</time>
      </trkpt>
      <trkpt lat="46.04588" lon="4.76533">
        <ele>186</ele>
        <time>2017-12-15T11:20:59Z</time>
      </trkpt>
      <trkpt lat="46.04581" lon="4.76538">
        <ele>187</ele>
        <time>2017-12-15T11:21:00Z</time>
      </trkpt>
      <trkpt lat="46.04577" lon="4.76539">
        <ele>187</ele>
        <time>2017-12-15T11:21:01Z</time>
      </trkpt>
      <trkpt lat="46.04572" lon="4.76541">
        <ele>187</ele>
        <time>2017-12-15T11:21:02Z</time>
      </trkpt>
      <trkpt lat="46.04567" lon="4.76543">
        <ele>187</ele>
        <time>2017-12-15T11:21:03Z</time>
      </trkpt>
      <trkpt lat="46.04562" lon="4.76545">
        <ele>187</ele>
        <time>2017-12-15T11:21:04Z</time>
      </trkpt>
      <trkpt lat="46.04554" lon="4.76547">
        <ele>188</ele>
        <time>2017-12-15T11:21:06Z</time>
      </trkpt>
      <trkpt lat="46.0455" lon="4.76548">
        <ele>188</ele>
        <time>2017-12-15T11:21:07Z</time>
      </trkpt>
      <trkpt lat="46.04542" lon="4.76548">
        <ele>188</ele>
        <time>2017-12-15T11:21:09Z</time>
      </trkpt>
      <trkpt lat="46.04539" lon="4.76549">
        <ele>188</ele>
        <time>2017-12-15T11:21:10Z</time>
      </trkpt>
      <trkpt lat="46.0453" lon="4.7655">
        <ele>188</ele>
        <time>2017-12-15T11:21:13Z</time>
      </trkpt>
      <trkpt lat="46.04526" lon="4.7655">
        <ele>189</ele>
        <time>2017-12-15T11:21:14Z</time>
      </trkpt>
      <trkpt lat="46.0452" lon="4.76551">
        <ele>189</ele>
        <time>2017-12-15T11:21:16Z</time>
      </trkpt>
      <trkpt lat="46.04517" lon="4.76553">
        <ele>189</ele>
        <time>2017-12-15T11:21:17Z</time>
      </trkpt>
      <trkpt lat="46.04509" lon="4.76555">
        <ele>189</ele>
        <time>2017-12-15T11:21:20Z</time>
      </trkpt>
      <trkpt lat="46.04506" lon="4.76555">
        <ele>189</ele>
        <time>2017-12-15T11:21:21Z</time>
      </trkpt>
      <trkpt lat="46.04499" lon="4.76556">
        <ele>192</ele>
        <time>2017-12-15T11:21:24Z</time>
      </trkpt>
      <trkpt lat="46.04497" lon="4.76556">
        <ele>192</ele>
        <time>2017-12-15T11:21:25Z</time>
      </trkpt>
      <trkpt lat="46.04491" lon="4.76557">
        <ele>193</ele>
        <time>2017-12-15T11:21:27Z</time>
      </trkpt>
      <trkpt lat="46.04486" lon="4.76556">
        <ele>193</ele>
        <time>2017-12-15T11:21:28Z</time>
      </trkpt>
      <trkpt lat="46.04482" lon="4.76556">
        <ele>193</ele>
        <time>2017-12-15T11:21:29Z</time>
      </trkpt>
      <trkpt lat="46.04475" lon="4.76556">
        <ele>193</ele>
        <time>2017-12-15T11:21:30Z</time>
      </trkpt>
      <trkpt lat="46.04469" lon="4.7656">
        <ele>193</ele>
        <time>2017-12-15T11:21:32Z</time>
      </trkpt>
      <trkpt lat="46.04464" lon="4.76561">
        <ele>194</ele>
        <time>2017-12-15T11:21:33Z</time>
      </trkpt>
      <trkpt lat="46.0446" lon="4.76561">
        <ele>194</ele>
        <time>2017-12-15T11:21:34Z</time>
      </trkpt>
      <trkpt lat="46.04455" lon="4.7656">
        <ele>194</ele>
        <time>2017-12-15T11:21:35Z</time>
      </trkpt>
      <trkpt lat="46.04448" lon="4.76562">
        <ele>194</ele>
        <time>2017-12-15T11:21:37Z</time>
      </trkpt>
      <trkpt lat="46.04443" lon="4.76563">
        <ele>195</ele>
        <time>2017-12-15T11:21:38Z</time>
      </trkpt>
      <trkpt lat="46.04434" lon="4.76565">
        <ele>195</ele>
        <time>2017-12-15T11:21:40Z</time>
      </trkpt>
      <trkpt lat="46.04431" lon="4.76565">
        <ele>196</ele>
        <time>2017-12-15T11:21:41Z</time>
      </trkpt>
      <trkpt lat="46.04425" lon="4.76565">
        <ele>196</ele>
        <time>2017-12-15T11:21:44Z</time>
      </trkpt>
      <trkpt lat="46.04421" lon="4.76565">
        <ele>196</ele>
        <time>2017-12-15T11:21:45Z</time>
      </trkpt>
      <trkpt lat="46.04413" lon="4.76567">
        <ele>198</ele>
        <time>2017-12-15T11:21:48Z</time>
      </trkpt>
      <trkpt lat="46.0441" lon="4.76568">
        <ele>198</ele>
        <time>2017-12-15T11:21:49Z</time>
      </trkpt>
      <trkpt lat="46.04403" lon="4.7657">
        <ele>198</ele>
        <time>2017-12-15T11:21:52Z</time>
      </trkpt>
      <trkpt lat="46.044" lon="4.76572">
        <ele>198</ele>
        <time>2017-12-15T11:21:53Z</time>
      </trkpt>
      <trkpt lat="46.04395" lon="4.76572">
        <ele>198</ele>
        <time>2017-12-15T11:21:54Z</time>
      </trkpt>
      <trkpt lat="46.04387" lon="4.76574">
        <ele>197</ele>
        <time>2017-12-15T11:21:55Z</time>
      </trkpt>
      <trkpt lat="46.04379" lon="4.76574">
        <ele>197</ele>
        <time>2017-12-15T11:21:57Z</time>
      </trkpt>
      <trkpt lat="46.04373" lon="4.76574">
        <ele>197</ele>
        <time>2017-12-15T11:21:58Z</time>
      </trkpt>
      <trkpt lat="46.04369" lon="4.76575">
        <ele>197</ele>
        <time>2017-12-15T11:21:59Z</time>
      </trkpt>
      <trkpt lat="46.04362" lon="4.76575">
        <ele>197</ele>
        <time>2017-12-15T11:22:00Z</time>
      </trkpt>
      <trkpt lat="46.04354" lon="4.76574">
        <ele>198</ele>
        <time>2017-12-15T11:22:02Z</time>
      </trkpt>
      <trkpt lat="46.04351" lon="4.76574">
        <ele>198</ele>
        <time>2017-12-15T11:22:03Z</time>
      </trkpt>
      <trkpt lat="46.04344" lon="4.76576">
        <ele>198</ele>
        <time>2017-12-15T11:22:05Z</time>
      </trkpt>
      <trkpt lat="46.0434" lon="4.76577">
        <ele>198</ele>
        <time>2017-12-15T11:22:06Z</time>
      </trkpt>
      <trkpt lat="46.04335" lon="4.76578">
        <ele>199</ele>
        <time>2017-12-15T11:22:07Z</time>
      </trkpt>
      <trkpt lat="46.0433" lon="4.76579">
        <ele>198</ele>
        <time>2017-12-15T11:22:08Z</time>
      </trkpt>
      <trkpt lat="46.04322" lon="4.7658">
        <ele>198</ele>
        <time>2017-12-15T11:22:10Z</time>
      </trkpt>
      <trkpt lat="46.04315" lon="4.7658">
        <ele>197</ele>
        <time>2017-12-15T11:22:11Z</time>
      </trkpt>
      <trkpt lat="46.04309" lon="4.76581">
        <ele>197</ele>
        <time>2017-12-15T11:22:12Z</time>
      </trkpt>
      <trkpt lat="46.04303" lon="4.76581">
        <ele>197</ele>
        <time>2017-12-15T11:22:13Z</time>
      </trkpt>
      <trkpt lat="46.04295" lon="4.76583">
        <ele>197</ele>
        <time>2017-12-15T11:22:15Z</time>
      </trkpt>
      <trkpt lat="46.04291" lon="4.76583">
        <ele>197</ele>
        <time>2017-12-15T11:22:16Z</time>
      </trkpt>
      <trkpt lat="46.04282" lon="4.76582">
        <ele>197</ele>
        <time>2017-12-15T11:22:19Z</time>
      </trkpt>
      <trkpt lat="46.04279" lon="4.76584">
        <ele>198</ele>
        <time>2017-12-15T11:22:20Z</time>
      </trkpt>
      <trkpt lat="46.04272" lon="4.76587">
        <ele>198</ele>
        <time>2017-12-15T11:22:23Z</time>
      </trkpt>
      <trkpt lat="46.04268" lon="4.76587">
        <ele>197</ele>
        <time>2017-12-15T11:22:24Z</time>
      </trkpt>
      <trkpt lat="46.04262" lon="4.76589">
        <ele>197</ele>
        <time>2017-12-15T11:22:26Z</time>
      </trkpt>
      <trkpt lat="46.04258" lon="4.76589">
        <ele>197</ele>
        <time>2017-12-15T11:22:27Z</time>
      </trkpt>
      <trkpt lat="46.0425" lon="4.76589">
        <ele>197</ele>
        <time>2017-12-15T11:22:29Z</time>
      </trkpt>
      <trkpt lat="46.04246" lon="4.7659">
        <ele>197</ele>
        <time>2017-12-15T11:22:30Z</time>
      </trkpt>
      <trkpt lat="46.04237" lon="4.76592">
        <ele>197</ele>
        <time>2017-12-15T11:22:32Z</time>
      </trkpt>
      <trkpt lat="46.04233" lon="4.76593">
        <ele>198</ele>
        <time>2017-12-15T11:22:33Z</time>
      </trkpt>
      <trkpt lat="46.04225" lon="4.76594">
        <ele>198</ele>
        <time>2017-12-15T11:22:35Z</time>
      </trkpt>
      <trkpt lat="46.0422" lon="4.76595">
        <ele>198</ele>
        <time>2017-12-15T11:22:36Z</time>
      </trkpt>
      <trkpt lat="46.04212" lon="4.76598">
        <ele>198</ele>
        <time>2017-12-15T11:22:38Z</time>
      </trkpt>
      <trkpt lat="46.04205" lon="4.76598">
        <ele>198</ele>
        <time>2017-12-15T11:22:39Z</time>
      </trkpt>
      <trkpt lat="46.04197" lon="4.76602">
        <ele>198</ele>
        <time>2017-12-15T11:22:41Z</time>
      </trkpt>
      <trkpt lat="46.04192" lon="4.76603">
        <ele>198</ele>
        <time>2017-12-15T11:22:42Z</time>
      </trkpt>
      <trkpt lat="46.04189" lon="4.76606">
        <ele>198</ele>
        <time>2017-12-15T11:22:43Z</time>
      </trkpt>
      <trkpt lat="46.04185" lon="4.7661">
        <ele>198</ele>
        <time>2017-12-15T11:22:44Z</time>
      </trkpt>
      <trkpt lat="46.0418" lon="4.76614">
        <ele>198</ele>
        <time>2017-12-15T11:22:45Z</time>
      </trkpt>
      <trkpt lat="46.04176" lon="4.76616">
        <ele>198</ele>
        <time>2017-12-15T11:22:46Z</time>
      </trkpt>
      <trkpt lat="46.04173" lon="4.7662">
        <ele>198</ele>
        <time>2017-12-15T11:22:47Z</time>
      </trkpt>
      <trkpt lat="46.04168" lon="4.76623">
        <ele>198</ele>
        <time>2017-12-15T11:22:48Z</time>
      </trkpt>
      <trkpt lat="46.04161" lon="4.76628">
        <ele>199</ele>
        <time>2017-12-15T11:22:50Z</time>
      </trkpt>
      <trkpt lat="46.04156" lon="4.7663">
        <ele>200</ele>
        <time>2017-12-15T11:22:51Z</time>
      </trkpt>
      <trkpt lat="46.0415" lon="4.76634">
        <ele>200</ele>
        <time>2017-12-15T11:22:53Z</time>
      </trkpt>
      <trkpt lat="46.04146" lon="4.76636">
        <ele>200</ele>
        <time>2017-12-15T11:22:54Z</time>
      </trkpt>
      <trkpt lat="46.04138" lon="4.76641">
        <ele>200</ele>
        <time>2017-12-15T11:22:56Z</time>
      </trkpt>
      <trkpt lat="46.04134" lon="4.76643">
        <ele>200</ele>
        <time>2017-12-15T11:22:57Z</time>
      </trkpt>
      <trkpt lat="46.04126" lon="4.76645">
        <ele>200</ele>
        <time>2017-12-15T11:22:59Z</time>
      </trkpt>
      <trkpt lat="46.04122" lon="4.76645">
        <ele>200</ele>
        <time>2017-12-15T11:23:00Z</time>
      </trkpt>
      <trkpt lat="46.04114" lon="4.76646">
        <ele>200</ele>
        <time>2017-12-15T11:23:02Z</time>
      </trkpt>
      <trkpt lat="46.0411" lon="4.76647">
        <ele>200</ele>
        <time>2017-12-15T11:23:03Z</time>
      </trkpt>
      <trkpt lat="46.04103" lon="4.76649">
        <ele>200</ele>
        <time>2017-12-15T11:23:05Z</time>
      </trkpt>
      <trkpt lat="46.04099" lon="4.7665">
        <ele>201</ele>
        <time>2017-12-15T11:23:06Z</time>
      </trkpt>
      <trkpt lat="46.04091" lon="4.76651">
        <ele>201</ele>
        <time>2017-12-15T11:23:08Z</time>
      </trkpt>
      <trkpt lat="46.04088" lon="4.76652">
        <ele>201</ele>
        <time>2017-12-15T11:23:09Z</time>
      </trkpt>
      <trkpt lat="46.04081" lon="4.76653">
        <ele>201</ele>
        <time>2017-12-15T11:23:11Z</time>
      </trkpt>
      <trkpt lat="46.04077" lon="4.76654">
        <ele>201</ele>
        <time>2017-12-15T11:23:12Z</time>
      </trkpt>
      <trkpt lat="46.04069" lon="4.76655">
        <ele>201</ele>
        <time>2017-12-15T11:23:14Z</time>
      </trkpt>
      <trkpt lat="46.04066" lon="4.76655">
        <ele>201</ele>
        <time>2017-12-15T11:23:15Z</time>
      </trkpt>
      <trkpt lat="46.04058" lon="4.76657">
        <ele>201</ele>
        <time>2017-12-15T11:23:18Z</time>
      </trkpt>
      <trkpt lat="46.04054" lon="4.76658">
        <ele>201</ele>
        <time>2017-12-15T11:23:19Z</time>
      </trkpt>
      <trkpt lat="46.04047" lon="4.7666">
        <ele>201</ele>
        <time>2017-12-15T11:23:21Z</time>
      </trkpt>
      <trkpt lat="46.04043" lon="4.7666">
        <ele>201</ele>
        <time>2017-12-15T11:23:22Z</time>
      </trkpt>
      <trkpt lat="46.04036" lon="4.76662">
        <ele>201</ele>
        <time>2017-12-15T11:23:24Z</time>
      </trkpt>
      <trkpt lat="46.04032" lon="4.76663">
        <ele>201</ele>
        <time>2017-12-15T11:23:25Z</time>
      </trkpt>
      <trkpt lat="46.04025" lon="4.76666">
        <ele>201</ele>
        <time>2017-12-15T11:23:27Z</time>
      </trkpt>
      <trkpt lat="46.04021" lon="4.76667">
        <ele>201</ele>
        <time>2017-12-15T11:23:28Z</time>
      </trkpt>
      <trkpt lat="46.04013" lon="4.76667">
        <ele>202</ele>
        <time>2017-12-15T11:23:30Z</time>
      </trkpt>
      <trkpt lat="46.04009" lon="4.76667">
        <ele>202</ele>
        <time>2017-12-15T11:23:31Z</time>
      </trkpt>
      <trkpt lat="46.04001" lon="4.76668">
        <ele>202</ele>
        <time>2017-12-15T11:23:33Z</time>
      </trkpt>
      <trkpt lat="46.03997" lon="4.76669">
        <ele>202</ele>
        <time>2017-12-15T11:23:34Z</time>
      </trkpt>
      <trkpt lat="46.03993" lon="4.76669">
        <ele>202</ele>
        <time>2017-12-15T11:23:35Z</time>
      </trkpt>
      <trkpt lat="46.03988" lon="4.7667">
        <ele>203</ele>
        <time>2017-12-15T11:23:36Z</time>
      </trkpt>
      <trkpt lat="46.0398" lon="4.76671">
        <ele>203</ele>
        <time>2017-12-15T11:23:38Z</time>
      </trkpt>
      <trkpt lat="46.03975" lon="4.76672">
        <ele>203</ele>
        <time>2017-12-15T11:23:39Z</time>
      </trkpt>
      <trkpt lat="46.03967" lon="4.76674">
        <ele>203</ele>
        <time>2017-12-15T11:23:41Z</time>
      </trkpt>
      <trkpt lat="46.03962" lon="4.76675">
        <ele>203</ele>
        <time>2017-12-15T11:23:42Z</time>
      </trkpt>
      <trkpt lat="46.03957" lon="4.76676">
        <ele>204</ele>
        <time>2017-12-15T11:23:43Z</time>
      </trkpt>
      <trkpt lat="46.03952" lon="4.76677">
        <ele>204</ele>
        <time>2017-12-15T11:23:44Z</time>
      </trkpt>
      <trkpt lat="46.03948" lon="4.76678">
        <ele>204</ele>
        <time>2017-12-15T11:23:45Z</time>
      </trkpt>
      <trkpt lat="46.03941" lon="4.76679">
        <ele>204</ele>
        <time>2017-12-15T11:23:46Z</time>
      </trkpt>
      <trkpt lat="46.03937" lon="4.7668">
        <ele>204</ele>
        <time>2017-12-15T11:23:47Z</time>
      </trkpt>
      <trkpt lat="46.03932" lon="4.76681">
        <ele>204</ele>
        <time>2017-12-15T11:23:48Z</time>
      </trkpt>
      <trkpt lat="46.03927" lon="4.76683">
        <ele>204</ele>
        <time>2017-12-15T11:23:49Z</time>
      </trkpt>
      <trkpt lat="46.03922" lon="4.76684">
        <ele>204</ele>
        <time>2017-12-15T11:23:50Z</time>
      </trkpt>
      <trkpt lat="46.03914" lon="4.76686">
        <ele>205</ele>
        <time>2017-12-15T11:23:52Z</time>
      </trkpt>
      <trkpt lat="46.0391" lon="4.76688">
        <ele>205</ele>
        <time>2017-12-15T11:23:53Z</time>
      </trkpt>
      <trkpt lat="46.03902" lon="4.76691">
        <ele>205</ele>
        <time>2017-12-15T11:23:55Z</time>
      </trkpt>
      <trkpt lat="46.03897" lon="4.76693">
        <ele>205</ele>
        <time>2017-12-15T11:23:56Z</time>
      </trkpt>
      <trkpt lat="46.03892" lon="4.76695">
        <ele>205</ele>
        <time>2017-12-15T11:23:57Z</time>
      </trkpt>
      <trkpt lat="46.03887" lon="4.76697">
        <ele>205</ele>
        <time>2017-12-15T11:23:58Z</time>
      </trkpt>
      <trkpt lat="46.0388" lon="4.76699">
        <ele>205</ele>
        <time>2017-12-15T11:24:00Z</time>
      </trkpt>
      <trkpt lat="46.03876" lon="4.76699">
        <ele>205</ele>
        <time>2017-12-15T11:24:01Z</time>
      </trkpt>
      <trkpt lat="46.03871" lon="4.76701">
        <ele>205</ele>
        <time>2017-12-15T11:24:02Z</time>
      </trkpt>
      <trkpt lat="46.03866" lon="4.76703">
        <ele>205</ele>
        <time>2017-12-15T11:24:03Z</time>
      </trkpt>
      <trkpt lat="46.03858" lon="4.76708">
        <ele>205</ele>
        <time>2017-12-15T11:24:05Z</time>
      </trkpt>
      <trkpt lat="46.03854" lon="4.76709">
        <ele>205</ele>
        <time>2017-12-15T11:24:06Z</time>
      </trkpt>
      <trkpt lat="46.03847" lon="4.76711">
        <ele>205</ele>
        <time>2017-12-15T11:24:09Z</time>
      </trkpt>
      <trkpt lat="46.03841" lon="4.76712">
        <ele>205</ele>
        <time>2017-12-15T11:24:10Z</time>
      </trkpt>
      <trkpt lat="46.03833" lon="4.76711">
        <ele>205</ele>
        <time>2017-12-15T11:24:12Z</time>
      </trkpt>
      <trkpt lat="46.03827" lon="4.76711">
        <ele>205</ele>
        <time>2017-12-15T11:24:13Z</time>
      </trkpt>
      <trkpt lat="46.03822" lon="4.7671">
        <ele>205</ele>
        <time>2017-12-15T11:24:14Z</time>
      </trkpt>
      <trkpt lat="46.03816" lon="4.76711">
        <ele>205</ele>
        <time>2017-12-15T11:24:15Z</time>
      </trkpt>
      <trkpt lat="46.0381" lon="4.76711">
        <ele>205</ele>
        <time>2017-12-15T11:24:16Z</time>
      </trkpt>
      <trkpt lat="46.03806" lon="4.76711">
        <ele>205</ele>
        <time>2017-12-15T11:24:17Z</time>
      </trkpt>
      <trkpt lat="46.03801" lon="4.76712">
        <ele>205</ele>
        <time>2017-12-15T11:24:18Z</time>
      </trkpt>
      <trkpt lat="46.03796" lon="4.76712">
        <ele>205</ele>
        <time>2017-12-15T11:24:19Z</time>
      </trkpt>
      <trkpt lat="46.03791" lon="4.76712">
        <ele>205</ele>
        <time>2017-12-15T11:24:20Z</time>
      </trkpt>
      <trkpt lat="46.03787" lon="4.76712">
        <ele>205</ele>
        <time>2017-12-15T11:24:21Z</time>
      </trkpt>
      <trkpt lat="46.03782" lon="4.76709">
        <ele>205</ele>
        <time>2017-12-15T11:24:22Z</time>
      </trkpt>
      <trkpt lat="46.03778" lon="4.76709">
        <ele>205</ele>
        <time>2017-12-15T11:24:23Z</time>
      </trkpt>
      <trkpt lat="46.03769" lon="4.76708">
        <ele>205</ele>
        <time>2017-12-15T11:24:25Z</time>
      </trkpt>
      <trkpt lat="46.03765" lon="4.76708">
        <ele>205</ele>
        <time>2017-12-15T11:24:26Z</time>
      </trkpt>
      <trkpt lat="46.03757" lon="4.76704">
        <ele>205</ele>
        <time>2017-12-15T11:24:28Z</time>
      </trkpt>
      <trkpt lat="46.03752" lon="4.76702">
        <ele>205</ele>
        <time>2017-12-15T11:24:29Z</time>
      </trkpt>
      <trkpt lat="46.03747" lon="4.767">
        <ele>205</ele>
        <time>2017-12-15T11:24:30Z</time>
      </trkpt>
      <trkpt lat="46.03742" lon="4.767">
        <ele>205</ele>
        <time>2017-12-15T11:24:31Z</time>
      </trkpt>
      <trkpt lat="46.03734" lon="4.76698">
        <ele>205</ele>
        <time>2017-12-15T11:24:33Z</time>
      </trkpt>
      <trkpt lat="46.0373" lon="4.76697">
        <ele>205</ele>
        <time>2017-12-15T11:24:34Z</time>
      </trkpt>
      <trkpt lat="46.03722" lon="4.76692">
        <ele>205</ele>
        <time>2017-12-15T11:24:36Z</time>
      </trkpt>
      <trkpt lat="46.03716" lon="4.7669">
        <ele>205</ele>
        <time>2017-12-15T11:24:37Z</time>
      </trkpt>
      <trkpt lat="46.03712" lon="4.76687">
        <ele>205</ele>
        <time>2017-12-15T11:24:38Z</time>
      </trkpt>
      <trkpt lat="46.03708" lon="4.76682">
        <ele>205</ele>
        <time>2017-12-15T11:24:39Z</time>
      </trkpt>
      <trkpt lat="46.03704" lon="4.76676">
        <ele>205</ele>
        <time>2017-12-15T11:24:40Z</time>
      </trkpt>
      <trkpt lat="46.03699" lon="4.76672">
        <ele>205</ele>
        <time>2017-12-15T11:24:41Z</time>
      </trkpt>
      <trkpt lat="46.03696" lon="4.76666">
        <ele>204</ele>
        <time>2017-12-15T11:24:42Z</time>
      </trkpt>
      <trkpt lat="46.03692" lon="4.76661">
        <ele>204</ele>
        <time>2017-12-15T11:24:43Z</time>
      </trkpt>
      <trkpt lat="46.03689" lon="4.76655">
        <ele>204</ele>
        <time>2017-12-15T11:24:44Z</time>
      </trkpt>
      <trkpt lat="46.03686" lon="4.76645">
        <ele>204</ele>
        <time>2017-12-15T11:24:45Z</time>
      </trkpt>
      <trkpt lat="46.03687" lon="4.76636">
        <ele>204</ele>
        <time>2017-12-15T11:24:46Z</time>
      </trkpt>
      <trkpt lat="46.03687" lon="4.76628">
        <ele>203</ele>
        <time>2017-12-15T11:24:47Z</time>
      </trkpt>
      <trkpt lat="46.03686" lon="4.76621">
        <ele>203</ele>
        <time>2017-12-15T11:24:48Z</time>
      </trkpt>
      <trkpt lat="46.03684" lon="4.76614">
        <ele>203</ele>
        <time>2017-12-15T11:24:49Z</time>
      </trkpt>
      <trkpt lat="46.03682" lon="4.76607">
        <ele>203</ele>
        <time>2017-12-15T11:24:50Z</time>
      </trkpt>
      <trkpt lat="46.0368" lon="4.766">
        <ele>203</ele>
        <time>2017-12-15T11:24:51Z</time>
      </trkpt>
      <trkpt lat="46.03677" lon="4.76594">
        <ele>203</ele>
        <time>2017-12-15T11:24:52Z</time>
      </trkpt>
      <trkpt lat="46.03673" lon="4.76588">
        <ele>202</ele>
        <time>2017-12-15T11:24:53Z</time>
      </trkpt>
      <trkpt lat="46.03667" lon="4.76584">
        <ele>202</ele>
        <time>2017-12-15T11:24:54Z</time>
      </trkpt>
      <trkpt lat="46.03663" lon="4.76579">
        <ele>202</ele>
        <time>2017-12-15T11:24:55Z</time>
      </trkpt>
      <trkpt lat="46.03658" lon="4.76574">
        <ele>201</ele>
        <time>2017-12-15T11:24:56Z</time>
      </trkpt>
      <trkpt lat="46.03653" lon="4.76567">
        <ele>201</ele>
        <time>2017-12-15T11:24:57Z</time>
      </trkpt>
      <trkpt lat="46.03649" lon="4.7656">
        <ele>201</ele>
        <time>2017-12-15T11:24:58Z</time>
      </trkpt>
      <trkpt lat="46.03646" lon="4.76553">
        <ele>201</ele>
        <time>2017-12-15T11:24:59Z</time>
      </trkpt>
      <trkpt lat="46.03643" lon="4.76545">
        <ele>200</ele>
        <time>2017-12-15T11:25:00Z</time>
      </trkpt>
      <trkpt lat="46.0364" lon="4.76538">
        <ele>200</ele>
        <time>2017-12-15T11:25:01Z</time>
      </trkpt>
      <trkpt lat="46.03637" lon="4.7653">
        <ele>200</ele>
        <time>2017-12-15T11:25:02Z</time>
      </trkpt>
      <trkpt lat="46.03634" lon="4.76522">
        <ele>200</ele>
        <time>2017-12-15T11:25:03Z</time>
      </trkpt>
      <trkpt lat="46.0363" lon="4.76514">
        <ele>200</ele>
        <time>2017-12-15T11:25:04Z</time>
      </trkpt>
      <trkpt lat="46.03627" lon="4.76508">
        <ele>200</ele>
        <time>2017-12-15T11:25:05Z</time>
      </trkpt>
      <trkpt lat="46.03623" lon="4.76501">
        <ele>200</ele>
        <time>2017-12-15T11:25:06Z</time>
      </trkpt>
      <trkpt lat="46.03619" lon="4.76495">
        <ele>199</ele>
        <time>2017-12-15T11:25:07Z</time>
      </trkpt>
      <trkpt lat="46.03616" lon="4.7649">
        <ele>199</ele>
        <time>2017-12-15T11:25:08Z</time>
      </trkpt>
      <trkpt lat="46.03612" lon="4.76485">
        <ele>199</ele>
        <time>2017-12-15T11:25:09Z</time>
      </trkpt>
      <trkpt lat="46.03608" lon="4.76479">
        <ele>199</ele>
        <time>2017-12-15T11:25:10Z</time>
      </trkpt>
      <trkpt lat="46.03606" lon="4.76472">
        <ele>199</ele>
        <time>2017-12-15T11:25:11Z</time>
      </trkpt>
      <trkpt lat="46.03604" lon="4.76465">
        <ele>199</ele>
        <time>2017-12-15T11:25:12Z</time>
      </trkpt>
      <trkpt lat="46.03603" lon="4.76458">
        <ele>199</ele>
        <time>2017-12-15T11:25:13Z</time>
      </trkpt>
      <trkpt lat="46.03602" lon="4.7645">
        <ele>199</ele>
        <time>2017-12-15T11:25:14Z</time>
      </trkpt>
      <trkpt lat="46.03602" lon="4.76443">
        <ele>199</ele>
        <time>2017-12-15T11:25:15Z</time>
      </trkpt>
      <trkpt lat="46.03602" lon="4.76431">
        <ele>199</ele>
        <time>2017-12-15T11:25:17Z</time>
      </trkpt>
      <trkpt lat="46.03603" lon="4.76421">
        <ele>199</ele>
        <time>2017-12-15T11:25:18Z</time>
      </trkpt>
      <trkpt lat="46.03603" lon="4.76412">
        <ele>198</ele>
        <time>2017-12-15T11:25:19Z</time>
      </trkpt>
      <trkpt lat="46.03604" lon="4.76403">
        <ele>198</ele>
        <time>2017-12-15T11:25:20Z</time>
      </trkpt>
      <trkpt lat="46.03603" lon="4.76396">
        <ele>197</ele>
        <time>2017-12-15T11:25:21Z</time>
      </trkpt>
      <trkpt lat="46.03604" lon="4.76386">
        <ele>197</ele>
        <time>2017-12-15T11:25:22Z</time>
      </trkpt>
      <trkpt lat="46.03605" lon="4.76375">
        <ele>197</ele>
        <time>2017-12-15T11:25:23Z</time>
      </trkpt>
      <trkpt lat="46.03607" lon="4.76364">
        <ele>197</ele>
        <time>2017-12-15T11:25:24Z</time>
      </trkpt>
      <trkpt lat="46.03608" lon="4.76355">
        <ele>196</ele>
        <time>2017-12-15T11:25:25Z</time>
      </trkpt>
      <trkpt lat="46.0361" lon="4.76346">
        <ele>196</ele>
        <time>2017-12-15T11:25:26Z</time>
      </trkpt>
      <trkpt lat="46.03612" lon="4.76336">
        <ele>196</ele>
        <time>2017-12-15T11:25:27Z</time>
      </trkpt>
      <trkpt lat="46.03612" lon="4.76327">
        <ele>195</ele>
        <time>2017-12-15T11:25:28Z</time>
      </trkpt>
      <trkpt lat="46.03613" lon="4.76318">
        <ele>195</ele>
        <time>2017-12-15T11:25:29Z</time>
      </trkpt>
      <trkpt lat="46.03614" lon="4.7631">
        <ele>195</ele>
        <time>2017-12-15T11:25:30Z</time>
      </trkpt>
      <trkpt lat="46.03614" lon="4.76301">
        <ele>195</ele>
        <time>2017-12-15T11:25:31Z</time>
      </trkpt>
      <trkpt lat="46.03615" lon="4.76292">
        <ele>195</ele>
        <time>2017-12-15T11:25:32Z</time>
      </trkpt>
      <trkpt lat="46.03616" lon="4.76284">
        <ele>194</ele>
        <time>2017-12-15T11:25:33Z</time>
      </trkpt>
      <trkpt lat="46.03617" lon="4.76276">
        <ele>194</ele>
        <time>2017-12-15T11:25:34Z</time>
      </trkpt>
      <trkpt lat="46.03618" lon="4.76268">
        <ele>194</ele>
        <time>2017-12-15T11:25:35Z</time>
      </trkpt>
      <trkpt lat="46.03619" lon="4.7626">
        <ele>194</ele>
        <time>2017-12-15T11:25:36Z</time>
      </trkpt>
      <trkpt lat="46.0362" lon="4.76253">
        <ele>194</ele>
        <time>2017-12-15T11:25:37Z</time>
      </trkpt>
      <trkpt lat="46.03622" lon="4.76245">
        <ele>193</ele>
        <time>2017-12-15T11:25:38Z</time>
      </trkpt>
      <trkpt lat="46.03622" lon="4.76238">
        <ele>193</ele>
        <time>2017-12-15T11:25:39Z</time>
      </trkpt>
      <trkpt lat="46.03623" lon="4.76231">
        <ele>193</ele>
        <time>2017-12-15T11:25:40Z</time>
      </trkpt>
      <trkpt lat="46.03624" lon="4.76223">
        <ele>193</ele>
        <time>2017-12-15T11:25:41Z</time>
      </trkpt>
      <trkpt lat="46.03625" lon="4.76215">
        <ele>193</ele>
        <time>2017-12-15T11:25:42Z</time>
      </trkpt>
      <trkpt lat="46.03626" lon="4.76208">
        <ele>193</ele>
        <time>2017-12-15T11:25:43Z</time>
      </trkpt>
      <trkpt lat="46.03626" lon="4.762">
        <ele>193</ele>
        <time>2017-12-15T11:25:44Z</time>
      </trkpt>
      <trkpt lat="46.03628" lon="4.76191">
        <ele>193</ele>
        <time>2017-12-15T11:25:45Z</time>
      </trkpt>
      <trkpt lat="46.03629" lon="4.76182">
        <ele>193</ele>
        <time>2017-12-15T11:25:46Z</time>
      </trkpt>
      <trkpt lat="46.0363" lon="4.76173">
        <ele>192</ele>
        <time>2017-12-15T11:25:47Z</time>
      </trkpt>
      <trkpt lat="46.0363" lon="4.76164">
        <ele>192</ele>
        <time>2017-12-15T11:25:48Z</time>
      </trkpt>
      <trkpt lat="46.0363" lon="4.76156">
        <ele>192</ele>
        <time>2017-12-15T11:25:49Z</time>
      </trkpt>
      <trkpt lat="46.03631" lon="4.76149">
        <ele>192</ele>
        <time>2017-12-15T11:25:50Z</time>
      </trkpt>
      <trkpt lat="46.03631" lon="4.76141">
        <ele>192</ele>
        <time>2017-12-15T11:25:51Z</time>
      </trkpt>
      <trkpt lat="46.0363" lon="4.76132">
        <ele>192</ele>
        <time>2017-12-15T11:25:52Z</time>
      </trkpt>
      <trkpt lat="46.03631" lon="4.76125">
        <ele>192</ele>
        <time>2017-12-15T11:25:53Z</time>
      </trkpt>
      <trkpt lat="46.0363" lon="4.76117">
        <ele>192</ele>
        <time>2017-12-15T11:25:54Z</time>
      </trkpt>
      <trkpt lat="46.03629" lon="4.7611">
        <ele>192</ele>
        <time>2017-12-15T11:25:55Z</time>
      </trkpt>
      <trkpt lat="46.03629" lon="4.76103">
        <ele>192</ele>
        <time>2017-12-15T11:25:56Z</time>
      </trkpt>
      <trkpt lat="46.03628" lon="4.76097">
        <ele>192</ele>
        <time>2017-12-15T11:25:57Z</time>
      </trkpt>
      <trkpt lat="46.03626" lon="4.76088">
        <ele>192</ele>
        <time>2017-12-15T11:25:58Z</time>
      </trkpt>
      <trkpt lat="46.03625" lon="4.7608">
        <ele>191</ele>
        <time>2017-12-15T11:25:59Z</time>
      </trkpt>
      <trkpt lat="46.03624" lon="4.76073">
        <ele>191</ele>
        <time>2017-12-15T11:26:00Z</time>
      </trkpt>
      <trkpt lat="46.03623" lon="4.76065">
        <ele>191</ele>
        <time>2017-12-15T11:26:01Z</time>
      </trkpt>
      <trkpt lat="46.03621" lon="4.76058">
        <ele>191</ele>
        <time>2017-12-15T11:26:02Z</time>
      </trkpt>
      <trkpt lat="46.03618" lon="4.7605">
        <ele>191</ele>
        <time>2017-12-15T11:26:03Z</time>
      </trkpt>
      <trkpt lat="46.03616" lon="4.76044">
        <ele>191</ele>
        <time>2017-12-15T11:26:04Z</time>
      </trkpt>
      <trkpt lat="46.03612" lon="4.76032">
        <ele>191</ele>
        <time>2017-12-15T11:26:06Z</time>
      </trkpt>
      <trkpt lat="46.03609" lon="4.76026">
        <ele>191</ele>
        <time>2017-12-15T11:26:07Z</time>
      </trkpt>
      <trkpt lat="46.03607" lon="4.7602">
        <ele>191</ele>
        <time>2017-12-15T11:26:08Z</time>
      </trkpt>
      <trkpt lat="46.03605" lon="4.76012">
        <ele>191</ele>
        <time>2017-12-15T11:26:09Z</time>
      </trkpt>
      <trkpt lat="46.03602" lon="4.76005">
        <ele>191</ele>
        <time>2017-12-15T11:26:10Z</time>
      </trkpt>
      <trkpt lat="46.036" lon="4.75998">
        <ele>190</ele>
        <time>2017-12-15T11:26:11Z</time>
      </trkpt>
      <trkpt lat="46.03596" lon="4.7599">
        <ele>190</ele>
        <time>2017-12-15T11:26:12Z</time>
      </trkpt>
      <trkpt lat="46.03594" lon="4.75982">
        <ele>190</ele>
        <time>2017-12-15T11:26:13Z</time>
      </trkpt>
      <trkpt lat="46.0359" lon="4.75975">
        <ele>190</ele>
        <time>2017-12-15T11:26:14Z</time>
      </trkpt>
      <trkpt lat="46.03588" lon="4.75967">
        <ele>190</ele>
        <time>2017-12-15T11:26:15Z</time>
      </trkpt>
      <trkpt lat="46.03585" lon="4.7596">
        <ele>190</ele>
        <time>2017-12-15T11:26:16Z</time>
      </trkpt>
      <trkpt lat="46.03582" lon="4.75953">
        <ele>190</ele>
        <time>2017-12-15T11:26:17Z</time>
      </trkpt>
      <trkpt lat="46.03578" lon="4.75946">
        <ele>190</ele>
        <time>2017-12-15T11:26:18Z</time>
      </trkpt>
      <trkpt lat="46.03575" lon="4.75939">
        <ele>190</ele>
        <time>2017-12-15T11:26:19Z</time>
      </trkpt>
      <trkpt lat="46.03572" lon="4.75933">
        <ele>190</ele>
        <time>2017-12-15T11:26:20Z</time>
      </trkpt>
      <trkpt lat="46.03568" lon="4.75927">
        <ele>190</ele>
        <time>2017-12-15T11:26:21Z</time>
      </trkpt>
      <trkpt lat="46.03565" lon="4.75921">
        <ele>190</ele>
        <time>2017-12-15T11:26:22Z</time>
      </trkpt>
      <trkpt lat="46.03562" lon="4.75915">
        <ele>189</ele>
        <time>2017-12-15T11:26:23Z</time>
      </trkpt>
      <trkpt lat="46.0356" lon="4.75909">
        <ele>189</ele>
        <time>2017-12-15T11:26:24Z</time>
      </trkpt>
      <trkpt lat="46.03558" lon="4.75901">
        <ele>189</ele>
        <time>2017-12-15T11:26:25Z</time>
      </trkpt>
      <trkpt lat="46.03555" lon="4.75895">
        <ele>189</ele>
        <time>2017-12-15T11:26:26Z</time>
      </trkpt>
      <trkpt lat="46.03552" lon="4.75888">
        <ele>189</ele>
        <time>2017-12-15T11:26:27Z</time>
      </trkpt>
      <trkpt lat="46.03549" lon="4.75883">
        <ele>189</ele>
        <time>2017-12-15T11:26:28Z</time>
      </trkpt>
      <trkpt lat="46.03546" lon="4.75876">
        <ele>189</ele>
        <time>2017-12-15T11:26:29Z</time>
      </trkpt>
      <trkpt lat="46.03543" lon="4.75869">
        <ele>189</ele>
        <time>2017-12-15T11:26:30Z</time>
      </trkpt>
      <trkpt lat="46.0354" lon="4.75862">
        <ele>190</ele>
        <time>2017-12-15T11:26:31Z</time>
      </trkpt>
      <trkpt lat="46.03536" lon="4.75854">
        <ele>190</ele>
        <time>2017-12-15T11:26:32Z</time>
      </trkpt>
      <trkpt lat="46.03533" lon="4.75848">
        <ele>190</ele>
        <time>2017-12-15T11:26:33Z</time>
      </trkpt>
      <trkpt lat="46.0353" lon="4.75842">
        <ele>190</ele>
        <time>2017-12-15T11:26:34Z</time>
      </trkpt>
      <trkpt lat="46.03527" lon="4.75835">
        <ele>190</ele>
        <time>2017-12-15T11:26:35Z</time>
      </trkpt>
      <trkpt lat="46.03524" lon="4.75829">
        <ele>190</ele>
        <time>2017-12-15T11:26:36Z</time>
      </trkpt>
      <trkpt lat="46.03521" lon="4.75822">
        <ele>190</ele>
        <time>2017-12-15T11:26:37Z</time>
      </trkpt>
      <trkpt lat="46.03518" lon="4.75816">
        <ele>189</ele>
        <time>2017-12-15T11:26:38Z</time>
      </trkpt>
      <trkpt lat="46.03516" lon="4.7581">
        <ele>189</ele>
        <time>2017-12-15T11:26:39Z</time>
      </trkpt>
      <trkpt lat="46.03513" lon="4.75803">
        <ele>189</ele>
        <time>2017-12-15T11:26:40Z</time>
      </trkpt>
      <trkpt lat="46.03509" lon="4.75796">
        <ele>189</ele>
        <time>2017-12-15T11:26:41Z</time>
      </trkpt>
      <trkpt lat="46.03507" lon="4.7579">
        <ele>189</ele>
        <time>2017-12-15T11:26:42Z</time>
      </trkpt>
      <trkpt lat="46.03503" lon="4.75782">
        <ele>189</ele>
        <time>2017-12-15T11:26:43Z</time>
      </trkpt>
      <trkpt lat="46.03502" lon="4.75776">
        <ele>189</ele>
        <time>2017-12-15T11:26:44Z</time>
      </trkpt>
      <trkpt lat="46.03498" lon="4.75769">
        <ele>189</ele>
        <time>2017-12-15T11:26:45Z</time>
      </trkpt>
      <trkpt lat="46.03496" lon="4.75763">
        <ele>189</ele>
        <time>2017-12-15T11:26:46Z</time>
      </trkpt>
      <trkpt lat="46.03493" lon="4.75757">
        <ele>189</ele>
        <time>2017-12-15T11:26:47Z</time>
      </trkpt>
      <trkpt lat="46.03491" lon="4.75749">
        <ele>189</ele>
        <time>2017-12-15T11:26:48Z</time>
      </trkpt>
      <trkpt lat="46.03489" lon="4.75743">
        <ele>189</ele>
        <time>2017-12-15T11:26:49Z</time>
      </trkpt>
      <trkpt lat="46.03485" lon="4.75737">
        <ele>189</ele>
        <time>2017-12-15T11:26:50Z</time>
      </trkpt>
      <trkpt lat="46.03483" lon="4.7573">
        <ele>189</ele>
        <time>2017-12-15T11:26:51Z</time>
      </trkpt>
      <trkpt lat="46.0348" lon="4.75723">
        <ele>189</ele>
        <time>2017-12-15T11:26:52Z</time>
      </trkpt>
      <trkpt lat="46.03477" lon="4.75716">
        <ele>189</ele>
        <time>2017-12-15T11:26:53Z</time>
      </trkpt>
      <trkpt lat="46.03475" lon="4.75709">
        <ele>189</ele>
        <time>2017-12-15T11:26:54Z</time>
      </trkpt>
      <trkpt lat="46.03472" lon="4.75701">
        <ele>189</ele>
        <time>2017-12-15T11:26:55Z</time>
      </trkpt>
      <trkpt lat="46.0347" lon="4.75693">
        <ele>189</ele>
        <time>2017-12-15T11:26:56Z</time>
      </trkpt>
      <trkpt lat="46.03466" lon="4.75687">
        <ele>189</ele>
        <time>2017-12-15T11:26:57Z</time>
      </trkpt>
      <trkpt lat="46.03463" lon="4.75681">
        <ele>189</ele>
        <time>2017-12-15T11:26:58Z</time>
      </trkpt>
      <trkpt lat="46.03461" lon="4.75674">
        <ele>189</ele>
        <time>2017-12-15T11:26:59Z</time>
      </trkpt>
      <trkpt lat="46.03458" lon="4.75668">
        <ele>189</ele>
        <time>2017-12-15T11:27:00Z</time>
      </trkpt>
      <trkpt lat="46.03454" lon="4.75662">
        <ele>188</ele>
        <time>2017-12-15T11:27:01Z</time>
      </trkpt>
      <trkpt lat="46.03452" lon="4.75656">
        <ele>188</ele>
        <time>2017-12-15T11:27:02Z</time>
      </trkpt>
      <trkpt lat="46.03449" lon="4.75651">
        <ele>188</ele>
        <time>2017-12-15T11:27:03Z</time>
      </trkpt>
      <trkpt lat="46.03444" lon="4.75641">
        <ele>188</ele>
        <time>2017-12-15T11:27:05Z</time>
      </trkpt>
      <trkpt lat="46.03444" lon="4.75635">
        <ele>188</ele>
        <time>2017-12-15T11:27:06Z</time>
      </trkpt>
      <trkpt lat="46.03441" lon="4.75625">
        <ele>188</ele>
        <time>2017-12-15T11:27:09Z</time>
      </trkpt>
      <trkpt lat="46.03439" lon="4.75623">
        <ele>188</ele>
        <time>2017-12-15T11:27:10Z</time>
      </trkpt>
      <trkpt lat="46.03433" lon="4.7562">
        <ele>188</ele>
        <time>2017-12-15T11:27:12Z</time>
      </trkpt>
      <trkpt lat="46.03429" lon="4.75619">
        <ele>188</ele>
        <time>2017-12-15T11:27:13Z</time>
      </trkpt>
      <trkpt lat="46.03421" lon="4.7562">
        <ele>188</ele>
        <time>2017-12-15T11:27:15Z</time>
      </trkpt>
      <trkpt lat="46.03415" lon="4.75621">
        <ele>188</ele>
        <time>2017-12-15T11:27:16Z</time>
      </trkpt>
      <trkpt lat="46.0341" lon="4.75622">
        <ele>188</ele>
        <time>2017-12-15T11:27:17Z</time>
      </trkpt>
      <trkpt lat="46.03405" lon="4.75621">
        <ele>188</ele>
        <time>2017-12-15T11:27:18Z</time>
      </trkpt>
      <trkpt lat="46.03399" lon="4.75621">
        <ele>188</ele>
        <time>2017-12-15T11:27:19Z</time>
      </trkpt>
      <trkpt lat="46.03394" lon="4.75623">
        <ele>188</ele>
        <time>2017-12-15T11:27:20Z</time>
      </trkpt>
      <trkpt lat="46.03387" lon="4.75624">
        <ele>188</ele>
        <time>2017-12-15T11:27:21Z</time>
      </trkpt>
      <trkpt lat="46.03383" lon="4.75626">
        <ele>188</ele>
        <time>2017-12-15T11:27:22Z</time>
      </trkpt>
      <trkpt lat="46.03378" lon="4.75627">
        <ele>188</ele>
        <time>2017-12-15T11:27:23Z</time>
      </trkpt>
      <trkpt lat="46.03371" lon="4.75627">
        <ele>188</ele>
        <time>2017-12-15T11:27:24Z</time>
      </trkpt>
      <trkpt lat="46.03365" lon="4.75627">
        <ele>188</ele>
        <time>2017-12-15T11:27:25Z</time>
      </trkpt>
      <trkpt lat="46.03359" lon="4.75628">
        <ele>188</ele>
        <time>2017-12-15T11:27:26Z</time>
      </trkpt>
      <trkpt lat="46.03354" lon="4.75628">
        <ele>188</ele>
        <time>2017-12-15T11:27:27Z</time>
      </trkpt>
      <trkpt lat="46.03348" lon="4.75628">
        <ele>188</ele>
        <time>2017-12-15T11:27:28Z</time>
      </trkpt>
      <trkpt lat="46.03343" lon="4.75628">
        <ele>188</ele>
        <time>2017-12-15T11:27:29Z</time>
      </trkpt>
      <trkpt lat="46.03338" lon="4.75629">
        <ele>188</ele>
        <time>2017-12-15T11:27:30Z</time>
      </trkpt>
      <trkpt lat="46.03333" lon="4.75628">
        <ele>188</ele>
        <time>2017-12-15T11:27:31Z</time>
      </trkpt>
      <trkpt lat="46.03329" lon="4.75627">
        <ele>189</ele>
        <time>2017-12-15T11:27:32Z</time>
      </trkpt>
      <trkpt lat="46.03324" lon="4.75627">
        <ele>189</ele>
        <time>2017-12-15T11:27:33Z</time>
      </trkpt>
      <trkpt lat="46.03319" lon="4.75627">
        <ele>189</ele>
        <time>2017-12-15T11:27:34Z</time>
      </trkpt>
      <trkpt lat="46.03311" lon="4.75628">
        <ele>189</ele>
        <time>2017-12-15T11:27:36Z</time>
      </trkpt>
      <trkpt lat="46.03306" lon="4.75628">
        <ele>189</ele>
        <time>2017-12-15T11:27:37Z</time>
      </trkpt>
      <trkpt lat="46.03301" lon="4.7563">
        <ele>189</ele>
        <time>2017-12-15T11:27:38Z</time>
      </trkpt>
      <trkpt lat="46.03296" lon="4.75633">
        <ele>189</ele>
        <time>2017-12-15T11:27:39Z</time>
      </trkpt>
      <trkpt lat="46.0329" lon="4.75639">
        <ele>190</ele>
        <time>2017-12-15T11:27:41Z</time>
      </trkpt>
      <trkpt lat="46.03286" lon="4.75643">
        <ele>190</ele>
        <time>2017-12-15T11:27:42Z</time>
      </trkpt>
      <trkpt lat="46.03282" lon="4.75647">
        <ele>190</ele>
        <time>2017-12-15T11:27:43Z</time>
      </trkpt>
      <trkpt lat="46.03278" lon="4.75651">
        <ele>191</ele>
        <time>2017-12-15T11:27:44Z</time>
      </trkpt>
      <trkpt lat="46.03273" lon="4.75654">
        <ele>191</ele>
        <time>2017-12-15T11:27:45Z</time>
      </trkpt>
      <trkpt lat="46.03267" lon="4.75655">
        <ele>192</ele>
        <time>2017-12-15T11:27:46Z</time>
      </trkpt>
      <trkpt lat="46.03262" lon="4.75656">
        <ele>192</ele>
        <time>2017-12-15T11:27:47Z</time>
      </trkpt>
      <trkpt lat="46.03258" lon="4.75656">
        <ele>193</ele>
        <time>2017-12-15T11:27:48Z</time>
      </trkpt>
      <trkpt lat="46.0325" lon="4.75656">
        <ele>193</ele>
        <time>2017-12-15T11:27:50Z</time>
      </trkpt>
      <trkpt lat="46.03247" lon="4.75657">
        <ele>193</ele>
        <time>2017-12-15T11:27:51Z</time>
      </trkpt>
      <trkpt lat="46.03239" lon="4.75661">
        <ele>193</ele>
        <time>2017-12-15T11:27:54Z</time>
      </trkpt>
      <trkpt lat="46.03233" lon="4.75661">
        <ele>192</ele>
        <time>2017-12-15T11:27:55Z</time>
      </trkpt>
      <trkpt lat="46.03228" lon="4.75662">
        <ele>191</ele>
        <time>2017-12-15T11:27:56Z</time>
      </trkpt>
      <trkpt lat="46.03223" lon="4.75662">
        <ele>191</ele>
        <time>2017-12-15T11:27:57Z</time>
      </trkpt>
      <trkpt lat="46.03216" lon="4.75663">
        <ele>190</ele>
        <time>2017-12-15T11:27:58Z</time>
      </trkpt>
      <trkpt lat="46.03209" lon="4.75663">
        <ele>190</ele>
        <time>2017-12-15T11:27:59Z</time>
      </trkpt>
      <trkpt lat="46.03202" lon="4.75663">
        <ele>189</ele>
        <time>2017-12-15T11:28:00Z</time>
      </trkpt>
      <trkpt lat="46.03196" lon="4.75666">
        <ele>189</ele>
        <time>2017-12-15T11:28:01Z</time>
      </trkpt>
      <trkpt lat="46.0319" lon="4.75667">
        <ele>189</ele>
        <time>2017-12-15T11:28:02Z</time>
      </trkpt>
      <trkpt lat="46.03184" lon="4.75668">
        <ele>191</ele>
        <time>2017-12-15T11:28:03Z</time>
      </trkpt>
      <trkpt lat="46.03179" lon="4.7567">
        <ele>190</ele>
        <time>2017-12-15T11:28:04Z</time>
      </trkpt>
      <trkpt lat="46.03174" lon="4.7567">
        <ele>189</ele>
        <time>2017-12-15T11:28:05Z</time>
      </trkpt>
      <trkpt lat="46.03169" lon="4.75673">
        <ele>189</ele>
        <time>2017-12-15T11:28:06Z</time>
      </trkpt>
      <trkpt lat="46.03164" lon="4.75672">
        <ele>188</ele>
        <time>2017-12-15T11:28:07Z</time>
      </trkpt>
      <trkpt lat="46.03158" lon="4.75672">
        <ele>188</ele>
        <time>2017-12-15T11:28:08Z</time>
      </trkpt>
      <trkpt lat="46.03152" lon="4.75673">
        <ele>187</ele>
        <time>2017-12-15T11:28:09Z</time>
      </trkpt>
      <trkpt lat="46.03147" lon="4.75674">
        <ele>187</ele>
        <time>2017-12-15T11:28:10Z</time>
      </trkpt>
      <trkpt lat="46.03142" lon="4.75673">
        <ele>187</ele>
        <time>2017-12-15T11:28:11Z</time>
      </trkpt>
      <trkpt lat="46.03137" lon="4.75676">
        <ele>187</ele>
        <time>2017-12-15T11:28:12Z</time>
      </trkpt>
      <trkpt lat="46.03132" lon="4.75677">
        <ele>187</ele>
        <time>2017-12-15T11:28:13Z</time>
      </trkpt>
      <trkpt lat="46.03126" lon="4.75678">
        <ele>187</ele>
        <time>2017-12-15T11:28:14Z</time>
      </trkpt>
      <trkpt lat="46.03121" lon="4.7568">
        <ele>186</ele>
        <time>2017-12-15T11:28:15Z</time>
      </trkpt>
      <trkpt lat="46.03115" lon="4.7568">
        <ele>186</ele>
        <time>2017-12-15T11:28:16Z</time>
      </trkpt>
      <trkpt lat="46.0311" lon="4.7568">
        <ele>186</ele>
        <time>2017-12-15T11:28:17Z</time>
      </trkpt>
      <trkpt lat="46.03105" lon="4.75679">
        <ele>186</ele>
        <time>2017-12-15T11:28:18Z</time>
      </trkpt>
      <trkpt lat="46.031" lon="4.75678">
        <ele>185</ele>
        <time>2017-12-15T11:28:19Z</time>
      </trkpt>
      <trkpt lat="46.03094" lon="4.75678">
        <ele>185</ele>
        <time>2017-12-15T11:28:20Z</time>
      </trkpt>
      <trkpt lat="46.03089" lon="4.75679">
        <ele>185</ele>
        <time>2017-12-15T11:28:21Z</time>
      </trkpt>
      <trkpt lat="46.03085" lon="4.7568">
        <ele>185</ele>
        <time>2017-12-15T11:28:22Z</time>
      </trkpt>
      <trkpt lat="46.03078" lon="4.75681">
        <ele>184</ele>
        <time>2017-12-15T11:28:23Z</time>
      </trkpt>
      <trkpt lat="46.03074" lon="4.75681">
        <ele>184</ele>
        <time>2017-12-15T11:28:24Z</time>
      </trkpt>
      <trkpt lat="46.03068" lon="4.75682">
        <ele>184</ele>
        <time>2017-12-15T11:28:25Z</time>
      </trkpt>
      <trkpt lat="46.03063" lon="4.75684">
        <ele>184</ele>
        <time>2017-12-15T11:28:26Z</time>
      </trkpt>
      <trkpt lat="46.03057" lon="4.75684">
        <ele>184</ele>
        <time>2017-12-15T11:28:27Z</time>
      </trkpt>
      <trkpt lat="46.03051" lon="4.75686">
        <ele>184</ele>
        <time>2017-12-15T11:28:28Z</time>
      </trkpt>
      <trkpt lat="46.03046" lon="4.75688">
        <ele>184</ele>
        <time>2017-12-15T11:28:29Z</time>
      </trkpt>
      <trkpt lat="46.03041" lon="4.7569">
        <ele>184</ele>
        <time>2017-12-15T11:28:30Z</time>
      </trkpt>
      <trkpt lat="46.03035" lon="4.75693">
        <ele>184</ele>
        <time>2017-12-15T11:28:31Z</time>
      </trkpt>
      <trkpt lat="46.0303" lon="4.75695">
        <ele>184</ele>
        <time>2017-12-15T11:28:32Z</time>
      </trkpt>
      <trkpt lat="46.03025" lon="4.75695">
        <ele>183</ele>
        <time>2017-12-15T11:28:33Z</time>
      </trkpt>
      <trkpt lat="46.0302" lon="4.75697">
        <ele>183</ele>
        <time>2017-12-15T11:28:34Z</time>
      </trkpt>
      <trkpt lat="46.03015" lon="4.75698">
        <ele>183</ele>
        <time>2017-12-15T11:28:35Z</time>
      </trkpt>
      <trkpt lat="46.0301" lon="4.757">
        <ele>183</ele>
        <time>2017-12-15T11:28:36Z</time>
      </trkpt>
      <trkpt lat="46.03006" lon="4.75702">
        <ele>184</ele>
        <time>2017-12-15T11:28:37Z</time>
      </trkpt>
      <trkpt lat="46.03002" lon="4.75704">
        <ele>184</ele>
        <time>2017-12-15T11:28:38Z</time>
      </trkpt>
      <trkpt lat="46.02997" lon="4.75704">
        <ele>183</ele>
        <time>2017-12-15T11:28:39Z</time>
      </trkpt>
      <trkpt lat="46.02992" lon="4.75707">
        <ele>183</ele>
        <time>2017-12-15T11:28:40Z</time>
      </trkpt>
      <trkpt lat="46.02988" lon="4.75709">
        <ele>183</ele>
        <time>2017-12-15T11:28:41Z</time>
      </trkpt>
      <trkpt lat="46.02983" lon="4.7571">
        <ele>183</ele>
        <time>2017-12-15T11:28:42Z</time>
      </trkpt>
      <trkpt lat="46.02978" lon="4.75711">
        <ele>183</ele>
        <time>2017-12-15T11:28:43Z</time>
      </trkpt>
      <trkpt lat="46.02972" lon="4.75713">
        <ele>183</ele>
        <time>2017-12-15T11:28:44Z</time>
      </trkpt>
      <trkpt lat="46.02966" lon="4.75715">
        <ele>183</ele>
        <time>2017-12-15T11:28:45Z</time>
      </trkpt>
      <trkpt lat="46.02959" lon="4.75716">
        <ele>183</ele>
        <time>2017-12-15T11:28:46Z</time>
      </trkpt>
      <trkpt lat="46.02953" lon="4.75717">
        <ele>183</ele>
        <time>2017-12-15T11:28:47Z</time>
      </trkpt>
      <trkpt lat="46.02947" lon="4.75718">
        <ele>183</ele>
        <time>2017-12-15T11:28:48Z</time>
      </trkpt>
      <trkpt lat="46.02942" lon="4.7572">
        <ele>183</ele>
        <time>2017-12-15T11:28:49Z</time>
      </trkpt>
      <trkpt lat="46.02936" lon="4.75721">
        <ele>183</ele>
        <time>2017-12-15T11:28:50Z</time>
      </trkpt>
      <trkpt lat="46.02931" lon="4.75722">
        <ele>183</ele>
        <time>2017-12-15T11:28:51Z</time>
      </trkpt>
      <trkpt lat="46.02926" lon="4.75723">
        <ele>183</ele>
        <time>2017-12-15T11:28:52Z</time>
      </trkpt>
      <trkpt lat="46.02922" lon="4.75723">
        <ele>183</ele>
        <time>2017-12-15T11:28:53Z</time>
      </trkpt>
      <trkpt lat="46.02917" lon="4.75723">
        <ele>183</ele>
        <time>2017-12-15T11:28:54Z</time>
      </trkpt>
      <trkpt lat="46.02912" lon="4.75724">
        <ele>183</ele>
        <time>2017-12-15T11:28:55Z</time>
      </trkpt>
      <trkpt lat="46.02908" lon="4.75725">
        <ele>183</ele>
        <time>2017-12-15T11:28:56Z</time>
      </trkpt>
      <trkpt lat="46.02902" lon="4.75724">
        <ele>183</ele>
        <time>2017-12-15T11:28:57Z</time>
      </trkpt>
      <trkpt lat="46.02897" lon="4.75724">
        <ele>183</ele>
        <time>2017-12-15T11:28:58Z</time>
      </trkpt>
      <trkpt lat="46.02891" lon="4.75725">
        <ele>183</ele>
        <time>2017-12-15T11:28:59Z</time>
      </trkpt>
      <trkpt lat="46.02886" lon="4.75726">
        <ele>183</ele>
        <time>2017-12-15T11:29:00Z</time>
      </trkpt>
      <trkpt lat="46.0288" lon="4.75728">
        <ele>183</ele>
        <time>2017-12-15T11:29:01Z</time>
      </trkpt>
      <trkpt lat="46.02873" lon="4.75727">
        <ele>183</ele>
        <time>2017-12-15T11:29:02Z</time>
      </trkpt>
      <trkpt lat="46.02867" lon="4.75728">
        <ele>184</ele>
        <time>2017-12-15T11:29:03Z</time>
      </trkpt>
      <trkpt lat="46.02862" lon="4.75728">
        <ele>184</ele>
        <time>2017-12-15T11:29:04Z</time>
      </trkpt>
      <trkpt lat="46.02856" lon="4.75727">
        <ele>184</ele>
        <time>2017-12-15T11:29:05Z</time>
      </trkpt>
      <trkpt lat="46.02848" lon="4.75727">
        <ele>184</ele>
        <time>2017-12-15T11:29:06Z</time>
      </trkpt>
      <trkpt lat="46.02841" lon="4.75727">
        <ele>184</ele>
        <time>2017-12-15T11:29:07Z</time>
      </trkpt>
      <trkpt lat="46.02835" lon="4.75725">
        <ele>184</ele>
        <time>2017-12-15T11:29:08Z</time>
      </trkpt>
      <trkpt lat="46.02829" lon="4.75725">
        <ele>184</ele>
        <time>2017-12-15T11:29:09Z</time>
      </trkpt>
      <trkpt lat="46.02824" lon="4.75726">
        <ele>184</ele>
        <time>2017-12-15T11:29:10Z</time>
      </trkpt>
      <trkpt lat="46.02819" lon="4.75725">
        <ele>184</ele>
        <time>2017-12-15T11:29:11Z</time>
      </trkpt>
      <trkpt lat="46.02813" lon="4.75725">
        <ele>184</ele>
        <time>2017-12-15T11:29:12Z</time>
      </trkpt>
      <trkpt lat="46.02808" lon="4.75725">
        <ele>184</ele>
        <time>2017-12-15T11:29:13Z</time>
      </trkpt>
      <trkpt lat="46.02802" lon="4.75724">
        <ele>184</ele>
        <time>2017-12-15T11:29:14Z</time>
      </trkpt>
      <trkpt lat="46.02798" lon="4.75722">
        <ele>183</ele>
        <time>2017-12-15T11:29:15Z</time>
      </trkpt>
      <trkpt lat="46.02792" lon="4.75722">
        <ele>183</ele>
        <time>2017-12-15T11:29:16Z</time>
      </trkpt>
      <trkpt lat="46.02787" lon="4.75722">
        <ele>183</ele>
        <time>2017-12-15T11:29:17Z</time>
      </trkpt>
      <trkpt lat="46.02781" lon="4.75723">
        <ele>183</ele>
        <time>2017-12-15T11:29:18Z</time>
      </trkpt>
      <trkpt lat="46.02776" lon="4.75723">
        <ele>183</ele>
        <time>2017-12-15T11:29:19Z</time>
      </trkpt>
      <trkpt lat="46.02771" lon="4.75721">
        <ele>183</ele>
        <time>2017-12-15T11:29:20Z</time>
      </trkpt>
      <trkpt lat="46.02766" lon="4.7572">
        <ele>183</ele>
        <time>2017-12-15T11:29:21Z</time>
      </trkpt>
      <trkpt lat="46.0276" lon="4.75719">
        <ele>183</ele>
        <time>2017-12-15T11:29:22Z</time>
      </trkpt>
      <trkpt lat="46.02756" lon="4.75719">
        <ele>183</ele>
        <time>2017-12-15T11:29:23Z</time>
      </trkpt>
      <trkpt lat="46.02751" lon="4.75718">
        <ele>183</ele>
        <time>2017-12-15T11:29:24Z</time>
      </trkpt>
      <trkpt lat="46.02746" lon="4.75719">
        <ele>182</ele>
        <time>2017-12-15T11:29:25Z</time>
      </trkpt>
      <trkpt lat="46.02738" lon="4.75721">
        <ele>183</ele>
        <time>2017-12-15T11:29:27Z</time>
      </trkpt>
      <trkpt lat="46.02734" lon="4.75724">
        <ele>183</ele>
        <time>2017-12-15T11:29:28Z</time>
      </trkpt>
      <trkpt lat="46.02729" lon="4.75726">
        <ele>183</ele>
        <time>2017-12-15T11:29:29Z</time>
      </trkpt>
      <trkpt lat="46.02724" lon="4.75728">
        <ele>182</ele>
        <time>2017-12-15T11:29:30Z</time>
      </trkpt>
      <trkpt lat="46.02718" lon="4.75728">
        <ele>182</ele>
        <time>2017-12-15T11:29:31Z</time>
      </trkpt>
      <trkpt lat="46.02713" lon="4.75731">
        <ele>182</ele>
        <time>2017-12-15T11:29:32Z</time>
      </trkpt>
      <trkpt lat="46.02707" lon="4.75734">
        <ele>182</ele>
        <time>2017-12-15T11:29:33Z</time>
      </trkpt>
      <trkpt lat="46.02702" lon="4.75739">
        <ele>182</ele>
        <time>2017-12-15T11:29:34Z</time>
      </trkpt>
      <trkpt lat="46.02694" lon="4.75742">
        <ele>182</ele>
        <time>2017-12-15T11:29:36Z</time>
      </trkpt>
      <trkpt lat="46.02689" lon="4.75744">
        <ele>182</ele>
        <time>2017-12-15T11:29:37Z</time>
      </trkpt>
      <trkpt lat="46.02685" lon="4.75745">
        <ele>181</ele>
        <time>2017-12-15T11:29:38Z</time>
      </trkpt>
      <trkpt lat="46.02679" lon="4.75746">
        <ele>181</ele>
        <time>2017-12-15T11:29:39Z</time>
      </trkpt>
      <trkpt lat="46.02671" lon="4.75745">
        <ele>181</ele>
        <time>2017-12-15T11:29:41Z</time>
      </trkpt>
      <trkpt lat="46.02666" lon="4.75747">
        <ele>181</ele>
        <time>2017-12-15T11:29:42Z</time>
      </trkpt>
      <trkpt lat="46.02657" lon="4.75745">
        <ele>181</ele>
        <time>2017-12-15T11:29:44Z</time>
      </trkpt>
      <trkpt lat="46.02653" lon="4.75746">
        <ele>182</ele>
        <time>2017-12-15T11:29:45Z</time>
      </trkpt>
      <trkpt lat="46.02644" lon="4.75745">
        <ele>182</ele>
        <time>2017-12-15T11:29:47Z</time>
      </trkpt>
      <trkpt lat="46.02641" lon="4.75745">
        <ele>182</ele>
        <time>2017-12-15T11:29:48Z</time>
      </trkpt>
      <trkpt lat="46.02634" lon="4.75743">
        <ele>182</ele>
        <time>2017-12-15T11:29:50Z</time>
      </trkpt>
      <trkpt lat="46.02631" lon="4.75745">
        <ele>182</ele>
        <time>2017-12-15T11:29:51Z</time>
      </trkpt>
      <trkpt lat="46.02623" lon="4.75743">
        <ele>182</ele>
        <time>2017-12-15T11:29:53Z</time>
      </trkpt>
      <trkpt lat="46.02621" lon="4.75742">
        <ele>182</ele>
        <time>2017-12-15T11:29:54Z</time>
      </trkpt>
      <trkpt lat="46.02614" lon="4.75743">
        <ele>182</ele>
        <time>2017-12-15T11:29:56Z</time>
      </trkpt>
      <trkpt lat="46.0261" lon="4.75744">
        <ele>182</ele>
        <time>2017-12-15T11:29:57Z</time>
      </trkpt>
      <trkpt lat="46.02604" lon="4.75743">
        <ele>183</ele>
        <time>2017-12-15T11:29:59Z</time>
      </trkpt>
      <trkpt lat="46.02601" lon="4.75743">
        <ele>183</ele>
        <time>2017-12-15T11:30:00Z</time>
      </trkpt>
      <trkpt lat="46.02593" lon="4.75741">
        <ele>183</ele>
        <time>2017-12-15T11:30:03Z</time>
      </trkpt>
      <trkpt lat="46.02591" lon="4.75741">
        <ele>183</ele>
        <time>2017-12-15T11:30:04Z</time>
      </trkpt>
      <trkpt lat="46.02582" lon="4.75741">
        <ele>184</ele>
        <time>2017-12-15T11:30:07Z</time>
      </trkpt>
      <trkpt lat="46.02578" lon="4.75741">
        <ele>184</ele>
        <time>2017-12-15T11:30:08Z</time>
      </trkpt>
      <trkpt lat="46.0257" lon="4.7574">
        <ele>185</ele>
        <time>2017-12-15T11:30:11Z</time>
      </trkpt>
      <trkpt lat="46.02567" lon="4.75739">
        <ele>185</ele>
        <time>2017-12-15T11:30:12Z</time>
      </trkpt>
      <trkpt lat="46.02559" lon="4.75737">
        <ele>185</ele>
        <time>2017-12-15T11:30:15Z</time>
      </trkpt>
      <trkpt lat="46.02557" lon="4.75737">
        <ele>186</ele>
        <time>2017-12-15T11:30:16Z</time>
      </trkpt>
      <trkpt lat="46.02548" lon="4.75739">
        <ele>186</ele>
        <time>2017-12-15T11:30:19Z</time>
      </trkpt>
      <trkpt lat="46.02545" lon="4.75739">
        <ele>186</ele>
        <time>2017-12-15T11:30:20Z</time>
      </trkpt>
      <trkpt lat="46.02537" lon="4.7574">
        <ele>187</ele>
        <time>2017-12-15T11:30:23Z</time>
      </trkpt>
      <trkpt lat="46.02535" lon="4.7574">
        <ele>187</ele>
        <time>2017-12-15T11:30:24Z</time>
      </trkpt>
      <trkpt lat="46.02527" lon="4.75741">
        <ele>187</ele>
        <time>2017-12-15T11:30:27Z</time>
      </trkpt>
      <trkpt lat="46.02524" lon="4.75742">
        <ele>187</ele>
        <time>2017-12-15T11:30:28Z</time>
      </trkpt>
      <trkpt lat="46.02517" lon="4.75743">
        <ele>188</ele>
        <time>2017-12-15T11:30:31Z</time>
      </trkpt>
      <trkpt lat="46.02514" lon="4.75744">
        <ele>188</ele>
        <time>2017-12-15T11:30:32Z</time>
      </trkpt>
      <trkpt lat="46.02507" lon="4.75747">
        <ele>189</ele>
        <time>2017-12-15T11:30:35Z</time>
      </trkpt>
      <trkpt lat="46.02504" lon="4.75748">
        <ele>189</ele>
        <time>2017-12-15T11:30:36Z</time>
      </trkpt>
      <trkpt lat="46.02498" lon="4.75751">
        <ele>190</ele>
        <time>2017-12-15T11:30:38Z</time>
      </trkpt>
      <trkpt lat="46.02495" lon="4.75752">
        <ele>190</ele>
        <time>2017-12-15T11:30:39Z</time>
      </trkpt>
      <trkpt lat="46.02489" lon="4.75754">
        <ele>190</ele>
        <time>2017-12-15T11:30:41Z</time>
      </trkpt>
      <trkpt lat="46.02486" lon="4.75756">
        <ele>190</ele>
        <time>2017-12-15T11:30:42Z</time>
      </trkpt>
      <trkpt lat="46.0248" lon="4.75758">
        <ele>191</ele>
        <time>2017-12-15T11:30:44Z</time>
      </trkpt>
      <trkpt lat="46.02477" lon="4.75759">
        <ele>191</ele>
        <time>2017-12-15T11:30:45Z</time>
      </trkpt>
      <trkpt lat="46.02469" lon="4.75762">
        <ele>191</ele>
        <time>2017-12-15T11:30:48Z</time>
      </trkpt>
      <trkpt lat="46.02467" lon="4.75764">
        <ele>191</ele>
        <time>2017-12-15T11:30:49Z</time>
      </trkpt>
      <trkpt lat="46.02459" lon="4.75769">
        <ele>191</ele>
        <time>2017-12-15T11:30:52Z</time>
      </trkpt>
      <trkpt lat="46.02456" lon="4.75771">
        <ele>191</ele>
        <time>2017-12-15T11:30:53Z</time>
      </trkpt>
      <trkpt lat="46.02448" lon="4.75775">
        <ele>191</ele>
        <time>2017-12-15T11:30:56Z</time>
      </trkpt>
      <trkpt lat="46.02445" lon="4.75777">
        <ele>191</ele>
        <time>2017-12-15T11:30:57Z</time>
      </trkpt>
      <trkpt lat="46.02437" lon="4.75781">
        <ele>191</ele>
        <time>2017-12-15T11:31:00Z</time>
      </trkpt>
      <trkpt lat="46.02435" lon="4.75783">
        <ele>191</ele>
        <time>2017-12-15T11:31:01Z</time>
      </trkpt>
      <trkpt lat="46.02427" lon="4.75789">
        <ele>191</ele>
        <time>2017-12-15T11:31:04Z</time>
      </trkpt>
      <trkpt lat="46.02424" lon="4.75791">
        <ele>192</ele>
        <time>2017-12-15T11:31:05Z</time>
      </trkpt>
      <trkpt lat="46.02418" lon="4.75794">
        <ele>192</ele>
        <time>2017-12-15T11:31:07Z</time>
      </trkpt>
      <trkpt lat="46.02415" lon="4.75796">
        <ele>192</ele>
        <time>2017-12-15T11:31:08Z</time>
      </trkpt>
      <trkpt lat="46.02408" lon="4.758">
        <ele>192</ele>
        <time>2017-12-15T11:31:10Z</time>
      </trkpt>
      <trkpt lat="46.02405" lon="4.75802">
        <ele>192</ele>
        <time>2017-12-15T11:31:11Z</time>
      </trkpt>
      <trkpt lat="46.02399" lon="4.75806">
        <ele>192</ele>
        <time>2017-12-15T11:31:13Z</time>
      </trkpt>
      <trkpt lat="46.02396" lon="4.75809">
        <ele>192</ele>
        <time>2017-12-15T11:31:14Z</time>
      </trkpt>
      <trkpt lat="46.0239" lon="4.75813">
        <ele>192</ele>
        <time>2017-12-15T11:31:16Z</time>
      </trkpt>
      <trkpt lat="46.02387" lon="4.75815">
        <ele>192</ele>
        <time>2017-12-15T11:31:17Z</time>
      </trkpt>
      <trkpt lat="46.02381" lon="4.7582">
        <ele>192</ele>
        <time>2017-12-15T11:31:19Z</time>
      </trkpt>
      <trkpt lat="46.02378" lon="4.75822">
        <ele>192</ele>
        <time>2017-12-15T11:31:20Z</time>
      </trkpt>
      <trkpt lat="46.02372" lon="4.75828">
        <ele>192</ele>
        <time>2017-12-15T11:31:22Z</time>
      </trkpt>
      <trkpt lat="46.02369" lon="4.75831">
        <ele>192</ele>
        <time>2017-12-15T11:31:23Z</time>
      </trkpt>
      <trkpt lat="46.02362" lon="4.75838">
        <ele>193</ele>
        <time>2017-12-15T11:31:25Z</time>
      </trkpt>
      <trkpt lat="46.02359" lon="4.75841">
        <ele>193</ele>
        <time>2017-12-15T11:31:26Z</time>
      </trkpt>
      <trkpt lat="46.02352" lon="4.75847">
        <ele>193</ele>
        <time>2017-12-15T11:31:28Z</time>
      </trkpt>
      <trkpt lat="46.02348" lon="4.7585">
        <ele>193</ele>
        <time>2017-12-15T11:31:29Z</time>
      </trkpt>
      <trkpt lat="46.0234" lon="4.75856">
        <ele>193</ele>
        <time>2017-12-15T11:31:31Z</time>
      </trkpt>
      <trkpt lat="46.02337" lon="4.75859">
        <ele>193</ele>
        <time>2017-12-15T11:31:32Z</time>
      </trkpt>
      <trkpt lat="46.0233" lon="4.75866">
        <ele>193</ele>
        <time>2017-12-15T11:31:34Z</time>
      </trkpt>
      <trkpt lat="46.02326" lon="4.75867">
        <ele>193</ele>
        <time>2017-12-15T11:31:35Z</time>
      </trkpt>
      <trkpt lat="46.02322" lon="4.75871">
        <ele>193</ele>
        <time>2017-12-15T11:31:36Z</time>
      </trkpt>
      <trkpt lat="46.02318" lon="4.75875">
        <ele>193</ele>
        <time>2017-12-15T11:31:37Z</time>
      </trkpt>
      <trkpt lat="46.02314" lon="4.75879">
        <ele>193</ele>
        <time>2017-12-15T11:31:38Z</time>
      </trkpt>
      <trkpt lat="46.0231" lon="4.75883">
        <ele>193</ele>
        <time>2017-12-15T11:31:39Z</time>
      </trkpt>
      <trkpt lat="46.02305" lon="4.75886">
        <ele>193</ele>
        <time>2017-12-15T11:31:40Z</time>
      </trkpt>
      <trkpt lat="46.02301" lon="4.7589">
        <ele>193</ele>
        <time>2017-12-15T11:31:41Z</time>
      </trkpt>
      <trkpt lat="46.02294" lon="4.75898">
        <ele>193</ele>
        <time>2017-12-15T11:31:43Z</time>
      </trkpt>
      <trkpt lat="46.0229" lon="4.75902">
        <ele>193</ele>
        <time>2017-12-15T11:31:44Z</time>
      </trkpt>
      <trkpt lat="46.02286" lon="4.75906">
        <ele>193</ele>
        <time>2017-12-15T11:31:45Z</time>
      </trkpt>
      <trkpt lat="46.02281" lon="4.75911">
        <ele>193</ele>
        <time>2017-12-15T11:31:46Z</time>
      </trkpt>
      <trkpt lat="46.02277" lon="4.75916">
        <ele>193</ele>
        <time>2017-12-15T11:31:47Z</time>
      </trkpt>
      <trkpt lat="46.02271" lon="4.75919">
        <ele>193</ele>
        <time>2017-12-15T11:31:48Z</time>
      </trkpt>
      <trkpt lat="46.02267" lon="4.75923">
        <ele>193</ele>
        <time>2017-12-15T11:31:49Z</time>
      </trkpt>
      <trkpt lat="46.02262" lon="4.75928">
        <ele>193</ele>
        <time>2017-12-15T11:31:50Z</time>
      </trkpt>
      <trkpt lat="46.02258" lon="4.75933">
        <ele>193</ele>
        <time>2017-12-15T11:31:51Z</time>
      </trkpt>
      <trkpt lat="46.02254" lon="4.75936">
        <ele>193</ele>
        <time>2017-12-15T11:31:52Z</time>
      </trkpt>
      <trkpt lat="46.02253" lon="4.75941">
        <ele>194</ele>
        <time>2017-12-15T11:31:53Z</time>
      </trkpt>
      <trkpt lat="46.02246" lon="4.75944">
        <ele>193</ele>
        <time>2017-12-15T11:31:54Z</time>
      </trkpt>
      <trkpt lat="46.02241" lon="4.75947">
        <ele>193</ele>
        <time>2017-12-15T11:31:55Z</time>
      </trkpt>
      <trkpt lat="46.02236" lon="4.75952">
        <ele>193</ele>
        <time>2017-12-15T11:31:56Z</time>
      </trkpt>
      <trkpt lat="46.0223" lon="4.75958">
        <ele>193</ele>
        <time>2017-12-15T11:31:57Z</time>
      </trkpt>
      <trkpt lat="46.02225" lon="4.75962">
        <ele>193</ele>
        <time>2017-12-15T11:31:58Z</time>
      </trkpt>
      <trkpt lat="46.02219" lon="4.75967">
        <ele>193</ele>
        <time>2017-12-15T11:31:59Z</time>
      </trkpt>
      <trkpt lat="46.02213" lon="4.75971">
        <ele>193</ele>
        <time>2017-12-15T11:32:00Z</time>
      </trkpt>
      <trkpt lat="46.02207" lon="4.75976">
        <ele>192</ele>
        <time>2017-12-15T11:32:01Z</time>
      </trkpt>
      <trkpt lat="46.02201" lon="4.75981">
        <ele>192</ele>
        <time>2017-12-15T11:32:02Z</time>
      </trkpt>
      <trkpt lat="46.02195" lon="4.75986">
        <ele>192</ele>
        <time>2017-12-15T11:32:03Z</time>
      </trkpt>
      <trkpt lat="46.02191" lon="4.75991">
        <ele>192</ele>
        <time>2017-12-15T11:32:04Z</time>
      </trkpt>
      <trkpt lat="46.02187" lon="4.75993">
        <ele>192</ele>
        <time>2017-12-15T11:32:05Z</time>
      </trkpt>
      <trkpt lat="46.02182" lon="4.75997">
        <ele>192</ele>
        <time>2017-12-15T11:32:06Z</time>
      </trkpt>
      <trkpt lat="46.02177" lon="4.76001">
        <ele>193</ele>
        <time>2017-12-15T11:32:07Z</time>
      </trkpt>
      <trkpt lat="46.02172" lon="4.76005">
        <ele>192</ele>
        <time>2017-12-15T11:32:08Z</time>
      </trkpt>
      <trkpt lat="46.02169" lon="4.76009">
        <ele>193</ele>
        <time>2017-12-15T11:32:09Z</time>
      </trkpt>
      <trkpt lat="46.02165" lon="4.76014">
        <ele>193</ele>
        <time>2017-12-15T11:32:10Z</time>
      </trkpt>
      <trkpt lat="46.0216" lon="4.76018">
        <ele>193</ele>
        <time>2017-12-15T11:32:11Z</time>
      </trkpt>
      <trkpt lat="46.02157" lon="4.76022">
        <ele>193</ele>
        <time>2017-12-15T11:32:12Z</time>
      </trkpt>
      <trkpt lat="46.02153" lon="4.76025">
        <ele>193</ele>
        <time>2017-12-15T11:32:13Z</time>
      </trkpt>
      <trkpt lat="46.02149" lon="4.76029">
        <ele>193</ele>
        <time>2017-12-15T11:32:14Z</time>
      </trkpt>
      <trkpt lat="46.02146" lon="4.76033">
        <ele>193</ele>
        <time>2017-12-15T11:32:15Z</time>
      </trkpt>
      <trkpt lat="46.02142" lon="4.76037">
        <ele>193</ele>
        <time>2017-12-15T11:32:16Z</time>
      </trkpt>
      <trkpt lat="46.02137" lon="4.76043">
        <ele>193</ele>
        <time>2017-12-15T11:32:17Z</time>
      </trkpt>
      <trkpt lat="46.02133" lon="4.76048">
        <ele>194</ele>
        <time>2017-12-15T11:32:18Z</time>
      </trkpt>
      <trkpt lat="46.02127" lon="4.76052">
        <ele>194</ele>
        <time>2017-12-15T11:32:19Z</time>
      </trkpt>
      <trkpt lat="46.02123" lon="4.76057">
        <ele>194</ele>
        <time>2017-12-15T11:32:20Z</time>
      </trkpt>
      <trkpt lat="46.02119" lon="4.76062">
        <ele>194</ele>
        <time>2017-12-15T11:32:21Z</time>
      </trkpt>
      <trkpt lat="46.02114" lon="4.76066">
        <ele>194</ele>
        <time>2017-12-15T11:32:22Z</time>
      </trkpt>
      <trkpt lat="46.0211" lon="4.7607">
        <ele>194</ele>
        <time>2017-12-15T11:32:23Z</time>
      </trkpt>
      <trkpt lat="46.02103" lon="4.76073">
        <ele>195</ele>
        <time>2017-12-15T11:32:24Z</time>
      </trkpt>
      <trkpt lat="46.02098" lon="4.76077">
        <ele>195</ele>
        <time>2017-12-15T11:32:25Z</time>
      </trkpt>
      <trkpt lat="46.02092" lon="4.7608">
        <ele>195</ele>
        <time>2017-12-15T11:32:26Z</time>
      </trkpt>
      <trkpt lat="46.02086" lon="4.76083">
        <ele>196</ele>
        <time>2017-12-15T11:32:27Z</time>
      </trkpt>
      <trkpt lat="46.02081" lon="4.76085">
        <ele>196</ele>
        <time>2017-12-15T11:32:28Z</time>
      </trkpt>
      <trkpt lat="46.02073" lon="4.76089">
        <ele>196</ele>
        <time>2017-12-15T11:32:30Z</time>
      </trkpt>
      <trkpt lat="46.02071" lon="4.76089">
        <ele>196</ele>
        <time>2017-12-15T11:32:31Z</time>
      </trkpt>
      <trkpt lat="46.02062" lon="4.76092">
        <ele>197</ele>
        <time>2017-12-15T11:32:33Z</time>
      </trkpt>
      <trkpt lat="46.02057" lon="4.76094">
        <ele>197</ele>
        <time>2017-12-15T11:32:34Z</time>
      </trkpt>
      <trkpt lat="46.02052" lon="4.76095">
        <ele>197</ele>
        <time>2017-12-15T11:32:35Z</time>
      </trkpt>
      <trkpt lat="46.02047" lon="4.76096">
        <ele>197</ele>
        <time>2017-12-15T11:32:36Z</time>
      </trkpt>
      <trkpt lat="46.02042" lon="4.76098">
        <ele>197</ele>
        <time>2017-12-15T11:32:37Z</time>
      </trkpt>
      <trkpt lat="46.02038" lon="4.76099">
        <ele>197</ele>
        <time>2017-12-15T11:32:38Z</time>
      </trkpt>
      <trkpt lat="46.02029" lon="4.76103">
        <ele>197</ele>
        <time>2017-12-15T11:32:40Z</time>
      </trkpt>
      <trkpt lat="46.02025" lon="4.76104">
        <ele>197</ele>
        <time>2017-12-15T11:32:41Z</time>
      </trkpt>
      <trkpt lat="46.02015" lon="4.76104">
        <ele>197</ele>
        <time>2017-12-15T11:32:42Z</time>
      </trkpt>
      <trkpt lat="46.0201" lon="4.76103">
        <ele>197</ele>
        <time>2017-12-15T11:32:44Z</time>
      </trkpt>
      <trkpt lat="46.02006" lon="4.76102">
        <ele>197</ele>
        <time>2017-12-15T11:32:45Z</time>
      </trkpt>
      <trkpt lat="46.01999" lon="4.76106">
        <ele>198</ele>
        <time>2017-12-15T11:32:47Z</time>
      </trkpt>
      <trkpt lat="46.01994" lon="4.76107">
        <ele>198</ele>
        <time>2017-12-15T11:32:48Z</time>
      </trkpt>
      <trkpt lat="46.01991" lon="4.76108">
        <ele>198</ele>
        <time>2017-12-15T11:32:49Z</time>
      </trkpt>
      <trkpt lat="46.01985" lon="4.76111">
        <ele>198</ele>
        <time>2017-12-15T11:32:50Z</time>
      </trkpt>
      <trkpt lat="46.01981" lon="4.76113">
        <ele>198</ele>
        <time>2017-12-15T11:32:51Z</time>
      </trkpt>
      <trkpt lat="46.01975" lon="4.76114">
        <ele>198</ele>
        <time>2017-12-15T11:32:52Z</time>
      </trkpt>
      <trkpt lat="46.01969" lon="4.76115">
        <ele>198</ele>
        <time>2017-12-15T11:32:54Z</time>
      </trkpt>
      <trkpt lat="46.01964" lon="4.76117">
        <ele>198</ele>
        <time>2017-12-15T11:32:55Z</time>
      </trkpt>
      <trkpt lat="46.01955" lon="4.76118">
        <ele>198</ele>
        <time>2017-12-15T11:32:57Z</time>
      </trkpt>
      <trkpt lat="46.01951" lon="4.76119">
        <ele>198</ele>
        <time>2017-12-15T11:32:58Z</time>
      </trkpt>
      <trkpt lat="46.01943" lon="4.76121">
        <ele>198</ele>
        <time>2017-12-15T11:33:00Z</time>
      </trkpt>
      <trkpt lat="46.0194" lon="4.76122">
        <ele>198</ele>
        <time>2017-12-15T11:33:01Z</time>
      </trkpt>
      <trkpt lat="46.01933" lon="4.76122">
        <ele>198</ele>
        <time>2017-12-15T11:33:02Z</time>
      </trkpt>
      <trkpt lat="46.0193" lon="4.76123">
        <ele>198</ele>
        <time>2017-12-15T11:33:03Z</time>
      </trkpt>
      <trkpt lat="46.01922" lon="4.76126">
        <ele>199</ele>
        <time>2017-12-15T11:33:05Z</time>
      </trkpt>
      <trkpt lat="46.01916" lon="4.76127">
        <ele>199</ele>
        <time>2017-12-15T11:33:06Z</time>
      </trkpt>
      <trkpt lat="46.01908" lon="4.76129">
        <ele>199</ele>
        <time>2017-12-15T11:33:08Z</time>
      </trkpt>
      <trkpt lat="46.01903" lon="4.7613">
        <ele>199</ele>
        <time>2017-12-15T11:33:09Z</time>
      </trkpt>
      <trkpt lat="46.01898" lon="4.7613">
        <ele>199</ele>
        <time>2017-12-15T11:33:10Z</time>
      </trkpt>
      <trkpt lat="46.01893" lon="4.7613">
        <ele>199</ele>
        <time>2017-12-15T11:33:11Z</time>
      </trkpt>
      <trkpt lat="46.01887" lon="4.7613">
        <ele>199</ele>
        <time>2017-12-15T11:33:13Z</time>
      </trkpt>
      <trkpt lat="46.01883" lon="4.76129">
        <ele>199</ele>
        <time>2017-12-15T11:33:14Z</time>
      </trkpt>
      <trkpt lat="46.01878" lon="4.76129">
        <ele>199</ele>
        <time>2017-12-15T11:33:15Z</time>
      </trkpt>
      <trkpt lat="46.01874" lon="4.76129">
        <ele>199</ele>
        <time>2017-12-15T11:33:16Z</time>
      </trkpt>
      <trkpt lat="46.01867" lon="4.76128">
        <ele>199</ele>
        <time>2017-12-15T11:33:18Z</time>
      </trkpt>
      <trkpt lat="46.01862" lon="4.76129">
        <ele>199</ele>
        <time>2017-12-15T11:33:19Z</time>
      </trkpt>
      <trkpt lat="46.01853" lon="4.76129">
        <ele>199</ele>
        <time>2017-12-15T11:33:21Z</time>
      </trkpt>
      <trkpt lat="46.01849" lon="4.7613">
        <ele>199</ele>
        <time>2017-12-15T11:33:22Z</time>
      </trkpt>
      <trkpt lat="46.01844" lon="4.7613">
        <ele>199</ele>
        <time>2017-12-15T11:33:23Z</time>
      </trkpt>
      <trkpt lat="46.01839" lon="4.7613">
        <ele>199</ele>
        <time>2017-12-15T11:33:24Z</time>
      </trkpt>
      <trkpt lat="46.01834" lon="4.76132">
        <ele>199</ele>
        <time>2017-12-15T11:33:25Z</time>
      </trkpt>
      <trkpt lat="46.01829" lon="4.76131">
        <ele>198</ele>
        <time>2017-12-15T11:33:26Z</time>
      </trkpt>
      <trkpt lat="46.01825" lon="4.76128">
        <ele>198</ele>
        <time>2017-12-15T11:33:27Z</time>
      </trkpt>
      <trkpt lat="46.0182" lon="4.76127">
        <ele>198</ele>
        <time>2017-12-15T11:33:28Z</time>
      </trkpt>
      <trkpt lat="46.01815" lon="4.76127">
        <ele>198</ele>
        <time>2017-12-15T11:33:29Z</time>
      </trkpt>
      <trkpt lat="46.0181" lon="4.76126">
        <ele>198</ele>
        <time>2017-12-15T11:33:30Z</time>
      </trkpt>
      <trkpt lat="46.01805" lon="4.76126">
        <ele>198</ele>
        <time>2017-12-15T11:33:31Z</time>
      </trkpt>
      <trkpt lat="46.01801" lon="4.76125">
        <ele>198</ele>
        <time>2017-12-15T11:33:32Z</time>
      </trkpt>
      <trkpt lat="46.01796" lon="4.76125">
        <ele>198</ele>
        <time>2017-12-15T11:33:33Z</time>
      </trkpt>
      <trkpt lat="46.01791" lon="4.76124">
        <ele>198</ele>
        <time>2017-12-15T11:33:34Z</time>
      </trkpt>
      <trkpt lat="46.01782" lon="4.76125">
        <ele>198</ele>
        <time>2017-12-15T11:33:36Z</time>
      </trkpt>
      <trkpt lat="46.01778" lon="4.76126">
        <ele>198</ele>
        <time>2017-12-15T11:33:37Z</time>
      </trkpt>
      <trkpt lat="46.01772" lon="4.76124">
        <ele>198</ele>
        <time>2017-12-15T11:33:38Z</time>
      </trkpt>
      <trkpt lat="46.01765" lon="4.76122">
        <ele>198</ele>
        <time>2017-12-15T11:33:39Z</time>
      </trkpt>
      <trkpt lat="46.0176" lon="4.76121">
        <ele>198</ele>
        <time>2017-12-15T11:33:40Z</time>
      </trkpt>
      <trkpt lat="46.01755" lon="4.7612">
        <ele>198</ele>
        <time>2017-12-15T11:33:41Z</time>
      </trkpt>
      <trkpt lat="46.0175" lon="4.76119">
        <ele>197</ele>
        <time>2017-12-15T11:33:42Z</time>
      </trkpt>
      <trkpt lat="46.01745" lon="4.7612">
        <ele>197</ele>
        <time>2017-12-15T11:33:43Z</time>
      </trkpt>
      <trkpt lat="46.0174" lon="4.7612">
        <ele>197</ele>
        <time>2017-12-15T11:33:44Z</time>
      </trkpt>
      <trkpt lat="46.01735" lon="4.76119">
        <ele>197</ele>
        <time>2017-12-15T11:33:45Z</time>
      </trkpt>
      <trkpt lat="46.01726" lon="4.76119">
        <ele>197</ele>
        <time>2017-12-15T11:33:47Z</time>
      </trkpt>
      <trkpt lat="46.01723" lon="4.76118">
        <ele>197</ele>
        <time>2017-12-15T11:33:48Z</time>
      </trkpt>
      <trkpt lat="46.01716" lon="4.76117">
        <ele>198</ele>
        <time>2017-12-15T11:33:50Z</time>
      </trkpt>
      <trkpt lat="46.01711" lon="4.76117">
        <ele>198</ele>
        <time>2017-12-15T11:33:51Z</time>
      </trkpt>
      <trkpt lat="46.01703" lon="4.76117">
        <ele>198</ele>
        <time>2017-12-15T11:33:53Z</time>
      </trkpt>
      <trkpt lat="46.01698" lon="4.76117">
        <ele>198</ele>
        <time>2017-12-15T11:33:54Z</time>
      </trkpt>
      <trkpt lat="46.0169" lon="4.76118">
        <ele>198</ele>
        <time>2017-12-15T11:33:56Z</time>
      </trkpt>
      <trkpt lat="46.01686" lon="4.76117">
        <ele>198</ele>
        <time>2017-12-15T11:33:57Z</time>
      </trkpt>
      <trkpt lat="46.01681" lon="4.76116">
        <ele>198</ele>
        <time>2017-12-15T11:33:58Z</time>
      </trkpt>
      <trkpt lat="46.01677" lon="4.76115">
        <ele>198</ele>
        <time>2017-12-15T11:33:59Z</time>
      </trkpt>
      <trkpt lat="46.0167" lon="4.76115">
        <ele>198</ele>
        <time>2017-12-15T11:34:00Z</time>
      </trkpt>
      <trkpt lat="46.01666" lon="4.76115">
        <ele>199</ele>
        <time>2017-12-15T11:34:01Z</time>
      </trkpt>
      <trkpt lat="46.01661" lon="4.76115">
        <ele>199</ele>
        <time>2017-12-15T11:34:02Z</time>
      </trkpt>
      <trkpt lat="46.01656" lon="4.76114">
        <ele>199</ele>
        <time>2017-12-15T11:34:03Z</time>
      </trkpt>
      <trkpt lat="46.01651" lon="4.76113">
        <ele>199</ele>
        <time>2017-12-15T11:34:04Z</time>
      </trkpt>
      <trkpt lat="46.01647" lon="4.76113">
        <ele>199</ele>
        <time>2017-12-15T11:34:05Z</time>
      </trkpt>
      <trkpt lat="46.01639" lon="4.76111">
        <ele>199</ele>
        <time>2017-12-15T11:34:07Z</time>
      </trkpt>
      <trkpt lat="46.01635" lon="4.76111">
        <ele>199</ele>
        <time>2017-12-15T11:34:08Z</time>
      </trkpt>
      <trkpt lat="46.01627" lon="4.76109">
        <ele>199</ele>
        <time>2017-12-15T11:34:10Z</time>
      </trkpt>
      <trkpt lat="46.01622" lon="4.76109">
        <ele>200</ele>
        <time>2017-12-15T11:34:11Z</time>
      </trkpt>
      <trkpt lat="46.01617" lon="4.76107">
        <ele>200</ele>
        <time>2017-12-15T11:34:12Z</time>
      </trkpt>
      <trkpt lat="46.01613" lon="4.76107">
        <ele>200</ele>
        <time>2017-12-15T11:34:13Z</time>
      </trkpt>
      <trkpt lat="46.01604" lon="4.76106">
        <ele>200</ele>
        <time>2017-12-15T11:34:15Z</time>
      </trkpt>
      <trkpt lat="46.016" lon="4.76105">
        <ele>200</ele>
        <time>2017-12-15T11:34:16Z</time>
      </trkpt>
      <trkpt lat="46.01592" lon="4.76104">
        <ele>200</ele>
        <time>2017-12-15T11:34:18Z</time>
      </trkpt>
      <trkpt lat="46.01588" lon="4.76103">
        <ele>200</ele>
        <time>2017-12-15T11:34:19Z</time>
      </trkpt>
      <trkpt lat="46.0158" lon="4.76102">
        <ele>202</ele>
        <time>2017-12-15T11:34:21Z</time>
      </trkpt>
      <trkpt lat="46.01577" lon="4.76101">
        <ele>202</ele>
        <time>2017-12-15T11:34:22Z</time>
      </trkpt>
      <trkpt lat="46.01568" lon="4.76098">
        <ele>202</ele>
        <time>2017-12-15T11:34:24Z</time>
      </trkpt>
      <trkpt lat="46.01565" lon="4.76097">
        <ele>202</ele>
        <time>2017-12-15T11:34:25Z</time>
      </trkpt>
      <trkpt lat="46.01557" lon="4.76093">
        <ele>202</ele>
        <time>2017-12-15T11:34:27Z</time>
      </trkpt>
      <trkpt lat="46.01553" lon="4.76091">
        <ele>202</ele>
        <time>2017-12-15T11:34:28Z</time>
      </trkpt>
      <trkpt lat="46.01546" lon="4.76088">
        <ele>202</ele>
        <time>2017-12-15T11:34:30Z</time>
      </trkpt>
      <trkpt lat="46.01542" lon="4.76087">
        <ele>202</ele>
        <time>2017-12-15T11:34:31Z</time>
      </trkpt>
      <trkpt lat="46.01535" lon="4.76085">
        <ele>202</ele>
        <time>2017-12-15T11:34:33Z</time>
      </trkpt>
      <trkpt lat="46.0153" lon="4.76084">
        <ele>202</ele>
        <time>2017-12-15T11:34:34Z</time>
      </trkpt>
      <trkpt lat="46.01522" lon="4.76081">
        <ele>202</ele>
        <time>2017-12-15T11:34:36Z</time>
      </trkpt>
      <trkpt lat="46.01518" lon="4.76079">
        <ele>202</ele>
        <time>2017-12-15T11:34:37Z</time>
      </trkpt>
      <trkpt lat="46.01511" lon="4.76078">
        <ele>202</ele>
        <time>2017-12-15T11:34:39Z</time>
      </trkpt>
      <trkpt lat="46.01508" lon="4.76077">
        <ele>203</ele>
        <time>2017-12-15T11:34:40Z</time>
      </trkpt>
      <trkpt lat="46.01499" lon="4.76076">
        <ele>203</ele>
        <time>2017-12-15T11:34:42Z</time>
      </trkpt>
      <trkpt lat="46.01495" lon="4.76075">
        <ele>203</ele>
        <time>2017-12-15T11:34:43Z</time>
      </trkpt>
      <trkpt lat="46.01486" lon="4.76075">
        <ele>203</ele>
        <time>2017-12-15T11:34:45Z</time>
      </trkpt>
      <trkpt lat="46.01482" lon="4.76074">
        <ele>203</ele>
        <time>2017-12-15T11:34:46Z</time>
      </trkpt>
      <trkpt lat="46.01474" lon="4.76072">
        <ele>203</ele>
        <time>2017-12-15T11:34:48Z</time>
      </trkpt>
      <trkpt lat="46.0147" lon="4.76071">
        <ele>203</ele>
        <time>2017-12-15T11:34:49Z</time>
      </trkpt>
      <trkpt lat="46.01461" lon="4.76069">
        <ele>203</ele>
        <time>2017-12-15T11:34:51Z</time>
      </trkpt>
      <trkpt lat="46.01457" lon="4.76068">
        <ele>203</ele>
        <time>2017-12-15T11:34:52Z</time>
      </trkpt>
      <trkpt lat="46.01449" lon="4.76063">
        <ele>203</ele>
        <time>2017-12-15T11:34:54Z</time>
      </trkpt>
      <trkpt lat="46.01445" lon="4.76061">
        <ele>203</ele>
        <time>2017-12-15T11:34:55Z</time>
      </trkpt>
      <trkpt lat="46.01438" lon="4.76056">
        <ele>203</ele>
        <time>2017-12-15T11:34:57Z</time>
      </trkpt>
      <trkpt lat="46.01434" lon="4.76053">
        <ele>203</ele>
        <time>2017-12-15T11:34:58Z</time>
      </trkpt>
      <trkpt lat="46.01428" lon="4.76048">
        <ele>204</ele>
        <time>2017-12-15T11:35:00Z</time>
      </trkpt>
      <trkpt lat="46.01425" lon="4.76046">
        <ele>204</ele>
        <time>2017-12-15T11:35:01Z</time>
      </trkpt>
      <trkpt lat="46.01417" lon="4.76042">
        <ele>204</ele>
        <time>2017-12-15T11:35:03Z</time>
      </trkpt>
      <trkpt lat="46.01414" lon="4.76039">
        <ele>204</ele>
        <time>2017-12-15T11:35:04Z</time>
      </trkpt>
      <trkpt lat="46.01406" lon="4.76036">
        <ele>204</ele>
        <time>2017-12-15T11:35:06Z</time>
      </trkpt>
      <trkpt lat="46.01401" lon="4.76035">
        <ele>204</ele>
        <time>2017-12-15T11:35:07Z</time>
      </trkpt>
      <trkpt lat="46.01396" lon="4.76035">
        <ele>204</ele>
        <time>2017-12-15T11:35:08Z</time>
      </trkpt>
      <trkpt lat="46.01391" lon="4.76035">
        <ele>203</ele>
        <time>2017-12-15T11:35:09Z</time>
      </trkpt>
      <trkpt lat="46.01386" lon="4.76035">
        <ele>203</ele>
        <time>2017-12-15T11:35:10Z</time>
      </trkpt>
      <trkpt lat="46.01382" lon="4.76036">
        <ele>203</ele>
        <time>2017-12-15T11:35:11Z</time>
      </trkpt>
      <trkpt lat="46.01377" lon="4.76037">
        <ele>203</ele>
        <time>2017-12-15T11:35:12Z</time>
      </trkpt>
      <trkpt lat="46.01373" lon="4.76038">
        <ele>203</ele>
        <time>2017-12-15T11:35:13Z</time>
      </trkpt>
      <trkpt lat="46.01364" lon="4.7604">
        <ele>203</ele>
        <time>2017-12-15T11:35:15Z</time>
      </trkpt>
      <trkpt lat="46.0136" lon="4.76042">
        <ele>203</ele>
        <time>2017-12-15T11:35:16Z</time>
      </trkpt>
      <trkpt lat="46.01352" lon="4.76045">
        <ele>203</ele>
        <time>2017-12-15T11:35:18Z</time>
      </trkpt>
      <trkpt lat="46.01348" lon="4.76047">
        <ele>203</ele>
        <time>2017-12-15T11:35:19Z</time>
      </trkpt>
      <trkpt lat="46.01342" lon="4.7605">
        <ele>203</ele>
        <time>2017-12-15T11:35:20Z</time>
      </trkpt>
      <trkpt lat="46.01338" lon="4.76051">
        <ele>203</ele>
        <time>2017-12-15T11:35:21Z</time>
      </trkpt>
      <trkpt lat="46.01331" lon="4.76053">
        <ele>203</ele>
        <time>2017-12-15T11:35:23Z</time>
      </trkpt>
      <trkpt lat="46.01327" lon="4.76055">
        <ele>203</ele>
        <time>2017-12-15T11:35:24Z</time>
      </trkpt>
      <trkpt lat="46.01319" lon="4.76057">
        <ele>203</ele>
        <time>2017-12-15T11:35:26Z</time>
      </trkpt>
      <trkpt lat="46.01314" lon="4.76059">
        <ele>203</ele>
        <time>2017-12-15T11:35:27Z</time>
      </trkpt>
      <trkpt lat="46.01305" lon="4.76061">
        <ele>203</ele>
        <time>2017-12-15T11:35:29Z</time>
      </trkpt>
      <trkpt lat="46.01301" lon="4.76062">
        <ele>203</ele>
        <time>2017-12-15T11:35:30Z</time>
      </trkpt>
      <trkpt lat="46.01293" lon="4.76064">
        <ele>204</ele>
        <time>2017-12-15T11:35:32Z</time>
      </trkpt>
      <trkpt lat="46.01289" lon="4.76064">
        <ele>204</ele>
        <time>2017-12-15T11:35:33Z</time>
      </trkpt>
      <trkpt lat="46.01281" lon="4.76066">
        <ele>204</ele>
        <time>2017-12-15T11:35:35Z</time>
      </trkpt>
      <trkpt lat="46.01278" lon="4.76068">
        <ele>204</ele>
        <time>2017-12-15T11:35:36Z</time>
      </trkpt>
      <trkpt lat="46.01271" lon="4.76069">
        <ele>204</ele>
        <time>2017-12-15T11:35:38Z</time>
      </trkpt>
      <trkpt lat="46.01267" lon="4.7607">
        <ele>204</ele>
        <time>2017-12-15T11:35:39Z</time>
      </trkpt>
      <trkpt lat="46.01259" lon="4.76071">
        <ele>204</ele>
        <time>2017-12-15T11:35:41Z</time>
      </trkpt>
      <trkpt lat="46.01254" lon="4.7607">
        <ele>204</ele>
        <time>2017-12-15T11:35:42Z</time>
      </trkpt>
      <trkpt lat="46.01246" lon="4.76069">
        <ele>205</ele>
        <time>2017-12-15T11:35:44Z</time>
      </trkpt>
      <trkpt lat="46.01241" lon="4.76069">
        <ele>205</ele>
        <time>2017-12-15T11:35:45Z</time>
      </trkpt>
      <trkpt lat="46.01233" lon="4.76068">
        <ele>205</ele>
        <time>2017-12-15T11:35:47Z</time>
      </trkpt>
      <trkpt lat="46.01228" lon="4.76068">
        <ele>206</ele>
        <time>2017-12-15T11:35:48Z</time>
      </trkpt>
      <trkpt lat="46.0122" lon="4.76067">
        <ele>206</ele>
        <time>2017-12-15T11:35:50Z</time>
      </trkpt>
      <trkpt lat="46.01216" lon="4.76066">
        <ele>206</ele>
        <time>2017-12-15T11:35:51Z</time>
      </trkpt>
      <trkpt lat="46.01209" lon="4.76063">
        <ele>206</ele>
        <time>2017-12-15T11:35:53Z</time>
      </trkpt>
      <trkpt lat="46.01205" lon="4.76061">
        <ele>206</ele>
        <time>2017-12-15T11:35:54Z</time>
      </trkpt>
      <trkpt lat="46.01197" lon="4.76056">
        <ele>206</ele>
        <time>2017-12-15T11:35:56Z</time>
      </trkpt>
      <trkpt lat="46.01193" lon="4.76055">
        <ele>206</ele>
        <time>2017-12-15T11:35:57Z</time>
      </trkpt>
      <trkpt lat="46.01186" lon="4.76052">
        <ele>206</ele>
        <time>2017-12-15T11:35:59Z</time>
      </trkpt>
      <trkpt lat="46.01184" lon="4.7605">
        <ele>207</ele>
        <time>2017-12-15T11:36:00Z</time>
      </trkpt>
      <trkpt lat="46.01177" lon="4.76048">
        <ele>207</ele>
        <time>2017-12-15T11:36:02Z</time>
      </trkpt>
      <trkpt lat="46.01174" lon="4.76047">
        <ele>207</ele>
        <time>2017-12-15T11:36:03Z</time>
      </trkpt>
      <trkpt lat="46.01165" lon="4.76048">
        <ele>208</ele>
        <time>2017-12-15T11:36:06Z</time>
      </trkpt>
      <trkpt lat="46.01164" lon="4.76047">
        <ele>208</ele>
        <time>2017-12-15T11:36:07Z</time>
      </trkpt>
      <trkpt lat="46.01158" lon="4.7605">
        <ele>208</ele>
        <time>2017-12-15T11:36:09Z</time>
      </trkpt>
      <trkpt lat="46.01154" lon="4.76052">
        <ele>208</ele>
        <time>2017-12-15T11:36:10Z</time>
      </trkpt>
      <trkpt lat="46.01146" lon="4.76055">
        <ele>208</ele>
        <time>2017-12-15T11:36:13Z</time>
      </trkpt>
      <trkpt lat="46.01141" lon="4.76055">
        <ele>208</ele>
        <time>2017-12-15T11:36:14Z</time>
      </trkpt>
      <trkpt lat="46.01136" lon="4.76055">
        <ele>208</ele>
        <time>2017-12-15T11:36:15Z</time>
      </trkpt>
      <trkpt lat="46.01131" lon="4.76055">
        <ele>208</ele>
        <time>2017-12-15T11:36:16Z</time>
      </trkpt>
      <trkpt lat="46.01126" lon="4.76056">
        <ele>208</ele>
        <time>2017-12-15T11:36:17Z</time>
      </trkpt>
      <trkpt lat="46.01122" lon="4.76056">
        <ele>208</ele>
        <time>2017-12-15T11:36:18Z</time>
      </trkpt>
      <trkpt lat="46.01117" lon="4.76056">
        <ele>208</ele>
        <time>2017-12-15T11:36:19Z</time>
      </trkpt>
      <trkpt lat="46.01109" lon="4.76058">
        <ele>208</ele>
        <time>2017-12-15T11:36:20Z</time>
      </trkpt>
      <trkpt lat="46.01104" lon="4.76057">
        <ele>208</ele>
        <time>2017-12-15T11:36:22Z</time>
      </trkpt>
      <trkpt lat="46.01098" lon="4.76061">
        <ele>208</ele>
        <time>2017-12-15T11:36:23Z</time>
      </trkpt>
      <trkpt lat="46.01091" lon="4.76062">
        <ele>208</ele>
        <time>2017-12-15T11:36:25Z</time>
      </trkpt>
      <trkpt lat="46.01086" lon="4.76063">
        <ele>208</ele>
        <time>2017-12-15T11:36:26Z</time>
      </trkpt>
      <trkpt lat="46.01079" lon="4.76068">
        <ele>209</ele>
        <time>2017-12-15T11:36:28Z</time>
      </trkpt>
      <trkpt lat="46.01073" lon="4.76068">
        <ele>209</ele>
        <time>2017-12-15T11:36:29Z</time>
      </trkpt>
      <trkpt lat="46.01066" lon="4.76067">
        <ele>209</ele>
        <time>2017-12-15T11:36:31Z</time>
      </trkpt>
      <trkpt lat="46.01061" lon="4.76067">
        <ele>209</ele>
        <time>2017-12-15T11:36:32Z</time>
      </trkpt>
      <trkpt lat="46.01054" lon="4.76067">
        <ele>210</ele>
        <time>2017-12-15T11:36:34Z</time>
      </trkpt>
      <trkpt lat="46.0105" lon="4.76069">
        <ele>210</ele>
        <time>2017-12-15T11:36:35Z</time>
      </trkpt>
      <trkpt lat="46.01042" lon="4.76069">
        <ele>210</ele>
        <time>2017-12-15T11:36:37Z</time>
      </trkpt>
      <trkpt lat="46.01039" lon="4.7607">
        <ele>210</ele>
        <time>2017-12-15T11:36:38Z</time>
      </trkpt>
      <trkpt lat="46.01032" lon="4.7607">
        <ele>210</ele>
        <time>2017-12-15T11:36:40Z</time>
      </trkpt>
      <trkpt lat="46.01028" lon="4.7607">
        <ele>210</ele>
        <time>2017-12-15T11:36:41Z</time>
      </trkpt>
      <trkpt lat="46.01022" lon="4.7607">
        <ele>210</ele>
        <time>2017-12-15T11:36:43Z</time>
      </trkpt>
      <trkpt lat="46.01019" lon="4.76071">
        <ele>210</ele>
        <time>2017-12-15T11:36:44Z</time>
      </trkpt>
      <trkpt lat="46.01011" lon="4.7607">
        <ele>211</ele>
        <time>2017-12-15T11:36:46Z</time>
      </trkpt>
      <trkpt lat="46.01007" lon="4.7607">
        <ele>211</ele>
        <time>2017-12-15T11:36:47Z</time>
      </trkpt>
      <trkpt lat="46.00998" lon="4.7607">
        <ele>212</ele>
        <time>2017-12-15T11:36:49Z</time>
      </trkpt>
      <trkpt lat="46.00994" lon="4.7607">
        <ele>212</ele>
        <time>2017-12-15T11:36:50Z</time>
      </trkpt>
      <trkpt lat="46.00988" lon="4.7607">
        <ele>212</ele>
        <time>2017-12-15T11:36:52Z</time>
      </trkpt>
      <trkpt lat="46.00984" lon="4.7607">
        <ele>212</ele>
        <time>2017-12-15T11:36:53Z</time>
      </trkpt>
      <trkpt lat="46.00976" lon="4.76071">
        <ele>212</ele>
        <time>2017-12-15T11:36:55Z</time>
      </trkpt>
      <trkpt lat="46.00972" lon="4.76071">
        <ele>212</ele>
        <time>2017-12-15T11:36:56Z</time>
      </trkpt>
      <trkpt lat="46.00967" lon="4.76072">
        <ele>212</ele>
        <time>2017-12-15T11:36:57Z</time>
      </trkpt>
      <trkpt lat="46.00962" lon="4.76073">
        <ele>212</ele>
        <time>2017-12-15T11:36:58Z</time>
      </trkpt>
      <trkpt lat="46.00958" lon="4.76073">
        <ele>212</ele>
        <time>2017-12-15T11:36:59Z</time>
      </trkpt>
      <trkpt lat="46.00953" lon="4.76074">
        <ele>212</ele>
        <time>2017-12-15T11:37:00Z</time>
      </trkpt>
      <trkpt lat="46.00945" lon="4.76075">
        <ele>212</ele>
        <time>2017-12-15T11:37:02Z</time>
      </trkpt>
      <trkpt lat="46.00941" lon="4.76076">
        <ele>212</ele>
        <time>2017-12-15T11:37:03Z</time>
      </trkpt>
      <trkpt lat="46.00933" lon="4.76078">
        <ele>212</ele>
        <time>2017-12-15T11:37:05Z</time>
      </trkpt>
      <trkpt lat="46.00929" lon="4.76078">
        <ele>213</ele>
        <time>2017-12-15T11:37:06Z</time>
      </trkpt>
      <trkpt lat="46.00922" lon="4.7608">
        <ele>213</ele>
        <time>2017-12-15T11:37:08Z</time>
      </trkpt>
      <trkpt lat="46.00919" lon="4.76081">
        <ele>213</ele>
        <time>2017-12-15T11:37:09Z</time>
      </trkpt>
      <trkpt lat="46.00912" lon="4.76082">
        <ele>213</ele>
        <time>2017-12-15T11:37:11Z</time>
      </trkpt>
      <trkpt lat="46.00908" lon="4.76082">
        <ele>213</ele>
        <time>2017-12-15T11:37:12Z</time>
      </trkpt>
      <trkpt lat="46.00902" lon="4.76084">
        <ele>214</ele>
        <time>2017-12-15T11:37:14Z</time>
      </trkpt>
      <trkpt lat="46.00898" lon="4.76084">
        <ele>214</ele>
        <time>2017-12-15T11:37:15Z</time>
      </trkpt>
      <trkpt lat="46.00891" lon="4.76085">
        <ele>214</ele>
        <time>2017-12-15T11:37:17Z</time>
      </trkpt>
      <trkpt lat="46.00887" lon="4.76086">
        <ele>215</ele>
        <time>2017-12-15T11:37:18Z</time>
      </trkpt>
      <trkpt lat="46.0088" lon="4.76087">
        <ele>215</ele>
        <time>2017-12-15T11:37:20Z</time>
      </trkpt>
      <trkpt lat="46.00877" lon="4.76088">
        <ele>215</ele>
        <time>2017-12-15T11:37:21Z</time>
      </trkpt>
      <trkpt lat="46.0087" lon="4.7609">
        <ele>215</ele>
        <time>2017-12-15T11:37:23Z</time>
      </trkpt>
      <trkpt lat="46.00866" lon="4.76091">
        <ele>215</ele>
        <time>2017-12-15T11:37:24Z</time>
      </trkpt>
      <trkpt lat="46.00859" lon="4.76093">
        <ele>215</ele>
        <time>2017-12-15T11:37:26Z</time>
      </trkpt>
      <trkpt lat="46.00856" lon="4.76094">
        <ele>215</ele>
        <time>2017-12-15T11:37:27Z</time>
      </trkpt>
      <trkpt lat="46.00849" lon="4.76095">
        <ele>216</ele>
        <time>2017-12-15T11:37:29Z</time>
      </trkpt>
      <trkpt lat="46.00845" lon="4.76096">
        <ele>216</ele>
        <time>2017-12-15T11:37:30Z</time>
      </trkpt>
      <trkpt lat="46.00839" lon="4.76097">
        <ele>216</ele>
        <time>2017-12-15T11:37:32Z</time>
      </trkpt>
      <trkpt lat="46.00836" lon="4.76098">
        <ele>216</ele>
        <time>2017-12-15T11:37:33Z</time>
      </trkpt>
      <trkpt lat="46.00827" lon="4.761">
        <ele>217</ele>
        <time>2017-12-15T11:37:36Z</time>
      </trkpt>
      <trkpt lat="46.00824" lon="4.761">
        <ele>217</ele>
        <time>2017-12-15T11:37:37Z</time>
      </trkpt>
      <trkpt lat="46.00816" lon="4.76104">
        <ele>218</ele>
        <time>2017-12-15T11:37:40Z</time>
      </trkpt>
      <trkpt lat="46.00813" lon="4.76104">
        <ele>218</ele>
        <time>2017-12-15T11:37:41Z</time>
      </trkpt>
      <trkpt lat="46.00804" lon="4.76103">
        <ele>218</ele>
        <time>2017-12-15T11:37:44Z</time>
      </trkpt>
      <trkpt lat="46.00801" lon="4.76102">
        <ele>218</ele>
        <time>2017-12-15T11:37:45Z</time>
      </trkpt>
      <trkpt lat="46.00793" lon="4.76102">
        <ele>219</ele>
        <time>2017-12-15T11:37:48Z</time>
      </trkpt>
      <trkpt lat="46.0079" lon="4.76102">
        <ele>219</ele>
        <time>2017-12-15T11:37:49Z</time>
      </trkpt>
      <trkpt lat="46.00782" lon="4.76103">
        <ele>219</ele>
        <time>2017-12-15T11:37:52Z</time>
      </trkpt>
      <trkpt lat="46.00779" lon="4.76103">
        <ele>219</ele>
        <time>2017-12-15T11:37:53Z</time>
      </trkpt>
      <trkpt lat="46.0077" lon="4.76103">
        <ele>219</ele>
        <time>2017-12-15T11:37:56Z</time>
      </trkpt>
      <trkpt lat="46.00768" lon="4.76104">
        <ele>219</ele>
        <time>2017-12-15T11:37:57Z</time>
      </trkpt>
      <trkpt lat="46.00759" lon="4.76105">
        <ele>219</ele>
        <time>2017-12-15T11:38:00Z</time>
      </trkpt>
      <trkpt lat="46.00757" lon="4.76105">
        <ele>219</ele>
        <time>2017-12-15T11:38:01Z</time>
      </trkpt>
      <trkpt lat="46.00749" lon="4.76105">
        <ele>222</ele>
        <time>2017-12-15T11:38:04Z</time>
      </trkpt>
      <trkpt lat="46.00747" lon="4.76105">
        <ele>222</ele>
        <time>2017-12-15T11:38:05Z</time>
      </trkpt>
      <trkpt lat="46.0074" lon="4.76107">
        <ele>223</ele>
        <time>2017-12-15T11:38:08Z</time>
      </trkpt>
      <trkpt lat="46.00737" lon="4.76108">
        <ele>223</ele>
        <time>2017-12-15T11:38:09Z</time>
      </trkpt>
      <trkpt lat="46.00729" lon="4.7611">
        <ele>223</ele>
        <time>2017-12-15T11:38:12Z</time>
      </trkpt>
      <trkpt lat="46.00726" lon="4.7611">
        <ele>223</ele>
        <time>2017-12-15T11:38:13Z</time>
      </trkpt>
      <trkpt lat="46.00718" lon="4.76111">
        <ele>224</ele>
        <time>2017-12-15T11:38:16Z</time>
      </trkpt>
      <trkpt lat="46.00716" lon="4.76111">
        <ele>224</ele>
        <time>2017-12-15T11:38:17Z</time>
      </trkpt>
      <trkpt lat="46.00708" lon="4.76112">
        <ele>224</ele>
        <time>2017-12-15T11:38:20Z</time>
      </trkpt>
      <trkpt lat="46.00705" lon="4.76113">
        <ele>225</ele>
        <time>2017-12-15T11:38:21Z</time>
      </trkpt>
      <trkpt lat="46.00697" lon="4.76114">
        <ele>225</ele>
        <time>2017-12-15T11:38:25Z</time>
      </trkpt>
      <trkpt lat="46.00694" lon="4.76114">
        <ele>225</ele>
        <time>2017-12-15T11:38:26Z</time>
      </trkpt>
      <trkpt lat="46.00686" lon="4.76117">
        <ele>225</ele>
        <time>2017-12-15T11:38:30Z</time>
      </trkpt>
      <trkpt lat="46.00684" lon="4.76118">
        <ele>225</ele>
        <time>2017-12-15T11:38:31Z</time>
      </trkpt>
      <trkpt lat="46.00676" lon="4.7612">
        <ele>226</ele>
        <time>2017-12-15T11:38:35Z</time>
      </trkpt>
      <trkpt lat="46.00674" lon="4.7612">
        <ele>226</ele>
        <time>2017-12-15T11:38:36Z</time>
      </trkpt>
      <trkpt lat="46.00667" lon="4.76121">
        <ele>226</ele>
        <time>2017-12-15T11:38:39Z</time>
      </trkpt>
      <trkpt lat="46.00665" lon="4.76121">
        <ele>228</ele>
        <time>2017-12-15T11:38:40Z</time>
      </trkpt>
      <trkpt lat="46.00657" lon="4.76122">
        <ele>228</ele>
        <time>2017-12-15T11:38:43Z</time>
      </trkpt>
      <trkpt lat="46.00655" lon="4.76122">
        <ele>228</ele>
        <time>2017-12-15T11:38:44Z</time>
      </trkpt>
      <trkpt lat="46.00646" lon="4.76122">
        <ele>228</ele>
        <time>2017-12-15T11:38:48Z</time>
      </trkpt>
      <trkpt lat="46.00644" lon="4.76121">
        <ele>228</ele>
        <time>2017-12-15T11:38:49Z</time>
      </trkpt>
      <trkpt lat="46.00638" lon="4.76114">
        <ele>228</ele>
        <time>2017-12-15T11:38:56Z</time>
      </trkpt>
      <trkpt lat="46.00636" lon="4.76114">
        <ele>228</ele>
        <time>2017-12-15T11:38:57Z</time>
      </trkpt>
      <trkpt lat="46.00629" lon="4.7612">
        <ele>228</ele>
        <time>2017-12-15T11:39:00Z</time>
      </trkpt>
      <trkpt lat="46.00628" lon="4.76122">
        <ele>228</ele>
        <time>2017-12-15T11:39:01Z</time>
      </trkpt>
      <trkpt lat="46.00624" lon="4.76132">
        <ele>228</ele>
        <time>2017-12-15T11:39:04Z</time>
      </trkpt>
      <trkpt lat="46.00624" lon="4.76136">
        <ele>228</ele>
        <time>2017-12-15T11:39:05Z</time>
      </trkpt>
      <trkpt lat="46.00624" lon="4.76146">
        <ele>228</ele>
        <time>2017-12-15T11:39:09Z</time>
      </trkpt>
      <trkpt lat="46.00624" lon="4.7615">
        <ele>228</ele>
        <time>2017-12-15T11:39:10Z</time>
      </trkpt>
      <trkpt lat="46.00626" lon="4.7616">
        <ele>228</ele>
        <time>2017-12-15T11:39:13Z</time>
      </trkpt>
      <trkpt lat="46.00627" lon="4.76164">
        <ele>228</ele>
        <time>2017-12-15T11:39:14Z</time>
      </trkpt>
      <trkpt lat="46.00627" lon="4.76173">
        <ele>230</ele>
        <time>2017-12-15T11:39:16Z</time>
      </trkpt>
      <trkpt lat="46.00627" lon="4.76178">
        <ele>230</ele>
        <time>2017-12-15T11:39:17Z</time>
      </trkpt>
      <trkpt lat="46.00624" lon="4.76189">
        <ele>230</ele>
        <time>2017-12-15T11:39:20Z</time>
      </trkpt>
      <trkpt lat="46.00621" lon="4.76191">
        <ele>230</ele>
        <time>2017-12-15T11:39:21Z</time>
      </trkpt>
      <trkpt lat="46.00616" lon="4.76192">
        <ele>230</ele>
        <time>2017-12-15T11:39:23Z</time>
      </trkpt>
      <trkpt lat="46.00612" lon="4.76191">
        <ele>230</ele>
        <time>2017-12-15T11:39:24Z</time>
      </trkpt>
      <trkpt lat="46.00604" lon="4.76187">
        <ele>230</ele>
        <time>2017-12-15T11:39:26Z</time>
      </trkpt>
      <trkpt lat="46.006" lon="4.76185">
        <ele>230</ele>
        <time>2017-12-15T11:39:27Z</time>
      </trkpt>
      <trkpt lat="46.00595" lon="4.76183">
        <ele>230</ele>
        <time>2017-12-15T11:39:28Z</time>
      </trkpt>
      <trkpt lat="46.0059" lon="4.76182">
        <ele>230</ele>
        <time>2017-12-15T11:39:29Z</time>
      </trkpt>
      <trkpt lat="46.00585" lon="4.76181">
        <ele>230</ele>
        <time>2017-12-15T11:39:30Z</time>
      </trkpt>
      <trkpt lat="46.0058" lon="4.76178">
        <ele>230</ele>
        <time>2017-12-15T11:39:31Z</time>
      </trkpt>
      <trkpt lat="46.00575" lon="4.76177">
        <ele>230</ele>
        <time>2017-12-15T11:39:32Z</time>
      </trkpt>
      <trkpt lat="46.0057" lon="4.76175">
        <ele>230</ele>
        <time>2017-12-15T11:39:33Z</time>
      </trkpt>
      <trkpt lat="46.00564" lon="4.76173">
        <ele>230</ele>
        <time>2017-12-15T11:39:34Z</time>
      </trkpt>
      <trkpt lat="46.00558" lon="4.76171">
        <ele>230</ele>
        <time>2017-12-15T11:39:35Z</time>
      </trkpt>
      <trkpt lat="46.00552" lon="4.76168">
        <ele>230</ele>
        <time>2017-12-15T11:39:36Z</time>
      </trkpt>
      <trkpt lat="46.00546" lon="4.76166">
        <ele>228</ele>
        <time>2017-12-15T11:39:37Z</time>
      </trkpt>
      <trkpt lat="46.0054" lon="4.76163">
        <ele>228</ele>
        <time>2017-12-15T11:39:38Z</time>
      </trkpt>
      <trkpt lat="46.00533" lon="4.7616">
        <ele>228</ele>
        <time>2017-12-15T11:39:39Z</time>
      </trkpt>
      <trkpt lat="46.00527" lon="4.76156">
        <ele>228</ele>
        <time>2017-12-15T11:39:40Z</time>
      </trkpt>
      <trkpt lat="46.00521" lon="4.7615">
        <ele>228</ele>
        <time>2017-12-15T11:39:41Z</time>
      </trkpt>
      <trkpt lat="46.00516" lon="4.76143">
        <ele>228</ele>
        <time>2017-12-15T11:39:42Z</time>
      </trkpt>
      <trkpt lat="46.00509" lon="4.76137">
        <ele>227</ele>
        <time>2017-12-15T11:39:43Z</time>
      </trkpt>
      <trkpt lat="46.00503" lon="4.7613">
        <ele>227</ele>
        <time>2017-12-15T11:39:44Z</time>
      </trkpt>
      <trkpt lat="46.00497" lon="4.76123">
        <ele>227</ele>
        <time>2017-12-15T11:39:45Z</time>
      </trkpt>
      <trkpt lat="46.00491" lon="4.76116">
        <ele>227</ele>
        <time>2017-12-15T11:39:46Z</time>
      </trkpt>
      <trkpt lat="46.00486" lon="4.76109">
        <ele>227</ele>
        <time>2017-12-15T11:39:47Z</time>
      </trkpt>
      <trkpt lat="46.0048" lon="4.761">
        <ele>226</ele>
        <time>2017-12-15T11:39:48Z</time>
      </trkpt>
      <trkpt lat="46.00473" lon="4.76095">
        <ele>226</ele>
        <time>2017-12-15T11:39:49Z</time>
      </trkpt>
      <trkpt lat="46.00467" lon="4.7609">
        <ele>227</ele>
        <time>2017-12-15T11:39:50Z</time>
      </trkpt>
      <trkpt lat="46.0046" lon="4.76085">
        <ele>227</ele>
        <time>2017-12-15T11:39:51Z</time>
      </trkpt>
      <trkpt lat="46.00452" lon="4.7608">
        <ele>224</ele>
        <time>2017-12-15T11:39:52Z</time>
      </trkpt>
      <trkpt lat="46.00445" lon="4.76076">
        <ele>224</ele>
        <time>2017-12-15T11:39:53Z</time>
      </trkpt>
      <trkpt lat="46.00437" lon="4.76072">
        <ele>224</ele>
        <time>2017-12-15T11:39:54Z</time>
      </trkpt>
      <trkpt lat="46.00429" lon="4.7607">
        <ele>224</ele>
        <time>2017-12-15T11:39:55Z</time>
      </trkpt>
      <trkpt lat="46.0042" lon="4.76067">
        <ele>224</ele>
        <time>2017-12-15T11:39:56Z</time>
      </trkpt>
      <trkpt lat="46.00412" lon="4.76066">
        <ele>225</ele>
        <time>2017-12-15T11:39:57Z</time>
      </trkpt>
      <trkpt lat="46.00404" lon="4.76066">
        <ele>225</ele>
        <time>2017-12-15T11:39:58Z</time>
      </trkpt>
      <trkpt lat="46.00397" lon="4.76067">
        <ele>225</ele>
        <time>2017-12-15T11:39:59Z</time>
      </trkpt>
      <trkpt lat="46.00392" lon="4.76066">
        <ele>225</ele>
        <time>2017-12-15T11:40:00Z</time>
      </trkpt>
      <trkpt lat="46.00387" lon="4.76065">
        <ele>226</ele>
        <time>2017-12-15T11:40:01Z</time>
      </trkpt>
      <trkpt lat="46.00383" lon="4.7606">
        <ele>225</ele>
        <time>2017-12-15T11:40:02Z</time>
      </trkpt>
      <trkpt lat="46.0038" lon="4.76054">
        <ele>225</ele>
        <time>2017-12-15T11:40:03Z</time>
      </trkpt>
      <trkpt lat="46.00377" lon="4.76046">
        <ele>225</ele>
        <time>2017-12-15T11:40:04Z</time>
      </trkpt>
      <trkpt lat="46.00377" lon="4.76037">
        <ele>225</ele>
        <time>2017-12-15T11:40:05Z</time>
      </trkpt>
      <trkpt lat="46.00378" lon="4.76033">
        <ele>225</ele>
        <time>2017-12-15T11:40:06Z</time>
      </trkpt>
      <trkpt lat="46.00384" lon="4.76031">
        <ele>225</ele>
        <time>2017-12-15T11:40:07Z</time>
      </trkpt>
      <trkpt lat="46.00389" lon="4.76025">
        <ele>224</ele>
        <time>2017-12-15T11:40:08Z</time>
      </trkpt>
      <trkpt lat="46.00394" lon="4.76021">
        <ele>224</ele>
        <time>2017-12-15T11:40:09Z</time>
      </trkpt>
      <trkpt lat="46.004" lon="4.76015">
        <ele>224</ele>
        <time>2017-12-15T11:40:10Z</time>
      </trkpt>
      <trkpt lat="46.00406" lon="4.76011">
        <ele>223</ele>
        <time>2017-12-15T11:40:11Z</time>
      </trkpt>
      <trkpt lat="46.00411" lon="4.76007">
        <ele>222</ele>
        <time>2017-12-15T11:40:12Z</time>
      </trkpt>
      <trkpt lat="46.00415" lon="4.76003">
        <ele>222</ele>
        <time>2017-12-15T11:40:13Z</time>
      </trkpt>
      <trkpt lat="46.00421" lon="4.75996">
        <ele>221</ele>
        <time>2017-12-15T11:40:14Z</time>
      </trkpt>
      <trkpt lat="46.00429" lon="4.7599">
        <ele>220</ele>
        <time>2017-12-15T11:40:15Z</time>
      </trkpt>
      <trkpt lat="46.00434" lon="4.75984">
        <ele>220</ele>
        <time>2017-12-15T11:40:16Z</time>
      </trkpt>
      <trkpt lat="46.0044" lon="4.75976">
        <ele>219</ele>
        <time>2017-12-15T11:40:17Z</time>
      </trkpt>
      <trkpt lat="46.00445" lon="4.75967">
        <ele>219</ele>
        <time>2017-12-15T11:40:18Z</time>
      </trkpt>
      <trkpt lat="46.00447" lon="4.75956">
        <ele>219</ele>
        <time>2017-12-15T11:40:19Z</time>
      </trkpt>
      <trkpt lat="46.00448" lon="4.75942">
        <ele>219</ele>
        <time>2017-12-15T11:40:20Z</time>
      </trkpt>
      <trkpt lat="46.00448" lon="4.7593">
        <ele>218</ele>
        <time>2017-12-15T11:40:21Z</time>
      </trkpt>
      <trkpt lat="46.00446" lon="4.75919">
        <ele>218</ele>
        <time>2017-12-15T11:40:22Z</time>
      </trkpt>
      <trkpt lat="46.00439" lon="4.75909">
        <ele>217</ele>
        <time>2017-12-15T11:40:23Z</time>
      </trkpt>
      <trkpt lat="46.00432" lon="4.75896">
        <ele>217</ele>
        <time>2017-12-15T11:40:24Z</time>
      </trkpt>
      <trkpt lat="46.00427" lon="4.75886">
        <ele>217</ele>
        <time>2017-12-15T11:40:25Z</time>
      </trkpt>
      <trkpt lat="46.00422" lon="4.75876">
        <ele>217</ele>
        <time>2017-12-15T11:40:26Z</time>
      </trkpt>
      <trkpt lat="46.00418" lon="4.75866">
        <ele>216</ele>
        <time>2017-12-15T11:40:27Z</time>
      </trkpt>
      <trkpt lat="46.00413" lon="4.75856">
        <ele>215</ele>
        <time>2017-12-15T11:40:28Z</time>
      </trkpt>
      <trkpt lat="46.00408" lon="4.75846">
        <ele>214</ele>
        <time>2017-12-15T11:40:29Z</time>
      </trkpt>
      <trkpt lat="46.00403" lon="4.75836">
        <ele>214</ele>
        <time>2017-12-15T11:40:30Z</time>
      </trkpt>
      <trkpt lat="46.00398" lon="4.75827">
        <ele>213</ele>
        <time>2017-12-15T11:40:31Z</time>
      </trkpt>
      <trkpt lat="46.00392" lon="4.75816">
        <ele>213</ele>
        <time>2017-12-15T11:40:32Z</time>
      </trkpt>
      <trkpt lat="46.00388" lon="4.75807">
        <ele>213</ele>
        <time>2017-12-15T11:40:33Z</time>
      </trkpt>
      <trkpt lat="46.00384" lon="4.75797">
        <ele>213</ele>
        <time>2017-12-15T11:40:34Z</time>
      </trkpt>
      <trkpt lat="46.00378" lon="4.75789">
        <ele>213</ele>
        <time>2017-12-15T11:40:35Z</time>
      </trkpt>
      <trkpt lat="46.00372" lon="4.75781">
        <ele>213</ele>
        <time>2017-12-15T11:40:36Z</time>
      </trkpt>
      <trkpt lat="46.00366" lon="4.75773">
        <ele>212</ele>
        <time>2017-12-15T11:40:37Z</time>
      </trkpt>
      <trkpt lat="46.00359" lon="4.75765">
        <ele>212</ele>
        <time>2017-12-15T11:40:38Z</time>
      </trkpt>
      <trkpt lat="46.00353" lon="4.75756">
        <ele>211</ele>
        <time>2017-12-15T11:40:39Z</time>
      </trkpt>
      <trkpt lat="46.0035" lon="4.75745">
        <ele>210</ele>
        <time>2017-12-15T11:40:40Z</time>
      </trkpt>
      <trkpt lat="46.00343" lon="4.75737">
        <ele>210</ele>
        <time>2017-12-15T11:40:41Z</time>
      </trkpt>
      <trkpt lat="46.00338" lon="4.75726">
        <ele>210</ele>
        <time>2017-12-15T11:40:42Z</time>
      </trkpt>
      <trkpt lat="46.00332" lon="4.75718">
        <ele>208</ele>
        <time>2017-12-15T11:40:43Z</time>
      </trkpt>
      <trkpt lat="46.00326" lon="4.75709">
        <ele>208</ele>
        <time>2017-12-15T11:40:44Z</time>
      </trkpt>
      <trkpt lat="46.0032" lon="4.757">
        <ele>208</ele>
        <time>2017-12-15T11:40:45Z</time>
      </trkpt>
      <trkpt lat="46.00313" lon="4.75691">
        <ele>208</ele>
        <time>2017-12-15T11:40:46Z</time>
      </trkpt>
      <trkpt lat="46.00307" lon="4.75682">
        <ele>208</ele>
        <time>2017-12-15T11:40:47Z</time>
      </trkpt>
      <trkpt lat="46.00301" lon="4.75672">
        <ele>208</ele>
        <time>2017-12-15T11:40:48Z</time>
      </trkpt>
      <trkpt lat="46.00294" lon="4.75663">
        <ele>206</ele>
        <time>2017-12-15T11:40:49Z</time>
      </trkpt>
      <trkpt lat="46.00288" lon="4.75654">
        <ele>206</ele>
        <time>2017-12-15T11:40:50Z</time>
      </trkpt>
      <trkpt lat="46.00281" lon="4.75643">
        <ele>207</ele>
        <time>2017-12-15T11:40:51Z</time>
      </trkpt>
      <trkpt lat="46.00275" lon="4.75632">
        <ele>206</ele>
        <time>2017-12-15T11:40:52Z</time>
      </trkpt>
      <trkpt lat="46.00269" lon="4.75621">
        <ele>206</ele>
        <time>2017-12-15T11:40:53Z</time>
      </trkpt>
      <trkpt lat="46.00262" lon="4.75611">
        <ele>206</ele>
        <time>2017-12-15T11:40:54Z</time>
      </trkpt>
      <trkpt lat="46.00257" lon="4.75603">
        <ele>205</ele>
        <time>2017-12-15T11:40:55Z</time>
      </trkpt>
      <trkpt lat="46.00251" lon="4.75592">
        <ele>205</ele>
        <time>2017-12-15T11:40:56Z</time>
      </trkpt>
      <trkpt lat="46.00245" lon="4.75581">
        <ele>205</ele>
        <time>2017-12-15T11:40:57Z</time>
      </trkpt>
      <trkpt lat="46.00241" lon="4.75567">
        <ele>205</ele>
        <time>2017-12-15T11:40:58Z</time>
      </trkpt>
      <trkpt lat="46.00238" lon="4.75555">
        <ele>205</ele>
        <time>2017-12-15T11:40:59Z</time>
      </trkpt>
      <trkpt lat="46.00234" lon="4.75542">
        <ele>205</ele>
        <time>2017-12-15T11:41:00Z</time>
      </trkpt>
      <trkpt lat="46.00232" lon="4.75528">
        <ele>204</ele>
        <time>2017-12-15T11:41:01Z</time>
      </trkpt>
      <trkpt lat="46.00228" lon="4.75515">
        <ele>203</ele>
        <time>2017-12-15T11:41:02Z</time>
      </trkpt>
      <trkpt lat="46.00225" lon="4.755">
        <ele>203</ele>
        <time>2017-12-15T11:41:03Z</time>
      </trkpt>
      <trkpt lat="46.00223" lon="4.75486">
        <ele>198</ele>
        <time>2017-12-15T11:41:04Z</time>
      </trkpt>
      <trkpt lat="46.00223" lon="4.7547">
        <ele>197</ele>
        <time>2017-12-15T11:41:05Z</time>
      </trkpt>
      <trkpt lat="46.00222" lon="4.75456">
        <ele>197</ele>
        <time>2017-12-15T11:41:06Z</time>
      </trkpt>
      <trkpt lat="46.00222" lon="4.75442">
        <ele>196</ele>
        <time>2017-12-15T11:41:07Z</time>
      </trkpt>
      <trkpt lat="46.00222" lon="4.75428">
        <ele>196</ele>
        <time>2017-12-15T11:41:08Z</time>
      </trkpt>
      <trkpt lat="46.00221" lon="4.75415">
        <ele>192</ele>
        <time>2017-12-15T11:41:09Z</time>
      </trkpt>
      <trkpt lat="46.0022" lon="4.75401">
        <ele>192</ele>
        <time>2017-12-15T11:41:10Z</time>
      </trkpt>
      <trkpt lat="46.0022" lon="4.75386">
        <ele>192</ele>
        <time>2017-12-15T11:41:11Z</time>
      </trkpt>
      <trkpt lat="46.0022" lon="4.75372">
        <ele>191</ele>
        <time>2017-12-15T11:41:12Z</time>
      </trkpt>
      <trkpt lat="46.00219" lon="4.75358">
        <ele>191</ele>
        <time>2017-12-15T11:41:13Z</time>
      </trkpt>
      <trkpt lat="46.00219" lon="4.75345">
        <ele>190</ele>
        <time>2017-12-15T11:41:14Z</time>
      </trkpt>
      <trkpt lat="46.00219" lon="4.75333">
        <ele>186</ele>
        <time>2017-12-15T11:41:15Z</time>
      </trkpt>
      <trkpt lat="46.00219" lon="4.75321">
        <ele>186</ele>
        <time>2017-12-15T11:41:16Z</time>
      </trkpt>
      <trkpt lat="46.00217" lon="4.7531">
        <ele>186</ele>
        <time>2017-12-15T11:41:17Z</time>
      </trkpt>
      <trkpt lat="46.00216" lon="4.75298">
        <ele>185</ele>
        <time>2017-12-15T11:41:18Z</time>
      </trkpt>
      <trkpt lat="46.00216" lon="4.75286">
        <ele>185</ele>
        <time>2017-12-15T11:41:19Z</time>
      </trkpt>
      <trkpt lat="46.00215" lon="4.75273">
        <ele>184</ele>
        <time>2017-12-15T11:41:20Z</time>
      </trkpt>
      <trkpt lat="46.00214" lon="4.7526">
        <ele>184</ele>
        <time>2017-12-15T11:41:21Z</time>
      </trkpt>
      <trkpt lat="46.00214" lon="4.75248">
        <ele>180</ele>
        <time>2017-12-15T11:41:22Z</time>
      </trkpt>
      <trkpt lat="46.00215" lon="4.75236">
        <ele>180</ele>
        <time>2017-12-15T11:41:23Z</time>
      </trkpt>
      <trkpt lat="46.00214" lon="4.75223">
        <ele>180</ele>
        <time>2017-12-15T11:41:24Z</time>
      </trkpt>
      <trkpt lat="46.00215" lon="4.75212">
        <ele>180</ele>
        <time>2017-12-15T11:41:25Z</time>
      </trkpt>
      <trkpt lat="46.00214" lon="4.75201">
        <ele>179</ele>
        <time>2017-12-15T11:41:26Z</time>
      </trkpt>
      <trkpt lat="46.00214" lon="4.75189">
        <ele>179</ele>
        <time>2017-12-15T11:41:27Z</time>
      </trkpt>
      <trkpt lat="46.00214" lon="4.75179">
        <ele>179</ele>
        <time>2017-12-15T11:41:28Z</time>
      </trkpt>
      <trkpt lat="46.00214" lon="4.75168">
        <ele>179</ele>
        <time>2017-12-15T11:41:29Z</time>
      </trkpt>
      <trkpt lat="46.00214" lon="4.75159">
        <ele>177</ele>
        <time>2017-12-15T11:41:30Z</time>
      </trkpt>
      <trkpt lat="46.00214" lon="4.75151">
        <ele>177</ele>
        <time>2017-12-15T11:41:31Z</time>
      </trkpt>
      <trkpt lat="46.00214" lon="4.75144">
        <ele>177</ele>
        <time>2017-12-15T11:41:32Z</time>
      </trkpt>
      <trkpt lat="46.00214" lon="4.75137">
        <ele>176</ele>
        <time>2017-12-15T11:41:33Z</time>
      </trkpt>
      <trkpt lat="46.00215" lon="4.75126">
        <ele>176</ele>
        <time>2017-12-15T11:41:36Z</time>
      </trkpt>
      <trkpt lat="46.00215" lon="4.75123">
        <ele>176</ele>
        <time>2017-12-15T11:41:37Z</time>
      </trkpt>
      <trkpt lat="46.00217" lon="4.75118">
        <ele>176</ele>
        <time>2017-12-15T11:41:40Z</time>
      </trkpt>
      <trkpt lat="46.00218" lon="4.75116">
        <ele>176</ele>
        <time>2017-12-15T11:41:41Z</time>
      </trkpt>
      <trkpt lat="46.0022" lon="4.75115">
        <ele>176</ele>
        <time>2017-12-15T11:41:51Z</time>
      </trkpt>
      <trkpt lat="46.00219" lon="4.75114">
        <ele>176</ele>
        <time>2017-12-15T11:41:52Z</time>
      </trkpt>
      <trkpt lat="46.00213" lon="4.75107">
        <ele>176</ele>
        <time>2017-12-15T11:41:58Z</time>
      </trkpt>
      <trkpt lat="46.0021" lon="4.75107">
        <ele>176</ele>
        <time>2017-12-15T11:41:59Z</time>
      </trkpt>
      <trkpt lat="46.00203" lon="4.75108">
        <ele>176</ele>
        <time>2017-12-15T11:42:01Z</time>
      </trkpt>
      <trkpt lat="46.002" lon="4.75108">
        <ele>176</ele>
        <time>2017-12-15T11:42:02Z</time>
      </trkpt>
      <trkpt lat="46.00195" lon="4.75108">
        <ele>176</ele>
        <time>2017-12-15T11:42:03Z</time>
      </trkpt>
      <trkpt lat="46.0019" lon="4.75108">
        <ele>176</ele>
        <time>2017-12-15T11:42:04Z</time>
      </trkpt>
      <trkpt lat="46.00181" lon="4.75107">
        <ele>176</ele>
        <time>2017-12-15T11:42:05Z</time>
      </trkpt>
      <trkpt lat="46.00175" lon="4.75107">
        <ele>176</ele>
        <time>2017-12-15T11:42:06Z</time>
      </trkpt>
      <trkpt lat="46.00171" lon="4.75106">
        <ele>176</ele>
        <time>2017-12-15T11:42:07Z</time>
      </trkpt>
      <trkpt lat="46.00166" lon="4.75107">
        <ele>175</ele>
        <time>2017-12-15T11:42:08Z</time>
      </trkpt>
      <trkpt lat="46.00161" lon="4.75108">
        <ele>175</ele>
        <time>2017-12-15T11:42:09Z</time>
      </trkpt>
      <trkpt lat="46.00156" lon="4.75109">
        <ele>175</ele>
        <time>2017-12-15T11:42:10Z</time>
      </trkpt>
      <trkpt lat="46.00151" lon="4.7511">
        <ele>175</ele>
        <time>2017-12-15T11:42:11Z</time>
      </trkpt>
      <trkpt lat="46.00142" lon="4.75111">
        <ele>175</ele>
        <time>2017-12-15T11:42:13Z</time>
      </trkpt>
      <trkpt lat="46.00137" lon="4.75111">
        <ele>175</ele>
        <time>2017-12-15T11:42:14Z</time>
      </trkpt>
      <trkpt lat="46.00128" lon="4.7511">
        <ele>175</ele>
        <time>2017-12-15T11:42:16Z</time>
      </trkpt>
      <trkpt lat="46.00121" lon="4.75109">
        <ele>175</ele>
        <time>2017-12-15T11:42:17Z</time>
      </trkpt>
      <trkpt lat="46.00116" lon="4.75109">
        <ele>175</ele>
        <time>2017-12-15T11:42:18Z</time>
      </trkpt>
      <trkpt lat="46.00111" lon="4.75109">
        <ele>175</ele>
        <time>2017-12-15T11:42:19Z</time>
      </trkpt>
      <trkpt lat="46.00103" lon="4.75109">
        <ele>175</ele>
        <time>2017-12-15T11:42:21Z</time>
      </trkpt>
      <trkpt lat="46.00098" lon="4.75108">
        <ele>175</ele>
        <time>2017-12-15T11:42:22Z</time>
      </trkpt>
      <trkpt lat="46.00088" lon="4.7511">
        <ele>175</ele>
        <time>2017-12-15T11:42:23Z</time>
      </trkpt>
      <trkpt lat="46.00087" lon="4.75105">
        <ele>174</ele>
        <time>2017-12-15T11:42:24Z</time>
      </trkpt>
      <trkpt lat="46.00079" lon="4.75101">
        <ele>174</ele>
        <time>2017-12-15T11:42:25Z</time>
      </trkpt>
      <trkpt lat="46.00075" lon="4.75101">
        <ele>174</ele>
        <time>2017-12-15T11:42:26Z</time>
      </trkpt>
      <trkpt lat="46.0007" lon="4.75101">
        <ele>174</ele>
        <time>2017-12-15T11:42:27Z</time>
      </trkpt>
      <trkpt lat="46.00063" lon="4.751">
        <ele>174</ele>
        <time>2017-12-15T11:42:28Z</time>
      </trkpt>
      <trkpt lat="46.00058" lon="4.751">
        <ele>174</ele>
        <time>2017-12-15T11:42:29Z</time>
      </trkpt>
      <trkpt lat="46.00054" lon="4.75101">
        <ele>174</ele>
        <time>2017-12-15T11:42:30Z</time>
      </trkpt>
      <trkpt lat="46.00048" lon="4.75102">
        <ele>174</ele>
        <time>2017-12-15T11:42:31Z</time>
      </trkpt>
      <trkpt lat="46.0004" lon="4.75104">
        <ele>174</ele>
        <time>2017-12-15T11:42:33Z</time>
      </trkpt>
      <trkpt lat="46.00034" lon="4.75109">
        <ele>174</ele>
        <time>2017-12-15T11:42:34Z</time>
      </trkpt>
      <trkpt lat="46.00028" lon="4.75106">
        <ele>174</ele>
        <time>2017-12-15T11:42:36Z</time>
      </trkpt>
      <trkpt lat="46.00025" lon="4.75107">
        <ele>174</ele>
        <time>2017-12-15T11:42:37Z</time>
      </trkpt>
      <trkpt lat="46.00021" lon="4.75107">
        <ele>174</ele>
        <time>2017-12-15T11:42:38Z</time>
      </trkpt>
      <trkpt lat="46.00016" lon="4.75109">
        <ele>174</ele>
        <time>2017-12-15T11:42:39Z</time>
      </trkpt>
      <trkpt lat="46.00011" lon="4.75111">
        <ele>174</ele>
        <time>2017-12-15T11:42:40Z</time>
      </trkpt>
      <trkpt lat="46.00005" lon="4.75113">
        <ele>174</ele>
        <time>2017-12-15T11:42:41Z</time>
      </trkpt>
      <trkpt lat="46" lon="4.75116">
        <ele>174</ele>
        <time>2017-12-15T11:42:42Z</time>
      </trkpt>
      <trkpt lat="45.99995" lon="4.75119">
        <ele>173</ele>
        <time>2017-12-15T11:42:43Z</time>
      </trkpt>
      <trkpt lat="45.9999" lon="4.75122">
        <ele>173</ele>
        <time>2017-12-15T11:42:44Z</time>
      </trkpt>
      <trkpt lat="45.99985" lon="4.75124">
        <ele>173</ele>
        <time>2017-12-15T11:42:45Z</time>
      </trkpt>
      <trkpt lat="45.99979" lon="4.75127">
        <ele>173</ele>
        <time>2017-12-15T11:42:46Z</time>
      </trkpt>
      <trkpt lat="45.99974" lon="4.7513">
        <ele>173</ele>
        <time>2017-12-15T11:42:47Z</time>
      </trkpt>
      <trkpt lat="45.99969" lon="4.75132">
        <ele>173</ele>
        <time>2017-12-15T11:42:48Z</time>
      </trkpt>
      <trkpt lat="45.99965" lon="4.75134">
        <ele>173</ele>
        <time>2017-12-15T11:42:49Z</time>
      </trkpt>
      <trkpt lat="45.99958" lon="4.75136">
        <ele>173</ele>
        <time>2017-12-15T11:42:50Z</time>
      </trkpt>
      <trkpt lat="45.99954" lon="4.75137">
        <ele>173</ele>
        <time>2017-12-15T11:42:51Z</time>
      </trkpt>
      <trkpt lat="45.9995" lon="4.75139">
        <ele>173</ele>
        <time>2017-12-15T11:42:52Z</time>
      </trkpt>
      <trkpt lat="45.99942" lon="4.75143">
        <ele>173</ele>
        <time>2017-12-15T11:42:53Z</time>
      </trkpt>
      <trkpt lat="45.99938" lon="4.75145">
        <ele>173</ele>
        <time>2017-12-15T11:42:54Z</time>
      </trkpt>
      <trkpt lat="45.99934" lon="4.75146">
        <ele>173</ele>
        <time>2017-12-15T11:42:55Z</time>
      </trkpt>
      <trkpt lat="45.99929" lon="4.75148">
        <ele>173</ele>
        <time>2017-12-15T11:42:56Z</time>
      </trkpt>
      <trkpt lat="45.99924" lon="4.75151">
        <ele>173</ele>
        <time>2017-12-15T11:42:57Z</time>
      </trkpt>
      <trkpt lat="45.99919" lon="4.75153">
        <ele>173</ele>
        <time>2017-12-15T11:42:58Z</time>
      </trkpt>
      <trkpt lat="45.99915" lon="4.75154">
        <ele>173</ele>
        <time>2017-12-15T11:42:59Z</time>
      </trkpt>
      <trkpt lat="45.99909" lon="4.75156">
        <ele>173</ele>
        <time>2017-12-15T11:43:00Z</time>
      </trkpt>
      <trkpt lat="45.99905" lon="4.75157">
        <ele>172</ele>
        <time>2017-12-15T11:43:01Z</time>
      </trkpt>
      <trkpt lat="45.99899" lon="4.75159">
        <ele>172</ele>
        <time>2017-12-15T11:43:02Z</time>
      </trkpt>
      <trkpt lat="45.99894" lon="4.75161">
        <ele>172</ele>
        <time>2017-12-15T11:43:03Z</time>
      </trkpt>
      <trkpt lat="45.99888" lon="4.75164">
        <ele>172</ele>
        <time>2017-12-15T11:43:04Z</time>
      </trkpt>
      <trkpt lat="45.99883" lon="4.75166">
        <ele>172</ele>
        <time>2017-12-15T11:43:05Z</time>
      </trkpt>
      <trkpt lat="45.99876" lon="4.75172">
        <ele>174</ele>
        <time>2017-12-15T11:43:07Z</time>
      </trkpt>
      <trkpt lat="45.99868" lon="4.75174">
        <ele>174</ele>
        <time>2017-12-15T11:43:08Z</time>
      </trkpt>
      <trkpt lat="45.99862" lon="4.75178">
        <ele>174</ele>
        <time>2017-12-15T11:43:10Z</time>
      </trkpt>
      <trkpt lat="45.99858" lon="4.7518">
        <ele>174</ele>
        <time>2017-12-15T11:43:11Z</time>
      </trkpt>
      <trkpt lat="45.9985" lon="4.75183">
        <ele>174</ele>
        <time>2017-12-15T11:43:13Z</time>
      </trkpt>
      <trkpt lat="45.99845" lon="4.75186">
        <ele>174</ele>
        <time>2017-12-15T11:43:14Z</time>
      </trkpt>
      <trkpt lat="45.99841" lon="4.75188">
        <ele>174</ele>
        <time>2017-12-15T11:43:15Z</time>
      </trkpt>
      <trkpt lat="45.99835" lon="4.7519">
        <ele>174</ele>
        <time>2017-12-15T11:43:16Z</time>
      </trkpt>
      <trkpt lat="45.9983" lon="4.75192">
        <ele>174</ele>
        <time>2017-12-15T11:43:17Z</time>
      </trkpt>
      <trkpt lat="45.99823" lon="4.75194">
        <ele>174</ele>
        <time>2017-12-15T11:43:18Z</time>
      </trkpt>
      <trkpt lat="45.99817" lon="4.75196">
        <ele>174</ele>
        <time>2017-12-15T11:43:19Z</time>
      </trkpt>
      <trkpt lat="45.99812" lon="4.752">
        <ele>174</ele>
        <time>2017-12-15T11:43:20Z</time>
      </trkpt>
      <trkpt lat="45.99807" lon="4.75203">
        <ele>174</ele>
        <time>2017-12-15T11:43:21Z</time>
      </trkpt>
      <trkpt lat="45.99803" lon="4.75207">
        <ele>174</ele>
        <time>2017-12-15T11:43:22Z</time>
      </trkpt>
      <trkpt lat="45.99798" lon="4.75208">
        <ele>174</ele>
        <time>2017-12-15T11:43:23Z</time>
      </trkpt>
      <trkpt lat="45.99792" lon="4.75211">
        <ele>174</ele>
        <time>2017-12-15T11:43:24Z</time>
      </trkpt>
      <trkpt lat="45.99788" lon="4.75214">
        <ele>174</ele>
        <time>2017-12-15T11:43:25Z</time>
      </trkpt>
      <trkpt lat="45.99783" lon="4.75216">
        <ele>174</ele>
        <time>2017-12-15T11:43:26Z</time>
      </trkpt>
      <trkpt lat="45.99777" lon="4.75218">
        <ele>175</ele>
        <time>2017-12-15T11:43:27Z</time>
      </trkpt>
      <trkpt lat="45.99772" lon="4.75221">
        <ele>175</ele>
        <time>2017-12-15T11:43:28Z</time>
      </trkpt>
      <trkpt lat="45.99767" lon="4.75224">
        <ele>175</ele>
        <time>2017-12-15T11:43:29Z</time>
      </trkpt>
      <trkpt lat="45.99762" lon="4.75226">
        <ele>175</ele>
        <time>2017-12-15T11:43:30Z</time>
      </trkpt>
      <trkpt lat="45.99757" lon="4.75228">
        <ele>175</ele>
        <time>2017-12-15T11:43:31Z</time>
      </trkpt>
      <trkpt lat="45.99751" lon="4.75231">
        <ele>175</ele>
        <time>2017-12-15T11:43:32Z</time>
      </trkpt>
      <trkpt lat="45.99746" lon="4.75233">
        <ele>175</ele>
        <time>2017-12-15T11:43:33Z</time>
      </trkpt>
      <trkpt lat="45.99742" lon="4.75235">
        <ele>175</ele>
        <time>2017-12-15T11:43:34Z</time>
      </trkpt>
      <trkpt lat="45.99734" lon="4.75237">
        <ele>175</ele>
        <time>2017-12-15T11:43:36Z</time>
      </trkpt>
      <trkpt lat="45.99729" lon="4.7524">
        <ele>175</ele>
        <time>2017-12-15T11:43:37Z</time>
      </trkpt>
      <trkpt lat="45.99724" lon="4.75243">
        <ele>175</ele>
        <time>2017-12-15T11:43:38Z</time>
      </trkpt>
      <trkpt lat="45.99719" lon="4.75246">
        <ele>174</ele>
        <time>2017-12-15T11:43:39Z</time>
      </trkpt>
      <trkpt lat="45.99715" lon="4.75248">
        <ele>174</ele>
        <time>2017-12-15T11:43:40Z</time>
      </trkpt>
      <trkpt lat="45.99711" lon="4.7525">
        <ele>174</ele>
        <time>2017-12-15T11:43:41Z</time>
      </trkpt>
      <trkpt lat="45.99705" lon="4.75251">
        <ele>176</ele>
        <time>2017-12-15T11:43:42Z</time>
      </trkpt>
      <trkpt lat="45.99701" lon="4.75253">
        <ele>176</ele>
        <time>2017-12-15T11:43:43Z</time>
      </trkpt>
      <trkpt lat="45.99695" lon="4.75256">
        <ele>176</ele>
        <time>2017-12-15T11:43:44Z</time>
      </trkpt>
      <trkpt lat="45.99689" lon="4.75258">
        <ele>176</ele>
        <time>2017-12-15T11:43:45Z</time>
      </trkpt>
      <trkpt lat="45.99684" lon="4.7526">
        <ele>175</ele>
        <time>2017-12-15T11:43:46Z</time>
      </trkpt>
      <trkpt lat="45.99679" lon="4.75263">
        <ele>175</ele>
        <time>2017-12-15T11:43:47Z</time>
      </trkpt>
      <trkpt lat="45.99674" lon="4.75266">
        <ele>175</ele>
        <time>2017-12-15T11:43:48Z</time>
      </trkpt>
      <trkpt lat="45.99668" lon="4.75269">
        <ele>175</ele>
        <time>2017-12-15T11:43:49Z</time>
      </trkpt>
      <trkpt lat="45.99662" lon="4.75271">
        <ele>174</ele>
        <time>2017-12-15T11:43:50Z</time>
      </trkpt>
      <trkpt lat="45.99657" lon="4.75273">
        <ele>174</ele>
        <time>2017-12-15T11:43:51Z</time>
      </trkpt>
      <trkpt lat="45.99652" lon="4.75274">
        <ele>174</ele>
        <time>2017-12-15T11:43:52Z</time>
      </trkpt>
      <trkpt lat="45.99647" lon="4.75274">
        <ele>174</ele>
        <time>2017-12-15T11:43:53Z</time>
      </trkpt>
      <trkpt lat="45.99642" lon="4.75273">
        <ele>174</ele>
        <time>2017-12-15T11:43:54Z</time>
      </trkpt>
      <trkpt lat="45.99638" lon="4.75272">
        <ele>174</ele>
        <time>2017-12-15T11:43:55Z</time>
      </trkpt>
      <trkpt lat="45.99633" lon="4.75271">
        <ele>174</ele>
        <time>2017-12-15T11:43:56Z</time>
      </trkpt>
      <trkpt lat="45.99628" lon="4.75271">
        <ele>174</ele>
        <time>2017-12-15T11:43:57Z</time>
      </trkpt>
      <trkpt lat="45.99621" lon="4.75269">
        <ele>174</ele>
        <time>2017-12-15T11:43:59Z</time>
      </trkpt>
      <trkpt lat="45.99617" lon="4.75269">
        <ele>174</ele>
        <time>2017-12-15T11:44:00Z</time>
      </trkpt>
      <trkpt lat="45.99609" lon="4.75269">
        <ele>173</ele>
        <time>2017-12-15T11:44:02Z</time>
      </trkpt>
      <trkpt lat="45.99606" lon="4.7527">
        <ele>173</ele>
        <time>2017-12-15T11:44:03Z</time>
      </trkpt>
      <trkpt lat="45.99598" lon="4.75269">
        <ele>173</ele>
        <time>2017-12-15T11:44:05Z</time>
      </trkpt>
      <trkpt lat="45.99594" lon="4.75267">
        <ele>173</ele>
        <time>2017-12-15T11:44:06Z</time>
      </trkpt>
      <trkpt lat="45.99589" lon="4.75265">
        <ele>173</ele>
        <time>2017-12-15T11:44:07Z</time>
      </trkpt>
      <trkpt lat="45.99585" lon="4.75263">
        <ele>173</ele>
        <time>2017-12-15T11:44:08Z</time>
      </trkpt>
      <trkpt lat="45.9958" lon="4.75262">
        <ele>172</ele>
        <time>2017-12-15T11:44:09Z</time>
      </trkpt>
      <trkpt lat="45.99575" lon="4.75262">
        <ele>172</ele>
        <time>2017-12-15T11:44:10Z</time>
      </trkpt>
      <trkpt lat="45.9957" lon="4.75264">
        <ele>172</ele>
        <time>2017-12-15T11:44:11Z</time>
      </trkpt>
      <trkpt lat="45.99564" lon="4.75266">
        <ele>172</ele>
        <time>2017-12-15T11:44:12Z</time>
      </trkpt>
      <trkpt lat="45.99559" lon="4.75271">
        <ele>172</ele>
        <time>2017-12-15T11:44:13Z</time>
      </trkpt>
      <trkpt lat="45.99555" lon="4.75275">
        <ele>172</ele>
        <time>2017-12-15T11:44:14Z</time>
      </trkpt>
      <trkpt lat="45.99552" lon="4.75281">
        <ele>172</ele>
        <time>2017-12-15T11:44:15Z</time>
      </trkpt>
      <trkpt lat="45.99547" lon="4.75286">
        <ele>172</ele>
        <time>2017-12-15T11:44:16Z</time>
      </trkpt>
      <trkpt lat="45.99543" lon="4.75288">
        <ele>172</ele>
        <time>2017-12-15T11:44:17Z</time>
      </trkpt>
      <trkpt lat="45.99538" lon="4.7529">
        <ele>172</ele>
        <time>2017-12-15T11:44:18Z</time>
      </trkpt>
      <trkpt lat="45.99532" lon="4.75292">
        <ele>172</ele>
        <time>2017-12-15T11:44:19Z</time>
      </trkpt>
      <trkpt lat="45.99528" lon="4.75291">
        <ele>172</ele>
        <time>2017-12-15T11:44:20Z</time>
      </trkpt>
      <trkpt lat="45.99522" lon="4.75293">
        <ele>172</ele>
        <time>2017-12-15T11:44:21Z</time>
      </trkpt>
      <trkpt lat="45.99517" lon="4.75293">
        <ele>172</ele>
        <time>2017-12-15T11:44:22Z</time>
      </trkpt>
      <trkpt lat="45.99511" lon="4.75295">
        <ele>172</ele>
        <time>2017-12-15T11:44:23Z</time>
      </trkpt>
      <trkpt lat="45.99506" lon="4.75296">
        <ele>172</ele>
        <time>2017-12-15T11:44:24Z</time>
      </trkpt>
      <trkpt lat="45.995" lon="4.75297">
        <ele>172</ele>
        <time>2017-12-15T11:44:25Z</time>
      </trkpt>
      <trkpt lat="45.99495" lon="4.75298">
        <ele>171</ele>
        <time>2017-12-15T11:44:26Z</time>
      </trkpt>
      <trkpt lat="45.99489" lon="4.753">
        <ele>171</ele>
        <time>2017-12-15T11:44:27Z</time>
      </trkpt>
      <trkpt lat="45.99484" lon="4.753">
        <ele>171</ele>
        <time>2017-12-15T11:44:28Z</time>
      </trkpt>
      <trkpt lat="45.99479" lon="4.75301">
        <ele>171</ele>
        <time>2017-12-15T11:44:29Z</time>
      </trkpt>
      <trkpt lat="45.99474" lon="4.75302">
        <ele>171</ele>
        <time>2017-12-15T11:44:30Z</time>
      </trkpt>
      <trkpt lat="45.99469" lon="4.75303">
        <ele>171</ele>
        <time>2017-12-15T11:44:31Z</time>
      </trkpt>
      <trkpt lat="45.99464" lon="4.75304">
        <ele>171</ele>
        <time>2017-12-15T11:44:32Z</time>
      </trkpt>
      <trkpt lat="45.99459" lon="4.75305">
        <ele>171</ele>
        <time>2017-12-15T11:44:33Z</time>
      </trkpt>
      <trkpt lat="45.99452" lon="4.75305">
        <ele>171</ele>
        <time>2017-12-15T11:44:34Z</time>
      </trkpt>
      <trkpt lat="45.99448" lon="4.75307">
        <ele>171</ele>
        <time>2017-12-15T11:44:35Z</time>
      </trkpt>
      <trkpt lat="45.99441" lon="4.75307">
        <ele>171</ele>
        <time>2017-12-15T11:44:36Z</time>
      </trkpt>
      <trkpt lat="45.99436" lon="4.75307">
        <ele>171</ele>
        <time>2017-12-15T11:44:37Z</time>
      </trkpt>
      <trkpt lat="45.9943" lon="4.75309">
        <ele>171</ele>
        <time>2017-12-15T11:44:38Z</time>
      </trkpt>
      <trkpt lat="45.99425" lon="4.75311">
        <ele>171</ele>
        <time>2017-12-15T11:44:39Z</time>
      </trkpt>
      <trkpt lat="45.99418" lon="4.75313">
        <ele>171</ele>
        <time>2017-12-15T11:44:40Z</time>
      </trkpt>
      <trkpt lat="45.99413" lon="4.75316">
        <ele>170</ele>
        <time>2017-12-15T11:44:41Z</time>
      </trkpt>
      <trkpt lat="45.99407" lon="4.75319">
        <ele>170</ele>
        <time>2017-12-15T11:44:42Z</time>
      </trkpt>
      <trkpt lat="45.99401" lon="4.75322">
        <ele>170</ele>
        <time>2017-12-15T11:44:43Z</time>
      </trkpt>
      <trkpt lat="45.99396" lon="4.75326">
        <ele>170</ele>
        <time>2017-12-15T11:44:44Z</time>
      </trkpt>
      <trkpt lat="45.99391" lon="4.7533">
        <ele>170</ele>
        <time>2017-12-15T11:44:45Z</time>
      </trkpt>
      <trkpt lat="45.99386" lon="4.75335">
        <ele>171</ele>
        <time>2017-12-15T11:44:46Z</time>
      </trkpt>
      <trkpt lat="45.99381" lon="4.75341">
        <ele>171</ele>
        <time>2017-12-15T11:44:47Z</time>
      </trkpt>
      <trkpt lat="45.99377" lon="4.75347">
        <ele>172</ele>
        <time>2017-12-15T11:44:48Z</time>
      </trkpt>
      <trkpt lat="45.99373" lon="4.75354">
        <ele>172</ele>
        <time>2017-12-15T11:44:49Z</time>
      </trkpt>
      <trkpt lat="45.99369" lon="4.75361">
        <ele>172</ele>
        <time>2017-12-15T11:44:50Z</time>
      </trkpt>
      <trkpt lat="45.99366" lon="4.75368">
        <ele>172</ele>
        <time>2017-12-15T11:44:51Z</time>
      </trkpt>
      <trkpt lat="45.99362" lon="4.75376">
        <ele>172</ele>
        <time>2017-12-15T11:44:52Z</time>
      </trkpt>
      <trkpt lat="45.9936" lon="4.75383">
        <ele>172</ele>
        <time>2017-12-15T11:44:53Z</time>
      </trkpt>
      <trkpt lat="45.99357" lon="4.7539">
        <ele>172</ele>
        <time>2017-12-15T11:44:54Z</time>
      </trkpt>
      <trkpt lat="45.99354" lon="4.75396">
        <ele>173</ele>
        <time>2017-12-15T11:44:55Z</time>
      </trkpt>
      <trkpt lat="45.99352" lon="4.75402">
        <ele>173</ele>
        <time>2017-12-15T11:44:56Z</time>
      </trkpt>
      <trkpt lat="45.99349" lon="4.75408">
        <ele>173</ele>
        <time>2017-12-15T11:44:57Z</time>
      </trkpt>
      <trkpt lat="45.99346" lon="4.75416">
        <ele>173</ele>
        <time>2017-12-15T11:44:58Z</time>
      </trkpt>
      <trkpt lat="45.99345" lon="4.75423">
        <ele>175</ele>
        <time>2017-12-15T11:44:59Z</time>
      </trkpt>
      <trkpt lat="45.99343" lon="4.7543">
        <ele>175</ele>
        <time>2017-12-15T11:45:00Z</time>
      </trkpt>
      <trkpt lat="45.99341" lon="4.75438">
        <ele>176</ele>
        <time>2017-12-15T11:45:01Z</time>
      </trkpt>
      <trkpt lat="45.99339" lon="4.75446">
        <ele>176</ele>
        <time>2017-12-15T11:45:02Z</time>
      </trkpt>
      <trkpt lat="45.99337" lon="4.75454">
        <ele>177</ele>
        <time>2017-12-15T11:45:03Z</time>
      </trkpt>
      <trkpt lat="45.99334" lon="4.7546">
        <ele>177</ele>
        <time>2017-12-15T11:45:04Z</time>
      </trkpt>
      <trkpt lat="45.99331" lon="4.75467">
        <ele>174</ele>
        <time>2017-12-15T11:45:05Z</time>
      </trkpt>
      <trkpt lat="45.99329" lon="4.75475">
        <ele>174</ele>
        <time>2017-12-15T11:45:06Z</time>
      </trkpt>
      <trkpt lat="45.99326" lon="4.75481">
        <ele>175</ele>
        <time>2017-12-15T11:45:07Z</time>
      </trkpt>
      <trkpt lat="45.99322" lon="4.75487">
        <ele>175</ele>
        <time>2017-12-15T11:45:08Z</time>
      </trkpt>
      <trkpt lat="45.99318" lon="4.75493">
        <ele>175</ele>
        <time>2017-12-15T11:45:09Z</time>
      </trkpt>
      <trkpt lat="45.99314" lon="4.75498">
        <ele>175</ele>
        <time>2017-12-15T11:45:10Z</time>
      </trkpt>
      <trkpt lat="45.9931" lon="4.75504">
        <ele>177</ele>
        <time>2017-12-15T11:45:11Z</time>
      </trkpt>
      <trkpt lat="45.99305" lon="4.75511">
        <ele>177</ele>
        <time>2017-12-15T11:45:12Z</time>
      </trkpt>
      <trkpt lat="45.993" lon="4.75515">
        <ele>177</ele>
        <time>2017-12-15T11:45:13Z</time>
      </trkpt>
      <trkpt lat="45.99296" lon="4.75521">
        <ele>177</ele>
        <time>2017-12-15T11:45:14Z</time>
      </trkpt>
      <trkpt lat="45.99293" lon="4.75525">
        <ele>177</ele>
        <time>2017-12-15T11:45:15Z</time>
      </trkpt>
      <trkpt lat="45.99288" lon="4.75529">
        <ele>177</ele>
        <time>2017-12-15T11:45:16Z</time>
      </trkpt>
      <trkpt lat="45.99284" lon="4.75534">
        <ele>177</ele>
        <time>2017-12-15T11:45:17Z</time>
      </trkpt>
      <trkpt lat="45.99278" lon="4.75537">
        <ele>177</ele>
        <time>2017-12-15T11:45:18Z</time>
      </trkpt>
      <trkpt lat="45.99273" lon="4.7554">
        <ele>177</ele>
        <time>2017-12-15T11:45:19Z</time>
      </trkpt>
      <trkpt lat="45.99268" lon="4.75544">
        <ele>177</ele>
        <time>2017-12-15T11:45:20Z</time>
      </trkpt>
      <trkpt lat="45.99263" lon="4.75547">
        <ele>177</ele>
        <time>2017-12-15T11:45:21Z</time>
      </trkpt>
      <trkpt lat="45.99259" lon="4.75551">
        <ele>177</ele>
        <time>2017-12-15T11:45:22Z</time>
      </trkpt>
      <trkpt lat="45.99254" lon="4.75555">
        <ele>177</ele>
        <time>2017-12-15T11:45:23Z</time>
      </trkpt>
      <trkpt lat="45.9925" lon="4.75559">
        <ele>175</ele>
        <time>2017-12-15T11:45:24Z</time>
      </trkpt>
      <trkpt lat="45.99245" lon="4.75563">
        <ele>175</ele>
        <time>2017-12-15T11:45:25Z</time>
      </trkpt>
      <trkpt lat="45.9924" lon="4.75565">
        <ele>175</ele>
        <time>2017-12-15T11:45:26Z</time>
      </trkpt>
      <trkpt lat="45.99236" lon="4.75567">
        <ele>175</ele>
        <time>2017-12-15T11:45:27Z</time>
      </trkpt>
      <trkpt lat="45.99231" lon="4.7557">
        <ele>175</ele>
        <time>2017-12-15T11:45:28Z</time>
      </trkpt>
      <trkpt lat="45.99226" lon="4.75575">
        <ele>175</ele>
        <time>2017-12-15T11:45:29Z</time>
      </trkpt>
      <trkpt lat="45.99221" lon="4.75578">
        <ele>175</ele>
        <time>2017-12-15T11:45:30Z</time>
      </trkpt>
      <trkpt lat="45.99216" lon="4.75582">
        <ele>175</ele>
        <time>2017-12-15T11:45:31Z</time>
      </trkpt>
      <trkpt lat="45.99212" lon="4.75585">
        <ele>178</ele>
        <time>2017-12-15T11:45:32Z</time>
      </trkpt>
      <trkpt lat="45.99207" lon="4.75588">
        <ele>178</ele>
        <time>2017-12-15T11:45:33Z</time>
      </trkpt>
      <trkpt lat="45.99201" lon="4.75591">
        <ele>178</ele>
        <time>2017-12-15T11:45:34Z</time>
      </trkpt>
      <trkpt lat="45.99197" lon="4.75594">
        <ele>178</ele>
        <time>2017-12-15T11:45:35Z</time>
      </trkpt>
      <trkpt lat="45.99192" lon="4.75596">
        <ele>178</ele>
        <time>2017-12-15T11:45:36Z</time>
      </trkpt>
      <trkpt lat="45.99187" lon="4.75598">
        <ele>178</ele>
        <time>2017-12-15T11:45:37Z</time>
      </trkpt>
      <trkpt lat="45.99181" lon="4.75599">
        <ele>177</ele>
        <time>2017-12-15T11:45:38Z</time>
      </trkpt>
      <trkpt lat="45.99176" lon="4.75602">
        <ele>177</ele>
        <time>2017-12-15T11:45:39Z</time>
      </trkpt>
      <trkpt lat="45.99171" lon="4.75604">
        <ele>177</ele>
        <time>2017-12-15T11:45:40Z</time>
      </trkpt>
      <trkpt lat="45.99166" lon="4.75606">
        <ele>176</ele>
        <time>2017-12-15T11:45:41Z</time>
      </trkpt>
      <trkpt lat="45.9916" lon="4.75608">
        <ele>176</ele>
        <time>2017-12-15T11:45:42Z</time>
      </trkpt>
      <trkpt lat="45.99154" lon="4.75609">
        <ele>176</ele>
        <time>2017-12-15T11:45:43Z</time>
      </trkpt>
      <trkpt lat="45.99149" lon="4.75609">
        <ele>177</ele>
        <time>2017-12-15T11:45:44Z</time>
      </trkpt>
      <trkpt lat="45.99143" lon="4.75609">
        <ele>177</ele>
        <time>2017-12-15T11:45:45Z</time>
      </trkpt>
      <trkpt lat="45.99137" lon="4.7561">
        <ele>177</ele>
        <time>2017-12-15T11:45:46Z</time>
      </trkpt>
      <trkpt lat="45.99132" lon="4.75613">
        <ele>177</ele>
        <time>2017-12-15T11:45:47Z</time>
      </trkpt>
      <trkpt lat="45.99127" lon="4.75618">
        <ele>177</ele>
        <time>2017-12-15T11:45:48Z</time>
      </trkpt>
      <trkpt lat="45.99124" lon="4.75624">
        <ele>177</ele>
        <time>2017-12-15T11:45:49Z</time>
      </trkpt>
      <trkpt lat="45.99121" lon="4.75629">
        <ele>177</ele>
        <time>2017-12-15T11:45:50Z</time>
      </trkpt>
      <trkpt lat="45.99116" lon="4.75635">
        <ele>177</ele>
        <time>2017-12-15T11:45:51Z</time>
      </trkpt>
      <trkpt lat="45.99113" lon="4.7564">
        <ele>178</ele>
        <time>2017-12-15T11:45:52Z</time>
      </trkpt>
      <trkpt lat="45.99108" lon="4.75644">
        <ele>178</ele>
        <time>2017-12-15T11:45:53Z</time>
      </trkpt>
      <trkpt lat="45.99102" lon="4.75647">
        <ele>178</ele>
        <time>2017-12-15T11:45:54Z</time>
      </trkpt>
      <trkpt lat="45.99098" lon="4.75651">
        <ele>178</ele>
        <time>2017-12-15T11:45:55Z</time>
      </trkpt>
      <trkpt lat="45.99094" lon="4.75654">
        <ele>178</ele>
        <time>2017-12-15T11:45:56Z</time>
      </trkpt>
      <trkpt lat="45.9909" lon="4.75655">
        <ele>179</ele>
        <time>2017-12-15T11:45:57Z</time>
      </trkpt>
      <trkpt lat="45.99085" lon="4.75656">
        <ele>179</ele>
        <time>2017-12-15T11:45:58Z</time>
      </trkpt>
      <trkpt lat="45.9908" lon="4.75657">
        <ele>179</ele>
        <time>2017-12-15T11:45:59Z</time>
      </trkpt>
      <trkpt lat="45.99075" lon="4.75657">
        <ele>179</ele>
        <time>2017-12-15T11:46:00Z</time>
      </trkpt>
      <trkpt lat="45.99069" lon="4.75657">
        <ele>178</ele>
        <time>2017-12-15T11:46:01Z</time>
      </trkpt>
      <trkpt lat="45.99063" lon="4.75655">
        <ele>178</ele>
        <time>2017-12-15T11:46:02Z</time>
      </trkpt>
      <trkpt lat="45.9906" lon="4.75654">
        <ele>178</ele>
        <time>2017-12-15T11:46:03Z</time>
      </trkpt>
      <trkpt lat="45.99054" lon="4.75655">
        <ele>178</ele>
        <time>2017-12-15T11:46:04Z</time>
      </trkpt>
      <trkpt lat="45.99051" lon="4.75654">
        <ele>178</ele>
        <time>2017-12-15T11:46:05Z</time>
      </trkpt>
      <trkpt lat="45.99042" lon="4.75655">
        <ele>178</ele>
        <time>2017-12-15T11:46:06Z</time>
      </trkpt>
      <trkpt lat="45.99034" lon="4.75657">
        <ele>178</ele>
        <time>2017-12-15T11:46:07Z</time>
      </trkpt>
      <trkpt lat="45.99025" lon="4.75659">
        <ele>178</ele>
        <time>2017-12-15T11:46:08Z</time>
      </trkpt>
      <trkpt lat="45.9902" lon="4.75656">
        <ele>178</ele>
        <time>2017-12-15T11:46:09Z</time>
      </trkpt>
      <trkpt lat="45.99015" lon="4.75657">
        <ele>178</ele>
        <time>2017-12-15T11:46:10Z</time>
      </trkpt>
      <trkpt lat="45.9901" lon="4.75656">
        <ele>178</ele>
        <time>2017-12-15T11:46:11Z</time>
      </trkpt>
      <trkpt lat="45.99004" lon="4.75656">
        <ele>179</ele>
        <time>2017-12-15T11:46:12Z</time>
      </trkpt>
      <trkpt lat="45.98998" lon="4.75657">
        <ele>179</ele>
        <time>2017-12-15T11:46:13Z</time>
      </trkpt>
      <trkpt lat="45.98992" lon="4.75658">
        <ele>178</ele>
        <time>2017-12-15T11:46:14Z</time>
      </trkpt>
      <trkpt lat="45.98986" lon="4.75659">
        <ele>178</ele>
        <time>2017-12-15T11:46:15Z</time>
      </trkpt>
      <trkpt lat="45.98981" lon="4.7566">
        <ele>178</ele>
        <time>2017-12-15T11:46:16Z</time>
      </trkpt>
      <trkpt lat="45.98976" lon="4.7566">
        <ele>177</ele>
        <time>2017-12-15T11:46:17Z</time>
      </trkpt>
      <trkpt lat="45.98972" lon="4.75662">
        <ele>177</ele>
        <time>2017-12-15T11:46:18Z</time>
      </trkpt>
      <trkpt lat="45.98968" lon="4.75663">
        <ele>177</ele>
        <time>2017-12-15T11:46:19Z</time>
      </trkpt>
      <trkpt lat="45.98961" lon="4.75665">
        <ele>177</ele>
        <time>2017-12-15T11:46:20Z</time>
      </trkpt>
      <trkpt lat="45.98954" lon="4.75671">
        <ele>181</ele>
        <time>2017-12-15T11:46:22Z</time>
      </trkpt>
      <trkpt lat="45.98949" lon="4.75674">
        <ele>181</ele>
        <time>2017-12-15T11:46:23Z</time>
      </trkpt>
      <trkpt lat="45.98942" lon="4.75677">
        <ele>181</ele>
        <time>2017-12-15T11:46:24Z</time>
      </trkpt>
      <trkpt lat="45.98937" lon="4.7568">
        <ele>180</ele>
        <time>2017-12-15T11:46:25Z</time>
      </trkpt>
      <trkpt lat="45.98932" lon="4.75683">
        <ele>180</ele>
        <time>2017-12-15T11:46:26Z</time>
      </trkpt>
      <trkpt lat="45.98928" lon="4.75685">
        <ele>180</ele>
        <time>2017-12-15T11:46:27Z</time>
      </trkpt>
      <trkpt lat="45.98922" lon="4.75688">
        <ele>180</ele>
        <time>2017-12-15T11:46:28Z</time>
      </trkpt>
      <trkpt lat="45.98917" lon="4.75691">
        <ele>179</ele>
        <time>2017-12-15T11:46:29Z</time>
      </trkpt>
      <trkpt lat="45.98912" lon="4.75694">
        <ele>179</ele>
        <time>2017-12-15T11:46:30Z</time>
      </trkpt>
      <trkpt lat="45.98907" lon="4.75698">
        <ele>180</ele>
        <time>2017-12-15T11:46:31Z</time>
      </trkpt>
      <trkpt lat="45.98901" lon="4.75701">
        <ele>180</ele>
        <time>2017-12-15T11:46:32Z</time>
      </trkpt>
      <trkpt lat="45.98895" lon="4.75705">
        <ele>180</ele>
        <time>2017-12-15T11:46:33Z</time>
      </trkpt>
      <trkpt lat="45.98887" lon="4.75706">
        <ele>180</ele>
        <time>2017-12-15T11:46:35Z</time>
      </trkpt>
      <trkpt lat="45.98882" lon="4.75707">
        <ele>180</ele>
        <time>2017-12-15T11:46:36Z</time>
      </trkpt>
      <trkpt lat="45.98878" lon="4.75708">
        <ele>180</ele>
        <time>2017-12-15T11:46:37Z</time>
      </trkpt>
      <trkpt lat="45.98872" lon="4.75709">
        <ele>180</ele>
        <time>2017-12-15T11:46:38Z</time>
      </trkpt>
      <trkpt lat="45.98869" lon="4.75709">
        <ele>180</ele>
        <time>2017-12-15T11:46:39Z</time>
      </trkpt>
      <trkpt lat="45.98862" lon="4.7571">
        <ele>180</ele>
        <time>2017-12-15T11:46:40Z</time>
      </trkpt>
      <trkpt lat="45.98857" lon="4.75709">
        <ele>180</ele>
        <time>2017-12-15T11:46:41Z</time>
      </trkpt>
      <trkpt lat="45.98851" lon="4.75712">
        <ele>180</ele>
        <time>2017-12-15T11:46:42Z</time>
      </trkpt>
      <trkpt lat="45.98845" lon="4.75711">
        <ele>180</ele>
        <time>2017-12-15T11:46:43Z</time>
      </trkpt>
      <trkpt lat="45.98841" lon="4.75711">
        <ele>180</ele>
        <time>2017-12-15T11:46:44Z</time>
      </trkpt>
      <trkpt lat="45.98837" lon="4.75713">
        <ele>180</ele>
        <time>2017-12-15T11:46:45Z</time>
      </trkpt>
      <trkpt lat="45.98832" lon="4.75714">
        <ele>179</ele>
        <time>2017-12-15T11:46:46Z</time>
      </trkpt>
      <trkpt lat="45.98823" lon="4.75715">
        <ele>179</ele>
        <time>2017-12-15T11:46:48Z</time>
      </trkpt>
      <trkpt lat="45.98818" lon="4.75716">
        <ele>179</ele>
        <time>2017-12-15T11:46:49Z</time>
      </trkpt>
      <trkpt lat="45.98814" lon="4.75717">
        <ele>179</ele>
        <time>2017-12-15T11:46:50Z</time>
      </trkpt>
      <trkpt lat="45.98807" lon="4.75717">
        <ele>179</ele>
        <time>2017-12-15T11:46:51Z</time>
      </trkpt>
      <trkpt lat="45.988" lon="4.75717">
        <ele>178</ele>
        <time>2017-12-15T11:46:52Z</time>
      </trkpt>
      <trkpt lat="45.98795" lon="4.75717">
        <ele>178</ele>
        <time>2017-12-15T11:46:53Z</time>
      </trkpt>
      <trkpt lat="45.9879" lon="4.75717">
        <ele>178</ele>
        <time>2017-12-15T11:46:54Z</time>
      </trkpt>
      <trkpt lat="45.98786" lon="4.75717">
        <ele>178</ele>
        <time>2017-12-15T11:46:55Z</time>
      </trkpt>
      <trkpt lat="45.98779" lon="4.75714">
        <ele>178</ele>
        <time>2017-12-15T11:46:57Z</time>
      </trkpt>
      <trkpt lat="45.98775" lon="4.75713">
        <ele>178</ele>
        <time>2017-12-15T11:46:58Z</time>
      </trkpt>
      <trkpt lat="45.98767" lon="4.75715">
        <ele>178</ele>
        <time>2017-12-15T11:47:00Z</time>
      </trkpt>
      <trkpt lat="45.98762" lon="4.75719">
        <ele>178</ele>
        <time>2017-12-15T11:47:01Z</time>
      </trkpt>
      <trkpt lat="45.98757" lon="4.75722">
        <ele>178</ele>
        <time>2017-12-15T11:47:02Z</time>
      </trkpt>
      <trkpt lat="45.98751" lon="4.75723">
        <ele>178</ele>
        <time>2017-12-15T11:47:03Z</time>
      </trkpt>
      <trkpt lat="45.98746" lon="4.75723">
        <ele>177</ele>
        <time>2017-12-15T11:47:04Z</time>
      </trkpt>
      <trkpt lat="45.98738" lon="4.75722">
        <ele>177</ele>
        <time>2017-12-15T11:47:05Z</time>
      </trkpt>
      <trkpt lat="45.98733" lon="4.75722">
        <ele>177</ele>
        <time>2017-12-15T11:47:06Z</time>
      </trkpt>
      <trkpt lat="45.98726" lon="4.75722">
        <ele>177</ele>
        <time>2017-12-15T11:47:07Z</time>
      </trkpt>
      <trkpt lat="45.98721" lon="4.75723">
        <ele>177</ele>
        <time>2017-12-15T11:47:08Z</time>
      </trkpt>
      <trkpt lat="45.98714" lon="4.75724">
        <ele>177</ele>
        <time>2017-12-15T11:47:09Z</time>
      </trkpt>
      <trkpt lat="45.98707" lon="4.75724">
        <ele>177</ele>
        <time>2017-12-15T11:47:10Z</time>
      </trkpt>
      <trkpt lat="45.98701" lon="4.75724">
        <ele>177</ele>
        <time>2017-12-15T11:47:11Z</time>
      </trkpt>
      <trkpt lat="45.98697" lon="4.75723">
        <ele>177</ele>
        <time>2017-12-15T11:47:12Z</time>
      </trkpt>
      <trkpt lat="45.98691" lon="4.75724">
        <ele>177</ele>
        <time>2017-12-15T11:47:13Z</time>
      </trkpt>
      <trkpt lat="45.98685" lon="4.75725">
        <ele>177</ele>
        <time>2017-12-15T11:47:14Z</time>
      </trkpt>
      <trkpt lat="45.98678" lon="4.75725">
        <ele>177</ele>
        <time>2017-12-15T11:47:15Z</time>
      </trkpt>
      <trkpt lat="45.98673" lon="4.75727">
        <ele>177</ele>
        <time>2017-12-15T11:47:16Z</time>
      </trkpt>
      <trkpt lat="45.98668" lon="4.75727">
        <ele>177</ele>
        <time>2017-12-15T11:47:17Z</time>
      </trkpt>
      <trkpt lat="45.98662" lon="4.75728">
        <ele>176</ele>
        <time>2017-12-15T11:47:18Z</time>
      </trkpt>
      <trkpt lat="45.98657" lon="4.75729">
        <ele>176</ele>
        <time>2017-12-15T11:47:19Z</time>
      </trkpt>
      <trkpt lat="45.98652" lon="4.75728">
        <ele>176</ele>
        <time>2017-12-15T11:47:20Z</time>
      </trkpt>
      <trkpt lat="45.98645" lon="4.75729">
        <ele>176</ele>
        <time>2017-12-15T11:47:21Z</time>
      </trkpt>
      <trkpt lat="45.98639" lon="4.7573">
        <ele>175</ele>
        <time>2017-12-15T11:47:22Z</time>
      </trkpt>
      <trkpt lat="45.98634" lon="4.75731">
        <ele>175</ele>
        <time>2017-12-15T11:47:23Z</time>
      </trkpt>
      <trkpt lat="45.9863" lon="4.75731">
        <ele>175</ele>
        <time>2017-12-15T11:47:24Z</time>
      </trkpt>
      <trkpt lat="45.98624" lon="4.75731">
        <ele>175</ele>
        <time>2017-12-15T11:47:25Z</time>
      </trkpt>
      <trkpt lat="45.98619" lon="4.75731">
        <ele>175</ele>
        <time>2017-12-15T11:47:26Z</time>
      </trkpt>
      <trkpt lat="45.98613" lon="4.75732">
        <ele>175</ele>
        <time>2017-12-15T11:47:27Z</time>
      </trkpt>
      <trkpt lat="45.98605" lon="4.75727">
        <ele>175</ele>
        <time>2017-12-15T11:47:31Z</time>
      </trkpt>
      <trkpt lat="45.98605" lon="4.75726">
        <ele>175</ele>
        <time>2017-12-15T11:47:32Z</time>
      </trkpt>
      <trkpt lat="45.98602" lon="4.75715">
        <ele>175</ele>
        <time>2017-12-15T11:47:43Z</time>
      </trkpt>
      <trkpt lat="45.98591" lon="4.75715">
        <ele>174</ele>
        <time>2017-12-15T11:47:44Z</time>
      </trkpt>
      <trkpt lat="45.98584" lon="4.75715">
        <ele>174</ele>
        <time>2017-12-15T11:47:45Z</time>
      </trkpt>
      <trkpt lat="45.98577" lon="4.75718">
        <ele>174</ele>
        <time>2017-12-15T11:47:46Z</time>
      </trkpt>
      <trkpt lat="45.98571" lon="4.75715">
        <ele>174</ele>
        <time>2017-12-15T11:47:47Z</time>
      </trkpt>
      <trkpt lat="45.98563" lon="4.75714">
        <ele>174</ele>
        <time>2017-12-15T11:47:48Z</time>
      </trkpt>
      <trkpt lat="45.98558" lon="4.75714">
        <ele>174</ele>
        <time>2017-12-15T11:47:49Z</time>
      </trkpt>
      <trkpt lat="45.98551" lon="4.75715">
        <ele>174</ele>
        <time>2017-12-15T11:47:50Z</time>
      </trkpt>
      <trkpt lat="45.98546" lon="4.75713">
        <ele>174</ele>
        <time>2017-12-15T11:47:51Z</time>
      </trkpt>
      <trkpt lat="45.9854" lon="4.75712">
        <ele>174</ele>
        <time>2017-12-15T11:47:52Z</time>
      </trkpt>
      <trkpt lat="45.98531" lon="4.7571">
        <ele>174</ele>
        <time>2017-12-15T11:47:54Z</time>
      </trkpt>
      <trkpt lat="45.98526" lon="4.75711">
        <ele>174</ele>
        <time>2017-12-15T11:47:55Z</time>
      </trkpt>
      <trkpt lat="45.98523" lon="4.75708">
        <ele>174</ele>
        <time>2017-12-15T11:47:56Z</time>
      </trkpt>
      <trkpt lat="45.98516" lon="4.7571">
        <ele>174</ele>
        <time>2017-12-15T11:47:57Z</time>
      </trkpt>
      <trkpt lat="45.98511" lon="4.75711">
        <ele>174</ele>
        <time>2017-12-15T11:47:58Z</time>
      </trkpt>
      <trkpt lat="45.98506" lon="4.7571">
        <ele>174</ele>
        <time>2017-12-15T11:47:59Z</time>
      </trkpt>
      <trkpt lat="45.98498" lon="4.75707">
        <ele>174</ele>
        <time>2017-12-15T11:48:01Z</time>
      </trkpt>
      <trkpt lat="45.98493" lon="4.75707">
        <ele>174</ele>
        <time>2017-12-15T11:48:02Z</time>
      </trkpt>
      <trkpt lat="45.98488" lon="4.75706">
        <ele>174</ele>
        <time>2017-12-15T11:48:03Z</time>
      </trkpt>
      <trkpt lat="45.98484" lon="4.75705">
        <ele>174</ele>
        <time>2017-12-15T11:48:04Z</time>
      </trkpt>
      <trkpt lat="45.98479" lon="4.75703">
        <ele>174</ele>
        <time>2017-12-15T11:48:05Z</time>
      </trkpt>
      <trkpt lat="45.98475" lon="4.75702">
        <ele>174</ele>
        <time>2017-12-15T11:48:06Z</time>
      </trkpt>
      <trkpt lat="45.98467" lon="4.75702">
        <ele>174</ele>
        <time>2017-12-15T11:48:08Z</time>
      </trkpt>
      <trkpt lat="45.98463" lon="4.757">
        <ele>174</ele>
        <time>2017-12-15T11:48:09Z</time>
      </trkpt>
      <trkpt lat="45.98456" lon="4.75697">
        <ele>175</ele>
        <time>2017-12-15T11:48:10Z</time>
      </trkpt>
      <trkpt lat="45.98451" lon="4.75696">
        <ele>175</ele>
        <time>2017-12-15T11:48:11Z</time>
      </trkpt>
      <trkpt lat="45.98447" lon="4.75696">
        <ele>175</ele>
        <time>2017-12-15T11:48:12Z</time>
      </trkpt>
      <trkpt lat="45.98438" lon="4.75695">
        <ele>175</ele>
        <time>2017-12-15T11:48:13Z</time>
      </trkpt>
      <trkpt lat="45.98433" lon="4.75694">
        <ele>175</ele>
        <time>2017-12-15T11:48:14Z</time>
      </trkpt>
      <trkpt lat="45.98426" lon="4.75695">
        <ele>175</ele>
        <time>2017-12-15T11:48:15Z</time>
      </trkpt>
      <trkpt lat="45.9842" lon="4.75692">
        <ele>175</ele>
        <time>2017-12-15T11:48:16Z</time>
      </trkpt>
      <trkpt lat="45.98414" lon="4.7569">
        <ele>175</ele>
        <time>2017-12-15T11:48:17Z</time>
      </trkpt>
      <trkpt lat="45.98408" lon="4.75689">
        <ele>175</ele>
        <time>2017-12-15T11:48:18Z</time>
      </trkpt>
      <trkpt lat="45.98405" lon="4.75689">
        <ele>174</ele>
        <time>2017-12-15T11:48:19Z</time>
      </trkpt>
      <trkpt lat="45.98397" lon="4.75689">
        <ele>174</ele>
        <time>2017-12-15T11:48:22Z</time>
      </trkpt>
      <trkpt lat="45.98391" lon="4.75692">
        <ele>174</ele>
        <time>2017-12-15T11:48:23Z</time>
      </trkpt>
      <trkpt lat="45.98388" lon="4.75697">
        <ele>174</ele>
        <time>2017-12-15T11:48:24Z</time>
      </trkpt>
      <trkpt lat="45.98381" lon="4.75696">
        <ele>174</ele>
        <time>2017-12-15T11:48:25Z</time>
      </trkpt>
      <trkpt lat="45.98375" lon="4.75692">
        <ele>174</ele>
        <time>2017-12-15T11:48:26Z</time>
      </trkpt>
      <trkpt lat="45.98369" lon="4.75691">
        <ele>174</ele>
        <time>2017-12-15T11:48:27Z</time>
      </trkpt>
      <trkpt lat="45.98363" lon="4.7569">
        <ele>174</ele>
        <time>2017-12-15T11:48:28Z</time>
      </trkpt>
      <trkpt lat="45.98358" lon="4.75689">
        <ele>174</ele>
        <time>2017-12-15T11:48:29Z</time>
      </trkpt>
      <trkpt lat="45.98349" lon="4.75688">
        <ele>174</ele>
        <time>2017-12-15T11:48:30Z</time>
      </trkpt>
      <trkpt lat="45.98344" lon="4.75687">
        <ele>174</ele>
        <time>2017-12-15T11:48:31Z</time>
      </trkpt>
      <trkpt lat="45.98337" lon="4.75686">
        <ele>174</ele>
        <time>2017-12-15T11:48:32Z</time>
      </trkpt>
      <trkpt lat="45.98328" lon="4.75684">
        <ele>174</ele>
        <time>2017-12-15T11:48:33Z</time>
      </trkpt>
      <trkpt lat="45.98322" lon="4.75684">
        <ele>174</ele>
        <time>2017-12-15T11:48:34Z</time>
      </trkpt>
      <trkpt lat="45.98318" lon="4.75684">
        <ele>174</ele>
        <time>2017-12-15T11:48:35Z</time>
      </trkpt>
      <trkpt lat="45.98314" lon="4.75683">
        <ele>174</ele>
        <time>2017-12-15T11:48:36Z</time>
      </trkpt>
      <trkpt lat="45.98308" lon="4.75682">
        <ele>174</ele>
        <time>2017-12-15T11:48:37Z</time>
      </trkpt>
      <trkpt lat="45.98303" lon="4.75681">
        <ele>174</ele>
        <time>2017-12-15T11:48:38Z</time>
      </trkpt>
      <trkpt lat="45.98298" lon="4.75679">
        <ele>174</ele>
        <time>2017-12-15T11:48:39Z</time>
      </trkpt>
      <trkpt lat="45.98294" lon="4.75679">
        <ele>174</ele>
        <time>2017-12-15T11:48:40Z</time>
      </trkpt>
      <trkpt lat="45.98289" lon="4.75679">
        <ele>174</ele>
        <time>2017-12-15T11:48:41Z</time>
      </trkpt>
      <trkpt lat="45.98283" lon="4.75679">
        <ele>174</ele>
        <time>2017-12-15T11:48:42Z</time>
      </trkpt>
      <trkpt lat="45.98278" lon="4.7568">
        <ele>174</ele>
        <time>2017-12-15T11:48:43Z</time>
      </trkpt>
      <trkpt lat="45.98273" lon="4.75681">
        <ele>174</ele>
        <time>2017-12-15T11:48:44Z</time>
      </trkpt>
      <trkpt lat="45.98269" lon="4.75682">
        <ele>173</ele>
        <time>2017-12-15T11:48:45Z</time>
      </trkpt>
      <trkpt lat="45.98261" lon="4.75681">
        <ele>173</ele>
        <time>2017-12-15T11:48:46Z</time>
      </trkpt>
      <trkpt lat="45.98257" lon="4.75677">
        <ele>173</ele>
        <time>2017-12-15T11:48:47Z</time>
      </trkpt>
      <trkpt lat="45.98248" lon="4.75677">
        <ele>173</ele>
        <time>2017-12-15T11:48:49Z</time>
      </trkpt>
      <trkpt lat="45.98243" lon="4.75678">
        <ele>173</ele>
        <time>2017-12-15T11:48:50Z</time>
      </trkpt>
      <trkpt lat="45.98239" lon="4.75679">
        <ele>173</ele>
        <time>2017-12-15T11:48:51Z</time>
      </trkpt>
      <trkpt lat="45.98233" lon="4.75681">
        <ele>174</ele>
        <time>2017-12-15T11:48:52Z</time>
      </trkpt>
      <trkpt lat="45.98228" lon="4.75682">
        <ele>174</ele>
        <time>2017-12-15T11:48:53Z</time>
      </trkpt>
      <trkpt lat="45.98223" lon="4.75684">
        <ele>174</ele>
        <time>2017-12-15T11:48:54Z</time>
      </trkpt>
      <trkpt lat="45.98214" lon="4.75685">
        <ele>174</ele>
        <time>2017-12-15T11:48:56Z</time>
      </trkpt>
      <trkpt lat="45.98208" lon="4.75686">
        <ele>174</ele>
        <time>2017-12-15T11:48:57Z</time>
      </trkpt>
      <trkpt lat="45.98203" lon="4.75687">
        <ele>174</ele>
        <time>2017-12-15T11:48:58Z</time>
      </trkpt>
      <trkpt lat="45.98198" lon="4.75688">
        <ele>174</ele>
        <time>2017-12-15T11:48:59Z</time>
      </trkpt>
      <trkpt lat="45.9819" lon="4.75689">
        <ele>174</ele>
        <time>2017-12-15T11:49:01Z</time>
      </trkpt>
      <trkpt lat="45.98184" lon="4.75689">
        <ele>174</ele>
        <time>2017-12-15T11:49:02Z</time>
      </trkpt>
      <trkpt lat="45.98176" lon="4.7569">
        <ele>174</ele>
        <time>2017-12-15T11:49:04Z</time>
      </trkpt>
      <trkpt lat="45.98173" lon="4.7569">
        <ele>174</ele>
        <time>2017-12-15T11:49:05Z</time>
      </trkpt>
      <trkpt lat="45.98164" lon="4.7569">
        <ele>174</ele>
        <time>2017-12-15T11:49:07Z</time>
      </trkpt>
      <trkpt lat="45.98158" lon="4.7569">
        <ele>174</ele>
        <time>2017-12-15T11:49:08Z</time>
      </trkpt>
      <trkpt lat="45.98149" lon="4.75691">
        <ele>174</ele>
        <time>2017-12-15T11:49:10Z</time>
      </trkpt>
      <trkpt lat="45.98143" lon="4.75692">
        <ele>174</ele>
        <time>2017-12-15T11:49:11Z</time>
      </trkpt>
      <trkpt lat="45.98138" lon="4.75693">
        <ele>174</ele>
        <time>2017-12-15T11:49:12Z</time>
      </trkpt>
      <trkpt lat="45.98132" lon="4.75692">
        <ele>174</ele>
        <time>2017-12-15T11:49:13Z</time>
      </trkpt>
      <trkpt lat="45.98127" lon="4.75692">
        <ele>174</ele>
        <time>2017-12-15T11:49:14Z</time>
      </trkpt>
      <trkpt lat="45.98122" lon="4.75692">
        <ele>174</ele>
        <time>2017-12-15T11:49:15Z</time>
      </trkpt>
      <trkpt lat="45.98116" lon="4.75693">
        <ele>174</ele>
        <time>2017-12-15T11:49:16Z</time>
      </trkpt>
      <trkpt lat="45.98111" lon="4.75693">
        <ele>174</ele>
        <time>2017-12-15T11:49:17Z</time>
      </trkpt>
      <trkpt lat="45.98105" lon="4.75694">
        <ele>174</ele>
        <time>2017-12-15T11:49:18Z</time>
      </trkpt>
      <trkpt lat="45.98099" lon="4.75694">
        <ele>174</ele>
        <time>2017-12-15T11:49:19Z</time>
      </trkpt>
      <trkpt lat="45.98095" lon="4.75695">
        <ele>174</ele>
        <time>2017-12-15T11:49:20Z</time>
      </trkpt>
      <trkpt lat="45.98089" lon="4.75696">
        <ele>174</ele>
        <time>2017-12-15T11:49:21Z</time>
      </trkpt>
      <trkpt lat="45.98085" lon="4.75695">
        <ele>174</ele>
        <time>2017-12-15T11:49:22Z</time>
      </trkpt>
      <trkpt lat="45.98079" lon="4.75695">
        <ele>174</ele>
        <time>2017-12-15T11:49:23Z</time>
      </trkpt>
      <trkpt lat="45.98074" lon="4.75695">
        <ele>174</ele>
        <time>2017-12-15T11:49:24Z</time>
      </trkpt>
      <trkpt lat="45.98069" lon="4.75696">
        <ele>174</ele>
        <time>2017-12-15T11:49:25Z</time>
      </trkpt>
      <trkpt lat="45.98063" lon="4.75696">
        <ele>174</ele>
        <time>2017-12-15T11:49:26Z</time>
      </trkpt>
      <trkpt lat="45.98057" lon="4.75698">
        <ele>174</ele>
        <time>2017-12-15T11:49:27Z</time>
      </trkpt>
      <trkpt lat="45.98051" lon="4.75699">
        <ele>174</ele>
        <time>2017-12-15T11:49:28Z</time>
      </trkpt>
      <trkpt lat="45.98046" lon="4.75699">
        <ele>174</ele>
        <time>2017-12-15T11:49:29Z</time>
      </trkpt>
      <trkpt lat="45.98041" lon="4.757">
        <ele>174</ele>
        <time>2017-12-15T11:49:30Z</time>
      </trkpt>
      <trkpt lat="45.98036" lon="4.75701">
        <ele>174</ele>
        <time>2017-12-15T11:49:31Z</time>
      </trkpt>
      <trkpt lat="45.98031" lon="4.75702">
        <ele>174</ele>
        <time>2017-12-15T11:49:32Z</time>
      </trkpt>
      <trkpt lat="45.98026" lon="4.75703">
        <ele>174</ele>
        <time>2017-12-15T11:49:33Z</time>
      </trkpt>
      <trkpt lat="45.98022" lon="4.75705">
        <ele>174</ele>
        <time>2017-12-15T11:49:34Z</time>
      </trkpt>
      <trkpt lat="45.98017" lon="4.75707">
        <ele>174</ele>
        <time>2017-12-15T11:49:35Z</time>
      </trkpt>
      <trkpt lat="45.98008" lon="4.7571">
        <ele>174</ele>
        <time>2017-12-15T11:49:37Z</time>
      </trkpt>
      <trkpt lat="45.98004" lon="4.75711">
        <ele>174</ele>
        <time>2017-12-15T11:49:38Z</time>
      </trkpt>
      <trkpt lat="45.97999" lon="4.75712">
        <ele>174</ele>
        <time>2017-12-15T11:49:39Z</time>
      </trkpt>
      <trkpt lat="45.97994" lon="4.75715">
        <ele>174</ele>
        <time>2017-12-15T11:49:40Z</time>
      </trkpt>
      <trkpt lat="45.9799" lon="4.75718">
        <ele>174</ele>
        <time>2017-12-15T11:49:41Z</time>
      </trkpt>
      <trkpt lat="45.97985" lon="4.7572">
        <ele>174</ele>
        <time>2017-12-15T11:49:42Z</time>
      </trkpt>
      <trkpt lat="45.97979" lon="4.75721">
        <ele>174</ele>
        <time>2017-12-15T11:49:43Z</time>
      </trkpt>
      <trkpt lat="45.97973" lon="4.75723">
        <ele>174</ele>
        <time>2017-12-15T11:49:44Z</time>
      </trkpt>
      <trkpt lat="45.97968" lon="4.75724">
        <ele>174</ele>
        <time>2017-12-15T11:49:45Z</time>
      </trkpt>
      <trkpt lat="45.97963" lon="4.75724">
        <ele>174</ele>
        <time>2017-12-15T11:49:46Z</time>
      </trkpt>
      <trkpt lat="45.97959" lon="4.75723">
        <ele>174</ele>
        <time>2017-12-15T11:49:47Z</time>
      </trkpt>
      <trkpt lat="45.97954" lon="4.7572">
        <ele>174</ele>
        <time>2017-12-15T11:49:48Z</time>
      </trkpt>
      <trkpt lat="45.97949" lon="4.75719">
        <ele>174</ele>
        <time>2017-12-15T11:49:49Z</time>
      </trkpt>
      <trkpt lat="45.97945" lon="4.75717">
        <ele>174</ele>
        <time>2017-12-15T11:49:50Z</time>
      </trkpt>
      <trkpt lat="45.97939" lon="4.75715">
        <ele>174</ele>
        <time>2017-12-15T11:49:51Z</time>
      </trkpt>
      <trkpt lat="45.97934" lon="4.75712">
        <ele>174</ele>
        <time>2017-12-15T11:49:52Z</time>
      </trkpt>
      <trkpt lat="45.97928" lon="4.75708">
        <ele>174</ele>
        <time>2017-12-15T11:49:53Z</time>
      </trkpt>
      <trkpt lat="45.97923" lon="4.75705">
        <ele>174</ele>
        <time>2017-12-15T11:49:54Z</time>
      </trkpt>
      <trkpt lat="45.97918" lon="4.75703">
        <ele>174</ele>
        <time>2017-12-15T11:49:55Z</time>
      </trkpt>
      <trkpt lat="45.97914" lon="4.757">
        <ele>175</ele>
        <time>2017-12-15T11:49:56Z</time>
      </trkpt>
      <trkpt lat="45.9791" lon="4.75695">
        <ele>175</ele>
        <time>2017-12-15T11:49:57Z</time>
      </trkpt>
      <trkpt lat="45.97905" lon="4.75692">
        <ele>174</ele>
        <time>2017-12-15T11:49:58Z</time>
      </trkpt>
      <trkpt lat="45.979" lon="4.7569">
        <ele>175</ele>
        <time>2017-12-15T11:49:59Z</time>
      </trkpt>
      <trkpt lat="45.97895" lon="4.75687">
        <ele>175</ele>
        <time>2017-12-15T11:50:00Z</time>
      </trkpt>
      <trkpt lat="45.97889" lon="4.75686">
        <ele>175</ele>
        <time>2017-12-15T11:50:01Z</time>
      </trkpt>
      <trkpt lat="45.97885" lon="4.75683">
        <ele>175</ele>
        <time>2017-12-15T11:50:02Z</time>
      </trkpt>
      <trkpt lat="45.9788" lon="4.75681">
        <ele>175</ele>
        <time>2017-12-15T11:50:03Z</time>
      </trkpt>
      <trkpt lat="45.97875" lon="4.75679">
        <ele>175</ele>
        <time>2017-12-15T11:50:04Z</time>
      </trkpt>
      <trkpt lat="45.97869" lon="4.75677">
        <ele>175</ele>
        <time>2017-12-15T11:50:05Z</time>
      </trkpt>
      <trkpt lat="45.97863" lon="4.75676">
        <ele>175</ele>
        <time>2017-12-15T11:50:06Z</time>
      </trkpt>
      <trkpt lat="45.97858" lon="4.75675">
        <ele>175</ele>
        <time>2017-12-15T11:50:07Z</time>
      </trkpt>
      <trkpt lat="45.97852" lon="4.75674">
        <ele>175</ele>
        <time>2017-12-15T11:50:08Z</time>
      </trkpt>
      <trkpt lat="45.97846" lon="4.75673">
        <ele>175</ele>
        <time>2017-12-15T11:50:09Z</time>
      </trkpt>
      <trkpt lat="45.97842" lon="4.75672">
        <ele>175</ele>
        <time>2017-12-15T11:50:10Z</time>
      </trkpt>
      <trkpt lat="45.97837" lon="4.75672">
        <ele>175</ele>
        <time>2017-12-15T11:50:11Z</time>
      </trkpt>
      <trkpt lat="45.97832" lon="4.7567">
        <ele>175</ele>
        <time>2017-12-15T11:50:12Z</time>
      </trkpt>
      <trkpt lat="45.97829" lon="4.75671">
        <ele>175</ele>
        <time>2017-12-15T11:50:13Z</time>
      </trkpt>
      <trkpt lat="45.97823" lon="4.75671">
        <ele>175</ele>
        <time>2017-12-15T11:50:14Z</time>
      </trkpt>
      <trkpt lat="45.97817" lon="4.75671">
        <ele>175</ele>
        <time>2017-12-15T11:50:15Z</time>
      </trkpt>
      <trkpt lat="45.97812" lon="4.75669">
        <ele>175</ele>
        <time>2017-12-15T11:50:16Z</time>
      </trkpt>
      <trkpt lat="45.97806" lon="4.75667">
        <ele>175</ele>
        <time>2017-12-15T11:50:17Z</time>
      </trkpt>
      <trkpt lat="45.978" lon="4.75667">
        <ele>174</ele>
        <time>2017-12-15T11:50:18Z</time>
      </trkpt>
      <trkpt lat="45.97793" lon="4.75665">
        <ele>172</ele>
        <time>2017-12-15T11:50:19Z</time>
      </trkpt>
      <trkpt lat="45.97788" lon="4.75665">
        <ele>172</ele>
        <time>2017-12-15T11:50:20Z</time>
      </trkpt>
      <trkpt lat="45.97781" lon="4.75665">
        <ele>172</ele>
        <time>2017-12-15T11:50:21Z</time>
      </trkpt>
      <trkpt lat="45.97776" lon="4.75664">
        <ele>172</ele>
        <time>2017-12-15T11:50:22Z</time>
      </trkpt>
      <trkpt lat="45.9777" lon="4.75662">
        <ele>172</ele>
        <time>2017-12-15T11:50:23Z</time>
      </trkpt>
      <trkpt lat="45.97764" lon="4.75662">
        <ele>172</ele>
        <time>2017-12-15T11:50:24Z</time>
      </trkpt>
      <trkpt lat="45.97758" lon="4.75661">
        <ele>172</ele>
        <time>2017-12-15T11:50:25Z</time>
      </trkpt>
      <trkpt lat="45.97752" lon="4.75662">
        <ele>172</ele>
        <time>2017-12-15T11:50:26Z</time>
      </trkpt>
      <trkpt lat="45.97747" lon="4.75661">
        <ele>172</ele>
        <time>2017-12-15T11:50:27Z</time>
      </trkpt>
      <trkpt lat="45.97741" lon="4.75661">
        <ele>172</ele>
        <time>2017-12-15T11:50:28Z</time>
      </trkpt>
      <trkpt lat="45.97736" lon="4.75661">
        <ele>171</ele>
        <time>2017-12-15T11:50:29Z</time>
      </trkpt>
      <trkpt lat="45.9773" lon="4.7566">
        <ele>171</ele>
        <time>2017-12-15T11:50:30Z</time>
      </trkpt>
      <trkpt lat="45.97722" lon="4.75661">
        <ele>171</ele>
        <time>2017-12-15T11:50:32Z</time>
      </trkpt>
      <trkpt lat="45.97717" lon="4.75661">
        <ele>171</ele>
        <time>2017-12-15T11:50:33Z</time>
      </trkpt>
      <trkpt lat="45.97711" lon="4.75661">
        <ele>171</ele>
        <time>2017-12-15T11:50:34Z</time>
      </trkpt>
      <trkpt lat="45.97707" lon="4.75662">
        <ele>171</ele>
        <time>2017-12-15T11:50:35Z</time>
      </trkpt>
      <trkpt lat="45.97702" lon="4.75662">
        <ele>171</ele>
        <time>2017-12-15T11:50:36Z</time>
      </trkpt>
      <trkpt lat="45.97697" lon="4.75662">
        <ele>170</ele>
        <time>2017-12-15T11:50:37Z</time>
      </trkpt>
      <trkpt lat="45.97691" lon="4.75662">
        <ele>170</ele>
        <time>2017-12-15T11:50:38Z</time>
      </trkpt>
      <trkpt lat="45.97685" lon="4.75662">
        <ele>170</ele>
        <time>2017-12-15T11:50:39Z</time>
      </trkpt>
      <trkpt lat="45.9768" lon="4.75663">
        <ele>170</ele>
        <time>2017-12-15T11:50:40Z</time>
      </trkpt>
      <trkpt lat="45.97674" lon="4.75663">
        <ele>170</ele>
        <time>2017-12-15T11:50:41Z</time>
      </trkpt>
      <trkpt lat="45.97668" lon="4.75664">
        <ele>169</ele>
        <time>2017-12-15T11:50:42Z</time>
      </trkpt>
      <trkpt lat="45.97663" lon="4.75665">
        <ele>169</ele>
        <time>2017-12-15T11:50:43Z</time>
      </trkpt>
      <trkpt lat="45.97657" lon="4.75665">
        <ele>169</ele>
        <time>2017-12-15T11:50:44Z</time>
      </trkpt>
      <trkpt lat="45.97652" lon="4.75664">
        <ele>169</ele>
        <time>2017-12-15T11:50:45Z</time>
      </trkpt>
      <trkpt lat="45.97646" lon="4.75664">
        <ele>169</ele>
        <time>2017-12-15T11:50:46Z</time>
      </trkpt>
      <trkpt lat="45.97641" lon="4.75664">
        <ele>170</ele>
        <time>2017-12-15T11:50:47Z</time>
      </trkpt>
      <trkpt lat="45.97636" lon="4.75664">
        <ele>170</ele>
        <time>2017-12-15T11:50:48Z</time>
      </trkpt>
      <trkpt lat="45.97632" lon="4.75665">
        <ele>170</ele>
        <time>2017-12-15T11:50:49Z</time>
      </trkpt>
      <trkpt lat="45.97623" lon="4.75666">
        <ele>170</ele>
        <time>2017-12-15T11:50:51Z</time>
      </trkpt>
      <trkpt lat="45.97618" lon="4.75667">
        <ele>171</ele>
        <time>2017-12-15T11:50:52Z</time>
      </trkpt>
      <trkpt lat="45.97614" lon="4.75668">
        <ele>171</ele>
        <time>2017-12-15T11:50:53Z</time>
      </trkpt>
      <trkpt lat="45.97609" lon="4.7567">
        <ele>171</ele>
        <time>2017-12-15T11:50:54Z</time>
      </trkpt>
      <trkpt lat="45.97605" lon="4.75673">
        <ele>171</ele>
        <time>2017-12-15T11:50:55Z</time>
      </trkpt>
      <trkpt lat="45.976" lon="4.75675">
        <ele>171</ele>
        <time>2017-12-15T11:50:56Z</time>
      </trkpt>
      <trkpt lat="45.97596" lon="4.75678">
        <ele>171</ele>
        <time>2017-12-15T11:50:57Z</time>
      </trkpt>
      <trkpt lat="45.97591" lon="4.7568">
        <ele>171</ele>
        <time>2017-12-15T11:50:58Z</time>
      </trkpt>
      <trkpt lat="45.97582" lon="4.75677">
        <ele>171</ele>
        <time>2017-12-15T11:51:00Z</time>
      </trkpt>
      <trkpt lat="45.97579" lon="4.75673">
        <ele>171</ele>
        <time>2017-12-15T11:51:01Z</time>
      </trkpt>
      <trkpt lat="45.97572" lon="4.75664">
        <ele>170</ele>
        <time>2017-12-15T11:51:03Z</time>
      </trkpt>
      <trkpt lat="45.97569" lon="4.7566">
        <ele>170</ele>
        <time>2017-12-15T11:51:04Z</time>
      </trkpt>
      <trkpt lat="45.97564" lon="4.7566">
        <ele>169</ele>
        <time>2017-12-15T11:51:05Z</time>
      </trkpt>
      <trkpt lat="45.97558" lon="4.75658">
        <ele>169</ele>
        <time>2017-12-15T11:51:06Z</time>
      </trkpt>
      <trkpt lat="45.97553" lon="4.75656">
        <ele>169</ele>
        <time>2017-12-15T11:51:07Z</time>
      </trkpt>
      <trkpt lat="45.97549" lon="4.75655">
        <ele>169</ele>
        <time>2017-12-15T11:51:08Z</time>
      </trkpt>
      <trkpt lat="45.97544" lon="4.75652">
        <ele>169</ele>
        <time>2017-12-15T11:51:09Z</time>
      </trkpt>
      <trkpt lat="45.9754" lon="4.75652">
        <ele>169</ele>
        <time>2017-12-15T11:51:10Z</time>
      </trkpt>
      <trkpt lat="45.97534" lon="4.75653">
        <ele>169</ele>
        <time>2017-12-15T11:51:11Z</time>
      </trkpt>
      <trkpt lat="45.97528" lon="4.75656">
        <ele>169</ele>
        <time>2017-12-15T11:51:12Z</time>
      </trkpt>
      <trkpt lat="45.97523" lon="4.75659">
        <ele>169</ele>
        <time>2017-12-15T11:51:13Z</time>
      </trkpt>
      <trkpt lat="45.97517" lon="4.75663">
        <ele>169</ele>
        <time>2017-12-15T11:51:14Z</time>
      </trkpt>
      <trkpt lat="45.97512" lon="4.75665">
        <ele>169</ele>
        <time>2017-12-15T11:51:15Z</time>
      </trkpt>
      <trkpt lat="45.97506" lon="4.75667">
        <ele>170</ele>
        <time>2017-12-15T11:51:16Z</time>
      </trkpt>
      <trkpt lat="45.97501" lon="4.75669">
        <ele>170</ele>
        <time>2017-12-15T11:51:17Z</time>
      </trkpt>
      <trkpt lat="45.97495" lon="4.7567">
        <ele>170</ele>
        <time>2017-12-15T11:51:18Z</time>
      </trkpt>
      <trkpt lat="45.97487" lon="4.7567">
        <ele>170</ele>
        <time>2017-12-15T11:51:19Z</time>
      </trkpt>
      <trkpt lat="45.97482" lon="4.75672">
        <ele>170</ele>
        <time>2017-12-15T11:51:20Z</time>
      </trkpt>
      <trkpt lat="45.97477" lon="4.75673">
        <ele>171</ele>
        <time>2017-12-15T11:51:21Z</time>
      </trkpt>
      <trkpt lat="45.97471" lon="4.75675">
        <ele>171</ele>
        <time>2017-12-15T11:51:22Z</time>
      </trkpt>
      <trkpt lat="45.97467" lon="4.75673">
        <ele>171</ele>
        <time>2017-12-15T11:51:23Z</time>
      </trkpt>
      <trkpt lat="45.97462" lon="4.75674">
        <ele>171</ele>
        <time>2017-12-15T11:51:24Z</time>
      </trkpt>
      <trkpt lat="45.97456" lon="4.75675">
        <ele>170</ele>
        <time>2017-12-15T11:51:25Z</time>
      </trkpt>
      <trkpt lat="45.9745" lon="4.75676">
        <ele>170</ele>
        <time>2017-12-15T11:51:26Z</time>
      </trkpt>
      <trkpt lat="45.97446" lon="4.75677">
        <ele>170</ele>
        <time>2017-12-15T11:51:27Z</time>
      </trkpt>
      <trkpt lat="45.97439" lon="4.75678">
        <ele>170</ele>
        <time>2017-12-15T11:51:28Z</time>
      </trkpt>
      <trkpt lat="45.97434" lon="4.75677">
        <ele>170</ele>
        <time>2017-12-15T11:51:29Z</time>
      </trkpt>
      <trkpt lat="45.97428" lon="4.7568">
        <ele>170</ele>
        <time>2017-12-15T11:51:30Z</time>
      </trkpt>
      <trkpt lat="45.97422" lon="4.75679">
        <ele>170</ele>
        <time>2017-12-15T11:51:31Z</time>
      </trkpt>
      <trkpt lat="45.97417" lon="4.75678">
        <ele>170</ele>
        <time>2017-12-15T11:51:32Z</time>
      </trkpt>
      <trkpt lat="45.97412" lon="4.75679">
        <ele>171</ele>
        <time>2017-12-15T11:51:33Z</time>
      </trkpt>
      <trkpt lat="45.97407" lon="4.75678">
        <ele>171</ele>
        <time>2017-12-15T11:51:34Z</time>
      </trkpt>
      <trkpt lat="45.97401" lon="4.75679">
        <ele>172</ele>
        <time>2017-12-15T11:51:35Z</time>
      </trkpt>
      <trkpt lat="45.97395" lon="4.75679">
        <ele>172</ele>
        <time>2017-12-15T11:51:36Z</time>
      </trkpt>
      <trkpt lat="45.9739" lon="4.75679">
        <ele>173</ele>
        <time>2017-12-15T11:51:37Z</time>
      </trkpt>
      <trkpt lat="45.97384" lon="4.75679">
        <ele>173</ele>
        <time>2017-12-15T11:51:38Z</time>
      </trkpt>
      <trkpt lat="45.97379" lon="4.75679">
        <ele>173</ele>
        <time>2017-12-15T11:51:39Z</time>
      </trkpt>
      <trkpt lat="45.97373" lon="4.75679">
        <ele>174</ele>
        <time>2017-12-15T11:51:40Z</time>
      </trkpt>
      <trkpt lat="45.97367" lon="4.75679">
        <ele>174</ele>
        <time>2017-12-15T11:51:41Z</time>
      </trkpt>
      <trkpt lat="45.97362" lon="4.75678">
        <ele>174</ele>
        <time>2017-12-15T11:51:42Z</time>
      </trkpt>
      <trkpt lat="45.97357" lon="4.75678">
        <ele>174</ele>
        <time>2017-12-15T11:51:43Z</time>
      </trkpt>
      <trkpt lat="45.97352" lon="4.75678">
        <ele>175</ele>
        <time>2017-12-15T11:51:44Z</time>
      </trkpt>
      <trkpt lat="45.97346" lon="4.75677">
        <ele>175</ele>
        <time>2017-12-15T11:51:45Z</time>
      </trkpt>
      <trkpt lat="45.97341" lon="4.75677">
        <ele>175</ele>
        <time>2017-12-15T11:51:46Z</time>
      </trkpt>
      <trkpt lat="45.97337" lon="4.75675">
        <ele>175</ele>
        <time>2017-12-15T11:51:47Z</time>
      </trkpt>
      <trkpt lat="45.97332" lon="4.75674">
        <ele>176</ele>
        <time>2017-12-15T11:51:48Z</time>
      </trkpt>
      <trkpt lat="45.97326" lon="4.75674">
        <ele>176</ele>
        <time>2017-12-15T11:51:49Z</time>
      </trkpt>
      <trkpt lat="45.97321" lon="4.75673">
        <ele>176</ele>
        <time>2017-12-15T11:51:50Z</time>
      </trkpt>
      <trkpt lat="45.97316" lon="4.75673">
        <ele>176</ele>
        <time>2017-12-15T11:51:51Z</time>
      </trkpt>
      <trkpt lat="45.9731" lon="4.75672">
        <ele>176</ele>
        <time>2017-12-15T11:51:52Z</time>
      </trkpt>
      <trkpt lat="45.97305" lon="4.75673">
        <ele>176</ele>
        <time>2017-12-15T11:51:53Z</time>
      </trkpt>
      <trkpt lat="45.97298" lon="4.7567">
        <ele>176</ele>
        <time>2017-12-15T11:51:54Z</time>
      </trkpt>
      <trkpt lat="45.97292" lon="4.75669">
        <ele>176</ele>
        <time>2017-12-15T11:51:55Z</time>
      </trkpt>
      <trkpt lat="45.97288" lon="4.75667">
        <ele>176</ele>
        <time>2017-12-15T11:51:56Z</time>
      </trkpt>
      <trkpt lat="45.97282" lon="4.75666">
        <ele>172</ele>
        <time>2017-12-15T11:51:57Z</time>
      </trkpt>
      <trkpt lat="45.97276" lon="4.75664">
        <ele>172</ele>
        <time>2017-12-15T11:51:58Z</time>
      </trkpt>
      <trkpt lat="45.97271" lon="4.75662">
        <ele>172</ele>
        <time>2017-12-15T11:51:59Z</time>
      </trkpt>
      <trkpt lat="45.97266" lon="4.75661">
        <ele>172</ele>
        <time>2017-12-15T11:52:00Z</time>
      </trkpt>
      <trkpt lat="45.97261" lon="4.75659">
        <ele>173</ele>
        <time>2017-12-15T11:52:01Z</time>
      </trkpt>
      <trkpt lat="45.97256" lon="4.75657">
        <ele>173</ele>
        <time>2017-12-15T11:52:02Z</time>
      </trkpt>
      <trkpt lat="45.9725" lon="4.75656">
        <ele>173</ele>
        <time>2017-12-15T11:52:03Z</time>
      </trkpt>
      <trkpt lat="45.97244" lon="4.75655">
        <ele>173</ele>
        <time>2017-12-15T11:52:04Z</time>
      </trkpt>
      <trkpt lat="45.97239" lon="4.75654">
        <ele>173</ele>
        <time>2017-12-15T11:52:05Z</time>
      </trkpt>
      <trkpt lat="45.97234" lon="4.75653">
        <ele>173</ele>
        <time>2017-12-15T11:52:06Z</time>
      </trkpt>
      <trkpt lat="45.97228" lon="4.7565">
        <ele>173</ele>
        <time>2017-12-15T11:52:07Z</time>
      </trkpt>
      <trkpt lat="45.97224" lon="4.75648">
        <ele>173</ele>
        <time>2017-12-15T11:52:08Z</time>
      </trkpt>
      <trkpt lat="45.97218" lon="4.75647">
        <ele>173</ele>
        <time>2017-12-15T11:52:09Z</time>
      </trkpt>
      <trkpt lat="45.97212" lon="4.75646">
        <ele>173</ele>
        <time>2017-12-15T11:52:10Z</time>
      </trkpt>
      <trkpt lat="45.97208" lon="4.75643">
        <ele>173</ele>
        <time>2017-12-15T11:52:11Z</time>
      </trkpt>
      <trkpt lat="45.97201" lon="4.75642">
        <ele>173</ele>
        <time>2017-12-15T11:52:12Z</time>
      </trkpt>
      <trkpt lat="45.97196" lon="4.75641">
        <ele>173</ele>
        <time>2017-12-15T11:52:13Z</time>
      </trkpt>
      <trkpt lat="45.97193" lon="4.75638">
        <ele>173</ele>
        <time>2017-12-15T11:52:14Z</time>
      </trkpt>
      <trkpt lat="45.97187" lon="4.75635">
        <ele>173</ele>
        <time>2017-12-15T11:52:15Z</time>
      </trkpt>
      <trkpt lat="45.97182" lon="4.75633">
        <ele>174</ele>
        <time>2017-12-15T11:52:16Z</time>
      </trkpt>
      <trkpt lat="45.97177" lon="4.75631">
        <ele>174</ele>
        <time>2017-12-15T11:52:17Z</time>
      </trkpt>
      <trkpt lat="45.97172" lon="4.75629">
        <ele>174</ele>
        <time>2017-12-15T11:52:18Z</time>
      </trkpt>
      <trkpt lat="45.97166" lon="4.75627">
        <ele>176</ele>
        <time>2017-12-15T11:52:19Z</time>
      </trkpt>
      <trkpt lat="45.97162" lon="4.75624">
        <ele>176</ele>
        <time>2017-12-15T11:52:20Z</time>
      </trkpt>
      <trkpt lat="45.97157" lon="4.75621">
        <ele>176</ele>
        <time>2017-12-15T11:52:21Z</time>
      </trkpt>
      <trkpt lat="45.97152" lon="4.75619">
        <ele>176</ele>
        <time>2017-12-15T11:52:22Z</time>
      </trkpt>
      <trkpt lat="45.97147" lon="4.75616">
        <ele>176</ele>
        <time>2017-12-15T11:52:23Z</time>
      </trkpt>
      <trkpt lat="45.97144" lon="4.75612">
        <ele>176</ele>
        <time>2017-12-15T11:52:24Z</time>
      </trkpt>
      <trkpt lat="45.97139" lon="4.75609">
        <ele>176</ele>
        <time>2017-12-15T11:52:25Z</time>
      </trkpt>
      <trkpt lat="45.97133" lon="4.75608">
        <ele>176</ele>
        <time>2017-12-15T11:52:26Z</time>
      </trkpt>
      <trkpt lat="45.97128" lon="4.75604">
        <ele>176</ele>
        <time>2017-12-15T11:52:27Z</time>
      </trkpt>
      <trkpt lat="45.97123" lon="4.75602">
        <ele>176</ele>
        <time>2017-12-15T11:52:28Z</time>
      </trkpt>
      <trkpt lat="45.97117" lon="4.756">
        <ele>176</ele>
        <time>2017-12-15T11:52:29Z</time>
      </trkpt>
      <trkpt lat="45.97112" lon="4.75597">
        <ele>176</ele>
        <time>2017-12-15T11:52:30Z</time>
      </trkpt>
      <trkpt lat="45.97107" lon="4.75595">
        <ele>176</ele>
        <time>2017-12-15T11:52:31Z</time>
      </trkpt>
      <trkpt lat="45.97102" lon="4.75593">
        <ele>176</ele>
        <time>2017-12-15T11:52:32Z</time>
      </trkpt>
      <trkpt lat="45.97097" lon="4.75591">
        <ele>176</ele>
        <time>2017-12-15T11:52:33Z</time>
      </trkpt>
      <trkpt lat="45.97092" lon="4.75589">
        <ele>176</ele>
        <time>2017-12-15T11:52:34Z</time>
      </trkpt>
      <trkpt lat="45.97086" lon="4.75587">
        <ele>175</ele>
        <time>2017-12-15T11:52:35Z</time>
      </trkpt>
      <trkpt lat="45.97081" lon="4.75584">
        <ele>176</ele>
        <time>2017-12-15T11:52:36Z</time>
      </trkpt>
      <trkpt lat="45.97076" lon="4.75582">
        <ele>174</ele>
        <time>2017-12-15T11:52:37Z</time>
      </trkpt>
      <trkpt lat="45.9707" lon="4.75581">
        <ele>174</ele>
        <time>2017-12-15T11:52:38Z</time>
      </trkpt>
      <trkpt lat="45.97065" lon="4.75579">
        <ele>174</ele>
        <time>2017-12-15T11:52:39Z</time>
      </trkpt>
      <trkpt lat="45.97059" lon="4.75577">
        <ele>173</ele>
        <time>2017-12-15T11:52:40Z</time>
      </trkpt>
      <trkpt lat="45.97053" lon="4.75575">
        <ele>173</ele>
        <time>2017-12-15T11:52:41Z</time>
      </trkpt>
      <trkpt lat="45.97049" lon="4.75571">
        <ele>173</ele>
        <time>2017-12-15T11:52:42Z</time>
      </trkpt>
      <trkpt lat="45.97043" lon="4.7557">
        <ele>173</ele>
        <time>2017-12-15T11:52:43Z</time>
      </trkpt>
      <trkpt lat="45.97038" lon="4.75568">
        <ele>174</ele>
        <time>2017-12-15T11:52:44Z</time>
      </trkpt>
      <trkpt lat="45.97033" lon="4.75566">
        <ele>174</ele>
        <time>2017-12-15T11:52:45Z</time>
      </trkpt>
      <trkpt lat="45.97028" lon="4.75564">
        <ele>174</ele>
        <time>2017-12-15T11:52:46Z</time>
      </trkpt>
      <trkpt lat="45.97022" lon="4.75562">
        <ele>174</ele>
        <time>2017-12-15T11:52:47Z</time>
      </trkpt>
      <trkpt lat="45.97017" lon="4.7556">
        <ele>174</ele>
        <time>2017-12-15T11:52:48Z</time>
      </trkpt>
      <trkpt lat="45.97012" lon="4.75557">
        <ele>174</ele>
        <time>2017-12-15T11:52:49Z</time>
      </trkpt>
      <trkpt lat="45.97007" lon="4.75555">
        <ele>174</ele>
        <time>2017-12-15T11:52:50Z</time>
      </trkpt>
      <trkpt lat="45.97003" lon="4.75553">
        <ele>174</ele>
        <time>2017-12-15T11:52:51Z</time>
      </trkpt>
      <trkpt lat="45.96997" lon="4.75552">
        <ele>175</ele>
        <time>2017-12-15T11:52:52Z</time>
      </trkpt>
      <trkpt lat="45.96993" lon="4.75549">
        <ele>175</ele>
        <time>2017-12-15T11:52:53Z</time>
      </trkpt>
      <trkpt lat="45.96988" lon="4.75548">
        <ele>175</ele>
        <time>2017-12-15T11:52:54Z</time>
      </trkpt>
      <trkpt lat="45.96982" lon="4.75546">
        <ele>175</ele>
        <time>2017-12-15T11:52:55Z</time>
      </trkpt>
      <trkpt lat="45.96977" lon="4.75544">
        <ele>175</ele>
        <time>2017-12-15T11:52:56Z</time>
      </trkpt>
      <trkpt lat="45.96972" lon="4.75542">
        <ele>175</ele>
        <time>2017-12-15T11:52:57Z</time>
      </trkpt>
      <trkpt lat="45.96967" lon="4.75542">
        <ele>175</ele>
        <time>2017-12-15T11:52:58Z</time>
      </trkpt>
      <trkpt lat="45.96962" lon="4.7554">
        <ele>175</ele>
        <time>2017-12-15T11:52:59Z</time>
      </trkpt>
      <trkpt lat="45.96953" lon="4.75538">
        <ele>175</ele>
        <time>2017-12-15T11:53:00Z</time>
      </trkpt>
      <trkpt lat="45.96945" lon="4.75534">
        <ele>175</ele>
        <time>2017-12-15T11:53:02Z</time>
      </trkpt>
      <trkpt lat="45.96941" lon="4.75533">
        <ele>175</ele>
        <time>2017-12-15T11:53:03Z</time>
      </trkpt>
      <trkpt lat="45.96933" lon="4.75529">
        <ele>175</ele>
        <time>2017-12-15T11:53:05Z</time>
      </trkpt>
      <trkpt lat="45.96931" lon="4.75525">
        <ele>175</ele>
        <time>2017-12-15T11:53:06Z</time>
      </trkpt>
      <trkpt lat="45.96926" lon="4.75524">
        <ele>174</ele>
        <time>2017-12-15T11:53:07Z</time>
      </trkpt>
      <trkpt lat="45.96918" lon="4.75521">
        <ele>174</ele>
        <time>2017-12-15T11:53:08Z</time>
      </trkpt>
      <trkpt lat="45.96914" lon="4.75519">
        <ele>177</ele>
        <time>2017-12-15T11:53:09Z</time>
      </trkpt>
      <trkpt lat="45.96908" lon="4.75515">
        <ele>177</ele>
        <time>2017-12-15T11:53:10Z</time>
      </trkpt>
      <trkpt lat="45.96903" lon="4.75514">
        <ele>177</ele>
        <time>2017-12-15T11:53:11Z</time>
      </trkpt>
      <trkpt lat="45.96899" lon="4.75513">
        <ele>177</ele>
        <time>2017-12-15T11:53:12Z</time>
      </trkpt>
      <trkpt lat="45.9689" lon="4.7551">
        <ele>178</ele>
        <time>2017-12-15T11:53:14Z</time>
      </trkpt>
      <trkpt lat="45.96884" lon="4.7551">
        <ele>178</ele>
        <time>2017-12-15T11:53:15Z</time>
      </trkpt>
      <trkpt lat="45.96876" lon="4.75506">
        <ele>178</ele>
        <time>2017-12-15T11:53:17Z</time>
      </trkpt>
      <trkpt lat="45.96871" lon="4.75505">
        <ele>179</ele>
        <time>2017-12-15T11:53:18Z</time>
      </trkpt>
      <trkpt lat="45.96867" lon="4.75504">
        <ele>178</ele>
        <time>2017-12-15T11:53:19Z</time>
      </trkpt>
      <trkpt lat="45.96863" lon="4.75501">
        <ele>178</ele>
        <time>2017-12-15T11:53:20Z</time>
      </trkpt>
      <trkpt lat="45.96858" lon="4.755">
        <ele>172</ele>
        <time>2017-12-15T11:53:21Z</time>
      </trkpt>
      <trkpt lat="45.96853" lon="4.75497">
        <ele>172</ele>
        <time>2017-12-15T11:53:22Z</time>
      </trkpt>
      <trkpt lat="45.96847" lon="4.75496">
        <ele>172</ele>
        <time>2017-12-15T11:53:23Z</time>
      </trkpt>
      <trkpt lat="45.96843" lon="4.75494">
        <ele>172</ele>
        <time>2017-12-15T11:53:24Z</time>
      </trkpt>
      <trkpt lat="45.96836" lon="4.75493">
        <ele>173</ele>
        <time>2017-12-15T11:53:25Z</time>
      </trkpt>
      <trkpt lat="45.96831" lon="4.75491">
        <ele>174</ele>
        <time>2017-12-15T11:53:26Z</time>
      </trkpt>
      <trkpt lat="45.96826" lon="4.75489">
        <ele>174</ele>
        <time>2017-12-15T11:53:27Z</time>
      </trkpt>
      <trkpt lat="45.9682" lon="4.75487">
        <ele>174</ele>
        <time>2017-12-15T11:53:28Z</time>
      </trkpt>
      <trkpt lat="45.96815" lon="4.75485">
        <ele>174</ele>
        <time>2017-12-15T11:53:29Z</time>
      </trkpt>
      <trkpt lat="45.96811" lon="4.75483">
        <ele>174</ele>
        <time>2017-12-15T11:53:30Z</time>
      </trkpt>
      <trkpt lat="45.96807" lon="4.7548">
        <ele>174</ele>
        <time>2017-12-15T11:53:31Z</time>
      </trkpt>
      <trkpt lat="45.96802" lon="4.75477">
        <ele>174</ele>
        <time>2017-12-15T11:53:32Z</time>
      </trkpt>
      <trkpt lat="45.96797" lon="4.75474">
        <ele>174</ele>
        <time>2017-12-15T11:53:33Z</time>
      </trkpt>
      <trkpt lat="45.96791" lon="4.75472">
        <ele>174</ele>
        <time>2017-12-15T11:53:34Z</time>
      </trkpt>
      <trkpt lat="45.96787" lon="4.75471">
        <ele>174</ele>
        <time>2017-12-15T11:53:35Z</time>
      </trkpt>
      <trkpt lat="45.96782" lon="4.75469">
        <ele>174</ele>
        <time>2017-12-15T11:53:36Z</time>
      </trkpt>
      <trkpt lat="45.96776" lon="4.75466">
        <ele>174</ele>
        <time>2017-12-15T11:53:37Z</time>
      </trkpt>
      <trkpt lat="45.96772" lon="4.75464">
        <ele>174</ele>
        <time>2017-12-15T11:53:38Z</time>
      </trkpt>
      <trkpt lat="45.96766" lon="4.75462">
        <ele>174</ele>
        <time>2017-12-15T11:53:39Z</time>
      </trkpt>
      <trkpt lat="45.96761" lon="4.75461">
        <ele>174</ele>
        <time>2017-12-15T11:53:40Z</time>
      </trkpt>
      <trkpt lat="45.96755" lon="4.75459">
        <ele>174</ele>
        <time>2017-12-15T11:53:41Z</time>
      </trkpt>
      <trkpt lat="45.96751" lon="4.75455">
        <ele>174</ele>
        <time>2017-12-15T11:53:42Z</time>
      </trkpt>
      <trkpt lat="45.96746" lon="4.75454">
        <ele>179</ele>
        <time>2017-12-15T11:53:43Z</time>
      </trkpt>
      <trkpt lat="45.9674" lon="4.75451">
        <ele>179</ele>
        <time>2017-12-15T11:53:44Z</time>
      </trkpt>
      <trkpt lat="45.96736" lon="4.75448">
        <ele>179</ele>
        <time>2017-12-15T11:53:45Z</time>
      </trkpt>
      <trkpt lat="45.96731" lon="4.75446">
        <ele>179</ele>
        <time>2017-12-15T11:53:46Z</time>
      </trkpt>
      <trkpt lat="45.96727" lon="4.75444">
        <ele>179</ele>
        <time>2017-12-15T11:53:47Z</time>
      </trkpt>
      <trkpt lat="45.96723" lon="4.75441">
        <ele>179</ele>
        <time>2017-12-15T11:53:48Z</time>
      </trkpt>
      <trkpt lat="45.96713" lon="4.75439">
        <ele>179</ele>
        <time>2017-12-15T11:53:49Z</time>
      </trkpt>
      <trkpt lat="45.96709" lon="4.75434">
        <ele>179</ele>
        <time>2017-12-15T11:53:50Z</time>
      </trkpt>
      <trkpt lat="45.96705" lon="4.75431">
        <ele>179</ele>
        <time>2017-12-15T11:53:51Z</time>
      </trkpt>
      <trkpt lat="45.96696" lon="4.75425">
        <ele>179</ele>
        <time>2017-12-15T11:53:53Z</time>
      </trkpt>
      <trkpt lat="45.96693" lon="4.75423">
        <ele>179</ele>
        <time>2017-12-15T11:53:54Z</time>
      </trkpt>
      <trkpt lat="45.96685" lon="4.75417">
        <ele>179</ele>
        <time>2017-12-15T11:53:56Z</time>
      </trkpt>
      <trkpt lat="45.96681" lon="4.75415">
        <ele>173</ele>
        <time>2017-12-15T11:53:57Z</time>
      </trkpt>
      <trkpt lat="45.96673" lon="4.75411">
        <ele>174</ele>
        <time>2017-12-15T11:53:59Z</time>
      </trkpt>
      <trkpt lat="45.96669" lon="4.75408">
        <ele>174</ele>
        <time>2017-12-15T11:54:00Z</time>
      </trkpt>
      <trkpt lat="45.96661" lon="4.75405">
        <ele>177</ele>
        <time>2017-12-15T11:54:02Z</time>
      </trkpt>
      <trkpt lat="45.96657" lon="4.75402">
        <ele>178</ele>
        <time>2017-12-15T11:54:03Z</time>
      </trkpt>
      <trkpt lat="45.96653" lon="4.75399">
        <ele>178</ele>
        <time>2017-12-15T11:54:04Z</time>
      </trkpt>
      <trkpt lat="45.96648" lon="4.75396">
        <ele>178</ele>
        <time>2017-12-15T11:54:05Z</time>
      </trkpt>
      <trkpt lat="45.96644" lon="4.75394">
        <ele>179</ele>
        <time>2017-12-15T11:54:06Z</time>
      </trkpt>
      <trkpt lat="45.96639" lon="4.75392">
        <ele>179</ele>
        <time>2017-12-15T11:54:07Z</time>
      </trkpt>
      <trkpt lat="45.96634" lon="4.75388">
        <ele>180</ele>
        <time>2017-12-15T11:54:08Z</time>
      </trkpt>
      <trkpt lat="45.9663" lon="4.75386">
        <ele>180</ele>
        <time>2017-12-15T11:54:09Z</time>
      </trkpt>
      <trkpt lat="45.96625" lon="4.75383">
        <ele>180</ele>
        <time>2017-12-15T11:54:10Z</time>
      </trkpt>
      <trkpt lat="45.9662" lon="4.75381">
        <ele>180</ele>
        <time>2017-12-15T11:54:11Z</time>
      </trkpt>
      <trkpt lat="45.96616" lon="4.75379">
        <ele>181</ele>
        <time>2017-12-15T11:54:12Z</time>
      </trkpt>
      <trkpt lat="45.96611" lon="4.75377">
        <ele>181</ele>
        <time>2017-12-15T11:54:13Z</time>
      </trkpt>
      <trkpt lat="45.96606" lon="4.75375">
        <ele>181</ele>
        <time>2017-12-15T11:54:14Z</time>
      </trkpt>
      <trkpt lat="45.96601" lon="4.75372">
        <ele>181</ele>
        <time>2017-12-15T11:54:15Z</time>
      </trkpt>
      <trkpt lat="45.96597" lon="4.7537">
        <ele>181</ele>
        <time>2017-12-15T11:54:16Z</time>
      </trkpt>
      <trkpt lat="45.96592" lon="4.75368">
        <ele>181</ele>
        <time>2017-12-15T11:54:17Z</time>
      </trkpt>
      <trkpt lat="45.96588" lon="4.75364">
        <ele>180</ele>
        <time>2017-12-15T11:54:18Z</time>
      </trkpt>
      <trkpt lat="45.96582" lon="4.75361">
        <ele>188</ele>
        <time>2017-12-15T11:54:19Z</time>
      </trkpt>
      <trkpt lat="45.96577" lon="4.75357">
        <ele>187</ele>
        <time>2017-12-15T11:54:20Z</time>
      </trkpt>
      <trkpt lat="45.96573" lon="4.75354">
        <ele>187</ele>
        <time>2017-12-15T11:54:21Z</time>
      </trkpt>
      <trkpt lat="45.96569" lon="4.75351">
        <ele>187</ele>
        <time>2017-12-15T11:54:22Z</time>
      </trkpt>
      <trkpt lat="45.96564" lon="4.75349">
        <ele>187</ele>
        <time>2017-12-15T11:54:23Z</time>
      </trkpt>
      <trkpt lat="45.96559" lon="4.75347">
        <ele>188</ele>
        <time>2017-12-15T11:54:24Z</time>
      </trkpt>
      <trkpt lat="45.96554" lon="4.75343">
        <ele>188</ele>
        <time>2017-12-15T11:54:25Z</time>
      </trkpt>
      <trkpt lat="45.96549" lon="4.75339">
        <ele>189</ele>
        <time>2017-12-15T11:54:26Z</time>
      </trkpt>
      <trkpt lat="45.96545" lon="4.75337">
        <ele>189</ele>
        <time>2017-12-15T11:54:27Z</time>
      </trkpt>
      <trkpt lat="45.9654" lon="4.75334">
        <ele>190</ele>
        <time>2017-12-15T11:54:28Z</time>
      </trkpt>
      <trkpt lat="45.96535" lon="4.75331">
        <ele>178</ele>
        <time>2017-12-15T11:54:29Z</time>
      </trkpt>
      <trkpt lat="45.9653" lon="4.75329">
        <ele>179</ele>
        <time>2017-12-15T11:54:30Z</time>
      </trkpt>
      <trkpt lat="45.96525" lon="4.75327">
        <ele>179</ele>
        <time>2017-12-15T11:54:31Z</time>
      </trkpt>
      <trkpt lat="45.96521" lon="4.75323">
        <ele>180</ele>
        <time>2017-12-15T11:54:32Z</time>
      </trkpt>
      <trkpt lat="45.96515" lon="4.75319">
        <ele>180</ele>
        <time>2017-12-15T11:54:33Z</time>
      </trkpt>
      <trkpt lat="45.96511" lon="4.75315">
        <ele>180</ele>
        <time>2017-12-15T11:54:34Z</time>
      </trkpt>
      <trkpt lat="45.96506" lon="4.75314">
        <ele>180</ele>
        <time>2017-12-15T11:54:35Z</time>
      </trkpt>
      <trkpt lat="45.96499" lon="4.75308">
        <ele>186</ele>
        <time>2017-12-15T11:54:37Z</time>
      </trkpt>
      <trkpt lat="45.96494" lon="4.75306">
        <ele>186</ele>
        <time>2017-12-15T11:54:38Z</time>
      </trkpt>
      <trkpt lat="45.96487" lon="4.753">
        <ele>185</ele>
        <time>2017-12-15T11:54:40Z</time>
      </trkpt>
      <trkpt lat="45.96484" lon="4.75298">
        <ele>185</ele>
        <time>2017-12-15T11:54:41Z</time>
      </trkpt>
      <trkpt lat="45.96476" lon="4.75294">
        <ele>185</ele>
        <time>2017-12-15T11:54:43Z</time>
      </trkpt>
      <trkpt lat="45.96472" lon="4.75291">
        <ele>185</ele>
        <time>2017-12-15T11:54:44Z</time>
      </trkpt>
      <trkpt lat="45.96468" lon="4.7529">
        <ele>185</ele>
        <time>2017-12-15T11:54:45Z</time>
      </trkpt>
      <trkpt lat="45.96464" lon="4.75288">
        <ele>185</ele>
        <time>2017-12-15T11:54:46Z</time>
      </trkpt>
      <trkpt lat="45.96458" lon="4.75282">
        <ele>185</ele>
        <time>2017-12-15T11:54:48Z</time>
      </trkpt>
      <trkpt lat="45.96455" lon="4.7528">
        <ele>185</ele>
        <time>2017-12-15T11:54:49Z</time>
      </trkpt>
      <trkpt lat="45.96451" lon="4.75277">
        <ele>185</ele>
        <time>2017-12-15T11:54:50Z</time>
      </trkpt>
      <trkpt lat="45.96447" lon="4.75273">
        <ele>185</ele>
        <time>2017-12-15T11:54:51Z</time>
      </trkpt>
      <trkpt lat="45.96441" lon="4.75272">
        <ele>185</ele>
        <time>2017-12-15T11:54:52Z</time>
      </trkpt>
      <trkpt lat="45.96435" lon="4.7527">
        <ele>185</ele>
        <time>2017-12-15T11:54:53Z</time>
      </trkpt>
      <trkpt lat="45.96433" lon="4.75267">
        <ele>185</ele>
        <time>2017-12-15T11:54:54Z</time>
      </trkpt>
      <trkpt lat="45.96426" lon="4.75265">
        <ele>184</ele>
        <time>2017-12-15T11:54:55Z</time>
      </trkpt>
      <trkpt lat="45.96421" lon="4.75262">
        <ele>184</ele>
        <time>2017-12-15T11:54:56Z</time>
      </trkpt>
      <trkpt lat="45.96415" lon="4.75261">
        <ele>187</ele>
        <time>2017-12-15T11:54:57Z</time>
      </trkpt>
      <trkpt lat="45.96412" lon="4.75254">
        <ele>185</ele>
        <time>2017-12-15T11:54:59Z</time>
      </trkpt>
      <trkpt lat="45.96409" lon="4.75251">
        <ele>186</ele>
        <time>2017-12-15T11:55:00Z</time>
      </trkpt>
      <trkpt lat="45.96403" lon="4.7525">
        <ele>188</ele>
        <time>2017-12-15T11:55:01Z</time>
      </trkpt>
      <trkpt lat="45.96387" lon="4.75252">
        <ele>191</ele>
        <time>2017-12-15T11:55:02Z</time>
      </trkpt>
      <trkpt lat="45.9638" lon="4.75249">
        <ele>180</ele>
        <time>2017-12-15T11:55:04Z</time>
      </trkpt>
      <trkpt lat="45.96373" lon="4.75244">
        <ele>180</ele>
        <time>2017-12-15T11:55:05Z</time>
      </trkpt>
      <trkpt lat="45.96365" lon="4.75246">
        <ele>181</ele>
        <time>2017-12-15T11:55:07Z</time>
      </trkpt>
      <trkpt lat="45.96361" lon="4.75244">
        <ele>181</ele>
        <time>2017-12-15T11:55:08Z</time>
      </trkpt>
      <trkpt lat="45.96356" lon="4.75238">
        <ele>181</ele>
        <time>2017-12-15T11:55:10Z</time>
      </trkpt>
      <trkpt lat="45.96352" lon="4.75236">
        <ele>182</ele>
        <time>2017-12-15T11:55:11Z</time>
      </trkpt>
      <trkpt lat="45.96347" lon="4.75233">
        <ele>182</ele>
        <time>2017-12-15T11:55:12Z</time>
      </trkpt>
      <trkpt lat="45.96342" lon="4.75232">
        <ele>182</ele>
        <time>2017-12-15T11:55:13Z</time>
      </trkpt>
      <trkpt lat="45.9634" lon="4.75223">
        <ele>181</ele>
        <time>2017-12-15T11:55:15Z</time>
      </trkpt>
      <trkpt lat="45.96336" lon="4.75222">
        <ele>180</ele>
        <time>2017-12-15T11:55:16Z</time>
      </trkpt>
      <trkpt lat="45.96328" lon="4.75218">
        <ele>185</ele>
        <time>2017-12-15T11:55:18Z</time>
      </trkpt>
      <trkpt lat="45.96323" lon="4.75218">
        <ele>185</ele>
        <time>2017-12-15T11:55:19Z</time>
      </trkpt>
      <trkpt lat="45.96315" lon="4.75216">
        <ele>185</ele>
        <time>2017-12-15T11:55:21Z</time>
      </trkpt>
      <trkpt lat="45.96312" lon="4.75216">
        <ele>185</ele>
        <time>2017-12-15T11:55:22Z</time>
      </trkpt>
      <trkpt lat="45.96305" lon="4.75214">
        <ele>185</ele>
        <time>2017-12-15T11:55:24Z</time>
      </trkpt>
      <trkpt lat="45.963" lon="4.75214">
        <ele>185</ele>
        <time>2017-12-15T11:55:25Z</time>
      </trkpt>
      <trkpt lat="45.96294" lon="4.75212">
        <ele>185</ele>
        <time>2017-12-15T11:55:27Z</time>
      </trkpt>
      <trkpt lat="45.96291" lon="4.7521">
        <ele>185</ele>
        <time>2017-12-15T11:55:28Z</time>
      </trkpt>
      <trkpt lat="45.96284" lon="4.75207">
        <ele>185</ele>
        <time>2017-12-15T11:55:30Z</time>
      </trkpt>
      <trkpt lat="45.9628" lon="4.75206">
        <ele>185</ele>
        <time>2017-12-15T11:55:31Z</time>
      </trkpt>
      <trkpt lat="45.96271" lon="4.75203">
        <ele>185</ele>
        <time>2017-12-15T11:55:33Z</time>
      </trkpt>
      <trkpt lat="45.96267" lon="4.75202">
        <ele>185</ele>
        <time>2017-12-15T11:55:34Z</time>
      </trkpt>
      <trkpt lat="45.96259" lon="4.75199">
        <ele>185</ele>
        <time>2017-12-15T11:55:36Z</time>
      </trkpt>
      <trkpt lat="45.96255" lon="4.75196">
        <ele>185</ele>
        <time>2017-12-15T11:55:37Z</time>
      </trkpt>
      <trkpt lat="45.96249" lon="4.75192">
        <ele>191</ele>
        <time>2017-12-15T11:55:39Z</time>
      </trkpt>
      <trkpt lat="45.96245" lon="4.75189">
        <ele>190</ele>
        <time>2017-12-15T11:55:40Z</time>
      </trkpt>
      <trkpt lat="45.96237" lon="4.75184">
        <ele>190</ele>
        <time>2017-12-15T11:55:42Z</time>
      </trkpt>
      <trkpt lat="45.96234" lon="4.75181">
        <ele>190</ele>
        <time>2017-12-15T11:55:43Z</time>
      </trkpt>
      <trkpt lat="45.96228" lon="4.75176">
        <ele>191</ele>
        <time>2017-12-15T11:55:45Z</time>
      </trkpt>
      <trkpt lat="45.96225" lon="4.75173">
        <ele>191</ele>
        <time>2017-12-15T11:55:46Z</time>
      </trkpt>
      <trkpt lat="45.96219" lon="4.75166">
        <ele>183</ele>
        <time>2017-12-15T11:55:48Z</time>
      </trkpt>
      <trkpt lat="45.96215" lon="4.75164">
        <ele>184</ele>
        <time>2017-12-15T11:55:49Z</time>
      </trkpt>
      <trkpt lat="45.96211" lon="4.75161">
        <ele>184</ele>
        <time>2017-12-15T11:55:50Z</time>
      </trkpt>
      <trkpt lat="45.96206" lon="4.7516">
        <ele>185</ele>
        <time>2017-12-15T11:55:51Z</time>
      </trkpt>
      <trkpt lat="45.962" lon="4.75158">
        <ele>185</ele>
        <time>2017-12-15T11:55:52Z</time>
      </trkpt>
      <trkpt lat="45.96195" lon="4.75156">
        <ele>186</ele>
        <time>2017-12-15T11:55:53Z</time>
      </trkpt>
      <trkpt lat="45.96186" lon="4.75153">
        <ele>187</ele>
        <time>2017-12-15T11:55:54Z</time>
      </trkpt>
      <trkpt lat="45.96179" lon="4.75146">
        <ele>187</ele>
        <time>2017-12-15T11:55:56Z</time>
      </trkpt>
      <trkpt lat="45.96176" lon="4.75143">
        <ele>187</ele>
        <time>2017-12-15T11:55:57Z</time>
      </trkpt>
      <trkpt lat="45.96169" lon="4.75136">
        <ele>186</ele>
        <time>2017-12-15T11:55:59Z</time>
      </trkpt>
      <trkpt lat="45.96166" lon="4.75133">
        <ele>190</ele>
        <time>2017-12-15T11:56:00Z</time>
      </trkpt>
      <trkpt lat="45.96159" lon="4.75126">
        <ele>190</ele>
        <time>2017-12-15T11:56:02Z</time>
      </trkpt>
      <trkpt lat="45.96157" lon="4.75122">
        <ele>189</ele>
        <time>2017-12-15T11:56:03Z</time>
      </trkpt>
      <trkpt lat="45.96151" lon="4.75115">
        <ele>188</ele>
        <time>2017-12-15T11:56:05Z</time>
      </trkpt>
      <trkpt lat="45.96148" lon="4.75112">
        <ele>188</ele>
        <time>2017-12-15T11:56:06Z</time>
      </trkpt>
      <trkpt lat="45.96142" lon="4.75104">
        <ele>188</ele>
        <time>2017-12-15T11:56:08Z</time>
      </trkpt>
      <trkpt lat="45.9614" lon="4.75101">
        <ele>188</ele>
        <time>2017-12-15T11:56:09Z</time>
      </trkpt>
      <trkpt lat="45.96133" lon="4.75093">
        <ele>188</ele>
        <time>2017-12-15T11:56:11Z</time>
      </trkpt>
      <trkpt lat="45.9613" lon="4.7509">
        <ele>188</ele>
        <time>2017-12-15T11:56:12Z</time>
      </trkpt>
      <trkpt lat="45.96123" lon="4.75083">
        <ele>182</ele>
        <time>2017-12-15T11:56:14Z</time>
      </trkpt>
      <trkpt lat="45.96119" lon="4.7508">
        <ele>183</ele>
        <time>2017-12-15T11:56:15Z</time>
      </trkpt>
      <trkpt lat="45.96112" lon="4.75073">
        <ele>183</ele>
        <time>2017-12-15T11:56:17Z</time>
      </trkpt>
      <trkpt lat="45.96108" lon="4.7507">
        <ele>184</ele>
        <time>2017-12-15T11:56:18Z</time>
      </trkpt>
      <trkpt lat="45.961" lon="4.75064">
        <ele>184</ele>
        <time>2017-12-15T11:56:20Z</time>
      </trkpt>
      <trkpt lat="45.96096" lon="4.75062">
        <ele>184</ele>
        <time>2017-12-15T11:56:21Z</time>
      </trkpt>
      <trkpt lat="45.96088" lon="4.75057">
        <ele>184</ele>
        <time>2017-12-15T11:56:23Z</time>
      </trkpt>
      <trkpt lat="45.96084" lon="4.75055">
        <ele>184</ele>
        <time>2017-12-15T11:56:24Z</time>
      </trkpt>
      <trkpt lat="45.96076" lon="4.75052">
        <ele>188</ele>
        <time>2017-12-15T11:56:26Z</time>
      </trkpt>
      <trkpt lat="45.96072" lon="4.75051">
        <ele>188</ele>
        <time>2017-12-15T11:56:27Z</time>
      </trkpt>
      <trkpt lat="45.96068" lon="4.7505">
        <ele>188</ele>
        <time>2017-12-15T11:56:28Z</time>
      </trkpt>
      <trkpt lat="45.96061" lon="4.75049">
        <ele>188</ele>
        <time>2017-12-15T11:56:29Z</time>
      </trkpt>
      <trkpt lat="45.96056" lon="4.75049">
        <ele>189</ele>
        <time>2017-12-15T11:56:30Z</time>
      </trkpt>
      <trkpt lat="45.96051" lon="4.75049">
        <ele>189</ele>
        <time>2017-12-15T11:56:31Z</time>
      </trkpt>
      <trkpt lat="45.96045" lon="4.7505">
        <ele>189</ele>
        <time>2017-12-15T11:56:32Z</time>
      </trkpt>
      <trkpt lat="45.96039" lon="4.7505">
        <ele>189</ele>
        <time>2017-12-15T11:56:33Z</time>
      </trkpt>
      <trkpt lat="45.96032" lon="4.75051">
        <ele>189</ele>
        <time>2017-12-15T11:56:35Z</time>
      </trkpt>
      <trkpt lat="45.96029" lon="4.75051">
        <ele>189</ele>
        <time>2017-12-15T11:56:36Z</time>
      </trkpt>
      <trkpt lat="45.96023" lon="4.75053">
        <ele>190</ele>
        <time>2017-12-15T11:56:38Z</time>
      </trkpt>
      <trkpt lat="45.96018" lon="4.75054">
        <ele>190</ele>
        <time>2017-12-15T11:56:39Z</time>
      </trkpt>
      <trkpt lat="45.96011" lon="4.75059">
        <ele>191</ele>
        <time>2017-12-15T11:56:41Z</time>
      </trkpt>
      <trkpt lat="45.96007" lon="4.7506">
        <ele>191</ele>
        <time>2017-12-15T11:56:42Z</time>
      </trkpt>
      <trkpt lat="45.96" lon="4.75064">
        <ele>192</ele>
        <time>2017-12-15T11:56:44Z</time>
      </trkpt>
      <trkpt lat="45.95997" lon="4.75065">
        <ele>192</ele>
        <time>2017-12-15T11:56:45Z</time>
      </trkpt>
      <trkpt lat="45.95989" lon="4.75069">
        <ele>192</ele>
        <time>2017-12-15T11:56:48Z</time>
      </trkpt>
      <trkpt lat="45.95986" lon="4.75071">
        <ele>192</ele>
        <time>2017-12-15T11:56:49Z</time>
      </trkpt>
      <trkpt lat="45.95979" lon="4.75075">
        <ele>192</ele>
        <time>2017-12-15T11:56:51Z</time>
      </trkpt>
      <trkpt lat="45.95976" lon="4.75077">
        <ele>192</ele>
        <time>2017-12-15T11:56:52Z</time>
      </trkpt>
      <trkpt lat="45.95968" lon="4.75082">
        <ele>191</ele>
        <time>2017-12-15T11:56:54Z</time>
      </trkpt>
      <trkpt lat="45.95965" lon="4.75084">
        <ele>193</ele>
        <time>2017-12-15T11:56:55Z</time>
      </trkpt>
      <trkpt lat="45.95957" lon="4.75086">
        <ele>193</ele>
        <time>2017-12-15T11:56:57Z</time>
      </trkpt>
      <trkpt lat="45.95952" lon="4.75088">
        <ele>193</ele>
        <time>2017-12-15T11:56:58Z</time>
      </trkpt>
      <trkpt lat="45.95947" lon="4.75089">
        <ele>193</ele>
        <time>2017-12-15T11:56:59Z</time>
      </trkpt>
      <trkpt lat="45.95942" lon="4.75091">
        <ele>192</ele>
        <time>2017-12-15T11:57:00Z</time>
      </trkpt>
      <trkpt lat="45.95938" lon="4.75093">
        <ele>192</ele>
        <time>2017-12-15T11:57:01Z</time>
      </trkpt>
      <trkpt lat="45.95928" lon="4.75098">
        <ele>192</ele>
        <time>2017-12-15T11:57:02Z</time>
      </trkpt>
      <trkpt lat="45.95922" lon="4.75103">
        <ele>192</ele>
        <time>2017-12-15T11:57:04Z</time>
      </trkpt>
      <trkpt lat="45.95916" lon="4.75103">
        <ele>191</ele>
        <time>2017-12-15T11:57:05Z</time>
      </trkpt>
      <trkpt lat="45.95909" lon="4.75105">
        <ele>191</ele>
        <time>2017-12-15T11:57:07Z</time>
      </trkpt>
      <trkpt lat="45.95904" lon="4.75108">
        <ele>191</ele>
        <time>2017-12-15T11:57:08Z</time>
      </trkpt>
      <trkpt lat="45.95896" lon="4.75111">
        <ele>191</ele>
        <time>2017-12-15T11:57:10Z</time>
      </trkpt>
      <trkpt lat="45.95891" lon="4.75112">
        <ele>191</ele>
        <time>2017-12-15T11:57:11Z</time>
      </trkpt>
      <trkpt lat="45.95887" lon="4.75115">
        <ele>191</ele>
        <time>2017-12-15T11:57:12Z</time>
      </trkpt>
      <trkpt lat="45.95882" lon="4.75117">
        <ele>191</ele>
        <time>2017-12-15T11:57:13Z</time>
      </trkpt>
      <trkpt lat="45.95875" lon="4.75124">
        <ele>191</ele>
        <time>2017-12-15T11:57:15Z</time>
      </trkpt>
      <trkpt lat="45.9587" lon="4.75128">
        <ele>191</ele>
        <time>2017-12-15T11:57:16Z</time>
      </trkpt>
      <trkpt lat="45.95864" lon="4.75134">
        <ele>191</ele>
        <time>2017-12-15T11:57:18Z</time>
      </trkpt>
      <trkpt lat="45.95859" lon="4.75138">
        <ele>191</ele>
        <time>2017-12-15T11:57:19Z</time>
      </trkpt>
      <trkpt lat="45.95853" lon="4.75145">
        <ele>191</ele>
        <time>2017-12-15T11:57:21Z</time>
      </trkpt>
      <trkpt lat="45.9585" lon="4.75148">
        <ele>191</ele>
        <time>2017-12-15T11:57:22Z</time>
      </trkpt>
      <trkpt lat="45.95844" lon="4.75157">
        <ele>191</ele>
        <time>2017-12-15T11:57:24Z</time>
      </trkpt>
      <trkpt lat="45.95841" lon="4.75162">
        <ele>192</ele>
        <time>2017-12-15T11:57:25Z</time>
      </trkpt>
      <trkpt lat="45.95835" lon="4.75172">
        <ele>192</ele>
        <time>2017-12-15T11:57:27Z</time>
      </trkpt>
      <trkpt lat="45.95832" lon="4.75175">
        <ele>192</ele>
        <time>2017-12-15T11:57:28Z</time>
      </trkpt>
      <trkpt lat="45.95827" lon="4.75183">
        <ele>192</ele>
        <time>2017-12-15T11:57:30Z</time>
      </trkpt>
      <trkpt lat="45.95824" lon="4.75186">
        <ele>192</ele>
        <time>2017-12-15T11:57:31Z</time>
      </trkpt>
      <trkpt lat="45.9582" lon="4.75195">
        <ele>193</ele>
        <time>2017-12-15T11:57:33Z</time>
      </trkpt>
      <trkpt lat="45.95817" lon="4.752">
        <ele>193</ele>
        <time>2017-12-15T11:57:34Z</time>
      </trkpt>
      <trkpt lat="45.95814" lon="4.75204">
        <ele>193</ele>
        <time>2017-12-15T11:57:35Z</time>
      </trkpt>
      <trkpt lat="45.95811" lon="4.75209">
        <ele>193</ele>
        <time>2017-12-15T11:57:36Z</time>
      </trkpt>
      <trkpt lat="45.95808" lon="4.75213">
        <ele>193</ele>
        <time>2017-12-15T11:57:37Z</time>
      </trkpt>
      <trkpt lat="45.95804" lon="4.75218">
        <ele>193</ele>
        <time>2017-12-15T11:57:38Z</time>
      </trkpt>
      <trkpt lat="45.958" lon="4.75223">
        <ele>193</ele>
        <time>2017-12-15T11:57:39Z</time>
      </trkpt>
      <trkpt lat="45.95797" lon="4.75228">
        <ele>193</ele>
        <time>2017-12-15T11:57:40Z</time>
      </trkpt>
      <trkpt lat="45.95794" lon="4.75233">
        <ele>193</ele>
        <time>2017-12-15T11:57:41Z</time>
      </trkpt>
      <trkpt lat="45.95791" lon="4.75237">
        <ele>193</ele>
        <time>2017-12-15T11:57:42Z</time>
      </trkpt>
      <trkpt lat="45.95784" lon="4.75245">
        <ele>193</ele>
        <time>2017-12-15T11:57:44Z</time>
      </trkpt>
      <trkpt lat="45.95781" lon="4.75251">
        <ele>193</ele>
        <time>2017-12-15T11:57:45Z</time>
      </trkpt>
      <trkpt lat="45.95774" lon="4.75259">
        <ele>193</ele>
        <time>2017-12-15T11:57:47Z</time>
      </trkpt>
      <trkpt lat="45.9577" lon="4.75262">
        <ele>193</ele>
        <time>2017-12-15T11:57:48Z</time>
      </trkpt>
      <trkpt lat="45.95766" lon="4.75267">
        <ele>193</ele>
        <time>2017-12-15T11:57:49Z</time>
      </trkpt>
      <trkpt lat="45.95763" lon="4.7527">
        <ele>193</ele>
        <time>2017-12-15T11:57:50Z</time>
      </trkpt>
      <trkpt lat="45.95759" lon="4.75273">
        <ele>193</ele>
        <time>2017-12-15T11:57:51Z</time>
      </trkpt>
      <trkpt lat="45.95755" lon="4.75276">
        <ele>193</ele>
        <time>2017-12-15T11:57:52Z</time>
      </trkpt>
      <trkpt lat="45.95751" lon="4.7528">
        <ele>193</ele>
        <time>2017-12-15T11:57:53Z</time>
      </trkpt>
      <trkpt lat="45.95747" lon="4.75285">
        <ele>193</ele>
        <time>2017-12-15T11:57:54Z</time>
      </trkpt>
      <trkpt lat="45.95743" lon="4.75289">
        <ele>193</ele>
        <time>2017-12-15T11:57:55Z</time>
      </trkpt>
      <trkpt lat="45.9574" lon="4.75293">
        <ele>193</ele>
        <time>2017-12-15T11:57:56Z</time>
      </trkpt>
      <trkpt lat="45.95733" lon="4.753">
        <ele>193</ele>
        <time>2017-12-15T11:57:58Z</time>
      </trkpt>
      <trkpt lat="45.95729" lon="4.75305">
        <ele>193</ele>
        <time>2017-12-15T11:57:59Z</time>
      </trkpt>
      <trkpt lat="45.95724" lon="4.7531">
        <ele>193</ele>
        <time>2017-12-15T11:58:00Z</time>
      </trkpt>
      <trkpt lat="45.95721" lon="4.75313">
        <ele>193</ele>
        <time>2017-12-15T11:58:01Z</time>
      </trkpt>
      <trkpt lat="45.95716" lon="4.75317">
        <ele>193</ele>
        <time>2017-12-15T11:58:02Z</time>
      </trkpt>
      <trkpt lat="45.95713" lon="4.7532">
        <ele>193</ele>
        <time>2017-12-15T11:58:03Z</time>
      </trkpt>
      <trkpt lat="45.95709" lon="4.75324">
        <ele>193</ele>
        <time>2017-12-15T11:58:04Z</time>
      </trkpt>
      <trkpt lat="45.95705" lon="4.75329">
        <ele>193</ele>
        <time>2017-12-15T11:58:05Z</time>
      </trkpt>
      <trkpt lat="45.95701" lon="4.75334">
        <ele>193</ele>
        <time>2017-12-15T11:58:06Z</time>
      </trkpt>
      <trkpt lat="45.95697" lon="4.75338">
        <ele>193</ele>
        <time>2017-12-15T11:58:07Z</time>
      </trkpt>
      <trkpt lat="45.95693" lon="4.75343">
        <ele>193</ele>
        <time>2017-12-15T11:58:08Z</time>
      </trkpt>
      <trkpt lat="45.95689" lon="4.75348">
        <ele>193</ele>
        <time>2017-12-15T11:58:09Z</time>
      </trkpt>
      <trkpt lat="45.95685" lon="4.75352">
        <ele>193</ele>
        <time>2017-12-15T11:58:10Z</time>
      </trkpt>
      <trkpt lat="45.9568" lon="4.75356">
        <ele>193</ele>
        <time>2017-12-15T11:58:11Z</time>
      </trkpt>
      <trkpt lat="45.95676" lon="4.7536">
        <ele>193</ele>
        <time>2017-12-15T11:58:12Z</time>
      </trkpt>
      <trkpt lat="45.95672" lon="4.75364">
        <ele>193</ele>
        <time>2017-12-15T11:58:13Z</time>
      </trkpt>
      <trkpt lat="45.95667" lon="4.75368">
        <ele>193</ele>
        <time>2017-12-15T11:58:14Z</time>
      </trkpt>
      <trkpt lat="45.95662" lon="4.75372">
        <ele>193</ele>
        <time>2017-12-15T11:58:15Z</time>
      </trkpt>
      <trkpt lat="45.95657" lon="4.75376">
        <ele>193</ele>
        <time>2017-12-15T11:58:16Z</time>
      </trkpt>
      <trkpt lat="45.95652" lon="4.7538">
        <ele>193</ele>
        <time>2017-12-15T11:58:17Z</time>
      </trkpt>
      <trkpt lat="45.95647" lon="4.75386">
        <ele>193</ele>
        <time>2017-12-15T11:58:18Z</time>
      </trkpt>
      <trkpt lat="45.95642" lon="4.7539">
        <ele>193</ele>
        <time>2017-12-15T11:58:19Z</time>
      </trkpt>
      <trkpt lat="45.95637" lon="4.75396">
        <ele>193</ele>
        <time>2017-12-15T11:58:20Z</time>
      </trkpt>
      <trkpt lat="45.95632" lon="4.75398">
        <ele>193</ele>
        <time>2017-12-15T11:58:21Z</time>
      </trkpt>
      <trkpt lat="45.95626" lon="4.75401">
        <ele>193</ele>
        <time>2017-12-15T11:58:22Z</time>
      </trkpt>
      <trkpt lat="45.9562" lon="4.75406">
        <ele>193</ele>
        <time>2017-12-15T11:58:23Z</time>
      </trkpt>
      <trkpt lat="45.95614" lon="4.75412">
        <ele>193</ele>
        <time>2017-12-15T11:58:24Z</time>
      </trkpt>
      <trkpt lat="45.95607" lon="4.75416">
        <ele>193</ele>
        <time>2017-12-15T11:58:25Z</time>
      </trkpt>
      <trkpt lat="45.95601" lon="4.7542">
        <ele>192</ele>
        <time>2017-12-15T11:58:26Z</time>
      </trkpt>
      <trkpt lat="45.95595" lon="4.75424">
        <ele>192</ele>
        <time>2017-12-15T11:58:27Z</time>
      </trkpt>
      <trkpt lat="45.95589" lon="4.75428">
        <ele>192</ele>
        <time>2017-12-15T11:58:28Z</time>
      </trkpt>
      <trkpt lat="45.95581" lon="4.7543">
        <ele>190</ele>
        <time>2017-12-15T11:58:29Z</time>
      </trkpt>
      <trkpt lat="45.95575" lon="4.75432">
        <ele>190</ele>
        <time>2017-12-15T11:58:30Z</time>
      </trkpt>
      <trkpt lat="45.95567" lon="4.75438">
        <ele>189</ele>
        <time>2017-12-15T11:58:31Z</time>
      </trkpt>
      <trkpt lat="45.95561" lon="4.75441">
        <ele>189</ele>
        <time>2017-12-15T11:58:32Z</time>
      </trkpt>
      <trkpt lat="45.95555" lon="4.75443">
        <ele>188</ele>
        <time>2017-12-15T11:58:33Z</time>
      </trkpt>
      <trkpt lat="45.95549" lon="4.75447">
        <ele>188</ele>
        <time>2017-12-15T11:58:34Z</time>
      </trkpt>
      <trkpt lat="45.95542" lon="4.7545">
        <ele>188</ele>
        <time>2017-12-15T11:58:35Z</time>
      </trkpt>
      <trkpt lat="45.95534" lon="4.75449">
        <ele>187</ele>
        <time>2017-12-15T11:58:36Z</time>
      </trkpt>
      <trkpt lat="45.95529" lon="4.75445">
        <ele>187</ele>
        <time>2017-12-15T11:58:37Z</time>
      </trkpt>
      <trkpt lat="45.95523" lon="4.75439">
        <ele>187</ele>
        <time>2017-12-15T11:58:38Z</time>
      </trkpt>
      <trkpt lat="45.95519" lon="4.75429">
        <ele>187</ele>
        <time>2017-12-15T11:58:39Z</time>
      </trkpt>
      <trkpt lat="45.95517" lon="4.75419">
        <ele>186</ele>
        <time>2017-12-15T11:58:40Z</time>
      </trkpt>
      <trkpt lat="45.95515" lon="4.7541">
        <ele>187</ele>
        <time>2017-12-15T11:58:41Z</time>
      </trkpt>
      <trkpt lat="45.95513" lon="4.75403">
        <ele>187</ele>
        <time>2017-12-15T11:58:42Z</time>
      </trkpt>
      <trkpt lat="45.9551" lon="4.75396">
        <ele>188</ele>
        <time>2017-12-15T11:58:43Z</time>
      </trkpt>
      <trkpt lat="45.95507" lon="4.75389">
        <ele>188</ele>
        <time>2017-12-15T11:58:44Z</time>
      </trkpt>
      <trkpt lat="45.95504" lon="4.75383">
        <ele>188</ele>
        <time>2017-12-15T11:58:45Z</time>
      </trkpt>
      <trkpt lat="45.95503" lon="4.75377">
        <ele>189</ele>
        <time>2017-12-15T11:58:46Z</time>
      </trkpt>
      <trkpt lat="45.955" lon="4.75372">
        <ele>186</ele>
        <time>2017-12-15T11:58:47Z</time>
      </trkpt>
      <trkpt lat="45.95497" lon="4.75366">
        <ele>186</ele>
        <time>2017-12-15T11:58:48Z</time>
      </trkpt>
      <trkpt lat="45.95493" lon="4.75359">
        <ele>186</ele>
        <time>2017-12-15T11:58:49Z</time>
      </trkpt>
      <trkpt lat="45.9549" lon="4.75353">
        <ele>186</ele>
        <time>2017-12-15T11:58:50Z</time>
      </trkpt>
      <trkpt lat="45.95487" lon="4.75346">
        <ele>187</ele>
        <time>2017-12-15T11:58:51Z</time>
      </trkpt>
      <trkpt lat="45.95483" lon="4.75341">
        <ele>187</ele>
        <time>2017-12-15T11:58:52Z</time>
      </trkpt>
      <trkpt lat="45.9548" lon="4.75334">
        <ele>186</ele>
        <time>2017-12-15T11:58:53Z</time>
      </trkpt>
      <trkpt lat="45.95477" lon="4.75327">
        <ele>188</ele>
        <time>2017-12-15T11:58:54Z</time>
      </trkpt>
      <trkpt lat="45.95474" lon="4.7532">
        <ele>188</ele>
        <time>2017-12-15T11:58:55Z</time>
      </trkpt>
      <trkpt lat="45.95471" lon="4.75314">
        <ele>188</ele>
        <time>2017-12-15T11:58:56Z</time>
      </trkpt>
      <trkpt lat="45.95467" lon="4.75307">
        <ele>188</ele>
        <time>2017-12-15T11:58:57Z</time>
      </trkpt>
      <trkpt lat="45.95465" lon="4.75302">
        <ele>188</ele>
        <time>2017-12-15T11:58:58Z</time>
      </trkpt>
      <trkpt lat="45.95461" lon="4.75296">
        <ele>188</ele>
        <time>2017-12-15T11:58:59Z</time>
      </trkpt>
      <trkpt lat="45.95457" lon="4.7529">
        <ele>189</ele>
        <time>2017-12-15T11:59:00Z</time>
      </trkpt>
      <trkpt lat="45.95454" lon="4.75285">
        <ele>189</ele>
        <time>2017-12-15T11:59:01Z</time>
      </trkpt>
      <trkpt lat="45.95452" lon="4.75278">
        <ele>189</ele>
        <time>2017-12-15T11:59:02Z</time>
      </trkpt>
      <trkpt lat="45.9545" lon="4.75272">
        <ele>189</ele>
        <time>2017-12-15T11:59:03Z</time>
      </trkpt>
      <trkpt lat="45.95447" lon="4.75264">
        <ele>189</ele>
        <time>2017-12-15T11:59:04Z</time>
      </trkpt>
      <trkpt lat="45.95444" lon="4.75257">
        <ele>189</ele>
        <time>2017-12-15T11:59:05Z</time>
      </trkpt>
      <trkpt lat="45.95441" lon="4.75251">
        <ele>189</ele>
        <time>2017-12-15T11:59:06Z</time>
      </trkpt>
      <trkpt lat="45.95439" lon="4.75245">
        <ele>191</ele>
        <time>2017-12-15T11:59:07Z</time>
      </trkpt>
      <trkpt lat="45.95436" lon="4.7524">
        <ele>191</ele>
        <time>2017-12-15T11:59:08Z</time>
      </trkpt>
      <trkpt lat="45.95433" lon="4.75234">
        <ele>191</ele>
        <time>2017-12-15T11:59:09Z</time>
      </trkpt>
      <trkpt lat="45.95429" lon="4.75229">
        <ele>191</ele>
        <time>2017-12-15T11:59:10Z</time>
      </trkpt>
      <trkpt lat="45.95426" lon="4.75222">
        <ele>191</ele>
        <time>2017-12-15T11:59:11Z</time>
      </trkpt>
      <trkpt lat="45.95422" lon="4.75216">
        <ele>191</ele>
        <time>2017-12-15T11:59:12Z</time>
      </trkpt>
      <trkpt lat="45.95418" lon="4.75211">
        <ele>191</ele>
        <time>2017-12-15T11:59:13Z</time>
      </trkpt>
      <trkpt lat="45.95414" lon="4.75206">
        <ele>189</ele>
        <time>2017-12-15T11:59:14Z</time>
      </trkpt>
      <trkpt lat="45.9541" lon="4.75199">
        <ele>189</ele>
        <time>2017-12-15T11:59:15Z</time>
      </trkpt>
      <trkpt lat="45.95407" lon="4.75192">
        <ele>189</ele>
        <time>2017-12-15T11:59:16Z</time>
      </trkpt>
      <trkpt lat="45.95403" lon="4.75186">
        <ele>189</ele>
        <time>2017-12-15T11:59:17Z</time>
      </trkpt>
      <trkpt lat="45.954" lon="4.75181">
        <ele>189</ele>
        <time>2017-12-15T11:59:18Z</time>
      </trkpt>
      <trkpt lat="45.95397" lon="4.75176">
        <ele>189</ele>
        <time>2017-12-15T11:59:19Z</time>
      </trkpt>
      <trkpt lat="45.95391" lon="4.75171">
        <ele>189</ele>
        <time>2017-12-15T11:59:20Z</time>
      </trkpt>
      <trkpt lat="45.95388" lon="4.75165">
        <ele>191</ele>
        <time>2017-12-15T11:59:21Z</time>
      </trkpt>
      <trkpt lat="45.95386" lon="4.75159">
        <ele>191</ele>
        <time>2017-12-15T11:59:22Z</time>
      </trkpt>
      <trkpt lat="45.95381" lon="4.75154">
        <ele>191</ele>
        <time>2017-12-15T11:59:23Z</time>
      </trkpt>
      <trkpt lat="45.95377" lon="4.75143">
        <ele>191</ele>
        <time>2017-12-15T11:59:25Z</time>
      </trkpt>
      <trkpt lat="45.95374" lon="4.75138">
        <ele>191</ele>
        <time>2017-12-15T11:59:26Z</time>
      </trkpt>
      <trkpt lat="45.9537" lon="4.75133">
        <ele>191</ele>
        <time>2017-12-15T11:59:27Z</time>
      </trkpt>
      <trkpt lat="45.95368" lon="4.75128">
        <ele>191</ele>
        <time>2017-12-15T11:59:28Z</time>
      </trkpt>
      <trkpt lat="45.95365" lon="4.75123">
        <ele>191</ele>
        <time>2017-12-15T11:59:29Z</time>
      </trkpt>
      <trkpt lat="45.9536" lon="4.75118">
        <ele>192</ele>
        <time>2017-12-15T11:59:30Z</time>
      </trkpt>
      <trkpt lat="45.95355" lon="4.75109">
        <ele>192</ele>
        <time>2017-12-15T11:59:32Z</time>
      </trkpt>
      <trkpt lat="45.95352" lon="4.75104">
        <ele>192</ele>
        <time>2017-12-15T11:59:33Z</time>
      </trkpt>
      <trkpt lat="45.95345" lon="4.75096">
        <ele>192</ele>
        <time>2017-12-15T11:59:35Z</time>
      </trkpt>
      <trkpt lat="45.95341" lon="4.75092">
        <ele>192</ele>
        <time>2017-12-15T11:59:36Z</time>
      </trkpt>
      <trkpt lat="45.95337" lon="4.75087">
        <ele>193</ele>
        <time>2017-12-15T11:59:37Z</time>
      </trkpt>
      <trkpt lat="45.95334" lon="4.75082">
        <ele>193</ele>
        <time>2017-12-15T11:59:38Z</time>
      </trkpt>
      <trkpt lat="45.9533" lon="4.75076">
        <ele>193</ele>
        <time>2017-12-15T11:59:39Z</time>
      </trkpt>
      <trkpt lat="45.95327" lon="4.75071">
        <ele>192</ele>
        <time>2017-12-15T11:59:40Z</time>
      </trkpt>
      <trkpt lat="45.95324" lon="4.75065">
        <ele>192</ele>
        <time>2017-12-15T11:59:41Z</time>
      </trkpt>
      <trkpt lat="45.95321" lon="4.75059">
        <ele>192</ele>
        <time>2017-12-15T11:59:42Z</time>
      </trkpt>
      <trkpt lat="45.95319" lon="4.75053">
        <ele>192</ele>
        <time>2017-12-15T11:59:43Z</time>
      </trkpt>
      <trkpt lat="45.95314" lon="4.75048">
        <ele>192</ele>
        <time>2017-12-15T11:59:44Z</time>
      </trkpt>
      <trkpt lat="45.95309" lon="4.75038">
        <ele>192</ele>
        <time>2017-12-15T11:59:46Z</time>
      </trkpt>
      <trkpt lat="45.95305" lon="4.75033">
        <ele>192</ele>
        <time>2017-12-15T11:59:47Z</time>
      </trkpt>
      <trkpt lat="45.95302" lon="4.75028">
        <ele>192</ele>
        <time>2017-12-15T11:59:48Z</time>
      </trkpt>
      <trkpt lat="45.95299" lon="4.75023">
        <ele>192</ele>
        <time>2017-12-15T11:59:49Z</time>
      </trkpt>
      <trkpt lat="45.95294" lon="4.75015">
        <ele>192</ele>
        <time>2017-12-15T11:59:51Z</time>
      </trkpt>
      <trkpt lat="45.95291" lon="4.75011">
        <ele>191</ele>
        <time>2017-12-15T11:59:52Z</time>
      </trkpt>
      <trkpt lat="45.95285" lon="4.75002">
        <ele>191</ele>
        <time>2017-12-15T11:59:54Z</time>
      </trkpt>
      <trkpt lat="45.95283" lon="4.74995">
        <ele>192</ele>
        <time>2017-12-15T11:59:55Z</time>
      </trkpt>
      <trkpt lat="45.9528" lon="4.7499">
        <ele>192</ele>
        <time>2017-12-15T11:59:56Z</time>
      </trkpt>
      <trkpt lat="45.95278" lon="4.74985">
        <ele>192</ele>
        <time>2017-12-15T11:59:57Z</time>
      </trkpt>
      <trkpt lat="45.95272" lon="4.74976">
        <ele>192</ele>
        <time>2017-12-15T11:59:59Z</time>
      </trkpt>
      <trkpt lat="45.95269" lon="4.74971">
        <ele>192</ele>
        <time>2017-12-15T12:00:00Z</time>
      </trkpt>
      <trkpt lat="45.95266" lon="4.74966">
        <ele>192</ele>
        <time>2017-12-15T12:00:01Z</time>
      </trkpt>
      <trkpt lat="45.95262" lon="4.7496">
        <ele>192</ele>
        <time>2017-12-15T12:00:02Z</time>
      </trkpt>
      <trkpt lat="45.95259" lon="4.74955">
        <ele>192</ele>
        <time>2017-12-15T12:00:03Z</time>
      </trkpt>
      <trkpt lat="45.95255" lon="4.74951">
        <ele>192</ele>
        <time>2017-12-15T12:00:04Z</time>
      </trkpt>
      <trkpt lat="45.95251" lon="4.74945">
        <ele>193</ele>
        <time>2017-12-15T12:00:05Z</time>
      </trkpt>
      <trkpt lat="45.95248" lon="4.7494">
        <ele>192</ele>
        <time>2017-12-15T12:00:06Z</time>
      </trkpt>
      <trkpt lat="45.95242" lon="4.74931">
        <ele>192</ele>
        <time>2017-12-15T12:00:08Z</time>
      </trkpt>
      <trkpt lat="45.95238" lon="4.74926">
        <ele>192</ele>
        <time>2017-12-15T12:00:09Z</time>
      </trkpt>
      <trkpt lat="45.95235" lon="4.74922">
        <ele>192</ele>
        <time>2017-12-15T12:00:10Z</time>
      </trkpt>
      <trkpt lat="45.95231" lon="4.74917">
        <ele>192</ele>
        <time>2017-12-15T12:00:11Z</time>
      </trkpt>
      <trkpt lat="45.95226" lon="4.74908">
        <ele>193</ele>
        <time>2017-12-15T12:00:13Z</time>
      </trkpt>
      <trkpt lat="45.95221" lon="4.74903">
        <ele>193</ele>
        <time>2017-12-15T12:00:14Z</time>
      </trkpt>
      <trkpt lat="45.95218" lon="4.74898">
        <ele>193</ele>
        <time>2017-12-15T12:00:15Z</time>
      </trkpt>
      <trkpt lat="45.95214" lon="4.74892">
        <ele>193</ele>
        <time>2017-12-15T12:00:16Z</time>
      </trkpt>
      <trkpt lat="45.9521" lon="4.74888">
        <ele>193</ele>
        <time>2017-12-15T12:00:17Z</time>
      </trkpt>
      <trkpt lat="45.95207" lon="4.74882">
        <ele>194</ele>
        <time>2017-12-15T12:00:18Z</time>
      </trkpt>
      <trkpt lat="45.95203" lon="4.74877">
        <ele>194</ele>
        <time>2017-12-15T12:00:19Z</time>
      </trkpt>
      <trkpt lat="45.95201" lon="4.7487">
        <ele>194</ele>
        <time>2017-12-15T12:00:20Z</time>
      </trkpt>
      <trkpt lat="45.95197" lon="4.74864">
        <ele>194</ele>
        <time>2017-12-15T12:00:21Z</time>
      </trkpt>
      <trkpt lat="45.95193" lon="4.74859">
        <ele>194</ele>
        <time>2017-12-15T12:00:22Z</time>
      </trkpt>
      <trkpt lat="45.95189" lon="4.74853">
        <ele>194</ele>
        <time>2017-12-15T12:00:23Z</time>
      </trkpt>
      <trkpt lat="45.95185" lon="4.74848">
        <ele>194</ele>
        <time>2017-12-15T12:00:24Z</time>
      </trkpt>
      <trkpt lat="45.95181" lon="4.74837">
        <ele>194</ele>
        <time>2017-12-15T12:00:26Z</time>
      </trkpt>
      <trkpt lat="45.95177" lon="4.7483">
        <ele>194</ele>
        <time>2017-12-15T12:00:27Z</time>
      </trkpt>
      <trkpt lat="45.95173" lon="4.74825">
        <ele>194</ele>
        <time>2017-12-15T12:00:28Z</time>
      </trkpt>
      <trkpt lat="45.95169" lon="4.7482">
        <ele>194</ele>
        <time>2017-12-15T12:00:29Z</time>
      </trkpt>
      <trkpt lat="45.95166" lon="4.74815">
        <ele>194</ele>
        <time>2017-12-15T12:00:30Z</time>
      </trkpt>
      <trkpt lat="45.95162" lon="4.74811">
        <ele>194</ele>
        <time>2017-12-15T12:00:31Z</time>
      </trkpt>
      <trkpt lat="45.95158" lon="4.74806">
        <ele>194</ele>
        <time>2017-12-15T12:00:32Z</time>
      </trkpt>
      <trkpt lat="45.95155" lon="4.74799">
        <ele>194</ele>
        <time>2017-12-15T12:00:33Z</time>
      </trkpt>
      <trkpt lat="45.95152" lon="4.74793">
        <ele>194</ele>
        <time>2017-12-15T12:00:34Z</time>
      </trkpt>
      <trkpt lat="45.95148" lon="4.74788">
        <ele>194</ele>
        <time>2017-12-15T12:00:35Z</time>
      </trkpt>
      <trkpt lat="45.95145" lon="4.74782">
        <ele>194</ele>
        <time>2017-12-15T12:00:36Z</time>
      </trkpt>
      <trkpt lat="45.95141" lon="4.74774">
        <ele>194</ele>
        <time>2017-12-15T12:00:37Z</time>
      </trkpt>
      <trkpt lat="45.95138" lon="4.74768">
        <ele>194</ele>
        <time>2017-12-15T12:00:38Z</time>
      </trkpt>
      <trkpt lat="45.95133" lon="4.74761">
        <ele>194</ele>
        <time>2017-12-15T12:00:39Z</time>
      </trkpt>
      <trkpt lat="45.95129" lon="4.74754">
        <ele>194</ele>
        <time>2017-12-15T12:00:40Z</time>
      </trkpt>
      <trkpt lat="45.95125" lon="4.74748">
        <ele>194</ele>
        <time>2017-12-15T12:00:41Z</time>
      </trkpt>
      <trkpt lat="45.95122" lon="4.74742">
        <ele>194</ele>
        <time>2017-12-15T12:00:42Z</time>
      </trkpt>
      <trkpt lat="45.95119" lon="4.74735">
        <ele>194</ele>
        <time>2017-12-15T12:00:43Z</time>
      </trkpt>
      <trkpt lat="45.95114" lon="4.74728">
        <ele>194</ele>
        <time>2017-12-15T12:00:44Z</time>
      </trkpt>
      <trkpt lat="45.95111" lon="4.74721">
        <ele>194</ele>
        <time>2017-12-15T12:00:45Z</time>
      </trkpt>
      <trkpt lat="45.95107" lon="4.74716">
        <ele>194</ele>
        <time>2017-12-15T12:00:46Z</time>
      </trkpt>
      <trkpt lat="45.95104" lon="4.7471">
        <ele>194</ele>
        <time>2017-12-15T12:00:47Z</time>
      </trkpt>
      <trkpt lat="45.95101" lon="4.74703">
        <ele>194</ele>
        <time>2017-12-15T12:00:48Z</time>
      </trkpt>
      <trkpt lat="45.95097" lon="4.74698">
        <ele>194</ele>
        <time>2017-12-15T12:00:49Z</time>
      </trkpt>
      <trkpt lat="45.95093" lon="4.74692">
        <ele>194</ele>
        <time>2017-12-15T12:00:50Z</time>
      </trkpt>
      <trkpt lat="45.95089" lon="4.74686">
        <ele>195</ele>
        <time>2017-12-15T12:00:51Z</time>
      </trkpt>
      <trkpt lat="45.95086" lon="4.74681">
        <ele>195</ele>
        <time>2017-12-15T12:00:52Z</time>
      </trkpt>
      <trkpt lat="45.95083" lon="4.74676">
        <ele>195</ele>
        <time>2017-12-15T12:00:53Z</time>
      </trkpt>
      <trkpt lat="45.9508" lon="4.74669">
        <ele>195</ele>
        <time>2017-12-15T12:00:54Z</time>
      </trkpt>
      <trkpt lat="45.95076" lon="4.74662">
        <ele>195</ele>
        <time>2017-12-15T12:00:55Z</time>
      </trkpt>
      <trkpt lat="45.95073" lon="4.74655">
        <ele>195</ele>
        <time>2017-12-15T12:00:56Z</time>
      </trkpt>
      <trkpt lat="45.9507" lon="4.7465">
        <ele>195</ele>
        <time>2017-12-15T12:00:57Z</time>
      </trkpt>
      <trkpt lat="45.95066" lon="4.74645">
        <ele>195</ele>
        <time>2017-12-15T12:00:58Z</time>
      </trkpt>
      <trkpt lat="45.95063" lon="4.7464">
        <ele>195</ele>
        <time>2017-12-15T12:00:59Z</time>
      </trkpt>
      <trkpt lat="45.9506" lon="4.74633">
        <ele>194</ele>
        <time>2017-12-15T12:01:00Z</time>
      </trkpt>
      <trkpt lat="45.95055" lon="4.74626">
        <ele>194</ele>
        <time>2017-12-15T12:01:01Z</time>
      </trkpt>
      <trkpt lat="45.95052" lon="4.7462">
        <ele>194</ele>
        <time>2017-12-15T12:01:02Z</time>
      </trkpt>
      <trkpt lat="45.95049" lon="4.74612">
        <ele>194</ele>
        <time>2017-12-15T12:01:03Z</time>
      </trkpt>
      <trkpt lat="45.95047" lon="4.74605">
        <ele>194</ele>
        <time>2017-12-15T12:01:04Z</time>
      </trkpt>
      <trkpt lat="45.95042" lon="4.74599">
        <ele>194</ele>
        <time>2017-12-15T12:01:05Z</time>
      </trkpt>
      <trkpt lat="45.95038" lon="4.74593">
        <ele>194</ele>
        <time>2017-12-15T12:01:06Z</time>
      </trkpt>
      <trkpt lat="45.95035" lon="4.74585">
        <ele>194</ele>
        <time>2017-12-15T12:01:07Z</time>
      </trkpt>
      <trkpt lat="45.95031" lon="4.74579">
        <ele>194</ele>
        <time>2017-12-15T12:01:08Z</time>
      </trkpt>
      <trkpt lat="45.95028" lon="4.74571">
        <ele>194</ele>
        <time>2017-12-15T12:01:09Z</time>
      </trkpt>
      <trkpt lat="45.95024" lon="4.74564">
        <ele>194</ele>
        <time>2017-12-15T12:01:10Z</time>
      </trkpt>
      <trkpt lat="45.95019" lon="4.74557">
        <ele>194</ele>
        <time>2017-12-15T12:01:11Z</time>
      </trkpt>
      <trkpt lat="45.95016" lon="4.7455">
        <ele>194</ele>
        <time>2017-12-15T12:01:12Z</time>
      </trkpt>
      <trkpt lat="45.95012" lon="4.74542">
        <ele>194</ele>
        <time>2017-12-15T12:01:13Z</time>
      </trkpt>
      <trkpt lat="45.95009" lon="4.74534">
        <ele>194</ele>
        <time>2017-12-15T12:01:14Z</time>
      </trkpt>
      <trkpt lat="45.95005" lon="4.74527">
        <ele>194</ele>
        <time>2017-12-15T12:01:15Z</time>
      </trkpt>
      <trkpt lat="45.95002" lon="4.7452">
        <ele>194</ele>
        <time>2017-12-15T12:01:16Z</time>
      </trkpt>
      <trkpt lat="45.94998" lon="4.74513">
        <ele>193</ele>
        <time>2017-12-15T12:01:17Z</time>
      </trkpt>
      <trkpt lat="45.94994" lon="4.74505">
        <ele>193</ele>
        <time>2017-12-15T12:01:18Z</time>
      </trkpt>
      <trkpt lat="45.9499" lon="4.74498">
        <ele>193</ele>
        <time>2017-12-15T12:01:19Z</time>
      </trkpt>
      <trkpt lat="45.94986" lon="4.7449">
        <ele>193</ele>
        <time>2017-12-15T12:01:20Z</time>
      </trkpt>
      <trkpt lat="45.94983" lon="4.74482">
        <ele>193</ele>
        <time>2017-12-15T12:01:21Z</time>
      </trkpt>
      <trkpt lat="45.9498" lon="4.74476">
        <ele>193</ele>
        <time>2017-12-15T12:01:22Z</time>
      </trkpt>
      <trkpt lat="45.94976" lon="4.74468">
        <ele>193</ele>
        <time>2017-12-15T12:01:23Z</time>
      </trkpt>
      <trkpt lat="45.94973" lon="4.7446">
        <ele>193</ele>
        <time>2017-12-15T12:01:24Z</time>
      </trkpt>
      <trkpt lat="45.94969" lon="4.74452">
        <ele>192</ele>
        <time>2017-12-15T12:01:25Z</time>
      </trkpt>
      <trkpt lat="45.94965" lon="4.74445">
        <ele>192</ele>
        <time>2017-12-15T12:01:26Z</time>
      </trkpt>
      <trkpt lat="45.94961" lon="4.74437">
        <ele>192</ele>
        <time>2017-12-15T12:01:27Z</time>
      </trkpt>
      <trkpt lat="45.94958" lon="4.7443">
        <ele>192</ele>
        <time>2017-12-15T12:01:28Z</time>
      </trkpt>
      <trkpt lat="45.94954" lon="4.74422">
        <ele>192</ele>
        <time>2017-12-15T12:01:29Z</time>
      </trkpt>
      <trkpt lat="45.94951" lon="4.74415">
        <ele>192</ele>
        <time>2017-12-15T12:01:30Z</time>
      </trkpt>
      <trkpt lat="45.94946" lon="4.74407">
        <ele>192</ele>
        <time>2017-12-15T12:01:31Z</time>
      </trkpt>
      <trkpt lat="45.94941" lon="4.74399">
        <ele>192</ele>
        <time>2017-12-15T12:01:32Z</time>
      </trkpt>
      <trkpt lat="45.94938" lon="4.74392">
        <ele>192</ele>
        <time>2017-12-15T12:01:33Z</time>
      </trkpt>
      <trkpt lat="45.94933" lon="4.74385">
        <ele>192</ele>
        <time>2017-12-15T12:01:34Z</time>
      </trkpt>
      <trkpt lat="45.94928" lon="4.74378">
        <ele>191</ele>
        <time>2017-12-15T12:01:35Z</time>
      </trkpt>
      <trkpt lat="45.94924" lon="4.74371">
        <ele>191</ele>
        <time>2017-12-15T12:01:36Z</time>
      </trkpt>
      <trkpt lat="45.94921" lon="4.74364">
        <ele>192</ele>
        <time>2017-12-15T12:01:37Z</time>
      </trkpt>
      <trkpt lat="45.94917" lon="4.74358">
        <ele>192</ele>
        <time>2017-12-15T12:01:38Z</time>
      </trkpt>
      <trkpt lat="45.94913" lon="4.74351">
        <ele>191</ele>
        <time>2017-12-15T12:01:39Z</time>
      </trkpt>
      <trkpt lat="45.94908" lon="4.74345">
        <ele>191</ele>
        <time>2017-12-15T12:01:40Z</time>
      </trkpt>
      <trkpt lat="45.94905" lon="4.7434">
        <ele>191</ele>
        <time>2017-12-15T12:01:41Z</time>
      </trkpt>
      <trkpt lat="45.94902" lon="4.74331">
        <ele>191</ele>
        <time>2017-12-15T12:01:42Z</time>
      </trkpt>
      <trkpt lat="45.94898" lon="4.74325">
        <ele>191</ele>
        <time>2017-12-15T12:01:43Z</time>
      </trkpt>
      <trkpt lat="45.94895" lon="4.74319">
        <ele>191</ele>
        <time>2017-12-15T12:01:44Z</time>
      </trkpt>
      <trkpt lat="45.94891" lon="4.74312">
        <ele>191</ele>
        <time>2017-12-15T12:01:45Z</time>
      </trkpt>
      <trkpt lat="45.94888" lon="4.74306">
        <ele>191</ele>
        <time>2017-12-15T12:01:46Z</time>
      </trkpt>
      <trkpt lat="45.94884" lon="4.743">
        <ele>191</ele>
        <time>2017-12-15T12:01:47Z</time>
      </trkpt>
      <trkpt lat="45.9488" lon="4.74293">
        <ele>191</ele>
        <time>2017-12-15T12:01:48Z</time>
      </trkpt>
      <trkpt lat="45.94877" lon="4.74287">
        <ele>191</ele>
        <time>2017-12-15T12:01:49Z</time>
      </trkpt>
      <trkpt lat="45.94873" lon="4.74279">
        <ele>191</ele>
        <time>2017-12-15T12:01:50Z</time>
      </trkpt>
      <trkpt lat="45.94869" lon="4.74272">
        <ele>191</ele>
        <time>2017-12-15T12:01:51Z</time>
      </trkpt>
      <trkpt lat="45.94865" lon="4.74265">
        <ele>190</ele>
        <time>2017-12-15T12:01:52Z</time>
      </trkpt>
      <trkpt lat="45.94861" lon="4.74257">
        <ele>190</ele>
        <time>2017-12-15T12:01:53Z</time>
      </trkpt>
      <trkpt lat="45.94857" lon="4.74249">
        <ele>190</ele>
        <time>2017-12-15T12:01:54Z</time>
      </trkpt>
      <trkpt lat="45.94853" lon="4.74241">
        <ele>190</ele>
        <time>2017-12-15T12:01:55Z</time>
      </trkpt>
      <trkpt lat="45.94849" lon="4.74232">
        <ele>190</ele>
        <time>2017-12-15T12:01:56Z</time>
      </trkpt>
      <trkpt lat="45.94845" lon="4.74225">
        <ele>190</ele>
        <time>2017-12-15T12:01:57Z</time>
      </trkpt>
      <trkpt lat="45.94841" lon="4.74218">
        <ele>190</ele>
        <time>2017-12-15T12:01:58Z</time>
      </trkpt>
      <trkpt lat="45.94838" lon="4.7421">
        <ele>190</ele>
        <time>2017-12-15T12:01:59Z</time>
      </trkpt>
      <trkpt lat="45.94834" lon="4.74204">
        <ele>190</ele>
        <time>2017-12-15T12:02:00Z</time>
      </trkpt>
      <trkpt lat="45.9483" lon="4.74199">
        <ele>189</ele>
        <time>2017-12-15T12:02:01Z</time>
      </trkpt>
      <trkpt lat="45.94826" lon="4.74192">
        <ele>189</ele>
        <time>2017-12-15T12:02:02Z</time>
      </trkpt>
      <trkpt lat="45.94823" lon="4.74185">
        <ele>189</ele>
        <time>2017-12-15T12:02:03Z</time>
      </trkpt>
      <trkpt lat="45.94821" lon="4.7418">
        <ele>189</ele>
        <time>2017-12-15T12:02:04Z</time>
      </trkpt>
      <trkpt lat="45.94817" lon="4.74175">
        <ele>189</ele>
        <time>2017-12-15T12:02:05Z</time>
      </trkpt>
      <trkpt lat="45.94813" lon="4.74167">
        <ele>189</ele>
        <time>2017-12-15T12:02:06Z</time>
      </trkpt>
      <trkpt lat="45.94809" lon="4.74161">
        <ele>189</ele>
        <time>2017-12-15T12:02:07Z</time>
      </trkpt>
      <trkpt lat="45.94804" lon="4.74155">
        <ele>189</ele>
        <time>2017-12-15T12:02:08Z</time>
      </trkpt>
      <trkpt lat="45.948" lon="4.74147">
        <ele>189</ele>
        <time>2017-12-15T12:02:09Z</time>
      </trkpt>
      <trkpt lat="45.94797" lon="4.7414">
        <ele>189</ele>
        <time>2017-12-15T12:02:10Z</time>
      </trkpt>
      <trkpt lat="45.94794" lon="4.74133">
        <ele>189</ele>
        <time>2017-12-15T12:02:11Z</time>
      </trkpt>
      <trkpt lat="45.94788" lon="4.74126">
        <ele>189</ele>
        <time>2017-12-15T12:02:12Z</time>
      </trkpt>
      <trkpt lat="45.94783" lon="4.74119">
        <ele>189</ele>
        <time>2017-12-15T12:02:13Z</time>
      </trkpt>
      <trkpt lat="45.94779" lon="4.74112">
        <ele>189</ele>
        <time>2017-12-15T12:02:14Z</time>
      </trkpt>
      <trkpt lat="45.94774" lon="4.74105">
        <ele>189</ele>
        <time>2017-12-15T12:02:15Z</time>
      </trkpt>
      <trkpt lat="45.94769" lon="4.74099">
        <ele>189</ele>
        <time>2017-12-15T12:02:16Z</time>
      </trkpt>
      <trkpt lat="45.94764" lon="4.74093">
        <ele>189</ele>
        <time>2017-12-15T12:02:17Z</time>
      </trkpt>
      <trkpt lat="45.94759" lon="4.74086">
        <ele>189</ele>
        <time>2017-12-15T12:02:18Z</time>
      </trkpt>
      <trkpt lat="45.94755" lon="4.7408">
        <ele>189</ele>
        <time>2017-12-15T12:02:19Z</time>
      </trkpt>
      <trkpt lat="45.9475" lon="4.74074">
        <ele>188</ele>
        <time>2017-12-15T12:02:20Z</time>
      </trkpt>
      <trkpt lat="45.94745" lon="4.74067">
        <ele>188</ele>
        <time>2017-12-15T12:02:21Z</time>
      </trkpt>
      <trkpt lat="45.9474" lon="4.74062">
        <ele>188</ele>
        <time>2017-12-15T12:02:22Z</time>
      </trkpt>
      <trkpt lat="45.94735" lon="4.74056">
        <ele>188</ele>
        <time>2017-12-15T12:02:23Z</time>
      </trkpt>
      <trkpt lat="45.94731" lon="4.74051">
        <ele>188</ele>
        <time>2017-12-15T12:02:24Z</time>
      </trkpt>
      <trkpt lat="45.94727" lon="4.74046">
        <ele>188</ele>
        <time>2017-12-15T12:02:25Z</time>
      </trkpt>
      <trkpt lat="45.94724" lon="4.74042">
        <ele>187</ele>
        <time>2017-12-15T12:02:26Z</time>
      </trkpt>
      <trkpt lat="45.94721" lon="4.74035">
        <ele>187</ele>
        <time>2017-12-15T12:02:27Z</time>
      </trkpt>
      <trkpt lat="45.94718" lon="4.74031">
        <ele>187</ele>
        <time>2017-12-15T12:02:28Z</time>
      </trkpt>
      <trkpt lat="45.94716" lon="4.74025">
        <ele>187</ele>
        <time>2017-12-15T12:02:29Z</time>
      </trkpt>
      <trkpt lat="45.94712" lon="4.7402">
        <ele>187</ele>
        <time>2017-12-15T12:02:30Z</time>
      </trkpt>
      <trkpt lat="45.94708" lon="4.74014">
        <ele>187</ele>
        <time>2017-12-15T12:02:31Z</time>
      </trkpt>
      <trkpt lat="45.94703" lon="4.74009">
        <ele>187</ele>
        <time>2017-12-15T12:02:32Z</time>
      </trkpt>
      <trkpt lat="45.94701" lon="4.74002">
        <ele>187</ele>
        <time>2017-12-15T12:02:33Z</time>
      </trkpt>
      <trkpt lat="45.94696" lon="4.73998">
        <ele>187</ele>
        <time>2017-12-15T12:02:34Z</time>
      </trkpt>
      <trkpt lat="45.94692" lon="4.73992">
        <ele>187</ele>
        <time>2017-12-15T12:02:35Z</time>
      </trkpt>
      <trkpt lat="45.94688" lon="4.73986">
        <ele>187</ele>
        <time>2017-12-15T12:02:36Z</time>
      </trkpt>
      <trkpt lat="45.94683" lon="4.73979">
        <ele>187</ele>
        <time>2017-12-15T12:02:37Z</time>
      </trkpt>
      <trkpt lat="45.94679" lon="4.73973">
        <ele>187</ele>
        <time>2017-12-15T12:02:38Z</time>
      </trkpt>
      <trkpt lat="45.94674" lon="4.73966">
        <ele>187</ele>
        <time>2017-12-15T12:02:39Z</time>
      </trkpt>
      <trkpt lat="45.94669" lon="4.7396">
        <ele>187</ele>
        <time>2017-12-15T12:02:40Z</time>
      </trkpt>
      <trkpt lat="45.94664" lon="4.73955">
        <ele>187</ele>
        <time>2017-12-15T12:02:41Z</time>
      </trkpt>
      <trkpt lat="45.94659" lon="4.73949">
        <ele>187</ele>
        <time>2017-12-15T12:02:42Z</time>
      </trkpt>
      <trkpt lat="45.94656" lon="4.73943">
        <ele>187</ele>
        <time>2017-12-15T12:02:43Z</time>
      </trkpt>
      <trkpt lat="45.94651" lon="4.73936">
        <ele>187</ele>
        <time>2017-12-15T12:02:44Z</time>
      </trkpt>
      <trkpt lat="45.94648" lon="4.73931">
        <ele>187</ele>
        <time>2017-12-15T12:02:45Z</time>
      </trkpt>
      <trkpt lat="45.94643" lon="4.73926">
        <ele>187</ele>
        <time>2017-12-15T12:02:46Z</time>
      </trkpt>
      <trkpt lat="45.9464" lon="4.73921">
        <ele>187</ele>
        <time>2017-12-15T12:02:47Z</time>
      </trkpt>
      <trkpt lat="45.94635" lon="4.73916">
        <ele>187</ele>
        <time>2017-12-15T12:02:48Z</time>
      </trkpt>
      <trkpt lat="45.94631" lon="4.73912">
        <ele>187</ele>
        <time>2017-12-15T12:02:49Z</time>
      </trkpt>
      <trkpt lat="45.94626" lon="4.73906">
        <ele>187</ele>
        <time>2017-12-15T12:02:50Z</time>
      </trkpt>
      <trkpt lat="45.94622" lon="4.73901">
        <ele>187</ele>
        <time>2017-12-15T12:02:51Z</time>
      </trkpt>
      <trkpt lat="45.94618" lon="4.73895">
        <ele>187</ele>
        <time>2017-12-15T12:02:52Z</time>
      </trkpt>
      <trkpt lat="45.94614" lon="4.73888">
        <ele>187</ele>
        <time>2017-12-15T12:02:53Z</time>
      </trkpt>
      <trkpt lat="45.94609" lon="4.73883">
        <ele>187</ele>
        <time>2017-12-15T12:02:54Z</time>
      </trkpt>
      <trkpt lat="45.94604" lon="4.73878">
        <ele>187</ele>
        <time>2017-12-15T12:02:55Z</time>
      </trkpt>
      <trkpt lat="45.94599" lon="4.73873">
        <ele>187</ele>
        <time>2017-12-15T12:02:56Z</time>
      </trkpt>
      <trkpt lat="45.94594" lon="4.73868">
        <ele>187</ele>
        <time>2017-12-15T12:02:57Z</time>
      </trkpt>
      <trkpt lat="45.94589" lon="4.73863">
        <ele>187</ele>
        <time>2017-12-15T12:02:58Z</time>
      </trkpt>
      <trkpt lat="45.94584" lon="4.73858">
        <ele>187</ele>
        <time>2017-12-15T12:02:59Z</time>
      </trkpt>
      <trkpt lat="45.94579" lon="4.73852">
        <ele>186</ele>
        <time>2017-12-15T12:03:00Z</time>
      </trkpt>
      <trkpt lat="45.94574" lon="4.73847">
        <ele>186</ele>
        <time>2017-12-15T12:03:01Z</time>
      </trkpt>
      <trkpt lat="45.9457" lon="4.73843">
        <ele>186</ele>
        <time>2017-12-15T12:03:02Z</time>
      </trkpt>
      <trkpt lat="45.94566" lon="4.73839">
        <ele>186</ele>
        <time>2017-12-15T12:03:03Z</time>
      </trkpt>
      <trkpt lat="45.94561" lon="4.73834">
        <ele>186</ele>
        <time>2017-12-15T12:03:04Z</time>
      </trkpt>
      <trkpt lat="45.94557" lon="4.7383">
        <ele>186</ele>
        <time>2017-12-15T12:03:05Z</time>
      </trkpt>
      <trkpt lat="45.94553" lon="4.73826">
        <ele>186</ele>
        <time>2017-12-15T12:03:06Z</time>
      </trkpt>
      <trkpt lat="45.94549" lon="4.7382">
        <ele>186</ele>
        <time>2017-12-15T12:03:07Z</time>
      </trkpt>
      <trkpt lat="45.94544" lon="4.73815">
        <ele>186</ele>
        <time>2017-12-15T12:03:08Z</time>
      </trkpt>
      <trkpt lat="45.94539" lon="4.73811">
        <ele>186</ele>
        <time>2017-12-15T12:03:09Z</time>
      </trkpt>
      <trkpt lat="45.94532" lon="4.73807">
        <ele>186</ele>
        <time>2017-12-15T12:03:10Z</time>
      </trkpt>
      <trkpt lat="45.94528" lon="4.73801">
        <ele>186</ele>
        <time>2017-12-15T12:03:11Z</time>
      </trkpt>
      <trkpt lat="45.94524" lon="4.73797">
        <ele>186</ele>
        <time>2017-12-15T12:03:12Z</time>
      </trkpt>
      <trkpt lat="45.9452" lon="4.73792">
        <ele>186</ele>
        <time>2017-12-15T12:03:13Z</time>
      </trkpt>
      <trkpt lat="45.94516" lon="4.73785">
        <ele>186</ele>
        <time>2017-12-15T12:03:14Z</time>
      </trkpt>
      <trkpt lat="45.94511" lon="4.7378">
        <ele>186</ele>
        <time>2017-12-15T12:03:15Z</time>
      </trkpt>
      <trkpt lat="45.94506" lon="4.7377">
        <ele>186</ele>
        <time>2017-12-15T12:03:17Z</time>
      </trkpt>
      <trkpt lat="45.94502" lon="4.73764">
        <ele>186</ele>
        <time>2017-12-15T12:03:18Z</time>
      </trkpt>
      <trkpt lat="45.94499" lon="4.73758">
        <ele>186</ele>
        <time>2017-12-15T12:03:19Z</time>
      </trkpt>
      <trkpt lat="45.94498" lon="4.73751">
        <ele>186</ele>
        <time>2017-12-15T12:03:20Z</time>
      </trkpt>
      <trkpt lat="45.94495" lon="4.73744">
        <ele>186</ele>
        <time>2017-12-15T12:03:21Z</time>
      </trkpt>
      <trkpt lat="45.94494" lon="4.73737">
        <ele>186</ele>
        <time>2017-12-15T12:03:22Z</time>
      </trkpt>
      <trkpt lat="45.94495" lon="4.73729">
        <ele>186</ele>
        <time>2017-12-15T12:03:23Z</time>
      </trkpt>
      <trkpt lat="45.94496" lon="4.7372">
        <ele>186</ele>
        <time>2017-12-15T12:03:24Z</time>
      </trkpt>
      <trkpt lat="45.94497" lon="4.73712">
        <ele>186</ele>
        <time>2017-12-15T12:03:25Z</time>
      </trkpt>
      <trkpt lat="45.94497" lon="4.73702">
        <ele>186</ele>
        <time>2017-12-15T12:03:26Z</time>
      </trkpt>
      <trkpt lat="45.945" lon="4.73693">
        <ele>186</ele>
        <time>2017-12-15T12:03:27Z</time>
      </trkpt>
      <trkpt lat="45.94501" lon="4.73686">
        <ele>185</ele>
        <time>2017-12-15T12:03:28Z</time>
      </trkpt>
      <trkpt lat="45.94502" lon="4.73679">
        <ele>185</ele>
        <time>2017-12-15T12:03:29Z</time>
      </trkpt>
      <trkpt lat="45.94503" lon="4.73671">
        <ele>185</ele>
        <time>2017-12-15T12:03:30Z</time>
      </trkpt>
      <trkpt lat="45.94504" lon="4.73664">
        <ele>185</ele>
        <time>2017-12-15T12:03:31Z</time>
      </trkpt>
      <trkpt lat="45.94504" lon="4.73655">
        <ele>184</ele>
        <time>2017-12-15T12:03:32Z</time>
      </trkpt>
      <trkpt lat="45.94505" lon="4.73646">
        <ele>184</ele>
        <time>2017-12-15T12:03:33Z</time>
      </trkpt>
      <trkpt lat="45.94505" lon="4.73638">
        <ele>184</ele>
        <time>2017-12-15T12:03:34Z</time>
      </trkpt>
      <trkpt lat="45.94506" lon="4.7363">
        <ele>184</ele>
        <time>2017-12-15T12:03:35Z</time>
      </trkpt>
      <trkpt lat="45.94507" lon="4.73621">
        <ele>184</ele>
        <time>2017-12-15T12:03:36Z</time>
      </trkpt>
      <trkpt lat="45.94507" lon="4.73613">
        <ele>184</ele>
        <time>2017-12-15T12:03:37Z</time>
      </trkpt>
      <trkpt lat="45.94507" lon="4.73605">
        <ele>184</ele>
        <time>2017-12-15T12:03:38Z</time>
      </trkpt>
      <trkpt lat="45.94508" lon="4.73595">
        <ele>184</ele>
        <time>2017-12-15T12:03:39Z</time>
      </trkpt>
      <trkpt lat="45.94508" lon="4.73586">
        <ele>185</ele>
        <time>2017-12-15T12:03:40Z</time>
      </trkpt>
      <trkpt lat="45.94508" lon="4.73577">
        <ele>184</ele>
        <time>2017-12-15T12:03:41Z</time>
      </trkpt>
      <trkpt lat="45.94508" lon="4.73567">
        <ele>184</ele>
        <time>2017-12-15T12:03:42Z</time>
      </trkpt>
      <trkpt lat="45.94509" lon="4.73558">
        <ele>184</ele>
        <time>2017-12-15T12:03:43Z</time>
      </trkpt>
      <trkpt lat="45.9451" lon="4.7355">
        <ele>183</ele>
        <time>2017-12-15T12:03:44Z</time>
      </trkpt>
      <trkpt lat="45.9451" lon="4.73541">
        <ele>183</ele>
        <time>2017-12-15T12:03:45Z</time>
      </trkpt>
      <trkpt lat="45.94509" lon="4.73531">
        <ele>183</ele>
        <time>2017-12-15T12:03:46Z</time>
      </trkpt>
      <trkpt lat="45.94509" lon="4.73522">
        <ele>183</ele>
        <time>2017-12-15T12:03:47Z</time>
      </trkpt>
      <trkpt lat="45.9451" lon="4.73512">
        <ele>183</ele>
        <time>2017-12-15T12:03:48Z</time>
      </trkpt>
      <trkpt lat="45.94509" lon="4.73504">
        <ele>183</ele>
        <time>2017-12-15T12:03:49Z</time>
      </trkpt>
      <trkpt lat="45.94509" lon="4.73494">
        <ele>182</ele>
        <time>2017-12-15T12:03:50Z</time>
      </trkpt>
      <trkpt lat="45.94509" lon="4.73485">
        <ele>182</ele>
        <time>2017-12-15T12:03:51Z</time>
      </trkpt>
      <trkpt lat="45.94509" lon="4.73476">
        <ele>182</ele>
        <time>2017-12-15T12:03:52Z</time>
      </trkpt>
      <trkpt lat="45.94508" lon="4.73467">
        <ele>181</ele>
        <time>2017-12-15T12:03:53Z</time>
      </trkpt>
      <trkpt lat="45.94507" lon="4.73455">
        <ele>181</ele>
        <time>2017-12-15T12:03:54Z</time>
      </trkpt>
      <trkpt lat="45.94508" lon="4.73444">
        <ele>181</ele>
        <time>2017-12-15T12:03:55Z</time>
      </trkpt>
      <trkpt lat="45.94507" lon="4.73435">
        <ele>181</ele>
        <time>2017-12-15T12:03:56Z</time>
      </trkpt>
      <trkpt lat="45.94506" lon="4.73425">
        <ele>180</ele>
        <time>2017-12-15T12:03:57Z</time>
      </trkpt>
      <trkpt lat="45.94504" lon="4.73415">
        <ele>180</ele>
        <time>2017-12-15T12:03:58Z</time>
      </trkpt>
      <trkpt lat="45.94504" lon="4.73404">
        <ele>179</ele>
        <time>2017-12-15T12:03:59Z</time>
      </trkpt>
      <trkpt lat="45.94504" lon="4.73394">
        <ele>179</ele>
        <time>2017-12-15T12:04:00Z</time>
      </trkpt>
      <trkpt lat="45.94501" lon="4.73383">
        <ele>179</ele>
        <time>2017-12-15T12:04:01Z</time>
      </trkpt>
      <trkpt lat="45.945" lon="4.73373">
        <ele>178</ele>
        <time>2017-12-15T12:04:02Z</time>
      </trkpt>
      <trkpt lat="45.94499" lon="4.73361">
        <ele>179</ele>
        <time>2017-12-15T12:04:03Z</time>
      </trkpt>
      <trkpt lat="45.94498" lon="4.73351">
        <ele>178</ele>
        <time>2017-12-15T12:04:04Z</time>
      </trkpt>
      <trkpt lat="45.94497" lon="4.73341">
        <ele>178</ele>
        <time>2017-12-15T12:04:05Z</time>
      </trkpt>
      <trkpt lat="45.94496" lon="4.73331">
        <ele>177</ele>
        <time>2017-12-15T12:04:06Z</time>
      </trkpt>
      <trkpt lat="45.94495" lon="4.7332">
        <ele>177</ele>
        <time>2017-12-15T12:04:07Z</time>
      </trkpt>
      <trkpt lat="45.94495" lon="4.73309">
        <ele>177</ele>
        <time>2017-12-15T12:04:08Z</time>
      </trkpt>
      <trkpt lat="45.94494" lon="4.733">
        <ele>177</ele>
        <time>2017-12-15T12:04:09Z</time>
      </trkpt>
      <trkpt lat="45.94491" lon="4.73289">
        <ele>177</ele>
        <time>2017-12-15T12:04:10Z</time>
      </trkpt>
      <trkpt lat="45.9449" lon="4.73279">
        <ele>177</ele>
        <time>2017-12-15T12:04:11Z</time>
      </trkpt>
      <trkpt lat="45.94488" lon="4.73269">
        <ele>177</ele>
        <time>2017-12-15T12:04:12Z</time>
      </trkpt>
      <trkpt lat="45.94486" lon="4.73258">
        <ele>176</ele>
        <time>2017-12-15T12:04:13Z</time>
      </trkpt>
      <trkpt lat="45.94484" lon="4.73249">
        <ele>175</ele>
        <time>2017-12-15T12:04:14Z</time>
      </trkpt>
      <trkpt lat="45.94482" lon="4.73239">
        <ele>175</ele>
        <time>2017-12-15T12:04:15Z</time>
      </trkpt>
      <trkpt lat="45.9448" lon="4.73228">
        <ele>175</ele>
        <time>2017-12-15T12:04:16Z</time>
      </trkpt>
      <trkpt lat="45.94479" lon="4.73219">
        <ele>175</ele>
        <time>2017-12-15T12:04:17Z</time>
      </trkpt>
      <trkpt lat="45.9448" lon="4.73209">
        <ele>175</ele>
        <time>2017-12-15T12:04:18Z</time>
      </trkpt>
      <trkpt lat="45.9448" lon="4.73198">
        <ele>174</ele>
        <time>2017-12-15T12:04:19Z</time>
      </trkpt>
      <trkpt lat="45.94478" lon="4.73188">
        <ele>174</ele>
        <time>2017-12-15T12:04:20Z</time>
      </trkpt>
      <trkpt lat="45.94478" lon="4.73177">
        <ele>174</ele>
        <time>2017-12-15T12:04:21Z</time>
      </trkpt>
      <trkpt lat="45.94478" lon="4.73166">
        <ele>173</ele>
        <time>2017-12-15T12:04:22Z</time>
      </trkpt>
      <trkpt lat="45.94478" lon="4.73156">
        <ele>173</ele>
        <time>2017-12-15T12:04:23Z</time>
      </trkpt>
      <trkpt lat="45.94476" lon="4.73147">
        <ele>172</ele>
        <time>2017-12-15T12:04:24Z</time>
      </trkpt>
      <trkpt lat="45.94474" lon="4.73138">
        <ele>172</ele>
        <time>2017-12-15T12:04:25Z</time>
      </trkpt>
      <trkpt lat="45.94474" lon="4.73129">
        <ele>172</ele>
        <time>2017-12-15T12:04:26Z</time>
      </trkpt>
      <trkpt lat="45.94472" lon="4.7312">
        <ele>172</ele>
        <time>2017-12-15T12:04:27Z</time>
      </trkpt>
      <trkpt lat="45.94471" lon="4.7311">
        <ele>172</ele>
        <time>2017-12-15T12:04:28Z</time>
      </trkpt>
      <trkpt lat="45.9447" lon="4.73101">
        <ele>172</ele>
        <time>2017-12-15T12:04:29Z</time>
      </trkpt>
      <trkpt lat="45.94468" lon="4.73091">
        <ele>172</ele>
        <time>2017-12-15T12:04:30Z</time>
      </trkpt>
      <trkpt lat="45.94466" lon="4.73082">
        <ele>170</ele>
        <time>2017-12-15T12:04:31Z</time>
      </trkpt>
      <trkpt lat="45.94465" lon="4.73073">
        <ele>170</ele>
        <time>2017-12-15T12:04:32Z</time>
      </trkpt>
      <trkpt lat="45.94464" lon="4.73064">
        <ele>170</ele>
        <time>2017-12-15T12:04:33Z</time>
      </trkpt>
      <trkpt lat="45.94463" lon="4.73056">
        <ele>170</ele>
        <time>2017-12-15T12:04:34Z</time>
      </trkpt>
      <trkpt lat="45.94462" lon="4.73048">
        <ele>170</ele>
        <time>2017-12-15T12:04:35Z</time>
      </trkpt>
      <trkpt lat="45.94461" lon="4.7304">
        <ele>170</ele>
        <time>2017-12-15T12:04:36Z</time>
      </trkpt>
      <trkpt lat="45.94461" lon="4.73034">
        <ele>169</ele>
        <time>2017-12-15T12:04:37Z</time>
      </trkpt>
      <trkpt lat="45.94459" lon="4.73027">
        <ele>169</ele>
        <time>2017-12-15T12:04:38Z</time>
      </trkpt>
      <trkpt lat="45.94458" lon="4.7302">
        <ele>169</ele>
        <time>2017-12-15T12:04:39Z</time>
      </trkpt>
      <trkpt lat="45.94457" lon="4.73012">
        <ele>169</ele>
        <time>2017-12-15T12:04:40Z</time>
      </trkpt>
      <trkpt lat="45.94456" lon="4.73003">
        <ele>169</ele>
        <time>2017-12-15T12:04:41Z</time>
      </trkpt>
      <trkpt lat="45.94455" lon="4.72995">
        <ele>168</ele>
        <time>2017-12-15T12:04:42Z</time>
      </trkpt>
      <trkpt lat="45.94454" lon="4.72988">
        <ele>167</ele>
        <time>2017-12-15T12:04:43Z</time>
      </trkpt>
      <trkpt lat="45.94454" lon="4.72981">
        <ele>167</ele>
        <time>2017-12-15T12:04:44Z</time>
      </trkpt>
      <trkpt lat="45.94452" lon="4.72968">
        <ele>167</ele>
        <time>2017-12-15T12:04:46Z</time>
      </trkpt>
      <trkpt lat="45.94451" lon="4.72962">
        <ele>167</ele>
        <time>2017-12-15T12:04:47Z</time>
      </trkpt>
      <trkpt lat="45.9445" lon="4.72954">
        <ele>167</ele>
        <time>2017-12-15T12:04:48Z</time>
      </trkpt>
      <trkpt lat="45.94449" lon="4.72947">
        <ele>167</ele>
        <time>2017-12-15T12:04:49Z</time>
      </trkpt>
      <trkpt lat="45.94448" lon="4.7294">
        <ele>167</ele>
        <time>2017-12-15T12:04:50Z</time>
      </trkpt>
      <trkpt lat="45.94447" lon="4.72932">
        <ele>167</ele>
        <time>2017-12-15T12:04:51Z</time>
      </trkpt>
      <trkpt lat="45.94445" lon="4.7292">
        <ele>167</ele>
        <time>2017-12-15T12:04:53Z</time>
      </trkpt>
      <trkpt lat="45.94444" lon="4.72913">
        <ele>166</ele>
        <time>2017-12-15T12:04:54Z</time>
      </trkpt>
      <trkpt lat="45.94441" lon="4.72901">
        <ele>166</ele>
        <time>2017-12-15T12:04:56Z</time>
      </trkpt>
      <trkpt lat="45.9444" lon="4.72895">
        <ele>166</ele>
        <time>2017-12-15T12:04:57Z</time>
      </trkpt>
      <trkpt lat="45.9444" lon="4.72887">
        <ele>166</ele>
        <time>2017-12-15T12:04:58Z</time>
      </trkpt>
      <trkpt lat="45.94439" lon="4.7288">
        <ele>166</ele>
        <time>2017-12-15T12:04:59Z</time>
      </trkpt>
      <trkpt lat="45.94437" lon="4.72873">
        <ele>166</ele>
        <time>2017-12-15T12:05:00Z</time>
      </trkpt>
      <trkpt lat="45.94436" lon="4.72865">
        <ele>166</ele>
        <time>2017-12-15T12:05:01Z</time>
      </trkpt>
      <trkpt lat="45.94435" lon="4.72857">
        <ele>166</ele>
        <time>2017-12-15T12:05:02Z</time>
      </trkpt>
      <trkpt lat="45.94434" lon="4.72848">
        <ele>166</ele>
        <time>2017-12-15T12:05:03Z</time>
      </trkpt>
      <trkpt lat="45.94432" lon="4.72839">
        <ele>166</ele>
        <time>2017-12-15T12:05:04Z</time>
      </trkpt>
      <trkpt lat="45.94431" lon="4.7283">
        <ele>167</ele>
        <time>2017-12-15T12:05:05Z</time>
      </trkpt>
      <trkpt lat="45.94429" lon="4.72822">
        <ele>167</ele>
        <time>2017-12-15T12:05:06Z</time>
      </trkpt>
      <trkpt lat="45.94429" lon="4.72813">
        <ele>167</ele>
        <time>2017-12-15T12:05:07Z</time>
      </trkpt>
      <trkpt lat="45.94428" lon="4.72804">
        <ele>167</ele>
        <time>2017-12-15T12:05:08Z</time>
      </trkpt>
      <trkpt lat="45.94427" lon="4.72795">
        <ele>168</ele>
        <time>2017-12-15T12:05:09Z</time>
      </trkpt>
      <trkpt lat="45.94425" lon="4.72786">
        <ele>168</ele>
        <time>2017-12-15T12:05:10Z</time>
      </trkpt>
      <trkpt lat="45.94424" lon="4.72777">
        <ele>168</ele>
        <time>2017-12-15T12:05:11Z</time>
      </trkpt>
      <trkpt lat="45.94423" lon="4.72768">
        <ele>169</ele>
        <time>2017-12-15T12:05:12Z</time>
      </trkpt>
      <trkpt lat="45.9442" lon="4.72757">
        <ele>170</ele>
        <time>2017-12-15T12:05:13Z</time>
      </trkpt>
      <trkpt lat="45.94419" lon="4.72747">
        <ele>171</ele>
        <time>2017-12-15T12:05:14Z</time>
      </trkpt>
      <trkpt lat="45.94417" lon="4.72738">
        <ele>171</ele>
        <time>2017-12-15T12:05:15Z</time>
      </trkpt>
      <trkpt lat="45.94417" lon="4.7273">
        <ele>172</ele>
        <time>2017-12-15T12:05:16Z</time>
      </trkpt>
      <trkpt lat="45.94415" lon="4.7272">
        <ele>172</ele>
        <time>2017-12-15T12:05:17Z</time>
      </trkpt>
      <trkpt lat="45.94416" lon="4.7271">
        <ele>172</ele>
        <time>2017-12-15T12:05:18Z</time>
      </trkpt>
      <trkpt lat="45.94415" lon="4.72701">
        <ele>172</ele>
        <time>2017-12-15T12:05:19Z</time>
      </trkpt>
      <trkpt lat="45.94413" lon="4.72692">
        <ele>173</ele>
        <time>2017-12-15T12:05:20Z</time>
      </trkpt>
      <trkpt lat="45.94412" lon="4.72684">
        <ele>173</ele>
        <time>2017-12-15T12:05:21Z</time>
      </trkpt>
      <trkpt lat="45.94411" lon="4.72675">
        <ele>173</ele>
        <time>2017-12-15T12:05:22Z</time>
      </trkpt>
      <trkpt lat="45.9441" lon="4.72666">
        <ele>174</ele>
        <time>2017-12-15T12:05:23Z</time>
      </trkpt>
      <trkpt lat="45.94409" lon="4.72658">
        <ele>174</ele>
        <time>2017-12-15T12:05:24Z</time>
      </trkpt>
      <trkpt lat="45.94409" lon="4.72649">
        <ele>174</ele>
        <time>2017-12-15T12:05:25Z</time>
      </trkpt>
      <trkpt lat="45.94409" lon="4.7264">
        <ele>174</ele>
        <time>2017-12-15T12:05:26Z</time>
      </trkpt>
      <trkpt lat="45.94407" lon="4.72632">
        <ele>174</ele>
        <time>2017-12-15T12:05:27Z</time>
      </trkpt>
      <trkpt lat="45.94406" lon="4.72623">
        <ele>173</ele>
        <time>2017-12-15T12:05:28Z</time>
      </trkpt>
      <trkpt lat="45.94404" lon="4.72615">
        <ele>173</ele>
        <time>2017-12-15T12:05:29Z</time>
      </trkpt>
      <trkpt lat="45.94404" lon="4.72608">
        <ele>173</ele>
        <time>2017-12-15T12:05:30Z</time>
      </trkpt>
      <trkpt lat="45.94403" lon="4.726">
        <ele>173</ele>
        <time>2017-12-15T12:05:31Z</time>
      </trkpt>
      <trkpt lat="45.94402" lon="4.72593">
        <ele>173</ele>
        <time>2017-12-15T12:05:32Z</time>
      </trkpt>
      <trkpt lat="45.94401" lon="4.72586">
        <ele>173</ele>
        <time>2017-12-15T12:05:33Z</time>
      </trkpt>
      <trkpt lat="45.944" lon="4.72576">
        <ele>173</ele>
        <time>2017-12-15T12:05:34Z</time>
      </trkpt>
      <trkpt lat="45.94398" lon="4.72568">
        <ele>173</ele>
        <time>2017-12-15T12:05:35Z</time>
      </trkpt>
      <trkpt lat="45.94396" lon="4.7256">
        <ele>173</ele>
        <time>2017-12-15T12:05:36Z</time>
      </trkpt>
      <trkpt lat="45.94395" lon="4.72552">
        <ele>173</ele>
        <time>2017-12-15T12:05:37Z</time>
      </trkpt>
      <trkpt lat="45.94393" lon="4.72544">
        <ele>173</ele>
        <time>2017-12-15T12:05:38Z</time>
      </trkpt>
      <trkpt lat="45.94391" lon="4.72536">
        <ele>174</ele>
        <time>2017-12-15T12:05:39Z</time>
      </trkpt>
      <trkpt lat="45.94389" lon="4.72528">
        <ele>174</ele>
        <time>2017-12-15T12:05:40Z</time>
      </trkpt>
      <trkpt lat="45.94386" lon="4.7252">
        <ele>174</ele>
        <time>2017-12-15T12:05:41Z</time>
      </trkpt>
      <trkpt lat="45.94384" lon="4.72512">
        <ele>174</ele>
        <time>2017-12-15T12:05:42Z</time>
      </trkpt>
      <trkpt lat="45.94381" lon="4.72504">
        <ele>174</ele>
        <time>2017-12-15T12:05:43Z</time>
      </trkpt>
      <trkpt lat="45.94379" lon="4.72496">
        <ele>173</ele>
        <time>2017-12-15T12:05:44Z</time>
      </trkpt>
      <trkpt lat="45.94377" lon="4.72488">
        <ele>173</ele>
        <time>2017-12-15T12:05:45Z</time>
      </trkpt>
      <trkpt lat="45.94374" lon="4.72482">
        <ele>173</ele>
        <time>2017-12-15T12:05:46Z</time>
      </trkpt>
      <trkpt lat="45.94371" lon="4.72476">
        <ele>173</ele>
        <time>2017-12-15T12:05:47Z</time>
      </trkpt>
      <trkpt lat="45.94369" lon="4.7247">
        <ele>173</ele>
        <time>2017-12-15T12:05:48Z</time>
      </trkpt>
      <trkpt lat="45.94366" lon="4.72464">
        <ele>173</ele>
        <time>2017-12-15T12:05:49Z</time>
      </trkpt>
      <trkpt lat="45.94364" lon="4.72457">
        <ele>173</ele>
        <time>2017-12-15T12:05:50Z</time>
      </trkpt>
      <trkpt lat="45.94361" lon="4.7245">
        <ele>173</ele>
        <time>2017-12-15T12:05:51Z</time>
      </trkpt>
      <trkpt lat="45.94359" lon="4.72445">
        <ele>173</ele>
        <time>2017-12-15T12:05:52Z</time>
      </trkpt>
      <trkpt lat="45.94355" lon="4.72438">
        <ele>173</ele>
        <time>2017-12-15T12:05:53Z</time>
      </trkpt>
      <trkpt lat="45.94352" lon="4.72432">
        <ele>173</ele>
        <time>2017-12-15T12:05:54Z</time>
      </trkpt>
      <trkpt lat="45.9435" lon="4.72423">
        <ele>173</ele>
        <time>2017-12-15T12:05:55Z</time>
      </trkpt>
      <trkpt lat="45.94347" lon="4.72417">
        <ele>173</ele>
        <time>2017-12-15T12:05:56Z</time>
      </trkpt>
      <trkpt lat="45.94344" lon="4.72411">
        <ele>173</ele>
        <time>2017-12-15T12:05:57Z</time>
      </trkpt>
      <trkpt lat="45.94343" lon="4.72403">
        <ele>173</ele>
        <time>2017-12-15T12:05:58Z</time>
      </trkpt>
      <trkpt lat="45.94341" lon="4.72397">
        <ele>172</ele>
        <time>2017-12-15T12:05:59Z</time>
      </trkpt>
      <trkpt lat="45.94336" lon="4.72386">
        <ele>172</ele>
        <time>2017-12-15T12:06:01Z</time>
      </trkpt>
      <trkpt lat="45.94335" lon="4.72381">
        <ele>172</ele>
        <time>2017-12-15T12:06:02Z</time>
      </trkpt>
      <trkpt lat="45.94331" lon="4.72374">
        <ele>172</ele>
        <time>2017-12-15T12:06:03Z</time>
      </trkpt>
      <trkpt lat="45.94329" lon="4.72369">
        <ele>172</ele>
        <time>2017-12-15T12:06:04Z</time>
      </trkpt>
      <trkpt lat="45.94324" lon="4.72361">
        <ele>172</ele>
        <time>2017-12-15T12:06:05Z</time>
      </trkpt>
      <trkpt lat="45.94321" lon="4.72355">
        <ele>172</ele>
        <time>2017-12-15T12:06:06Z</time>
      </trkpt>
      <trkpt lat="45.94318" lon="4.72349">
        <ele>172</ele>
        <time>2017-12-15T12:06:07Z</time>
      </trkpt>
      <trkpt lat="45.94316" lon="4.72343">
        <ele>172</ele>
        <time>2017-12-15T12:06:08Z</time>
      </trkpt>
      <trkpt lat="45.94313" lon="4.72337">
        <ele>172</ele>
        <time>2017-12-15T12:06:09Z</time>
      </trkpt>
      <trkpt lat="45.94311" lon="4.72331">
        <ele>172</ele>
        <time>2017-12-15T12:06:10Z</time>
      </trkpt>
      <trkpt lat="45.94308" lon="4.72325">
        <ele>171</ele>
        <time>2017-12-15T12:06:11Z</time>
      </trkpt>
      <trkpt lat="45.94304" lon="4.72317">
        <ele>171</ele>
        <time>2017-12-15T12:06:12Z</time>
      </trkpt>
      <trkpt lat="45.94301" lon="4.72311">
        <ele>171</ele>
        <time>2017-12-15T12:06:13Z</time>
      </trkpt>
      <trkpt lat="45.94298" lon="4.72305">
        <ele>171</ele>
        <time>2017-12-15T12:06:14Z</time>
      </trkpt>
      <trkpt lat="45.94294" lon="4.72299">
        <ele>171</ele>
        <time>2017-12-15T12:06:15Z</time>
      </trkpt>
      <trkpt lat="45.94292" lon="4.72293">
        <ele>171</ele>
        <time>2017-12-15T12:06:16Z</time>
      </trkpt>
      <trkpt lat="45.9429" lon="4.72286">
        <ele>171</ele>
        <time>2017-12-15T12:06:17Z</time>
      </trkpt>
      <trkpt lat="45.94288" lon="4.7228">
        <ele>171</ele>
        <time>2017-12-15T12:06:18Z</time>
      </trkpt>
      <trkpt lat="45.94284" lon="4.72269">
        <ele>171</ele>
        <time>2017-12-15T12:06:20Z</time>
      </trkpt>
      <trkpt lat="45.94282" lon="4.72264">
        <ele>171</ele>
        <time>2017-12-15T12:06:21Z</time>
      </trkpt>
      <trkpt lat="45.94273" lon="4.72265">
        <ele>171</ele>
        <time>2017-12-15T12:06:23Z</time>
      </trkpt>
      <trkpt lat="45.94269" lon="4.72267">
        <ele>171</ele>
        <time>2017-12-15T12:06:24Z</time>
      </trkpt>
      <trkpt lat="45.94264" lon="4.7227">
        <ele>171</ele>
        <time>2017-12-15T12:06:25Z</time>
      </trkpt>
      <trkpt lat="45.94259" lon="4.72273">
        <ele>171</ele>
        <time>2017-12-15T12:06:26Z</time>
      </trkpt>
      <trkpt lat="45.94254" lon="4.72276">
        <ele>171</ele>
        <time>2017-12-15T12:06:27Z</time>
      </trkpt>
      <trkpt lat="45.94249" lon="4.72278">
        <ele>171</ele>
        <time>2017-12-15T12:06:28Z</time>
      </trkpt>
      <trkpt lat="45.94243" lon="4.72279">
        <ele>171</ele>
        <time>2017-12-15T12:06:29Z</time>
      </trkpt>
      <trkpt lat="45.94237" lon="4.72281">
        <ele>171</ele>
        <time>2017-12-15T12:06:30Z</time>
      </trkpt>
      <trkpt lat="45.94232" lon="4.72284">
        <ele>171</ele>
        <time>2017-12-15T12:06:31Z</time>
      </trkpt>
      <trkpt lat="45.94225" lon="4.72285">
        <ele>171</ele>
        <time>2017-12-15T12:06:32Z</time>
      </trkpt>
      <trkpt lat="45.94219" lon="4.72286">
        <ele>171</ele>
        <time>2017-12-15T12:06:33Z</time>
      </trkpt>
      <trkpt lat="45.94213" lon="4.72287">
        <ele>171</ele>
        <time>2017-12-15T12:06:34Z</time>
      </trkpt>
      <trkpt lat="45.94207" lon="4.72287">
        <ele>171</ele>
        <time>2017-12-15T12:06:35Z</time>
      </trkpt>
      <trkpt lat="45.94201" lon="4.72287">
        <ele>171</ele>
        <time>2017-12-15T12:06:36Z</time>
      </trkpt>
      <trkpt lat="45.94195" lon="4.72287">
        <ele>171</ele>
        <time>2017-12-15T12:06:37Z</time>
      </trkpt>
      <trkpt lat="45.9419" lon="4.72288">
        <ele>171</ele>
        <time>2017-12-15T12:06:38Z</time>
      </trkpt>
      <trkpt lat="45.94185" lon="4.72288">
        <ele>171</ele>
        <time>2017-12-15T12:06:39Z</time>
      </trkpt>
      <trkpt lat="45.94179" lon="4.72287">
        <ele>171</ele>
        <time>2017-12-15T12:06:40Z</time>
      </trkpt>
      <trkpt lat="45.94174" lon="4.72287">
        <ele>171</ele>
        <time>2017-12-15T12:06:41Z</time>
      </trkpt>
      <trkpt lat="45.94167" lon="4.72286">
        <ele>171</ele>
        <time>2017-12-15T12:06:42Z</time>
      </trkpt>
      <trkpt lat="45.94162" lon="4.72285">
        <ele>171</ele>
        <time>2017-12-15T12:06:43Z</time>
      </trkpt>
      <trkpt lat="45.94155" lon="4.72284">
        <ele>171</ele>
        <time>2017-12-15T12:06:44Z</time>
      </trkpt>
      <trkpt lat="45.9415" lon="4.7228">
        <ele>171</ele>
        <time>2017-12-15T12:06:45Z</time>
      </trkpt>
      <trkpt lat="45.94144" lon="4.72279">
        <ele>171</ele>
        <time>2017-12-15T12:06:46Z</time>
      </trkpt>
      <trkpt lat="45.94139" lon="4.72277">
        <ele>171</ele>
        <time>2017-12-15T12:06:47Z</time>
      </trkpt>
      <trkpt lat="45.94135" lon="4.72275">
        <ele>171</ele>
        <time>2017-12-15T12:06:48Z</time>
      </trkpt>
      <trkpt lat="45.94131" lon="4.72271">
        <ele>171</ele>
        <time>2017-12-15T12:06:49Z</time>
      </trkpt>
      <trkpt lat="45.94127" lon="4.72268">
        <ele>171</ele>
        <time>2017-12-15T12:06:50Z</time>
      </trkpt>
      <trkpt lat="45.94123" lon="4.72267">
        <ele>171</ele>
        <time>2017-12-15T12:06:51Z</time>
      </trkpt>
      <trkpt lat="45.94118" lon="4.72265">
        <ele>171</ele>
        <time>2017-12-15T12:06:52Z</time>
      </trkpt>
      <trkpt lat="45.94112" lon="4.72264">
        <ele>171</ele>
        <time>2017-12-15T12:06:53Z</time>
      </trkpt>
      <trkpt lat="45.94108" lon="4.72263">
        <ele>171</ele>
        <time>2017-12-15T12:06:54Z</time>
      </trkpt>
      <trkpt lat="45.94103" lon="4.72263">
        <ele>171</ele>
        <time>2017-12-15T12:06:55Z</time>
      </trkpt>
      <trkpt lat="45.94097" lon="4.72264">
        <ele>171</ele>
        <time>2017-12-15T12:06:56Z</time>
      </trkpt>
      <trkpt lat="45.94091" lon="4.72266">
        <ele>171</ele>
        <time>2017-12-15T12:06:57Z</time>
      </trkpt>
      <trkpt lat="45.94085" lon="4.72268">
        <ele>171</ele>
        <time>2017-12-15T12:06:58Z</time>
      </trkpt>
      <trkpt lat="45.9408" lon="4.7227">
        <ele>171</ele>
        <time>2017-12-15T12:06:59Z</time>
      </trkpt>
      <trkpt lat="45.94074" lon="4.72274">
        <ele>171</ele>
        <time>2017-12-15T12:07:00Z</time>
      </trkpt>
      <trkpt lat="45.94069" lon="4.72279">
        <ele>171</ele>
        <time>2017-12-15T12:07:01Z</time>
      </trkpt>
      <trkpt lat="45.94063" lon="4.72285">
        <ele>171</ele>
        <time>2017-12-15T12:07:02Z</time>
      </trkpt>
      <trkpt lat="45.94059" lon="4.72291">
        <ele>171</ele>
        <time>2017-12-15T12:07:03Z</time>
      </trkpt>
      <trkpt lat="45.94054" lon="4.72297">
        <ele>171</ele>
        <time>2017-12-15T12:07:04Z</time>
      </trkpt>
      <trkpt lat="45.9405" lon="4.72302">
        <ele>171</ele>
        <time>2017-12-15T12:07:05Z</time>
      </trkpt>
      <trkpt lat="45.94045" lon="4.72309">
        <ele>171</ele>
        <time>2017-12-15T12:07:06Z</time>
      </trkpt>
      <trkpt lat="45.9404" lon="4.72316">
        <ele>171</ele>
        <time>2017-12-15T12:07:07Z</time>
      </trkpt>
      <trkpt lat="45.94036" lon="4.72323">
        <ele>171</ele>
        <time>2017-12-15T12:07:08Z</time>
      </trkpt>
      <trkpt lat="45.94031" lon="4.72328">
        <ele>171</ele>
        <time>2017-12-15T12:07:09Z</time>
      </trkpt>
      <trkpt lat="45.94027" lon="4.72334">
        <ele>171</ele>
        <time>2017-12-15T12:07:10Z</time>
      </trkpt>
      <trkpt lat="45.94022" lon="4.7234">
        <ele>171</ele>
        <time>2017-12-15T12:07:11Z</time>
      </trkpt>
      <trkpt lat="45.94018" lon="4.72346">
        <ele>171</ele>
        <time>2017-12-15T12:07:12Z</time>
      </trkpt>
      <trkpt lat="45.94013" lon="4.72351">
        <ele>171</ele>
        <time>2017-12-15T12:07:13Z</time>
      </trkpt>
      <trkpt lat="45.9401" lon="4.72356">
        <ele>171</ele>
        <time>2017-12-15T12:07:14Z</time>
      </trkpt>
      <trkpt lat="45.94006" lon="4.72363">
        <ele>171</ele>
        <time>2017-12-15T12:07:15Z</time>
      </trkpt>
      <trkpt lat="45.94002" lon="4.72368">
        <ele>171</ele>
        <time>2017-12-15T12:07:16Z</time>
      </trkpt>
      <trkpt lat="45.93998" lon="4.72374">
        <ele>171</ele>
        <time>2017-12-15T12:07:17Z</time>
      </trkpt>
      <trkpt lat="45.93995" lon="4.72379">
        <ele>171</ele>
        <time>2017-12-15T12:07:18Z</time>
      </trkpt>
      <trkpt lat="45.93991" lon="4.72383">
        <ele>171</ele>
        <time>2017-12-15T12:07:19Z</time>
      </trkpt>
      <trkpt lat="45.93987" lon="4.72388">
        <ele>171</ele>
        <time>2017-12-15T12:07:20Z</time>
      </trkpt>
      <trkpt lat="45.93983" lon="4.72394">
        <ele>171</ele>
        <time>2017-12-15T12:07:21Z</time>
      </trkpt>
      <trkpt lat="45.93978" lon="4.72399">
        <ele>171</ele>
        <time>2017-12-15T12:07:22Z</time>
      </trkpt>
      <trkpt lat="45.93973" lon="4.72403">
        <ele>171</ele>
        <time>2017-12-15T12:07:23Z</time>
      </trkpt>
      <trkpt lat="45.93969" lon="4.72407">
        <ele>171</ele>
        <time>2017-12-15T12:07:24Z</time>
      </trkpt>
      <trkpt lat="45.93964" lon="4.72411">
        <ele>171</ele>
        <time>2017-12-15T12:07:25Z</time>
      </trkpt>
      <trkpt lat="45.93959" lon="4.72415">
        <ele>171</ele>
        <time>2017-12-15T12:07:26Z</time>
      </trkpt>
      <trkpt lat="45.93955" lon="4.7242">
        <ele>171</ele>
        <time>2017-12-15T12:07:27Z</time>
      </trkpt>
      <trkpt lat="45.9395" lon="4.72426">
        <ele>171</ele>
        <time>2017-12-15T12:07:28Z</time>
      </trkpt>
      <trkpt lat="45.93945" lon="4.72431">
        <ele>171</ele>
        <time>2017-12-15T12:07:29Z</time>
      </trkpt>
      <trkpt lat="45.93941" lon="4.72435">
        <ele>171</ele>
        <time>2017-12-15T12:07:30Z</time>
      </trkpt>
      <trkpt lat="45.93937" lon="4.72439">
        <ele>171</ele>
        <time>2017-12-15T12:07:31Z</time>
      </trkpt>
      <trkpt lat="45.93933" lon="4.72446">
        <ele>171</ele>
        <time>2017-12-15T12:07:32Z</time>
      </trkpt>
      <trkpt lat="45.93929" lon="4.72451">
        <ele>171</ele>
        <time>2017-12-15T12:07:33Z</time>
      </trkpt>
      <trkpt lat="45.93924" lon="4.72457">
        <ele>171</ele>
        <time>2017-12-15T12:07:34Z</time>
      </trkpt>
      <trkpt lat="45.9392" lon="4.72462">
        <ele>171</ele>
        <time>2017-12-15T12:07:35Z</time>
      </trkpt>
      <trkpt lat="45.93915" lon="4.72468">
        <ele>172</ele>
        <time>2017-12-15T12:07:36Z</time>
      </trkpt>
      <trkpt lat="45.93911" lon="4.72474">
        <ele>172</ele>
        <time>2017-12-15T12:07:37Z</time>
      </trkpt>
      <trkpt lat="45.93907" lon="4.7248">
        <ele>172</ele>
        <time>2017-12-15T12:07:38Z</time>
      </trkpt>
      <trkpt lat="45.93902" lon="4.72485">
        <ele>172</ele>
        <time>2017-12-15T12:07:39Z</time>
      </trkpt>
      <trkpt lat="45.93898" lon="4.72489">
        <ele>172</ele>
        <time>2017-12-15T12:07:40Z</time>
      </trkpt>
      <trkpt lat="45.93894" lon="4.72493">
        <ele>172</ele>
        <time>2017-12-15T12:07:41Z</time>
      </trkpt>
      <trkpt lat="45.93891" lon="4.72498">
        <ele>172</ele>
        <time>2017-12-15T12:07:42Z</time>
      </trkpt>
      <trkpt lat="45.93883" lon="4.72505">
        <ele>173</ele>
        <time>2017-12-15T12:07:44Z</time>
      </trkpt>
      <trkpt lat="45.9388" lon="4.72508">
        <ele>173</ele>
        <time>2017-12-15T12:07:45Z</time>
      </trkpt>
      <trkpt lat="45.93871" lon="4.7251">
        <ele>173</ele>
        <time>2017-12-15T12:07:47Z</time>
      </trkpt>
      <trkpt lat="45.93867" lon="4.72508">
        <ele>173</ele>
        <time>2017-12-15T12:07:48Z</time>
      </trkpt>
      <trkpt lat="45.93859" lon="4.72504">
        <ele>173</ele>
        <time>2017-12-15T12:07:50Z</time>
      </trkpt>
      <trkpt lat="45.93855" lon="4.72501">
        <ele>173</ele>
        <time>2017-12-15T12:07:51Z</time>
      </trkpt>
      <trkpt lat="45.93847" lon="4.72503">
        <ele>174</ele>
        <time>2017-12-15T12:07:55Z</time>
      </trkpt>
      <trkpt lat="45.93846" lon="4.72503">
        <ele>174</ele>
        <time>2017-12-15T12:07:56Z</time>
      </trkpt>
      <trkpt lat="45.93845" lon="4.72502">
        <ele>174</ele>
        <time>2017-12-15T12:07:57Z</time>
      </trkpt>
      <trkpt lat="45.9383" lon="4.72476">
        <ele>173</ele>
        <time>2017-12-15T12:07:58Z</time>
      </trkpt>
      <trkpt lat="45.93825" lon="4.72472">
        <ele>172</ele>
        <time>2017-12-15T12:07:59Z</time>
      </trkpt>
      <trkpt lat="45.93821" lon="4.72468">
        <ele>172</ele>
        <time>2017-12-15T12:08:00Z</time>
      </trkpt>
      <trkpt lat="45.93815" lon="4.72465">
        <ele>172</ele>
        <time>2017-12-15T12:08:01Z</time>
      </trkpt>
      <trkpt lat="45.93809" lon="4.72462">
        <ele>172</ele>
        <time>2017-12-15T12:08:02Z</time>
      </trkpt>
      <trkpt lat="45.93805" lon="4.72453">
        <ele>172</ele>
        <time>2017-12-15T12:08:04Z</time>
      </trkpt>
      <trkpt lat="45.938" lon="4.72448">
        <ele>172</ele>
        <time>2017-12-15T12:08:05Z</time>
      </trkpt>
      <trkpt lat="45.93794" lon="4.72443">
        <ele>172</ele>
        <time>2017-12-15T12:08:06Z</time>
      </trkpt>
      <trkpt lat="45.9379" lon="4.7244">
        <ele>172</ele>
        <time>2017-12-15T12:08:07Z</time>
      </trkpt>
      <trkpt lat="45.93786" lon="4.72435">
        <ele>172</ele>
        <time>2017-12-15T12:08:08Z</time>
      </trkpt>
      <trkpt lat="45.93782" lon="4.72432">
        <ele>172</ele>
        <time>2017-12-15T12:08:09Z</time>
      </trkpt>
      <trkpt lat="45.93774" lon="4.72424">
        <ele>171</ele>
        <time>2017-12-15T12:08:11Z</time>
      </trkpt>
      <trkpt lat="45.93771" lon="4.7242">
        <ele>171</ele>
        <time>2017-12-15T12:08:12Z</time>
      </trkpt>
      <trkpt lat="45.93767" lon="4.72416">
        <ele>171</ele>
        <time>2017-12-15T12:08:13Z</time>
      </trkpt>
      <trkpt lat="45.93763" lon="4.72412">
        <ele>171</ele>
        <time>2017-12-15T12:08:14Z</time>
      </trkpt>
      <trkpt lat="45.93759" lon="4.72407">
        <ele>171</ele>
        <time>2017-12-15T12:08:15Z</time>
      </trkpt>
      <trkpt lat="45.93754" lon="4.72404">
        <ele>171</ele>
        <time>2017-12-15T12:08:16Z</time>
      </trkpt>
      <trkpt lat="45.93746" lon="4.72398">
        <ele>171</ele>
        <time>2017-12-15T12:08:17Z</time>
      </trkpt>
      <trkpt lat="45.93742" lon="4.72394">
        <ele>171</ele>
        <time>2017-12-15T12:08:18Z</time>
      </trkpt>
      <trkpt lat="45.93738" lon="4.72389">
        <ele>171</ele>
        <time>2017-12-15T12:08:19Z</time>
      </trkpt>
      <trkpt lat="45.93733" lon="4.72385">
        <ele>171</ele>
        <time>2017-12-15T12:08:20Z</time>
      </trkpt>
      <trkpt lat="45.93728" lon="4.7238">
        <ele>171</ele>
        <time>2017-12-15T12:08:21Z</time>
      </trkpt>
      <trkpt lat="45.93723" lon="4.72375">
        <ele>171</ele>
        <time>2017-12-15T12:08:22Z</time>
      </trkpt>
      <trkpt lat="45.93719" lon="4.72371">
        <ele>172</ele>
        <time>2017-12-15T12:08:23Z</time>
      </trkpt>
      <trkpt lat="45.93716" lon="4.72366">
        <ele>172</ele>
        <time>2017-12-15T12:08:24Z</time>
      </trkpt>
      <trkpt lat="45.93709" lon="4.72358">
        <ele>172</ele>
        <time>2017-12-15T12:08:26Z</time>
      </trkpt>
      <trkpt lat="45.93704" lon="4.72355">
        <ele>171</ele>
        <time>2017-12-15T12:08:27Z</time>
      </trkpt>
      <trkpt lat="45.93698" lon="4.72351">
        <ele>171</ele>
        <time>2017-12-15T12:08:29Z</time>
      </trkpt>
      <trkpt lat="45.93692" lon="4.7235">
        <ele>171</ele>
        <time>2017-12-15T12:08:30Z</time>
      </trkpt>
      <trkpt lat="45.93688" lon="4.72343">
        <ele>171</ele>
        <time>2017-12-15T12:08:32Z</time>
      </trkpt>
      <trkpt lat="45.93684" lon="4.72339">
        <ele>171</ele>
        <time>2017-12-15T12:08:33Z</time>
      </trkpt>
      <trkpt lat="45.9368" lon="4.72335">
        <ele>171</ele>
        <time>2017-12-15T12:08:34Z</time>
      </trkpt>
      <trkpt lat="45.93675" lon="4.72329">
        <ele>171</ele>
        <time>2017-12-15T12:08:35Z</time>
      </trkpt>
      <trkpt lat="45.93672" lon="4.72324">
        <ele>171</ele>
        <time>2017-12-15T12:08:36Z</time>
      </trkpt>
      <trkpt lat="45.93668" lon="4.72321">
        <ele>171</ele>
        <time>2017-12-15T12:08:37Z</time>
      </trkpt>
      <trkpt lat="45.93663" lon="4.72317">
        <ele>172</ele>
        <time>2017-12-15T12:08:38Z</time>
      </trkpt>
      <trkpt lat="45.93659" lon="4.72313">
        <ele>172</ele>
        <time>2017-12-15T12:08:39Z</time>
      </trkpt>
      <trkpt lat="45.93654" lon="4.72308">
        <ele>172</ele>
        <time>2017-12-15T12:08:40Z</time>
      </trkpt>
      <trkpt lat="45.9365" lon="4.72304">
        <ele>172</ele>
        <time>2017-12-15T12:08:41Z</time>
      </trkpt>
      <trkpt lat="45.93645" lon="4.723">
        <ele>172</ele>
        <time>2017-12-15T12:08:42Z</time>
      </trkpt>
      <trkpt lat="45.93642" lon="4.72295">
        <ele>172</ele>
        <time>2017-12-15T12:08:43Z</time>
      </trkpt>
      <trkpt lat="45.93638" lon="4.72289">
        <ele>172</ele>
        <time>2017-12-15T12:08:44Z</time>
      </trkpt>
      <trkpt lat="45.93635" lon="4.72284">
        <ele>172</ele>
        <time>2017-12-15T12:08:45Z</time>
      </trkpt>
      <trkpt lat="45.9363" lon="4.72279">
        <ele>172</ele>
        <time>2017-12-15T12:08:46Z</time>
      </trkpt>
      <trkpt lat="45.93626" lon="4.72275">
        <ele>172</ele>
        <time>2017-12-15T12:08:47Z</time>
      </trkpt>
      <trkpt lat="45.9362" lon="4.72268">
        <ele>172</ele>
        <time>2017-12-15T12:08:49Z</time>
      </trkpt>
      <trkpt lat="45.93616" lon="4.72265">
        <ele>172</ele>
        <time>2017-12-15T12:08:50Z</time>
      </trkpt>
      <trkpt lat="45.93609" lon="4.7226">
        <ele>173</ele>
        <time>2017-12-15T12:08:52Z</time>
      </trkpt>
      <trkpt lat="45.93606" lon="4.72257">
        <ele>173</ele>
        <time>2017-12-15T12:08:53Z</time>
      </trkpt>
      <trkpt lat="45.93601" lon="4.72252">
        <ele>173</ele>
        <time>2017-12-15T12:08:55Z</time>
      </trkpt>
      <trkpt lat="45.93598" lon="4.72249">
        <ele>173</ele>
        <time>2017-12-15T12:08:56Z</time>
      </trkpt>
      <trkpt lat="45.9359" lon="4.72245">
        <ele>173</ele>
        <time>2017-12-15T12:08:58Z</time>
      </trkpt>
      <trkpt lat="45.93588" lon="4.72242">
        <ele>173</ele>
        <time>2017-12-15T12:08:59Z</time>
      </trkpt>
      <trkpt lat="45.9358" lon="4.72235">
        <ele>173</ele>
        <time>2017-12-15T12:09:02Z</time>
      </trkpt>
      <trkpt lat="45.93578" lon="4.72232">
        <ele>173</ele>
        <time>2017-12-15T12:09:03Z</time>
      </trkpt>
      <trkpt lat="45.93571" lon="4.72226">
        <ele>173</ele>
        <time>2017-12-15T12:09:05Z</time>
      </trkpt>
      <trkpt lat="45.93567" lon="4.72224">
        <ele>173</ele>
        <time>2017-12-15T12:09:06Z</time>
      </trkpt>
      <trkpt lat="45.93558" lon="4.72224">
        <ele>173</ele>
        <time>2017-12-15T12:09:08Z</time>
      </trkpt>
      <trkpt lat="45.93554" lon="4.72227">
        <ele>173</ele>
        <time>2017-12-15T12:09:09Z</time>
      </trkpt>
      <trkpt lat="45.93551" lon="4.72231">
        <ele>172</ele>
        <time>2017-12-15T12:09:10Z</time>
      </trkpt>
      <trkpt lat="45.93548" lon="4.72236">
        <ele>172</ele>
        <time>2017-12-15T12:09:11Z</time>
      </trkpt>
      <trkpt lat="45.93546" lon="4.72242">
        <ele>172</ele>
        <time>2017-12-15T12:09:12Z</time>
      </trkpt>
      <trkpt lat="45.93543" lon="4.72248">
        <ele>172</ele>
        <time>2017-12-15T12:09:13Z</time>
      </trkpt>
      <trkpt lat="45.93541" lon="4.72253">
        <ele>172</ele>
        <time>2017-12-15T12:09:14Z</time>
      </trkpt>
      <trkpt lat="45.93538" lon="4.7226">
        <ele>172</ele>
        <time>2017-12-15T12:09:15Z</time>
      </trkpt>
      <trkpt lat="45.93536" lon="4.72265">
        <ele>172</ele>
        <time>2017-12-15T12:09:16Z</time>
      </trkpt>
      <trkpt lat="45.93533" lon="4.72271">
        <ele>172</ele>
        <time>2017-12-15T12:09:17Z</time>
      </trkpt>
      <trkpt lat="45.9353" lon="4.72278">
        <ele>172</ele>
        <time>2017-12-15T12:09:18Z</time>
      </trkpt>
      <trkpt lat="45.93526" lon="4.72284">
        <ele>172</ele>
        <time>2017-12-15T12:09:19Z</time>
      </trkpt>
      <trkpt lat="45.93523" lon="4.72291">
        <ele>172</ele>
        <time>2017-12-15T12:09:20Z</time>
      </trkpt>
      <trkpt lat="45.9352" lon="4.72297">
        <ele>172</ele>
        <time>2017-12-15T12:09:21Z</time>
      </trkpt>
      <trkpt lat="45.93516" lon="4.72302">
        <ele>172</ele>
        <time>2017-12-15T12:09:22Z</time>
      </trkpt>
      <trkpt lat="45.93512" lon="4.72307">
        <ele>173</ele>
        <time>2017-12-15T12:09:23Z</time>
      </trkpt>
      <trkpt lat="45.93507" lon="4.72313">
        <ele>173</ele>
        <time>2017-12-15T12:09:24Z</time>
      </trkpt>
      <trkpt lat="45.93502" lon="4.72319">
        <ele>173</ele>
        <time>2017-12-15T12:09:25Z</time>
      </trkpt>
      <trkpt lat="45.93498" lon="4.72325">
        <ele>173</ele>
        <time>2017-12-15T12:09:26Z</time>
      </trkpt>
      <trkpt lat="45.93494" lon="4.72331">
        <ele>173</ele>
        <time>2017-12-15T12:09:27Z</time>
      </trkpt>
      <trkpt lat="45.93489" lon="4.72337">
        <ele>173</ele>
        <time>2017-12-15T12:09:28Z</time>
      </trkpt>
      <trkpt lat="45.93485" lon="4.72342">
        <ele>173</ele>
        <time>2017-12-15T12:09:29Z</time>
      </trkpt>
      <trkpt lat="45.93481" lon="4.72347">
        <ele>173</ele>
        <time>2017-12-15T12:09:30Z</time>
      </trkpt>
      <trkpt lat="45.93476" lon="4.72353">
        <ele>173</ele>
        <time>2017-12-15T12:09:31Z</time>
      </trkpt>
      <trkpt lat="45.93473" lon="4.72358">
        <ele>173</ele>
        <time>2017-12-15T12:09:32Z</time>
      </trkpt>
      <trkpt lat="45.93468" lon="4.72362">
        <ele>173</ele>
        <time>2017-12-15T12:09:33Z</time>
      </trkpt>
      <trkpt lat="45.93462" lon="4.7237">
        <ele>173</ele>
        <time>2017-12-15T12:09:35Z</time>
      </trkpt>
      <trkpt lat="45.93459" lon="4.72375">
        <ele>173</ele>
        <time>2017-12-15T12:09:36Z</time>
      </trkpt>
      <trkpt lat="45.93457" lon="4.72381">
        <ele>173</ele>
        <time>2017-12-15T12:09:37Z</time>
      </trkpt>
      <trkpt lat="45.93451" lon="4.72384">
        <ele>173</ele>
        <time>2017-12-15T12:09:38Z</time>
      </trkpt>
      <trkpt lat="45.93445" lon="4.72389">
        <ele>173</ele>
        <time>2017-12-15T12:09:39Z</time>
      </trkpt>
      <trkpt lat="45.93439" lon="4.72394">
        <ele>173</ele>
        <time>2017-12-15T12:09:40Z</time>
      </trkpt>
      <trkpt lat="45.93434" lon="4.72396">
        <ele>173</ele>
        <time>2017-12-15T12:09:41Z</time>
      </trkpt>
      <trkpt lat="45.93427" lon="4.72397">
        <ele>174</ele>
        <time>2017-12-15T12:09:42Z</time>
      </trkpt>
      <trkpt lat="45.93421" lon="4.72399">
        <ele>174</ele>
        <time>2017-12-15T12:09:43Z</time>
      </trkpt>
      <trkpt lat="45.93415" lon="4.72401">
        <ele>174</ele>
        <time>2017-12-15T12:09:44Z</time>
      </trkpt>
      <trkpt lat="45.93407" lon="4.72406">
        <ele>174</ele>
        <time>2017-12-15T12:09:46Z</time>
      </trkpt>
      <trkpt lat="45.93401" lon="4.72407">
        <ele>174</ele>
        <time>2017-12-15T12:09:47Z</time>
      </trkpt>
      <trkpt lat="45.93395" lon="4.72407">
        <ele>174</ele>
        <time>2017-12-15T12:09:48Z</time>
      </trkpt>
      <trkpt lat="45.9339" lon="4.7241">
        <ele>174</ele>
        <time>2017-12-15T12:09:49Z</time>
      </trkpt>
      <trkpt lat="45.93386" lon="4.72414">
        <ele>174</ele>
        <time>2017-12-15T12:09:50Z</time>
      </trkpt>
      <trkpt lat="45.93383" lon="4.72422">
        <ele>173</ele>
        <time>2017-12-15T12:09:51Z</time>
      </trkpt>
      <trkpt lat="45.93384" lon="4.72428">
        <ele>173</ele>
        <time>2017-12-15T12:09:52Z</time>
      </trkpt>
      <trkpt lat="45.93386" lon="4.72435">
        <ele>173</ele>
        <time>2017-12-15T12:09:53Z</time>
      </trkpt>
      <trkpt lat="45.93388" lon="4.72442">
        <ele>173</ele>
        <time>2017-12-15T12:09:54Z</time>
      </trkpt>
      <trkpt lat="45.93391" lon="4.72449">
        <ele>173</ele>
        <time>2017-12-15T12:09:55Z</time>
      </trkpt>
      <trkpt lat="45.93391" lon="4.72456">
        <ele>173</ele>
        <time>2017-12-15T12:09:56Z</time>
      </trkpt>
      <trkpt lat="45.93389" lon="4.72464">
        <ele>173</ele>
        <time>2017-12-15T12:09:57Z</time>
      </trkpt>
      <trkpt lat="45.93385" lon="4.72471">
        <ele>173</ele>
        <time>2017-12-15T12:09:58Z</time>
      </trkpt>
      <trkpt lat="45.93381" lon="4.72474">
        <ele>173</ele>
        <time>2017-12-15T12:09:59Z</time>
      </trkpt>
      <trkpt lat="45.93377" lon="4.72478">
        <ele>173</ele>
        <time>2017-12-15T12:10:00Z</time>
      </trkpt>
      <trkpt lat="45.93372" lon="4.72483">
        <ele>173</ele>
        <time>2017-12-15T12:10:01Z</time>
      </trkpt>
      <trkpt lat="45.93368" lon="4.72487">
        <ele>173</ele>
        <time>2017-12-15T12:10:02Z</time>
      </trkpt>
      <trkpt lat="45.93364" lon="4.72491">
        <ele>173</ele>
        <time>2017-12-15T12:10:03Z</time>
      </trkpt>
      <trkpt lat="45.93365" lon="4.72496">
        <ele>173</ele>
        <time>2017-12-15T12:10:04Z</time>
      </trkpt>
      <trkpt lat="45.93357" lon="4.725">
        <ele>173</ele>
        <time>2017-12-15T12:10:05Z</time>
      </trkpt>
      <trkpt lat="45.93352" lon="4.72506">
        <ele>172</ele>
        <time>2017-12-15T12:10:06Z</time>
      </trkpt>
      <trkpt lat="45.93347" lon="4.72513">
        <ele>172</ele>
        <time>2017-12-15T12:10:07Z</time>
      </trkpt>
      <trkpt lat="45.93341" lon="4.72517">
        <ele>172</ele>
        <time>2017-12-15T12:10:08Z</time>
      </trkpt>
      <trkpt lat="45.93336" lon="4.72523">
        <ele>172</ele>
        <time>2017-12-15T12:10:09Z</time>
      </trkpt>
      <trkpt lat="45.93331" lon="4.72529">
        <ele>172</ele>
        <time>2017-12-15T12:10:10Z</time>
      </trkpt>
      <trkpt lat="45.93327" lon="4.72534">
        <ele>172</ele>
        <time>2017-12-15T12:10:11Z</time>
      </trkpt>
      <trkpt lat="45.93322" lon="4.72539">
        <ele>172</ele>
        <time>2017-12-15T12:10:12Z</time>
      </trkpt>
      <trkpt lat="45.93318" lon="4.72544">
        <ele>172</ele>
        <time>2017-12-15T12:10:13Z</time>
      </trkpt>
      <trkpt lat="45.93314" lon="4.7255">
        <ele>172</ele>
        <time>2017-12-15T12:10:14Z</time>
      </trkpt>
      <trkpt lat="45.9331" lon="4.72555">
        <ele>172</ele>
        <time>2017-12-15T12:10:15Z</time>
      </trkpt>
      <trkpt lat="45.93306" lon="4.7256">
        <ele>172</ele>
        <time>2017-12-15T12:10:16Z</time>
      </trkpt>
      <trkpt lat="45.93303" lon="4.72566">
        <ele>171</ele>
        <time>2017-12-15T12:10:17Z</time>
      </trkpt>
      <trkpt lat="45.93299" lon="4.7257">
        <ele>171</ele>
        <time>2017-12-15T12:10:18Z</time>
      </trkpt>
      <trkpt lat="45.93295" lon="4.72576">
        <ele>171</ele>
        <time>2017-12-15T12:10:19Z</time>
      </trkpt>
      <trkpt lat="45.93291" lon="4.72581">
        <ele>171</ele>
        <time>2017-12-15T12:10:20Z</time>
      </trkpt>
      <trkpt lat="45.93287" lon="4.72587">
        <ele>170</ele>
        <time>2017-12-15T12:10:21Z</time>
      </trkpt>
      <trkpt lat="45.93282" lon="4.72592">
        <ele>170</ele>
        <time>2017-12-15T12:10:22Z</time>
      </trkpt>
      <trkpt lat="45.93278" lon="4.72597">
        <ele>170</ele>
        <time>2017-12-15T12:10:23Z</time>
      </trkpt>
      <trkpt lat="45.93274" lon="4.72601">
        <ele>170</ele>
        <time>2017-12-15T12:10:24Z</time>
      </trkpt>
      <trkpt lat="45.9327" lon="4.72605">
        <ele>170</ele>
        <time>2017-12-15T12:10:25Z</time>
      </trkpt>
      <trkpt lat="45.93264" lon="4.7261">
        <ele>170</ele>
        <time>2017-12-15T12:10:26Z</time>
      </trkpt>
      <trkpt lat="45.93259" lon="4.72616">
        <ele>170</ele>
        <time>2017-12-15T12:10:27Z</time>
      </trkpt>
      <trkpt lat="45.93255" lon="4.72621">
        <ele>170</ele>
        <time>2017-12-15T12:10:28Z</time>
      </trkpt>
      <trkpt lat="45.93251" lon="4.72626">
        <ele>170</ele>
        <time>2017-12-15T12:10:29Z</time>
      </trkpt>
      <trkpt lat="45.93244" lon="4.72631">
        <ele>170</ele>
        <time>2017-12-15T12:10:31Z</time>
      </trkpt>
      <trkpt lat="45.93239" lon="4.72637">
        <ele>170</ele>
        <time>2017-12-15T12:10:32Z</time>
      </trkpt>
      <trkpt lat="45.93235" lon="4.72641">
        <ele>170</ele>
        <time>2017-12-15T12:10:33Z</time>
      </trkpt>
      <trkpt lat="45.93231" lon="4.72644">
        <ele>170</ele>
        <time>2017-12-15T12:10:34Z</time>
      </trkpt>
      <trkpt lat="45.93228" lon="4.72648">
        <ele>170</ele>
        <time>2017-12-15T12:10:35Z</time>
      </trkpt>
      <trkpt lat="45.93224" lon="4.72654">
        <ele>170</ele>
        <time>2017-12-15T12:10:36Z</time>
      </trkpt>
      <trkpt lat="45.93221" lon="4.72659">
        <ele>170</ele>
        <time>2017-12-15T12:10:37Z</time>
      </trkpt>
      <trkpt lat="45.93215" lon="4.72664">
        <ele>170</ele>
        <time>2017-12-15T12:10:38Z</time>
      </trkpt>
      <trkpt lat="45.9321" lon="4.72669">
        <ele>169</ele>
        <time>2017-12-15T12:10:39Z</time>
      </trkpt>
      <trkpt lat="45.93205" lon="4.72674">
        <ele>169</ele>
        <time>2017-12-15T12:10:40Z</time>
      </trkpt>
      <trkpt lat="45.93201" lon="4.7268">
        <ele>169</ele>
        <time>2017-12-15T12:10:41Z</time>
      </trkpt>
      <trkpt lat="45.93196" lon="4.72686">
        <ele>169</ele>
        <time>2017-12-15T12:10:42Z</time>
      </trkpt>
      <trkpt lat="45.93192" lon="4.72692">
        <ele>169</ele>
        <time>2017-12-15T12:10:43Z</time>
      </trkpt>
      <trkpt lat="45.93188" lon="4.727">
        <ele>169</ele>
        <time>2017-12-15T12:10:44Z</time>
      </trkpt>
      <trkpt lat="45.93183" lon="4.72705">
        <ele>169</ele>
        <time>2017-12-15T12:10:45Z</time>
      </trkpt>
      <trkpt lat="45.93178" lon="4.72711">
        <ele>169</ele>
        <time>2017-12-15T12:10:46Z</time>
      </trkpt>
      <trkpt lat="45.93174" lon="4.72716">
        <ele>170</ele>
        <time>2017-12-15T12:10:47Z</time>
      </trkpt>
      <trkpt lat="45.93168" lon="4.72722">
        <ele>170</ele>
        <time>2017-12-15T12:10:48Z</time>
      </trkpt>
      <trkpt lat="45.93163" lon="4.72728">
        <ele>170</ele>
        <time>2017-12-15T12:10:49Z</time>
      </trkpt>
      <trkpt lat="45.93158" lon="4.72733">
        <ele>170</ele>
        <time>2017-12-15T12:10:50Z</time>
      </trkpt>
      <trkpt lat="45.93154" lon="4.72738">
        <ele>170</ele>
        <time>2017-12-15T12:10:51Z</time>
      </trkpt>
      <trkpt lat="45.93149" lon="4.72742">
        <ele>170</ele>
        <time>2017-12-15T12:10:52Z</time>
      </trkpt>
      <trkpt lat="45.93146" lon="4.72748">
        <ele>170</ele>
        <time>2017-12-15T12:10:53Z</time>
      </trkpt>
      <trkpt lat="45.93142" lon="4.72753">
        <ele>171</ele>
        <time>2017-12-15T12:10:54Z</time>
      </trkpt>
      <trkpt lat="45.93138" lon="4.72758">
        <ele>171</ele>
        <time>2017-12-15T12:10:55Z</time>
      </trkpt>
      <trkpt lat="45.93135" lon="4.72762">
        <ele>171</ele>
        <time>2017-12-15T12:10:56Z</time>
      </trkpt>
      <trkpt lat="45.9313" lon="4.72767">
        <ele>171</ele>
        <time>2017-12-15T12:10:57Z</time>
      </trkpt>
      <trkpt lat="45.93126" lon="4.72772">
        <ele>171</ele>
        <time>2017-12-15T12:10:58Z</time>
      </trkpt>
      <trkpt lat="45.93122" lon="4.72776">
        <ele>171</ele>
        <time>2017-12-15T12:10:59Z</time>
      </trkpt>
      <trkpt lat="45.93117" lon="4.72782">
        <ele>171</ele>
        <time>2017-12-15T12:11:00Z</time>
      </trkpt>
      <trkpt lat="45.93114" lon="4.72787">
        <ele>171</ele>
        <time>2017-12-15T12:11:01Z</time>
      </trkpt>
      <trkpt lat="45.93109" lon="4.72793">
        <ele>171</ele>
        <time>2017-12-15T12:11:02Z</time>
      </trkpt>
      <trkpt lat="45.93104" lon="4.72798">
        <ele>171</ele>
        <time>2017-12-15T12:11:03Z</time>
      </trkpt>
      <trkpt lat="45.931" lon="4.72804">
        <ele>171</ele>
        <time>2017-12-15T12:11:04Z</time>
      </trkpt>
      <trkpt lat="45.93095" lon="4.7281">
        <ele>172</ele>
        <time>2017-12-15T12:11:05Z</time>
      </trkpt>
      <trkpt lat="45.9309" lon="4.72815">
        <ele>172</ele>
        <time>2017-12-15T12:11:06Z</time>
      </trkpt>
      <trkpt lat="45.93085" lon="4.72821">
        <ele>172</ele>
        <time>2017-12-15T12:11:07Z</time>
      </trkpt>
      <trkpt lat="45.93081" lon="4.72826">
        <ele>173</ele>
        <time>2017-12-15T12:11:08Z</time>
      </trkpt>
      <trkpt lat="45.93076" lon="4.72829">
        <ele>173</ele>
        <time>2017-12-15T12:11:09Z</time>
      </trkpt>
      <trkpt lat="45.93067" lon="4.72844">
        <ele>172</ele>
        <time>2017-12-15T12:11:12Z</time>
      </trkpt>
      <trkpt lat="45.93059" lon="4.72852">
        <ele>172</ele>
        <time>2017-12-15T12:11:13Z</time>
      </trkpt>
      <trkpt lat="45.93055" lon="4.72858">
        <ele>172</ele>
        <time>2017-12-15T12:11:14Z</time>
      </trkpt>
      <trkpt lat="45.9305" lon="4.72862">
        <ele>172</ele>
        <time>2017-12-15T12:11:15Z</time>
      </trkpt>
      <trkpt lat="45.93045" lon="4.72867">
        <ele>172</ele>
        <time>2017-12-15T12:11:16Z</time>
      </trkpt>
      <trkpt lat="45.93041" lon="4.72872">
        <ele>172</ele>
        <time>2017-12-15T12:11:17Z</time>
      </trkpt>
      <trkpt lat="45.93036" lon="4.72878">
        <ele>172</ele>
        <time>2017-12-15T12:11:18Z</time>
      </trkpt>
      <trkpt lat="45.93032" lon="4.72882">
        <ele>172</ele>
        <time>2017-12-15T12:11:19Z</time>
      </trkpt>
      <trkpt lat="45.93028" lon="4.72885">
        <ele>172</ele>
        <time>2017-12-15T12:11:20Z</time>
      </trkpt>
      <trkpt lat="45.93024" lon="4.7289">
        <ele>172</ele>
        <time>2017-12-15T12:11:21Z</time>
      </trkpt>
      <trkpt lat="45.93021" lon="4.72893">
        <ele>172</ele>
        <time>2017-12-15T12:11:22Z</time>
      </trkpt>
      <trkpt lat="45.93017" lon="4.72898">
        <ele>172</ele>
        <time>2017-12-15T12:11:23Z</time>
      </trkpt>
      <trkpt lat="45.93013" lon="4.72903">
        <ele>172</ele>
        <time>2017-12-15T12:11:24Z</time>
      </trkpt>
      <trkpt lat="45.93009" lon="4.72908">
        <ele>171</ele>
        <time>2017-12-15T12:11:25Z</time>
      </trkpt>
      <trkpt lat="45.93006" lon="4.72913">
        <ele>171</ele>
        <time>2017-12-15T12:11:26Z</time>
      </trkpt>
      <trkpt lat="45.93002" lon="4.72917">
        <ele>171</ele>
        <time>2017-12-15T12:11:27Z</time>
      </trkpt>
      <trkpt lat="45.92998" lon="4.72922">
        <ele>171</ele>
        <time>2017-12-15T12:11:28Z</time>
      </trkpt>
      <trkpt lat="45.92994" lon="4.72927">
        <ele>171</ele>
        <time>2017-12-15T12:11:29Z</time>
      </trkpt>
      <trkpt lat="45.92989" lon="4.72933">
        <ele>171</ele>
        <time>2017-12-15T12:11:30Z</time>
      </trkpt>
      <trkpt lat="45.92984" lon="4.72937">
        <ele>171</ele>
        <time>2017-12-15T12:11:31Z</time>
      </trkpt>
      <trkpt lat="45.9298" lon="4.72943">
        <ele>171</ele>
        <time>2017-12-15T12:11:32Z</time>
      </trkpt>
      <trkpt lat="45.92975" lon="4.72948">
        <ele>171</ele>
        <time>2017-12-15T12:11:33Z</time>
      </trkpt>
      <trkpt lat="45.92971" lon="4.72953">
        <ele>171</ele>
        <time>2017-12-15T12:11:34Z</time>
      </trkpt>
      <trkpt lat="45.92966" lon="4.72958">
        <ele>171</ele>
        <time>2017-12-15T12:11:35Z</time>
      </trkpt>
      <trkpt lat="45.92962" lon="4.72962">
        <ele>171</ele>
        <time>2017-12-15T12:11:36Z</time>
      </trkpt>
      <trkpt lat="45.92957" lon="4.72967">
        <ele>171</ele>
        <time>2017-12-15T12:11:37Z</time>
      </trkpt>
      <trkpt lat="45.92954" lon="4.72973">
        <ele>171</ele>
        <time>2017-12-15T12:11:38Z</time>
      </trkpt>
      <trkpt lat="45.92949" lon="4.72977">
        <ele>171</ele>
        <time>2017-12-15T12:11:39Z</time>
      </trkpt>
      <trkpt lat="45.92945" lon="4.72982">
        <ele>171</ele>
        <time>2017-12-15T12:11:40Z</time>
      </trkpt>
      <trkpt lat="45.92942" lon="4.72989">
        <ele>171</ele>
        <time>2017-12-15T12:11:41Z</time>
      </trkpt>
      <trkpt lat="45.92937" lon="4.72994">
        <ele>171</ele>
        <time>2017-12-15T12:11:42Z</time>
      </trkpt>
      <trkpt lat="45.92933" lon="4.72999">
        <ele>172</ele>
        <time>2017-12-15T12:11:43Z</time>
      </trkpt>
      <trkpt lat="45.9293" lon="4.73005">
        <ele>172</ele>
        <time>2017-12-15T12:11:44Z</time>
      </trkpt>
      <trkpt lat="45.92925" lon="4.73009">
        <ele>172</ele>
        <time>2017-12-15T12:11:45Z</time>
      </trkpt>
      <trkpt lat="45.92921" lon="4.73014">
        <ele>172</ele>
        <time>2017-12-15T12:11:46Z</time>
      </trkpt>
      <trkpt lat="45.92917" lon="4.73019">
        <ele>172</ele>
        <time>2017-12-15T12:11:47Z</time>
      </trkpt>
      <trkpt lat="45.92913" lon="4.73024">
        <ele>172</ele>
        <time>2017-12-15T12:11:48Z</time>
      </trkpt>
      <trkpt lat="45.92909" lon="4.73029">
        <ele>172</ele>
        <time>2017-12-15T12:11:49Z</time>
      </trkpt>
      <trkpt lat="45.92904" lon="4.73036">
        <ele>172</ele>
        <time>2017-12-15T12:11:50Z</time>
      </trkpt>
      <trkpt lat="45.92901" lon="4.7304">
        <ele>172</ele>
        <time>2017-12-15T12:11:51Z</time>
      </trkpt>
      <trkpt lat="45.92897" lon="4.73046">
        <ele>172</ele>
        <time>2017-12-15T12:11:52Z</time>
      </trkpt>
      <trkpt lat="45.92894" lon="4.73051">
        <ele>172</ele>
        <time>2017-12-15T12:11:53Z</time>
      </trkpt>
      <trkpt lat="45.92891" lon="4.73056">
        <ele>172</ele>
        <time>2017-12-15T12:11:54Z</time>
      </trkpt>
      <trkpt lat="45.92888" lon="4.73062">
        <ele>172</ele>
        <time>2017-12-15T12:11:55Z</time>
      </trkpt>
      <trkpt lat="45.92882" lon="4.73071">
        <ele>172</ele>
        <time>2017-12-15T12:11:57Z</time>
      </trkpt>
      <trkpt lat="45.92879" lon="4.73078">
        <ele>172</ele>
        <time>2017-12-15T12:11:58Z</time>
      </trkpt>
      <trkpt lat="45.92875" lon="4.73082">
        <ele>172</ele>
        <time>2017-12-15T12:11:59Z</time>
      </trkpt>
      <trkpt lat="45.92872" lon="4.73087">
        <ele>172</ele>
        <time>2017-12-15T12:12:00Z</time>
      </trkpt>
      <trkpt lat="45.92869" lon="4.73092">
        <ele>172</ele>
        <time>2017-12-15T12:12:01Z</time>
      </trkpt>
      <trkpt lat="45.92865" lon="4.73096">
        <ele>172</ele>
        <time>2017-12-15T12:12:02Z</time>
      </trkpt>
      <trkpt lat="45.92861" lon="4.73101">
        <ele>171</ele>
        <time>2017-12-15T12:12:03Z</time>
      </trkpt>
      <trkpt lat="45.92857" lon="4.73103">
        <ele>171</ele>
        <time>2017-12-15T12:12:04Z</time>
      </trkpt>
      <trkpt lat="45.92849" lon="4.73099">
        <ele>171</ele>
        <time>2017-12-15T12:12:06Z</time>
      </trkpt>
      <trkpt lat="45.92847" lon="4.73094">
        <ele>171</ele>
        <time>2017-12-15T12:12:07Z</time>
      </trkpt>
      <trkpt lat="45.92846" lon="4.73086">
        <ele>171</ele>
        <time>2017-12-15T12:12:08Z</time>
      </trkpt>
      <trkpt lat="45.92846" lon="4.73079">
        <ele>171</ele>
        <time>2017-12-15T12:12:09Z</time>
      </trkpt>
      <trkpt lat="45.92847" lon="4.73072">
        <ele>171</ele>
        <time>2017-12-15T12:12:10Z</time>
      </trkpt>
      <trkpt lat="45.92846" lon="4.73064">
        <ele>171</ele>
        <time>2017-12-15T12:12:11Z</time>
      </trkpt>
      <trkpt lat="45.92845" lon="4.73056">
        <ele>171</ele>
        <time>2017-12-15T12:12:12Z</time>
      </trkpt>
      <trkpt lat="45.92842" lon="4.73047">
        <ele>171</ele>
        <time>2017-12-15T12:12:13Z</time>
      </trkpt>
      <trkpt lat="45.92841" lon="4.7304">
        <ele>171</ele>
        <time>2017-12-15T12:12:14Z</time>
      </trkpt>
      <trkpt lat="45.9284" lon="4.73033">
        <ele>171</ele>
        <time>2017-12-15T12:12:15Z</time>
      </trkpt>
      <trkpt lat="45.92838" lon="4.73025">
        <ele>171</ele>
        <time>2017-12-15T12:12:16Z</time>
      </trkpt>
      <trkpt lat="45.92837" lon="4.73017">
        <ele>171</ele>
        <time>2017-12-15T12:12:17Z</time>
      </trkpt>
      <trkpt lat="45.92836" lon="4.7301">
        <ele>170</ele>
        <time>2017-12-15T12:12:18Z</time>
      </trkpt>
      <trkpt lat="45.92835" lon="4.73003">
        <ele>170</ele>
        <time>2017-12-15T12:12:19Z</time>
      </trkpt>
      <trkpt lat="45.92834" lon="4.72996">
        <ele>170</ele>
        <time>2017-12-15T12:12:20Z</time>
      </trkpt>
      <trkpt lat="45.92833" lon="4.72988">
        <ele>170</ele>
        <time>2017-12-15T12:12:21Z</time>
      </trkpt>
      <trkpt lat="45.92832" lon="4.72981">
        <ele>170</ele>
        <time>2017-12-15T12:12:22Z</time>
      </trkpt>
      <trkpt lat="45.92831" lon="4.72974">
        <ele>170</ele>
        <time>2017-12-15T12:12:23Z</time>
      </trkpt>
      <trkpt lat="45.9283" lon="4.72961">
        <ele>170</ele>
        <time>2017-12-15T12:12:25Z</time>
      </trkpt>
      <trkpt lat="45.9283" lon="4.72954">
        <ele>170</ele>
        <time>2017-12-15T12:12:26Z</time>
      </trkpt>
      <trkpt lat="45.92829" lon="4.72948">
        <ele>170</ele>
        <time>2017-12-15T12:12:27Z</time>
      </trkpt>
      <trkpt lat="45.92828" lon="4.72941">
        <ele>170</ele>
        <time>2017-12-15T12:12:28Z</time>
      </trkpt>
      <trkpt lat="45.92828" lon="4.72934">
        <ele>170</ele>
        <time>2017-12-15T12:12:29Z</time>
      </trkpt>
      <trkpt lat="45.92827" lon="4.72927">
        <ele>170</ele>
        <time>2017-12-15T12:12:30Z</time>
      </trkpt>
      <trkpt lat="45.92826" lon="4.72919">
        <ele>170</ele>
        <time>2017-12-15T12:12:31Z</time>
      </trkpt>
      <trkpt lat="45.92825" lon="4.72912">
        <ele>170</ele>
        <time>2017-12-15T12:12:32Z</time>
      </trkpt>
      <trkpt lat="45.92824" lon="4.72905">
        <ele>170</ele>
        <time>2017-12-15T12:12:33Z</time>
      </trkpt>
      <trkpt lat="45.92824" lon="4.72899">
        <ele>170</ele>
        <time>2017-12-15T12:12:34Z</time>
      </trkpt>
      <trkpt lat="45.92822" lon="4.72892">
        <ele>170</ele>
        <time>2017-12-15T12:12:35Z</time>
      </trkpt>
      <trkpt lat="45.92822" lon="4.72885">
        <ele>170</ele>
        <time>2017-12-15T12:12:36Z</time>
      </trkpt>
      <trkpt lat="45.9282" lon="4.72879">
        <ele>170</ele>
        <time>2017-12-15T12:12:37Z</time>
      </trkpt>
      <trkpt lat="45.92818" lon="4.72871">
        <ele>170</ele>
        <time>2017-12-15T12:12:38Z</time>
      </trkpt>
      <trkpt lat="45.92816" lon="4.72864">
        <ele>170</ele>
        <time>2017-12-15T12:12:39Z</time>
      </trkpt>
      <trkpt lat="45.92813" lon="4.72856">
        <ele>170</ele>
        <time>2017-12-15T12:12:40Z</time>
      </trkpt>
      <trkpt lat="45.92812" lon="4.72848">
        <ele>170</ele>
        <time>2017-12-15T12:12:41Z</time>
      </trkpt>
      <trkpt lat="45.92811" lon="4.7284">
        <ele>170</ele>
        <time>2017-12-15T12:12:42Z</time>
      </trkpt>
      <trkpt lat="45.92809" lon="4.72833">
        <ele>171</ele>
        <time>2017-12-15T12:12:43Z</time>
      </trkpt>
      <trkpt lat="45.92808" lon="4.72825">
        <ele>171</ele>
        <time>2017-12-15T12:12:44Z</time>
      </trkpt>
      <trkpt lat="45.92806" lon="4.72818">
        <ele>171</ele>
        <time>2017-12-15T12:12:45Z</time>
      </trkpt>
      <trkpt lat="45.92805" lon="4.72811">
        <ele>171</ele>
        <time>2017-12-15T12:12:46Z</time>
      </trkpt>
      <trkpt lat="45.92804" lon="4.72804">
        <ele>171</ele>
        <time>2017-12-15T12:12:47Z</time>
      </trkpt>
      <trkpt lat="45.92803" lon="4.72797">
        <ele>171</ele>
        <time>2017-12-15T12:12:48Z</time>
      </trkpt>
      <trkpt lat="45.92799" lon="4.72786">
        <ele>171</ele>
        <time>2017-12-15T12:12:50Z</time>
      </trkpt>
      <trkpt lat="45.92795" lon="4.72785">
        <ele>171</ele>
        <time>2017-12-15T12:12:51Z</time>
      </trkpt>
      <trkpt lat="45.92786" lon="4.72789">
        <ele>170</ele>
        <time>2017-12-15T12:12:53Z</time>
      </trkpt>
      <trkpt lat="45.92782" lon="4.72792">
        <ele>170</ele>
        <time>2017-12-15T12:12:54Z</time>
      </trkpt>
      <trkpt lat="45.92779" lon="4.72796">
        <ele>170</ele>
        <time>2017-12-15T12:12:55Z</time>
      </trkpt>
      <trkpt lat="45.92775" lon="4.728">
        <ele>170</ele>
        <time>2017-12-15T12:12:56Z</time>
      </trkpt>
      <trkpt lat="45.92771" lon="4.72802">
        <ele>170</ele>
        <time>2017-12-15T12:12:57Z</time>
      </trkpt>
      <trkpt lat="45.92766" lon="4.72807">
        <ele>170</ele>
        <time>2017-12-15T12:12:58Z</time>
      </trkpt>
      <trkpt lat="45.92762" lon="4.7281">
        <ele>170</ele>
        <time>2017-12-15T12:12:59Z</time>
      </trkpt>
      <trkpt lat="45.92757" lon="4.72815">
        <ele>170</ele>
        <time>2017-12-15T12:13:00Z</time>
      </trkpt>
      <trkpt lat="45.92754" lon="4.72817">
        <ele>170</ele>
        <time>2017-12-15T12:13:01Z</time>
      </trkpt>
      <trkpt lat="45.92749" lon="4.72821">
        <ele>169</ele>
        <time>2017-12-15T12:13:02Z</time>
      </trkpt>
      <trkpt lat="45.92745" lon="4.72823">
        <ele>169</ele>
        <time>2017-12-15T12:13:03Z</time>
      </trkpt>
      <trkpt lat="45.92739" lon="4.72828">
        <ele>169</ele>
        <time>2017-12-15T12:13:04Z</time>
      </trkpt>
      <trkpt lat="45.92733" lon="4.72831">
        <ele>169</ele>
        <time>2017-12-15T12:13:05Z</time>
      </trkpt>
      <trkpt lat="45.92728" lon="4.72835">
        <ele>169</ele>
        <time>2017-12-15T12:13:06Z</time>
      </trkpt>
      <trkpt lat="45.92723" lon="4.7284">
        <ele>169</ele>
        <time>2017-12-15T12:13:07Z</time>
      </trkpt>
      <trkpt lat="45.92718" lon="4.72844">
        <ele>169</ele>
        <time>2017-12-15T12:13:08Z</time>
      </trkpt>
      <trkpt lat="45.92713" lon="4.72848">
        <ele>169</ele>
        <time>2017-12-15T12:13:09Z</time>
      </trkpt>
      <trkpt lat="45.92707" lon="4.72852">
        <ele>169</ele>
        <time>2017-12-15T12:13:10Z</time>
      </trkpt>
      <trkpt lat="45.92702" lon="4.72857">
        <ele>169</ele>
        <time>2017-12-15T12:13:11Z</time>
      </trkpt>
      <trkpt lat="45.92698" lon="4.7286">
        <ele>169</ele>
        <time>2017-12-15T12:13:12Z</time>
      </trkpt>
      <trkpt lat="45.92692" lon="4.72864">
        <ele>169</ele>
        <time>2017-12-15T12:13:13Z</time>
      </trkpt>
      <trkpt lat="45.92687" lon="4.72868">
        <ele>169</ele>
        <time>2017-12-15T12:13:14Z</time>
      </trkpt>
      <trkpt lat="45.9268" lon="4.72872">
        <ele>169</ele>
        <time>2017-12-15T12:13:15Z</time>
      </trkpt>
      <trkpt lat="45.92675" lon="4.72877">
        <ele>170</ele>
        <time>2017-12-15T12:13:16Z</time>
      </trkpt>
      <trkpt lat="45.92671" lon="4.72881">
        <ele>170</ele>
        <time>2017-12-15T12:13:17Z</time>
      </trkpt>
      <trkpt lat="45.92666" lon="4.72885">
        <ele>169</ele>
        <time>2017-12-15T12:13:18Z</time>
      </trkpt>
      <trkpt lat="45.9266" lon="4.72888">
        <ele>169</ele>
        <time>2017-12-15T12:13:19Z</time>
      </trkpt>
      <trkpt lat="45.92656" lon="4.72891">
        <ele>169</ele>
        <time>2017-12-15T12:13:20Z</time>
      </trkpt>
      <trkpt lat="45.92652" lon="4.72893">
        <ele>169</ele>
        <time>2017-12-15T12:13:21Z</time>
      </trkpt>
      <trkpt lat="45.92647" lon="4.72898">
        <ele>169</ele>
        <time>2017-12-15T12:13:22Z</time>
      </trkpt>
      <trkpt lat="45.92642" lon="4.72902">
        <ele>169</ele>
        <time>2017-12-15T12:13:23Z</time>
      </trkpt>
      <trkpt lat="45.92636" lon="4.72906">
        <ele>169</ele>
        <time>2017-12-15T12:13:24Z</time>
      </trkpt>
      <trkpt lat="45.92632" lon="4.7291">
        <ele>169</ele>
        <time>2017-12-15T12:13:25Z</time>
      </trkpt>
      <trkpt lat="45.92627" lon="4.72914">
        <ele>169</ele>
        <time>2017-12-15T12:13:26Z</time>
      </trkpt>
      <trkpt lat="45.92622" lon="4.72919">
        <ele>169</ele>
        <time>2017-12-15T12:13:27Z</time>
      </trkpt>
      <trkpt lat="45.92617" lon="4.72924">
        <ele>169</ele>
        <time>2017-12-15T12:13:28Z</time>
      </trkpt>
      <trkpt lat="45.92612" lon="4.72929">
        <ele>169</ele>
        <time>2017-12-15T12:13:29Z</time>
      </trkpt>
      <trkpt lat="45.92606" lon="4.72934">
        <ele>169</ele>
        <time>2017-12-15T12:13:30Z</time>
      </trkpt>
      <trkpt lat="45.92602" lon="4.72938">
        <ele>169</ele>
        <time>2017-12-15T12:13:31Z</time>
      </trkpt>
      <trkpt lat="45.92597" lon="4.72943">
        <ele>169</ele>
        <time>2017-12-15T12:13:32Z</time>
      </trkpt>
      <trkpt lat="45.92593" lon="4.72948">
        <ele>169</ele>
        <time>2017-12-15T12:13:33Z</time>
      </trkpt>
      <trkpt lat="45.92589" lon="4.72953">
        <ele>169</ele>
        <time>2017-12-15T12:13:34Z</time>
      </trkpt>
      <trkpt lat="45.92584" lon="4.72958">
        <ele>169</ele>
        <time>2017-12-15T12:13:35Z</time>
      </trkpt>
      <trkpt lat="45.92579" lon="4.72964">
        <ele>169</ele>
        <time>2017-12-15T12:13:36Z</time>
      </trkpt>
      <trkpt lat="45.92576" lon="4.72968">
        <ele>169</ele>
        <time>2017-12-15T12:13:37Z</time>
      </trkpt>
      <trkpt lat="45.92571" lon="4.72973">
        <ele>169</ele>
        <time>2017-12-15T12:13:38Z</time>
      </trkpt>
      <trkpt lat="45.92566" lon="4.72979">
        <ele>169</ele>
        <time>2017-12-15T12:13:39Z</time>
      </trkpt>
      <trkpt lat="45.92562" lon="4.72984">
        <ele>169</ele>
        <time>2017-12-15T12:13:40Z</time>
      </trkpt>
      <trkpt lat="45.92558" lon="4.72988">
        <ele>169</ele>
        <time>2017-12-15T12:13:41Z</time>
      </trkpt>
      <trkpt lat="45.92553" lon="4.72993">
        <ele>169</ele>
        <time>2017-12-15T12:13:42Z</time>
      </trkpt>
      <trkpt lat="45.92548" lon="4.72999">
        <ele>169</ele>
        <time>2017-12-15T12:13:43Z</time>
      </trkpt>
      <trkpt lat="45.92544" lon="4.73004">
        <ele>169</ele>
        <time>2017-12-15T12:13:44Z</time>
      </trkpt>
      <trkpt lat="45.9254" lon="4.73008">
        <ele>169</ele>
        <time>2017-12-15T12:13:45Z</time>
      </trkpt>
      <trkpt lat="45.92535" lon="4.73012">
        <ele>169</ele>
        <time>2017-12-15T12:13:46Z</time>
      </trkpt>
      <trkpt lat="45.92531" lon="4.73016">
        <ele>169</ele>
        <time>2017-12-15T12:13:47Z</time>
      </trkpt>
      <trkpt lat="45.92527" lon="4.73021">
        <ele>169</ele>
        <time>2017-12-15T12:13:48Z</time>
      </trkpt>
      <trkpt lat="45.92523" lon="4.73025">
        <ele>169</ele>
        <time>2017-12-15T12:13:49Z</time>
      </trkpt>
      <trkpt lat="45.92519" lon="4.73028">
        <ele>169</ele>
        <time>2017-12-15T12:13:50Z</time>
      </trkpt>
      <trkpt lat="45.92515" lon="4.73032">
        <ele>169</ele>
        <time>2017-12-15T12:13:51Z</time>
      </trkpt>
      <trkpt lat="45.92511" lon="4.73035">
        <ele>169</ele>
        <time>2017-12-15T12:13:52Z</time>
      </trkpt>
      <trkpt lat="45.92502" lon="4.73039">
        <ele>169</ele>
        <time>2017-12-15T12:13:54Z</time>
      </trkpt>
      <trkpt lat="45.92498" lon="4.73043">
        <ele>170</ele>
        <time>2017-12-15T12:13:55Z</time>
      </trkpt>
      <trkpt lat="45.92493" lon="4.73047">
        <ele>170</ele>
        <time>2017-12-15T12:13:56Z</time>
      </trkpt>
      <trkpt lat="45.92489" lon="4.73051">
        <ele>170</ele>
        <time>2017-12-15T12:13:57Z</time>
      </trkpt>
      <trkpt lat="45.92485" lon="4.73055">
        <ele>170</ele>
        <time>2017-12-15T12:13:58Z</time>
      </trkpt>
      <trkpt lat="45.9248" lon="4.7306">
        <ele>170</ele>
        <time>2017-12-15T12:13:59Z</time>
      </trkpt>
      <trkpt lat="45.92475" lon="4.73062">
        <ele>170</ele>
        <time>2017-12-15T12:14:00Z</time>
      </trkpt>
      <trkpt lat="45.9247" lon="4.73066">
        <ele>170</ele>
        <time>2017-12-15T12:14:01Z</time>
      </trkpt>
      <trkpt lat="45.92465" lon="4.73071">
        <ele>170</ele>
        <time>2017-12-15T12:14:02Z</time>
      </trkpt>
      <trkpt lat="45.9246" lon="4.73073">
        <ele>170</ele>
        <time>2017-12-15T12:14:03Z</time>
      </trkpt>
      <trkpt lat="45.92456" lon="4.73077">
        <ele>170</ele>
        <time>2017-12-15T12:14:04Z</time>
      </trkpt>
      <trkpt lat="45.92451" lon="4.73081">
        <ele>170</ele>
        <time>2017-12-15T12:14:05Z</time>
      </trkpt>
      <trkpt lat="45.92447" lon="4.73085">
        <ele>170</ele>
        <time>2017-12-15T12:14:06Z</time>
      </trkpt>
      <trkpt lat="45.92442" lon="4.73089">
        <ele>170</ele>
        <time>2017-12-15T12:14:07Z</time>
      </trkpt>
      <trkpt lat="45.92435" lon="4.73095">
        <ele>171</ele>
        <time>2017-12-15T12:14:09Z</time>
      </trkpt>
      <trkpt lat="45.9243" lon="4.731">
        <ele>171</ele>
        <time>2017-12-15T12:14:10Z</time>
      </trkpt>
      <trkpt lat="45.92427" lon="4.73103">
        <ele>171</ele>
        <time>2017-12-15T12:14:11Z</time>
      </trkpt>
      <trkpt lat="45.92423" lon="4.73107">
        <ele>171</ele>
        <time>2017-12-15T12:14:12Z</time>
      </trkpt>
      <trkpt lat="45.92416" lon="4.73114">
        <ele>171</ele>
        <time>2017-12-15T12:14:14Z</time>
      </trkpt>
      <trkpt lat="45.92412" lon="4.73119">
        <ele>171</ele>
        <time>2017-12-15T12:14:15Z</time>
      </trkpt>
      <trkpt lat="45.9241" lon="4.73125">
        <ele>171</ele>
        <time>2017-12-15T12:14:16Z</time>
      </trkpt>
      <trkpt lat="45.92408" lon="4.73132">
        <ele>171</ele>
        <time>2017-12-15T12:14:17Z</time>
      </trkpt>
      <trkpt lat="45.92407" lon="4.73139">
        <ele>171</ele>
        <time>2017-12-15T12:14:18Z</time>
      </trkpt>
      <trkpt lat="45.92407" lon="4.73146">
        <ele>171</ele>
        <time>2017-12-15T12:14:19Z</time>
      </trkpt>
      <trkpt lat="45.92407" lon="4.73153">
        <ele>171</ele>
        <time>2017-12-15T12:14:20Z</time>
      </trkpt>
      <trkpt lat="45.92406" lon="4.73161">
        <ele>170</ele>
        <time>2017-12-15T12:14:21Z</time>
      </trkpt>
      <trkpt lat="45.92406" lon="4.73169">
        <ele>170</ele>
        <time>2017-12-15T12:14:22Z</time>
      </trkpt>
      <trkpt lat="45.92406" lon="4.73177">
        <ele>171</ele>
        <time>2017-12-15T12:14:23Z</time>
      </trkpt>
      <trkpt lat="45.92406" lon="4.73185">
        <ele>171</ele>
        <time>2017-12-15T12:14:24Z</time>
      </trkpt>
      <trkpt lat="45.92407" lon="4.73192">
        <ele>171</ele>
        <time>2017-12-15T12:14:25Z</time>
      </trkpt>
      <trkpt lat="45.92407" lon="4.732">
        <ele>171</ele>
        <time>2017-12-15T12:14:26Z</time>
      </trkpt>
      <trkpt lat="45.92407" lon="4.73207">
        <ele>171</ele>
        <time>2017-12-15T12:14:27Z</time>
      </trkpt>
      <trkpt lat="45.92408" lon="4.73215">
        <ele>171</ele>
        <time>2017-12-15T12:14:28Z</time>
      </trkpt>
      <trkpt lat="45.92408" lon="4.73223">
        <ele>171</ele>
        <time>2017-12-15T12:14:29Z</time>
      </trkpt>
      <trkpt lat="45.92409" lon="4.73231">
        <ele>171</ele>
        <time>2017-12-15T12:14:30Z</time>
      </trkpt>
      <trkpt lat="45.92409" lon="4.73238">
        <ele>171</ele>
        <time>2017-12-15T12:14:31Z</time>
      </trkpt>
      <trkpt lat="45.92411" lon="4.73246">
        <ele>171</ele>
        <time>2017-12-15T12:14:32Z</time>
      </trkpt>
      <trkpt lat="45.92411" lon="4.73254">
        <ele>171</ele>
        <time>2017-12-15T12:14:33Z</time>
      </trkpt>
      <trkpt lat="45.92411" lon="4.73262">
        <ele>171</ele>
        <time>2017-12-15T12:14:34Z</time>
      </trkpt>
      <trkpt lat="45.92411" lon="4.73269">
        <ele>171</ele>
        <time>2017-12-15T12:14:35Z</time>
      </trkpt>
      <trkpt lat="45.92411" lon="4.73276">
        <ele>171</ele>
        <time>2017-12-15T12:14:36Z</time>
      </trkpt>
      <trkpt lat="45.92412" lon="4.73284">
        <ele>171</ele>
        <time>2017-12-15T12:14:37Z</time>
      </trkpt>
      <trkpt lat="45.92413" lon="4.73292">
        <ele>171</ele>
        <time>2017-12-15T12:14:38Z</time>
      </trkpt>
      <trkpt lat="45.92414" lon="4.73299">
        <ele>171</ele>
        <time>2017-12-15T12:14:39Z</time>
      </trkpt>
      <trkpt lat="45.92414" lon="4.73306">
        <ele>171</ele>
        <time>2017-12-15T12:14:40Z</time>
      </trkpt>
      <trkpt lat="45.92415" lon="4.73313">
        <ele>171</ele>
        <time>2017-12-15T12:14:41Z</time>
      </trkpt>
      <trkpt lat="45.92415" lon="4.73321">
        <ele>171</ele>
        <time>2017-12-15T12:14:42Z</time>
      </trkpt>
      <trkpt lat="45.92417" lon="4.73329">
        <ele>171</ele>
        <time>2017-12-15T12:14:43Z</time>
      </trkpt>
      <trkpt lat="45.92417" lon="4.73336">
        <ele>171</ele>
        <time>2017-12-15T12:14:44Z</time>
      </trkpt>
      <trkpt lat="45.92418" lon="4.73344">
        <ele>171</ele>
        <time>2017-12-15T12:14:45Z</time>
      </trkpt>
      <trkpt lat="45.92419" lon="4.7335">
        <ele>171</ele>
        <time>2017-12-15T12:14:46Z</time>
      </trkpt>
      <trkpt lat="45.9242" lon="4.73356">
        <ele>171</ele>
        <time>2017-12-15T12:14:47Z</time>
      </trkpt>
      <trkpt lat="45.92422" lon="4.73363">
        <ele>172</ele>
        <time>2017-12-15T12:14:48Z</time>
      </trkpt>
      <trkpt lat="45.92423" lon="4.73368">
        <ele>172</ele>
        <time>2017-12-15T12:14:49Z</time>
      </trkpt>
      <trkpt lat="45.92424" lon="4.73375">
        <ele>172</ele>
        <time>2017-12-15T12:14:50Z</time>
      </trkpt>
      <trkpt lat="45.92425" lon="4.73382">
        <ele>172</ele>
        <time>2017-12-15T12:14:51Z</time>
      </trkpt>
      <trkpt lat="45.92427" lon="4.73389">
        <ele>172</ele>
        <time>2017-12-15T12:14:52Z</time>
      </trkpt>
      <trkpt lat="45.92429" lon="4.73395">
        <ele>172</ele>
        <time>2017-12-15T12:14:53Z</time>
      </trkpt>
      <trkpt lat="45.92432" lon="4.73402">
        <ele>172</ele>
        <time>2017-12-15T12:14:54Z</time>
      </trkpt>
      <trkpt lat="45.92435" lon="4.73407">
        <ele>172</ele>
        <time>2017-12-15T12:14:55Z</time>
      </trkpt>
      <trkpt lat="45.92439" lon="4.73412">
        <ele>172</ele>
        <time>2017-12-15T12:14:56Z</time>
      </trkpt>
      <trkpt lat="45.92444" lon="4.73416">
        <ele>172</ele>
        <time>2017-12-15T12:14:57Z</time>
      </trkpt>
      <trkpt lat="45.92448" lon="4.7342">
        <ele>173</ele>
        <time>2017-12-15T12:14:58Z</time>
      </trkpt>
      <trkpt lat="45.92452" lon="4.73423">
        <ele>173</ele>
        <time>2017-12-15T12:14:59Z</time>
      </trkpt>
      <trkpt lat="45.92457" lon="4.73427">
        <ele>173</ele>
        <time>2017-12-15T12:15:00Z</time>
      </trkpt>
      <trkpt lat="45.92461" lon="4.73432">
        <ele>173</ele>
        <time>2017-12-15T12:15:01Z</time>
      </trkpt>
      <trkpt lat="45.92463" lon="4.73438">
        <ele>173</ele>
        <time>2017-12-15T12:15:02Z</time>
      </trkpt>
      <trkpt lat="45.92466" lon="4.73444">
        <ele>173</ele>
        <time>2017-12-15T12:15:03Z</time>
      </trkpt>
      <trkpt lat="45.9247" lon="4.73452">
        <ele>173</ele>
        <time>2017-12-15T12:15:04Z</time>
      </trkpt>
      <trkpt lat="45.92472" lon="4.73459">
        <ele>173</ele>
        <time>2017-12-15T12:15:05Z</time>
      </trkpt>
      <trkpt lat="45.92472" lon="4.73467">
        <ele>173</ele>
        <time>2017-12-15T12:15:06Z</time>
      </trkpt>
      <trkpt lat="45.92473" lon="4.73473">
        <ele>173</ele>
        <time>2017-12-15T12:15:07Z</time>
      </trkpt>
      <trkpt lat="45.92473" lon="4.73479">
        <ele>173</ele>
        <time>2017-12-15T12:15:08Z</time>
      </trkpt>
      <trkpt lat="45.92474" lon="4.73487">
        <ele>173</ele>
        <time>2017-12-15T12:15:09Z</time>
      </trkpt>
      <trkpt lat="45.92473" lon="4.73493">
        <ele>173</ele>
        <time>2017-12-15T12:15:10Z</time>
      </trkpt>
      <trkpt lat="45.92471" lon="4.735">
        <ele>174</ele>
        <time>2017-12-15T12:15:11Z</time>
      </trkpt>
      <trkpt lat="45.92472" lon="4.73507">
        <ele>174</ele>
        <time>2017-12-15T12:15:12Z</time>
      </trkpt>
      <trkpt lat="45.92471" lon="4.73513">
        <ele>174</ele>
        <time>2017-12-15T12:15:13Z</time>
      </trkpt>
      <trkpt lat="45.92471" lon="4.7352">
        <ele>174</ele>
        <time>2017-12-15T12:15:14Z</time>
      </trkpt>
      <trkpt lat="45.92471" lon="4.73526">
        <ele>174</ele>
        <time>2017-12-15T12:15:15Z</time>
      </trkpt>
      <trkpt lat="45.92469" lon="4.73536">
        <ele>174</ele>
        <time>2017-12-15T12:15:17Z</time>
      </trkpt>
      <trkpt lat="45.92468" lon="4.7354">
        <ele>174</ele>
        <time>2017-12-15T12:15:18Z</time>
      </trkpt>
      <trkpt lat="45.92468" lon="4.73549">
        <ele>173</ele>
        <time>2017-12-15T12:15:20Z</time>
      </trkpt>
      <trkpt lat="45.92469" lon="4.73553">
        <ele>173</ele>
        <time>2017-12-15T12:15:21Z</time>
      </trkpt>
      <trkpt lat="45.92468" lon="4.73561">
        <ele>173</ele>
        <time>2017-12-15T12:15:22Z</time>
      </trkpt>
      <trkpt lat="45.92468" lon="4.7357">
        <ele>173</ele>
        <time>2017-12-15T12:15:23Z</time>
      </trkpt>
      <trkpt lat="45.92469" lon="4.73578">
        <ele>173</ele>
        <time>2017-12-15T12:15:24Z</time>
      </trkpt>
      <trkpt lat="45.92469" lon="4.73586">
        <ele>174</ele>
        <time>2017-12-15T12:15:25Z</time>
      </trkpt>
      <trkpt lat="45.9247" lon="4.73594">
        <ele>174</ele>
        <time>2017-12-15T12:15:26Z</time>
      </trkpt>
      <trkpt lat="45.9247" lon="4.73601">
        <ele>174</ele>
        <time>2017-12-15T12:15:27Z</time>
      </trkpt>
      <trkpt lat="45.92473" lon="4.73611">
        <ele>174</ele>
        <time>2017-12-15T12:15:28Z</time>
      </trkpt>
      <trkpt lat="45.92473" lon="4.73618">
        <ele>174</ele>
        <time>2017-12-15T12:15:29Z</time>
      </trkpt>
      <trkpt lat="45.92474" lon="4.73626">
        <ele>174</ele>
        <time>2017-12-15T12:15:30Z</time>
      </trkpt>
      <trkpt lat="45.92474" lon="4.73632">
        <ele>174</ele>
        <time>2017-12-15T12:15:31Z</time>
      </trkpt>
      <trkpt lat="45.92475" lon="4.73644">
        <ele>174</ele>
        <time>2017-12-15T12:15:33Z</time>
      </trkpt>
      <trkpt lat="45.92476" lon="4.73651">
        <ele>174</ele>
        <time>2017-12-15T12:15:34Z</time>
      </trkpt>
      <trkpt lat="45.92475" lon="4.73662">
        <ele>174</ele>
        <time>2017-12-15T12:15:36Z</time>
      </trkpt>
      <trkpt lat="45.92473" lon="4.73668">
        <ele>174</ele>
        <time>2017-12-15T12:15:37Z</time>
      </trkpt>
      <trkpt lat="45.92472" lon="4.73678">
        <ele>174</ele>
        <time>2017-12-15T12:15:39Z</time>
      </trkpt>
      <trkpt lat="45.92471" lon="4.73684">
        <ele>174</ele>
        <time>2017-12-15T12:15:40Z</time>
      </trkpt>
      <trkpt lat="45.92471" lon="4.73695">
        <ele>174</ele>
        <time>2017-12-15T12:15:42Z</time>
      </trkpt>
      <trkpt lat="45.92472" lon="4.73699">
        <ele>174</ele>
        <time>2017-12-15T12:15:43Z</time>
      </trkpt>
      <trkpt lat="45.92468" lon="4.7371">
        <ele>174</ele>
        <time>2017-12-15T12:15:57Z</time>
      </trkpt>
      <trkpt lat="45.92467" lon="4.7371">
        <ele>174</ele>
        <time>2017-12-15T12:15:58Z</time>
      </trkpt>
      <trkpt lat="45.92463" lon="4.7371">
        <ele>174</ele>
        <time>2017-12-15T12:16:28.711Z</time>
      </trkpt>
    </trkseg>
  </trk>
</gpx>